<?xml version="1.0" encoding="UTF-8"?>
<gpx creator="Garmin Connect" version="1.1"
  xsi:schemaLocation="http://www.topografix.com/GPX/1/1 http://www.topografix.com/GPX/11.xsd"
  xmlns:ns3="http://www.garmin.com/xmlschemas/TrackPointExtension/v1"
  xmlns="http://www.topografix.com/GPX/1/1"
  xmlns:xsi="http://www.w3.org/2001/XMLSchema-instance" xmlns:ns2="http://www.garmin.com/xmlschemas/GpxExtensions/v3">
  <metadata>
    <link href="connect.garmin.com">
      <text>Garmin Connect</text>
    </link>
    <time>2020-06-23T14:32:06.000Z</time>
  </metadata>
  <trk>
    <name>Frasdorf PPG</name>
    <type>other</type>
    <trkseg>
      <trkpt lat="47.748467288911342620849609375" lon="12.2502800635993480682373046875">
        <ele>1524.800048828125</ele>
        <time>2020-06-23T14:32:06.000Z</time>
        <extensions>
          <ns3:TrackPointExtension>
            <ns3:atemp>27.0</ns3:atemp>
            <ns3:hr>103</ns3:hr>
          </ns3:TrackPointExtension>
        </extensions>
      </trkpt>
      <trkpt lat="47.748467624187469482421875" lon="12.25027578882873058319091796875">
        <ele>1524.800048828125</ele>
        <time>2020-06-23T14:32:08.000Z</time>
        <extensions>
          <ns3:TrackPointExtension>
            <ns3:atemp>27.0</ns3:atemp>
            <ns3:hr>100</ns3:hr>
          </ns3:TrackPointExtension>
        </extensions>
      </trkpt>
      <trkpt lat="47.74844222702085971832275390625" lon="12.250278554856777191162109375">
        <ele>1525.199951171875</ele>
        <time>2020-06-23T14:32:14.000Z</time>
        <extensions>
          <ns3:TrackPointExtension>
            <ns3:atemp>27.0</ns3:atemp>
            <ns3:hr>99</ns3:hr>
          </ns3:TrackPointExtension>
        </extensions>
      </trkpt>
      <trkpt lat="47.748439125716686248779296875" lon="12.2502855956554412841796875">
        <ele>1525.199951171875</ele>
        <time>2020-06-23T14:32:23.000Z</time>
        <extensions>
          <ns3:TrackPointExtension>
            <ns3:atemp>27.0</ns3:atemp>
            <ns3:hr>97</ns3:hr>
          </ns3:TrackPointExtension>
        </extensions>
      </trkpt>
      <trkpt lat="47.7484386228024959564208984375" lon="12.25029104389250278472900390625">
        <ele>1525.199951171875</ele>
        <time>2020-06-23T14:32:27.000Z</time>
        <extensions>
          <ns3:TrackPointExtension>
            <ns3:atemp>27.0</ns3:atemp>
            <ns3:hr>102</ns3:hr>
          </ns3:TrackPointExtension>
        </extensions>
      </trkpt>
      <trkpt lat="47.74843585677444934844970703125" lon="12.2502917982637882232666015625">
        <ele>1525.199951171875</ele>
        <time>2020-06-23T14:32:31.000Z</time>
        <extensions>
          <ns3:TrackPointExtension>
            <ns3:atemp>27.0</ns3:atemp>
            <ns3:hr>104</ns3:hr>
          </ns3:TrackPointExtension>
        </extensions>
      </trkpt>
      <trkpt lat="47.74843602441251277923583984375" lon="12.2502948157489299774169921875">
        <ele>1525.199951171875</ele>
        <time>2020-06-23T14:32:41.000Z</time>
        <extensions>
          <ns3:TrackPointExtension>
            <ns3:atemp>27.0</ns3:atemp>
            <ns3:hr>103</ns3:hr>
          </ns3:TrackPointExtension>
        </extensions>
      </trkpt>
      <trkpt lat="47.748435437679290771484375" lon="12.25029456429183483123779296875">
        <ele>1525.4000244140625</ele>
        <time>2020-06-23T14:32:43.000Z</time>
        <extensions>
          <ns3:TrackPointExtension>
            <ns3:atemp>27.0</ns3:atemp>
            <ns3:hr>100</ns3:hr>
          </ns3:TrackPointExtension>
        </extensions>
      </trkpt>
      <trkpt lat="47.74843334220349788665771484375" lon="12.25028702057898044586181640625">
        <ele>1525.5999755859375</ele>
        <time>2020-06-23T14:32:50.000Z</time>
        <extensions>
          <ns3:TrackPointExtension>
            <ns3:atemp>27.0</ns3:atemp>
            <ns3:hr>101</ns3:hr>
          </ns3:TrackPointExtension>
        </extensions>
      </trkpt>
      <trkpt lat="47.74843334220349788665771484375" lon="12.2502837516367435455322265625">
        <ele>1525.800048828125</ele>
        <time>2020-06-23T14:32:58.000Z</time>
        <extensions>
          <ns3:TrackPointExtension>
            <ns3:atemp>27.0</ns3:atemp>
            <ns3:hr>98</ns3:hr>
          </ns3:TrackPointExtension>
        </extensions>
      </trkpt>
      <trkpt lat="47.748433090746402740478515625" lon="12.2502840869128704071044921875">
        <ele>1525.800048828125</ele>
        <time>2020-06-23T14:32:59.000Z</time>
        <extensions>
          <ns3:TrackPointExtension>
            <ns3:atemp>27.0</ns3:atemp>
            <ns3:hr>99</ns3:hr>
          </ns3:TrackPointExtension>
        </extensions>
      </trkpt>
      <trkpt lat="47.74843216873705387115478515625" lon="12.2502820752561092376708984375">
        <ele>1525.800048828125</ele>
        <time>2020-06-23T14:33:01.000Z</time>
        <extensions>
          <ns3:TrackPointExtension>
            <ns3:atemp>27.0</ns3:atemp>
            <ns3:hr>100</ns3:hr>
          </ns3:TrackPointExtension>
        </extensions>
      </trkpt>
      <trkpt lat="47.748430408537387847900390625" lon="12.25028148852288722991943359375">
        <ele>1525.800048828125</ele>
        <time>2020-06-23T14:33:08.000Z</time>
        <extensions>
          <ns3:TrackPointExtension>
            <ns3:atemp>27.0</ns3:atemp>
            <ns3:hr>97</ns3:hr>
          </ns3:TrackPointExtension>
        </extensions>
      </trkpt>
      <trkpt lat="47.748429737985134124755859375" lon="12.25029188208281993865966796875">
        <ele>1525.5999755859375</ele>
        <time>2020-06-23T14:33:18.000Z</time>
        <extensions>
          <ns3:TrackPointExtension>
            <ns3:atemp>27.0</ns3:atemp>
            <ns3:hr>97</ns3:hr>
          </ns3:TrackPointExtension>
        </extensions>
      </trkpt>
      <trkpt lat="47.7485204301774501800537109375" lon="12.2503172792494297027587890625">
        <ele>1525.800048828125</ele>
        <time>2020-06-23T14:33:21.000Z</time>
        <extensions>
          <ns3:TrackPointExtension>
            <ns3:atemp>27.0</ns3:atemp>
            <ns3:hr>96</ns3:hr>
          </ns3:TrackPointExtension>
        </extensions>
      </trkpt>
      <trkpt lat="47.748574912548065185546875" lon="12.2502820752561092376708984375">
        <ele>1527</ele>
        <time>2020-06-23T14:33:24.000Z</time>
        <extensions>
          <ns3:TrackPointExtension>
            <ns3:atemp>27.0</ns3:atemp>
            <ns3:hr>94</ns3:hr>
          </ns3:TrackPointExtension>
        </extensions>
      </trkpt>
      <trkpt lat="47.7486394532024860382080078125" lon="12.25021543912589550018310546875">
        <ele>1529</ele>
        <time>2020-06-23T14:33:26.000Z</time>
        <extensions>
          <ns3:TrackPointExtension>
            <ns3:atemp>27.0</ns3:atemp>
            <ns3:hr>96</ns3:hr>
          </ns3:TrackPointExtension>
        </extensions>
      </trkpt>
      <trkpt lat="47.74872905574738979339599609375" lon="12.250068672001361846923828125">
        <ele>1530.4000244140625</ele>
        <time>2020-06-23T14:33:28.000Z</time>
        <extensions>
          <ns3:TrackPointExtension>
            <ns3:atemp>27.0</ns3:atemp>
            <ns3:hr>96</ns3:hr>
          </ns3:TrackPointExtension>
        </extensions>
      </trkpt>
      <trkpt lat="47.74881186895072460174560546875" lon="12.2499789856374263763427734375">
        <ele>1531.5999755859375</ele>
        <time>2020-06-23T14:33:30.000Z</time>
        <extensions>
          <ns3:TrackPointExtension>
            <ns3:atemp>27.0</ns3:atemp>
            <ns3:hr>97</ns3:hr>
          </ns3:TrackPointExtension>
        </extensions>
      </trkpt>
      <trkpt lat="47.74885344319045543670654296875" lon="12.249942608177661895751953125">
        <ele>1532.800048828125</ele>
        <time>2020-06-23T14:33:31.000Z</time>
        <extensions>
          <ns3:TrackPointExtension>
            <ns3:atemp>27.0</ns3:atemp>
            <ns3:hr>95</ns3:hr>
          </ns3:TrackPointExtension>
        </extensions>
      </trkpt>
      <trkpt lat="47.74889476597309112548828125" lon="12.24988938309252262115478515625">
        <ele>1535</ele>
        <time>2020-06-23T14:33:32.000Z</time>
        <extensions>
          <ns3:TrackPointExtension>
            <ns3:atemp>27.0</ns3:atemp>
            <ns3:hr>99</ns3:hr>
          </ns3:TrackPointExtension>
        </extensions>
      </trkpt>
      <trkpt lat="47.74894229136407375335693359375" lon="12.24982970394194126129150390625">
        <ele>1537.199951171875</ele>
        <time>2020-06-23T14:33:33.000Z</time>
        <extensions>
          <ns3:TrackPointExtension>
            <ns3:atemp>27.0</ns3:atemp>
            <ns3:hr>102</ns3:hr>
          </ns3:TrackPointExtension>
        </extensions>
      </trkpt>
      <trkpt lat="47.74899065494537353515625" lon="12.24977890960872173309326171875">
        <ele>1539.4000244140625</ele>
        <time>2020-06-23T14:33:34.000Z</time>
        <extensions>
          <ns3:TrackPointExtension>
            <ns3:atemp>27.0</ns3:atemp>
            <ns3:hr>104</ns3:hr>
          </ns3:TrackPointExtension>
        </extensions>
      </trkpt>
      <trkpt lat="47.74903700686991214752197265625" lon="12.24974940530955791473388671875">
        <ele>1541.800048828125</ele>
        <time>2020-06-23T14:33:35.000Z</time>
        <extensions>
          <ns3:TrackPointExtension>
            <ns3:atemp>27.0</ns3:atemp>
            <ns3:hr>110</ns3:hr>
          </ns3:TrackPointExtension>
        </extensions>
      </trkpt>
      <trkpt lat="47.74907539598643779754638671875" lon="12.249736748635768890380859375">
        <ele>1544.4000244140625</ele>
        <time>2020-06-23T14:33:36.000Z</time>
        <extensions>
          <ns3:TrackPointExtension>
            <ns3:atemp>27.0</ns3:atemp>
            <ns3:hr>113</ns3:hr>
          </ns3:TrackPointExtension>
        </extensions>
      </trkpt>
      <trkpt lat="47.74910238571465015411376953125" lon="12.24972509779036045074462890625">
        <ele>1547.4000244140625</ele>
        <time>2020-06-23T14:33:37.000Z</time>
        <extensions>
          <ns3:TrackPointExtension>
            <ns3:atemp>27.0</ns3:atemp>
            <ns3:hr>118</ns3:hr>
          </ns3:TrackPointExtension>
        </extensions>
      </trkpt>
      <trkpt lat="47.74912065826356410980224609375" lon="12.249698527157306671142578125">
        <ele>1550.800048828125</ele>
        <time>2020-06-23T14:33:38.000Z</time>
        <extensions>
          <ns3:TrackPointExtension>
            <ns3:atemp>27.0</ns3:atemp>
            <ns3:hr>120</ns3:hr>
          </ns3:TrackPointExtension>
        </extensions>
      </trkpt>
      <trkpt lat="47.74914563633501529693603515625" lon="12.2496480681002140045166015625">
        <ele>1553.5999755859375</ele>
        <time>2020-06-23T14:33:39.000Z</time>
        <extensions>
          <ns3:TrackPointExtension>
            <ns3:atemp>27.0</ns3:atemp>
            <ns3:hr>124</ns3:hr>
          </ns3:TrackPointExtension>
        </extensions>
      </trkpt>
      <trkpt lat="47.74917916394770145416259765625" lon="12.24958126433193683624267578125">
        <ele>1556</ele>
        <time>2020-06-23T14:33:40.000Z</time>
        <extensions>
          <ns3:TrackPointExtension>
            <ns3:atemp>27.0</ns3:atemp>
            <ns3:hr>123</ns3:hr>
          </ns3:TrackPointExtension>
        </extensions>
      </trkpt>
      <trkpt lat="47.74921520613133907318115234375" lon="12.24952443502843379974365234375">
        <ele>1557.800048828125</ele>
        <time>2020-06-23T14:33:41.000Z</time>
        <extensions>
          <ns3:TrackPointExtension>
            <ns3:atemp>27.0</ns3:atemp>
            <ns3:hr>124</ns3:hr>
          </ns3:TrackPointExtension>
        </extensions>
      </trkpt>
      <trkpt lat="47.74924747645854949951171875" lon="12.2494730539619922637939453125">
        <ele>1559.800048828125</ele>
        <time>2020-06-23T14:33:42.000Z</time>
        <extensions>
          <ns3:TrackPointExtension>
            <ns3:atemp>27.0</ns3:atemp>
            <ns3:hr>123</ns3:hr>
          </ns3:TrackPointExtension>
        </extensions>
      </trkpt>
      <trkpt lat="47.74926583282649517059326171875" lon="12.2494192421436309814453125">
        <ele>1562</ele>
        <time>2020-06-23T14:33:43.000Z</time>
        <extensions>
          <ns3:TrackPointExtension>
            <ns3:atemp>27.0</ns3:atemp>
            <ns3:hr>120</ns3:hr>
          </ns3:TrackPointExtension>
        </extensions>
      </trkpt>
      <trkpt lat="47.7492808364331722259521484375" lon="12.2493614070117473602294921875">
        <ele>1564.800048828125</ele>
        <time>2020-06-23T14:33:44.000Z</time>
        <extensions>
          <ns3:TrackPointExtension>
            <ns3:atemp>27.0</ns3:atemp>
            <ns3:hr>122</ns3:hr>
          </ns3:TrackPointExtension>
        </extensions>
      </trkpt>
      <trkpt lat="47.7492882125079631805419921875" lon="12.24931019358336925506591796875">
        <ele>1567.800048828125</ele>
        <time>2020-06-23T14:33:45.000Z</time>
        <extensions>
          <ns3:TrackPointExtension>
            <ns3:atemp>27.0</ns3:atemp>
            <ns3:hr>121</ns3:hr>
          </ns3:TrackPointExtension>
        </extensions>
      </trkpt>
      <trkpt lat="47.74929709732532501220703125" lon="12.24927733652293682098388671875">
        <ele>1570.800048828125</ele>
        <time>2020-06-23T14:33:46.000Z</time>
        <extensions>
          <ns3:TrackPointExtension>
            <ns3:atemp>27.0</ns3:atemp>
            <ns3:hr>121</ns3:hr>
          </ns3:TrackPointExtension>
        </extensions>
      </trkpt>
      <trkpt lat="47.74932132102549076080322265625" lon="12.2492685355246067047119140625">
        <ele>1573</ele>
        <time>2020-06-23T14:33:47.000Z</time>
        <extensions>
          <ns3:TrackPointExtension>
            <ns3:atemp>27.0</ns3:atemp>
            <ns3:hr>120</ns3:hr>
          </ns3:TrackPointExtension>
        </extensions>
      </trkpt>
      <trkpt lat="47.74935870431363582611083984375" lon="12.249276079237461090087890625">
        <ele>1574.800048828125</ele>
        <time>2020-06-23T14:33:48.000Z</time>
        <extensions>
          <ns3:TrackPointExtension>
            <ns3:atemp>27.0</ns3:atemp>
            <ns3:hr>121</ns3:hr>
          </ns3:TrackPointExtension>
        </extensions>
      </trkpt>
      <trkpt lat="47.74939357303082942962646484375" lon="12.249291837215423583984375">
        <ele>1576</ele>
        <time>2020-06-23T14:33:49.000Z</time>
        <extensions>
          <ns3:TrackPointExtension>
            <ns3:atemp>27.0</ns3:atemp>
            <ns3:hr>122</ns3:hr>
          </ns3:TrackPointExtension>
        </extensions>
      </trkpt>
      <trkpt lat="47.74942743591964244842529296875" lon="12.24933332763612270355224609375">
        <ele>1577.800048828125</ele>
        <time>2020-06-23T14:33:51.000Z</time>
        <extensions>
          <ns3:TrackPointExtension>
            <ns3:atemp>27.0</ns3:atemp>
            <ns3:hr>119</ns3:hr>
          </ns3:TrackPointExtension>
        </extensions>
      </trkpt>
      <trkpt lat="47.7494451217353343963623046875" lon="12.2493682801723480224609375">
        <ele>1578.800048828125</ele>
        <time>2020-06-23T14:33:52.000Z</time>
        <extensions>
          <ns3:TrackPointExtension>
            <ns3:atemp>27.0</ns3:atemp>
            <ns3:hr>118</ns3:hr>
          </ns3:TrackPointExtension>
        </extensions>
      </trkpt>
      <trkpt lat="47.749473117291927337646484375" lon="12.2494184039533138275146484375">
        <ele>1579.800048828125</ele>
        <time>2020-06-23T14:33:53.000Z</time>
        <extensions>
          <ns3:TrackPointExtension>
            <ns3:atemp>27.0</ns3:atemp>
            <ns3:hr>118</ns3:hr>
          </ns3:TrackPointExtension>
        </extensions>
      </trkpt>
      <trkpt lat="47.74956774897873401641845703125" lon="12.249581515789031982421875">
        <ele>1581.199951171875</ele>
        <time>2020-06-23T14:33:55.000Z</time>
        <extensions>
          <ns3:TrackPointExtension>
            <ns3:atemp>26.0</ns3:atemp>
            <ns3:hr>118</ns3:hr>
          </ns3:TrackPointExtension>
        </extensions>
      </trkpt>
      <trkpt lat="47.74961837567389011383056640625" lon="12.24966106005012989044189453125">
        <ele>1581.800048828125</ele>
        <time>2020-06-23T14:33:56.000Z</time>
        <extensions>
          <ns3:TrackPointExtension>
            <ns3:atemp>26.0</ns3:atemp>
            <ns3:hr>118</ns3:hr>
          </ns3:TrackPointExtension>
        </extensions>
      </trkpt>
      <trkpt lat="47.7496640570461750030517578125" lon="12.249721996486186981201171875">
        <ele>1582.800048828125</ele>
        <time>2020-06-23T14:33:57.000Z</time>
        <extensions>
          <ns3:TrackPointExtension>
            <ns3:atemp>26.0</ns3:atemp>
            <ns3:hr>118</ns3:hr>
          </ns3:TrackPointExtension>
        </extensions>
      </trkpt>
      <trkpt lat="47.74970437400043010711669921875" lon="12.249766923487186431884765625">
        <ele>1585.199951171875</ele>
        <time>2020-06-23T14:33:58.000Z</time>
        <extensions>
          <ns3:TrackPointExtension>
            <ns3:atemp>26.0</ns3:atemp>
            <ns3:hr>119</ns3:hr>
          </ns3:TrackPointExtension>
        </extensions>
      </trkpt>
      <trkpt lat="47.74974234402179718017578125" lon="12.2498049773275852203369140625">
        <ele>1588.800048828125</ele>
        <time>2020-06-23T14:33:59.000Z</time>
        <extensions>
          <ns3:TrackPointExtension>
            <ns3:atemp>26.0</ns3:atemp>
            <ns3:hr>120</ns3:hr>
          </ns3:TrackPointExtension>
        </extensions>
      </trkpt>
      <trkpt lat="47.74977562017738819122314453125" lon="12.2498323023319244384765625">
        <ele>1592.4000244140625</ele>
        <time>2020-06-23T14:34:00.000Z</time>
        <extensions>
          <ns3:TrackPointExtension>
            <ns3:atemp>26.0</ns3:atemp>
            <ns3:hr>121</ns3:hr>
          </ns3:TrackPointExtension>
        </extensions>
      </trkpt>
      <trkpt lat="47.7498102374374866485595703125" lon="12.2498569451272487640380859375">
        <ele>1595.5999755859375</ele>
        <time>2020-06-23T14:34:01.000Z</time>
        <extensions>
          <ns3:TrackPointExtension>
            <ns3:atemp>26.0</ns3:atemp>
            <ns3:hr>120</ns3:hr>
          </ns3:TrackPointExtension>
        </extensions>
      </trkpt>
      <trkpt lat="47.749850638210773468017578125" lon="12.24987446330487728118896484375">
        <ele>1598</ele>
        <time>2020-06-23T14:34:02.000Z</time>
        <extensions>
          <ns3:TrackPointExtension>
            <ns3:atemp>26.0</ns3:atemp>
            <ns3:hr>122</ns3:hr>
          </ns3:TrackPointExtension>
        </extensions>
      </trkpt>
      <trkpt lat="47.7498987503349781036376953125" lon="12.24988820962607860565185546875">
        <ele>1599.5999755859375</ele>
        <time>2020-06-23T14:34:03.000Z</time>
        <extensions>
          <ns3:TrackPointExtension>
            <ns3:atemp>26.0</ns3:atemp>
            <ns3:hr>125</ns3:hr>
          </ns3:TrackPointExtension>
        </extensions>
      </trkpt>
      <trkpt lat="47.74994694627821445465087890625" lon="12.24991017021238803863525390625">
        <ele>1600.800048828125</ele>
        <time>2020-06-23T14:34:04.000Z</time>
        <extensions>
          <ns3:TrackPointExtension>
            <ns3:atemp>26.0</ns3:atemp>
            <ns3:hr>126</ns3:hr>
          </ns3:TrackPointExtension>
        </extensions>
      </trkpt>
      <trkpt lat="47.74998248554766178131103515625" lon="12.24994294345378875732421875">
        <ele>1602</ele>
        <time>2020-06-23T14:34:05.000Z</time>
        <extensions>
          <ns3:TrackPointExtension>
            <ns3:atemp>26.0</ns3:atemp>
            <ns3:hr>127</ns3:hr>
          </ns3:TrackPointExtension>
        </extensions>
      </trkpt>
      <trkpt lat="47.7500036917626857757568359375" lon="12.2499798238277435302734375">
        <ele>1603.199951171875</ele>
        <time>2020-06-23T14:34:06.000Z</time>
        <extensions>
          <ns3:TrackPointExtension>
            <ns3:atemp>26.0</ns3:atemp>
            <ns3:hr>127</ns3:hr>
          </ns3:TrackPointExtension>
        </extensions>
      </trkpt>
      <trkpt lat="47.75002221576869487762451171875" lon="12.2500084899365901947021484375">
        <ele>1605.199951171875</ele>
        <time>2020-06-23T14:34:07.000Z</time>
        <extensions>
          <ns3:TrackPointExtension>
            <ns3:atemp>26.0</ns3:atemp>
            <ns3:hr>127</ns3:hr>
          </ns3:TrackPointExtension>
        </extensions>
      </trkpt>
      <trkpt lat="47.75005138479173183441162109375" lon="12.25002701394259929656982421875">
        <ele>1607.5999755859375</ele>
        <time>2020-06-23T14:34:08.000Z</time>
        <extensions>
          <ns3:TrackPointExtension>
            <ns3:atemp>26.0</ns3:atemp>
            <ns3:hr>127</ns3:hr>
          </ns3:TrackPointExtension>
        </extensions>
      </trkpt>
      <trkpt lat="47.7500925399363040924072265625" lon="12.25004059262573719024658203125">
        <ele>1610.199951171875</ele>
        <time>2020-06-23T14:34:09.000Z</time>
        <extensions>
          <ns3:TrackPointExtension>
            <ns3:atemp>26.0</ns3:atemp>
            <ns3:hr>127</ns3:hr>
          </ns3:TrackPointExtension>
        </extensions>
      </trkpt>
      <trkpt lat="47.75013017468154430389404296875" lon="12.25005450658500194549560546875">
        <ele>1612.5999755859375</ele>
        <time>2020-06-23T14:34:10.000Z</time>
        <extensions>
          <ns3:TrackPointExtension>
            <ns3:atemp>26.0</ns3:atemp>
            <ns3:hr>126</ns3:hr>
          </ns3:TrackPointExtension>
        </extensions>
      </trkpt>
      <trkpt lat="47.75015213526785373687744140625" lon="12.2500664927065372467041015625">
        <ele>1614.199951171875</ele>
        <time>2020-06-23T14:34:11.000Z</time>
        <extensions>
          <ns3:TrackPointExtension>
            <ns3:atemp>26.0</ns3:atemp>
            <ns3:hr>126</ns3:hr>
          </ns3:TrackPointExtension>
        </extensions>
      </trkpt>
      <trkpt lat="47.7501673065125942230224609375" lon="12.2500691749155521392822265625">
        <ele>1615</ele>
        <time>2020-06-23T14:34:12.000Z</time>
        <extensions>
          <ns3:TrackPointExtension>
            <ns3:atemp>26.0</ns3:atemp>
            <ns3:hr>126</ns3:hr>
          </ns3:TrackPointExtension>
        </extensions>
      </trkpt>
      <trkpt lat="47.75019203312695026397705078125" lon="12.250064648687839508056640625">
        <ele>1615.4000244140625</ele>
        <time>2020-06-23T14:34:13.000Z</time>
        <extensions>
          <ns3:TrackPointExtension>
            <ns3:atemp>26.0</ns3:atemp>
            <ns3:hr>125</ns3:hr>
          </ns3:TrackPointExtension>
        </extensions>
      </trkpt>
      <trkpt lat="47.75029161013662815093994140625" lon="12.25005316548049449920654296875">
        <ele>1615.199951171875</ele>
        <time>2020-06-23T14:34:15.000Z</time>
        <extensions>
          <ns3:TrackPointExtension>
            <ns3:atemp>26.0</ns3:atemp>
            <ns3:hr>125</ns3:hr>
          </ns3:TrackPointExtension>
        </extensions>
      </trkpt>
      <trkpt lat="47.7503825537860393524169921875" lon="12.250110246241092681884765625">
        <ele>1613.5999755859375</ele>
        <time>2020-06-23T14:34:17.000Z</time>
        <extensions>
          <ns3:TrackPointExtension>
            <ns3:atemp>26.0</ns3:atemp>
            <ns3:hr>125</ns3:hr>
          </ns3:TrackPointExtension>
        </extensions>
      </trkpt>
      <trkpt lat="47.750400491058826446533203125" lon="12.2501496411859989166259765625">
        <ele>1613.4000244140625</ele>
        <time>2020-06-23T14:34:18.000Z</time>
        <extensions>
          <ns3:TrackPointExtension>
            <ns3:atemp>26.0</ns3:atemp>
            <ns3:hr>125</ns3:hr>
          </ns3:TrackPointExtension>
        </extensions>
      </trkpt>
      <trkpt lat="47.75044114328920841217041015625" lon="12.25026070140302181243896484375">
        <ele>1613.800048828125</ele>
        <time>2020-06-23T14:34:21.000Z</time>
        <extensions>
          <ns3:TrackPointExtension>
            <ns3:atemp>26.0</ns3:atemp>
            <ns3:hr>124</ns3:hr>
          </ns3:TrackPointExtension>
        </extensions>
      </trkpt>
      <trkpt lat="47.75045321322977542877197265625" lon="12.250321470201015472412109375">
        <ele>1614.199951171875</ele>
        <time>2020-06-23T14:34:22.000Z</time>
        <extensions>
          <ns3:TrackPointExtension>
            <ns3:atemp>26.0</ns3:atemp>
            <ns3:hr>122</ns3:hr>
          </ns3:TrackPointExtension>
        </extensions>
      </trkpt>
      <trkpt lat="47.75046980939805507659912109375" lon="12.25043672136962413787841796875">
        <ele>1615</ele>
        <time>2020-06-23T14:34:24.000Z</time>
        <extensions>
          <ns3:TrackPointExtension>
            <ns3:atemp>25.0</ns3:atemp>
            <ns3:hr>121</ns3:hr>
          </ns3:TrackPointExtension>
        </extensions>
      </trkpt>
      <trkpt lat="47.7505074441432952880859375" lon="12.25052657537162303924560546875">
        <ele>1616</ele>
        <time>2020-06-23T14:34:26.000Z</time>
        <extensions>
          <ns3:TrackPointExtension>
            <ns3:atemp>25.0</ns3:atemp>
            <ns3:hr>120</ns3:hr>
          </ns3:TrackPointExtension>
        </extensions>
      </trkpt>
      <trkpt lat="47.75053669698536396026611328125" lon="12.2505492903292179107666015625">
        <ele>1616.800048828125</ele>
        <time>2020-06-23T14:34:27.000Z</time>
        <extensions>
          <ns3:TrackPointExtension>
            <ns3:atemp>25.0</ns3:atemp>
            <ns3:hr>121</ns3:hr>
          </ns3:TrackPointExtension>
        </extensions>
      </trkpt>
      <trkpt lat="47.75057072751224040985107421875" lon="12.2505563311278820037841796875">
        <ele>1618</ele>
        <time>2020-06-23T14:34:28.000Z</time>
        <extensions>
          <ns3:TrackPointExtension>
            <ns3:atemp>25.0</ns3:atemp>
            <ns3:hr>120</ns3:hr>
          </ns3:TrackPointExtension>
        </extensions>
      </trkpt>
      <trkpt lat="47.75060777552425861358642578125" lon="12.2505556605756282806396484375">
        <ele>1619</ele>
        <time>2020-06-23T14:34:29.000Z</time>
        <extensions>
          <ns3:TrackPointExtension>
            <ns3:atemp>25.0</ns3:atemp>
            <ns3:hr>119</ns3:hr>
          </ns3:TrackPointExtension>
        </extensions>
      </trkpt>
      <trkpt lat="47.75064616464078426361083984375" lon="12.250561527907848358154296875">
        <ele>1619.5999755859375</ele>
        <time>2020-06-23T14:34:30.000Z</time>
        <extensions>
          <ns3:TrackPointExtension>
            <ns3:atemp>25.0</ns3:atemp>
            <ns3:hr>119</ns3:hr>
          </ns3:TrackPointExtension>
        </extensions>
      </trkpt>
      <trkpt lat="47.7507086098194122314453125" lon="12.2505833208560943603515625">
        <ele>1621.199951171875</ele>
        <time>2020-06-23T14:34:32.000Z</time>
        <extensions>
          <ns3:TrackPointExtension>
            <ns3:atemp>25.0</ns3:atemp>
            <ns3:hr>119</ns3:hr>
          </ns3:TrackPointExtension>
        </extensions>
      </trkpt>
      <trkpt lat="47.75073132477700710296630859375" lon="12.25057669915258884429931640625">
        <ele>1622.199951171875</ele>
        <time>2020-06-23T14:34:33.000Z</time>
        <extensions>
          <ns3:TrackPointExtension>
            <ns3:atemp>25.0</ns3:atemp>
            <ns3:hr>118</ns3:hr>
          </ns3:TrackPointExtension>
        </extensions>
      </trkpt>
      <trkpt lat="47.7507567219436168670654296875" lon="12.25055708549916744232177734375">
        <ele>1623</ele>
        <time>2020-06-23T14:34:34.000Z</time>
        <extensions>
          <ns3:TrackPointExtension>
            <ns3:atemp>25.0</ns3:atemp>
            <ns3:hr>119</ns3:hr>
          </ns3:TrackPointExtension>
        </extensions>
      </trkpt>
      <trkpt lat="47.75081296451389789581298828125" lon="12.2505231387913227081298828125">
        <ele>1624</ele>
        <time>2020-06-23T14:34:36.000Z</time>
        <extensions>
          <ns3:TrackPointExtension>
            <ns3:atemp>25.0</ns3:atemp>
            <ns3:hr>118</ns3:hr>
          </ns3:TrackPointExtension>
        </extensions>
      </trkpt>
      <trkpt lat="47.75083601474761962890625" lon="12.250525653362274169921875">
        <ele>1624.4000244140625</ele>
        <time>2020-06-23T14:34:37.000Z</time>
        <extensions>
          <ns3:TrackPointExtension>
            <ns3:atemp>25.0</ns3:atemp>
            <ns3:hr>116</ns3:hr>
          </ns3:TrackPointExtension>
        </extensions>
      </trkpt>
      <trkpt lat="47.75086325593292713165283203125" lon="12.25055205635726451873779296875">
        <ele>1624.5999755859375</ele>
        <time>2020-06-23T14:34:39.000Z</time>
        <extensions>
          <ns3:TrackPointExtension>
            <ns3:atemp>25.0</ns3:atemp>
            <ns3:hr>114</ns3:hr>
          </ns3:TrackPointExtension>
        </extensions>
      </trkpt>
      <trkpt lat="47.75087163783609867095947265625" lon="12.25065750069916248321533203125">
        <ele>1624.5999755859375</ele>
        <time>2020-06-23T14:34:41.000Z</time>
        <extensions>
          <ns3:TrackPointExtension>
            <ns3:atemp>25.0</ns3:atemp>
            <ns3:hr>113</ns3:hr>
          </ns3:TrackPointExtension>
        </extensions>
      </trkpt>
      <trkpt lat="47.7508361823856830596923828125" lon="12.25092186592519283294677734375">
        <ele>1623.199951171875</ele>
        <time>2020-06-23T14:34:44.000Z</time>
        <extensions>
          <ns3:TrackPointExtension>
            <ns3:atemp>25.0</ns3:atemp>
            <ns3:hr>111</ns3:hr>
          </ns3:TrackPointExtension>
        </extensions>
      </trkpt>
      <trkpt lat="47.7508143894374370574951171875" lon="12.250975258648395538330078125">
        <ele>1622.800048828125</ele>
        <time>2020-06-23T14:34:45.000Z</time>
        <extensions>
          <ns3:TrackPointExtension>
            <ns3:atemp>25.0</ns3:atemp>
            <ns3:hr>111</ns3:hr>
          </ns3:TrackPointExtension>
        </extensions>
      </trkpt>
      <trkpt lat="47.7507778443396091461181640625" lon="12.25106888450682163238525390625">
        <ele>1622.800048828125</ele>
        <time>2020-06-23T14:34:47.000Z</time>
        <extensions>
          <ns3:TrackPointExtension>
            <ns3:atemp>25.0</ns3:atemp>
            <ns3:hr>111</ns3:hr>
          </ns3:TrackPointExtension>
        </extensions>
      </trkpt>
      <trkpt lat="47.75083777494728565216064453125" lon="12.25120500661432743072509765625">
        <ele>1623.800048828125</ele>
        <time>2020-06-23T14:34:50.000Z</time>
        <extensions>
          <ns3:TrackPointExtension>
            <ns3:atemp>25.0</ns3:atemp>
            <ns3:hr>110</ns3:hr>
          </ns3:TrackPointExtension>
        </extensions>
      </trkpt>
      <trkpt lat="47.75085269473493099212646484375" lon="12.2512607462704181671142578125">
        <ele>1624.199951171875</ele>
        <time>2020-06-23T14:34:51.000Z</time>
        <extensions>
          <ns3:TrackPointExtension>
            <ns3:atemp>25.0</ns3:atemp>
            <ns3:hr>110</ns3:hr>
          </ns3:TrackPointExtension>
        </extensions>
      </trkpt>
      <trkpt lat="47.7508965320885181427001953125" lon="12.25134984590113162994384765625">
        <ele>1626</ele>
        <time>2020-06-23T14:34:53.000Z</time>
        <extensions>
          <ns3:TrackPointExtension>
            <ns3:atemp>25.0</ns3:atemp>
            <ns3:hr>108</ns3:hr>
          </ns3:TrackPointExtension>
        </extensions>
      </trkpt>
      <trkpt lat="47.7509392797946929931640625" lon="12.2513452358543872833251953125">
        <ele>1627.800048828125</ele>
        <time>2020-06-23T14:34:54.000Z</time>
        <extensions>
          <ns3:TrackPointExtension>
            <ns3:atemp>25.0</ns3:atemp>
            <ns3:hr>110</ns3:hr>
          </ns3:TrackPointExtension>
        </extensions>
      </trkpt>
      <trkpt lat="47.75098579935729503631591796875" lon="12.25132503546774387359619140625">
        <ele>1629.5999755859375</ele>
        <time>2020-06-23T14:34:55.000Z</time>
        <extensions>
          <ns3:TrackPointExtension>
            <ns3:atemp>25.0</ns3:atemp>
            <ns3:hr>109</ns3:hr>
          </ns3:TrackPointExtension>
        </extensions>
      </trkpt>
      <trkpt lat="47.7510336600244045257568359375" lon="12.2513288073241710662841796875">
        <ele>1631</ele>
        <time>2020-06-23T14:34:56.000Z</time>
        <extensions>
          <ns3:TrackPointExtension>
            <ns3:atemp>25.0</ns3:atemp>
            <ns3:hr>110</ns3:hr>
          </ns3:TrackPointExtension>
        </extensions>
      </trkpt>
      <trkpt lat="47.751076407730579376220703125" lon="12.25135437212884426116943359375">
        <ele>1632.199951171875</ele>
        <time>2020-06-23T14:34:57.000Z</time>
        <extensions>
          <ns3:TrackPointExtension>
            <ns3:atemp>25.0</ns3:atemp>
            <ns3:hr>110</ns3:hr>
          </ns3:TrackPointExtension>
        </extensions>
      </trkpt>
      <trkpt lat="47.751113958656787872314453125" lon="12.2513759136199951171875">
        <ele>1633.800048828125</ele>
        <time>2020-06-23T14:34:58.000Z</time>
        <extensions>
          <ns3:TrackPointExtension>
            <ns3:atemp>25.0</ns3:atemp>
            <ns3:hr>111</ns3:hr>
          </ns3:TrackPointExtension>
        </extensions>
      </trkpt>
      <trkpt lat="47.7511453069746494293212890625" lon="12.2513784281909465789794921875">
        <ele>1635.199951171875</ele>
        <time>2020-06-23T14:34:59.000Z</time>
        <extensions>
          <ns3:TrackPointExtension>
            <ns3:atemp>25.0</ns3:atemp>
            <ns3:hr>112</ns3:hr>
          </ns3:TrackPointExtension>
        </extensions>
      </trkpt>
      <trkpt lat="47.7511684410274028778076171875" lon="12.2513707168400287628173828125">
        <ele>1636.5999755859375</ele>
        <time>2020-06-23T14:35:00.000Z</time>
        <extensions>
          <ns3:TrackPointExtension>
            <ns3:atemp>25.0</ns3:atemp>
            <ns3:hr>112</ns3:hr>
          </ns3:TrackPointExtension>
        </extensions>
      </trkpt>
      <trkpt lat="47.75119149126112461090087890625" lon="12.25137448869645595550537109375">
        <ele>1637.800048828125</ele>
        <time>2020-06-23T14:35:01.000Z</time>
        <extensions>
          <ns3:TrackPointExtension>
            <ns3:atemp>25.0</ns3:atemp>
            <ns3:hr>112</ns3:hr>
          </ns3:TrackPointExtension>
        </extensions>
      </trkpt>
      <trkpt lat="47.75122267194092273712158203125" lon="12.25140399299561977386474609375">
        <ele>1638.800048828125</ele>
        <time>2020-06-23T14:35:02.000Z</time>
        <extensions>
          <ns3:TrackPointExtension>
            <ns3:atemp>25.0</ns3:atemp>
            <ns3:hr>113</ns3:hr>
          </ns3:TrackPointExtension>
        </extensions>
      </trkpt>
      <trkpt lat="47.75126508437097072601318359375" lon="12.25145780481398105621337890625">
        <ele>1639.199951171875</ele>
        <time>2020-06-23T14:35:03.000Z</time>
        <extensions>
          <ns3:TrackPointExtension>
            <ns3:atemp>25.0</ns3:atemp>
            <ns3:hr>113</ns3:hr>
          </ns3:TrackPointExtension>
        </extensions>
      </trkpt>
      <trkpt lat="47.7513387612998485565185546875" lon="12.2516070865094661712646484375">
        <ele>1640.4000244140625</ele>
        <time>2020-06-23T14:35:05.000Z</time>
        <extensions>
          <ns3:TrackPointExtension>
            <ns3:atemp>25.0</ns3:atemp>
            <ns3:hr>114</ns3:hr>
          </ns3:TrackPointExtension>
        </extensions>
      </trkpt>
      <trkpt lat="47.75137237273156642913818359375" lon="12.2517472319304943084716796875">
        <ele>1640.800048828125</ele>
        <time>2020-06-23T14:35:07.000Z</time>
        <extensions>
          <ns3:TrackPointExtension>
            <ns3:atemp>25.0</ns3:atemp>
            <ns3:hr>114</ns3:hr>
          </ns3:TrackPointExtension>
        </extensions>
      </trkpt>
      <trkpt lat="47.75143087841570377349853515625" lon="12.25186449475586414337158203125">
        <ele>1641.199951171875</ele>
        <time>2020-06-23T14:35:09.000Z</time>
        <extensions>
          <ns3:TrackPointExtension>
            <ns3:atemp>25.0</ns3:atemp>
            <ns3:hr>114</ns3:hr>
          </ns3:TrackPointExtension>
        </extensions>
      </trkpt>
      <trkpt lat="47.75149692781269550323486328125" lon="12.2519889660179615020751953125">
        <ele>1641.4000244140625</ele>
        <time>2020-06-23T14:35:11.000Z</time>
        <extensions>
          <ns3:TrackPointExtension>
            <ns3:atemp>25.0</ns3:atemp>
            <ns3:hr>113</ns3:hr>
          </ns3:TrackPointExtension>
        </extensions>
      </trkpt>
      <trkpt lat="47.7515127696096897125244140625" lon="12.25203640758991241455078125">
        <ele>1641.5999755859375</ele>
        <time>2020-06-23T14:35:12.000Z</time>
        <extensions>
          <ns3:TrackPointExtension>
            <ns3:atemp>25.0</ns3:atemp>
            <ns3:hr>113</ns3:hr>
          </ns3:TrackPointExtension>
        </extensions>
      </trkpt>
      <trkpt lat="47.7515442855656147003173828125" lon="12.25212232209742069244384765625">
        <ele>1642</ele>
        <time>2020-06-23T14:35:14.000Z</time>
        <extensions>
          <ns3:TrackPointExtension>
            <ns3:atemp>24.0</ns3:atemp>
            <ns3:hr>114</ns3:hr>
          </ns3:TrackPointExtension>
        </extensions>
      </trkpt>
      <trkpt lat="47.75160916149616241455078125" lon="12.252235896885395050048828125">
        <ele>1642.199951171875</ele>
        <time>2020-06-23T14:35:16.000Z</time>
        <extensions>
          <ns3:TrackPointExtension>
            <ns3:atemp>24.0</ns3:atemp>
            <ns3:hr>115</ns3:hr>
          </ns3:TrackPointExtension>
        </extensions>
      </trkpt>
      <trkpt lat="47.75163824670016765594482421875" lon="12.2522950731217861175537109375">
        <ele>1642.4000244140625</ele>
        <time>2020-06-23T14:35:17.000Z</time>
        <extensions>
          <ns3:TrackPointExtension>
            <ns3:atemp>24.0</ns3:atemp>
            <ns3:hr>114</ns3:hr>
          </ns3:TrackPointExtension>
        </extensions>
      </trkpt>
      <trkpt lat="47.75170630775392055511474609375" lon="12.25247151218354701995849609375">
        <ele>1642</ele>
        <time>2020-06-23T14:35:20.000Z</time>
        <extensions>
          <ns3:TrackPointExtension>
            <ns3:atemp>24.0</ns3:atemp>
            <ns3:hr>115</ns3:hr>
          </ns3:TrackPointExtension>
        </extensions>
      </trkpt>
      <trkpt lat="47.75181393139064311981201171875" lon="12.25265155546367168426513671875">
        <ele>1641.4000244140625</ele>
        <time>2020-06-23T14:35:23.000Z</time>
        <extensions>
          <ns3:TrackPointExtension>
            <ns3:atemp>24.0</ns3:atemp>
            <ns3:hr>111</ns3:hr>
          </ns3:TrackPointExtension>
        </extensions>
      </trkpt>
      <trkpt lat="47.75183907710015773773193359375" lon="12.25271391682326793670654296875">
        <ele>1641.4000244140625</ele>
        <time>2020-06-23T14:35:24.000Z</time>
        <extensions>
          <ns3:TrackPointExtension>
            <ns3:atemp>24.0</ns3:atemp>
            <ns3:hr>110</ns3:hr>
          </ns3:TrackPointExtension>
        </extensions>
      </trkpt>
      <trkpt lat="47.7518902905285358428955078125" lon="12.2528476081788539886474609375">
        <ele>1641</ele>
        <time>2020-06-23T14:35:26.000Z</time>
        <extensions>
          <ns3:TrackPointExtension>
            <ns3:atemp>24.0</ns3:atemp>
            <ns3:hr>110</ns3:hr>
          </ns3:TrackPointExtension>
        </extensions>
      </trkpt>
      <trkpt lat="47.75200185365974903106689453125" lon="12.253029160201549530029296875">
        <ele>1641</ele>
        <time>2020-06-23T14:35:29.000Z</time>
        <extensions>
          <ns3:TrackPointExtension>
            <ns3:atemp>24.0</ns3:atemp>
            <ns3:hr>111</ns3:hr>
          </ns3:TrackPointExtension>
        </extensions>
      </trkpt>
      <trkpt lat="47.75220570154488086700439453125" lon="12.2533126361668109893798828125">
        <ele>1643.4000244140625</ele>
        <time>2020-06-23T14:35:34.000Z</time>
        <extensions>
          <ns3:TrackPointExtension>
            <ns3:atemp>24.0</ns3:atemp>
            <ns3:hr>113</ns3:hr>
          </ns3:TrackPointExtension>
        </extensions>
      </trkpt>
      <trkpt lat="47.75224559940397739410400390625" lon="12.25337843410670757293701171875">
        <ele>1644.4000244140625</ele>
        <time>2020-06-23T14:35:35.000Z</time>
        <extensions>
          <ns3:TrackPointExtension>
            <ns3:atemp>24.0</ns3:atemp>
            <ns3:hr>113</ns3:hr>
          </ns3:TrackPointExtension>
        </extensions>
      </trkpt>
      <trkpt lat="47.75233059190213680267333984375" lon="12.2535203397274017333984375">
        <ele>1646.4000244140625</ele>
        <time>2020-06-23T14:35:37.000Z</time>
        <extensions>
          <ns3:TrackPointExtension>
            <ns3:atemp>24.0</ns3:atemp>
            <ns3:hr>113</ns3:hr>
          </ns3:TrackPointExtension>
        </extensions>
      </trkpt>
      <trkpt lat="47.75236688554286956787109375" lon="12.25359720177948474884033203125">
        <ele>1647.800048828125</ele>
        <time>2020-06-23T14:35:38.000Z</time>
        <extensions>
          <ns3:TrackPointExtension>
            <ns3:atemp>24.0</ns3:atemp>
            <ns3:hr>112</ns3:hr>
          </ns3:TrackPointExtension>
        </extensions>
      </trkpt>
      <trkpt lat="47.75239714421331882476806640625" lon="12.25367230363190174102783203125">
        <ele>1649.4000244140625</ele>
        <time>2020-06-23T14:35:39.000Z</time>
        <extensions>
          <ns3:TrackPointExtension>
            <ns3:atemp>24.0</ns3:atemp>
            <ns3:hr>112</ns3:hr>
          </ns3:TrackPointExtension>
        </extensions>
      </trkpt>
      <trkpt lat="47.75242899544537067413330078125" lon="12.2537424601614475250244140625">
        <ele>1650.800048828125</ele>
        <time>2020-06-23T14:35:40.000Z</time>
        <extensions>
          <ns3:TrackPointExtension>
            <ns3:atemp>24.0</ns3:atemp>
            <ns3:hr>112</ns3:hr>
          </ns3:TrackPointExtension>
        </extensions>
      </trkpt>
      <trkpt lat="47.75246872566640377044677734375" lon="12.25380524061620235443115234375">
        <ele>1651.800048828125</ele>
        <time>2020-06-23T14:35:41.000Z</time>
        <extensions>
          <ns3:TrackPointExtension>
            <ns3:atemp>24.0</ns3:atemp>
            <ns3:hr>112</ns3:hr>
          </ns3:TrackPointExtension>
        </extensions>
      </trkpt>
      <trkpt lat="47.7525122277438640594482421875" lon="12.25387313403189182281494140625">
        <ele>1652.800048828125</ele>
        <time>2020-06-23T14:35:42.000Z</time>
        <extensions>
          <ns3:TrackPointExtension>
            <ns3:atemp>24.0</ns3:atemp>
            <ns3:hr>112</ns3:hr>
          </ns3:TrackPointExtension>
        </extensions>
      </trkpt>
      <trkpt lat="47.75255053304135799407958984375" lon="12.25395058281719684600830078125">
        <ele>1653.800048828125</ele>
        <time>2020-06-23T14:35:43.000Z</time>
        <extensions>
          <ns3:TrackPointExtension>
            <ns3:atemp>24.0</ns3:atemp>
            <ns3:hr>112</ns3:hr>
          </ns3:TrackPointExtension>
        </extensions>
      </trkpt>
      <trkpt lat="47.75258146226406097412109375" lon="12.25402526557445526123046875">
        <ele>1654.800048828125</ele>
        <time>2020-06-23T14:35:44.000Z</time>
        <extensions>
          <ns3:TrackPointExtension>
            <ns3:atemp>24.0</ns3:atemp>
            <ns3:hr>113</ns3:hr>
          </ns3:TrackPointExtension>
        </extensions>
      </trkpt>
      <trkpt lat="47.75260752998292446136474609375" lon="12.25406725890934467315673828125">
        <ele>1656.199951171875</ele>
        <time>2020-06-23T14:35:45.000Z</time>
        <extensions>
          <ns3:TrackPointExtension>
            <ns3:atemp>24.0</ns3:atemp>
            <ns3:hr>113</ns3:hr>
          </ns3:TrackPointExtension>
        </extensions>
      </trkpt>
      <trkpt lat="47.75264122523367404937744140625" lon="12.25406709127128124237060546875">
        <ele>1658</ele>
        <time>2020-06-23T14:35:46.000Z</time>
        <extensions>
          <ns3:TrackPointExtension>
            <ns3:atemp>24.0</ns3:atemp>
            <ns3:hr>114</ns3:hr>
          </ns3:TrackPointExtension>
        </extensions>
      </trkpt>
      <trkpt lat="47.75267642922699451446533203125" lon="12.2540031373500823974609375">
        <ele>1659.4000244140625</ele>
        <time>2020-06-23T14:35:47.000Z</time>
        <extensions>
          <ns3:TrackPointExtension>
            <ns3:atemp>24.0</ns3:atemp>
            <ns3:hr>114</ns3:hr>
          </ns3:TrackPointExtension>
        </extensions>
      </trkpt>
      <trkpt lat="47.7527019940316677093505859375" lon="12.2538976930081844329833984375">
        <ele>1660.4000244140625</ele>
        <time>2020-06-23T14:35:48.000Z</time>
        <extensions>
          <ns3:TrackPointExtension>
            <ns3:atemp>24.0</ns3:atemp>
            <ns3:hr>113</ns3:hr>
          </ns3:TrackPointExtension>
        </extensions>
      </trkpt>
      <trkpt lat="47.75270543061196804046630859375" lon="12.2537702880799770355224609375">
        <ele>1661</ele>
        <time>2020-06-23T14:35:49.000Z</time>
        <extensions>
          <ns3:TrackPointExtension>
            <ns3:atemp>24.0</ns3:atemp>
            <ns3:hr>113</ns3:hr>
          </ns3:TrackPointExtension>
        </extensions>
      </trkpt>
      <trkpt lat="47.75268347002565860748291015625" lon="12.25363902747631072998046875">
        <ele>1661.800048828125</ele>
        <time>2020-06-23T14:35:50.000Z</time>
        <extensions>
          <ns3:TrackPointExtension>
            <ns3:atemp>24.0</ns3:atemp>
            <ns3:hr>113</ns3:hr>
          </ns3:TrackPointExtension>
        </extensions>
      </trkpt>
      <trkpt lat="47.75264642201364040374755859375" lon="12.253508269786834716796875">
        <ele>1663.199951171875</ele>
        <time>2020-06-23T14:35:51.000Z</time>
        <extensions>
          <ns3:TrackPointExtension>
            <ns3:atemp>24.0</ns3:atemp>
            <ns3:hr>112</ns3:hr>
          </ns3:TrackPointExtension>
        </extensions>
      </trkpt>
      <trkpt lat="47.75260115973651409149169921875" lon="12.2533783502876758575439453125">
        <ele>1664.800048828125</ele>
        <time>2020-06-23T14:35:52.000Z</time>
        <extensions>
          <ns3:TrackPointExtension>
            <ns3:atemp>24.0</ns3:atemp>
            <ns3:hr>112</ns3:hr>
          </ns3:TrackPointExtension>
        </extensions>
      </trkpt>
      <trkpt lat="47.75254189968109130859375" lon="12.25324071943759918212890625">
        <ele>1666.199951171875</ele>
        <time>2020-06-23T14:35:53.000Z</time>
        <extensions>
          <ns3:TrackPointExtension>
            <ns3:atemp>24.0</ns3:atemp>
            <ns3:hr>113</ns3:hr>
          </ns3:TrackPointExtension>
        </extensions>
      </trkpt>
      <trkpt lat="47.7524673007428646087646484375" lon="12.25310065783560276031494140625">
        <ele>1667.4000244140625</ele>
        <time>2020-06-23T14:35:54.000Z</time>
        <extensions>
          <ns3:TrackPointExtension>
            <ns3:atemp>24.0</ns3:atemp>
            <ns3:hr>113</ns3:hr>
          </ns3:TrackPointExtension>
        </extensions>
      </trkpt>
      <trkpt lat="47.75229220278561115264892578125" lon="12.252838723361492156982421875">
        <ele>1669.4000244140625</ele>
        <time>2020-06-23T14:35:56.000Z</time>
        <extensions>
          <ns3:TrackPointExtension>
            <ns3:atemp>24.0</ns3:atemp>
            <ns3:hr>114</ns3:hr>
          </ns3:TrackPointExtension>
        </extensions>
      </trkpt>
      <trkpt lat="47.752121798694133758544921875" lon="12.25262138061225414276123046875">
        <ele>1671.199951171875</ele>
        <time>2020-06-23T14:35:58.000Z</time>
        <extensions>
          <ns3:TrackPointExtension>
            <ns3:atemp>24.0</ns3:atemp>
            <ns3:hr>113</ns3:hr>
          </ns3:TrackPointExtension>
        </extensions>
      </trkpt>
      <trkpt lat="47.7520227245986461639404296875" lon="12.25251995958387851715087890625">
        <ele>1672.4000244140625</ele>
        <time>2020-06-23T14:35:59.000Z</time>
        <extensions>
          <ns3:TrackPointExtension>
            <ns3:atemp>24.0</ns3:atemp>
            <ns3:hr>113</ns3:hr>
          </ns3:TrackPointExtension>
        </extensions>
      </trkpt>
      <trkpt lat="47.7519144304096698760986328125" lon="12.252413928508758544921875">
        <ele>1673.800048828125</ele>
        <time>2020-06-23T14:36:00.000Z</time>
        <extensions>
          <ns3:TrackPointExtension>
            <ns3:atemp>24.0</ns3:atemp>
            <ns3:hr>112</ns3:hr>
          </ns3:TrackPointExtension>
        </extensions>
      </trkpt>
      <trkpt lat="47.7518098242580890655517578125" lon="12.25230303592979907989501953125">
        <ele>1675.199951171875</ele>
        <time>2020-06-23T14:36:01.000Z</time>
        <extensions>
          <ns3:TrackPointExtension>
            <ns3:atemp>24.0</ns3:atemp>
            <ns3:hr>112</ns3:hr>
          </ns3:TrackPointExtension>
        </extensions>
      </trkpt>
      <trkpt lat="47.751718796789646148681640625" lon="12.25219273008406162261962890625">
        <ele>1676.4000244140625</ele>
        <time>2020-06-23T14:36:02.000Z</time>
        <extensions>
          <ns3:TrackPointExtension>
            <ns3:atemp>24.0</ns3:atemp>
            <ns3:hr>112</ns3:hr>
          </ns3:TrackPointExtension>
        </extensions>
      </trkpt>
      <trkpt lat="47.7516338042914867401123046875" lon="12.25208845920860767364501953125">
        <ele>1677.5999755859375</ele>
        <time>2020-06-23T14:36:03.000Z</time>
        <extensions>
          <ns3:TrackPointExtension>
            <ns3:atemp>24.0</ns3:atemp>
            <ns3:hr>112</ns3:hr>
          </ns3:TrackPointExtension>
        </extensions>
      </trkpt>
      <trkpt lat="47.751545794308185577392578125" lon="12.25198720581829547882080078125">
        <ele>1679.199951171875</ele>
        <time>2020-06-23T14:36:04.000Z</time>
        <extensions>
          <ns3:TrackPointExtension>
            <ns3:atemp>24.0</ns3:atemp>
            <ns3:hr>112</ns3:hr>
          </ns3:TrackPointExtension>
        </extensions>
      </trkpt>
      <trkpt lat="47.75145225226879119873046875" lon="12.2518853656947612762451171875">
        <ele>1681.4000244140625</ele>
        <time>2020-06-23T14:36:05.000Z</time>
        <extensions>
          <ns3:TrackPointExtension>
            <ns3:atemp>24.0</ns3:atemp>
            <ns3:hr>114</ns3:hr>
          </ns3:TrackPointExtension>
        </extensions>
      </trkpt>
      <trkpt lat="47.75136348791420459747314453125" lon="12.25176743231713771820068359375">
        <ele>1683.199951171875</ele>
        <time>2020-06-23T14:36:06.000Z</time>
        <extensions>
          <ns3:TrackPointExtension>
            <ns3:atemp>24.0</ns3:atemp>
            <ns3:hr>113</ns3:hr>
          </ns3:TrackPointExtension>
        </extensions>
      </trkpt>
      <trkpt lat="47.75128603912889957427978515625" lon="12.25164220668375492095947265625">
        <ele>1685</ele>
        <time>2020-06-23T14:36:07.000Z</time>
        <extensions>
          <ns3:TrackPointExtension>
            <ns3:atemp>24.0</ns3:atemp>
            <ns3:hr>113</ns3:hr>
          </ns3:TrackPointExtension>
        </extensions>
      </trkpt>
      <trkpt lat="47.75121278129518032073974609375" lon="12.2515239380300045013427734375">
        <ele>1687</ele>
        <time>2020-06-23T14:36:08.000Z</time>
        <extensions>
          <ns3:TrackPointExtension>
            <ns3:atemp>24.0</ns3:atemp>
            <ns3:hr>112</ns3:hr>
          </ns3:TrackPointExtension>
        </extensions>
      </trkpt>
      <trkpt lat="47.751134745776653289794921875" lon="12.2514159791171550750732421875">
        <ele>1689.199951171875</ele>
        <time>2020-06-23T14:36:09.000Z</time>
        <extensions>
          <ns3:TrackPointExtension>
            <ns3:atemp>24.0</ns3:atemp>
            <ns3:hr>110</ns3:hr>
          </ns3:TrackPointExtension>
        </extensions>
      </trkpt>
      <trkpt lat="47.7510519325733184814453125" lon="12.25131598301231861114501953125">
        <ele>1691.199951171875</ele>
        <time>2020-06-23T14:36:10.000Z</time>
        <extensions>
          <ns3:TrackPointExtension>
            <ns3:atemp>24.0</ns3:atemp>
            <ns3:hr>111</ns3:hr>
          </ns3:TrackPointExtension>
        </extensions>
      </trkpt>
      <trkpt lat="47.75096953846514225006103515625" lon="12.25121808238327503204345703125">
        <ele>1693.199951171875</ele>
        <time>2020-06-23T14:36:11.000Z</time>
        <extensions>
          <ns3:TrackPointExtension>
            <ns3:atemp>24.0</ns3:atemp>
            <ns3:hr>110</ns3:hr>
          </ns3:TrackPointExtension>
        </extensions>
      </trkpt>
      <trkpt lat="47.7508881501853466033935546875" lon="12.25111909210681915283203125">
        <ele>1695.199951171875</ele>
        <time>2020-06-23T14:36:12.000Z</time>
        <extensions>
          <ns3:TrackPointExtension>
            <ns3:atemp>24.0</ns3:atemp>
            <ns3:hr>110</ns3:hr>
          </ns3:TrackPointExtension>
        </extensions>
      </trkpt>
      <trkpt lat="47.75080374442040920257568359375" lon="12.2510196827352046966552734375">
        <ele>1696.5999755859375</ele>
        <time>2020-06-23T14:36:13.000Z</time>
        <extensions>
          <ns3:TrackPointExtension>
            <ns3:atemp>24.0</ns3:atemp>
            <ns3:hr>110</ns3:hr>
          </ns3:TrackPointExtension>
        </extensions>
      </trkpt>
      <trkpt lat="47.750711627304553985595703125" lon="12.25092329084873199462890625">
        <ele>1697.5999755859375</ele>
        <time>2020-06-23T14:36:14.000Z</time>
        <extensions>
          <ns3:TrackPointExtension>
            <ns3:atemp>24.0</ns3:atemp>
            <ns3:hr>112</ns3:hr>
          </ns3:TrackPointExtension>
        </extensions>
      </trkpt>
      <trkpt lat="47.75061079300940036773681640625" lon="12.25083343684673309326171875">
        <ele>1698.4000244140625</ele>
        <time>2020-06-23T14:36:15.000Z</time>
        <extensions>
          <ns3:TrackPointExtension>
            <ns3:atemp>24.0</ns3:atemp>
            <ns3:hr>112</ns3:hr>
          </ns3:TrackPointExtension>
        </extensions>
      </trkpt>
      <trkpt lat="47.75050342082977294921875" lon="12.25074551068246364593505859375">
        <ele>1699</ele>
        <time>2020-06-23T14:36:16.000Z</time>
        <extensions>
          <ns3:TrackPointExtension>
            <ns3:atemp>24.0</ns3:atemp>
            <ns3:hr>113</ns3:hr>
          </ns3:TrackPointExtension>
        </extensions>
      </trkpt>
      <trkpt lat="47.75019270367920398712158203125" lon="12.2504332847893238067626953125">
        <ele>1700.4000244140625</ele>
        <time>2020-06-23T14:36:19.000Z</time>
        <extensions>
          <ns3:TrackPointExtension>
            <ns3:atemp>23.0</ns3:atemp>
            <ns3:hr>113</ns3:hr>
          </ns3:TrackPointExtension>
        </extensions>
      </trkpt>
      <trkpt lat="47.75010989047586917877197265625" lon="12.25032490678131580352783203125">
        <ele>1701.5999755859375</ele>
        <time>2020-06-23T14:36:20.000Z</time>
        <extensions>
          <ns3:TrackPointExtension>
            <ns3:atemp>23.0</ns3:atemp>
            <ns3:hr>113</ns3:hr>
          </ns3:TrackPointExtension>
        </extensions>
      </trkpt>
      <trkpt lat="47.75003244169056415557861328125" lon="12.25020957179367542266845703125">
        <ele>1702.5999755859375</ele>
        <time>2020-06-23T14:36:21.000Z</time>
        <extensions>
          <ns3:TrackPointExtension>
            <ns3:atemp>23.0</ns3:atemp>
            <ns3:hr>112</ns3:hr>
          </ns3:TrackPointExtension>
        </extensions>
      </trkpt>
      <trkpt lat="47.74987016804516315460205078125" lon="12.2499353997409343719482421875">
        <ele>1704.199951171875</ele>
        <time>2020-06-23T14:36:23.000Z</time>
        <extensions>
          <ns3:TrackPointExtension>
            <ns3:atemp>23.0</ns3:atemp>
            <ns3:hr>111</ns3:hr>
          </ns3:TrackPointExtension>
        </extensions>
      </trkpt>
      <trkpt lat="47.7497096545994281768798828125" lon="12.24964127875864505767822265625">
        <ele>1704.800048828125</ele>
        <time>2020-06-23T14:36:25.000Z</time>
        <extensions>
          <ns3:TrackPointExtension>
            <ns3:atemp>23.0</ns3:atemp>
            <ns3:hr>110</ns3:hr>
          </ns3:TrackPointExtension>
        </extensions>
      </trkpt>
      <trkpt lat="47.7496529929339885711669921875" lon="12.2495025582611560821533203125">
        <ele>1705.199951171875</ele>
        <time>2020-06-23T14:36:26.000Z</time>
        <extensions>
          <ns3:TrackPointExtension>
            <ns3:atemp>23.0</ns3:atemp>
            <ns3:hr>110</ns3:hr>
          </ns3:TrackPointExtension>
        </extensions>
      </trkpt>
      <trkpt lat="47.749607227742671966552734375" lon="12.24937724880874156951904296875">
        <ele>1705.4000244140625</ele>
        <time>2020-06-23T14:36:27.000Z</time>
        <extensions>
          <ns3:TrackPointExtension>
            <ns3:atemp>23.0</ns3:atemp>
            <ns3:hr>110</ns3:hr>
          </ns3:TrackPointExtension>
        </extensions>
      </trkpt>
      <trkpt lat="47.74946339428424835205078125" lon="12.24901892244815826416015625">
        <ele>1705.800048828125</ele>
        <time>2020-06-23T14:36:30.000Z</time>
        <extensions>
          <ns3:TrackPointExtension>
            <ns3:atemp>23.0</ns3:atemp>
            <ns3:hr>111</ns3:hr>
          </ns3:TrackPointExtension>
        </extensions>
      </trkpt>
      <trkpt lat="47.74942047894001007080078125" lon="12.2488782741129398345947265625">
        <ele>1705.5999755859375</ele>
        <time>2020-06-23T14:36:31.000Z</time>
        <extensions>
          <ns3:TrackPointExtension>
            <ns3:atemp>23.0</ns3:atemp>
            <ns3:hr>112</ns3:hr>
          </ns3:TrackPointExtension>
        </extensions>
      </trkpt>
      <trkpt lat="47.749392651021480560302734375" lon="12.24874106235802173614501953125">
        <ele>1705.5999755859375</ele>
        <time>2020-06-23T14:36:32.000Z</time>
        <extensions>
          <ns3:TrackPointExtension>
            <ns3:atemp>23.0</ns3:atemp>
            <ns3:hr>112</ns3:hr>
          </ns3:TrackPointExtension>
        </extensions>
      </trkpt>
      <trkpt lat="47.7493916451930999755859375" lon="12.2485235519707202911376953125">
        <ele>1705.199951171875</ele>
        <time>2020-06-23T14:36:34.000Z</time>
        <extensions>
          <ns3:TrackPointExtension>
            <ns3:atemp>23.0</ns3:atemp>
            <ns3:hr>113</ns3:hr>
          </ns3:TrackPointExtension>
        </extensions>
      </trkpt>
      <trkpt lat="47.7494479715824127197265625" lon="12.248359434306621551513671875">
        <ele>1704.4000244140625</ele>
        <time>2020-06-23T14:36:36.000Z</time>
        <extensions>
          <ns3:TrackPointExtension>
            <ns3:atemp>23.0</ns3:atemp>
            <ns3:hr>113</ns3:hr>
          </ns3:TrackPointExtension>
        </extensions>
      </trkpt>
      <trkpt lat="47.7494883723556995391845703125" lon="12.2483005933463573455810546875">
        <ele>1704</ele>
        <time>2020-06-23T14:36:37.000Z</time>
        <extensions>
          <ns3:TrackPointExtension>
            <ns3:atemp>23.0</ns3:atemp>
            <ns3:hr>113</ns3:hr>
          </ns3:TrackPointExtension>
        </extensions>
      </trkpt>
      <trkpt lat="47.7495346404612064361572265625" lon="12.24827804602682590484619140625">
        <ele>1703.5999755859375</ele>
        <time>2020-06-23T14:36:38.000Z</time>
        <extensions>
          <ns3:TrackPointExtension>
            <ns3:atemp>23.0</ns3:atemp>
            <ns3:hr>113</ns3:hr>
          </ns3:TrackPointExtension>
        </extensions>
      </trkpt>
      <trkpt lat="47.74958266876637935638427734375" lon="12.24829799495637416839599609375">
        <ele>1703</ele>
        <time>2020-06-23T14:36:39.000Z</time>
        <extensions>
          <ns3:TrackPointExtension>
            <ns3:atemp>23.0</ns3:atemp>
            <ns3:hr>113</ns3:hr>
          </ns3:TrackPointExtension>
        </extensions>
      </trkpt>
      <trkpt lat="47.749625332653522491455078125" lon="12.24834929220378398895263671875">
        <ele>1702.4000244140625</ele>
        <time>2020-06-23T14:36:40.000Z</time>
        <extensions>
          <ns3:TrackPointExtension>
            <ns3:atemp>23.0</ns3:atemp>
            <ns3:hr>113</ns3:hr>
          </ns3:TrackPointExtension>
        </extensions>
      </trkpt>
      <trkpt lat="47.74965651333332061767578125" lon="12.24841433577239513397216796875">
        <ele>1701.4000244140625</ele>
        <time>2020-06-23T14:36:41.000Z</time>
        <extensions>
          <ns3:TrackPointExtension>
            <ns3:atemp>23.0</ns3:atemp>
            <ns3:hr>113</ns3:hr>
          </ns3:TrackPointExtension>
        </extensions>
      </trkpt>
      <trkpt lat="47.74967486970126628875732421875" lon="12.2484833188354969024658203125">
        <ele>1700.4000244140625</ele>
        <time>2020-06-23T14:36:42.000Z</time>
        <extensions>
          <ns3:TrackPointExtension>
            <ns3:atemp>23.0</ns3:atemp>
            <ns3:hr>113</ns3:hr>
          </ns3:TrackPointExtension>
        </extensions>
      </trkpt>
      <trkpt lat="47.7496945671737194061279296875" lon="12.24864584393799304962158203125">
        <ele>1699</ele>
        <time>2020-06-23T14:36:44.000Z</time>
        <extensions>
          <ns3:TrackPointExtension>
            <ns3:atemp>23.0</ns3:atemp>
            <ns3:hr>112</ns3:hr>
          </ns3:TrackPointExtension>
        </extensions>
      </trkpt>
      <trkpt lat="47.7497210539877414703369140625" lon="12.24884323775768280029296875">
        <ele>1698.199951171875</ele>
        <time>2020-06-23T14:36:46.000Z</time>
        <extensions>
          <ns3:TrackPointExtension>
            <ns3:atemp>23.0</ns3:atemp>
            <ns3:hr>112</ns3:hr>
          </ns3:TrackPointExtension>
        </extensions>
      </trkpt>
      <trkpt lat="47.7497780509293079376220703125" lon="12.24919326603412628173828125">
        <ele>1698</ele>
        <time>2020-06-23T14:36:50.000Z</time>
        <extensions>
          <ns3:TrackPointExtension>
            <ns3:atemp>23.0</ns3:atemp>
            <ns3:hr>113</ns3:hr>
          </ns3:TrackPointExtension>
        </extensions>
      </trkpt>
      <trkpt lat="47.7498055435717105865478515625" lon="12.2492665238678455352783203125">
        <ele>1697.800048828125</ele>
        <time>2020-06-23T14:36:51.000Z</time>
        <extensions>
          <ns3:TrackPointExtension>
            <ns3:atemp>23.0</ns3:atemp>
            <ns3:hr>113</ns3:hr>
          </ns3:TrackPointExtension>
        </extensions>
      </trkpt>
      <trkpt lat="47.74984301067888736724853515625" lon="12.24932746030390262603759765625">
        <ele>1697.800048828125</ele>
        <time>2020-06-23T14:36:52.000Z</time>
        <extensions>
          <ns3:TrackPointExtension>
            <ns3:atemp>23.0</ns3:atemp>
            <ns3:hr>114</ns3:hr>
          </ns3:TrackPointExtension>
        </extensions>
      </trkpt>
      <trkpt lat="47.7499188669025897979736328125" lon="12.24944078363478183746337890625">
        <ele>1697.4000244140625</ele>
        <time>2020-06-23T14:36:54.000Z</time>
        <extensions>
          <ns3:TrackPointExtension>
            <ns3:atemp>23.0</ns3:atemp>
            <ns3:hr>115</ns3:hr>
          </ns3:TrackPointExtension>
        </extensions>
      </trkpt>
      <trkpt lat="47.74994929321110248565673828125" lon="12.2495102696120738983154296875">
        <ele>1697.4000244140625</ele>
        <time>2020-06-23T14:36:55.000Z</time>
        <extensions>
          <ns3:TrackPointExtension>
            <ns3:atemp>23.0</ns3:atemp>
            <ns3:hr>115</ns3:hr>
          </ns3:TrackPointExtension>
        </extensions>
      </trkpt>
      <trkpt lat="47.75000385940074920654296875" lon="12.249630130827426910400390625">
        <ele>1697.4000244140625</ele>
        <time>2020-06-23T14:36:57.000Z</time>
        <extensions>
          <ns3:TrackPointExtension>
            <ns3:atemp>23.0</ns3:atemp>
            <ns3:hr>117</ns3:hr>
          </ns3:TrackPointExtension>
        </extensions>
      </trkpt>
      <trkpt lat="47.75007468648254871368408203125" lon="12.249710597097873687744140625">
        <ele>1697.5999755859375</ele>
        <time>2020-06-23T14:36:59.000Z</time>
        <extensions>
          <ns3:TrackPointExtension>
            <ns3:atemp>23.0</ns3:atemp>
            <ns3:hr>115</ns3:hr>
          </ns3:TrackPointExtension>
        </extensions>
      </trkpt>
      <trkpt lat="47.7501118183135986328125" lon="12.24975694902241230010986328125">
        <ele>1697.5999755859375</ele>
        <time>2020-06-23T14:37:00.000Z</time>
        <extensions>
          <ns3:TrackPointExtension>
            <ns3:atemp>23.0</ns3:atemp>
            <ns3:hr>114</ns3:hr>
          </ns3:TrackPointExtension>
        </extensions>
      </trkpt>
      <trkpt lat="47.75017954409122467041015625" lon="12.24985702894628047943115234375">
        <ele>1697.5999755859375</ele>
        <time>2020-06-23T14:37:02.000Z</time>
        <extensions>
          <ns3:TrackPointExtension>
            <ns3:atemp>23.0</ns3:atemp>
            <ns3:hr>113</ns3:hr>
          </ns3:TrackPointExtension>
        </extensions>
      </trkpt>
      <trkpt lat="47.75025271810591220855712890625" lon="12.24994654767215251922607421875">
        <ele>1696.5999755859375</ele>
        <time>2020-06-23T14:37:04.000Z</time>
        <extensions>
          <ns3:TrackPointExtension>
            <ns3:atemp>23.0</ns3:atemp>
            <ns3:hr>112</ns3:hr>
          </ns3:TrackPointExtension>
        </extensions>
      </trkpt>
      <trkpt lat="47.75031072087585926055908203125" lon="12.25007780827581882476806640625">
        <ele>1696</ele>
        <time>2020-06-23T14:37:06.000Z</time>
        <extensions>
          <ns3:TrackPointExtension>
            <ns3:atemp>23.0</ns3:atemp>
            <ns3:hr>112</ns3:hr>
          </ns3:TrackPointExtension>
        </extensions>
      </trkpt>
      <trkpt lat="47.75032966397702693939208984375" lon="12.25015441887080669403076171875">
        <ele>1695.5999755859375</ele>
        <time>2020-06-23T14:37:07.000Z</time>
        <extensions>
          <ns3:TrackPointExtension>
            <ns3:atemp>23.0</ns3:atemp>
            <ns3:hr>112</ns3:hr>
          </ns3:TrackPointExtension>
        </extensions>
      </trkpt>
      <trkpt lat="47.7503463439643383026123046875" lon="12.2502264194190502166748046875">
        <ele>1695.4000244140625</ele>
        <time>2020-06-23T14:37:08.000Z</time>
        <extensions>
          <ns3:TrackPointExtension>
            <ns3:atemp>23.0</ns3:atemp>
            <ns3:hr>111</ns3:hr>
          </ns3:TrackPointExtension>
        </extensions>
      </trkpt>
      <trkpt lat="47.75036704726517200469970703125" lon="12.25029188208281993865966796875">
        <ele>1695</ele>
        <time>2020-06-23T14:37:09.000Z</time>
        <extensions>
          <ns3:TrackPointExtension>
            <ns3:atemp>23.0</ns3:atemp>
            <ns3:hr>110</ns3:hr>
          </ns3:TrackPointExtension>
        </extensions>
      </trkpt>
      <trkpt lat="47.750432007014751434326171875" lon="12.25049757398664951324462890625">
        <ele>1695</ele>
        <time>2020-06-23T14:37:12.000Z</time>
        <extensions>
          <ns3:TrackPointExtension>
            <ns3:atemp>23.0</ns3:atemp>
            <ns3:hr>109</ns3:hr>
          </ns3:TrackPointExtension>
        </extensions>
      </trkpt>
      <trkpt lat="47.75047601200640201568603515625" lon="12.2506388090550899505615234375">
        <ele>1695</ele>
        <time>2020-06-23T14:37:14.000Z</time>
        <extensions>
          <ns3:TrackPointExtension>
            <ns3:atemp>23.0</ns3:atemp>
            <ns3:hr>109</ns3:hr>
          </ns3:TrackPointExtension>
        </extensions>
      </trkpt>
      <trkpt lat="47.7505431510508060455322265625" lon="12.25072623230516910552978515625">
        <ele>1694.5999755859375</ele>
        <time>2020-06-23T14:37:16.000Z</time>
        <extensions>
          <ns3:TrackPointExtension>
            <ns3:atemp>23.0</ns3:atemp>
            <ns3:hr>109</ns3:hr>
          </ns3:TrackPointExtension>
        </extensions>
      </trkpt>
      <trkpt lat="47.75057642720639705657958984375" lon="12.250767387449741363525390625">
        <ele>1694</ele>
        <time>2020-06-23T14:37:17.000Z</time>
        <extensions>
          <ns3:TrackPointExtension>
            <ns3:atemp>23.0</ns3:atemp>
            <ns3:hr>110</ns3:hr>
          </ns3:TrackPointExtension>
        </extensions>
      </trkpt>
      <trkpt lat="47.75062638334929943084716796875" lon="12.2508849017322063446044921875">
        <ele>1692.5999755859375</ele>
        <time>2020-06-23T14:37:19.000Z</time>
        <extensions>
          <ns3:TrackPointExtension>
            <ns3:atemp>23.0</ns3:atemp>
            <ns3:hr>111</ns3:hr>
          </ns3:TrackPointExtension>
        </extensions>
      </trkpt>
      <trkpt lat="47.75065102614462375640869140625" lon="12.2509502805769443511962890625">
        <ele>1692.199951171875</ele>
        <time>2020-06-23T14:37:20.000Z</time>
        <extensions>
          <ns3:TrackPointExtension>
            <ns3:atemp>23.0</ns3:atemp>
            <ns3:hr>111</ns3:hr>
          </ns3:TrackPointExtension>
        </extensions>
      </trkpt>
      <trkpt lat="47.75076250545680522918701171875" lon="12.25114683620631694793701171875">
        <ele>1691.5999755859375</ele>
        <time>2020-06-23T14:37:23.000Z</time>
        <extensions>
          <ns3:TrackPointExtension>
            <ns3:atemp>23.0</ns3:atemp>
            <ns3:hr>112</ns3:hr>
          </ns3:TrackPointExtension>
        </extensions>
      </trkpt>
      <trkpt lat="47.75078681297600269317626953125" lon="12.25122294388711452484130859375">
        <ele>1691.800048828125</ele>
        <time>2020-06-23T14:37:24.000Z</time>
        <extensions>
          <ns3:TrackPointExtension>
            <ns3:atemp>23.0</ns3:atemp>
            <ns3:hr>112</ns3:hr>
          </ns3:TrackPointExtension>
        </extensions>
      </trkpt>
      <trkpt lat="47.75079871527850627899169921875" lon="12.2513009794056415557861328125">
        <ele>1692.4000244140625</ele>
        <time>2020-06-23T14:37:25.000Z</time>
        <extensions>
          <ns3:TrackPointExtension>
            <ns3:atemp>23.0</ns3:atemp>
            <ns3:hr>113</ns3:hr>
          </ns3:TrackPointExtension>
        </extensions>
      </trkpt>
      <trkpt lat="47.7508241124451160430908203125" lon="12.25144539959728717803955078125">
        <ele>1694.199951171875</ele>
        <time>2020-06-23T14:37:27.000Z</time>
        <extensions>
          <ns3:TrackPointExtension>
            <ns3:atemp>23.0</ns3:atemp>
            <ns3:hr>112</ns3:hr>
          </ns3:TrackPointExtension>
        </extensions>
      </trkpt>
      <trkpt lat="47.750847078859806060791015625" lon="12.25150675512850284576416015625">
        <ele>1695</ele>
        <time>2020-06-23T14:37:28.000Z</time>
        <extensions>
          <ns3:TrackPointExtension>
            <ns3:atemp>23.0</ns3:atemp>
            <ns3:hr>112</ns3:hr>
          </ns3:TrackPointExtension>
        </extensions>
      </trkpt>
      <trkpt lat="47.75087230838835239410400390625" lon="12.25156433880329132080078125">
        <ele>1695.800048828125</ele>
        <time>2020-06-23T14:37:29.000Z</time>
        <extensions>
          <ns3:TrackPointExtension>
            <ns3:atemp>23.0</ns3:atemp>
            <ns3:hr>111</ns3:hr>
          </ns3:TrackPointExtension>
        </extensions>
      </trkpt>
      <trkpt lat="47.750953026115894317626953125" lon="12.251743040978908538818359375">
        <ele>1696.5999755859375</ele>
        <time>2020-06-23T14:37:32.000Z</time>
        <extensions>
          <ns3:TrackPointExtension>
            <ns3:atemp>23.0</ns3:atemp>
            <ns3:hr>109</ns3:hr>
          </ns3:TrackPointExtension>
        </extensions>
      </trkpt>
      <trkpt lat="47.7509967796504497528076171875" lon="12.251779250800609588623046875">
        <ele>1696.800048828125</ele>
        <time>2020-06-23T14:37:33.000Z</time>
        <extensions>
          <ns3:TrackPointExtension>
            <ns3:atemp>23.0</ns3:atemp>
            <ns3:hr>108</ns3:hr>
          </ns3:TrackPointExtension>
        </extensions>
      </trkpt>
      <trkpt lat="47.7510517649352550506591796875" lon="12.2518048994243144989013671875">
        <ele>1697</ele>
        <time>2020-06-23T14:37:34.000Z</time>
        <extensions>
          <ns3:TrackPointExtension>
            <ns3:atemp>23.0</ns3:atemp>
            <ns3:hr>108</ns3:hr>
          </ns3:TrackPointExtension>
        </extensions>
      </trkpt>
      <trkpt lat="47.75113935582339763641357421875" lon="12.25185778923332691192626953125">
        <ele>1698.4000244140625</ele>
        <time>2020-06-23T14:37:36.000Z</time>
        <extensions>
          <ns3:TrackPointExtension>
            <ns3:atemp>23.0</ns3:atemp>
            <ns3:hr>109</ns3:hr>
          </ns3:TrackPointExtension>
        </extensions>
      </trkpt>
      <trkpt lat="47.7511567063629627227783203125" lon="12.2518897242844104766845703125">
        <ele>1700.800048828125</ele>
        <time>2020-06-23T14:37:37.000Z</time>
        <extensions>
          <ns3:TrackPointExtension>
            <ns3:atemp>23.0</ns3:atemp>
            <ns3:hr>110</ns3:hr>
          </ns3:TrackPointExtension>
        </extensions>
      </trkpt>
      <trkpt lat="47.7511644177138805389404296875" lon="12.25192115642130374908447265625">
        <ele>1704</ele>
        <time>2020-06-23T14:37:38.000Z</time>
        <extensions>
          <ns3:TrackPointExtension>
            <ns3:atemp>23.0</ns3:atemp>
            <ns3:hr>110</ns3:hr>
          </ns3:TrackPointExtension>
        </extensions>
      </trkpt>
      <trkpt lat="47.75117992423474788665771484375" lon="12.25195384584367275238037109375">
        <ele>1707</ele>
        <time>2020-06-23T14:37:39.000Z</time>
        <extensions>
          <ns3:TrackPointExtension>
            <ns3:atemp>23.0</ns3:atemp>
            <ns3:hr>111</ns3:hr>
          </ns3:TrackPointExtension>
        </extensions>
      </trkpt>
      <trkpt lat="47.75121697224676609039306640625" lon="12.2519893012940883636474609375">
        <ele>1709.5999755859375</ele>
        <time>2020-06-23T14:37:40.000Z</time>
        <extensions>
          <ns3:TrackPointExtension>
            <ns3:atemp>23.0</ns3:atemp>
            <ns3:hr>112</ns3:hr>
          </ns3:TrackPointExtension>
        </extensions>
      </trkpt>
      <trkpt lat="47.75126826949417591094970703125" lon="12.2520196437835693359375">
        <ele>1711</ele>
        <time>2020-06-23T14:37:41.000Z</time>
        <extensions>
          <ns3:TrackPointExtension>
            <ns3:atemp>23.0</ns3:atemp>
            <ns3:hr>112</ns3:hr>
          </ns3:TrackPointExtension>
        </extensions>
      </trkpt>
      <trkpt lat="47.751310765743255615234375" lon="12.25202500820159912109375">
        <ele>1711.800048828125</ele>
        <time>2020-06-23T14:37:42.000Z</time>
        <extensions>
          <ns3:TrackPointExtension>
            <ns3:atemp>23.0</ns3:atemp>
            <ns3:hr>112</ns3:hr>
          </ns3:TrackPointExtension>
        </extensions>
      </trkpt>
      <trkpt lat="47.751334570348262786865234375" lon="12.251990474760532379150390625">
        <ele>1712.4000244140625</ele>
        <time>2020-06-23T14:37:43.000Z</time>
        <extensions>
          <ns3:TrackPointExtension>
            <ns3:atemp>23.0</ns3:atemp>
            <ns3:hr>113</ns3:hr>
          </ns3:TrackPointExtension>
        </extensions>
      </trkpt>
      <trkpt lat="47.75134186260402202606201171875" lon="12.2519136965274810791015625">
        <ele>1713</ele>
        <time>2020-06-23T14:37:44.000Z</time>
        <extensions>
          <ns3:TrackPointExtension>
            <ns3:atemp>23.0</ns3:atemp>
            <ns3:hr>113</ns3:hr>
          </ns3:TrackPointExtension>
        </extensions>
      </trkpt>
      <trkpt lat="47.75134001858532428741455078125" lon="12.2518025524914264678955078125">
        <ele>1713.5999755859375</ele>
        <time>2020-06-23T14:37:45.000Z</time>
        <extensions>
          <ns3:TrackPointExtension>
            <ns3:atemp>23.0</ns3:atemp>
            <ns3:hr>113</ns3:hr>
          </ns3:TrackPointExtension>
        </extensions>
      </trkpt>
      <trkpt lat="47.7513260208070278167724609375" lon="12.25167707540094852447509765625">
        <ele>1714.199951171875</ele>
        <time>2020-06-23T14:37:46.000Z</time>
        <extensions>
          <ns3:TrackPointExtension>
            <ns3:atemp>23.0</ns3:atemp>
            <ns3:hr>113</ns3:hr>
          </ns3:TrackPointExtension>
        </extensions>
      </trkpt>
      <trkpt lat="47.751289308071136474609375" lon="12.25155000574886798858642578125">
        <ele>1714.800048828125</ele>
        <time>2020-06-23T14:37:47.000Z</time>
        <extensions>
          <ns3:TrackPointExtension>
            <ns3:atemp>23.0</ns3:atemp>
            <ns3:hr>114</ns3:hr>
          </ns3:TrackPointExtension>
        </extensions>
      </trkpt>
      <trkpt lat="47.7512251026928424835205078125" lon="12.2514297254383563995361328125">
        <ele>1715</ele>
        <time>2020-06-23T14:37:48.000Z</time>
        <extensions>
          <ns3:TrackPointExtension>
            <ns3:atemp>23.0</ns3:atemp>
            <ns3:hr>115</ns3:hr>
          </ns3:TrackPointExtension>
        </extensions>
      </trkpt>
      <trkpt lat="47.75113709270954132080078125" lon="12.25132101215422153472900390625">
        <ele>1715.199951171875</ele>
        <time>2020-06-23T14:37:49.000Z</time>
        <extensions>
          <ns3:TrackPointExtension>
            <ns3:atemp>23.0</ns3:atemp>
            <ns3:hr>115</ns3:hr>
          </ns3:TrackPointExtension>
        </extensions>
      </trkpt>
      <trkpt lat="47.75086007080972194671630859375" lon="12.2510448284447193145751953125">
        <ele>1715.800048828125</ele>
        <time>2020-06-23T14:37:52.000Z</time>
        <extensions>
          <ns3:TrackPointExtension>
            <ns3:atemp>23.0</ns3:atemp>
            <ns3:hr>115</ns3:hr>
          </ns3:TrackPointExtension>
        </extensions>
      </trkpt>
      <trkpt lat="47.750775329768657684326171875" lon="12.25095505826175212860107421875">
        <ele>1716.199951171875</ele>
        <time>2020-06-23T14:37:53.000Z</time>
        <extensions>
          <ns3:TrackPointExtension>
            <ns3:atemp>23.0</ns3:atemp>
            <ns3:hr>115</ns3:hr>
          </ns3:TrackPointExtension>
        </extensions>
      </trkpt>
      <trkpt lat="47.75069595314562320709228515625" lon="12.25084743462502956390380859375">
        <ele>1716.5999755859375</ele>
        <time>2020-06-23T14:37:54.000Z</time>
        <extensions>
          <ns3:TrackPointExtension>
            <ns3:atemp>23.0</ns3:atemp>
            <ns3:hr>115</ns3:hr>
          </ns3:TrackPointExtension>
        </extensions>
      </trkpt>
      <trkpt lat="47.75057240389287471771240234375" lon="12.25059044547379016876220703125">
        <ele>1716.800048828125</ele>
        <time>2020-06-23T14:37:56.000Z</time>
        <extensions>
          <ns3:TrackPointExtension>
            <ns3:atemp>23.0</ns3:atemp>
            <ns3:hr>114</ns3:hr>
          </ns3:TrackPointExtension>
        </extensions>
      </trkpt>
      <trkpt lat="47.75047567673027515411376953125" lon="12.25025902502238750457763671875">
        <ele>1717.4000244140625</ele>
        <time>2020-06-23T14:37:59.000Z</time>
        <extensions>
          <ns3:TrackPointExtension>
            <ns3:atemp>23.0</ns3:atemp>
            <ns3:hr>114</ns3:hr>
          </ns3:TrackPointExtension>
        </extensions>
      </trkpt>
      <trkpt lat="47.75038070976734161376953125" lon="12.2499105893075466156005859375">
        <ele>1716.800048828125</ele>
        <time>2020-06-23T14:38:02.000Z</time>
        <extensions>
          <ns3:TrackPointExtension>
            <ns3:atemp>23.0</ns3:atemp>
            <ns3:hr>115</ns3:hr>
          </ns3:TrackPointExtension>
        </extensions>
      </trkpt>
      <trkpt lat="47.75036252103745937347412109375" lon="12.24978469312191009521484375">
        <ele>1716.199951171875</ele>
        <time>2020-06-23T14:38:03.000Z</time>
        <extensions>
          <ns3:TrackPointExtension>
            <ns3:atemp>23.0</ns3:atemp>
            <ns3:hr>115</ns3:hr>
          </ns3:TrackPointExtension>
        </extensions>
      </trkpt>
      <trkpt lat="47.7503496967256069183349609375" lon="12.2496638260781764984130859375">
        <ele>1715.5999755859375</ele>
        <time>2020-06-23T14:38:04.000Z</time>
        <extensions>
          <ns3:TrackPointExtension>
            <ns3:atemp>23.0</ns3:atemp>
            <ns3:hr>116</ns3:hr>
          </ns3:TrackPointExtension>
        </extensions>
      </trkpt>
      <trkpt lat="47.7503121457993984222412109375" lon="12.2494217567145824432373046875">
        <ele>1714</ele>
        <time>2020-06-23T14:38:06.000Z</time>
        <extensions>
          <ns3:TrackPointExtension>
            <ns3:atemp>23.0</ns3:atemp>
            <ns3:hr>110</ns3:hr>
          </ns3:TrackPointExtension>
        </extensions>
      </trkpt>
      <trkpt lat="47.75028389878571033477783203125" lon="12.2492946870625019073486328125">
        <ele>1713.4000244140625</ele>
        <time>2020-06-23T14:38:07.000Z</time>
        <extensions>
          <ns3:TrackPointExtension>
            <ns3:atemp>23.0</ns3:atemp>
            <ns3:hr>106</ns3:hr>
          </ns3:TrackPointExtension>
        </extensions>
      </trkpt>
      <trkpt lat="47.75025506503880023956298828125" lon="12.24916644394397735595703125">
        <ele>1713</ele>
        <time>2020-06-23T14:38:08.000Z</time>
        <extensions>
          <ns3:TrackPointExtension>
            <ns3:atemp>23.0</ns3:atemp>
            <ns3:hr>106</ns3:hr>
          </ns3:TrackPointExtension>
        </extensions>
      </trkpt>
      <trkpt lat="47.75020376779139041900634765625" lon="12.24890283308923244476318359375">
        <ele>1711.800048828125</ele>
        <time>2020-06-23T14:38:10.000Z</time>
        <extensions>
          <ns3:TrackPointExtension>
            <ns3:atemp>23.0</ns3:atemp>
            <ns3:hr>105</ns3:hr>
          </ns3:TrackPointExtension>
        </extensions>
      </trkpt>
      <trkpt lat="47.75017141364514827728271484375" lon="12.2486519627273082733154296875">
        <ele>1710.199951171875</ele>
        <time>2020-06-23T14:38:12.000Z</time>
        <extensions>
          <ns3:TrackPointExtension>
            <ns3:atemp>23.0</ns3:atemp>
            <ns3:hr>106</ns3:hr>
          </ns3:TrackPointExtension>
        </extensions>
      </trkpt>
      <trkpt lat="47.75017946027219295501708984375" lon="12.24854593165218830108642578125">
        <ele>1709.5999755859375</ele>
        <time>2020-06-23T14:38:13.000Z</time>
        <extensions>
          <ns3:TrackPointExtension>
            <ns3:atemp>23.0</ns3:atemp>
            <ns3:hr>105</ns3:hr>
          </ns3:TrackPointExtension>
        </extensions>
      </trkpt>
      <trkpt lat="47.7502075396478176116943359375" lon="12.24846043623983860015869140625">
        <ele>1709.199951171875</ele>
        <time>2020-06-23T14:38:14.000Z</time>
        <extensions>
          <ns3:TrackPointExtension>
            <ns3:atemp>23.0</ns3:atemp>
            <ns3:hr>106</ns3:hr>
          </ns3:TrackPointExtension>
        </extensions>
      </trkpt>
      <trkpt lat="47.7502507902681827545166015625" lon="12.248400337994098663330078125">
        <ele>1708.800048828125</ele>
        <time>2020-06-23T14:38:15.000Z</time>
        <extensions>
          <ns3:TrackPointExtension>
            <ns3:atemp>23.0</ns3:atemp>
            <ns3:hr>106</ns3:hr>
          </ns3:TrackPointExtension>
        </extensions>
      </trkpt>
      <trkpt lat="47.7503017522394657135009765625" lon="12.24836924113333225250244140625">
        <ele>1708.4000244140625</ele>
        <time>2020-06-23T14:38:16.000Z</time>
        <extensions>
          <ns3:TrackPointExtension>
            <ns3:atemp>23.0</ns3:atemp>
            <ns3:hr>106</ns3:hr>
          </ns3:TrackPointExtension>
        </extensions>
      </trkpt>
      <trkpt lat="47.75035254657268524169921875" lon="12.248370163142681121826171875">
        <ele>1707.800048828125</ele>
        <time>2020-06-23T14:38:17.000Z</time>
        <extensions>
          <ns3:TrackPointExtension>
            <ns3:atemp>23.0</ns3:atemp>
            <ns3:hr>106</ns3:hr>
          </ns3:TrackPointExtension>
        </extensions>
      </trkpt>
      <trkpt lat="47.75039546191692352294921875" lon="12.248407714068889617919921875">
        <ele>1707.199951171875</ele>
        <time>2020-06-23T14:38:18.000Z</time>
        <extensions>
          <ns3:TrackPointExtension>
            <ns3:atemp>23.0</ns3:atemp>
            <ns3:hr>106</ns3:hr>
          </ns3:TrackPointExtension>
        </extensions>
      </trkpt>
      <trkpt lat="47.7504278160631656646728515625" lon="12.24847577512264251708984375">
        <ele>1706.4000244140625</ele>
        <time>2020-06-23T14:38:19.000Z</time>
        <extensions>
          <ns3:TrackPointExtension>
            <ns3:atemp>23.0</ns3:atemp>
            <ns3:hr>106</ns3:hr>
          </ns3:TrackPointExtension>
        </extensions>
      </trkpt>
      <trkpt lat="47.750448100268840789794921875" lon="12.2485584206879138946533203125">
        <ele>1705.800048828125</ele>
        <time>2020-06-23T14:38:20.000Z</time>
        <extensions>
          <ns3:TrackPointExtension>
            <ns3:atemp>23.0</ns3:atemp>
            <ns3:hr>106</ns3:hr>
          </ns3:TrackPointExtension>
        </extensions>
      </trkpt>
      <trkpt lat="47.75046142749488353729248046875" lon="12.2486408986151218414306640625">
        <ele>1705</ele>
        <time>2020-06-23T14:38:21.000Z</time>
        <extensions>
          <ns3:TrackPointExtension>
            <ns3:atemp>23.0</ns3:atemp>
            <ns3:hr>107</ns3:hr>
          </ns3:TrackPointExtension>
        </extensions>
      </trkpt>
      <trkpt lat="47.75047592818737030029296875" lon="12.2487947903573513031005859375">
        <ele>1703</ele>
        <time>2020-06-23T14:38:23.000Z</time>
        <extensions>
          <ns3:TrackPointExtension>
            <ns3:atemp>23.0</ns3:atemp>
            <ns3:hr>106</ns3:hr>
          </ns3:TrackPointExtension>
        </extensions>
      </trkpt>
      <trkpt lat="47.750479280948638916015625" lon="12.248878777027130126953125">
        <ele>1702.199951171875</ele>
        <time>2020-06-23T14:38:24.000Z</time>
        <extensions>
          <ns3:TrackPointExtension>
            <ns3:atemp>23.0</ns3:atemp>
            <ns3:hr>103</ns3:hr>
          </ns3:TrackPointExtension>
        </extensions>
      </trkpt>
      <trkpt lat="47.75048305280506610870361328125" lon="12.248966954648494720458984375">
        <ele>1701.5999755859375</ele>
        <time>2020-06-23T14:38:25.000Z</time>
        <extensions>
          <ns3:TrackPointExtension>
            <ns3:atemp>23.0</ns3:atemp>
            <ns3:hr>102</ns3:hr>
          </ns3:TrackPointExtension>
        </extensions>
      </trkpt>
      <trkpt lat="47.7504935301840305328369140625" lon="12.2490556351840496063232421875">
        <ele>1701</ele>
        <time>2020-06-23T14:38:26.000Z</time>
        <extensions>
          <ns3:TrackPointExtension>
            <ns3:atemp>23.0</ns3:atemp>
            <ns3:hr>103</ns3:hr>
          </ns3:TrackPointExtension>
        </extensions>
      </trkpt>
      <trkpt lat="47.7505129761993885040283203125" lon="12.2491421364247798919677734375">
        <ele>1700.199951171875</ele>
        <time>2020-06-23T14:38:27.000Z</time>
        <extensions>
          <ns3:TrackPointExtension>
            <ns3:atemp>23.0</ns3:atemp>
            <ns3:hr>103</ns3:hr>
          </ns3:TrackPointExtension>
        </extensions>
      </trkpt>
      <trkpt lat="47.75056100450456142425537109375" lon="12.2492973692715167999267578125">
        <ele>1698.199951171875</ele>
        <time>2020-06-23T14:38:29.000Z</time>
        <extensions>
          <ns3:TrackPointExtension>
            <ns3:atemp>23.0</ns3:atemp>
            <ns3:hr>102</ns3:hr>
          </ns3:TrackPointExtension>
        </extensions>
      </trkpt>
      <trkpt lat="47.7505830489099025726318359375" lon="12.24936367012560367584228515625">
        <ele>1696.800048828125</ele>
        <time>2020-06-23T14:38:30.000Z</time>
        <extensions>
          <ns3:TrackPointExtension>
            <ns3:atemp>23.0</ns3:atemp>
            <ns3:hr>102</ns3:hr>
          </ns3:TrackPointExtension>
        </extensions>
      </trkpt>
      <trkpt lat="47.75060626678168773651123046875" lon="12.24942217580974102020263671875">
        <ele>1695.800048828125</ele>
        <time>2020-06-23T14:38:31.000Z</time>
        <extensions>
          <ns3:TrackPointExtension>
            <ns3:atemp>23.0</ns3:atemp>
            <ns3:hr>102</ns3:hr>
          </ns3:TrackPointExtension>
        </extensions>
      </trkpt>
      <trkpt lat="47.750655300915241241455078125" lon="12.2495243512094020843505859375">
        <ele>1694.4000244140625</ele>
        <time>2020-06-23T14:38:33.000Z</time>
        <extensions>
          <ns3:TrackPointExtension>
            <ns3:atemp>23.0</ns3:atemp>
            <ns3:hr>101</ns3:hr>
          </ns3:TrackPointExtension>
        </extensions>
      </trkpt>
      <trkpt lat="47.750683128833770751953125" lon="12.24958713166415691375732421875">
        <ele>1693.5999755859375</ele>
        <time>2020-06-23T14:38:34.000Z</time>
        <extensions>
          <ns3:TrackPointExtension>
            <ns3:atemp>23.0</ns3:atemp>
            <ns3:hr>103</ns3:hr>
          </ns3:TrackPointExtension>
        </extensions>
      </trkpt>
      <trkpt lat="47.7507164888083934783935546875" lon="12.249655611813068389892578125">
        <ele>1692.800048828125</ele>
        <time>2020-06-23T14:38:35.000Z</time>
        <extensions>
          <ns3:TrackPointExtension>
            <ns3:atemp>23.0</ns3:atemp>
            <ns3:hr>102</ns3:hr>
          </ns3:TrackPointExtension>
        </extensions>
      </trkpt>
      <trkpt lat="47.75080676190555095672607421875" lon="12.2497349046170711517333984375">
        <ele>1691</ele>
        <time>2020-06-23T14:38:37.000Z</time>
        <extensions>
          <ns3:TrackPointExtension>
            <ns3:atemp>23.0</ns3:atemp>
            <ns3:hr>104</ns3:hr>
          </ns3:TrackPointExtension>
        </extensions>
      </trkpt>
      <trkpt lat="47.75084364227950572967529296875" lon="12.24975711666047573089599609375">
        <ele>1690</ele>
        <time>2020-06-23T14:38:38.000Z</time>
        <extensions>
          <ns3:TrackPointExtension>
            <ns3:atemp>23.0</ns3:atemp>
            <ns3:hr>107</ns3:hr>
          </ns3:TrackPointExtension>
        </extensions>
      </trkpt>
      <trkpt lat="47.7508687041699886322021484375" lon="12.2497979365289211273193359375">
        <ele>1688.800048828125</ele>
        <time>2020-06-23T14:38:39.000Z</time>
        <extensions>
          <ns3:TrackPointExtension>
            <ns3:atemp>23.0</ns3:atemp>
            <ns3:hr>108</ns3:hr>
          </ns3:TrackPointExtension>
        </extensions>
      </trkpt>
      <trkpt lat="47.75089192204177379608154296875" lon="12.24986373446881771087646484375">
        <ele>1688.199951171875</ele>
        <time>2020-06-23T14:38:40.000Z</time>
        <extensions>
          <ns3:TrackPointExtension>
            <ns3:atemp>23.0</ns3:atemp>
            <ns3:hr>109</ns3:hr>
          </ns3:TrackPointExtension>
        </extensions>
      </trkpt>
      <trkpt lat="47.75092075578868389129638671875" lon="12.24993950687348842620849609375">
        <ele>1687.5999755859375</ele>
        <time>2020-06-23T14:38:41.000Z</time>
        <extensions>
          <ns3:TrackPointExtension>
            <ns3:atemp>23.0</ns3:atemp>
            <ns3:hr>109</ns3:hr>
          </ns3:TrackPointExtension>
        </extensions>
      </trkpt>
      <trkpt lat="47.75097624398767948150634765625" lon="12.25009918212890625">
        <ele>1687</ele>
        <time>2020-06-23T14:38:43.000Z</time>
        <extensions>
          <ns3:TrackPointExtension>
            <ns3:atemp>23.0</ns3:atemp>
            <ns3:hr>109</ns3:hr>
          </ns3:TrackPointExtension>
        </extensions>
      </trkpt>
      <trkpt lat="47.75098512880504131317138671875" lon="12.250188030302524566650390625">
        <ele>1687.199951171875</ele>
        <time>2020-06-23T14:38:44.000Z</time>
        <extensions>
          <ns3:TrackPointExtension>
            <ns3:atemp>23.0</ns3:atemp>
            <ns3:hr>109</ns3:hr>
          </ns3:TrackPointExtension>
        </extensions>
      </trkpt>
      <trkpt lat="47.75098110549151897430419921875" lon="12.2502802312374114990234375">
        <ele>1687.199951171875</ele>
        <time>2020-06-23T14:38:45.000Z</time>
        <extensions>
          <ns3:TrackPointExtension>
            <ns3:atemp>23.0</ns3:atemp>
            <ns3:hr>110</ns3:hr>
          </ns3:TrackPointExtension>
        </extensions>
      </trkpt>
      <trkpt lat="47.75098948739469051361083984375" lon="12.250465638935565948486328125">
        <ele>1686.800048828125</ele>
        <time>2020-06-23T14:38:47.000Z</time>
        <extensions>
          <ns3:TrackPointExtension>
            <ns3:atemp>23.0</ns3:atemp>
            <ns3:hr>111</ns3:hr>
          </ns3:TrackPointExtension>
        </extensions>
      </trkpt>
      <trkpt lat="47.75101044215261936187744140625" lon="12.2505432553589344024658203125">
        <ele>1686.5999755859375</ele>
        <time>2020-06-23T14:38:48.000Z</time>
        <extensions>
          <ns3:TrackPointExtension>
            <ns3:atemp>23.0</ns3:atemp>
            <ns3:hr>111</ns3:hr>
          </ns3:TrackPointExtension>
        </extensions>
      </trkpt>
      <trkpt lat="47.7510309778153896331787109375" lon="12.25061207078397274017333984375">
        <ele>1686.199951171875</ele>
        <time>2020-06-23T14:38:49.000Z</time>
        <extensions>
          <ns3:TrackPointExtension>
            <ns3:atemp>23.0</ns3:atemp>
            <ns3:hr>111</ns3:hr>
          </ns3:TrackPointExtension>
        </extensions>
      </trkpt>
      <trkpt lat="47.75105704553425312042236328125" lon="12.250755988061428070068359375">
        <ele>1685.5999755859375</ele>
        <time>2020-06-23T14:38:51.000Z</time>
        <extensions>
          <ns3:TrackPointExtension>
            <ns3:atemp>23.0</ns3:atemp>
            <ns3:hr>111</ns3:hr>
          </ns3:TrackPointExtension>
        </extensions>
      </trkpt>
      <trkpt lat="47.75108252651989459991455078125" lon="12.25083720870316028594970703125">
        <ele>1685.199951171875</ele>
        <time>2020-06-23T14:38:52.000Z</time>
        <extensions>
          <ns3:TrackPointExtension>
            <ns3:atemp>23.0</ns3:atemp>
            <ns3:hr>110</ns3:hr>
          </ns3:TrackPointExtension>
        </extensions>
      </trkpt>
      <trkpt lat="47.751117981970310211181640625" lon="12.250913567841053009033203125">
        <ele>1684.800048828125</ele>
        <time>2020-06-23T14:38:53.000Z</time>
        <extensions>
          <ns3:TrackPointExtension>
            <ns3:atemp>23.0</ns3:atemp>
            <ns3:hr>110</ns3:hr>
          </ns3:TrackPointExtension>
        </extensions>
      </trkpt>
      <trkpt lat="47.7511754818260669708251953125" lon="12.25105111487209796905517578125">
        <ele>1684.199951171875</ele>
        <time>2020-06-23T14:38:55.000Z</time>
        <extensions>
          <ns3:TrackPointExtension>
            <ns3:atemp>23.0</ns3:atemp>
            <ns3:hr>109</ns3:hr>
          </ns3:TrackPointExtension>
        </extensions>
      </trkpt>
      <trkpt lat="47.75118964724242687225341796875" lon="12.25111699663102626800537109375">
        <ele>1684.199951171875</ele>
        <time>2020-06-23T14:38:56.000Z</time>
        <extensions>
          <ns3:TrackPointExtension>
            <ns3:atemp>24.0</ns3:atemp>
            <ns3:hr>109</ns3:hr>
          </ns3:TrackPointExtension>
        </extensions>
      </trkpt>
      <trkpt lat="47.751207835972309112548828125" lon="12.25118614733219146728515625">
        <ele>1684.199951171875</ele>
        <time>2020-06-23T14:38:57.000Z</time>
        <extensions>
          <ns3:TrackPointExtension>
            <ns3:atemp>24.0</ns3:atemp>
            <ns3:hr>109</ns3:hr>
          </ns3:TrackPointExtension>
        </extensions>
      </trkpt>
      <trkpt lat="47.75126810185611248016357421875" lon="12.25134213455021381378173828125">
        <ele>1685.199951171875</ele>
        <time>2020-06-23T14:38:59.000Z</time>
        <extensions>
          <ns3:TrackPointExtension>
            <ns3:atemp>24.0</ns3:atemp>
            <ns3:hr>108</ns3:hr>
          </ns3:TrackPointExtension>
        </extensions>
      </trkpt>
      <trkpt lat="47.75131939910352230072021484375" lon="12.251472808420658111572265625">
        <ele>1686.4000244140625</ele>
        <time>2020-06-23T14:39:01.000Z</time>
        <extensions>
          <ns3:TrackPointExtension>
            <ns3:atemp>24.0</ns3:atemp>
            <ns3:hr>109</ns3:hr>
          </ns3:TrackPointExtension>
        </extensions>
      </trkpt>
      <trkpt lat="47.75134420953691005706787109375" lon="12.25151362828910350799560546875">
        <ele>1687.4000244140625</ele>
        <time>2020-06-23T14:39:02.000Z</time>
        <extensions>
          <ns3:TrackPointExtension>
            <ns3:atemp>24.0</ns3:atemp>
            <ns3:hr>111</ns3:hr>
          </ns3:TrackPointExtension>
        </extensions>
      </trkpt>
      <trkpt lat="47.75137907825410366058349609375" lon="12.2515470720827579498291015625">
        <ele>1688.5999755859375</ele>
        <time>2020-06-23T14:39:03.000Z</time>
        <extensions>
          <ns3:TrackPointExtension>
            <ns3:atemp>24.0</ns3:atemp>
            <ns3:hr>111</ns3:hr>
          </ns3:TrackPointExtension>
        </extensions>
      </trkpt>
      <trkpt lat="47.751424424350261688232421875" lon="12.251574732363224029541015625">
        <ele>1690.199951171875</ele>
        <time>2020-06-23T14:39:04.000Z</time>
        <extensions>
          <ns3:TrackPointExtension>
            <ns3:atemp>24.0</ns3:atemp>
            <ns3:hr>110</ns3:hr>
          </ns3:TrackPointExtension>
        </extensions>
      </trkpt>
      <trkpt lat="47.75147312320768833160400390625" lon="12.2515945136547088623046875">
        <ele>1691.800048828125</ele>
        <time>2020-06-23T14:39:05.000Z</time>
        <extensions>
          <ns3:TrackPointExtension>
            <ns3:atemp>24.0</ns3:atemp>
            <ns3:hr>110</ns3:hr>
          </ns3:TrackPointExtension>
        </extensions>
      </trkpt>
      <trkpt lat="47.7515201456844806671142578125" lon="12.25160800851881504058837890625">
        <ele>1693.199951171875</ele>
        <time>2020-06-23T14:39:06.000Z</time>
        <extensions>
          <ns3:TrackPointExtension>
            <ns3:atemp>24.0</ns3:atemp>
            <ns3:hr>110</ns3:hr>
          </ns3:TrackPointExtension>
        </extensions>
      </trkpt>
      <trkpt lat="47.75156490504741668701171875" lon="12.25161722861230373382568359375">
        <ele>1694.199951171875</ele>
        <time>2020-06-23T14:39:07.000Z</time>
        <extensions>
          <ns3:TrackPointExtension>
            <ns3:atemp>24.0</ns3:atemp>
            <ns3:hr>110</ns3:hr>
          </ns3:TrackPointExtension>
        </extensions>
      </trkpt>
      <trkpt lat="47.751604802906513214111328125" lon="12.25163030438125133514404296875">
        <ele>1695.5999755859375</ele>
        <time>2020-06-23T14:39:08.000Z</time>
        <extensions>
          <ns3:TrackPointExtension>
            <ns3:atemp>24.0</ns3:atemp>
            <ns3:hr>110</ns3:hr>
          </ns3:TrackPointExtension>
        </extensions>
      </trkpt>
      <trkpt lat="47.7516348101198673248291015625" lon="12.25165477953851222991943359375">
        <ele>1696.800048828125</ele>
        <time>2020-06-23T14:39:09.000Z</time>
        <extensions>
          <ns3:TrackPointExtension>
            <ns3:atemp>24.0</ns3:atemp>
            <ns3:hr>111</ns3:hr>
          </ns3:TrackPointExtension>
        </extensions>
      </trkpt>
      <trkpt lat="47.75165073573589324951171875" lon="12.2516848705708980560302734375">
        <ele>1698.4000244140625</ele>
        <time>2020-06-23T14:39:10.000Z</time>
        <extensions>
          <ns3:TrackPointExtension>
            <ns3:atemp>24.0</ns3:atemp>
            <ns3:hr>111</ns3:hr>
          </ns3:TrackPointExtension>
        </extensions>
      </trkpt>
      <trkpt lat="47.75165484286844730377197265625" lon="12.25171362049877643585205078125">
        <ele>1700.199951171875</ele>
        <time>2020-06-23T14:39:11.000Z</time>
        <extensions>
          <ns3:TrackPointExtension>
            <ns3:atemp>24.0</ns3:atemp>
            <ns3:hr>107</ns3:hr>
          </ns3:TrackPointExtension>
        </extensions>
      </trkpt>
      <trkpt lat="47.75165341794490814208984375" lon="12.25173792801797389984130859375">
        <ele>1702</ele>
        <time>2020-06-23T14:39:12.000Z</time>
        <extensions>
          <ns3:TrackPointExtension>
            <ns3:atemp>24.0</ns3:atemp>
            <ns3:hr>108</ns3:hr>
          </ns3:TrackPointExtension>
        </extensions>
      </trkpt>
      <trkpt lat="47.75165341794490814208984375" lon="12.25176139734685420989990234375">
        <ele>1703.4000244140625</ele>
        <time>2020-06-23T14:39:13.000Z</time>
        <extensions>
          <ns3:TrackPointExtension>
            <ns3:atemp>24.0</ns3:atemp>
            <ns3:hr>106</ns3:hr>
          </ns3:TrackPointExtension>
        </extensions>
      </trkpt>
      <trkpt lat="47.75167479179799556732177734375" lon="12.251843623816967010498046875">
        <ele>1704.199951171875</ele>
        <time>2020-06-23T14:39:15.000Z</time>
        <extensions>
          <ns3:TrackPointExtension>
            <ns3:atemp>24.0</ns3:atemp>
            <ns3:hr>104</ns3:hr>
          </ns3:TrackPointExtension>
        </extensions>
      </trkpt>
      <trkpt lat="47.75168669410049915313720703125" lon="12.251887880265712738037109375">
        <ele>1704.4000244140625</ele>
        <time>2020-06-23T14:39:16.000Z</time>
        <extensions>
          <ns3:TrackPointExtension>
            <ns3:atemp>24.0</ns3:atemp>
            <ns3:hr>105</ns3:hr>
          </ns3:TrackPointExtension>
        </extensions>
      </trkpt>
      <trkpt lat="47.75169574655592441558837890625" lon="12.251911349594593048095703125">
        <ele>1704</ele>
        <time>2020-06-23T14:39:17.000Z</time>
        <extensions>
          <ns3:TrackPointExtension>
            <ns3:atemp>24.0</ns3:atemp>
            <ns3:hr>106</ns3:hr>
          </ns3:TrackPointExtension>
        </extensions>
      </trkpt>
      <trkpt lat="47.7517075650393962860107421875" lon="12.25191310979425907135009765625">
        <ele>1703.5999755859375</ele>
        <time>2020-06-23T14:39:18.000Z</time>
        <extensions>
          <ns3:TrackPointExtension>
            <ns3:atemp>24.0</ns3:atemp>
            <ns3:hr>107</ns3:hr>
          </ns3:TrackPointExtension>
        </extensions>
      </trkpt>
      <trkpt lat="47.75172692723572254180908203125" lon="12.25191009230911731719970703125">
        <ele>1703.199951171875</ele>
        <time>2020-06-23T14:39:19.000Z</time>
        <extensions>
          <ns3:TrackPointExtension>
            <ns3:atemp>24.0</ns3:atemp>
            <ns3:hr>107</ns3:hr>
          </ns3:TrackPointExtension>
        </extensions>
      </trkpt>
      <trkpt lat="47.751755677163600921630859375" lon="12.25191771984100341796875">
        <ele>1702.800048828125</ele>
        <time>2020-06-23T14:39:20.000Z</time>
        <extensions>
          <ns3:TrackPointExtension>
            <ns3:atemp>24.0</ns3:atemp>
            <ns3:hr>108</ns3:hr>
          </ns3:TrackPointExtension>
        </extensions>
      </trkpt>
      <trkpt lat="47.75178845040500164031982421875" lon="12.25193657912313938140869140625">
        <ele>1702.199951171875</ele>
        <time>2020-06-23T14:39:21.000Z</time>
        <extensions>
          <ns3:TrackPointExtension>
            <ns3:atemp>24.0</ns3:atemp>
            <ns3:hr>108</ns3:hr>
          </ns3:TrackPointExtension>
        </extensions>
      </trkpt>
      <trkpt lat="47.7518498897552490234375" lon="12.25197077728807926177978515625">
        <ele>1700.4000244140625</ele>
        <time>2020-06-23T14:39:23.000Z</time>
        <extensions>
          <ns3:TrackPointExtension>
            <ns3:atemp>24.0</ns3:atemp>
            <ns3:hr>108</ns3:hr>
          </ns3:TrackPointExtension>
        </extensions>
      </trkpt>
      <trkpt lat="47.751873023808002471923828125" lon="12.25198737345635890960693359375">
        <ele>1699.800048828125</ele>
        <time>2020-06-23T14:39:24.000Z</time>
        <extensions>
          <ns3:TrackPointExtension>
            <ns3:atemp>24.0</ns3:atemp>
            <ns3:hr>109</ns3:hr>
          </ns3:TrackPointExtension>
        </extensions>
      </trkpt>
      <trkpt lat="47.75189070962369441986083984375" lon="12.25201671011745929718017578125">
        <ele>1699.4000244140625</ele>
        <time>2020-06-23T14:39:25.000Z</time>
        <extensions>
          <ns3:TrackPointExtension>
            <ns3:atemp>24.0</ns3:atemp>
            <ns3:hr>110</ns3:hr>
          </ns3:TrackPointExtension>
        </extensions>
      </trkpt>
      <trkpt lat="47.75190914981067180633544921875" lon="12.25205878727138042449951171875">
        <ele>1699.199951171875</ele>
        <time>2020-06-23T14:39:26.000Z</time>
        <extensions>
          <ns3:TrackPointExtension>
            <ns3:atemp>24.0</ns3:atemp>
            <ns3:hr>111</ns3:hr>
          </ns3:TrackPointExtension>
        </extensions>
      </trkpt>
      <trkpt lat="47.751933038234710693359375" lon="12.252108491957187652587890625">
        <ele>1698.5999755859375</ele>
        <time>2020-06-23T14:39:27.000Z</time>
        <extensions>
          <ns3:TrackPointExtension>
            <ns3:atemp>24.0</ns3:atemp>
            <ns3:hr>111</ns3:hr>
          </ns3:TrackPointExtension>
        </extensions>
      </trkpt>
      <trkpt lat="47.7519613690674304962158203125" lon="12.25216020829975605010986328125">
        <ele>1698</ele>
        <time>2020-06-23T14:39:28.000Z</time>
        <extensions>
          <ns3:TrackPointExtension>
            <ns3:atemp>24.0</ns3:atemp>
            <ns3:hr>112</ns3:hr>
          </ns3:TrackPointExtension>
        </extensions>
      </trkpt>
      <trkpt lat="47.75198492221534252166748046875" lon="12.2522152774035930633544921875">
        <ele>1697.199951171875</ele>
        <time>2020-06-23T14:39:29.000Z</time>
        <extensions>
          <ns3:TrackPointExtension>
            <ns3:atemp>24.0</ns3:atemp>
            <ns3:hr>111</ns3:hr>
          </ns3:TrackPointExtension>
        </extensions>
      </trkpt>
      <trkpt lat="47.75199715979397296905517578125" lon="12.25227856077253818511962890625">
        <ele>1696</ele>
        <time>2020-06-23T14:39:30.000Z</time>
        <extensions>
          <ns3:TrackPointExtension>
            <ns3:atemp>24.0</ns3:atemp>
            <ns3:hr>110</ns3:hr>
          </ns3:TrackPointExtension>
        </extensions>
      </trkpt>
      <trkpt lat="47.7520012669265270233154296875" lon="12.2523453645408153533935546875">
        <ele>1695.199951171875</ele>
        <time>2020-06-23T14:39:31.000Z</time>
        <extensions>
          <ns3:TrackPointExtension>
            <ns3:atemp>24.0</ns3:atemp>
            <ns3:hr>110</ns3:hr>
          </ns3:TrackPointExtension>
        </extensions>
      </trkpt>
      <trkpt lat="47.7520052902400493621826171875" lon="12.25240294821560382843017578125">
        <ele>1694.4000244140625</ele>
        <time>2020-06-23T14:39:32.000Z</time>
        <extensions>
          <ns3:TrackPointExtension>
            <ns3:atemp>24.0</ns3:atemp>
            <ns3:hr>109</ns3:hr>
          </ns3:TrackPointExtension>
        </extensions>
      </trkpt>
      <trkpt lat="47.75203269906342029571533203125" lon="12.25248844362795352935791015625">
        <ele>1692.199951171875</ele>
        <time>2020-06-23T14:39:34.000Z</time>
        <extensions>
          <ns3:TrackPointExtension>
            <ns3:atemp>24.0</ns3:atemp>
            <ns3:hr>109</ns3:hr>
          </ns3:TrackPointExtension>
        </extensions>
      </trkpt>
      <trkpt lat="47.75205172598361968994140625" lon="12.2525307722389698028564453125">
        <ele>1690.5999755859375</ele>
        <time>2020-06-23T14:39:35.000Z</time>
        <extensions>
          <ns3:TrackPointExtension>
            <ns3:atemp>24.0</ns3:atemp>
            <ns3:hr>109</ns3:hr>
          </ns3:TrackPointExtension>
        </extensions>
      </trkpt>
      <trkpt lat="47.75207318365573883056640625" lon="12.252567149698734283447265625">
        <ele>1688.800048828125</ele>
        <time>2020-06-23T14:39:36.000Z</time>
        <extensions>
          <ns3:TrackPointExtension>
            <ns3:atemp>24.0</ns3:atemp>
            <ns3:hr>108</ns3:hr>
          </ns3:TrackPointExtension>
        </extensions>
      </trkpt>
      <trkpt lat="47.7521006762981414794921875" lon="12.25259304977953433990478515625">
        <ele>1687.4000244140625</ele>
        <time>2020-06-23T14:39:37.000Z</time>
        <extensions>
          <ns3:TrackPointExtension>
            <ns3:atemp>24.0</ns3:atemp>
            <ns3:hr>108</ns3:hr>
          </ns3:TrackPointExtension>
        </extensions>
      </trkpt>
      <trkpt lat="47.7521357126533985137939453125" lon="12.25261216051876544952392578125">
        <ele>1686.199951171875</ele>
        <time>2020-06-23T14:39:38.000Z</time>
        <extensions>
          <ns3:TrackPointExtension>
            <ns3:atemp>24.0</ns3:atemp>
            <ns3:hr>108</ns3:hr>
          </ns3:TrackPointExtension>
        </extensions>
      </trkpt>
      <trkpt lat="47.75219262577593326568603515625" lon="12.25268173031508922576904296875">
        <ele>1684.4000244140625</ele>
        <time>2020-06-23T14:39:40.000Z</time>
        <extensions>
          <ns3:TrackPointExtension>
            <ns3:atemp>24.0</ns3:atemp>
            <ns3:hr>107</ns3:hr>
          </ns3:TrackPointExtension>
        </extensions>
      </trkpt>
      <trkpt lat="47.752225063741207122802734375" lon="12.25281248800456523895263671875">
        <ele>1682.4000244140625</ele>
        <time>2020-06-23T14:39:42.000Z</time>
        <extensions>
          <ns3:TrackPointExtension>
            <ns3:atemp>24.0</ns3:atemp>
            <ns3:hr>107</ns3:hr>
          </ns3:TrackPointExtension>
        </extensions>
      </trkpt>
      <trkpt lat="47.752255909144878387451171875" lon="12.25296336226165294647216796875">
        <ele>1680.5999755859375</ele>
        <time>2020-06-23T14:39:44.000Z</time>
        <extensions>
          <ns3:TrackPointExtension>
            <ns3:atemp>24.0</ns3:atemp>
            <ns3:hr>107</ns3:hr>
          </ns3:TrackPointExtension>
        </extensions>
      </trkpt>
      <trkpt lat="47.75226001627743244171142578125" lon="12.25312060676515102386474609375">
        <ele>1679</ele>
        <time>2020-06-23T14:39:46.000Z</time>
        <extensions>
          <ns3:TrackPointExtension>
            <ns3:atemp>24.0</ns3:atemp>
            <ns3:hr>107</ns3:hr>
          </ns3:TrackPointExtension>
        </extensions>
      </trkpt>
      <trkpt lat="47.7522647939622402191162109375" lon="12.2531957924365997314453125">
        <ele>1678.5999755859375</ele>
        <time>2020-06-23T14:39:47.000Z</time>
        <extensions>
          <ns3:TrackPointExtension>
            <ns3:atemp>24.0</ns3:atemp>
            <ns3:hr>107</ns3:hr>
          </ns3:TrackPointExtension>
        </extensions>
      </trkpt>
      <trkpt lat="47.7522805519402027130126953125" lon="12.25326276384294033050537109375">
        <ele>1678.199951171875</ele>
        <time>2020-06-23T14:39:48.000Z</time>
        <extensions>
          <ns3:TrackPointExtension>
            <ns3:atemp>24.0</ns3:atemp>
            <ns3:hr>107</ns3:hr>
          </ns3:TrackPointExtension>
        </extensions>
      </trkpt>
      <trkpt lat="47.75230276398360729217529296875" lon="12.25332244299352169036865234375">
        <ele>1677.800048828125</ele>
        <time>2020-06-23T14:39:49.000Z</time>
        <extensions>
          <ns3:TrackPointExtension>
            <ns3:atemp>24.0</ns3:atemp>
            <ns3:hr>108</ns3:hr>
          </ns3:TrackPointExtension>
        </extensions>
      </trkpt>
      <trkpt lat="47.75233679451048374176025390625" lon="12.25345739163458347320556640625">
        <ele>1677</ele>
        <time>2020-06-23T14:39:51.000Z</time>
        <extensions>
          <ns3:TrackPointExtension>
            <ns3:atemp>24.0</ns3:atemp>
            <ns3:hr>108</ns3:hr>
          </ns3:TrackPointExtension>
        </extensions>
      </trkpt>
      <trkpt lat="47.7523452602326869964599609375" lon="12.25352427922189235687255859375">
        <ele>1676.4000244140625</ele>
        <time>2020-06-23T14:39:52.000Z</time>
        <extensions>
          <ns3:TrackPointExtension>
            <ns3:atemp>24.0</ns3:atemp>
            <ns3:hr>108</ns3:hr>
          </ns3:TrackPointExtension>
        </extensions>
      </trkpt>
      <trkpt lat="47.75237669236958026885986328125" lon="12.25361513905227184295654296875">
        <ele>1675.5999755859375</ele>
        <time>2020-06-23T14:39:54.000Z</time>
        <extensions>
          <ns3:TrackPointExtension>
            <ns3:atemp>24.0</ns3:atemp>
            <ns3:hr>107</ns3:hr>
          </ns3:TrackPointExtension>
        </extensions>
      </trkpt>
      <trkpt lat="47.7523992396891117095947265625" lon="12.2536650113761425018310546875">
        <ele>1675.199951171875</ele>
        <time>2020-06-23T14:39:55.000Z</time>
        <extensions>
          <ns3:TrackPointExtension>
            <ns3:atemp>24.0</ns3:atemp>
            <ns3:hr>106</ns3:hr>
          </ns3:TrackPointExtension>
        </extensions>
      </trkpt>
      <trkpt lat="47.75245045311748981475830078125" lon="12.25387581624090671539306640625">
        <ele>1673.800048828125</ele>
        <time>2020-06-23T14:39:58.000Z</time>
        <extensions>
          <ns3:TrackPointExtension>
            <ns3:atemp>24.0</ns3:atemp>
            <ns3:hr>105</ns3:hr>
          </ns3:TrackPointExtension>
        </extensions>
      </trkpt>
      <trkpt lat="47.75250694714486598968505859375" lon="12.2539754770696163177490234375">
        <ele>1672</ele>
        <time>2020-06-23T14:40:00.000Z</time>
        <extensions>
          <ns3:TrackPointExtension>
            <ns3:atemp>24.0</ns3:atemp>
            <ns3:hr>105</ns3:hr>
          </ns3:TrackPointExtension>
        </extensions>
      </trkpt>
      <trkpt lat="47.75253854691982269287109375" lon="12.25401998497545719146728515625">
        <ele>1671</ele>
        <time>2020-06-23T14:40:01.000Z</time>
        <extensions>
          <ns3:TrackPointExtension>
            <ns3:atemp>24.0</ns3:atemp>
            <ns3:hr>105</ns3:hr>
          </ns3:TrackPointExtension>
        </extensions>
      </trkpt>
      <trkpt lat="47.7525692246854305267333984375" lon="12.2540599666535854339599609375">
        <ele>1669.5999755859375</ele>
        <time>2020-06-23T14:40:02.000Z</time>
        <extensions>
          <ns3:TrackPointExtension>
            <ns3:atemp>24.0</ns3:atemp>
            <ns3:hr>105</ns3:hr>
          </ns3:TrackPointExtension>
        </extensions>
      </trkpt>
      <trkpt lat="47.75260099209845066070556640625" lon="12.2540814243257045745849609375">
        <ele>1668.4000244140625</ele>
        <time>2020-06-23T14:40:03.000Z</time>
        <extensions>
          <ns3:TrackPointExtension>
            <ns3:atemp>24.0</ns3:atemp>
            <ns3:hr>105</ns3:hr>
          </ns3:TrackPointExtension>
        </extensions>
      </trkpt>
      <trkpt lat="47.75263485498726367950439453125" lon="12.25408293306827545166015625">
        <ele>1667.4000244140625</ele>
        <time>2020-06-23T14:40:04.000Z</time>
        <extensions>
          <ns3:TrackPointExtension>
            <ns3:atemp>24.0</ns3:atemp>
            <ns3:hr>106</ns3:hr>
          </ns3:TrackPointExtension>
        </extensions>
      </trkpt>
      <trkpt lat="47.7526694722473621368408203125" lon="12.25407086312770843505859375">
        <ele>1666.800048828125</ele>
        <time>2020-06-23T14:40:05.000Z</time>
        <extensions>
          <ns3:TrackPointExtension>
            <ns3:atemp>24.0</ns3:atemp>
            <ns3:hr>106</ns3:hr>
          </ns3:TrackPointExtension>
        </extensions>
      </trkpt>
      <trkpt lat="47.7527532912790775299072265625" lon="12.2540505789220333099365234375">
        <ele>1665.199951171875</ele>
        <time>2020-06-23T14:40:08.000Z</time>
        <extensions>
          <ns3:TrackPointExtension>
            <ns3:atemp>24.0</ns3:atemp>
            <ns3:hr>108</ns3:hr>
          </ns3:TrackPointExtension>
        </extensions>
      </trkpt>
      <trkpt lat="47.75277860462665557861328125" lon="12.2540723718702793121337890625">
        <ele>1664.800048828125</ele>
        <time>2020-06-23T14:40:09.000Z</time>
        <extensions>
          <ns3:TrackPointExtension>
            <ns3:atemp>24.0</ns3:atemp>
            <ns3:hr>108</ns3:hr>
          </ns3:TrackPointExtension>
        </extensions>
      </trkpt>
      <trkpt lat="47.75280349887907505035400390625" lon="12.2541139461100101470947265625">
        <ele>1664.199951171875</ele>
        <time>2020-06-23T14:40:10.000Z</time>
        <extensions>
          <ns3:TrackPointExtension>
            <ns3:atemp>24.0</ns3:atemp>
            <ns3:hr>108</ns3:hr>
          </ns3:TrackPointExtension>
        </extensions>
      </trkpt>
      <trkpt lat="47.7528501860797405242919921875" lon="12.25423355586826801300048828125">
        <ele>1663</ele>
        <time>2020-06-23T14:40:12.000Z</time>
        <extensions>
          <ns3:TrackPointExtension>
            <ns3:atemp>24.0</ns3:atemp>
            <ns3:hr>106</ns3:hr>
          </ns3:TrackPointExtension>
        </extensions>
      </trkpt>
      <trkpt lat="47.75286711752414703369140625" lon="12.25428753532469272613525390625">
        <ele>1662.199951171875</ele>
        <time>2020-06-23T14:40:13.000Z</time>
        <extensions>
          <ns3:TrackPointExtension>
            <ns3:atemp>24.0</ns3:atemp>
            <ns3:hr>106</ns3:hr>
          </ns3:TrackPointExtension>
        </extensions>
      </trkpt>
      <trkpt lat="47.75287960655987262725830078125" lon="12.25433380343019962310791015625">
        <ele>1661</ele>
        <time>2020-06-23T14:40:14.000Z</time>
        <extensions>
          <ns3:TrackPointExtension>
            <ns3:atemp>24.0</ns3:atemp>
            <ns3:hr>105</ns3:hr>
          </ns3:TrackPointExtension>
        </extensions>
      </trkpt>
      <trkpt lat="47.7528937719762325286865234375" lon="12.25437487475574016571044921875">
        <ele>1659.4000244140625</ele>
        <time>2020-06-23T14:40:15.000Z</time>
        <extensions>
          <ns3:TrackPointExtension>
            <ns3:atemp>24.0</ns3:atemp>
            <ns3:hr>105</ns3:hr>
          </ns3:TrackPointExtension>
        </extensions>
      </trkpt>
      <trkpt lat="47.75291430763900279998779296875" lon="12.25440253503620624542236328125">
        <ele>1657.5999755859375</ele>
        <time>2020-06-23T14:40:16.000Z</time>
        <extensions>
          <ns3:TrackPointExtension>
            <ns3:atemp>24.0</ns3:atemp>
            <ns3:hr>105</ns3:hr>
          </ns3:TrackPointExtension>
        </extensions>
      </trkpt>
      <trkpt lat="47.75293626822531223297119140625" lon="12.254393398761749267578125">
        <ele>1656.199951171875</ele>
        <time>2020-06-23T14:40:17.000Z</time>
        <extensions>
          <ns3:TrackPointExtension>
            <ns3:atemp>24.0</ns3:atemp>
            <ns3:hr>106</ns3:hr>
          </ns3:TrackPointExtension>
        </extensions>
      </trkpt>
      <trkpt lat="47.75295085273683071136474609375" lon="12.25433103740215301513671875">
        <ele>1654.800048828125</ele>
        <time>2020-06-23T14:40:18.000Z</time>
        <extensions>
          <ns3:TrackPointExtension>
            <ns3:atemp>24.0</ns3:atemp>
            <ns3:hr>107</ns3:hr>
          </ns3:TrackPointExtension>
        </extensions>
      </trkpt>
      <trkpt lat="47.752951271831989288330078125" lon="12.2542177140712738037109375">
        <ele>1653.4000244140625</ele>
        <time>2020-06-23T14:40:19.000Z</time>
        <extensions>
          <ns3:TrackPointExtension>
            <ns3:atemp>24.0</ns3:atemp>
            <ns3:hr>107</ns3:hr>
          </ns3:TrackPointExtension>
        </extensions>
      </trkpt>
      <trkpt lat="47.7529303170740604400634765625" lon="12.2540706954896450042724609375">
        <ele>1651.800048828125</ele>
        <time>2020-06-23T14:40:20.000Z</time>
        <extensions>
          <ns3:TrackPointExtension>
            <ns3:atemp>24.0</ns3:atemp>
            <ns3:hr>106</ns3:hr>
          </ns3:TrackPointExtension>
        </extensions>
      </trkpt>
      <trkpt lat="47.752880863845348358154296875" lon="12.25391755811870098114013671875">
        <ele>1649.800048828125</ele>
        <time>2020-06-23T14:40:21.000Z</time>
        <extensions>
          <ns3:TrackPointExtension>
            <ns3:atemp>24.0</ns3:atemp>
            <ns3:hr>106</ns3:hr>
          </ns3:TrackPointExtension>
        </extensions>
      </trkpt>
      <trkpt lat="47.7528190053999423980712890625" lon="12.25376567803323268890380859375">
        <ele>1647.5999755859375</ele>
        <time>2020-06-23T14:40:22.000Z</time>
        <extensions>
          <ns3:TrackPointExtension>
            <ns3:atemp>24.0</ns3:atemp>
            <ns3:hr>105</ns3:hr>
          </ns3:TrackPointExtension>
        </extensions>
      </trkpt>
      <trkpt lat="47.75275220163166522979736328125" lon="12.2536224313080310821533203125">
        <ele>1646.199951171875</ele>
        <time>2020-06-23T14:40:23.000Z</time>
        <extensions>
          <ns3:TrackPointExtension>
            <ns3:atemp>24.0</ns3:atemp>
            <ns3:hr>105</ns3:hr>
          </ns3:TrackPointExtension>
        </extensions>
      </trkpt>
      <trkpt lat="47.75269201956689357757568359375" lon="12.25349343381822109222412109375">
        <ele>1645.5999755859375</ele>
        <time>2020-06-23T14:40:24.000Z</time>
        <extensions>
          <ns3:TrackPointExtension>
            <ns3:atemp>24.0</ns3:atemp>
            <ns3:hr>105</ns3:hr>
          </ns3:TrackPointExtension>
        </extensions>
      </trkpt>
      <trkpt lat="47.75264072231948375701904296875" lon="12.253379859030246734619140625">
        <ele>1645.199951171875</ele>
        <time>2020-06-23T14:40:25.000Z</time>
        <extensions>
          <ns3:TrackPointExtension>
            <ns3:atemp>24.0</ns3:atemp>
            <ns3:hr>105</ns3:hr>
          </ns3:TrackPointExtension>
        </extensions>
      </trkpt>
      <trkpt lat="47.75252974592149257659912109375" lon="12.25314415991306304931640625">
        <ele>1646.4000244140625</ele>
        <time>2020-06-23T14:40:27.000Z</time>
        <extensions>
          <ns3:TrackPointExtension>
            <ns3:atemp>24.0</ns3:atemp>
            <ns3:hr>104</ns3:hr>
          </ns3:TrackPointExtension>
        </extensions>
      </trkpt>
      <trkpt lat="47.75246319361031055450439453125" lon="12.25300845690071582794189453125">
        <ele>1647.5999755859375</ele>
        <time>2020-06-23T14:40:28.000Z</time>
        <extensions>
          <ns3:TrackPointExtension>
            <ns3:atemp>24.0</ns3:atemp>
            <ns3:hr>104</ns3:hr>
          </ns3:TrackPointExtension>
        </extensions>
      </trkpt>
      <trkpt lat="47.75234802626073360443115234375" lon="12.25272984243929386138916015625">
        <ele>1649</ele>
        <time>2020-06-23T14:40:30.000Z</time>
        <extensions>
          <ns3:TrackPointExtension>
            <ns3:atemp>24.0</ns3:atemp>
            <ns3:hr>105</ns3:hr>
          </ns3:TrackPointExtension>
        </extensions>
      </trkpt>
      <trkpt lat="47.75230527855455875396728515625" lon="12.2525988332927227020263671875">
        <ele>1649.4000244140625</ele>
        <time>2020-06-23T14:40:31.000Z</time>
        <extensions>
          <ns3:TrackPointExtension>
            <ns3:atemp>24.0</ns3:atemp>
            <ns3:hr>106</ns3:hr>
          </ns3:TrackPointExtension>
        </extensions>
      </trkpt>
      <trkpt lat="47.75226990692317485809326171875" lon="12.25246882997453212738037109375">
        <ele>1650</ele>
        <time>2020-06-23T14:40:32.000Z</time>
        <extensions>
          <ns3:TrackPointExtension>
            <ns3:atemp>24.0</ns3:atemp>
            <ns3:hr>106</ns3:hr>
          </ns3:TrackPointExtension>
        </extensions>
      </trkpt>
      <trkpt lat="47.75221534073352813720703125" lon="12.25220127962529659271240234375">
        <ele>1651.800048828125</ele>
        <time>2020-06-23T14:40:34.000Z</time>
        <extensions>
          <ns3:TrackPointExtension>
            <ns3:atemp>24.0</ns3:atemp>
            <ns3:hr>107</ns3:hr>
          </ns3:TrackPointExtension>
        </extensions>
      </trkpt>
      <trkpt lat="47.75219497270882129669189453125" lon="12.2520719468593597412109375">
        <ele>1652.5999755859375</ele>
        <time>2020-06-23T14:40:35.000Z</time>
        <extensions>
          <ns3:TrackPointExtension>
            <ns3:atemp>24.0</ns3:atemp>
            <ns3:hr>107</ns3:hr>
          </ns3:TrackPointExtension>
        </extensions>
      </trkpt>
      <trkpt lat="47.75217183865606784820556640625" lon="12.251944877207279205322265625">
        <ele>1653.199951171875</ele>
        <time>2020-06-23T14:40:36.000Z</time>
        <extensions>
          <ns3:TrackPointExtension>
            <ns3:atemp>24.0</ns3:atemp>
            <ns3:hr>107</ns3:hr>
          </ns3:TrackPointExtension>
        </extensions>
      </trkpt>
      <trkpt lat="47.7521414123475551605224609375" lon="12.25181889720261096954345703125">
        <ele>1653.800048828125</ele>
        <time>2020-06-23T14:40:37.000Z</time>
        <extensions>
          <ns3:TrackPointExtension>
            <ns3:atemp>24.0</ns3:atemp>
            <ns3:hr>107</ns3:hr>
          </ns3:TrackPointExtension>
        </extensions>
      </trkpt>
      <trkpt lat="47.7520575933158397674560546875" lon="12.251543216407299041748046875">
        <ele>1654.4000244140625</ele>
        <time>2020-06-23T14:40:39.000Z</time>
        <extensions>
          <ns3:TrackPointExtension>
            <ns3:atemp>24.0</ns3:atemp>
            <ns3:hr>107</ns3:hr>
          </ns3:TrackPointExtension>
        </extensions>
      </trkpt>
      <trkpt lat="47.7519734390079975128173828125" lon="12.25129653699696063995361328125">
        <ele>1655.199951171875</ele>
        <time>2020-06-23T14:40:41.000Z</time>
        <extensions>
          <ns3:TrackPointExtension>
            <ns3:atemp>24.0</ns3:atemp>
            <ns3:hr>105</ns3:hr>
          </ns3:TrackPointExtension>
        </extensions>
      </trkpt>
      <trkpt lat="47.75192834436893463134765625" lon="12.25119461305439472198486328125">
        <ele>1656.199951171875</ele>
        <time>2020-06-23T14:40:42.000Z</time>
        <extensions>
          <ns3:TrackPointExtension>
            <ns3:atemp>24.0</ns3:atemp>
            <ns3:hr>108</ns3:hr>
          </ns3:TrackPointExtension>
        </extensions>
      </trkpt>
      <trkpt lat="47.7517414279282093048095703125" lon="12.25080116651952266693115234375">
        <ele>1657.4000244140625</ele>
        <time>2020-06-23T14:40:45.000Z</time>
        <extensions>
          <ns3:TrackPointExtension>
            <ns3:atemp>24.0</ns3:atemp>
            <ns3:hr>108</ns3:hr>
          </ns3:TrackPointExtension>
        </extensions>
      </trkpt>
      <trkpt lat="47.75165484286844730377197265625" lon="12.2506565786898136138916015625">
        <ele>1657.5999755859375</ele>
        <time>2020-06-23T14:40:46.000Z</time>
        <extensions>
          <ns3:TrackPointExtension>
            <ns3:atemp>24.0</ns3:atemp>
            <ns3:hr>107</ns3:hr>
          </ns3:TrackPointExtension>
        </extensions>
      </trkpt>
      <trkpt lat="47.7515010349452495574951171875" lon="12.25043353624641895294189453125">
        <ele>1658.199951171875</ele>
        <time>2020-06-23T14:40:48.000Z</time>
        <extensions>
          <ns3:TrackPointExtension>
            <ns3:atemp>24.0</ns3:atemp>
            <ns3:hr>107</ns3:hr>
          </ns3:TrackPointExtension>
        </extensions>
      </trkpt>
      <trkpt lat="47.75143750011920928955078125" lon="12.250328846275806427001953125">
        <ele>1659.199951171875</ele>
        <time>2020-06-23T14:40:49.000Z</time>
        <extensions>
          <ns3:TrackPointExtension>
            <ns3:atemp>24.0</ns3:atemp>
            <ns3:hr>107</ns3:hr>
          </ns3:TrackPointExtension>
        </extensions>
      </trkpt>
      <trkpt lat="47.75136885233223438262939453125" lon="12.25021460093557834625244140625">
        <ele>1660.800048828125</ele>
        <time>2020-06-23T14:40:50.000Z</time>
        <extensions>
          <ns3:TrackPointExtension>
            <ns3:atemp>24.0</ns3:atemp>
            <ns3:hr>106</ns3:hr>
          </ns3:TrackPointExtension>
        </extensions>
      </trkpt>
      <trkpt lat="47.75128729641437530517578125" lon="12.2500926442444324493408203125">
        <ele>1662.4000244140625</ele>
        <time>2020-06-23T14:40:51.000Z</time>
        <extensions>
          <ns3:TrackPointExtension>
            <ns3:atemp>24.0</ns3:atemp>
            <ns3:hr>106</ns3:hr>
          </ns3:TrackPointExtension>
        </extensions>
      </trkpt>
      <trkpt lat="47.75120104663074016571044921875" lon="12.249968759715557098388671875">
        <ele>1663.4000244140625</ele>
        <time>2020-06-23T14:40:52.000Z</time>
        <extensions>
          <ns3:TrackPointExtension>
            <ns3:atemp>24.0</ns3:atemp>
            <ns3:hr>106</ns3:hr>
          </ns3:TrackPointExtension>
        </extensions>
      </trkpt>
      <trkpt lat="47.75112502276897430419921875" lon="12.24984730593860149383544921875">
        <ele>1664.199951171875</ele>
        <time>2020-06-23T14:40:53.000Z</time>
        <extensions>
          <ns3:TrackPointExtension>
            <ns3:atemp>24.0</ns3:atemp>
            <ns3:hr>106</ns3:hr>
          </ns3:TrackPointExtension>
        </extensions>
      </trkpt>
      <trkpt lat="47.751062996685504913330078125" lon="12.24972425960004329681396484375">
        <ele>1664.800048828125</ele>
        <time>2020-06-23T14:40:54.000Z</time>
        <extensions>
          <ns3:TrackPointExtension>
            <ns3:atemp>24.0</ns3:atemp>
            <ns3:hr>106</ns3:hr>
          </ns3:TrackPointExtension>
        </extensions>
      </trkpt>
      <trkpt lat="47.7510054968297481536865234375" lon="12.249595932662487030029296875">
        <ele>1665.4000244140625</ele>
        <time>2020-06-23T14:40:55.000Z</time>
        <extensions>
          <ns3:TrackPointExtension>
            <ns3:atemp>24.0</ns3:atemp>
            <ns3:hr>106</ns3:hr>
          </ns3:TrackPointExtension>
        </extensions>
      </trkpt>
      <trkpt lat="47.7509419620037078857421875" lon="12.24946307949721813201904296875">
        <ele>1666</ele>
        <time>2020-06-23T14:40:56.000Z</time>
        <extensions>
          <ns3:TrackPointExtension>
            <ns3:atemp>24.0</ns3:atemp>
            <ns3:hr>106</ns3:hr>
          </ns3:TrackPointExtension>
        </extensions>
      </trkpt>
      <trkpt lat="47.7508036606013774871826171875" lon="12.24918681196868419647216796875">
        <ele>1667</ele>
        <time>2020-06-23T14:40:58.000Z</time>
        <extensions>
          <ns3:TrackPointExtension>
            <ns3:atemp>24.0</ns3:atemp>
            <ns3:hr>110</ns3:hr>
          </ns3:TrackPointExtension>
        </extensions>
      </trkpt>
      <trkpt lat="47.75074423290789127349853515625" lon="12.24904934875667095184326171875">
        <ele>1667.199951171875</ele>
        <time>2020-06-23T14:40:59.000Z</time>
        <extensions>
          <ns3:TrackPointExtension>
            <ns3:atemp>24.0</ns3:atemp>
            <ns3:hr>112</ns3:hr>
          </ns3:TrackPointExtension>
        </extensions>
      </trkpt>
      <trkpt lat="47.75062588043510913848876953125" lon="12.24879386834800243377685546875">
        <ele>1667.199951171875</ele>
        <time>2020-06-23T14:41:01.000Z</time>
        <extensions>
          <ns3:TrackPointExtension>
            <ns3:atemp>24.0</ns3:atemp>
            <ns3:hr>111</ns3:hr>
          </ns3:TrackPointExtension>
        </extensions>
      </trkpt>
      <trkpt lat="47.750496380031108856201171875" lon="12.248584739863872528076171875">
        <ele>1667</ele>
        <time>2020-06-23T14:41:03.000Z</time>
        <extensions>
          <ns3:TrackPointExtension>
            <ns3:atemp>24.0</ns3:atemp>
            <ns3:hr>109</ns3:hr>
          </ns3:TrackPointExtension>
        </extensions>
      </trkpt>
      <trkpt lat="47.75034005753695964813232421875" lon="12.248295061290264129638671875">
        <ele>1666.5999755859375</ele>
        <time>2020-06-23T14:41:06.000Z</time>
        <extensions>
          <ns3:TrackPointExtension>
            <ns3:atemp>24.0</ns3:atemp>
            <ns3:hr>108</ns3:hr>
          </ns3:TrackPointExtension>
        </extensions>
      </trkpt>
      <trkpt lat="47.75027350522577762603759765625" lon="12.24819280207157135009765625">
        <ele>1666</ele>
        <time>2020-06-23T14:41:07.000Z</time>
        <extensions>
          <ns3:TrackPointExtension>
            <ns3:atemp>24.0</ns3:atemp>
            <ns3:hr>108</ns3:hr>
          </ns3:TrackPointExtension>
        </extensions>
      </trkpt>
      <trkpt lat="47.750213406980037689208984375" lon="12.2480890341103076934814453125">
        <ele>1664.4000244140625</ele>
        <time>2020-06-23T14:41:08.000Z</time>
        <extensions>
          <ns3:TrackPointExtension>
            <ns3:atemp>24.0</ns3:atemp>
            <ns3:hr>108</ns3:hr>
          </ns3:TrackPointExtension>
        </extensions>
      </trkpt>
      <trkpt lat="47.75018163956701755523681640625" lon="12.247985266149044036865234375">
        <ele>1662.800048828125</ele>
        <time>2020-06-23T14:41:09.000Z</time>
        <extensions>
          <ns3:TrackPointExtension>
            <ns3:atemp>24.0</ns3:atemp>
            <ns3:hr>108</ns3:hr>
          </ns3:TrackPointExtension>
        </extensions>
      </trkpt>
      <trkpt lat="47.75018784217536449432373046875" lon="12.247891388833522796630859375">
        <ele>1661.199951171875</ele>
        <time>2020-06-23T14:41:10.000Z</time>
        <extensions>
          <ns3:TrackPointExtension>
            <ns3:atemp>24.0</ns3:atemp>
            <ns3:hr>108</ns3:hr>
          </ns3:TrackPointExtension>
        </extensions>
      </trkpt>
      <trkpt lat="47.75022170506417751312255859375" lon="12.24782257340848445892333984375">
        <ele>1659.800048828125</ele>
        <time>2020-06-23T14:41:11.000Z</time>
        <extensions>
          <ns3:TrackPointExtension>
            <ns3:atemp>24.0</ns3:atemp>
            <ns3:hr>108</ns3:hr>
          </ns3:TrackPointExtension>
        </extensions>
      </trkpt>
      <trkpt lat="47.75026411749422550201416015625" lon="12.2477906383574008941650390625">
        <ele>1658</ele>
        <time>2020-06-23T14:41:12.000Z</time>
        <extensions>
          <ns3:TrackPointExtension>
            <ns3:atemp>24.0</ns3:atemp>
            <ns3:hr>108</ns3:hr>
          </ns3:TrackPointExtension>
        </extensions>
      </trkpt>
      <trkpt lat="47.75030233897268772125244140625" lon="12.24779558368027210235595703125">
        <ele>1655.800048828125</ele>
        <time>2020-06-23T14:41:13.000Z</time>
        <extensions>
          <ns3:TrackPointExtension>
            <ns3:atemp>24.0</ns3:atemp>
            <ns3:hr>108</ns3:hr>
          </ns3:TrackPointExtension>
        </extensions>
      </trkpt>
      <trkpt lat="47.75033586658537387847900390625" lon="12.24783380515873432159423828125">
        <ele>1653.800048828125</ele>
        <time>2020-06-23T14:41:14.000Z</time>
        <extensions>
          <ns3:TrackPointExtension>
            <ns3:atemp>24.0</ns3:atemp>
            <ns3:hr>108</ns3:hr>
          </ns3:TrackPointExtension>
        </extensions>
      </trkpt>
      <trkpt lat="47.75036604143679141998291015625" lon="12.247900776565074920654296875">
        <ele>1651.800048828125</ele>
        <time>2020-06-23T14:41:15.000Z</time>
        <extensions>
          <ns3:TrackPointExtension>
            <ns3:atemp>24.0</ns3:atemp>
            <ns3:hr>108</ns3:hr>
          </ns3:TrackPointExtension>
        </extensions>
      </trkpt>
      <trkpt lat="47.75039453990757465362548828125" lon="12.24799121730029582977294921875">
        <ele>1649.800048828125</ele>
        <time>2020-06-23T14:41:16.000Z</time>
        <extensions>
          <ns3:TrackPointExtension>
            <ns3:atemp>24.0</ns3:atemp>
            <ns3:hr>108</ns3:hr>
          </ns3:TrackPointExtension>
        </extensions>
      </trkpt>
      <trkpt lat="47.75042069144546985626220703125" lon="12.248091213405132293701171875">
        <ele>1648</ele>
        <time>2020-06-23T14:41:17.000Z</time>
        <extensions>
          <ns3:TrackPointExtension>
            <ns3:atemp>24.0</ns3:atemp>
            <ns3:hr>108</ns3:hr>
          </ns3:TrackPointExtension>
        </extensions>
      </trkpt>
      <trkpt lat="47.7504439093172550201416015625" lon="12.24819053895771503448486328125">
        <ele>1646.199951171875</ele>
        <time>2020-06-23T14:41:18.000Z</time>
        <extensions>
          <ns3:TrackPointExtension>
            <ns3:atemp>24.0</ns3:atemp>
            <ns3:hr>108</ns3:hr>
          </ns3:TrackPointExtension>
        </extensions>
      </trkpt>
      <trkpt lat="47.7504600025713443756103515625" lon="12.24829380400478839874267578125">
        <ele>1644.199951171875</ele>
        <time>2020-06-23T14:41:19.000Z</time>
        <extensions>
          <ns3:TrackPointExtension>
            <ns3:atemp>24.0</ns3:atemp>
            <ns3:hr>109</ns3:hr>
          </ns3:TrackPointExtension>
        </extensions>
      </trkpt>
      <trkpt lat="47.75046109221875667572021484375" lon="12.24840545095503330230712890625">
        <ele>1642.199951171875</ele>
        <time>2020-06-23T14:41:20.000Z</time>
        <extensions>
          <ns3:TrackPointExtension>
            <ns3:atemp>24.0</ns3:atemp>
            <ns3:hr>109</ns3:hr>
          </ns3:TrackPointExtension>
        </extensions>
      </trkpt>
      <trkpt lat="47.7504452504217624664306640625" lon="12.24852849729359149932861328125">
        <ele>1640.4000244140625</ele>
        <time>2020-06-23T14:41:21.000Z</time>
        <extensions>
          <ns3:TrackPointExtension>
            <ns3:atemp>24.0</ns3:atemp>
            <ns3:hr>110</ns3:hr>
          </ns3:TrackPointExtension>
        </extensions>
      </trkpt>
      <trkpt lat="47.75042387656867504119873046875" lon="12.24866084754467010498046875">
        <ele>1638.4000244140625</ele>
        <time>2020-06-23T14:41:22.000Z</time>
        <extensions>
          <ns3:TrackPointExtension>
            <ns3:atemp>24.0</ns3:atemp>
            <ns3:hr>110</ns3:hr>
          </ns3:TrackPointExtension>
        </extensions>
      </trkpt>
      <trkpt lat="47.7504130639135837554931640625" lon="12.24878959357738494873046875">
        <ele>1636.4000244140625</ele>
        <time>2020-06-23T14:41:23.000Z</time>
        <extensions>
          <ns3:TrackPointExtension>
            <ns3:atemp>24.0</ns3:atemp>
            <ns3:hr>110</ns3:hr>
          </ns3:TrackPointExtension>
        </extensions>
      </trkpt>
      <trkpt lat="47.75042052380740642547607421875" lon="12.24891054444015026092529296875">
        <ele>1634.5999755859375</ele>
        <time>2020-06-23T14:41:24.000Z</time>
        <extensions>
          <ns3:TrackPointExtension>
            <ns3:atemp>24.0</ns3:atemp>
            <ns3:hr>109</ns3:hr>
          </ns3:TrackPointExtension>
        </extensions>
      </trkpt>
      <trkpt lat="47.75044105947017669677734375" lon="12.24902487359941005706787109375">
        <ele>1632.800048828125</ele>
        <time>2020-06-23T14:41:25.000Z</time>
        <extensions>
          <ns3:TrackPointExtension>
            <ns3:atemp>24.0</ns3:atemp>
            <ns3:hr>111</ns3:hr>
          </ns3:TrackPointExtension>
        </extensions>
      </trkpt>
      <trkpt lat="47.75046117603778839111328125" lon="12.24913232959806919097900390625">
        <ele>1631.199951171875</ele>
        <time>2020-06-23T14:41:26.000Z</time>
        <extensions>
          <ns3:TrackPointExtension>
            <ns3:atemp>24.0</ns3:atemp>
            <ns3:hr>109</ns3:hr>
          </ns3:TrackPointExtension>
        </extensions>
      </trkpt>
      <trkpt lat="47.75047634728252887725830078125" lon="12.249232828617095947265625">
        <ele>1629.800048828125</ele>
        <time>2020-06-23T14:41:27.000Z</time>
        <extensions>
          <ns3:TrackPointExtension>
            <ns3:atemp>24.0</ns3:atemp>
            <ns3:hr>111</ns3:hr>
          </ns3:TrackPointExtension>
        </extensions>
      </trkpt>
      <trkpt lat="47.7505112998187541961669921875" lon="12.2493945993483066558837890625">
        <ele>1628.4000244140625</ele>
        <time>2020-06-23T14:41:29.000Z</time>
        <extensions>
          <ns3:TrackPointExtension>
            <ns3:atemp>24.0</ns3:atemp>
            <ns3:hr>110</ns3:hr>
          </ns3:TrackPointExtension>
        </extensions>
      </trkpt>
      <trkpt lat="47.7506380341947078704833984375" lon="12.24962552078068256378173828125">
        <ele>1627</ele>
        <time>2020-06-23T14:41:32.000Z</time>
        <extensions>
          <ns3:TrackPointExtension>
            <ns3:atemp>24.0</ns3:atemp>
            <ns3:hr>110</ns3:hr>
          </ns3:TrackPointExtension>
        </extensions>
      </trkpt>
      <trkpt lat="47.75068522430956363677978515625" lon="12.24968670867383480072021484375">
        <ele>1626.199951171875</ele>
        <time>2020-06-23T14:41:33.000Z</time>
        <extensions>
          <ns3:TrackPointExtension>
            <ns3:atemp>24.0</ns3:atemp>
            <ns3:hr>110</ns3:hr>
          </ns3:TrackPointExtension>
        </extensions>
      </trkpt>
      <trkpt lat="47.75073082186281681060791015625" lon="12.249733395874500274658203125">
        <ele>1625.4000244140625</ele>
        <time>2020-06-23T14:41:34.000Z</time>
        <extensions>
          <ns3:TrackPointExtension>
            <ns3:atemp>24.0</ns3:atemp>
            <ns3:hr>110</ns3:hr>
          </ns3:TrackPointExtension>
        </extensions>
      </trkpt>
      <trkpt lat="47.75082620792090892791748046875" lon="12.24983255378901958465576171875">
        <ele>1624.4000244140625</ele>
        <time>2020-06-23T14:41:36.000Z</time>
        <extensions>
          <ns3:TrackPointExtension>
            <ns3:atemp>24.0</ns3:atemp>
            <ns3:hr>110</ns3:hr>
          </ns3:TrackPointExtension>
        </extensions>
      </trkpt>
      <trkpt lat="47.750876583158969879150390625" lon="12.2499038837850093841552734375">
        <ele>1624</ele>
        <time>2020-06-23T14:41:37.000Z</time>
        <extensions>
          <ns3:TrackPointExtension>
            <ns3:atemp>24.0</ns3:atemp>
            <ns3:hr>110</ns3:hr>
          </ns3:TrackPointExtension>
        </extensions>
      </trkpt>
      <trkpt lat="47.75101563893258571624755859375" lon="12.25012642331421375274658203125">
        <ele>1622.4000244140625</ele>
        <time>2020-06-23T14:41:40.000Z</time>
        <extensions>
          <ns3:TrackPointExtension>
            <ns3:atemp>24.0</ns3:atemp>
            <ns3:hr>109</ns3:hr>
          </ns3:TrackPointExtension>
        </extensions>
      </trkpt>
      <trkpt lat="47.7510534413158893585205078125" lon="12.25020873360335826873779296875">
        <ele>1622.199951171875</ele>
        <time>2020-06-23T14:41:41.000Z</time>
        <extensions>
          <ns3:TrackPointExtension>
            <ns3:atemp>24.0</ns3:atemp>
            <ns3:hr>109</ns3:hr>
          </ns3:TrackPointExtension>
        </extensions>
      </trkpt>
      <trkpt lat="47.7511538565158843994140625" lon="12.25050277076661586761474609375">
        <ele>1621.199951171875</ele>
        <time>2020-06-23T14:41:44.000Z</time>
        <extensions>
          <ns3:TrackPointExtension>
            <ns3:atemp>24.0</ns3:atemp>
            <ns3:hr>110</ns3:hr>
          </ns3:TrackPointExtension>
        </extensions>
      </trkpt>
      <trkpt lat="47.75122384540736675262451171875" lon="12.25065548904240131378173828125">
        <ele>1619.800048828125</ele>
        <time>2020-06-23T14:41:46.000Z</time>
        <extensions>
          <ns3:TrackPointExtension>
            <ns3:atemp>24.0</ns3:atemp>
            <ns3:hr>109</ns3:hr>
          </ns3:TrackPointExtension>
        </extensions>
      </trkpt>
      <trkpt lat="47.75125167332589626312255859375" lon="12.25072346627712249755859375">
        <ele>1619.4000244140625</ele>
        <time>2020-06-23T14:41:47.000Z</time>
        <extensions>
          <ns3:TrackPointExtension>
            <ns3:atemp>24.0</ns3:atemp>
            <ns3:hr>110</ns3:hr>
          </ns3:TrackPointExtension>
        </extensions>
      </trkpt>
      <trkpt lat="47.751278579235076904296875" lon="12.25079462863504886627197265625">
        <ele>1619</ele>
        <time>2020-06-23T14:41:48.000Z</time>
        <extensions>
          <ns3:TrackPointExtension>
            <ns3:atemp>24.0</ns3:atemp>
            <ns3:hr>111</ns3:hr>
          </ns3:TrackPointExtension>
        </extensions>
      </trkpt>
      <trkpt lat="47.7513119392096996307373046875" lon="12.25086486898362636566162109375">
        <ele>1618.5999755859375</ele>
        <time>2020-06-23T14:41:49.000Z</time>
        <extensions>
          <ns3:TrackPointExtension>
            <ns3:atemp>24.0</ns3:atemp>
            <ns3:hr>112</ns3:hr>
          </ns3:TrackPointExtension>
        </extensions>
      </trkpt>
      <trkpt lat="47.7513907290995121002197265625" lon="12.2509908489882946014404296875">
        <ele>1616.800048828125</ele>
        <time>2020-06-23T14:41:51.000Z</time>
        <extensions>
          <ns3:TrackPointExtension>
            <ns3:atemp>24.0</ns3:atemp>
            <ns3:hr>112</ns3:hr>
          </ns3:TrackPointExtension>
        </extensions>
      </trkpt>
      <trkpt lat="47.75142350234091281890869140625" lon="12.2510562278330326080322265625">
        <ele>1615.4000244140625</ele>
        <time>2020-06-23T14:41:52.000Z</time>
        <extensions>
          <ns3:TrackPointExtension>
            <ns3:atemp>24.0</ns3:atemp>
            <ns3:hr>111</ns3:hr>
          </ns3:TrackPointExtension>
        </extensions>
      </trkpt>
      <trkpt lat="47.7514504082500934600830078125" lon="12.25112873129546642303466796875">
        <ele>1613.800048828125</ele>
        <time>2020-06-23T14:41:53.000Z</time>
        <extensions>
          <ns3:TrackPointExtension>
            <ns3:atemp>24.0</ns3:atemp>
            <ns3:hr>111</ns3:hr>
          </ns3:TrackPointExtension>
        </extensions>
      </trkpt>
      <trkpt lat="47.75147547014057636260986328125" lon="12.2512027435004711151123046875">
        <ele>1612.5999755859375</ele>
        <time>2020-06-23T14:41:54.000Z</time>
        <extensions>
          <ns3:TrackPointExtension>
            <ns3:atemp>24.0</ns3:atemp>
            <ns3:hr>110</ns3:hr>
          </ns3:TrackPointExtension>
        </extensions>
      </trkpt>
      <trkpt lat="47.75150480680167675018310546875" lon="12.25127600133419036865234375">
        <ele>1611.5999755859375</ele>
        <time>2020-06-23T14:41:55.000Z</time>
        <extensions>
          <ns3:TrackPointExtension>
            <ns3:atemp>24.0</ns3:atemp>
            <ns3:hr>110</ns3:hr>
          </ns3:TrackPointExtension>
        </extensions>
      </trkpt>
      <trkpt lat="47.7515379153192043304443359375" lon="12.2513502649962902069091796875">
        <ele>1610.4000244140625</ele>
        <time>2020-06-23T14:41:56.000Z</time>
        <extensions>
          <ns3:TrackPointExtension>
            <ns3:atemp>24.0</ns3:atemp>
            <ns3:hr>112</ns3:hr>
          </ns3:TrackPointExtension>
        </extensions>
      </trkpt>
      <trkpt lat="47.7515711076557636260986328125" lon="12.25142419338226318359375">
        <ele>1609</ele>
        <time>2020-06-23T14:41:57.000Z</time>
        <extensions>
          <ns3:TrackPointExtension>
            <ns3:atemp>24.0</ns3:atemp>
            <ns3:hr>111</ns3:hr>
          </ns3:TrackPointExtension>
        </extensions>
      </trkpt>
      <trkpt lat="47.7516259253025054931640625" lon="12.251564003527164459228515625">
        <ele>1607.4000244140625</ele>
        <time>2020-06-23T14:41:59.000Z</time>
        <extensions>
          <ns3:TrackPointExtension>
            <ns3:atemp>24.0</ns3:atemp>
            <ns3:hr>107</ns3:hr>
          </ns3:TrackPointExtension>
        </extensions>
      </trkpt>
      <trkpt lat="47.75166439823806285858154296875" lon="12.25168243981897830963134765625">
        <ele>1606.4000244140625</ele>
        <time>2020-06-23T14:42:01.000Z</time>
        <extensions>
          <ns3:TrackPointExtension>
            <ns3:atemp>24.0</ns3:atemp>
            <ns3:hr>104</ns3:hr>
          </ns3:TrackPointExtension>
        </extensions>
      </trkpt>
      <trkpt lat="47.7516894601285457611083984375" lon="12.25183079950511455535888671875">
        <ele>1603.800048828125</ele>
        <time>2020-06-23T14:42:03.000Z</time>
        <extensions>
          <ns3:TrackPointExtension>
            <ns3:atemp>24.0</ns3:atemp>
            <ns3:hr>104</ns3:hr>
          </ns3:TrackPointExtension>
        </extensions>
      </trkpt>
      <trkpt lat="47.75170463137328624725341796875" lon="12.25191931240260601043701171875">
        <ele>1601.5999755859375</ele>
        <time>2020-06-23T14:42:04.000Z</time>
        <extensions>
          <ns3:TrackPointExtension>
            <ns3:atemp>24.0</ns3:atemp>
            <ns3:hr>104</ns3:hr>
          </ns3:TrackPointExtension>
        </extensions>
      </trkpt>
      <trkpt lat="47.7517243288457393646240234375" lon="12.25201151333749294281005859375">
        <ele>1599</ele>
        <time>2020-06-23T14:42:05.000Z</time>
        <extensions>
          <ns3:TrackPointExtension>
            <ns3:atemp>24.0</ns3:atemp>
            <ns3:hr>104</ns3:hr>
          </ns3:TrackPointExtension>
        </extensions>
      </trkpt>
      <trkpt lat="47.7517464570701122283935546875" lon="12.25210421718657016754150390625">
        <ele>1595.800048828125</ele>
        <time>2020-06-23T14:42:06.000Z</time>
        <extensions>
          <ns3:TrackPointExtension>
            <ns3:atemp>24.0</ns3:atemp>
            <ns3:hr>104</ns3:hr>
          </ns3:TrackPointExtension>
        </extensions>
      </trkpt>
      <trkpt lat="47.751769088208675384521484375" lon="12.25219407118856906890869140625">
        <ele>1592.4000244140625</ele>
        <time>2020-06-23T14:42:07.000Z</time>
        <extensions>
          <ns3:TrackPointExtension>
            <ns3:atemp>24.0</ns3:atemp>
            <ns3:hr>104</ns3:hr>
          </ns3:TrackPointExtension>
        </extensions>
      </trkpt>
      <trkpt lat="47.751791216433048248291015625" lon="12.252280153334140777587890625">
        <ele>1589.199951171875</ele>
        <time>2020-06-23T14:42:08.000Z</time>
        <extensions>
          <ns3:TrackPointExtension>
            <ns3:atemp>24.0</ns3:atemp>
            <ns3:hr>105</ns3:hr>
          </ns3:TrackPointExtension>
        </extensions>
      </trkpt>
      <trkpt lat="47.7518148533999919891357421875" lon="12.252365313470363616943359375">
        <ele>1586</ele>
        <time>2020-06-23T14:42:09.000Z</time>
        <extensions>
          <ns3:TrackPointExtension>
            <ns3:atemp>24.0</ns3:atemp>
            <ns3:hr>105</ns3:hr>
          </ns3:TrackPointExtension>
        </extensions>
      </trkpt>
      <trkpt lat="47.7518430165946483612060546875" lon="12.25244971923530101776123046875">
        <ele>1582.800048828125</ele>
        <time>2020-06-23T14:42:10.000Z</time>
        <extensions>
          <ns3:TrackPointExtension>
            <ns3:atemp>24.0</ns3:atemp>
            <ns3:hr>105</ns3:hr>
          </ns3:TrackPointExtension>
        </extensions>
      </trkpt>
      <trkpt lat="47.7518792264163494110107421875" lon="12.2525324486196041107177734375">
        <ele>1579.5999755859375</ele>
        <time>2020-06-23T14:42:11.000Z</time>
        <extensions>
          <ns3:TrackPointExtension>
            <ns3:atemp>24.0</ns3:atemp>
            <ns3:hr>105</ns3:hr>
          </ns3:TrackPointExtension>
        </extensions>
      </trkpt>
      <trkpt lat="47.75192054919898509979248046875" lon="12.252604700624942779541015625">
        <ele>1576.5999755859375</ele>
        <time>2020-06-23T14:42:12.000Z</time>
        <extensions>
          <ns3:TrackPointExtension>
            <ns3:atemp>24.0</ns3:atemp>
            <ns3:hr>105</ns3:hr>
          </ns3:TrackPointExtension>
        </extensions>
      </trkpt>
      <trkpt lat="47.751962207257747650146484375" lon="12.2526712529361248016357421875">
        <ele>1573.4000244140625</ele>
        <time>2020-06-23T14:42:13.000Z</time>
        <extensions>
          <ns3:TrackPointExtension>
            <ns3:atemp>24.0</ns3:atemp>
            <ns3:hr>105</ns3:hr>
          </ns3:TrackPointExtension>
        </extensions>
      </trkpt>
      <trkpt lat="47.75200135074555873870849609375" lon="12.25274006836116313934326171875">
        <ele>1570.800048828125</ele>
        <time>2020-06-23T14:42:14.000Z</time>
        <extensions>
          <ns3:TrackPointExtension>
            <ns3:atemp>24.0</ns3:atemp>
            <ns3:hr>102</ns3:hr>
          </ns3:TrackPointExtension>
        </extensions>
      </trkpt>
      <trkpt lat="47.7520430088043212890625" lon="12.25281533785164356231689453125">
        <ele>1569</ele>
        <time>2020-06-23T14:42:15.000Z</time>
        <extensions>
          <ns3:TrackPointExtension>
            <ns3:atemp>24.0</ns3:atemp>
            <ns3:hr>103</ns3:hr>
          </ns3:TrackPointExtension>
        </extensions>
      </trkpt>
      <trkpt lat="47.752096317708492279052734375" lon="12.2528972290456295013427734375">
        <ele>1567.4000244140625</ele>
        <time>2020-06-23T14:42:16.000Z</time>
        <extensions>
          <ns3:TrackPointExtension>
            <ns3:atemp>24.0</ns3:atemp>
            <ns3:hr>104</ns3:hr>
          </ns3:TrackPointExtension>
        </extensions>
      </trkpt>
      <trkpt lat="47.75216043926775455474853515625" lon="12.2529847361147403717041015625">
        <ele>1565.5999755859375</ele>
        <time>2020-06-23T14:42:17.000Z</time>
        <extensions>
          <ns3:TrackPointExtension>
            <ns3:atemp>24.0</ns3:atemp>
            <ns3:hr>103</ns3:hr>
          </ns3:TrackPointExtension>
        </extensions>
      </trkpt>
      <trkpt lat="47.75222145952284336090087890625" lon="12.25307517684996128082275390625">
        <ele>1563.4000244140625</ele>
        <time>2020-06-23T14:42:18.000Z</time>
        <extensions>
          <ns3:TrackPointExtension>
            <ns3:atemp>24.0</ns3:atemp>
            <ns3:hr>106</ns3:hr>
          </ns3:TrackPointExtension>
        </extensions>
      </trkpt>
      <trkpt lat="47.75226873345673084259033203125" lon="12.2531636059284210205078125">
        <ele>1560.800048828125</ele>
        <time>2020-06-23T14:42:19.000Z</time>
        <extensions>
          <ns3:TrackPointExtension>
            <ns3:atemp>24.0</ns3:atemp>
            <ns3:hr>107</ns3:hr>
          </ns3:TrackPointExtension>
        </extensions>
      </trkpt>
      <trkpt lat="47.75231055915355682373046875" lon="12.25324583239853382110595703125">
        <ele>1558.199951171875</ele>
        <time>2020-06-23T14:42:20.000Z</time>
        <extensions>
          <ns3:TrackPointExtension>
            <ns3:atemp>24.0</ns3:atemp>
            <ns3:hr>108</ns3:hr>
          </ns3:TrackPointExtension>
        </extensions>
      </trkpt>
      <trkpt lat="47.75235121138393878936767578125" lon="12.2533213533461093902587890625">
        <ele>1556.4000244140625</ele>
        <time>2020-06-23T14:42:21.000Z</time>
        <extensions>
          <ns3:TrackPointExtension>
            <ns3:atemp>24.0</ns3:atemp>
            <ns3:hr>107</ns3:hr>
          </ns3:TrackPointExtension>
        </extensions>
      </trkpt>
      <trkpt lat="47.7523876726627349853515625" lon="12.25339628756046295166015625">
        <ele>1555.5999755859375</ele>
        <time>2020-06-23T14:42:22.000Z</time>
        <extensions>
          <ns3:TrackPointExtension>
            <ns3:atemp>24.0</ns3:atemp>
            <ns3:hr>106</ns3:hr>
          </ns3:TrackPointExtension>
        </extensions>
      </trkpt>
      <trkpt lat="47.7524129860103130340576171875" lon="12.2534762509167194366455078125">
        <ele>1555.199951171875</ele>
        <time>2020-06-23T14:42:23.000Z</time>
        <extensions>
          <ns3:TrackPointExtension>
            <ns3:atemp>24.0</ns3:atemp>
            <ns3:hr>106</ns3:hr>
          </ns3:TrackPointExtension>
        </extensions>
      </trkpt>
      <trkpt lat="47.75242497213184833526611328125" lon="12.253560237586498260498046875">
        <ele>1554.800048828125</ele>
        <time>2020-06-23T14:42:24.000Z</time>
        <extensions>
          <ns3:TrackPointExtension>
            <ns3:atemp>24.0</ns3:atemp>
            <ns3:hr>104</ns3:hr>
          </ns3:TrackPointExtension>
        </extensions>
      </trkpt>
      <trkpt lat="47.75245464406907558441162109375" lon="12.25372645072638988494873046875">
        <ele>1554.5999755859375</ele>
        <time>2020-06-23T14:42:26.000Z</time>
        <extensions>
          <ns3:TrackPointExtension>
            <ns3:atemp>24.0</ns3:atemp>
            <ns3:hr>102</ns3:hr>
          </ns3:TrackPointExtension>
        </extensions>
      </trkpt>
      <trkpt lat="47.75253058411180973052978515625" lon="12.253866679966449737548828125">
        <ele>1554</ele>
        <time>2020-06-23T14:42:28.000Z</time>
        <extensions>
          <ns3:TrackPointExtension>
            <ns3:atemp>24.0</ns3:atemp>
            <ns3:hr>103</ns3:hr>
          </ns3:TrackPointExtension>
        </extensions>
      </trkpt>
      <trkpt lat="47.752603590488433837890625" lon="12.2539791651070117950439453125">
        <ele>1553.199951171875</ele>
        <time>2020-06-23T14:42:30.000Z</time>
        <extensions>
          <ns3:TrackPointExtension>
            <ns3:atemp>24.0</ns3:atemp>
            <ns3:hr>106</ns3:hr>
          </ns3:TrackPointExtension>
        </extensions>
      </trkpt>
      <trkpt lat="47.75263535790145397186279296875" lon="12.2540277801454067230224609375">
        <ele>1552.800048828125</ele>
        <time>2020-06-23T14:42:31.000Z</time>
        <extensions>
          <ns3:TrackPointExtension>
            <ns3:atemp>24.0</ns3:atemp>
            <ns3:hr>107</ns3:hr>
          </ns3:TrackPointExtension>
        </extensions>
      </trkpt>
      <trkpt lat="47.75267123244702816009521484375" lon="12.25407865829765796661376953125">
        <ele>1552.4000244140625</ele>
        <time>2020-06-23T14:42:32.000Z</time>
        <extensions>
          <ns3:TrackPointExtension>
            <ns3:atemp>24.0</ns3:atemp>
            <ns3:hr>107</ns3:hr>
          </ns3:TrackPointExtension>
        </extensions>
      </trkpt>
      <trkpt lat="47.75270911864936351776123046875" lon="12.254128195345401763916015625">
        <ele>1552.4000244140625</ele>
        <time>2020-06-23T14:42:33.000Z</time>
        <extensions>
          <ns3:TrackPointExtension>
            <ns3:atemp>24.0</ns3:atemp>
            <ns3:hr>104</ns3:hr>
          </ns3:TrackPointExtension>
        </extensions>
      </trkpt>
      <trkpt lat="47.7527824603021144866943359375" lon="12.254181168973445892333984375">
        <ele>1551.5999755859375</ele>
        <time>2020-06-23T14:42:35.000Z</time>
        <extensions>
          <ns3:TrackPointExtension>
            <ns3:atemp>24.0</ns3:atemp>
            <ns3:hr>101</ns3:hr>
          </ns3:TrackPointExtension>
        </extensions>
      </trkpt>
      <trkpt lat="47.75282126851379871368408203125" lon="12.25418795831501483917236328125">
        <ele>1550.800048828125</ele>
        <time>2020-06-23T14:42:36.000Z</time>
        <extensions>
          <ns3:TrackPointExtension>
            <ns3:atemp>24.0</ns3:atemp>
            <ns3:hr>101</ns3:hr>
          </ns3:TrackPointExtension>
        </extensions>
      </trkpt>
      <trkpt lat="47.75286443531513214111328125" lon="12.254199273884296417236328125">
        <ele>1549.800048828125</ele>
        <time>2020-06-23T14:42:37.000Z</time>
        <extensions>
          <ns3:TrackPointExtension>
            <ns3:atemp>24.0</ns3:atemp>
            <ns3:hr>101</ns3:hr>
          </ns3:TrackPointExtension>
        </extensions>
      </trkpt>
      <trkpt lat="47.75294448249042034149169921875" lon="12.25426926277577877044677734375">
        <ele>1547.5999755859375</ele>
        <time>2020-06-23T14:42:39.000Z</time>
        <extensions>
          <ns3:TrackPointExtension>
            <ns3:atemp>24.0</ns3:atemp>
            <ns3:hr>102</ns3:hr>
          </ns3:TrackPointExtension>
        </extensions>
      </trkpt>
      <trkpt lat="47.7529762499034404754638671875" lon="12.25431821309030055999755859375">
        <ele>1546</ele>
        <time>2020-06-23T14:42:40.000Z</time>
        <extensions>
          <ns3:TrackPointExtension>
            <ns3:atemp>24.0</ns3:atemp>
            <ns3:hr>103</ns3:hr>
          </ns3:TrackPointExtension>
        </extensions>
      </trkpt>
      <trkpt lat="47.7530064247548580169677734375" lon="12.25436699576675891876220703125">
        <ele>1544.5999755859375</ele>
        <time>2020-06-23T14:42:41.000Z</time>
        <extensions>
          <ns3:TrackPointExtension>
            <ns3:atemp>24.0</ns3:atemp>
            <ns3:hr>103</ns3:hr>
          </ns3:TrackPointExtension>
        </extensions>
      </trkpt>
      <trkpt lat="47.753038443624973297119140625" lon="12.2544217295944690704345703125">
        <ele>1543.199951171875</ele>
        <time>2020-06-23T14:42:42.000Z</time>
        <extensions>
          <ns3:TrackPointExtension>
            <ns3:atemp>24.0</ns3:atemp>
            <ns3:hr>103</ns3:hr>
          </ns3:TrackPointExtension>
        </extensions>
      </trkpt>
      <trkpt lat="47.753071971237659454345703125" lon="12.254487611353397369384765625">
        <ele>1542.199951171875</ele>
        <time>2020-06-23T14:42:43.000Z</time>
        <extensions>
          <ns3:TrackPointExtension>
            <ns3:atemp>24.0</ns3:atemp>
            <ns3:hr>104</ns3:hr>
          </ns3:TrackPointExtension>
        </extensions>
      </trkpt>
      <trkpt lat="47.75310558266937732696533203125" lon="12.25456262938678264617919921875">
        <ele>1541.199951171875</ele>
        <time>2020-06-23T14:42:44.000Z</time>
        <extensions>
          <ns3:TrackPointExtension>
            <ns3:atemp>24.0</ns3:atemp>
            <ns3:hr>104</ns3:hr>
          </ns3:TrackPointExtension>
        </extensions>
      </trkpt>
      <trkpt lat="47.75313827209174633026123046875" lon="12.25463521666824817657470703125">
        <ele>1540.4000244140625</ele>
        <time>2020-06-23T14:42:45.000Z</time>
        <extensions>
          <ns3:TrackPointExtension>
            <ns3:atemp>24.0</ns3:atemp>
            <ns3:hr>104</ns3:hr>
          </ns3:TrackPointExtension>
        </extensions>
      </trkpt>
      <trkpt lat="47.7531976997852325439453125" lon="12.254751138389110565185546875">
        <ele>1539.199951171875</ele>
        <time>2020-06-23T14:42:47.000Z</time>
        <extensions>
          <ns3:TrackPointExtension>
            <ns3:atemp>24.0</ns3:atemp>
            <ns3:hr>105</ns3:hr>
          </ns3:TrackPointExtension>
        </extensions>
      </trkpt>
      <trkpt lat="47.7532233484089374542236328125" lon="12.2548029385507106781005859375">
        <ele>1538.800048828125</ele>
        <time>2020-06-23T14:42:48.000Z</time>
        <extensions>
          <ns3:TrackPointExtension>
            <ns3:atemp>24.0</ns3:atemp>
            <ns3:hr>105</ns3:hr>
          </ns3:TrackPointExtension>
        </extensions>
      </trkpt>
      <trkpt lat="47.75328679941594600677490234375" lon="12.254918776452541351318359375">
        <ele>1538</ele>
        <time>2020-06-23T14:42:50.000Z</time>
        <extensions>
          <ns3:TrackPointExtension>
            <ns3:atemp>24.0</ns3:atemp>
            <ns3:hr>105</ns3:hr>
          </ns3:TrackPointExtension>
        </extensions>
      </trkpt>
      <trkpt lat="47.753364332020282745361328125" lon="12.25500737316906452178955078125">
        <ele>1536.4000244140625</ele>
        <time>2020-06-23T14:42:52.000Z</time>
        <extensions>
          <ns3:TrackPointExtension>
            <ns3:atemp>24.0</ns3:atemp>
            <ns3:hr>104</ns3:hr>
          </ns3:TrackPointExtension>
        </extensions>
      </trkpt>
      <trkpt lat="47.7534406073391437530517578125" lon="12.255073674023151397705078125">
        <ele>1534.5999755859375</ele>
        <time>2020-06-23T14:42:54.000Z</time>
        <extensions>
          <ns3:TrackPointExtension>
            <ns3:atemp>24.0</ns3:atemp>
            <ns3:hr>103</ns3:hr>
          </ns3:TrackPointExtension>
        </extensions>
      </trkpt>
      <trkpt lat="47.75352920405566692352294921875" lon="12.25514383055269718170166015625">
        <ele>1533</ele>
        <time>2020-06-23T14:42:56.000Z</time>
        <extensions>
          <ns3:TrackPointExtension>
            <ns3:atemp>24.0</ns3:atemp>
            <ns3:hr>103</ns3:hr>
          </ns3:TrackPointExtension>
        </extensions>
      </trkpt>
      <trkpt lat="47.75361738167703151702880859375" lon="12.25520987994968891143798828125">
        <ele>1531.199951171875</ele>
        <time>2020-06-23T14:42:58.000Z</time>
        <extensions>
          <ns3:TrackPointExtension>
            <ns3:atemp>24.0</ns3:atemp>
            <ns3:hr>102</ns3:hr>
          </ns3:TrackPointExtension>
        </extensions>
      </trkpt>
      <trkpt lat="47.753694243729114532470703125" lon="12.25529571063816547393798828125">
        <ele>1530</ele>
        <time>2020-06-23T14:43:00.000Z</time>
        <extensions>
          <ns3:TrackPointExtension>
            <ns3:atemp>24.0</ns3:atemp>
            <ns3:hr>101</ns3:hr>
          </ns3:TrackPointExtension>
        </extensions>
      </trkpt>
      <trkpt lat="47.753772698342800140380859375" lon="12.2554020769894123077392578125">
        <ele>1528.800048828125</ele>
        <time>2020-06-23T14:43:02.000Z</time>
        <extensions>
          <ns3:TrackPointExtension>
            <ns3:atemp>24.0</ns3:atemp>
            <ns3:hr>101</ns3:hr>
          </ns3:TrackPointExtension>
        </extensions>
      </trkpt>
      <trkpt lat="47.75381133891642093658447265625" lon="12.2554637677967548370361328125">
        <ele>1528</ele>
        <time>2020-06-23T14:43:03.000Z</time>
        <extensions>
          <ns3:TrackPointExtension>
            <ns3:atemp>24.0</ns3:atemp>
            <ns3:hr>102</ns3:hr>
          </ns3:TrackPointExtension>
        </extensions>
      </trkpt>
      <trkpt lat="47.75384587235748767852783203125" lon="12.25553224794566631317138671875">
        <ele>1527.4000244140625</ele>
        <time>2020-06-23T14:43:04.000Z</time>
        <extensions>
          <ns3:TrackPointExtension>
            <ns3:atemp>24.0</ns3:atemp>
            <ns3:hr>103</ns3:hr>
          </ns3:TrackPointExtension>
        </extensions>
      </trkpt>
      <trkpt lat="47.75391510687768459320068359375" lon="12.2556783445179462432861328125">
        <ele>1526.5999755859375</ele>
        <time>2020-06-23T14:43:06.000Z</time>
        <extensions>
          <ns3:TrackPointExtension>
            <ns3:atemp>24.0</ns3:atemp>
            <ns3:hr>105</ns3:hr>
          </ns3:TrackPointExtension>
        </extensions>
      </trkpt>
      <trkpt lat="47.75395835749804973602294921875" lon="12.25574431009590625762939453125">
        <ele>1526.4000244140625</ele>
        <time>2020-06-23T14:43:07.000Z</time>
        <extensions>
          <ns3:TrackPointExtension>
            <ns3:atemp>24.0</ns3:atemp>
            <ns3:hr>106</ns3:hr>
          </ns3:TrackPointExtension>
        </extensions>
      </trkpt>
      <trkpt lat="47.75400638580322265625" lon="12.2558017261326313018798828125">
        <ele>1526.199951171875</ele>
        <time>2020-06-23T14:43:08.000Z</time>
        <extensions>
          <ns3:TrackPointExtension>
            <ns3:atemp>24.0</ns3:atemp>
            <ns3:hr>106</ns3:hr>
          </ns3:TrackPointExtension>
        </extensions>
      </trkpt>
      <trkpt lat="47.75413471274077892303466796875" lon="12.25595436058938503265380859375">
        <ele>1526</ele>
        <time>2020-06-23T14:43:11.000Z</time>
        <extensions>
          <ns3:TrackPointExtension>
            <ns3:atemp>25.0</ns3:atemp>
            <ns3:hr>106</ns3:hr>
          </ns3:TrackPointExtension>
        </extensions>
      </trkpt>
      <trkpt lat="47.754180394113063812255859375" lon="12.25598889403045177459716796875">
        <ele>1526.4000244140625</ele>
        <time>2020-06-23T14:43:12.000Z</time>
        <extensions>
          <ns3:TrackPointExtension>
            <ns3:atemp>25.0</ns3:atemp>
            <ns3:hr>106</ns3:hr>
          </ns3:TrackPointExtension>
        </extensions>
      </trkpt>
      <trkpt lat="47.7543022669851779937744140625" lon="12.25606466643512248992919921875">
        <ele>1528.199951171875</ele>
        <time>2020-06-23T14:43:14.000Z</time>
        <extensions>
          <ns3:TrackPointExtension>
            <ns3:atemp>25.0</ns3:atemp>
            <ns3:hr>105</ns3:hr>
          </ns3:TrackPointExtension>
        </extensions>
      </trkpt>
      <trkpt lat="47.75437510572373867034912109375" lon="12.2561142034828662872314453125">
        <ele>1528.800048828125</ele>
        <time>2020-06-23T14:43:15.000Z</time>
        <extensions>
          <ns3:TrackPointExtension>
            <ns3:atemp>25.0</ns3:atemp>
            <ns3:hr>105</ns3:hr>
          </ns3:TrackPointExtension>
        </extensions>
      </trkpt>
      <trkpt lat="47.75444953702390193939208984375" lon="12.256162650883197784423828125">
        <ele>1529.4000244140625</ele>
        <time>2020-06-23T14:43:16.000Z</time>
        <extensions>
          <ns3:TrackPointExtension>
            <ns3:atemp>25.0</ns3:atemp>
            <ns3:hr>105</ns3:hr>
          </ns3:TrackPointExtension>
        </extensions>
      </trkpt>
      <trkpt lat="47.75451726280152797698974609375" lon="12.25619341246783733367919921875">
        <ele>1530</ele>
        <time>2020-06-23T14:43:17.000Z</time>
        <extensions>
          <ns3:TrackPointExtension>
            <ns3:atemp>25.0</ns3:atemp>
            <ns3:hr>104</ns3:hr>
          </ns3:TrackPointExtension>
        </extensions>
      </trkpt>
      <trkpt lat="47.7545745112001895904541015625" lon="12.2562050633132457733154296875">
        <ele>1531.4000244140625</ele>
        <time>2020-06-23T14:43:18.000Z</time>
        <extensions>
          <ns3:TrackPointExtension>
            <ns3:atemp>25.0</ns3:atemp>
            <ns3:hr>104</ns3:hr>
          </ns3:TrackPointExtension>
        </extensions>
      </trkpt>
      <trkpt lat="47.75462069548666477203369140625" lon="12.2562007047235965728759765625">
        <ele>1534</ele>
        <time>2020-06-23T14:43:19.000Z</time>
        <extensions>
          <ns3:TrackPointExtension>
            <ns3:atemp>25.0</ns3:atemp>
            <ns3:hr>104</ns3:hr>
          </ns3:TrackPointExtension>
        </extensions>
      </trkpt>
      <trkpt lat="47.7546566538512706756591796875" lon="12.2561906464397907257080078125">
        <ele>1537.199951171875</ele>
        <time>2020-06-23T14:43:20.000Z</time>
        <extensions>
          <ns3:TrackPointExtension>
            <ns3:atemp>25.0</ns3:atemp>
            <ns3:hr>104</ns3:hr>
          </ns3:TrackPointExtension>
        </extensions>
      </trkpt>
      <trkpt lat="47.7546871639788150787353515625" lon="12.2561866231262683868408203125">
        <ele>1540</ele>
        <time>2020-06-23T14:43:21.000Z</time>
        <extensions>
          <ns3:TrackPointExtension>
            <ns3:atemp>25.0</ns3:atemp>
            <ns3:hr>104</ns3:hr>
          </ns3:TrackPointExtension>
        </extensions>
      </trkpt>
      <trkpt lat="47.754716835916042327880859375" lon="12.2561993636190891265869140625">
        <ele>1542.4000244140625</ele>
        <time>2020-06-23T14:43:22.000Z</time>
        <extensions>
          <ns3:TrackPointExtension>
            <ns3:atemp>25.0</ns3:atemp>
            <ns3:hr>105</ns3:hr>
          </ns3:TrackPointExtension>
        </extensions>
      </trkpt>
      <trkpt lat="47.75474558584392070770263671875" lon="12.25622727535665035247802734375">
        <ele>1543.800048828125</ele>
        <time>2020-06-23T14:43:23.000Z</time>
        <extensions>
          <ns3:TrackPointExtension>
            <ns3:atemp>25.0</ns3:atemp>
            <ns3:hr>105</ns3:hr>
          </ns3:TrackPointExtension>
        </extensions>
      </trkpt>
      <trkpt lat="47.7547753416001796722412109375" lon="12.2562590427696704864501953125">
        <ele>1544.4000244140625</ele>
        <time>2020-06-23T14:43:24.000Z</time>
        <extensions>
          <ns3:TrackPointExtension>
            <ns3:atemp>25.0</ns3:atemp>
            <ns3:hr>105</ns3:hr>
          </ns3:TrackPointExtension>
        </extensions>
      </trkpt>
      <trkpt lat="47.75481197051703929901123046875" lon="12.25627890788018703460693359375">
        <ele>1544.800048828125</ele>
        <time>2020-06-23T14:43:25.000Z</time>
        <extensions>
          <ns3:TrackPointExtension>
            <ns3:atemp>25.0</ns3:atemp>
            <ns3:hr>105</ns3:hr>
          </ns3:TrackPointExtension>
        </extensions>
      </trkpt>
      <trkpt lat="47.75490517728030681610107421875" lon="12.25629131309688091278076171875">
        <ele>1544.4000244140625</ele>
        <time>2020-06-23T14:43:27.000Z</time>
        <extensions>
          <ns3:TrackPointExtension>
            <ns3:atemp>25.0</ns3:atemp>
            <ns3:hr>105</ns3:hr>
          </ns3:TrackPointExtension>
        </extensions>
      </trkpt>
      <trkpt lat="47.75494909845292568206787109375" lon="12.256304807960987091064453125">
        <ele>1543.5999755859375</ele>
        <time>2020-06-23T14:43:28.000Z</time>
        <extensions>
          <ns3:TrackPointExtension>
            <ns3:atemp>25.0</ns3:atemp>
            <ns3:hr>104</ns3:hr>
          </ns3:TrackPointExtension>
        </extensions>
      </trkpt>
      <trkpt lat="47.7550200931727886199951171875" lon="12.2563393414020538330078125">
        <ele>1542.5999755859375</ele>
        <time>2020-06-23T14:43:30.000Z</time>
        <extensions>
          <ns3:TrackPointExtension>
            <ns3:atemp>25.0</ns3:atemp>
            <ns3:hr>103</ns3:hr>
          </ns3:TrackPointExtension>
        </extensions>
      </trkpt>
      <trkpt lat="47.755055129528045654296875" lon="12.25635384209454059600830078125">
        <ele>1542.4000244140625</ele>
        <time>2020-06-23T14:43:31.000Z</time>
        <extensions>
          <ns3:TrackPointExtension>
            <ns3:atemp>25.0</ns3:atemp>
            <ns3:hr>103</ns3:hr>
          </ns3:TrackPointExtension>
        </extensions>
      </trkpt>
      <trkpt lat="47.7550967037677764892578125" lon="12.25637429393827915191650390625">
        <ele>1542</ele>
        <time>2020-06-23T14:43:32.000Z</time>
        <extensions>
          <ns3:TrackPointExtension>
            <ns3:atemp>25.0</ns3:atemp>
            <ns3:hr>102</ns3:hr>
          </ns3:TrackPointExtension>
        </extensions>
      </trkpt>
      <trkpt lat="47.75517255999147891998291015625" lon="12.25645073689520359039306640625">
        <ele>1541.5999755859375</ele>
        <time>2020-06-23T14:43:34.000Z</time>
        <extensions>
          <ns3:TrackPointExtension>
            <ns3:atemp>25.0</ns3:atemp>
            <ns3:hr>102</ns3:hr>
          </ns3:TrackPointExtension>
        </extensions>
      </trkpt>
      <trkpt lat="47.75520742870867252349853515625" lon="12.25650253705680370330810546875">
        <ele>1541.4000244140625</ele>
        <time>2020-06-23T14:43:35.000Z</time>
        <extensions>
          <ns3:TrackPointExtension>
            <ns3:atemp>25.0</ns3:atemp>
            <ns3:hr>102</ns3:hr>
          </ns3:TrackPointExtension>
        </extensions>
      </trkpt>
      <trkpt lat="47.75529040955007076263427734375" lon="12.256619296967983245849609375">
        <ele>1540.4000244140625</ele>
        <time>2020-06-23T14:43:37.000Z</time>
        <extensions>
          <ns3:TrackPointExtension>
            <ns3:atemp>25.0</ns3:atemp>
            <ns3:hr>101</ns3:hr>
          </ns3:TrackPointExtension>
        </extensions>
      </trkpt>
      <trkpt lat="47.75537439621984958648681640625" lon="12.256725914776325225830078125">
        <ele>1538.4000244140625</ele>
        <time>2020-06-23T14:43:39.000Z</time>
        <extensions>
          <ns3:TrackPointExtension>
            <ns3:atemp>25.0</ns3:atemp>
            <ns3:hr>100</ns3:hr>
          </ns3:TrackPointExtension>
        </extensions>
      </trkpt>
      <trkpt lat="47.755417563021183013916015625" lon="12.2567711770534515380859375">
        <ele>1537.4000244140625</ele>
        <time>2020-06-23T14:43:40.000Z</time>
        <extensions>
          <ns3:TrackPointExtension>
            <ns3:atemp>25.0</ns3:atemp>
            <ns3:hr>101</ns3:hr>
          </ns3:TrackPointExtension>
        </extensions>
      </trkpt>
      <trkpt lat="47.75546911172568798065185546875" lon="12.2568145953118801116943359375">
        <ele>1536.4000244140625</ele>
        <time>2020-06-23T14:43:41.000Z</time>
        <extensions>
          <ns3:TrackPointExtension>
            <ns3:atemp>25.0</ns3:atemp>
            <ns3:hr>101</ns3:hr>
          </ns3:TrackPointExtension>
        </extensions>
      </trkpt>
      <trkpt lat="47.7555277012288570404052734375" lon="12.25685742683708667755126953125">
        <ele>1535.199951171875</ele>
        <time>2020-06-23T14:43:42.000Z</time>
        <extensions>
          <ns3:TrackPointExtension>
            <ns3:atemp>25.0</ns3:atemp>
            <ns3:hr>102</ns3:hr>
          </ns3:TrackPointExtension>
        </extensions>
      </trkpt>
      <trkpt lat="47.7555836923420429229736328125" lon="12.256902270019054412841796875">
        <ele>1533.4000244140625</ele>
        <time>2020-06-23T14:43:43.000Z</time>
        <extensions>
          <ns3:TrackPointExtension>
            <ns3:atemp>25.0</ns3:atemp>
            <ns3:hr>103</ns3:hr>
          </ns3:TrackPointExtension>
        </extensions>
      </trkpt>
      <trkpt lat="47.75562870316207408905029296875" lon="12.25695365108549594879150390625">
        <ele>1531.5999755859375</ele>
        <time>2020-06-23T14:43:44.000Z</time>
        <extensions>
          <ns3:TrackPointExtension>
            <ns3:atemp>25.0</ns3:atemp>
            <ns3:hr>104</ns3:hr>
          </ns3:TrackPointExtension>
        </extensions>
      </trkpt>
      <trkpt lat="47.7556691877543926239013671875" lon="12.25701936520636081695556640625">
        <ele>1530</ele>
        <time>2020-06-23T14:43:45.000Z</time>
        <extensions>
          <ns3:TrackPointExtension>
            <ns3:atemp>25.0</ns3:atemp>
            <ns3:hr>104</ns3:hr>
          </ns3:TrackPointExtension>
        </extensions>
      </trkpt>
      <trkpt lat="47.75571302510797977447509765625" lon="12.2570984065532684326171875">
        <ele>1528.800048828125</ele>
        <time>2020-06-23T14:43:46.000Z</time>
        <extensions>
          <ns3:TrackPointExtension>
            <ns3:atemp>25.0</ns3:atemp>
            <ns3:hr>104</ns3:hr>
          </ns3:TrackPointExtension>
        </extensions>
      </trkpt>
      <trkpt lat="47.75576180778443813323974609375" lon="12.25718214176595211029052734375">
        <ele>1527.800048828125</ele>
        <time>2020-06-23T14:43:47.000Z</time>
        <extensions>
          <ns3:TrackPointExtension>
            <ns3:atemp>25.0</ns3:atemp>
            <ns3:hr>103</ns3:hr>
          </ns3:TrackPointExtension>
        </extensions>
      </trkpt>
      <trkpt lat="47.75581092573702335357666015625" lon="12.25726562552154064178466796875">
        <ele>1526.5999755859375</ele>
        <time>2020-06-23T14:43:48.000Z</time>
        <extensions>
          <ns3:TrackPointExtension>
            <ns3:atemp>25.0</ns3:atemp>
            <ns3:hr>103</ns3:hr>
          </ns3:TrackPointExtension>
        </extensions>
      </trkpt>
      <trkpt lat="47.75585174560546875" lon="12.25734558887779712677001953125">
        <ele>1525.5999755859375</ele>
        <time>2020-06-23T14:43:49.000Z</time>
        <extensions>
          <ns3:TrackPointExtension>
            <ns3:atemp>25.0</ns3:atemp>
            <ns3:hr>103</ns3:hr>
          </ns3:TrackPointExtension>
        </extensions>
      </trkpt>
      <trkpt lat="47.7558840997517108917236328125" lon="12.25742504931986331939697265625">
        <ele>1524.4000244140625</ele>
        <time>2020-06-23T14:43:50.000Z</time>
        <extensions>
          <ns3:TrackPointExtension>
            <ns3:atemp>25.0</ns3:atemp>
            <ns3:hr>103</ns3:hr>
          </ns3:TrackPointExtension>
        </extensions>
      </trkpt>
      <trkpt lat="47.755944617092609405517578125" lon="12.25759930908679962158203125">
        <ele>1523</ele>
        <time>2020-06-23T14:43:52.000Z</time>
        <extensions>
          <ns3:TrackPointExtension>
            <ns3:atemp>25.0</ns3:atemp>
            <ns3:hr>104</ns3:hr>
          </ns3:TrackPointExtension>
        </extensions>
      </trkpt>
      <trkpt lat="47.7560212276875972747802734375" lon="12.25781061686575412750244140625">
        <ele>1521.199951171875</ele>
        <time>2020-06-23T14:43:54.000Z</time>
        <extensions>
          <ns3:TrackPointExtension>
            <ns3:atemp>25.0</ns3:atemp>
            <ns3:hr>104</ns3:hr>
          </ns3:TrackPointExtension>
        </extensions>
      </trkpt>
      <trkpt lat="47.7560649812221527099609375" lon="12.25791807286441326141357421875">
        <ele>1520</ele>
        <time>2020-06-23T14:43:55.000Z</time>
        <extensions>
          <ns3:TrackPointExtension>
            <ns3:atemp>25.0</ns3:atemp>
            <ns3:hr>104</ns3:hr>
          </ns3:TrackPointExtension>
        </extensions>
      </trkpt>
      <trkpt lat="47.756108902394771575927734375" lon="12.25802267901599407196044921875">
        <ele>1519.5999755859375</ele>
        <time>2020-06-23T14:43:56.000Z</time>
        <extensions>
          <ns3:TrackPointExtension>
            <ns3:atemp>25.0</ns3:atemp>
            <ns3:hr>104</ns3:hr>
          </ns3:TrackPointExtension>
        </extensions>
      </trkpt>
      <trkpt lat="47.75622147135436534881591796875" lon="12.2582973539829254150390625">
        <ele>1519.5999755859375</ele>
        <time>2020-06-23T14:43:59.000Z</time>
        <extensions>
          <ns3:TrackPointExtension>
            <ns3:atemp>25.0</ns3:atemp>
            <ns3:hr>104</ns3:hr>
          </ns3:TrackPointExtension>
        </extensions>
      </trkpt>
      <trkpt lat="47.75626153685152530670166015625" lon="12.258369438350200653076171875">
        <ele>1520.5999755859375</ele>
        <time>2020-06-23T14:44:00.000Z</time>
        <extensions>
          <ns3:TrackPointExtension>
            <ns3:atemp>25.0</ns3:atemp>
            <ns3:hr>103</ns3:hr>
          </ns3:TrackPointExtension>
        </extensions>
      </trkpt>
      <trkpt lat="47.75630512274801731109619140625" lon="12.25842333398759365081787109375">
        <ele>1521.800048828125</ele>
        <time>2020-06-23T14:44:01.000Z</time>
        <extensions>
          <ns3:TrackPointExtension>
            <ns3:atemp>25.0</ns3:atemp>
            <ns3:hr>102</ns3:hr>
          </ns3:TrackPointExtension>
        </extensions>
      </trkpt>
      <trkpt lat="47.75635155849158763885498046875" lon="12.2584608010947704315185546875">
        <ele>1523.199951171875</ele>
        <time>2020-06-23T14:44:02.000Z</time>
        <extensions>
          <ns3:TrackPointExtension>
            <ns3:atemp>25.0</ns3:atemp>
            <ns3:hr>101</ns3:hr>
          </ns3:TrackPointExtension>
        </extensions>
      </trkpt>
      <trkpt lat="47.756397910416126251220703125" lon="12.25848318077623844146728515625">
        <ele>1524.5999755859375</ele>
        <time>2020-06-23T14:44:03.000Z</time>
        <extensions>
          <ns3:TrackPointExtension>
            <ns3:atemp>25.0</ns3:atemp>
            <ns3:hr>100</ns3:hr>
          </ns3:TrackPointExtension>
        </extensions>
      </trkpt>
      <trkpt lat="47.75644795037806034088134765625" lon="12.258492149412631988525390625">
        <ele>1526.199951171875</ele>
        <time>2020-06-23T14:44:04.000Z</time>
        <extensions>
          <ns3:TrackPointExtension>
            <ns3:atemp>25.0</ns3:atemp>
            <ns3:hr>98</ns3:hr>
          </ns3:TrackPointExtension>
        </extensions>
      </trkpt>
      <trkpt lat="47.75650075636804103851318359375" lon="12.25848133675754070281982421875">
        <ele>1527.5999755859375</ele>
        <time>2020-06-23T14:44:05.000Z</time>
        <extensions>
          <ns3:TrackPointExtension>
            <ns3:atemp>25.0</ns3:atemp>
            <ns3:hr>98</ns3:hr>
          </ns3:TrackPointExtension>
        </extensions>
      </trkpt>
      <trkpt lat="47.75655356235802173614501953125" lon="12.25844546221196651458740234375">
        <ele>1529.199951171875</ele>
        <time>2020-06-23T14:44:06.000Z</time>
        <extensions>
          <ns3:TrackPointExtension>
            <ns3:atemp>25.0</ns3:atemp>
            <ns3:hr>98</ns3:hr>
          </ns3:TrackPointExtension>
        </extensions>
      </trkpt>
      <trkpt lat="47.756597734987735748291015625" lon="12.2583846934139728546142578125">
        <ele>1531</ele>
        <time>2020-06-23T14:44:07.000Z</time>
        <extensions>
          <ns3:TrackPointExtension>
            <ns3:atemp>25.0</ns3:atemp>
            <ns3:hr>99</ns3:hr>
          </ns3:TrackPointExtension>
        </extensions>
      </trkpt>
      <trkpt lat="47.75662497617304325103759765625" lon="12.25830246694386005401611328125">
        <ele>1532.800048828125</ele>
        <time>2020-06-23T14:44:08.000Z</time>
        <extensions>
          <ns3:TrackPointExtension>
            <ns3:atemp>25.0</ns3:atemp>
            <ns3:hr>101</ns3:hr>
          </ns3:TrackPointExtension>
        </extensions>
      </trkpt>
      <trkpt lat="47.75663285516202449798583984375" lon="12.25820414721965789794921875">
        <ele>1534.5999755859375</ele>
        <time>2020-06-23T14:44:09.000Z</time>
        <extensions>
          <ns3:TrackPointExtension>
            <ns3:atemp>25.0</ns3:atemp>
            <ns3:hr>101</ns3:hr>
          </ns3:TrackPointExtension>
        </extensions>
      </trkpt>
      <trkpt lat="47.7566220425069332122802734375" lon="12.25809551775455474853515625">
        <ele>1536.800048828125</ele>
        <time>2020-06-23T14:44:10.000Z</time>
        <extensions>
          <ns3:TrackPointExtension>
            <ns3:atemp>25.0</ns3:atemp>
            <ns3:hr>102</ns3:hr>
          </ns3:TrackPointExtension>
        </extensions>
      </trkpt>
      <trkpt lat="47.756593041121959686279296875" lon="12.2579800151288509368896484375">
        <ele>1539.199951171875</ele>
        <time>2020-06-23T14:44:11.000Z</time>
        <extensions>
          <ns3:TrackPointExtension>
            <ns3:atemp>25.0</ns3:atemp>
            <ns3:hr>103</ns3:hr>
          </ns3:TrackPointExtension>
        </extensions>
      </trkpt>
      <trkpt lat="47.756546773016452789306640625" lon="12.25786107592284679412841796875">
        <ele>1541.4000244140625</ele>
        <time>2020-06-23T14:44:12.000Z</time>
        <extensions>
          <ns3:TrackPointExtension>
            <ns3:atemp>25.0</ns3:atemp>
            <ns3:hr>104</ns3:hr>
          </ns3:TrackPointExtension>
        </extensions>
      </trkpt>
      <trkpt lat="47.75648751296103000640869140625" lon="12.2577433101832866668701171875">
        <ele>1543.4000244140625</ele>
        <time>2020-06-23T14:44:13.000Z</time>
        <extensions>
          <ns3:TrackPointExtension>
            <ns3:atemp>25.0</ns3:atemp>
            <ns3:hr>104</ns3:hr>
          </ns3:TrackPointExtension>
        </extensions>
      </trkpt>
      <trkpt lat="47.75641970336437225341796875" lon="12.25762839429080486297607421875">
        <ele>1545.5999755859375</ele>
        <time>2020-06-23T14:44:14.000Z</time>
        <extensions>
          <ns3:TrackPointExtension>
            <ns3:atemp>25.0</ns3:atemp>
            <ns3:hr>104</ns3:hr>
          </ns3:TrackPointExtension>
        </extensions>
      </trkpt>
      <trkpt lat="47.75634820573031902313232421875" lon="12.257514484226703643798828125">
        <ele>1547.4000244140625</ele>
        <time>2020-06-23T14:44:15.000Z</time>
        <extensions>
          <ns3:TrackPointExtension>
            <ns3:atemp>25.0</ns3:atemp>
            <ns3:hr>104</ns3:hr>
          </ns3:TrackPointExtension>
        </extensions>
      </trkpt>
      <trkpt lat="47.75627561844885349273681640625" lon="12.25739738903939723968505859375">
        <ele>1549</ele>
        <time>2020-06-23T14:44:16.000Z</time>
        <extensions>
          <ns3:TrackPointExtension>
            <ns3:atemp>25.0</ns3:atemp>
            <ns3:hr>103</ns3:hr>
          </ns3:TrackPointExtension>
        </extensions>
      </trkpt>
      <trkpt lat="47.75620252825319766998291015625" lon="12.25727400742471218109130859375">
        <ele>1550.199951171875</ele>
        <time>2020-06-23T14:44:17.000Z</time>
        <extensions>
          <ns3:TrackPointExtension>
            <ns3:atemp>25.0</ns3:atemp>
            <ns3:hr>102</ns3:hr>
          </ns3:TrackPointExtension>
        </extensions>
      </trkpt>
      <trkpt lat="47.7561261691153049468994140625" lon="12.25715347565710544586181640625">
        <ele>1551.4000244140625</ele>
        <time>2020-06-23T14:44:18.000Z</time>
        <extensions>
          <ns3:TrackPointExtension>
            <ns3:atemp>25.0</ns3:atemp>
            <ns3:hr>102</ns3:hr>
          </ns3:TrackPointExtension>
        </extensions>
      </trkpt>
      <trkpt lat="47.756043188273906707763671875" lon="12.2570489533245563507080078125">
        <ele>1552</ele>
        <time>2020-06-23T14:44:19.000Z</time>
        <extensions>
          <ns3:TrackPointExtension>
            <ns3:atemp>25.0</ns3:atemp>
            <ns3:hr>103</ns3:hr>
          </ns3:TrackPointExtension>
        </extensions>
      </trkpt>
      <trkpt lat="47.7559528313577175140380859375" lon="12.25696303881704807281494140625">
        <ele>1552.4000244140625</ele>
        <time>2020-06-23T14:44:20.000Z</time>
        <extensions>
          <ns3:TrackPointExtension>
            <ns3:atemp>25.0</ns3:atemp>
            <ns3:hr>104</ns3:hr>
          </ns3:TrackPointExtension>
        </extensions>
      </trkpt>
      <trkpt lat="47.75585384108126163482666015625" lon="12.256886847317218780517578125">
        <ele>1552.5999755859375</ele>
        <time>2020-06-23T14:44:21.000Z</time>
        <extensions>
          <ns3:TrackPointExtension>
            <ns3:atemp>25.0</ns3:atemp>
            <ns3:hr>104</ns3:hr>
          </ns3:TrackPointExtension>
        </extensions>
      </trkpt>
      <trkpt lat="47.75553231127560138702392578125" lon="12.25668869912624359130859375">
        <ele>1552.199951171875</ele>
        <time>2020-06-23T14:44:24.000Z</time>
        <extensions>
          <ns3:TrackPointExtension>
            <ns3:atemp>25.0</ns3:atemp>
            <ns3:hr>102</ns3:hr>
          </ns3:TrackPointExtension>
        </extensions>
      </trkpt>
      <trkpt lat="47.75526979006826877593994140625" lon="12.25653874687850475311279296875">
        <ele>1552.4000244140625</ele>
        <time>2020-06-23T14:44:27.000Z</time>
        <extensions>
          <ns3:TrackPointExtension>
            <ns3:atemp>25.0</ns3:atemp>
            <ns3:hr>102</ns3:hr>
          </ns3:TrackPointExtension>
        </extensions>
      </trkpt>
      <trkpt lat="47.75511925108730792999267578125" lon="12.25637219846248626708984375">
        <ele>1552.5999755859375</ele>
        <time>2020-06-23T14:44:29.000Z</time>
        <extensions>
          <ns3:TrackPointExtension>
            <ns3:atemp>25.0</ns3:atemp>
            <ns3:hr>102</ns3:hr>
          </ns3:TrackPointExtension>
        </extensions>
      </trkpt>
      <trkpt lat="47.7550459094345569610595703125" lon="12.25626667030155658721923828125">
        <ele>1552.5999755859375</ele>
        <time>2020-06-23T14:44:30.000Z</time>
        <extensions>
          <ns3:TrackPointExtension>
            <ns3:atemp>25.0</ns3:atemp>
            <ns3:hr>102</ns3:hr>
          </ns3:TrackPointExtension>
        </extensions>
      </trkpt>
      <trkpt lat="47.7548350207507610321044921875" lon="12.25597531534731388092041015625">
        <ele>1551.199951171875</ele>
        <time>2020-06-23T14:44:33.000Z</time>
        <extensions>
          <ns3:TrackPointExtension>
            <ns3:atemp>25.0</ns3:atemp>
            <ns3:hr>102</ns3:hr>
          </ns3:TrackPointExtension>
        </extensions>
      </trkpt>
      <trkpt lat="47.75477207265794277191162109375" lon="12.2558815218508243560791015625">
        <ele>1551</ele>
        <time>2020-06-23T14:44:34.000Z</time>
        <extensions>
          <ns3:TrackPointExtension>
            <ns3:atemp>25.0</ns3:atemp>
            <ns3:hr>101</ns3:hr>
          </ns3:TrackPointExtension>
        </extensions>
      </trkpt>
      <trkpt lat="47.75458817370235919952392578125" lon="12.25560198538005352020263671875">
        <ele>1550</ele>
        <time>2020-06-23T14:44:37.000Z</time>
        <extensions>
          <ns3:TrackPointExtension>
            <ns3:atemp>25.0</ns3:atemp>
            <ns3:hr>102</ns3:hr>
          </ns3:TrackPointExtension>
        </extensions>
      </trkpt>
      <trkpt lat="47.7544628642499446868896484375" lon="12.25541523657739162445068359375">
        <ele>1548.800048828125</ele>
        <time>2020-06-23T14:44:39.000Z</time>
        <extensions>
          <ns3:TrackPointExtension>
            <ns3:atemp>25.0</ns3:atemp>
            <ns3:hr>106</ns3:hr>
          </ns3:TrackPointExtension>
        </extensions>
      </trkpt>
      <trkpt lat="47.754365466535091400146484375" lon="12.25517995655536651611328125">
        <ele>1547.4000244140625</ele>
        <time>2020-06-23T14:44:41.000Z</time>
        <extensions>
          <ns3:TrackPointExtension>
            <ns3:atemp>25.0</ns3:atemp>
            <ns3:hr>111</ns3:hr>
          </ns3:TrackPointExtension>
        </extensions>
      </trkpt>
      <trkpt lat="47.7543277479708194732666015625" lon="12.25506571121513843536376953125">
        <ele>1546.800048828125</ele>
        <time>2020-06-23T14:44:42.000Z</time>
        <extensions>
          <ns3:TrackPointExtension>
            <ns3:atemp>25.0</ns3:atemp>
            <ns3:hr>112</ns3:hr>
          </ns3:TrackPointExtension>
        </extensions>
      </trkpt>
      <trkpt lat="47.75426195003092288970947265625" lon="12.25486873649060726165771484375">
        <ele>1546.4000244140625</ele>
        <time>2020-06-23T14:44:44.000Z</time>
        <extensions>
          <ns3:TrackPointExtension>
            <ns3:atemp>25.0</ns3:atemp>
            <ns3:hr>112</ns3:hr>
          </ns3:TrackPointExtension>
        </extensions>
      </trkpt>
      <trkpt lat="47.7542030252516269683837890625" lon="12.25468198768794536590576171875">
        <ele>1546.4000244140625</ele>
        <time>2020-06-23T14:44:46.000Z</time>
        <extensions>
          <ns3:TrackPointExtension>
            <ns3:atemp>25.0</ns3:atemp>
            <ns3:hr>111</ns3:hr>
          </ns3:TrackPointExtension>
        </extensions>
      </trkpt>
      <trkpt lat="47.7540836669504642486572265625" lon="12.254370264708995819091796875">
        <ele>1546.4000244140625</ele>
        <time>2020-06-23T14:44:49.000Z</time>
        <extensions>
          <ns3:TrackPointExtension>
            <ns3:atemp>25.0</ns3:atemp>
            <ns3:hr>108</ns3:hr>
          </ns3:TrackPointExtension>
        </extensions>
      </trkpt>
      <trkpt lat="47.75403320789337158203125" lon="12.25426658056676387786865234375">
        <ele>1546.4000244140625</ele>
        <time>2020-06-23T14:44:50.000Z</time>
        <extensions>
          <ns3:TrackPointExtension>
            <ns3:atemp>24.0</ns3:atemp>
            <ns3:hr>109</ns3:hr>
          </ns3:TrackPointExtension>
        </extensions>
      </trkpt>
      <trkpt lat="47.7539270929992198944091796875" lon="12.25409525446593761444091796875">
        <ele>1546.4000244140625</ele>
        <time>2020-06-23T14:44:52.000Z</time>
        <extensions>
          <ns3:TrackPointExtension>
            <ns3:atemp>24.0</ns3:atemp>
            <ns3:hr>110</ns3:hr>
          </ns3:TrackPointExtension>
        </extensions>
      </trkpt>
      <trkpt lat="47.7538037113845348358154296875" lon="12.253959886729717254638671875">
        <ele>1546.4000244140625</ele>
        <time>2020-06-23T14:44:54.000Z</time>
        <extensions>
          <ns3:TrackPointExtension>
            <ns3:atemp>24.0</ns3:atemp>
            <ns3:hr>110</ns3:hr>
          </ns3:TrackPointExtension>
        </extensions>
      </trkpt>
      <trkpt lat="47.7536538429558277130126953125" lon="12.253802977502346038818359375">
        <ele>1546</ele>
        <time>2020-06-23T14:44:56.000Z</time>
        <extensions>
          <ns3:TrackPointExtension>
            <ns3:atemp>24.0</ns3:atemp>
            <ns3:hr>109</ns3:hr>
          </ns3:TrackPointExtension>
        </extensions>
      </trkpt>
      <trkpt lat="47.7535898052155971527099609375" lon="12.2537147998809814453125">
        <ele>1546</ele>
        <time>2020-06-23T14:44:57.000Z</time>
        <extensions>
          <ns3:TrackPointExtension>
            <ns3:atemp>24.0</ns3:atemp>
            <ns3:hr>108</ns3:hr>
          </ns3:TrackPointExtension>
        </extensions>
      </trkpt>
      <trkpt lat="47.75354110635817050933837890625" lon="12.2536303102970123291015625">
        <ele>1546</ele>
        <time>2020-06-23T14:44:58.000Z</time>
        <extensions>
          <ns3:TrackPointExtension>
            <ns3:atemp>24.0</ns3:atemp>
            <ns3:hr>106</ns3:hr>
          </ns3:TrackPointExtension>
        </extensions>
      </trkpt>
      <trkpt lat="47.7534659206867218017578125" lon="12.253483794629573822021484375">
        <ele>1546.800048828125</ele>
        <time>2020-06-23T14:45:00.000Z</time>
        <extensions>
          <ns3:TrackPointExtension>
            <ns3:atemp>24.0</ns3:atemp>
            <ns3:hr>105</ns3:hr>
          </ns3:TrackPointExtension>
        </extensions>
      </trkpt>
      <trkpt lat="47.75341889820992946624755859375" lon="12.25341179408133029937744140625">
        <ele>1548.199951171875</ele>
        <time>2020-06-23T14:45:01.000Z</time>
        <extensions>
          <ns3:TrackPointExtension>
            <ns3:atemp>24.0</ns3:atemp>
            <ns3:hr>105</ns3:hr>
          </ns3:TrackPointExtension>
        </extensions>
      </trkpt>
      <trkpt lat="47.75335871614515781402587890625" lon="12.25333585403859615325927734375">
        <ele>1549.5999755859375</ele>
        <time>2020-06-23T14:45:02.000Z</time>
        <extensions>
          <ns3:TrackPointExtension>
            <ns3:atemp>24.0</ns3:atemp>
            <ns3:hr>105</ns3:hr>
          </ns3:TrackPointExtension>
        </extensions>
      </trkpt>
      <trkpt lat="47.7532888948917388916015625" lon="12.2532574832439422607421875">
        <ele>1550.800048828125</ele>
        <time>2020-06-23T14:45:03.000Z</time>
        <extensions>
          <ns3:TrackPointExtension>
            <ns3:atemp>24.0</ns3:atemp>
            <ns3:hr>105</ns3:hr>
          </ns3:TrackPointExtension>
        </extensions>
      </trkpt>
      <trkpt lat="47.7532186545431613922119140625" lon="12.2531738318502902984619140625">
        <ele>1552.199951171875</ele>
        <time>2020-06-23T14:45:04.000Z</time>
        <extensions>
          <ns3:TrackPointExtension>
            <ns3:atemp>24.0</ns3:atemp>
            <ns3:hr>106</ns3:hr>
          </ns3:TrackPointExtension>
        </extensions>
      </trkpt>
      <trkpt lat="47.75309384800493717193603515625" lon="12.2530080378055572509765625">
        <ele>1554.199951171875</ele>
        <time>2020-06-23T14:45:06.000Z</time>
        <extensions>
          <ns3:TrackPointExtension>
            <ns3:atemp>24.0</ns3:atemp>
            <ns3:hr>102</ns3:hr>
          </ns3:TrackPointExtension>
        </extensions>
      </trkpt>
      <trkpt lat="47.753029055893421173095703125" lon="12.25293218158185482025146484375">
        <ele>1555.4000244140625</ele>
        <time>2020-06-23T14:45:07.000Z</time>
        <extensions>
          <ns3:TrackPointExtension>
            <ns3:atemp>24.0</ns3:atemp>
            <ns3:hr>101</ns3:hr>
          </ns3:TrackPointExtension>
        </extensions>
      </trkpt>
      <trkpt lat="47.7529554627835750579833984375" lon="12.2528546489775180816650390625">
        <ele>1556.4000244140625</ele>
        <time>2020-06-23T14:45:08.000Z</time>
        <extensions>
          <ns3:TrackPointExtension>
            <ns3:atemp>24.0</ns3:atemp>
            <ns3:hr>101</ns3:hr>
          </ns3:TrackPointExtension>
        </extensions>
      </trkpt>
      <trkpt lat="47.75280081667006015777587890625" lon="12.25266848690807819366455078125">
        <ele>1557.800048828125</ele>
        <time>2020-06-23T14:45:10.000Z</time>
        <extensions>
          <ns3:TrackPointExtension>
            <ns3:atemp>24.0</ns3:atemp>
            <ns3:hr>97</ns3:hr>
          </ns3:TrackPointExtension>
        </extensions>
      </trkpt>
      <trkpt lat="47.75272638536989688873291015625" lon="12.25256321020424365997314453125">
        <ele>1558.4000244140625</ele>
        <time>2020-06-23T14:45:11.000Z</time>
        <extensions>
          <ns3:TrackPointExtension>
            <ns3:atemp>24.0</ns3:atemp>
            <ns3:hr>96</ns3:hr>
          </ns3:TrackPointExtension>
        </extensions>
      </trkpt>
      <trkpt lat="47.7525781095027923583984375" lon="12.25237168371677398681640625">
        <ele>1559.199951171875</ele>
        <time>2020-06-23T14:45:13.000Z</time>
        <extensions>
          <ns3:TrackPointExtension>
            <ns3:atemp>24.0</ns3:atemp>
            <ns3:hr>97</ns3:hr>
          </ns3:TrackPointExtension>
        </extensions>
      </trkpt>
      <trkpt lat="47.752433605492115020751953125" lon="12.25218216888606548309326171875">
        <ele>1559.800048828125</ele>
        <time>2020-06-23T14:45:15.000Z</time>
        <extensions>
          <ns3:TrackPointExtension>
            <ns3:atemp>24.0</ns3:atemp>
            <ns3:hr>97</ns3:hr>
          </ns3:TrackPointExtension>
        </extensions>
      </trkpt>
      <trkpt lat="47.75236898101866245269775390625" lon="12.25207320414483547210693359375">
        <ele>1560</ele>
        <time>2020-06-23T14:45:16.000Z</time>
        <extensions>
          <ns3:TrackPointExtension>
            <ns3:atemp>24.0</ns3:atemp>
            <ns3:hr>97</ns3:hr>
          </ns3:TrackPointExtension>
        </extensions>
      </trkpt>
      <trkpt lat="47.7521823160350322723388671875" lon="12.25173943676054477691650390625">
        <ele>1559.800048828125</ele>
        <time>2020-06-23T14:45:19.000Z</time>
        <extensions>
          <ns3:TrackPointExtension>
            <ns3:atemp>24.0</ns3:atemp>
            <ns3:hr>100</ns3:hr>
          </ns3:TrackPointExtension>
        </extensions>
      </trkpt>
      <trkpt lat="47.7521290071308612823486328125" lon="12.2516221739351749420166015625">
        <ele>1560</ele>
        <time>2020-06-23T14:45:20.000Z</time>
        <extensions>
          <ns3:TrackPointExtension>
            <ns3:atemp>24.0</ns3:atemp>
            <ns3:hr>101</ns3:hr>
          </ns3:TrackPointExtension>
        </extensions>
      </trkpt>
      <trkpt lat="47.75208751671016216278076171875" lon="12.251500301063060760498046875">
        <ele>1560</ele>
        <time>2020-06-23T14:45:21.000Z</time>
        <extensions>
          <ns3:TrackPointExtension>
            <ns3:atemp>24.0</ns3:atemp>
            <ns3:hr>103</ns3:hr>
          </ns3:TrackPointExtension>
        </extensions>
      </trkpt>
      <trkpt lat="47.7520210482180118560791015625" lon="12.25123635493218898773193359375">
        <ele>1560.4000244140625</ele>
        <time>2020-06-23T14:45:23.000Z</time>
        <extensions>
          <ns3:TrackPointExtension>
            <ns3:atemp>24.0</ns3:atemp>
            <ns3:hr>104</ns3:hr>
          </ns3:TrackPointExtension>
        </extensions>
      </trkpt>
      <trkpt lat="47.75195457972586154937744140625" lon="12.25096411071717739105224609375">
        <ele>1560.800048828125</ele>
        <time>2020-06-23T14:45:25.000Z</time>
        <extensions>
          <ns3:TrackPointExtension>
            <ns3:atemp>24.0</ns3:atemp>
            <ns3:hr>104</ns3:hr>
          </ns3:TrackPointExtension>
        </extensions>
      </trkpt>
      <trkpt lat="47.7519228123128414154052734375" lon="12.25085615180432796478271484375">
        <ele>1561</ele>
        <time>2020-06-23T14:45:26.000Z</time>
        <extensions>
          <ns3:TrackPointExtension>
            <ns3:atemp>24.0</ns3:atemp>
            <ns3:hr>103</ns3:hr>
          </ns3:TrackPointExtension>
        </extensions>
      </trkpt>
      <trkpt lat="47.75183656252920627593994140625" lon="12.25069069303572177886962890625">
        <ele>1561.800048828125</ele>
        <time>2020-06-23T14:45:28.000Z</time>
        <extensions>
          <ns3:TrackPointExtension>
            <ns3:atemp>24.0</ns3:atemp>
            <ns3:hr>101</ns3:hr>
          </ns3:TrackPointExtension>
        </extensions>
      </trkpt>
      <trkpt lat="47.75163774378597736358642578125" lon="12.2504537366330623626708984375">
        <ele>1562.199951171875</ele>
        <time>2020-06-23T14:45:31.000Z</time>
        <extensions>
          <ns3:TrackPointExtension>
            <ns3:atemp>24.0</ns3:atemp>
            <ns3:hr>101</ns3:hr>
          </ns3:TrackPointExtension>
        </extensions>
      </trkpt>
      <trkpt lat="47.75154738686978816986083984375" lon="12.2503974102437496185302734375">
        <ele>1562.199951171875</ele>
        <time>2020-06-23T14:45:32.000Z</time>
        <extensions>
          <ns3:TrackPointExtension>
            <ns3:atemp>24.0</ns3:atemp>
            <ns3:hr>101</ns3:hr>
          </ns3:TrackPointExtension>
        </extensions>
      </trkpt>
      <trkpt lat="47.7514430321753025054931640625" lon="12.25037737749516963958740234375">
        <ele>1561.5999755859375</ele>
        <time>2020-06-23T14:45:33.000Z</time>
        <extensions>
          <ns3:TrackPointExtension>
            <ns3:atemp>24.0</ns3:atemp>
            <ns3:hr>101</ns3:hr>
          </ns3:TrackPointExtension>
        </extensions>
      </trkpt>
      <trkpt lat="47.75133297778666019439697265625" lon="12.25039816461503505706787109375">
        <ele>1560.4000244140625</ele>
        <time>2020-06-23T14:45:34.000Z</time>
        <extensions>
          <ns3:TrackPointExtension>
            <ns3:atemp>24.0</ns3:atemp>
            <ns3:hr>99</ns3:hr>
          </ns3:TrackPointExtension>
        </extensions>
      </trkpt>
      <trkpt lat="47.75122820399701595306396484375" lon="12.250448204576969146728515625">
        <ele>1558.800048828125</ele>
        <time>2020-06-23T14:45:35.000Z</time>
        <extensions>
          <ns3:TrackPointExtension>
            <ns3:atemp>24.0</ns3:atemp>
            <ns3:hr>97</ns3:hr>
          </ns3:TrackPointExtension>
        </extensions>
      </trkpt>
      <trkpt lat="47.75113281793892383575439453125" lon="12.25052104331552982330322265625">
        <ele>1556.800048828125</ele>
        <time>2020-06-23T14:45:36.000Z</time>
        <extensions>
          <ns3:TrackPointExtension>
            <ns3:atemp>24.0</ns3:atemp>
            <ns3:hr>96</ns3:hr>
          </ns3:TrackPointExtension>
        </extensions>
      </trkpt>
      <trkpt lat="47.7510534413158893585205078125" lon="12.25061810575425624847412109375">
        <ele>1555.199951171875</ele>
        <time>2020-06-23T14:45:37.000Z</time>
        <extensions>
          <ns3:TrackPointExtension>
            <ns3:atemp>24.0</ns3:atemp>
            <ns3:hr>96</ns3:hr>
          </ns3:TrackPointExtension>
        </extensions>
      </trkpt>
      <trkpt lat="47.751001305878162384033203125" lon="12.25073662586510181427001953125">
        <ele>1554</ele>
        <time>2020-06-23T14:45:38.000Z</time>
        <extensions>
          <ns3:TrackPointExtension>
            <ns3:atemp>24.0</ns3:atemp>
            <ns3:hr>97</ns3:hr>
          </ns3:TrackPointExtension>
        </extensions>
      </trkpt>
      <trkpt lat="47.7509790100157260894775390625" lon="12.25086696445941925048828125">
        <ele>1552.800048828125</ele>
        <time>2020-06-23T14:45:39.000Z</time>
        <extensions>
          <ns3:TrackPointExtension>
            <ns3:atemp>24.0</ns3:atemp>
            <ns3:hr>97</ns3:hr>
          </ns3:TrackPointExtension>
        </extensions>
      </trkpt>
      <trkpt lat="47.750983871519565582275390625" lon="12.2509965486824512481689453125">
        <ele>1551.800048828125</ele>
        <time>2020-06-23T14:45:40.000Z</time>
        <extensions>
          <ns3:TrackPointExtension>
            <ns3:atemp>24.0</ns3:atemp>
            <ns3:hr>98</ns3:hr>
          </ns3:TrackPointExtension>
        </extensions>
      </trkpt>
      <trkpt lat="47.7510024793446063995361328125" lon="12.25111817009747028350830078125">
        <ele>1551</ele>
        <time>2020-06-23T14:45:41.000Z</time>
        <extensions>
          <ns3:TrackPointExtension>
            <ns3:atemp>24.0</ns3:atemp>
            <ns3:hr>97</ns3:hr>
          </ns3:TrackPointExtension>
        </extensions>
      </trkpt>
      <trkpt lat="47.7510272897779941558837890625" lon="12.25122814066708087921142578125">
        <ele>1550.4000244140625</ele>
        <time>2020-06-23T14:45:42.000Z</time>
        <extensions>
          <ns3:TrackPointExtension>
            <ns3:atemp>24.0</ns3:atemp>
            <ns3:hr>98</ns3:hr>
          </ns3:TrackPointExtension>
        </extensions>
      </trkpt>
      <trkpt lat="47.75108252651989459991455078125" lon="12.25143316201865673065185546875">
        <ele>1548.199951171875</ele>
        <time>2020-06-23T14:45:44.000Z</time>
        <extensions>
          <ns3:TrackPointExtension>
            <ns3:atemp>24.0</ns3:atemp>
            <ns3:hr>101</ns3:hr>
          </ns3:TrackPointExtension>
        </extensions>
      </trkpt>
      <trkpt lat="47.75111169554293155670166015625" lon="12.25153810344636440277099609375">
        <ele>1547</ele>
        <time>2020-06-23T14:45:45.000Z</time>
        <extensions>
          <ns3:TrackPointExtension>
            <ns3:atemp>24.0</ns3:atemp>
            <ns3:hr>102</ns3:hr>
          </ns3:TrackPointExtension>
        </extensions>
      </trkpt>
      <trkpt lat="47.75114254094660282135009765625" lon="12.25164019502699375152587890625">
        <ele>1545.800048828125</ele>
        <time>2020-06-23T14:45:46.000Z</time>
        <extensions>
          <ns3:TrackPointExtension>
            <ns3:atemp>24.0</ns3:atemp>
            <ns3:hr>103</ns3:hr>
          </ns3:TrackPointExtension>
        </extensions>
      </trkpt>
      <trkpt lat="47.75122451595962047576904296875" lon="12.25185896269977092742919921875">
        <ele>1544.5999755859375</ele>
        <time>2020-06-23T14:45:48.000Z</time>
        <extensions>
          <ns3:TrackPointExtension>
            <ns3:atemp>24.0</ns3:atemp>
            <ns3:hr>104</ns3:hr>
          </ns3:TrackPointExtension>
        </extensions>
      </trkpt>
      <trkpt lat="47.75137941353023052215576171875" lon="12.25219071842730045318603515625">
        <ele>1544.4000244140625</ele>
        <time>2020-06-23T14:45:51.000Z</time>
        <extensions>
          <ns3:TrackPointExtension>
            <ns3:atemp>24.0</ns3:atemp>
            <ns3:hr>104</ns3:hr>
          </ns3:TrackPointExtension>
        </extensions>
      </trkpt>
      <trkpt lat="47.75142082013189792633056640625" lon="12.25230395793914794921875">
        <ele>1544.800048828125</ele>
        <time>2020-06-23T14:45:52.000Z</time>
        <extensions>
          <ns3:TrackPointExtension>
            <ns3:atemp>24.0</ns3:atemp>
            <ns3:hr>103</ns3:hr>
          </ns3:TrackPointExtension>
        </extensions>
      </trkpt>
      <trkpt lat="47.751460634171962738037109375" lon="12.25241267122328281402587890625">
        <ele>1545.800048828125</ele>
        <time>2020-06-23T14:45:53.000Z</time>
        <extensions>
          <ns3:TrackPointExtension>
            <ns3:atemp>24.0</ns3:atemp>
            <ns3:hr>103</ns3:hr>
          </ns3:TrackPointExtension>
        </extensions>
      </trkpt>
      <trkpt lat="47.751504890620708465576171875" lon="12.25250604562461376190185546875">
        <ele>1547.800048828125</ele>
        <time>2020-06-23T14:45:54.000Z</time>
        <extensions>
          <ns3:TrackPointExtension>
            <ns3:atemp>24.0</ns3:atemp>
            <ns3:hr>101</ns3:hr>
          </ns3:TrackPointExtension>
        </extensions>
      </trkpt>
      <trkpt lat="47.75155727751553058624267578125" lon="12.25258248858153820037841796875">
        <ele>1549.800048828125</ele>
        <time>2020-06-23T14:45:55.000Z</time>
        <extensions>
          <ns3:TrackPointExtension>
            <ns3:atemp>24.0</ns3:atemp>
            <ns3:hr>100</ns3:hr>
          </ns3:TrackPointExtension>
        </extensions>
      </trkpt>
      <trkpt lat="47.75161846540868282318115234375" lon="12.25264929234981536865234375">
        <ele>1551.800048828125</ele>
        <time>2020-06-23T14:45:56.000Z</time>
        <extensions>
          <ns3:TrackPointExtension>
            <ns3:atemp>24.0</ns3:atemp>
            <ns3:hr>100</ns3:hr>
          </ns3:TrackPointExtension>
        </extensions>
      </trkpt>
      <trkpt lat="47.75168158113956451416015625" lon="12.2527124918997287750244140625">
        <ele>1553.800048828125</ele>
        <time>2020-06-23T14:45:57.000Z</time>
        <extensions>
          <ns3:TrackPointExtension>
            <ns3:atemp>24.0</ns3:atemp>
            <ns3:hr>101</ns3:hr>
          </ns3:TrackPointExtension>
        </extensions>
      </trkpt>
      <trkpt lat="47.75173916481435298919677734375" lon="12.2527678124606609344482421875">
        <ele>1555.800048828125</ele>
        <time>2020-06-23T14:45:58.000Z</time>
        <extensions>
          <ns3:TrackPointExtension>
            <ns3:atemp>24.0</ns3:atemp>
            <ns3:hr>101</ns3:hr>
          </ns3:TrackPointExtension>
        </extensions>
      </trkpt>
      <trkpt lat="47.75179088115692138671875" lon="12.2528087161481380462646484375">
        <ele>1557.5999755859375</ele>
        <time>2020-06-23T14:45:59.000Z</time>
        <extensions>
          <ns3:TrackPointExtension>
            <ns3:atemp>24.0</ns3:atemp>
            <ns3:hr>101</ns3:hr>
          </ns3:TrackPointExtension>
        </extensions>
      </trkpt>
      <trkpt lat="47.7518460340797901153564453125" lon="12.25283570587635040283203125">
        <ele>1559.4000244140625</ele>
        <time>2020-06-23T14:46:00.000Z</time>
        <extensions>
          <ns3:TrackPointExtension>
            <ns3:atemp>24.0</ns3:atemp>
            <ns3:hr>102</ns3:hr>
          </ns3:TrackPointExtension>
        </extensions>
      </trkpt>
      <trkpt lat="47.75190663523972034454345703125" lon="12.2528536431491374969482421875">
        <ele>1561</ele>
        <time>2020-06-23T14:46:01.000Z</time>
        <extensions>
          <ns3:TrackPointExtension>
            <ns3:atemp>24.0</ns3:atemp>
            <ns3:hr>102</ns3:hr>
          </ns3:TrackPointExtension>
        </extensions>
      </trkpt>
      <trkpt lat="47.75196983478963375091552734375" lon="12.2528720833361148834228515625">
        <ele>1562.4000244140625</ele>
        <time>2020-06-23T14:46:02.000Z</time>
        <extensions>
          <ns3:TrackPointExtension>
            <ns3:atemp>24.0</ns3:atemp>
            <ns3:hr>103</ns3:hr>
          </ns3:TrackPointExtension>
        </extensions>
      </trkpt>
      <trkpt lat="47.7520307712256908416748046875" lon="12.25289781577885150909423828125">
        <ele>1563.199951171875</ele>
        <time>2020-06-23T14:46:03.000Z</time>
        <extensions>
          <ns3:TrackPointExtension>
            <ns3:atemp>24.0</ns3:atemp>
            <ns3:hr>104</ns3:hr>
          </ns3:TrackPointExtension>
        </extensions>
      </trkpt>
      <trkpt lat="47.752084247767925262451171875" lon="12.25292145274579524993896484375">
        <ele>1564</ele>
        <time>2020-06-23T14:46:04.000Z</time>
        <extensions>
          <ns3:TrackPointExtension>
            <ns3:atemp>24.0</ns3:atemp>
            <ns3:hr>105</ns3:hr>
          </ns3:TrackPointExtension>
        </extensions>
      </trkpt>
      <trkpt lat="47.75219497270882129669189453125" lon="12.25296151824295520782470703125">
        <ele>1564.5999755859375</ele>
        <time>2020-06-23T14:46:06.000Z</time>
        <extensions>
          <ns3:TrackPointExtension>
            <ns3:atemp>24.0</ns3:atemp>
            <ns3:hr>105</ns3:hr>
          </ns3:TrackPointExtension>
        </extensions>
      </trkpt>
      <trkpt lat="47.7522616088390350341796875" lon="12.2530014999210834503173828125">
        <ele>1564.5999755859375</ele>
        <time>2020-06-23T14:46:07.000Z</time>
        <extensions>
          <ns3:TrackPointExtension>
            <ns3:atemp>24.0</ns3:atemp>
            <ns3:hr>105</ns3:hr>
          </ns3:TrackPointExtension>
        </extensions>
      </trkpt>
      <trkpt lat="47.752329669892787933349609375" lon="12.25306930951774120330810546875">
        <ele>1564.199951171875</ele>
        <time>2020-06-23T14:46:08.000Z</time>
        <extensions>
          <ns3:TrackPointExtension>
            <ns3:atemp>24.0</ns3:atemp>
            <ns3:hr>105</ns3:hr>
          </ns3:TrackPointExtension>
        </extensions>
      </trkpt>
      <trkpt lat="47.752436287701129913330078125" lon="12.25321079604327678680419921875">
        <ele>1562.800048828125</ele>
        <time>2020-06-23T14:46:10.000Z</time>
        <extensions>
          <ns3:TrackPointExtension>
            <ns3:atemp>24.0</ns3:atemp>
            <ns3:hr>105</ns3:hr>
          </ns3:TrackPointExtension>
        </extensions>
      </trkpt>
      <trkpt lat="47.75259026326239109039306640625" lon="12.25333032198250293731689453125">
        <ele>1561.5999755859375</ele>
        <time>2020-06-23T14:46:13.000Z</time>
        <extensions>
          <ns3:TrackPointExtension>
            <ns3:atemp>24.0</ns3:atemp>
            <ns3:hr>104</ns3:hr>
          </ns3:TrackPointExtension>
        </extensions>
      </trkpt>
      <trkpt lat="47.7526426501572132110595703125" lon="12.2533486783504486083984375">
        <ele>1561.4000244140625</ele>
        <time>2020-06-23T14:46:14.000Z</time>
        <extensions>
          <ns3:TrackPointExtension>
            <ns3:atemp>24.0</ns3:atemp>
            <ns3:hr>104</ns3:hr>
          </ns3:TrackPointExtension>
        </extensions>
      </trkpt>
      <trkpt lat="47.7527392096817493438720703125" lon="12.2533488459885120391845703125">
        <ele>1560.5999755859375</ele>
        <time>2020-06-23T14:46:16.000Z</time>
        <extensions>
          <ns3:TrackPointExtension>
            <ns3:atemp>24.0</ns3:atemp>
            <ns3:hr>104</ns3:hr>
          </ns3:TrackPointExtension>
        </extensions>
      </trkpt>
      <trkpt lat="47.75282009504735469818115234375" lon="12.2533647716045379638671875">
        <ele>1560</ele>
        <time>2020-06-23T14:46:18.000Z</time>
        <extensions>
          <ns3:TrackPointExtension>
            <ns3:atemp>24.0</ns3:atemp>
            <ns3:hr>104</ns3:hr>
          </ns3:TrackPointExtension>
        </extensions>
      </trkpt>
      <trkpt lat="47.7529537864029407501220703125" lon="12.253459990024566650390625">
        <ele>1559.800048828125</ele>
        <time>2020-06-23T14:46:21.000Z</time>
        <extensions>
          <ns3:TrackPointExtension>
            <ns3:atemp>24.0</ns3:atemp>
            <ns3:hr>104</ns3:hr>
          </ns3:TrackPointExtension>
        </extensions>
      </trkpt>
      <trkpt lat="47.7529849670827388763427734375" lon="12.25350852124392986297607421875">
        <ele>1559.800048828125</ele>
        <time>2020-06-23T14:46:22.000Z</time>
        <extensions>
          <ns3:TrackPointExtension>
            <ns3:atemp>24.0</ns3:atemp>
            <ns3:hr>104</ns3:hr>
          </ns3:TrackPointExtension>
        </extensions>
      </trkpt>
      <trkpt lat="47.75300600565969944000244140625" lon="12.25356937386095523834228515625">
        <ele>1559.5999755859375</ele>
        <time>2020-06-23T14:46:23.000Z</time>
        <extensions>
          <ns3:TrackPointExtension>
            <ns3:atemp>24.0</ns3:atemp>
            <ns3:hr>104</ns3:hr>
          </ns3:TrackPointExtension>
        </extensions>
      </trkpt>
      <trkpt lat="47.75302662514150142669677734375" lon="12.25363793782889842987060546875">
        <ele>1559.199951171875</ele>
        <time>2020-06-23T14:46:24.000Z</time>
        <extensions>
          <ns3:TrackPointExtension>
            <ns3:atemp>24.0</ns3:atemp>
            <ns3:hr>103</ns3:hr>
          </ns3:TrackPointExtension>
        </extensions>
      </trkpt>
      <trkpt lat="47.753055207431316375732421875" lon="12.25371018983423709869384765625">
        <ele>1559</ele>
        <time>2020-06-23T14:46:25.000Z</time>
        <extensions>
          <ns3:TrackPointExtension>
            <ns3:atemp>24.0</ns3:atemp>
            <ns3:hr>102</ns3:hr>
          </ns3:TrackPointExtension>
        </extensions>
      </trkpt>
      <trkpt lat="47.75308311916887760162353515625" lon="12.25378881208598613739013671875">
        <ele>1558.4000244140625</ele>
        <time>2020-06-23T14:46:26.000Z</time>
        <extensions>
          <ns3:TrackPointExtension>
            <ns3:atemp>24.0</ns3:atemp>
            <ns3:hr>103</ns3:hr>
          </ns3:TrackPointExtension>
        </extensions>
      </trkpt>
      <trkpt lat="47.753104157745838165283203125" lon="12.2538789175450801849365234375">
        <ele>1557.4000244140625</ele>
        <time>2020-06-23T14:46:27.000Z</time>
        <extensions>
          <ns3:TrackPointExtension>
            <ns3:atemp>24.0</ns3:atemp>
            <ns3:hr>103</ns3:hr>
          </ns3:TrackPointExtension>
        </extensions>
      </trkpt>
      <trkpt lat="47.753114886581897735595703125" lon="12.2539781592786312103271484375">
        <ele>1556.4000244140625</ele>
        <time>2020-06-23T14:46:28.000Z</time>
        <extensions>
          <ns3:TrackPointExtension>
            <ns3:atemp>24.0</ns3:atemp>
            <ns3:hr>104</ns3:hr>
          </ns3:TrackPointExtension>
        </extensions>
      </trkpt>
      <trkpt lat="47.753124274313449859619140625" lon="12.25407916121184825897216796875">
        <ele>1555.5999755859375</ele>
        <time>2020-06-23T14:46:29.000Z</time>
        <extensions>
          <ns3:TrackPointExtension>
            <ns3:atemp>24.0</ns3:atemp>
            <ns3:hr>105</ns3:hr>
          </ns3:TrackPointExtension>
        </extensions>
      </trkpt>
      <trkpt lat="47.7531375177204608917236328125" lon="12.25417681038379669189453125">
        <ele>1554.5999755859375</ele>
        <time>2020-06-23T14:46:30.000Z</time>
        <extensions>
          <ns3:TrackPointExtension>
            <ns3:atemp>24.0</ns3:atemp>
            <ns3:hr>104</ns3:hr>
          </ns3:TrackPointExtension>
        </extensions>
      </trkpt>
      <trkpt lat="47.75315520353615283966064453125" lon="12.254269011318683624267578125">
        <ele>1553.199951171875</ele>
        <time>2020-06-23T14:46:31.000Z</time>
        <extensions>
          <ns3:TrackPointExtension>
            <ns3:atemp>24.0</ns3:atemp>
            <ns3:hr>103</ns3:hr>
          </ns3:TrackPointExtension>
        </extensions>
      </trkpt>
      <trkpt lat="47.7531713806092739105224609375" lon="12.2543613798916339874267578125">
        <ele>1551.800048828125</ele>
        <time>2020-06-23T14:46:32.000Z</time>
        <extensions>
          <ns3:TrackPointExtension>
            <ns3:atemp>24.0</ns3:atemp>
            <ns3:hr>102</ns3:hr>
          </ns3:TrackPointExtension>
        </extensions>
      </trkpt>
      <trkpt lat="47.753183953464031219482421875" lon="12.25445441901683807373046875">
        <ele>1550.5999755859375</ele>
        <time>2020-06-23T14:46:33.000Z</time>
        <extensions>
          <ns3:TrackPointExtension>
            <ns3:atemp>24.0</ns3:atemp>
            <ns3:hr>100</ns3:hr>
          </ns3:TrackPointExtension>
        </extensions>
      </trkpt>
      <trkpt lat="47.75319837033748626708984375" lon="12.25454418919980525970458984375">
        <ele>1549</ele>
        <time>2020-06-23T14:46:34.000Z</time>
        <extensions>
          <ns3:TrackPointExtension>
            <ns3:atemp>24.0</ns3:atemp>
            <ns3:hr>99</ns3:hr>
          </ns3:TrackPointExtension>
        </extensions>
      </trkpt>
      <trkpt lat="47.75322116911411285400390625" lon="12.2546306066215038299560546875">
        <ele>1547.199951171875</ele>
        <time>2020-06-23T14:46:35.000Z</time>
        <extensions>
          <ns3:TrackPointExtension>
            <ns3:atemp>24.0</ns3:atemp>
            <ns3:hr>98</ns3:hr>
          </ns3:TrackPointExtension>
        </extensions>
      </trkpt>
      <trkpt lat="47.75325394235551357269287109375" lon="12.254716940224170684814453125">
        <ele>1545.4000244140625</ele>
        <time>2020-06-23T14:46:36.000Z</time>
        <extensions>
          <ns3:TrackPointExtension>
            <ns3:atemp>24.0</ns3:atemp>
            <ns3:hr>99</ns3:hr>
          </ns3:TrackPointExtension>
        </extensions>
      </trkpt>
      <trkpt lat="47.75328797288239002227783203125" lon="12.25480201654136180877685546875">
        <ele>1543.4000244140625</ele>
        <time>2020-06-23T14:46:37.000Z</time>
        <extensions>
          <ns3:TrackPointExtension>
            <ns3:atemp>24.0</ns3:atemp>
            <ns3:hr>99</ns3:hr>
          </ns3:TrackPointExtension>
        </extensions>
      </trkpt>
      <trkpt lat="47.75332015939056873321533203125" lon="12.25488533265888690948486328125">
        <ele>1541.4000244140625</ele>
        <time>2020-06-23T14:46:38.000Z</time>
        <extensions>
          <ns3:TrackPointExtension>
            <ns3:atemp>24.0</ns3:atemp>
            <ns3:hr>99</ns3:hr>
          </ns3:TrackPointExtension>
        </extensions>
      </trkpt>
      <trkpt lat="47.7533504180610179901123046875" lon="12.25495255552232265472412109375">
        <ele>1539.4000244140625</ele>
        <time>2020-06-23T14:46:39.000Z</time>
        <extensions>
          <ns3:TrackPointExtension>
            <ns3:atemp>24.0</ns3:atemp>
            <ns3:hr>99</ns3:hr>
          </ns3:TrackPointExtension>
        </extensions>
      </trkpt>
      <trkpt lat="47.75338050909340381622314453125" lon="12.25499086081981658935546875">
        <ele>1537.5999755859375</ele>
        <time>2020-06-23T14:46:40.000Z</time>
        <extensions>
          <ns3:TrackPointExtension>
            <ns3:atemp>24.0</ns3:atemp>
            <ns3:hr>99</ns3:hr>
          </ns3:TrackPointExtension>
        </extensions>
      </trkpt>
      <trkpt lat="47.75340967811644077301025390625" lon="12.2549927048385143280029296875">
        <ele>1536.199951171875</ele>
        <time>2020-06-23T14:46:41.000Z</time>
        <extensions>
          <ns3:TrackPointExtension>
            <ns3:atemp>24.0</ns3:atemp>
            <ns3:hr>99</ns3:hr>
          </ns3:TrackPointExtension>
        </extensions>
      </trkpt>
      <trkpt lat="47.75343331508338451385498046875" lon="12.254956997931003570556640625">
        <ele>1535.199951171875</ele>
        <time>2020-06-23T14:46:42.000Z</time>
        <extensions>
          <ns3:TrackPointExtension>
            <ns3:atemp>24.0</ns3:atemp>
            <ns3:hr>99</ns3:hr>
          </ns3:TrackPointExtension>
        </extensions>
      </trkpt>
      <trkpt lat="47.75344655849039554595947265625" lon="12.25488851778209209442138671875">
        <ele>1534.4000244140625</ele>
        <time>2020-06-23T14:46:43.000Z</time>
        <extensions>
          <ns3:TrackPointExtension>
            <ns3:atemp>24.0</ns3:atemp>
            <ns3:hr>99</ns3:hr>
          </ns3:TrackPointExtension>
        </extensions>
      </trkpt>
      <trkpt lat="47.7534416131675243377685546875" lon="12.25479966960847377777099609375">
        <ele>1533.4000244140625</ele>
        <time>2020-06-23T14:46:44.000Z</time>
        <extensions>
          <ns3:TrackPointExtension>
            <ns3:atemp>24.0</ns3:atemp>
            <ns3:hr>98</ns3:hr>
          </ns3:TrackPointExtension>
        </extensions>
      </trkpt>
      <trkpt lat="47.753408253192901611328125" lon="12.25468819029629230499267578125">
        <ele>1532.199951171875</ele>
        <time>2020-06-23T14:46:45.000Z</time>
        <extensions>
          <ns3:TrackPointExtension>
            <ns3:atemp>24.0</ns3:atemp>
            <ns3:hr>97</ns3:hr>
          </ns3:TrackPointExtension>
        </extensions>
      </trkpt>
      <trkpt lat="47.75333516299724578857421875" lon="12.25457000546157360076904296875">
        <ele>1531.199951171875</ele>
        <time>2020-06-23T14:46:46.000Z</time>
        <extensions>
          <ns3:TrackPointExtension>
            <ns3:atemp>24.0</ns3:atemp>
            <ns3:hr>97</ns3:hr>
          </ns3:TrackPointExtension>
        </extensions>
      </trkpt>
      <trkpt lat="47.75323885492980480194091796875" lon="12.2544713504612445831298828125">
        <ele>1530</ele>
        <time>2020-06-23T14:46:47.000Z</time>
        <extensions>
          <ns3:TrackPointExtension>
            <ns3:atemp>24.0</ns3:atemp>
            <ns3:hr>97</ns3:hr>
          </ns3:TrackPointExtension>
        </extensions>
      </trkpt>
      <trkpt lat="47.7531334944069385528564453125" lon="12.254393734037876129150390625">
        <ele>1528.4000244140625</ele>
        <time>2020-06-23T14:46:48.000Z</time>
        <extensions>
          <ns3:TrackPointExtension>
            <ns3:atemp>24.0</ns3:atemp>
            <ns3:hr>97</ns3:hr>
          </ns3:TrackPointExtension>
        </extensions>
      </trkpt>
      <trkpt lat="47.75303031317889690399169921875" lon="12.25433933548629283905029296875">
        <ele>1527</ele>
        <time>2020-06-23T14:46:49.000Z</time>
        <extensions>
          <ns3:TrackPointExtension>
            <ns3:atemp>24.0</ns3:atemp>
            <ns3:hr>97</ns3:hr>
          </ns3:TrackPointExtension>
        </extensions>
      </trkpt>
      <trkpt lat="47.75293023325502872467041015625" lon="12.25428937934339046478271484375">
        <ele>1525.4000244140625</ele>
        <time>2020-06-23T14:46:50.000Z</time>
        <extensions>
          <ns3:TrackPointExtension>
            <ns3:atemp>24.0</ns3:atemp>
            <ns3:hr>98</ns3:hr>
          </ns3:TrackPointExtension>
        </extensions>
      </trkpt>
      <trkpt lat="47.752826549112796783447265625" lon="12.25424646399915218353271484375">
        <ele>1523.5999755859375</ele>
        <time>2020-06-23T14:46:51.000Z</time>
        <extensions>
          <ns3:TrackPointExtension>
            <ns3:atemp>24.0</ns3:atemp>
            <ns3:hr>99</ns3:hr>
          </ns3:TrackPointExtension>
        </extensions>
      </trkpt>
      <trkpt lat="47.75271666236221790313720703125" lon="12.25420338101685047149658203125">
        <ele>1522</ele>
        <time>2020-06-23T14:46:52.000Z</time>
        <extensions>
          <ns3:TrackPointExtension>
            <ns3:atemp>24.0</ns3:atemp>
            <ns3:hr>98</ns3:hr>
          </ns3:TrackPointExtension>
        </extensions>
      </trkpt>
      <trkpt lat="47.7526049315929412841796875" lon="12.2541508264839649200439453125">
        <ele>1520.4000244140625</ele>
        <time>2020-06-23T14:46:53.000Z</time>
        <extensions>
          <ns3:TrackPointExtension>
            <ns3:atemp>24.0</ns3:atemp>
            <ns3:hr>98</ns3:hr>
          </ns3:TrackPointExtension>
        </extensions>
      </trkpt>
      <trkpt lat="47.752496302127838134765625" lon="12.2540837712585926055908203125">
        <ele>1518.199951171875</ele>
        <time>2020-06-23T14:46:54.000Z</time>
        <extensions>
          <ns3:TrackPointExtension>
            <ns3:atemp>24.0</ns3:atemp>
            <ns3:hr>100</ns3:hr>
          </ns3:TrackPointExtension>
        </extensions>
      </trkpt>
      <trkpt lat="47.7523958869278430938720703125" lon="12.25401009432971477508544921875">
        <ele>1516</ele>
        <time>2020-06-23T14:46:55.000Z</time>
        <extensions>
          <ns3:TrackPointExtension>
            <ns3:atemp>24.0</ns3:atemp>
            <ns3:hr>101</ns3:hr>
          </ns3:TrackPointExtension>
        </extensions>
      </trkpt>
      <trkpt lat="47.75230226106941699981689453125" lon="12.25393767468631267547607421875">
        <ele>1514</ele>
        <time>2020-06-23T14:46:56.000Z</time>
        <extensions>
          <ns3:TrackPointExtension>
            <ns3:atemp>24.0</ns3:atemp>
            <ns3:hr>102</ns3:hr>
          </ns3:TrackPointExtension>
        </extensions>
      </trkpt>
      <trkpt lat="47.752211987972259521484375" lon="12.2538658417761325836181640625">
        <ele>1512.4000244140625</ele>
        <time>2020-06-23T14:46:57.000Z</time>
        <extensions>
          <ns3:TrackPointExtension>
            <ns3:atemp>24.0</ns3:atemp>
            <ns3:hr>102</ns3:hr>
          </ns3:TrackPointExtension>
        </extensions>
      </trkpt>
      <trkpt lat="47.75212674401700496673583984375" lon="12.25378545932471752166748046875">
        <ele>1511.199951171875</ele>
        <time>2020-06-23T14:46:58.000Z</time>
        <extensions>
          <ns3:TrackPointExtension>
            <ns3:atemp>24.0</ns3:atemp>
            <ns3:hr>102</ns3:hr>
          </ns3:TrackPointExtension>
        </extensions>
      </trkpt>
      <trkpt lat="47.75199078954756259918212890625" lon="12.2535862214863300323486328125">
        <ele>1509.5999755859375</ele>
        <time>2020-06-23T14:47:00.000Z</time>
        <extensions>
          <ns3:TrackPointExtension>
            <ns3:atemp>24.0</ns3:atemp>
            <ns3:hr>102</ns3:hr>
          </ns3:TrackPointExtension>
        </extensions>
      </trkpt>
      <trkpt lat="47.751938737928867340087890625" lon="12.2534869797527790069580078125">
        <ele>1509.199951171875</ele>
        <time>2020-06-23T14:47:01.000Z</time>
        <extensions>
          <ns3:TrackPointExtension>
            <ns3:atemp>24.0</ns3:atemp>
            <ns3:hr>102</ns3:hr>
          </ns3:TrackPointExtension>
        </extensions>
      </trkpt>
      <trkpt lat="47.7518405020236968994140625" lon="12.25329679436981678009033203125">
        <ele>1508.4000244140625</ele>
        <time>2020-06-23T14:47:03.000Z</time>
        <extensions>
          <ns3:TrackPointExtension>
            <ns3:atemp>24.0</ns3:atemp>
            <ns3:hr>102</ns3:hr>
          </ns3:TrackPointExtension>
        </extensions>
      </trkpt>
      <trkpt lat="47.751730196177959442138671875" lon="12.2530789487063884735107421875">
        <ele>1507.4000244140625</ele>
        <time>2020-06-23T14:47:05.000Z</time>
        <extensions>
          <ns3:TrackPointExtension>
            <ns3:atemp>24.0</ns3:atemp>
            <ns3:hr>101</ns3:hr>
          </ns3:TrackPointExtension>
        </extensions>
      </trkpt>
      <trkpt lat="47.75166322477161884307861328125" lon="12.25297249853610992431640625">
        <ele>1506.800048828125</ele>
        <time>2020-06-23T14:47:06.000Z</time>
        <extensions>
          <ns3:TrackPointExtension>
            <ns3:atemp>24.0</ns3:atemp>
            <ns3:hr>99</ns3:hr>
          </ns3:TrackPointExtension>
        </extensions>
      </trkpt>
      <trkpt lat="47.7515939064323902130126953125" lon="12.25287602283060550689697265625">
        <ele>1506.4000244140625</ele>
        <time>2020-06-23T14:47:07.000Z</time>
        <extensions>
          <ns3:TrackPointExtension>
            <ns3:atemp>24.0</ns3:atemp>
            <ns3:hr>102</ns3:hr>
          </ns3:TrackPointExtension>
        </extensions>
      </trkpt>
      <trkpt lat="47.75152877904474735260009765625" lon="12.25278650410473346710205078125">
        <ele>1506</ele>
        <time>2020-06-23T14:47:08.000Z</time>
        <extensions>
          <ns3:TrackPointExtension>
            <ns3:atemp>24.0</ns3:atemp>
            <ns3:hr>102</ns3:hr>
          </ns3:TrackPointExtension>
        </extensions>
      </trkpt>
      <trkpt lat="47.75140070356428623199462890625" lon="12.25260503590106964111328125">
        <ele>1505.800048828125</ele>
        <time>2020-06-23T14:47:10.000Z</time>
        <extensions>
          <ns3:TrackPointExtension>
            <ns3:atemp>24.0</ns3:atemp>
            <ns3:hr>105</ns3:hr>
          </ns3:TrackPointExtension>
        </extensions>
      </trkpt>
      <trkpt lat="47.75132954120635986328125" lon="12.25251660682260990142822265625">
        <ele>1506</ele>
        <time>2020-06-23T14:47:11.000Z</time>
        <extensions>
          <ns3:TrackPointExtension>
            <ns3:atemp>24.0</ns3:atemp>
            <ns3:hr>106</ns3:hr>
          </ns3:TrackPointExtension>
        </extensions>
      </trkpt>
      <trkpt lat="47.75118981488049030303955078125" lon="12.25235165096819400787353515625">
        <ele>1506.4000244140625</ele>
        <time>2020-06-23T14:47:13.000Z</time>
        <extensions>
          <ns3:TrackPointExtension>
            <ns3:atemp>24.0</ns3:atemp>
            <ns3:hr>106</ns3:hr>
          </ns3:TrackPointExtension>
        </extensions>
      </trkpt>
      <trkpt lat="47.751088477671146392822265625" lon="12.25216490216553211212158203125">
        <ele>1506.5999755859375</ele>
        <time>2020-06-23T14:47:15.000Z</time>
        <extensions>
          <ns3:TrackPointExtension>
            <ns3:atemp>24.0</ns3:atemp>
            <ns3:hr>105</ns3:hr>
          </ns3:TrackPointExtension>
        </extensions>
      </trkpt>
      <trkpt lat="47.750989906489849090576171875" lon="12.251852340996265411376953125">
        <ele>1506.5999755859375</ele>
        <time>2020-06-23T14:47:18.000Z</time>
        <extensions>
          <ns3:TrackPointExtension>
            <ns3:atemp>24.0</ns3:atemp>
            <ns3:hr>104</ns3:hr>
          </ns3:TrackPointExtension>
        </extensions>
      </trkpt>
      <trkpt lat="47.75097708217799663543701171875" lon="12.25175251252949237823486328125">
        <ele>1506.4000244140625</ele>
        <time>2020-06-23T14:47:19.000Z</time>
        <extensions>
          <ns3:TrackPointExtension>
            <ns3:atemp>24.0</ns3:atemp>
            <ns3:hr>104</ns3:hr>
          </ns3:TrackPointExtension>
        </extensions>
      </trkpt>
      <trkpt lat="47.75095109827816486358642578125" lon="12.2515581361949443817138671875">
        <ele>1505.5999755859375</ele>
        <time>2020-06-23T14:47:21.000Z</time>
        <extensions>
          <ns3:TrackPointExtension>
            <ns3:atemp>24.0</ns3:atemp>
            <ns3:hr>103</ns3:hr>
          </ns3:TrackPointExtension>
        </extensions>
      </trkpt>
      <trkpt lat="47.75088253431022167205810546875" lon="12.25134129635989665985107421875">
        <ele>1504.800048828125</ele>
        <time>2020-06-23T14:47:23.000Z</time>
        <extensions>
          <ns3:TrackPointExtension>
            <ns3:atemp>24.0</ns3:atemp>
            <ns3:hr>102</ns3:hr>
          </ns3:TrackPointExtension>
        </extensions>
      </trkpt>
      <trkpt lat="47.75076284073293209075927734375" lon="12.25094064138829708099365234375">
        <ele>1504</ele>
        <time>2020-06-23T14:47:27.000Z</time>
        <extensions>
          <ns3:TrackPointExtension>
            <ns3:atemp>24.0</ns3:atemp>
            <ns3:hr>104</ns3:hr>
          </ns3:TrackPointExtension>
        </extensions>
      </trkpt>
      <trkpt lat="47.75072805583477020263671875" lon="12.2508339397609233856201171875">
        <ele>1503.800048828125</ele>
        <time>2020-06-23T14:47:28.000Z</time>
        <extensions>
          <ns3:TrackPointExtension>
            <ns3:atemp>24.0</ns3:atemp>
            <ns3:hr>104</ns3:hr>
          </ns3:TrackPointExtension>
        </extensions>
      </trkpt>
      <trkpt lat="47.7506135590374469757080078125" lon="12.250525318086147308349609375">
        <ele>1503.4000244140625</ele>
        <time>2020-06-23T14:47:31.000Z</time>
        <extensions>
          <ns3:TrackPointExtension>
            <ns3:atemp>24.0</ns3:atemp>
            <ns3:hr>104</ns3:hr>
          </ns3:TrackPointExtension>
        </extensions>
      </trkpt>
      <trkpt lat="47.75056251324713230133056640625" lon="12.25043605081737041473388671875">
        <ele>1503.199951171875</ele>
        <time>2020-06-23T14:47:32.000Z</time>
        <extensions>
          <ns3:TrackPointExtension>
            <ns3:atemp>24.0</ns3:atemp>
            <ns3:hr>104</ns3:hr>
          </ns3:TrackPointExtension>
        </extensions>
      </trkpt>
      <trkpt lat="47.75030703283846378326416015625" lon="12.25012307055294513702392578125">
        <ele>1502.4000244140625</ele>
        <time>2020-06-23T14:47:36.000Z</time>
        <extensions>
          <ns3:TrackPointExtension>
            <ns3:atemp>24.0</ns3:atemp>
            <ns3:hr>104</ns3:hr>
          </ns3:TrackPointExtension>
        </extensions>
      </trkpt>
      <trkpt lat="47.750175856053829193115234375" lon="12.2499377466738224029541015625">
        <ele>1501</ele>
        <time>2020-06-23T14:47:38.000Z</time>
        <extensions>
          <ns3:TrackPointExtension>
            <ns3:atemp>24.0</ns3:atemp>
            <ns3:hr>105</ns3:hr>
          </ns3:TrackPointExtension>
        </extensions>
      </trkpt>
      <trkpt lat="47.75006982497870922088623046875" lon="12.24972568452358245849609375">
        <ele>1500.199951171875</ele>
        <time>2020-06-23T14:47:40.000Z</time>
        <extensions>
          <ns3:TrackPointExtension>
            <ns3:atemp>24.0</ns3:atemp>
            <ns3:hr>105</ns3:hr>
          </ns3:TrackPointExtension>
        </extensions>
      </trkpt>
      <trkpt lat="47.74990956299006938934326171875" lon="12.24932393990457057952880859375">
        <ele>1502</ele>
        <time>2020-06-23T14:47:44.000Z</time>
        <extensions>
          <ns3:TrackPointExtension>
            <ns3:atemp>24.0</ns3:atemp>
            <ns3:hr>107</ns3:hr>
          </ns3:TrackPointExtension>
        </extensions>
      </trkpt>
      <trkpt lat="47.749893553555011749267578125" lon="12.249222099781036376953125">
        <ele>1502.5999755859375</ele>
        <time>2020-06-23T14:47:45.000Z</time>
        <extensions>
          <ns3:TrackPointExtension>
            <ns3:atemp>24.0</ns3:atemp>
            <ns3:hr>107</ns3:hr>
          </ns3:TrackPointExtension>
        </extensions>
      </trkpt>
      <trkpt lat="47.7498930506408214569091796875" lon="12.2491247020661830902099609375">
        <ele>1503</ele>
        <time>2020-06-23T14:47:46.000Z</time>
        <extensions>
          <ns3:TrackPointExtension>
            <ns3:atemp>24.0</ns3:atemp>
            <ns3:hr>107</ns3:hr>
          </ns3:TrackPointExtension>
        </extensions>
      </trkpt>
      <trkpt lat="47.74994392879307270050048828125" lon="12.24895329214632511138916015625">
        <ele>1503.199951171875</ele>
        <time>2020-06-23T14:47:48.000Z</time>
        <extensions>
          <ns3:TrackPointExtension>
            <ns3:atemp>24.0</ns3:atemp>
            <ns3:hr>106</ns3:hr>
          </ns3:TrackPointExtension>
        </extensions>
      </trkpt>
      <trkpt lat="47.75005440227687358856201171875" lon="12.24887617863714694976806640625">
        <ele>1503.199951171875</ele>
        <time>2020-06-23T14:47:50.000Z</time>
        <extensions>
          <ns3:TrackPointExtension>
            <ns3:atemp>23.0</ns3:atemp>
            <ns3:hr>106</ns3:hr>
          </ns3:TrackPointExtension>
        </extensions>
      </trkpt>
      <trkpt lat="47.75018515996634960174560546875" lon="12.2489436529576778411865234375">
        <ele>1501.5999755859375</ele>
        <time>2020-06-23T14:47:52.000Z</time>
        <extensions>
          <ns3:TrackPointExtension>
            <ns3:atemp>23.0</ns3:atemp>
            <ns3:hr>105</ns3:hr>
          </ns3:TrackPointExtension>
        </extensions>
      </trkpt>
      <trkpt lat="47.75022908113896846771240234375" lon="12.24901280365884304046630859375">
        <ele>1500.4000244140625</ele>
        <time>2020-06-23T14:47:53.000Z</time>
        <extensions>
          <ns3:TrackPointExtension>
            <ns3:atemp>23.0</ns3:atemp>
            <ns3:hr>107</ns3:hr>
          </ns3:TrackPointExtension>
        </extensions>
      </trkpt>
      <trkpt lat="47.75025623850524425506591796875" lon="12.24909226410090923309326171875">
        <ele>1499.199951171875</ele>
        <time>2020-06-23T14:47:54.000Z</time>
        <extensions>
          <ns3:TrackPointExtension>
            <ns3:atemp>23.0</ns3:atemp>
            <ns3:hr>106</ns3:hr>
          </ns3:TrackPointExtension>
        </extensions>
      </trkpt>
      <trkpt lat="47.750276438891887664794921875" lon="12.24918345920741558074951171875">
        <ele>1498.4000244140625</ele>
        <time>2020-06-23T14:47:55.000Z</time>
        <extensions>
          <ns3:TrackPointExtension>
            <ns3:atemp>23.0</ns3:atemp>
            <ns3:hr>105</ns3:hr>
          </ns3:TrackPointExtension>
        </extensions>
      </trkpt>
      <trkpt lat="47.7502928674221038818359375" lon="12.24928672425448894500732421875">
        <ele>1497.800048828125</ele>
        <time>2020-06-23T14:47:56.000Z</time>
        <extensions>
          <ns3:TrackPointExtension>
            <ns3:atemp>23.0</ns3:atemp>
            <ns3:hr>106</ns3:hr>
          </ns3:TrackPointExtension>
        </extensions>
      </trkpt>
      <trkpt lat="47.7503035962581634521484375" lon="12.24940055049955844879150390625">
        <ele>1497.199951171875</ele>
        <time>2020-06-23T14:47:57.000Z</time>
        <extensions>
          <ns3:TrackPointExtension>
            <ns3:atemp>23.0</ns3:atemp>
            <ns3:hr>105</ns3:hr>
          </ns3:TrackPointExtension>
        </extensions>
      </trkpt>
      <trkpt lat="47.75030502118170261383056640625" lon="12.24952544085681438446044921875">
        <ele>1496.4000244140625</ele>
        <time>2020-06-23T14:47:58.000Z</time>
        <extensions>
          <ns3:TrackPointExtension>
            <ns3:atemp>23.0</ns3:atemp>
            <ns3:hr>105</ns3:hr>
          </ns3:TrackPointExtension>
        </extensions>
      </trkpt>
      <trkpt lat="47.75029890239238739013671875" lon="12.249654270708560943603515625">
        <ele>1495.199951171875</ele>
        <time>2020-06-23T14:47:59.000Z</time>
        <extensions>
          <ns3:TrackPointExtension>
            <ns3:atemp>23.0</ns3:atemp>
            <ns3:hr>106</ns3:hr>
          </ns3:TrackPointExtension>
        </extensions>
      </trkpt>
      <trkpt lat="47.7502910234034061431884765625" lon="12.24978335201740264892578125">
        <ele>1494</ele>
        <time>2020-06-23T14:48:00.000Z</time>
        <extensions>
          <ns3:TrackPointExtension>
            <ns3:atemp>23.0</ns3:atemp>
            <ns3:hr>107</ns3:hr>
          </ns3:TrackPointExtension>
        </extensions>
      </trkpt>
      <trkpt lat="47.75028976611793041229248046875" lon="12.2500517405569553375244140625">
        <ele>1492.4000244140625</ele>
        <time>2020-06-23T14:48:02.000Z</time>
        <extensions>
          <ns3:TrackPointExtension>
            <ns3:atemp>23.0</ns3:atemp>
            <ns3:hr>107</ns3:hr>
          </ns3:TrackPointExtension>
        </extensions>
      </trkpt>
      <trkpt lat="47.75029596872627735137939453125" lon="12.2501885332167148590087890625">
        <ele>1491.800048828125</ele>
        <time>2020-06-23T14:48:03.000Z</time>
        <extensions>
          <ns3:TrackPointExtension>
            <ns3:atemp>23.0</ns3:atemp>
            <ns3:hr>106</ns3:hr>
          </ns3:TrackPointExtension>
        </extensions>
      </trkpt>
      <trkpt lat="47.75029915384948253631591796875" lon="12.25032138638198375701904296875">
        <ele>1491</ele>
        <time>2020-06-23T14:48:04.000Z</time>
        <extensions>
          <ns3:TrackPointExtension>
            <ns3:atemp>23.0</ns3:atemp>
            <ns3:hr>106</ns3:hr>
          </ns3:TrackPointExtension>
        </extensions>
      </trkpt>
      <trkpt lat="47.75031239725649356842041015625" lon="12.2506891004741191864013671875">
        <ele>1489.5999755859375</ele>
        <time>2020-06-23T14:48:07.000Z</time>
        <extensions>
          <ns3:TrackPointExtension>
            <ns3:atemp>23.0</ns3:atemp>
            <ns3:hr>108</ns3:hr>
          </ns3:TrackPointExtension>
        </extensions>
      </trkpt>
      <trkpt lat="47.75034525431692600250244140625" lon="12.2509251348674297332763671875">
        <ele>1488.4000244140625</ele>
        <time>2020-06-23T14:48:09.000Z</time>
        <extensions>
          <ns3:TrackPointExtension>
            <ns3:atemp>23.0</ns3:atemp>
            <ns3:hr>108</ns3:hr>
          </ns3:TrackPointExtension>
        </extensions>
      </trkpt>
      <trkpt lat="47.75036805309355258941650390625" lon="12.251029573380947113037109375">
        <ele>1487.800048828125</ele>
        <time>2020-06-23T14:48:10.000Z</time>
        <extensions>
          <ns3:TrackPointExtension>
            <ns3:atemp>23.0</ns3:atemp>
            <ns3:hr>108</ns3:hr>
          </ns3:TrackPointExtension>
        </extensions>
      </trkpt>
      <trkpt lat="47.75039906613528728485107421875" lon="12.251124791800975799560546875">
        <ele>1486.4000244140625</ele>
        <time>2020-06-23T14:48:11.000Z</time>
        <extensions>
          <ns3:TrackPointExtension>
            <ns3:atemp>24.0</ns3:atemp>
            <ns3:hr>108</ns3:hr>
          </ns3:TrackPointExtension>
        </extensions>
      </trkpt>
      <trkpt lat="47.75052420794963836669921875" lon="12.25140902213752269744873046875">
        <ele>1485</ele>
        <time>2020-06-23T14:48:14.000Z</time>
        <extensions>
          <ns3:TrackPointExtension>
            <ns3:atemp>24.0</ns3:atemp>
            <ns3:hr>107</ns3:hr>
          </ns3:TrackPointExtension>
        </extensions>
      </trkpt>
      <trkpt lat="47.7506088651716709136962890625" lon="12.25159979425370693206787109375">
        <ele>1483.5999755859375</ele>
        <time>2020-06-23T14:48:16.000Z</time>
        <extensions>
          <ns3:TrackPointExtension>
            <ns3:atemp>24.0</ns3:atemp>
            <ns3:hr>108</ns3:hr>
          </ns3:TrackPointExtension>
        </extensions>
      </trkpt>
      <trkpt lat="47.7506437338888645172119140625" lon="12.25168914534151554107666015625">
        <ele>1483.4000244140625</ele>
        <time>2020-06-23T14:48:17.000Z</time>
        <extensions>
          <ns3:TrackPointExtension>
            <ns3:atemp>24.0</ns3:atemp>
            <ns3:hr>108</ns3:hr>
          </ns3:TrackPointExtension>
        </extensions>
      </trkpt>
      <trkpt lat="47.75068455375730991363525390625" lon="12.2518572025001049041748046875">
        <ele>1483.4000244140625</ele>
        <time>2020-06-23T14:48:19.000Z</time>
        <extensions>
          <ns3:TrackPointExtension>
            <ns3:atemp>24.0</ns3:atemp>
            <ns3:hr>108</ns3:hr>
          </ns3:TrackPointExtension>
        </extensions>
      </trkpt>
      <trkpt lat="47.7507399581372737884521484375" lon="12.25218535400927066802978515625">
        <ele>1483.800048828125</ele>
        <time>2020-06-23T14:48:22.000Z</time>
        <extensions>
          <ns3:TrackPointExtension>
            <ns3:atemp>24.0</ns3:atemp>
            <ns3:hr>107</ns3:hr>
          </ns3:TrackPointExtension>
        </extensions>
      </trkpt>
      <trkpt lat="47.750750519335269927978515625" lon="12.25230437703430652618408203125">
        <ele>1483.800048828125</ele>
        <time>2020-06-23T14:48:23.000Z</time>
        <extensions>
          <ns3:TrackPointExtension>
            <ns3:atemp>24.0</ns3:atemp>
            <ns3:hr>106</ns3:hr>
          </ns3:TrackPointExtension>
        </extensions>
      </trkpt>
      <trkpt lat="47.75075127370655536651611328125" lon="12.25265775807201862335205078125">
        <ele>1483</ele>
        <time>2020-06-23T14:48:26.000Z</time>
        <extensions>
          <ns3:TrackPointExtension>
            <ns3:atemp>24.0</ns3:atemp>
            <ns3:hr>106</ns3:hr>
          </ns3:TrackPointExtension>
        </extensions>
      </trkpt>
      <trkpt lat="47.750759236514568328857421875" lon="12.25279010832309722900390625">
        <ele>1482.199951171875</ele>
        <time>2020-06-23T14:48:27.000Z</time>
        <extensions>
          <ns3:TrackPointExtension>
            <ns3:atemp>24.0</ns3:atemp>
            <ns3:hr>106</ns3:hr>
          </ns3:TrackPointExtension>
        </extensions>
      </trkpt>
      <trkpt lat="47.750783376395702362060546875" lon="12.25303326733410358428955078125">
        <ele>1479.199951171875</ele>
        <time>2020-06-23T14:48:29.000Z</time>
        <extensions>
          <ns3:TrackPointExtension>
            <ns3:atemp>24.0</ns3:atemp>
            <ns3:hr>107</ns3:hr>
          </ns3:TrackPointExtension>
        </extensions>
      </trkpt>
      <trkpt lat="47.75080122984945774078369140625" lon="12.25314340554177761077880859375">
        <ele>1479.199951171875</ele>
        <time>2020-06-23T14:48:30.000Z</time>
        <extensions>
          <ns3:TrackPointExtension>
            <ns3:atemp>24.0</ns3:atemp>
            <ns3:hr>108</ns3:hr>
          </ns3:TrackPointExtension>
        </extensions>
      </trkpt>
      <trkpt lat="47.75086074136197566986083984375" lon="12.25337080657482147216796875">
        <ele>1477.800048828125</ele>
        <time>2020-06-23T14:48:32.000Z</time>
        <extensions>
          <ns3:TrackPointExtension>
            <ns3:atemp>24.0</ns3:atemp>
            <ns3:hr>110</ns3:hr>
          </ns3:TrackPointExtension>
        </extensions>
      </trkpt>
      <trkpt lat="47.75089393369853496551513671875" lon="12.25347851403057575225830078125">
        <ele>1477.800048828125</ele>
        <time>2020-06-23T14:48:33.000Z</time>
        <extensions>
          <ns3:TrackPointExtension>
            <ns3:atemp>24.0</ns3:atemp>
            <ns3:hr>106</ns3:hr>
          </ns3:TrackPointExtension>
        </extensions>
      </trkpt>
      <trkpt lat="47.7509231865406036376953125" lon="12.25356820039451122283935546875">
        <ele>1477.5999755859375</ele>
        <time>2020-06-23T14:48:34.000Z</time>
        <extensions>
          <ns3:TrackPointExtension>
            <ns3:atemp>24.0</ns3:atemp>
            <ns3:hr>105</ns3:hr>
          </ns3:TrackPointExtension>
        </extensions>
      </trkpt>
      <trkpt lat="47.751006670296192169189453125" lon="12.25374774076044559478759765625">
        <ele>1477</ele>
        <time>2020-06-23T14:48:37.000Z</time>
        <extensions>
          <ns3:TrackPointExtension>
            <ns3:atemp>24.0</ns3:atemp>
            <ns3:hr>106</ns3:hr>
          </ns3:TrackPointExtension>
        </extensions>
      </trkpt>
      <trkpt lat="47.7510769106447696685791015625" lon="12.25381228141486644744873046875">
        <ele>1476.5999755859375</ele>
        <time>2020-06-23T14:48:38.000Z</time>
        <extensions>
          <ns3:TrackPointExtension>
            <ns3:atemp>24.0</ns3:atemp>
            <ns3:hr>106</ns3:hr>
          </ns3:TrackPointExtension>
        </extensions>
      </trkpt>
      <trkpt lat="47.7511660940945148468017578125" lon="12.2538584657013416290283203125">
        <ele>1476.199951171875</ele>
        <time>2020-06-23T14:48:39.000Z</time>
        <extensions>
          <ns3:TrackPointExtension>
            <ns3:atemp>24.0</ns3:atemp>
            <ns3:hr>107</ns3:hr>
          </ns3:TrackPointExtension>
        </extensions>
      </trkpt>
      <trkpt lat="47.751322500407695770263671875" lon="12.25387263111770153045654296875">
        <ele>1476.4000244140625</ele>
        <time>2020-06-23T14:48:41.000Z</time>
        <extensions>
          <ns3:TrackPointExtension>
            <ns3:atemp>24.0</ns3:atemp>
            <ns3:hr>107</ns3:hr>
          </ns3:TrackPointExtension>
        </extensions>
      </trkpt>
      <trkpt lat="47.7514354884624481201171875" lon="12.253937087953090667724609375">
        <ele>1477</ele>
        <time>2020-06-23T14:48:43.000Z</time>
        <extensions>
          <ns3:TrackPointExtension>
            <ns3:atemp>24.0</ns3:atemp>
            <ns3:hr>106</ns3:hr>
          </ns3:TrackPointExtension>
        </extensions>
      </trkpt>
      <trkpt lat="47.75150128640234470367431640625" lon="12.25398100912570953369140625">
        <ele>1477.199951171875</ele>
        <time>2020-06-23T14:48:44.000Z</time>
        <extensions>
          <ns3:TrackPointExtension>
            <ns3:atemp>24.0</ns3:atemp>
            <ns3:hr>106</ns3:hr>
          </ns3:TrackPointExtension>
        </extensions>
      </trkpt>
      <trkpt lat="47.75156700052320957183837890625" lon="12.25400112569332122802734375">
        <ele>1477.199951171875</ele>
        <time>2020-06-23T14:48:45.000Z</time>
        <extensions>
          <ns3:TrackPointExtension>
            <ns3:atemp>24.0</ns3:atemp>
            <ns3:hr>107</ns3:hr>
          </ns3:TrackPointExtension>
        </extensions>
      </trkpt>
      <trkpt lat="47.75169457308948040008544921875" lon="12.2539828531444072723388671875">
        <ele>1477</ele>
        <time>2020-06-23T14:48:47.000Z</time>
        <extensions>
          <ns3:TrackPointExtension>
            <ns3:atemp>24.0</ns3:atemp>
            <ns3:hr>107</ns3:hr>
          </ns3:TrackPointExtension>
        </extensions>
      </trkpt>
      <trkpt lat="47.7517531625926494598388671875" lon="12.25398377515375614166259765625">
        <ele>1476.199951171875</ele>
        <time>2020-06-23T14:48:48.000Z</time>
        <extensions>
          <ns3:TrackPointExtension>
            <ns3:atemp>24.0</ns3:atemp>
            <ns3:hr>106</ns3:hr>
          </ns3:TrackPointExtension>
        </extensions>
      </trkpt>
      <trkpt lat="47.751877717673778533935546875" lon="12.2540133632719516754150390625">
        <ele>1475.800048828125</ele>
        <time>2020-06-23T14:48:50.000Z</time>
        <extensions>
          <ns3:TrackPointExtension>
            <ns3:atemp>24.0</ns3:atemp>
            <ns3:hr>103</ns3:hr>
          </ns3:TrackPointExtension>
        </extensions>
      </trkpt>
      <trkpt lat="47.75193613953888416290283203125" lon="12.25400791503489017486572265625">
        <ele>1474.800048828125</ele>
        <time>2020-06-23T14:48:51.000Z</time>
        <extensions>
          <ns3:TrackPointExtension>
            <ns3:atemp>24.0</ns3:atemp>
            <ns3:hr>101</ns3:hr>
          </ns3:TrackPointExtension>
        </extensions>
      </trkpt>
      <trkpt lat="47.75198861025273799896240234375" lon="12.2539865411818027496337890625">
        <ele>1473.800048828125</ele>
        <time>2020-06-23T14:48:52.000Z</time>
        <extensions>
          <ns3:TrackPointExtension>
            <ns3:atemp>24.0</ns3:atemp>
            <ns3:hr>102</ns3:hr>
          </ns3:TrackPointExtension>
        </extensions>
      </trkpt>
      <trkpt lat="47.7520363032817840576171875" lon="12.25396231748163700103759765625">
        <ele>1473.800048828125</ele>
        <time>2020-06-23T14:48:53.000Z</time>
        <extensions>
          <ns3:TrackPointExtension>
            <ns3:atemp>24.0</ns3:atemp>
            <ns3:hr>96</ns3:hr>
          </ns3:TrackPointExtension>
        </extensions>
      </trkpt>
      <trkpt lat="47.752083577215671539306640625" lon="12.2539453022181987762451171875">
        <ele>1471.4000244140625</ele>
        <time>2020-06-23T14:48:54.000Z</time>
        <extensions>
          <ns3:TrackPointExtension>
            <ns3:atemp>24.0</ns3:atemp>
            <ns3:hr>95</ns3:hr>
          </ns3:TrackPointExtension>
        </extensions>
      </trkpt>
      <trkpt lat="47.75213093496859073638916015625" lon="12.2539261914789676666259765625">
        <ele>1471.4000244140625</ele>
        <time>2020-06-23T14:48:55.000Z</time>
        <extensions>
          <ns3:TrackPointExtension>
            <ns3:atemp>24.0</ns3:atemp>
            <ns3:hr>94</ns3:hr>
          </ns3:TrackPointExtension>
        </extensions>
      </trkpt>
      <trkpt lat="47.75217200629413127899169921875" lon="12.25388537161052227020263671875">
        <ele>1470.199951171875</ele>
        <time>2020-06-23T14:48:56.000Z</time>
        <extensions>
          <ns3:TrackPointExtension>
            <ns3:atemp>24.0</ns3:atemp>
            <ns3:hr>94</ns3:hr>
          </ns3:TrackPointExtension>
        </extensions>
      </trkpt>
      <trkpt lat="47.7522010914981365203857421875" lon="12.253818400204181671142578125">
        <ele>1469</ele>
        <time>2020-06-23T14:48:57.000Z</time>
        <extensions>
          <ns3:TrackPointExtension>
            <ns3:atemp>24.0</ns3:atemp>
            <ns3:hr>96</ns3:hr>
          </ns3:TrackPointExtension>
        </extensions>
      </trkpt>
      <trkpt lat="47.7522064559161663055419921875" lon="12.25373013876378536224365234375">
        <ele>1467.199951171875</ele>
        <time>2020-06-23T14:48:58.000Z</time>
        <extensions>
          <ns3:TrackPointExtension>
            <ns3:atemp>24.0</ns3:atemp>
            <ns3:hr>97</ns3:hr>
          </ns3:TrackPointExtension>
        </extensions>
      </trkpt>
      <trkpt lat="47.75213529355823993682861328125" lon="12.2535436414182186126708984375">
        <ele>1466.5999755859375</ele>
        <time>2020-06-23T14:49:00.000Z</time>
        <extensions>
          <ns3:TrackPointExtension>
            <ns3:atemp>24.0</ns3:atemp>
            <ns3:hr>100</ns3:hr>
          </ns3:TrackPointExtension>
        </extensions>
      </trkpt>
      <trkpt lat="47.75207460857927799224853515625" lon="12.25346895866096019744873046875">
        <ele>1465.5999755859375</ele>
        <time>2020-06-23T14:49:01.000Z</time>
        <extensions>
          <ns3:TrackPointExtension>
            <ns3:atemp>24.0</ns3:atemp>
            <ns3:hr>101</ns3:hr>
          </ns3:TrackPointExtension>
        </extensions>
      </trkpt>
      <trkpt lat="47.7520029433071613311767578125" lon="12.2534115426242351531982421875">
        <ele>1465.5999755859375</ele>
        <time>2020-06-23T14:49:02.000Z</time>
        <extensions>
          <ns3:TrackPointExtension>
            <ns3:atemp>24.0</ns3:atemp>
            <ns3:hr>101</ns3:hr>
          </ns3:TrackPointExtension>
        </extensions>
      </trkpt>
      <trkpt lat="47.75192004628479480743408203125" lon="12.25337005220353603363037109375">
        <ele>1465.199951171875</ele>
        <time>2020-06-23T14:49:03.000Z</time>
        <extensions>
          <ns3:TrackPointExtension>
            <ns3:atemp>24.0</ns3:atemp>
            <ns3:hr>101</ns3:hr>
          </ns3:TrackPointExtension>
        </extensions>
      </trkpt>
      <trkpt lat="47.751827426254749298095703125" lon="12.25334004499018192291259765625">
        <ele>1464.5999755859375</ele>
        <time>2020-06-23T14:49:04.000Z</time>
        <extensions>
          <ns3:TrackPointExtension>
            <ns3:atemp>24.0</ns3:atemp>
            <ns3:hr>101</ns3:hr>
          </ns3:TrackPointExtension>
        </extensions>
      </trkpt>
      <trkpt lat="47.7516153641045093536376953125" lon="12.2533096186816692352294921875">
        <ele>1460.800048828125</ele>
        <time>2020-06-23T14:49:06.000Z</time>
        <extensions>
          <ns3:TrackPointExtension>
            <ns3:atemp>24.0</ns3:atemp>
            <ns3:hr>101</ns3:hr>
          </ns3:TrackPointExtension>
        </extensions>
      </trkpt>
      <trkpt lat="47.7514004521071910858154296875" lon="12.2532559745013713836669921875">
        <ele>1459</ele>
        <time>2020-06-23T14:49:08.000Z</time>
        <extensions>
          <ns3:TrackPointExtension>
            <ns3:atemp>24.0</ns3:atemp>
            <ns3:hr>102</ns3:hr>
          </ns3:TrackPointExtension>
        </extensions>
      </trkpt>
      <trkpt lat="47.75131143629550933837890625" lon="12.2532026655972003936767578125">
        <ele>1456</ele>
        <time>2020-06-23T14:49:09.000Z</time>
        <extensions>
          <ns3:TrackPointExtension>
            <ns3:atemp>24.0</ns3:atemp>
            <ns3:hr>103</ns3:hr>
          </ns3:TrackPointExtension>
        </extensions>
      </trkpt>
      <trkpt lat="47.7512344904243946075439453125" lon="12.25314323790371417999267578125">
        <ele>1455</ele>
        <time>2020-06-23T14:49:10.000Z</time>
        <extensions>
          <ns3:TrackPointExtension>
            <ns3:atemp>24.0</ns3:atemp>
            <ns3:hr>103</ns3:hr>
          </ns3:TrackPointExtension>
        </extensions>
      </trkpt>
      <trkpt lat="47.75115989148616790771484375" lon="12.25309059955179691314697265625">
        <ele>1455</ele>
        <time>2020-06-23T14:49:11.000Z</time>
        <extensions>
          <ns3:TrackPointExtension>
            <ns3:atemp>24.0</ns3:atemp>
            <ns3:hr>103</ns3:hr>
          </ns3:TrackPointExtension>
        </extensions>
      </trkpt>
      <trkpt lat="47.75099627673625946044921875" lon="12.25297492928802967071533203125">
        <ele>1453.800048828125</ele>
        <time>2020-06-23T14:49:13.000Z</time>
        <extensions>
          <ns3:TrackPointExtension>
            <ns3:atemp>24.0</ns3:atemp>
            <ns3:hr>102</ns3:hr>
          </ns3:TrackPointExtension>
        </extensions>
      </trkpt>
      <trkpt lat="47.75091974996030330657958984375" lon="12.252890355885028839111328125">
        <ele>1453.199951171875</ele>
        <time>2020-06-23T14:49:14.000Z</time>
        <extensions>
          <ns3:TrackPointExtension>
            <ns3:atemp>24.0</ns3:atemp>
            <ns3:hr>101</ns3:hr>
          </ns3:TrackPointExtension>
        </extensions>
      </trkpt>
      <trkpt lat="47.75085638277232646942138671875" lon="12.25278801284730434417724609375">
        <ele>1451.5999755859375</ele>
        <time>2020-06-23T14:49:15.000Z</time>
        <extensions>
          <ns3:TrackPointExtension>
            <ns3:atemp>24.0</ns3:atemp>
            <ns3:hr>101</ns3:hr>
          </ns3:TrackPointExtension>
        </extensions>
      </trkpt>
      <trkpt lat="47.7508053369820117950439453125" lon="12.25268407724797725677490234375">
        <ele>1451.5999755859375</ele>
        <time>2020-06-23T14:49:16.000Z</time>
        <extensions>
          <ns3:TrackPointExtension>
            <ns3:atemp>24.0</ns3:atemp>
            <ns3:hr>101</ns3:hr>
          </ns3:TrackPointExtension>
        </extensions>
      </trkpt>
      <trkpt lat="47.7507622539997100830078125" lon="12.2525884397327899932861328125">
        <ele>1449.5999755859375</ele>
        <time>2020-06-23T14:49:17.000Z</time>
        <extensions>
          <ns3:TrackPointExtension>
            <ns3:atemp>24.0</ns3:atemp>
            <ns3:hr>101</ns3:hr>
          </ns3:TrackPointExtension>
        </extensions>
      </trkpt>
      <trkpt lat="47.75065924040973186492919921875" lon="12.252306975424289703369140625">
        <ele>1448.800048828125</ele>
        <time>2020-06-23T14:49:20.000Z</time>
        <extensions>
          <ns3:TrackPointExtension>
            <ns3:atemp>24.0</ns3:atemp>
            <ns3:hr>103</ns3:hr>
          </ns3:TrackPointExtension>
        </extensions>
      </trkpt>
      <trkpt lat="47.75063409470021724700927734375" lon="12.252190299332141876220703125">
        <ele>1447.800048828125</ele>
        <time>2020-06-23T14:49:21.000Z</time>
        <extensions>
          <ns3:TrackPointExtension>
            <ns3:atemp>24.0</ns3:atemp>
            <ns3:hr>103</ns3:hr>
          </ns3:TrackPointExtension>
        </extensions>
      </trkpt>
      <trkpt lat="47.75062152184545993804931640625" lon="12.25208200514316558837890625">
        <ele>1447.5999755859375</ele>
        <time>2020-06-23T14:49:22.000Z</time>
        <extensions>
          <ns3:TrackPointExtension>
            <ns3:atemp>24.0</ns3:atemp>
            <ns3:hr>103</ns3:hr>
          </ns3:TrackPointExtension>
        </extensions>
      </trkpt>
      <trkpt lat="47.75062051601707935333251953125" lon="12.25199081003665924072265625">
        <ele>1447.800048828125</ele>
        <time>2020-06-23T14:49:23.000Z</time>
        <extensions>
          <ns3:TrackPointExtension>
            <ns3:atemp>24.0</ns3:atemp>
            <ns3:hr>103</ns3:hr>
          </ns3:TrackPointExtension>
        </extensions>
      </trkpt>
      <trkpt lat="47.75061883963644504547119140625" lon="12.251824177801609039306640625">
        <ele>1447.5999755859375</ele>
        <time>2020-06-23T14:49:25.000Z</time>
        <extensions>
          <ns3:TrackPointExtension>
            <ns3:atemp>24.0</ns3:atemp>
            <ns3:hr>103</ns3:hr>
          </ns3:TrackPointExtension>
        </extensions>
      </trkpt>
      <trkpt lat="47.75059671141207218170166015625" lon="12.2516251914203166961669921875">
        <ele>1447.800048828125</ele>
        <time>2020-06-23T14:49:27.000Z</time>
        <extensions>
          <ns3:TrackPointExtension>
            <ns3:atemp>24.0</ns3:atemp>
            <ns3:hr>103</ns3:hr>
          </ns3:TrackPointExtension>
        </extensions>
      </trkpt>
      <trkpt lat="47.7505374513566493988037109375" lon="12.2513328306376934051513671875">
        <ele>1447.800048828125</ele>
        <time>2020-06-23T14:49:30.000Z</time>
        <extensions>
          <ns3:TrackPointExtension>
            <ns3:atemp>24.0</ns3:atemp>
            <ns3:hr>105</ns3:hr>
          </ns3:TrackPointExtension>
        </extensions>
      </trkpt>
      <trkpt lat="47.75046612136065959930419921875" lon="12.25114230997860431671142578125">
        <ele>1447.5999755859375</ele>
        <time>2020-06-23T14:49:32.000Z</time>
        <extensions>
          <ns3:TrackPointExtension>
            <ns3:atemp>24.0</ns3:atemp>
            <ns3:hr>106</ns3:hr>
          </ns3:TrackPointExtension>
        </extensions>
      </trkpt>
      <trkpt lat="47.75033284910023212432861328125" lon="12.25072346627712249755859375">
        <ele>1446.5999755859375</ele>
        <time>2020-06-23T14:49:36.000Z</time>
        <extensions>
          <ns3:TrackPointExtension>
            <ns3:atemp>24.0</ns3:atemp>
            <ns3:hr>105</ns3:hr>
          </ns3:TrackPointExtension>
        </extensions>
      </trkpt>
      <trkpt lat="47.75031072087585926055908203125" lon="12.25062732584774494171142578125">
        <ele>1446.5999755859375</ele>
        <time>2020-06-23T14:49:37.000Z</time>
        <extensions>
          <ns3:TrackPointExtension>
            <ns3:atemp>24.0</ns3:atemp>
            <ns3:hr>104</ns3:hr>
          </ns3:TrackPointExtension>
        </extensions>
      </trkpt>
      <trkpt lat="47.75027903728187084197998046875" lon="12.25042976438999176025390625">
        <ele>1446</ele>
        <time>2020-06-23T14:49:39.000Z</time>
        <extensions>
          <ns3:TrackPointExtension>
            <ns3:atemp>24.0</ns3:atemp>
            <ns3:hr>103</ns3:hr>
          </ns3:TrackPointExtension>
        </extensions>
      </trkpt>
      <trkpt lat="47.75027216412127017974853515625" lon="12.25020890124142169952392578125">
        <ele>1445.5999755859375</ele>
        <time>2020-06-23T14:49:41.000Z</time>
        <extensions>
          <ns3:TrackPointExtension>
            <ns3:atemp>24.0</ns3:atemp>
            <ns3:hr>102</ns3:hr>
          </ns3:TrackPointExtension>
        </extensions>
      </trkpt>
      <trkpt lat="47.75026847608387470245361328125" lon="12.2500996850430965423583984375">
        <ele>1445.4000244140625</ele>
        <time>2020-06-23T14:49:42.000Z</time>
        <extensions>
          <ns3:TrackPointExtension>
            <ns3:atemp>24.0</ns3:atemp>
            <ns3:hr>102</ns3:hr>
          </ns3:TrackPointExtension>
        </extensions>
      </trkpt>
      <trkpt lat="47.75026311166584491729736328125" lon="12.2498076595366001129150390625">
        <ele>1444.5999755859375</ele>
        <time>2020-06-23T14:49:45.000Z</time>
        <extensions>
          <ns3:TrackPointExtension>
            <ns3:atemp>24.0</ns3:atemp>
            <ns3:hr>108</ns3:hr>
          </ns3:TrackPointExtension>
        </extensions>
      </trkpt>
      <trkpt lat="47.750279121100902557373046875" lon="12.2497137822210788726806640625">
        <ele>1444.5999755859375</ele>
        <time>2020-06-23T14:49:46.000Z</time>
        <extensions>
          <ns3:TrackPointExtension>
            <ns3:atemp>24.0</ns3:atemp>
            <ns3:hr>104</ns3:hr>
          </ns3:TrackPointExtension>
        </extensions>
      </trkpt>
      <trkpt lat="47.75030854158103466033935546875" lon="12.24962434731423854827880859375">
        <ele>1444.4000244140625</ele>
        <time>2020-06-23T14:49:47.000Z</time>
        <extensions>
          <ns3:TrackPointExtension>
            <ns3:atemp>24.0</ns3:atemp>
            <ns3:hr>106</ns3:hr>
          </ns3:TrackPointExtension>
        </extensions>
      </trkpt>
      <trkpt lat="47.750346846878528594970703125" lon="12.24954606033861637115478515625">
        <ele>1444.199951171875</ele>
        <time>2020-06-23T14:49:48.000Z</time>
        <extensions>
          <ns3:TrackPointExtension>
            <ns3:atemp>24.0</ns3:atemp>
            <ns3:hr>105</ns3:hr>
          </ns3:TrackPointExtension>
        </extensions>
      </trkpt>
      <trkpt lat="47.75042421184480190277099609375" lon="12.2494160570204257965087890625">
        <ele>1443</ele>
        <time>2020-06-23T14:49:50.000Z</time>
        <extensions>
          <ns3:TrackPointExtension>
            <ns3:atemp>24.0</ns3:atemp>
            <ns3:hr>103</ns3:hr>
          </ns3:TrackPointExtension>
        </extensions>
      </trkpt>
      <trkpt lat="47.75046494789421558380126953125" lon="12.249355204403400421142578125">
        <ele>1441.800048828125</ele>
        <time>2020-06-23T14:49:51.000Z</time>
        <extensions>
          <ns3:TrackPointExtension>
            <ns3:atemp>24.0</ns3:atemp>
            <ns3:hr>102</ns3:hr>
          </ns3:TrackPointExtension>
        </extensions>
      </trkpt>
      <trkpt lat="47.75057340972125530242919921875" lon="12.249267362058162689208984375">
        <ele>1441.199951171875</ele>
        <time>2020-06-23T14:49:53.000Z</time>
        <extensions>
          <ns3:TrackPointExtension>
            <ns3:atemp>24.0</ns3:atemp>
            <ns3:hr>101</ns3:hr>
          </ns3:TrackPointExtension>
        </extensions>
      </trkpt>
      <trkpt lat="47.75063593871891498565673828125" lon="12.24924129433929920196533203125">
        <ele>1439.800048828125</ele>
        <time>2020-06-23T14:49:54.000Z</time>
        <extensions>
          <ns3:TrackPointExtension>
            <ns3:atemp>24.0</ns3:atemp>
            <ns3:hr>101</ns3:hr>
          </ns3:TrackPointExtension>
        </extensions>
      </trkpt>
      <trkpt lat="47.75080994702875614166259765625" lon="12.24917490966618061065673828125">
        <ele>1438.4000244140625</ele>
        <time>2020-06-23T14:49:57.000Z</time>
        <extensions>
          <ns3:TrackPointExtension>
            <ns3:atemp>24.0</ns3:atemp>
            <ns3:hr>101</ns3:hr>
          </ns3:TrackPointExtension>
        </extensions>
      </trkpt>
      <trkpt lat="47.75087096728384494781494140625" lon="12.2491709701716899871826171875">
        <ele>1437.800048828125</ele>
        <time>2020-06-23T14:49:58.000Z</time>
        <extensions>
          <ns3:TrackPointExtension>
            <ns3:atemp>24.0</ns3:atemp>
            <ns3:hr>101</ns3:hr>
          </ns3:TrackPointExtension>
        </extensions>
      </trkpt>
      <trkpt lat="47.75093785487115383148193359375" lon="12.24918178282678127288818359375">
        <ele>1437.4000244140625</ele>
        <time>2020-06-23T14:49:59.000Z</time>
        <extensions>
          <ns3:TrackPointExtension>
            <ns3:atemp>24.0</ns3:atemp>
            <ns3:hr>101</ns3:hr>
          </ns3:TrackPointExtension>
        </extensions>
      </trkpt>
      <trkpt lat="47.75100834667682647705078125" lon="12.24919795989990234375">
        <ele>1436.199951171875</ele>
        <time>2020-06-23T14:50:00.000Z</time>
        <extensions>
          <ns3:TrackPointExtension>
            <ns3:atemp>24.0</ns3:atemp>
            <ns3:hr>101</ns3:hr>
          </ns3:TrackPointExtension>
        </extensions>
      </trkpt>
      <trkpt lat="47.7511406131088733673095703125" lon="12.24924867041409015655517578125">
        <ele>1434.199951171875</ele>
        <time>2020-06-23T14:50:02.000Z</time>
        <extensions>
          <ns3:TrackPointExtension>
            <ns3:atemp>24.0</ns3:atemp>
            <ns3:hr>101</ns3:hr>
          </ns3:TrackPointExtension>
        </extensions>
      </trkpt>
      <trkpt lat="47.75125779211521148681640625" lon="12.24936484359204769134521484375">
        <ele>1433.199951171875</ele>
        <time>2020-06-23T14:50:04.000Z</time>
        <extensions>
          <ns3:TrackPointExtension>
            <ns3:atemp>24.0</ns3:atemp>
            <ns3:hr>101</ns3:hr>
          </ns3:TrackPointExtension>
        </extensions>
      </trkpt>
      <trkpt lat="47.75131554342806339263916015625" lon="12.2494485788047313690185546875">
        <ele>1432.800048828125</ele>
        <time>2020-06-23T14:50:05.000Z</time>
        <extensions>
          <ns3:TrackPointExtension>
            <ns3:atemp>24.0</ns3:atemp>
            <ns3:hr>101</ns3:hr>
          </ns3:TrackPointExtension>
        </extensions>
      </trkpt>
      <trkpt lat="47.75136952288448810577392578125" lon="12.24953792989253997802734375">
        <ele>1432.800048828125</ele>
        <time>2020-06-23T14:50:06.000Z</time>
        <extensions>
          <ns3:TrackPointExtension>
            <ns3:atemp>24.0</ns3:atemp>
            <ns3:hr>101</ns3:hr>
          </ns3:TrackPointExtension>
        </extensions>
      </trkpt>
      <trkpt lat="47.75144546292722225189208984375" lon="12.24973331205546855926513671875">
        <ele>1432.4000244140625</ele>
        <time>2020-06-23T14:50:08.000Z</time>
        <extensions>
          <ns3:TrackPointExtension>
            <ns3:atemp>24.0</ns3:atemp>
            <ns3:hr>101</ns3:hr>
          </ns3:TrackPointExtension>
        </extensions>
      </trkpt>
      <trkpt lat="47.751474045217037200927734375" lon="12.2498448751866817474365234375">
        <ele>1432.199951171875</ele>
        <time>2020-06-23T14:50:09.000Z</time>
        <extensions>
          <ns3:TrackPointExtension>
            <ns3:atemp>24.0</ns3:atemp>
            <ns3:hr>101</ns3:hr>
          </ns3:TrackPointExtension>
        </extensions>
      </trkpt>
      <trkpt lat="47.75150396861135959625244140625" lon="12.249962724745273590087890625">
        <ele>1432</ele>
        <time>2020-06-23T14:50:10.000Z</time>
        <extensions>
          <ns3:TrackPointExtension>
            <ns3:atemp>24.0</ns3:atemp>
            <ns3:hr>101</ns3:hr>
          </ns3:TrackPointExtension>
        </extensions>
      </trkpt>
      <trkpt lat="47.75166146457195281982421875" lon="12.25052858702838420867919921875">
        <ele>1431.199951171875</ele>
        <time>2020-06-23T14:50:15.000Z</time>
        <extensions>
          <ns3:TrackPointExtension>
            <ns3:atemp>24.0</ns3:atemp>
            <ns3:hr>102</ns3:hr>
          </ns3:TrackPointExtension>
        </extensions>
      </trkpt>
      <trkpt lat="47.75174654088914394378662109375" lon="12.25073126144707202911376953125">
        <ele>1431</ele>
        <time>2020-06-23T14:50:17.000Z</time>
        <extensions>
          <ns3:TrackPointExtension>
            <ns3:atemp>24.0</ns3:atemp>
            <ns3:hr>99</ns3:hr>
          </ns3:TrackPointExtension>
        </extensions>
      </trkpt>
      <trkpt lat="47.751793228089809417724609375" lon="12.2508171759545803070068359375">
        <ele>1430.5999755859375</ele>
        <time>2020-06-23T14:50:18.000Z</time>
        <extensions>
          <ns3:TrackPointExtension>
            <ns3:atemp>24.0</ns3:atemp>
            <ns3:hr>98</ns3:hr>
          </ns3:TrackPointExtension>
        </extensions>
      </trkpt>
      <trkpt lat="47.751842178404331207275390625" lon="12.25088330917060375213623046875">
        <ele>1430.4000244140625</ele>
        <time>2020-06-23T14:50:19.000Z</time>
        <extensions>
          <ns3:TrackPointExtension>
            <ns3:atemp>24.0</ns3:atemp>
            <ns3:hr>97</ns3:hr>
          </ns3:TrackPointExtension>
        </extensions>
      </trkpt>
      <trkpt lat="47.7518949843943119049072265625" lon="12.25092588923871517181396484375">
        <ele>1429.5999755859375</ele>
        <time>2020-06-23T14:50:20.000Z</time>
        <extensions>
          <ns3:TrackPointExtension>
            <ns3:atemp>24.0</ns3:atemp>
            <ns3:hr>96</ns3:hr>
          </ns3:TrackPointExtension>
        </extensions>
      </trkpt>
      <trkpt lat="47.75202247314155101776123046875" lon="12.25095706991851329803466796875">
        <ele>1428</ele>
        <time>2020-06-23T14:50:22.000Z</time>
        <extensions>
          <ns3:TrackPointExtension>
            <ns3:atemp>24.0</ns3:atemp>
            <ns3:hr>97</ns3:hr>
          </ns3:TrackPointExtension>
        </extensions>
      </trkpt>
      <trkpt lat="47.75209170766174793243408203125" lon="12.25097785703837871551513671875">
        <ele>1428</ele>
        <time>2020-06-23T14:50:23.000Z</time>
        <extensions>
          <ns3:TrackPointExtension>
            <ns3:atemp>24.0</ns3:atemp>
            <ns3:hr>98</ns3:hr>
          </ns3:TrackPointExtension>
        </extensions>
      </trkpt>
      <trkpt lat="47.75215725414454936981201171875" lon="12.2510290704667568206787109375">
        <ele>1426.800048828125</ele>
        <time>2020-06-23T14:50:24.000Z</time>
        <extensions>
          <ns3:TrackPointExtension>
            <ns3:atemp>24.0</ns3:atemp>
            <ns3:hr>98</ns3:hr>
          </ns3:TrackPointExtension>
        </extensions>
      </trkpt>
      <trkpt lat="47.75221156887710094451904296875" lon="12.25111045874655246734619140625">
        <ele>1426.800048828125</ele>
        <time>2020-06-23T14:50:25.000Z</time>
        <extensions>
          <ns3:TrackPointExtension>
            <ns3:atemp>24.0</ns3:atemp>
            <ns3:hr>98</ns3:hr>
          </ns3:TrackPointExtension>
        </extensions>
      </trkpt>
      <trkpt lat="47.752292118966579437255859375" lon="12.25130709819495677947998046875">
        <ele>1425.4000244140625</ele>
        <time>2020-06-23T14:50:27.000Z</time>
        <extensions>
          <ns3:TrackPointExtension>
            <ns3:atemp>24.0</ns3:atemp>
            <ns3:hr>96</ns3:hr>
          </ns3:TrackPointExtension>
        </extensions>
      </trkpt>
      <trkpt lat="47.7523566596210002899169921875" lon="12.251511029899120330810546875">
        <ele>1424.5999755859375</ele>
        <time>2020-06-23T14:50:29.000Z</time>
        <extensions>
          <ns3:TrackPointExtension>
            <ns3:atemp>24.0</ns3:atemp>
            <ns3:hr>95</ns3:hr>
          </ns3:TrackPointExtension>
        </extensions>
      </trkpt>
      <trkpt lat="47.7523811347782611846923828125" lon="12.2516245208680629730224609375">
        <ele>1424</ele>
        <time>2020-06-23T14:50:30.000Z</time>
        <extensions>
          <ns3:TrackPointExtension>
            <ns3:atemp>24.0</ns3:atemp>
            <ns3:hr>95</ns3:hr>
          </ns3:TrackPointExtension>
        </extensions>
      </trkpt>
      <trkpt lat="47.7524223737418651580810546875" lon="12.251840941607952117919921875">
        <ele>1422.199951171875</ele>
        <time>2020-06-23T14:50:32.000Z</time>
        <extensions>
          <ns3:TrackPointExtension>
            <ns3:atemp>24.0</ns3:atemp>
            <ns3:hr>95</ns3:hr>
          </ns3:TrackPointExtension>
        </extensions>
      </trkpt>
      <trkpt lat="47.75244710035622119903564453125" lon="12.25193792022764682769775390625">
        <ele>1421</ele>
        <time>2020-06-23T14:50:33.000Z</time>
        <extensions>
          <ns3:TrackPointExtension>
            <ns3:atemp>24.0</ns3:atemp>
            <ns3:hr>95</ns3:hr>
          </ns3:TrackPointExtension>
        </extensions>
      </trkpt>
      <trkpt lat="47.7524773590266704559326171875" lon="12.252041436731815338134765625">
        <ele>1419.800048828125</ele>
        <time>2020-06-23T14:50:34.000Z</time>
        <extensions>
          <ns3:TrackPointExtension>
            <ns3:atemp>24.0</ns3:atemp>
            <ns3:hr>95</ns3:hr>
          </ns3:TrackPointExtension>
        </extensions>
      </trkpt>
      <trkpt lat="47.75251197628676891326904296875" lon="12.25215501151978969573974609375">
        <ele>1418.5999755859375</ele>
        <time>2020-06-23T14:50:35.000Z</time>
        <extensions>
          <ns3:TrackPointExtension>
            <ns3:atemp>24.0</ns3:atemp>
            <ns3:hr>95</ns3:hr>
          </ns3:TrackPointExtension>
        </extensions>
      </trkpt>
      <trkpt lat="47.7525487728416919708251953125" lon="12.25226917304098606109619140625">
        <ele>1417</ele>
        <time>2020-06-23T14:50:36.000Z</time>
        <extensions>
          <ns3:TrackPointExtension>
            <ns3:atemp>24.0</ns3:atemp>
            <ns3:hr>95</ns3:hr>
          </ns3:TrackPointExtension>
        </extensions>
      </trkpt>
      <trkpt lat="47.752585150301456451416015625" lon="12.252374030649662017822265625">
        <ele>1415.5999755859375</ele>
        <time>2020-06-23T14:50:37.000Z</time>
        <extensions>
          <ns3:TrackPointExtension>
            <ns3:atemp>24.0</ns3:atemp>
            <ns3:hr>96</ns3:hr>
          </ns3:TrackPointExtension>
        </extensions>
      </trkpt>
      <trkpt lat="47.75263636372983455657958984375" lon="12.25255700759589672088623046875">
        <ele>1413.800048828125</ele>
        <time>2020-06-23T14:50:39.000Z</time>
        <extensions>
          <ns3:TrackPointExtension>
            <ns3:atemp>24.0</ns3:atemp>
            <ns3:hr>97</ns3:hr>
          </ns3:TrackPointExtension>
        </extensions>
      </trkpt>
      <trkpt lat="47.75265363045036792755126953125" lon="12.25264250300824642181396484375">
        <ele>1412.800048828125</ele>
        <time>2020-06-23T14:50:40.000Z</time>
        <extensions>
          <ns3:TrackPointExtension>
            <ns3:atemp>24.0</ns3:atemp>
            <ns3:hr>96</ns3:hr>
          </ns3:TrackPointExtension>
        </extensions>
      </trkpt>
      <trkpt lat="47.75267441757023334503173828125" lon="12.25273336283862590789794921875">
        <ele>1411.4000244140625</ele>
        <time>2020-06-23T14:50:41.000Z</time>
        <extensions>
          <ns3:TrackPointExtension>
            <ns3:atemp>24.0</ns3:atemp>
            <ns3:hr>95</ns3:hr>
          </ns3:TrackPointExtension>
        </extensions>
      </trkpt>
      <trkpt lat="47.75270752608776092529296875" lon="12.25283277221024036407470703125">
        <ele>1409.5999755859375</ele>
        <time>2020-06-23T14:50:42.000Z</time>
        <extensions>
          <ns3:TrackPointExtension>
            <ns3:atemp>24.0</ns3:atemp>
            <ns3:hr>94</ns3:hr>
          </ns3:TrackPointExtension>
        </extensions>
      </trkpt>
      <trkpt lat="47.7527516148984432220458984375" lon="12.25293754599988460540771484375">
        <ele>1407.5999755859375</ele>
        <time>2020-06-23T14:50:43.000Z</time>
        <extensions>
          <ns3:TrackPointExtension>
            <ns3:atemp>24.0</ns3:atemp>
            <ns3:hr>93</ns3:hr>
          </ns3:TrackPointExtension>
        </extensions>
      </trkpt>
      <trkpt lat="47.75279846973717212677001953125" lon="12.25304382853209972381591796875">
        <ele>1405.4000244140625</ele>
        <time>2020-06-23T14:50:44.000Z</time>
        <extensions>
          <ns3:TrackPointExtension>
            <ns3:atemp>24.0</ns3:atemp>
            <ns3:hr>92</ns3:hr>
          </ns3:TrackPointExtension>
        </extensions>
      </trkpt>
      <trkpt lat="47.75284322910010814666748046875" lon="12.25315312854945659637451171875">
        <ele>1404</ele>
        <time>2020-06-23T14:50:45.000Z</time>
        <extensions>
          <ns3:TrackPointExtension>
            <ns3:atemp>24.0</ns3:atemp>
            <ns3:hr>91</ns3:hr>
          </ns3:TrackPointExtension>
        </extensions>
      </trkpt>
      <trkpt lat="47.7529192529618740081787109375" lon="12.2533686272799968719482421875">
        <ele>1402.4000244140625</ele>
        <time>2020-06-23T14:50:47.000Z</time>
        <extensions>
          <ns3:TrackPointExtension>
            <ns3:atemp>24.0</ns3:atemp>
            <ns3:hr>91</ns3:hr>
          </ns3:TrackPointExtension>
        </extensions>
      </trkpt>
      <trkpt lat="47.7529732324182987213134765625" lon="12.25357306189835071563720703125">
        <ele>1401.800048828125</ele>
        <time>2020-06-23T14:50:49.000Z</time>
        <extensions>
          <ns3:TrackPointExtension>
            <ns3:atemp>24.0</ns3:atemp>
            <ns3:hr>93</ns3:hr>
          </ns3:TrackPointExtension>
        </extensions>
      </trkpt>
      <trkpt lat="47.7530221827328205108642578125" lon="12.25373650901019573211669921875">
        <ele>1401.4000244140625</ele>
        <time>2020-06-23T14:50:51.000Z</time>
        <extensions>
          <ns3:TrackPointExtension>
            <ns3:atemp>24.0</ns3:atemp>
            <ns3:hr>97</ns3:hr>
          </ns3:TrackPointExtension>
        </extensions>
      </trkpt>
      <trkpt lat="47.75305311195552349090576171875" lon="12.25380641408264636993408203125">
        <ele>1401.4000244140625</ele>
        <time>2020-06-23T14:50:52.000Z</time>
        <extensions>
          <ns3:TrackPointExtension>
            <ns3:atemp>24.0</ns3:atemp>
            <ns3:hr>93</ns3:hr>
          </ns3:TrackPointExtension>
        </extensions>
      </trkpt>
      <trkpt lat="47.75309049524366855621337890625" lon="12.25386961363255977630615234375">
        <ele>1401.4000244140625</ele>
        <time>2020-06-23T14:50:53.000Z</time>
        <extensions>
          <ns3:TrackPointExtension>
            <ns3:atemp>24.0</ns3:atemp>
            <ns3:hr>94</ns3:hr>
          </ns3:TrackPointExtension>
        </extensions>
      </trkpt>
      <trkpt lat="47.75318319909274578094482421875" lon="12.2539691068232059478759765625">
        <ele>1402</ele>
        <time>2020-06-23T14:50:55.000Z</time>
        <extensions>
          <ns3:TrackPointExtension>
            <ns3:atemp>24.0</ns3:atemp>
            <ns3:hr>93</ns3:hr>
          </ns3:TrackPointExtension>
        </extensions>
      </trkpt>
      <trkpt lat="47.7532779984176158905029296875" lon="12.25403993390500545501708984375">
        <ele>1402.4000244140625</ele>
        <time>2020-06-23T14:50:57.000Z</time>
        <extensions>
          <ns3:TrackPointExtension>
            <ns3:atemp>24.0</ns3:atemp>
            <ns3:hr>93</ns3:hr>
          </ns3:TrackPointExtension>
        </extensions>
      </trkpt>
      <trkpt lat="47.7533158846199512481689453125" lon="12.2540911473333835601806640625">
        <ele>1404.199951171875</ele>
        <time>2020-06-23T14:50:58.000Z</time>
        <extensions>
          <ns3:TrackPointExtension>
            <ns3:atemp>24.0</ns3:atemp>
            <ns3:hr>93</ns3:hr>
          </ns3:TrackPointExtension>
        </extensions>
      </trkpt>
      <trkpt lat="47.7533463947474956512451171875" lon="12.25415996275842189788818359375">
        <ele>1404.800048828125</ele>
        <time>2020-06-23T14:50:59.000Z</time>
        <extensions>
          <ns3:TrackPointExtension>
            <ns3:atemp>24.0</ns3:atemp>
            <ns3:hr>93</ns3:hr>
          </ns3:TrackPointExtension>
        </extensions>
      </trkpt>
      <trkpt lat="47.75337648577988147735595703125" lon="12.25423590280115604400634765625">
        <ele>1405.199951171875</ele>
        <time>2020-06-23T14:51:00.000Z</time>
        <extensions>
          <ns3:TrackPointExtension>
            <ns3:atemp>24.0</ns3:atemp>
            <ns3:hr>93</ns3:hr>
          </ns3:TrackPointExtension>
        </extensions>
      </trkpt>
      <trkpt lat="47.75341026484966278076171875" lon="12.2543027065694332122802734375">
        <ele>1405.4000244140625</ele>
        <time>2020-06-23T14:51:01.000Z</time>
        <extensions>
          <ns3:TrackPointExtension>
            <ns3:atemp>24.0</ns3:atemp>
            <ns3:hr>93</ns3:hr>
          </ns3:TrackPointExtension>
        </extensions>
      </trkpt>
      <trkpt lat="47.75354571640491485595703125" lon="12.25449859164655208587646484375">
        <ele>1403.5999755859375</ele>
        <time>2020-06-23T14:51:04.000Z</time>
        <extensions>
          <ns3:TrackPointExtension>
            <ns3:atemp>24.0</ns3:atemp>
            <ns3:hr>95</ns3:hr>
          </ns3:TrackPointExtension>
        </extensions>
      </trkpt>
      <trkpt lat="47.7536327205598354339599609375" lon="12.25460604764521121978759765625">
        <ele>1403</ele>
        <time>2020-06-23T14:51:06.000Z</time>
        <extensions>
          <ns3:TrackPointExtension>
            <ns3:atemp>24.0</ns3:atemp>
            <ns3:hr>96</ns3:hr>
          </ns3:TrackPointExtension>
        </extensions>
      </trkpt>
      <trkpt lat="47.7536756359040737152099609375" lon="12.25463622249662876129150390625">
        <ele>1403</ele>
        <time>2020-06-23T14:51:07.000Z</time>
        <extensions>
          <ns3:TrackPointExtension>
            <ns3:atemp>24.0</ns3:atemp>
            <ns3:hr>96</ns3:hr>
          </ns3:TrackPointExtension>
        </extensions>
      </trkpt>
      <trkpt lat="47.75372366420924663543701171875" lon="12.254654578864574432373046875">
        <ele>1403.199951171875</ele>
        <time>2020-06-23T14:51:08.000Z</time>
        <extensions>
          <ns3:TrackPointExtension>
            <ns3:atemp>24.0</ns3:atemp>
            <ns3:hr>96</ns3:hr>
          </ns3:TrackPointExtension>
        </extensions>
      </trkpt>
      <trkpt lat="47.75383464060723781585693359375" lon="12.25468508899211883544921875">
        <ele>1404.800048828125</ele>
        <time>2020-06-23T14:51:10.000Z</time>
        <extensions>
          <ns3:TrackPointExtension>
            <ns3:atemp>24.0</ns3:atemp>
            <ns3:hr>97</ns3:hr>
          </ns3:TrackPointExtension>
        </extensions>
      </trkpt>
      <trkpt lat="47.75389197282493114471435546875" lon="12.25470646284520626068115234375">
        <ele>1406.199951171875</ele>
        <time>2020-06-23T14:51:11.000Z</time>
        <extensions>
          <ns3:TrackPointExtension>
            <ns3:atemp>24.0</ns3:atemp>
            <ns3:hr>98</ns3:hr>
          </ns3:TrackPointExtension>
        </extensions>
      </trkpt>
      <trkpt lat="47.75394410826265811920166015625" lon="12.25472892634570598602294921875">
        <ele>1407.5999755859375</ele>
        <time>2020-06-23T14:51:12.000Z</time>
        <extensions>
          <ns3:TrackPointExtension>
            <ns3:atemp>24.0</ns3:atemp>
            <ns3:hr>98</ns3:hr>
          </ns3:TrackPointExtension>
        </extensions>
      </trkpt>
      <trkpt lat="47.75399222038686275482177734375" lon="12.2547496296465396881103515625">
        <ele>1408.800048828125</ele>
        <time>2020-06-23T14:51:13.000Z</time>
        <extensions>
          <ns3:TrackPointExtension>
            <ns3:atemp>24.0</ns3:atemp>
            <ns3:hr>98</ns3:hr>
          </ns3:TrackPointExtension>
        </extensions>
      </trkpt>
      <trkpt lat="47.75404234416782855987548828125" lon="12.2547801397740840911865234375">
        <ele>1410</ele>
        <time>2020-06-23T14:51:14.000Z</time>
        <extensions>
          <ns3:TrackPointExtension>
            <ns3:atemp>24.0</ns3:atemp>
            <ns3:hr>97</ns3:hr>
          </ns3:TrackPointExtension>
        </extensions>
      </trkpt>
      <trkpt lat="47.75409867055714130401611328125" lon="12.25481509231030941009521484375">
        <ele>1411.199951171875</ele>
        <time>2020-06-23T14:51:15.000Z</time>
        <extensions>
          <ns3:TrackPointExtension>
            <ns3:atemp>24.0</ns3:atemp>
            <ns3:hr>96</ns3:hr>
          </ns3:TrackPointExtension>
        </extensions>
      </trkpt>
      <trkpt lat="47.75415985845029354095458984375" lon="12.25485599599778652191162109375">
        <ele>1412.4000244140625</ele>
        <time>2020-06-23T14:51:16.000Z</time>
        <extensions>
          <ns3:TrackPointExtension>
            <ns3:atemp>24.0</ns3:atemp>
            <ns3:hr>95</ns3:hr>
          </ns3:TrackPointExtension>
        </extensions>
      </trkpt>
      <trkpt lat="47.75421920232474803924560546875" lon="12.25489974953234195709228515625">
        <ele>1413.800048828125</ele>
        <time>2020-06-23T14:51:17.000Z</time>
        <extensions>
          <ns3:TrackPointExtension>
            <ns3:atemp>24.0</ns3:atemp>
            <ns3:hr>95</ns3:hr>
          </ns3:TrackPointExtension>
        </extensions>
      </trkpt>
      <trkpt lat="47.754276283085346221923828125" lon="12.25495775230228900909423828125">
        <ele>1416</ele>
        <time>2020-06-23T14:51:18.000Z</time>
        <extensions>
          <ns3:TrackPointExtension>
            <ns3:atemp>24.0</ns3:atemp>
            <ns3:hr>94</ns3:hr>
          </ns3:TrackPointExtension>
        </extensions>
      </trkpt>
      <trkpt lat="47.7543264068663120269775390625" lon="12.2550262324512004852294921875">
        <ele>1419</ele>
        <time>2020-06-23T14:51:19.000Z</time>
        <extensions>
          <ns3:TrackPointExtension>
            <ns3:atemp>24.0</ns3:atemp>
            <ns3:hr>94</ns3:hr>
          </ns3:TrackPointExtension>
        </extensions>
      </trkpt>
      <trkpt lat="47.75436722673475742340087890625" lon="12.25509756244719028472900390625">
        <ele>1422.199951171875</ele>
        <time>2020-06-23T14:51:20.000Z</time>
        <extensions>
          <ns3:TrackPointExtension>
            <ns3:atemp>24.0</ns3:atemp>
            <ns3:hr>94</ns3:hr>
          </ns3:TrackPointExtension>
        </extensions>
      </trkpt>
      <trkpt lat="47.7544051967561244964599609375" lon="12.2551553137600421905517578125">
        <ele>1425</ele>
        <time>2020-06-23T14:51:21.000Z</time>
        <extensions>
          <ns3:TrackPointExtension>
            <ns3:atemp>24.0</ns3:atemp>
            <ns3:hr>94</ns3:hr>
          </ns3:TrackPointExtension>
        </extensions>
      </trkpt>
      <trkpt lat="47.75445305742323398590087890625" lon="12.25519328378140926361083984375">
        <ele>1428.199951171875</ele>
        <time>2020-06-23T14:51:22.000Z</time>
        <extensions>
          <ns3:TrackPointExtension>
            <ns3:atemp>24.0</ns3:atemp>
            <ns3:hr>94</ns3:hr>
          </ns3:TrackPointExtension>
        </extensions>
      </trkpt>
      <trkpt lat="47.75451340712606906890869140625" lon="12.25521893240511417388916015625">
        <ele>1431.199951171875</ele>
        <time>2020-06-23T14:51:23.000Z</time>
        <extensions>
          <ns3:TrackPointExtension>
            <ns3:atemp>24.0</ns3:atemp>
            <ns3:hr>94</ns3:hr>
          </ns3:TrackPointExtension>
        </extensions>
      </trkpt>
      <trkpt lat="47.754574678838253021240234375" lon="12.2552505321800708770751953125">
        <ele>1434.4000244140625</ele>
        <time>2020-06-23T14:51:24.000Z</time>
        <extensions>
          <ns3:TrackPointExtension>
            <ns3:atemp>24.0</ns3:atemp>
            <ns3:hr>94</ns3:hr>
          </ns3:TrackPointExtension>
        </extensions>
      </trkpt>
      <trkpt lat="47.7546264789998531341552734375" lon="12.25529235787689685821533203125">
        <ele>1437.4000244140625</ele>
        <time>2020-06-23T14:51:25.000Z</time>
        <extensions>
          <ns3:TrackPointExtension>
            <ns3:atemp>24.0</ns3:atemp>
            <ns3:hr>94</ns3:hr>
          </ns3:TrackPointExtension>
        </extensions>
      </trkpt>
      <trkpt lat="47.75466863997280597686767578125" lon="12.25533326156437397003173828125">
        <ele>1437.4000244140625</ele>
        <time>2020-06-23T14:51:26.000Z</time>
        <extensions>
          <ns3:TrackPointExtension>
            <ns3:atemp>24.0</ns3:atemp>
            <ns3:hr>94</ns3:hr>
          </ns3:TrackPointExtension>
        </extensions>
      </trkpt>
      <trkpt lat="47.7547109685838222503662109375" lon="12.2553765960037708282470703125">
        <ele>1442.5999755859375</ele>
        <time>2020-06-23T14:51:27.000Z</time>
        <extensions>
          <ns3:TrackPointExtension>
            <ns3:atemp>24.0</ns3:atemp>
            <ns3:hr>95</ns3:hr>
          </ns3:TrackPointExtension>
        </extensions>
      </trkpt>
      <trkpt lat="47.7547589130699634552001953125" lon="12.2554302401840686798095703125">
        <ele>1445.4000244140625</ele>
        <time>2020-06-23T14:51:28.000Z</time>
        <extensions>
          <ns3:TrackPointExtension>
            <ns3:atemp>24.0</ns3:atemp>
            <ns3:hr>95</ns3:hr>
          </ns3:TrackPointExtension>
        </extensions>
      </trkpt>
      <trkpt lat="47.7548021636903285980224609375" lon="12.25548899732530117034912109375">
        <ele>1448</ele>
        <time>2020-06-23T14:51:29.000Z</time>
        <extensions>
          <ns3:TrackPointExtension>
            <ns3:atemp>24.0</ns3:atemp>
            <ns3:hr>94</ns3:hr>
          </ns3:TrackPointExtension>
        </extensions>
      </trkpt>
      <trkpt lat="47.754834182560443878173828125" lon="12.25556108169257640838623046875">
        <ele>1450</ele>
        <time>2020-06-23T14:51:30.000Z</time>
        <extensions>
          <ns3:TrackPointExtension>
            <ns3:atemp>24.0</ns3:atemp>
            <ns3:hr>93</ns3:hr>
          </ns3:TrackPointExtension>
        </extensions>
      </trkpt>
      <trkpt lat="47.7548539638519287109375" lon="12.25563920103013515472412109375">
        <ele>1452</ele>
        <time>2020-06-23T14:51:31.000Z</time>
        <extensions>
          <ns3:TrackPointExtension>
            <ns3:atemp>24.0</ns3:atemp>
            <ns3:hr>92</ns3:hr>
          </ns3:TrackPointExtension>
        </extensions>
      </trkpt>
      <trkpt lat="47.75486645288765430450439453125" lon="12.25571983493864536285400390625">
        <ele>1453.5999755859375</ele>
        <time>2020-06-23T14:51:32.000Z</time>
        <extensions>
          <ns3:TrackPointExtension>
            <ns3:atemp>24.0</ns3:atemp>
            <ns3:hr>94</ns3:hr>
          </ns3:TrackPointExtension>
        </extensions>
      </trkpt>
      <trkpt lat="47.7548997290432453155517578125" lon="12.25589275360107421875">
        <ele>1455</ele>
        <time>2020-06-23T14:51:34.000Z</time>
        <extensions>
          <ns3:TrackPointExtension>
            <ns3:atemp>24.0</ns3:atemp>
            <ns3:hr>95</ns3:hr>
          </ns3:TrackPointExtension>
        </extensions>
      </trkpt>
      <trkpt lat="47.75500643067061901092529296875" lon="12.25625962950289249420166015625">
        <ele>1455.4000244140625</ele>
        <time>2020-06-23T14:51:38.000Z</time>
        <extensions>
          <ns3:TrackPointExtension>
            <ns3:atemp>24.0</ns3:atemp>
            <ns3:hr>95</ns3:hr>
          </ns3:TrackPointExtension>
        </extensions>
      </trkpt>
      <trkpt lat="47.7550469152629375457763671875" lon="12.25635945796966552734375">
        <ele>1455.800048828125</ele>
        <time>2020-06-23T14:51:40.000Z</time>
        <extensions>
          <ns3:TrackPointExtension>
            <ns3:atemp>24.0</ns3:atemp>
            <ns3:hr>98</ns3:hr>
          </ns3:TrackPointExtension>
        </extensions>
      </trkpt>
      <trkpt lat="47.75507197715342044830322265625" lon="12.256414778530597686767578125">
        <ele>1456.199951171875</ele>
        <time>2020-06-23T14:51:41.000Z</time>
        <extensions>
          <ns3:TrackPointExtension>
            <ns3:atemp>24.0</ns3:atemp>
            <ns3:hr>99</ns3:hr>
          </ns3:TrackPointExtension>
        </extensions>
      </trkpt>
      <trkpt lat="47.7550978772342205047607421875" lon="12.25647286511957645416259765625">
        <ele>1456.4000244140625</ele>
        <time>2020-06-23T14:51:42.000Z</time>
        <extensions>
          <ns3:TrackPointExtension>
            <ns3:atemp>24.0</ns3:atemp>
            <ns3:hr>101</ns3:hr>
          </ns3:TrackPointExtension>
        </extensions>
      </trkpt>
      <trkpt lat="47.7552205882966518402099609375" lon="12.25662642158567905426025390625">
        <ele>1456.5999755859375</ele>
        <time>2020-06-23T14:51:46.000Z</time>
        <extensions>
          <ns3:TrackPointExtension>
            <ns3:atemp>24.0</ns3:atemp>
            <ns3:hr>102</ns3:hr>
          </ns3:TrackPointExtension>
        </extensions>
      </trkpt>
      <trkpt lat="47.75530030019581317901611328125" lon="12.25674024783074855804443359375">
        <ele>1455</ele>
        <time>2020-06-23T14:51:48.000Z</time>
        <extensions>
          <ns3:TrackPointExtension>
            <ns3:atemp>24.0</ns3:atemp>
            <ns3:hr>103</ns3:hr>
          </ns3:TrackPointExtension>
        </extensions>
      </trkpt>
      <trkpt lat="47.75534874759614467620849609375" lon="12.2567872703075408935546875">
        <ele>1453.800048828125</ele>
        <time>2020-06-23T14:51:49.000Z</time>
        <extensions>
          <ns3:TrackPointExtension>
            <ns3:atemp>24.0</ns3:atemp>
            <ns3:hr>103</ns3:hr>
          </ns3:TrackPointExtension>
        </extensions>
      </trkpt>
      <trkpt lat="47.75540021248161792755126953125" lon="12.256828509271144866943359375">
        <ele>1453.199951171875</ele>
        <time>2020-06-23T14:51:50.000Z</time>
        <extensions>
          <ns3:TrackPointExtension>
            <ns3:atemp>24.0</ns3:atemp>
            <ns3:hr>103</ns3:hr>
          </ns3:TrackPointExtension>
        </extensions>
      </trkpt>
      <trkpt lat="47.755447067320346832275390625" lon="12.256871424615383148193359375">
        <ele>1453</ele>
        <time>2020-06-23T14:51:51.000Z</time>
        <extensions>
          <ns3:TrackPointExtension>
            <ns3:atemp>24.0</ns3:atemp>
            <ns3:hr>103</ns3:hr>
          </ns3:TrackPointExtension>
        </extensions>
      </trkpt>
      <trkpt lat="47.75548604317009449005126953125" lon="12.25691325031220912933349609375">
        <ele>1452.5999755859375</ele>
        <time>2020-06-23T14:51:52.000Z</time>
        <extensions>
          <ns3:TrackPointExtension>
            <ns3:atemp>24.0</ns3:atemp>
            <ns3:hr>102</ns3:hr>
          </ns3:TrackPointExtension>
        </extensions>
      </trkpt>
      <trkpt lat="47.755556367337703704833984375" lon="12.25696203298866748809814453125">
        <ele>1452</ele>
        <time>2020-06-23T14:51:54.000Z</time>
        <extensions>
          <ns3:TrackPointExtension>
            <ns3:atemp>24.0</ns3:atemp>
            <ns3:hr>101</ns3:hr>
          </ns3:TrackPointExtension>
        </extensions>
      </trkpt>
      <trkpt lat="47.755738757550716400146484375" lon="12.25703562609851360321044921875">
        <ele>1452.199951171875</ele>
        <time>2020-06-23T14:51:57.000Z</time>
        <extensions>
          <ns3:TrackPointExtension>
            <ns3:atemp>24.0</ns3:atemp>
            <ns3:hr>101</ns3:hr>
          </ns3:TrackPointExtension>
        </extensions>
      </trkpt>
      <trkpt lat="47.7558093331754207611083984375" lon="12.257056497037410736083984375">
        <ele>1452.4000244140625</ele>
        <time>2020-06-23T14:51:58.000Z</time>
        <extensions>
          <ns3:TrackPointExtension>
            <ns3:atemp>24.0</ns3:atemp>
            <ns3:hr>101</ns3:hr>
          </ns3:TrackPointExtension>
        </extensions>
      </trkpt>
      <trkpt lat="47.75589533150196075439453125" lon="12.2570415772497653961181640625">
        <ele>1454.5999755859375</ele>
        <time>2020-06-23T14:52:00.000Z</time>
        <extensions>
          <ns3:TrackPointExtension>
            <ns3:atemp>24.0</ns3:atemp>
            <ns3:hr>102</ns3:hr>
          </ns3:TrackPointExtension>
        </extensions>
      </trkpt>
      <trkpt lat="47.7559236623346805572509765625" lon="12.2570375539362430572509765625">
        <ele>1456.5999755859375</ele>
        <time>2020-06-23T14:52:01.000Z</time>
        <extensions>
          <ns3:TrackPointExtension>
            <ns3:atemp>24.0</ns3:atemp>
            <ns3:hr>103</ns3:hr>
          </ns3:TrackPointExtension>
        </extensions>
      </trkpt>
      <trkpt lat="47.7559672482311725616455078125" lon="12.25704484619200229644775390625">
        <ele>1459</ele>
        <time>2020-06-23T14:52:02.000Z</time>
        <extensions>
          <ns3:TrackPointExtension>
            <ns3:atemp>24.0</ns3:atemp>
            <ns3:hr>104</ns3:hr>
          </ns3:TrackPointExtension>
        </extensions>
      </trkpt>
      <trkpt lat="47.7560327947139739990234375" lon="12.2570469416677951812744140625">
        <ele>1461</ele>
        <time>2020-06-23T14:52:03.000Z</time>
        <extensions>
          <ns3:TrackPointExtension>
            <ns3:atemp>24.0</ns3:atemp>
            <ns3:hr>105</ns3:hr>
          </ns3:TrackPointExtension>
        </extensions>
      </trkpt>
      <trkpt lat="47.756112255156040191650390625" lon="12.25704937241971492767333984375">
        <ele>1462.4000244140625</ele>
        <time>2020-06-23T14:52:04.000Z</time>
        <extensions>
          <ns3:TrackPointExtension>
            <ns3:atemp>24.0</ns3:atemp>
            <ns3:hr>105</ns3:hr>
          </ns3:TrackPointExtension>
        </extensions>
      </trkpt>
      <trkpt lat="47.75618190877139568328857421875" lon="12.25704920478165149688720703125">
        <ele>1464</ele>
        <time>2020-06-23T14:52:05.000Z</time>
        <extensions>
          <ns3:TrackPointExtension>
            <ns3:atemp>24.0</ns3:atemp>
            <ns3:hr>105</ns3:hr>
          </ns3:TrackPointExtension>
        </extensions>
      </trkpt>
      <trkpt lat="47.75623270310461521148681640625" lon="12.25705557502806186676025390625">
        <ele>1466</ele>
        <time>2020-06-23T14:52:06.000Z</time>
        <extensions>
          <ns3:TrackPointExtension>
            <ns3:atemp>24.0</ns3:atemp>
            <ns3:hr>105</ns3:hr>
          </ns3:TrackPointExtension>
        </extensions>
      </trkpt>
      <trkpt lat="47.7562700025737285614013671875" lon="12.25707300938665866851806640625">
        <ele>1468.800048828125</ele>
        <time>2020-06-23T14:52:07.000Z</time>
        <extensions>
          <ns3:TrackPointExtension>
            <ns3:atemp>24.0</ns3:atemp>
            <ns3:hr>106</ns3:hr>
          </ns3:TrackPointExtension>
        </extensions>
      </trkpt>
      <trkpt lat="47.75630512274801731109619140625" lon="12.257101424038410186767578125">
        <ele>1472</ele>
        <time>2020-06-23T14:52:08.000Z</time>
        <extensions>
          <ns3:TrackPointExtension>
            <ns3:atemp>24.0</ns3:atemp>
            <ns3:hr>107</ns3:hr>
          </ns3:TrackPointExtension>
        </extensions>
      </trkpt>
      <trkpt lat="47.7563464455306529998779296875" lon="12.2571331076323986053466796875">
        <ele>1474.800048828125</ele>
        <time>2020-06-23T14:52:09.000Z</time>
        <extensions>
          <ns3:TrackPointExtension>
            <ns3:atemp>24.0</ns3:atemp>
            <ns3:hr>107</ns3:hr>
          </ns3:TrackPointExtension>
        </extensions>
      </trkpt>
      <trkpt lat="47.7563964016735553741455078125" lon="12.2571706585586071014404296875">
        <ele>1476.5999755859375</ele>
        <time>2020-06-23T14:52:10.000Z</time>
        <extensions>
          <ns3:TrackPointExtension>
            <ns3:atemp>24.0</ns3:atemp>
            <ns3:hr>107</ns3:hr>
          </ns3:TrackPointExtension>
        </extensions>
      </trkpt>
      <trkpt lat="47.7565033547580242156982421875" lon="12.257267050445079803466796875">
        <ele>1478</ele>
        <time>2020-06-23T14:52:12.000Z</time>
        <extensions>
          <ns3:TrackPointExtension>
            <ns3:atemp>24.0</ns3:atemp>
            <ns3:hr>106</ns3:hr>
          </ns3:TrackPointExtension>
        </extensions>
      </trkpt>
      <trkpt lat="47.756594382226467132568359375" lon="12.25738682784140110015869140625">
        <ele>1478.4000244140625</ele>
        <time>2020-06-23T14:52:14.000Z</time>
        <extensions>
          <ns3:TrackPointExtension>
            <ns3:atemp>24.0</ns3:atemp>
            <ns3:hr>105</ns3:hr>
          </ns3:TrackPointExtension>
        </extensions>
      </trkpt>
      <trkpt lat="47.7566384710371494293212890625" lon="12.2574418969452381134033203125">
        <ele>1478</ele>
        <time>2020-06-23T14:52:15.000Z</time>
        <extensions>
          <ns3:TrackPointExtension>
            <ns3:atemp>24.0</ns3:atemp>
            <ns3:hr>104</ns3:hr>
          </ns3:TrackPointExtension>
        </extensions>
      </trkpt>
      <trkpt lat="47.75673897005617618560791015625" lon="12.25754021666944026947021484375">
        <ele>1476.4000244140625</ele>
        <time>2020-06-23T14:52:17.000Z</time>
        <extensions>
          <ns3:TrackPointExtension>
            <ns3:atemp>24.0</ns3:atemp>
            <ns3:hr>103</ns3:hr>
          </ns3:TrackPointExtension>
        </extensions>
      </trkpt>
      <trkpt lat="47.75683418847620487213134765625" lon="12.2576490975916385650634765625">
        <ele>1475.199951171875</ele>
        <time>2020-06-23T14:52:19.000Z</time>
        <extensions>
          <ns3:TrackPointExtension>
            <ns3:atemp>24.0</ns3:atemp>
            <ns3:hr>103</ns3:hr>
          </ns3:TrackPointExtension>
        </extensions>
      </trkpt>
      <trkpt lat="47.75701087899506092071533203125" lon="12.25786727853119373321533203125">
        <ele>1474.4000244140625</ele>
        <time>2020-06-23T14:52:23.000Z</time>
        <extensions>
          <ns3:TrackPointExtension>
            <ns3:atemp>24.0</ns3:atemp>
            <ns3:hr>102</ns3:hr>
          </ns3:TrackPointExtension>
        </extensions>
      </trkpt>
      <trkpt lat="47.75704868137836456298828125" lon="12.25794539786875247955322265625">
        <ele>1474.5999755859375</ele>
        <time>2020-06-23T14:52:24.000Z</time>
        <extensions>
          <ns3:TrackPointExtension>
            <ns3:atemp>24.0</ns3:atemp>
            <ns3:hr>102</ns3:hr>
          </ns3:TrackPointExtension>
        </extensions>
      </trkpt>
      <trkpt lat="47.75719142518937587738037109375" lon="12.25829542614519596099853515625">
        <ele>1476.4000244140625</ele>
        <time>2020-06-23T14:52:28.000Z</time>
        <extensions>
          <ns3:TrackPointExtension>
            <ns3:atemp>24.0</ns3:atemp>
            <ns3:hr>101</ns3:hr>
          </ns3:TrackPointExtension>
        </extensions>
      </trkpt>
      <trkpt lat="47.7572198398411273956298828125" lon="12.2583682648837566375732421875">
        <ele>1477.199951171875</ele>
        <time>2020-06-23T14:52:29.000Z</time>
        <extensions>
          <ns3:TrackPointExtension>
            <ns3:atemp>24.0</ns3:atemp>
            <ns3:hr>100</ns3:hr>
          </ns3:TrackPointExtension>
        </extensions>
      </trkpt>
      <trkpt lat="47.75724305771291255950927734375" lon="12.25842987187206745147705078125">
        <ele>1478</ele>
        <time>2020-06-23T14:52:30.000Z</time>
        <extensions>
          <ns3:TrackPointExtension>
            <ns3:atemp>24.0</ns3:atemp>
            <ns3:hr>99</ns3:hr>
          </ns3:TrackPointExtension>
        </extensions>
      </trkpt>
      <trkpt lat="47.75726904161274433135986328125" lon="12.25847831927239894866943359375">
        <ele>1478.5999755859375</ele>
        <time>2020-06-23T14:52:31.000Z</time>
        <extensions>
          <ns3:TrackPointExtension>
            <ns3:atemp>24.0</ns3:atemp>
            <ns3:hr>99</ns3:hr>
          </ns3:TrackPointExtension>
        </extensions>
      </trkpt>
      <trkpt lat="47.75730676017701625823974609375" lon="12.25851662456989288330078125">
        <ele>1479</ele>
        <time>2020-06-23T14:52:32.000Z</time>
        <extensions>
          <ns3:TrackPointExtension>
            <ns3:atemp>24.0</ns3:atemp>
            <ns3:hr>99</ns3:hr>
          </ns3:TrackPointExtension>
        </extensions>
      </trkpt>
      <trkpt lat="47.75735654868185520172119140625" lon="12.25854855962097644805908203125">
        <ele>1479</ele>
        <time>2020-06-23T14:52:33.000Z</time>
        <extensions>
          <ns3:TrackPointExtension>
            <ns3:atemp>24.0</ns3:atemp>
            <ns3:hr>99</ns3:hr>
          </ns3:TrackPointExtension>
        </extensions>
      </trkpt>
      <trkpt lat="47.75746467523276805877685546875" lon="12.2585942409932613372802734375">
        <ele>1479</ele>
        <time>2020-06-23T14:52:35.000Z</time>
        <extensions>
          <ns3:TrackPointExtension>
            <ns3:atemp>24.0</ns3:atemp>
            <ns3:hr>99</ns3:hr>
          </ns3:TrackPointExtension>
        </extensions>
      </trkpt>
      <trkpt lat="47.75751278735697269439697265625" lon="12.258599102497100830078125">
        <ele>1479</ele>
        <time>2020-06-23T14:52:36.000Z</time>
        <extensions>
          <ns3:TrackPointExtension>
            <ns3:atemp>24.0</ns3:atemp>
            <ns3:hr>99</ns3:hr>
          </ns3:TrackPointExtension>
        </extensions>
      </trkpt>
      <trkpt lat="47.75755821727216243743896484375" lon="12.2586029581725597381591796875">
        <ele>1479</ele>
        <time>2020-06-23T14:52:37.000Z</time>
        <extensions>
          <ns3:TrackPointExtension>
            <ns3:atemp>24.0</ns3:atemp>
            <ns3:hr>99</ns3:hr>
          </ns3:TrackPointExtension>
        </extensions>
      </trkpt>
      <trkpt lat="47.7577016316354274749755859375" lon="12.25865618325769901275634765625">
        <ele>1479.4000244140625</ele>
        <time>2020-06-23T14:52:40.000Z</time>
        <extensions>
          <ns3:TrackPointExtension>
            <ns3:atemp>24.0</ns3:atemp>
            <ns3:hr>100</ns3:hr>
          </ns3:TrackPointExtension>
        </extensions>
      </trkpt>
      <trkpt lat="47.75786633603274822235107421875" lon="12.25863556377589702606201171875">
        <ele>1478.4000244140625</ele>
        <time>2020-06-23T14:52:44.000Z</time>
        <extensions>
          <ns3:TrackPointExtension>
            <ns3:atemp>24.0</ns3:atemp>
            <ns3:hr>100</ns3:hr>
          </ns3:TrackPointExtension>
        </extensions>
      </trkpt>
      <trkpt lat="47.75790170766413211822509765625" lon="12.25859030149877071380615234375">
        <ele>1477.800048828125</ele>
        <time>2020-06-23T14:52:45.000Z</time>
        <extensions>
          <ns3:TrackPointExtension>
            <ns3:atemp>24.0</ns3:atemp>
            <ns3:hr>99</ns3:hr>
          </ns3:TrackPointExtension>
        </extensions>
      </trkpt>
      <trkpt lat="47.75792978703975677490234375" lon="12.2584960050880908966064453125">
        <ele>1477.4000244140625</ele>
        <time>2020-06-23T14:52:46.000Z</time>
        <extensions>
          <ns3:TrackPointExtension>
            <ns3:atemp>24.0</ns3:atemp>
            <ns3:hr>100</ns3:hr>
          </ns3:TrackPointExtension>
        </extensions>
      </trkpt>
      <trkpt lat="47.7579272724688053131103515625" lon="12.2581915743649005889892578125">
        <ele>1476.4000244140625</ele>
        <time>2020-06-23T14:52:48.000Z</time>
        <extensions>
          <ns3:TrackPointExtension>
            <ns3:atemp>24.0</ns3:atemp>
            <ns3:hr>97</ns3:hr>
          </ns3:TrackPointExtension>
        </extensions>
      </trkpt>
      <trkpt lat="47.75784035213291645050048828125" lon="12.25789359770715236663818359375">
        <ele>1476</ele>
        <time>2020-06-23T14:52:50.000Z</time>
        <extensions>
          <ns3:TrackPointExtension>
            <ns3:atemp>24.0</ns3:atemp>
            <ns3:hr>97</ns3:hr>
          </ns3:TrackPointExtension>
        </extensions>
      </trkpt>
      <trkpt lat="47.75778301991522312164306640625" lon="12.2577671147882938385009765625">
        <ele>1475.800048828125</ele>
        <time>2020-06-23T14:52:51.000Z</time>
        <extensions>
          <ns3:TrackPointExtension>
            <ns3:atemp>24.0</ns3:atemp>
            <ns3:hr>97</ns3:hr>
          </ns3:TrackPointExtension>
        </extensions>
      </trkpt>
      <trkpt lat="47.75764622725546360015869140625" lon="12.2575203515589237213134765625">
        <ele>1475.4000244140625</ele>
        <time>2020-06-23T14:52:53.000Z</time>
        <extensions>
          <ns3:TrackPointExtension>
            <ns3:atemp>24.0</ns3:atemp>
            <ns3:hr>97</ns3:hr>
          </ns3:TrackPointExtension>
        </extensions>
      </trkpt>
      <trkpt lat="47.7574731409549713134765625" lon="12.25727836601436138153076171875">
        <ele>1474.4000244140625</ele>
        <time>2020-06-23T14:52:55.000Z</time>
        <extensions>
          <ns3:TrackPointExtension>
            <ns3:atemp>24.0</ns3:atemp>
            <ns3:hr>98</ns3:hr>
          </ns3:TrackPointExtension>
        </extensions>
      </trkpt>
      <trkpt lat="47.75738320313394069671630859375" lon="12.257166467607021331787109375">
        <ele>1473.5999755859375</ele>
        <time>2020-06-23T14:52:56.000Z</time>
        <extensions>
          <ns3:TrackPointExtension>
            <ns3:atemp>24.0</ns3:atemp>
            <ns3:hr>99</ns3:hr>
          </ns3:TrackPointExtension>
        </extensions>
      </trkpt>
      <trkpt lat="47.75720885954797267913818359375" lon="12.25694946013391017913818359375">
        <ele>1472.4000244140625</ele>
        <time>2020-06-23T14:52:58.000Z</time>
        <extensions>
          <ns3:TrackPointExtension>
            <ns3:atemp>24.0</ns3:atemp>
            <ns3:hr>99</ns3:hr>
          </ns3:TrackPointExtension>
        </extensions>
      </trkpt>
      <trkpt lat="47.7570211887359619140625" lon="12.2567294351756572723388671875">
        <ele>1472</ele>
        <time>2020-06-23T14:53:00.000Z</time>
        <extensions>
          <ns3:TrackPointExtension>
            <ns3:atemp>24.0</ns3:atemp>
            <ns3:hr>99</ns3:hr>
          </ns3:TrackPointExtension>
        </extensions>
      </trkpt>
      <trkpt lat="47.75679730810225009918212890625" lon="12.256402038037776947021484375">
        <ele>1473.4000244140625</ele>
        <time>2020-06-23T14:53:03.000Z</time>
        <extensions>
          <ns3:TrackPointExtension>
            <ns3:atemp>23.0</ns3:atemp>
            <ns3:hr>99</ns3:hr>
          </ns3:TrackPointExtension>
        </extensions>
      </trkpt>
      <trkpt lat="47.75655825622379779815673828125" lon="12.256065420806407928466796875">
        <ele>1474.199951171875</ele>
        <time>2020-06-23T14:53:06.000Z</time>
        <extensions>
          <ns3:TrackPointExtension>
            <ns3:atemp>23.0</ns3:atemp>
            <ns3:hr>96</ns3:hr>
          </ns3:TrackPointExtension>
        </extensions>
      </trkpt>
      <trkpt lat="47.75647980161011219024658203125" lon="12.2559609822928905487060546875">
        <ele>1474.800048828125</ele>
        <time>2020-06-23T14:53:07.000Z</time>
        <extensions>
          <ns3:TrackPointExtension>
            <ns3:atemp>23.0</ns3:atemp>
            <ns3:hr>99</ns3:hr>
          </ns3:TrackPointExtension>
        </extensions>
      </trkpt>
      <trkpt lat="47.7563474513590335845947265625" lon="12.25576207973062992095947265625">
        <ele>1476.4000244140625</ele>
        <time>2020-06-23T14:53:09.000Z</time>
        <extensions>
          <ns3:TrackPointExtension>
            <ns3:atemp>23.0</ns3:atemp>
            <ns3:hr>99</ns3:hr>
          </ns3:TrackPointExtension>
        </extensions>
      </trkpt>
      <trkpt lat="47.75628349743783473968505859375" lon="12.255650348961353302001953125">
        <ele>1477.800048828125</ele>
        <time>2020-06-23T14:53:10.000Z</time>
        <extensions>
          <ns3:TrackPointExtension>
            <ns3:atemp>23.0</ns3:atemp>
            <ns3:hr>100</ns3:hr>
          </ns3:TrackPointExtension>
        </extensions>
      </trkpt>
      <trkpt lat="47.7562156878411769866943359375" lon="12.25553677417337894439697265625">
        <ele>1479</ele>
        <time>2020-06-23T14:53:11.000Z</time>
        <extensions>
          <ns3:TrackPointExtension>
            <ns3:atemp>23.0</ns3:atemp>
            <ns3:hr>101</ns3:hr>
          </ns3:TrackPointExtension>
        </extensions>
      </trkpt>
      <trkpt lat="47.75614419020712375640869140625" lon="12.25543686188757419586181640625">
        <ele>1480</ele>
        <time>2020-06-23T14:53:12.000Z</time>
        <extensions>
          <ns3:TrackPointExtension>
            <ns3:atemp>23.0</ns3:atemp>
            <ns3:hr>101</ns3:hr>
          </ns3:TrackPointExtension>
        </extensions>
      </trkpt>
      <trkpt lat="47.7560654841363430023193359375" lon="12.25535103119909763336181640625">
        <ele>1480.800048828125</ele>
        <time>2020-06-23T14:53:13.000Z</time>
        <extensions>
          <ns3:TrackPointExtension>
            <ns3:atemp>23.0</ns3:atemp>
            <ns3:hr>102</ns3:hr>
          </ns3:TrackPointExtension>
        </extensions>
      </trkpt>
      <trkpt lat="47.7559773065149784088134765625" lon="12.25526385940611362457275390625">
        <ele>1481.5999755859375</ele>
        <time>2020-06-23T14:53:14.000Z</time>
        <extensions>
          <ns3:TrackPointExtension>
            <ns3:atemp>23.0</ns3:atemp>
            <ns3:hr>101</ns3:hr>
          </ns3:TrackPointExtension>
        </extensions>
      </trkpt>
      <trkpt lat="47.7558837644755840301513671875" lon="12.2551633603870868682861328125">
        <ele>1482.4000244140625</ele>
        <time>2020-06-23T14:53:15.000Z</time>
        <extensions>
          <ns3:TrackPointExtension>
            <ns3:atemp>23.0</ns3:atemp>
            <ns3:hr>101</ns3:hr>
          </ns3:TrackPointExtension>
        </extensions>
      </trkpt>
      <trkpt lat="47.75579608976840972900390625" lon="12.25504978559911251068115234375">
        <ele>1483.199951171875</ele>
        <time>2020-06-23T14:53:16.000Z</time>
        <extensions>
          <ns3:TrackPointExtension>
            <ns3:atemp>23.0</ns3:atemp>
            <ns3:hr>101</ns3:hr>
          </ns3:TrackPointExtension>
        </extensions>
      </trkpt>
      <trkpt lat="47.755719311535358428955078125" lon="12.2549338638782501220703125">
        <ele>1484.199951171875</ele>
        <time>2020-06-23T14:53:17.000Z</time>
        <extensions>
          <ns3:TrackPointExtension>
            <ns3:atemp>23.0</ns3:atemp>
            <ns3:hr>101</ns3:hr>
          </ns3:TrackPointExtension>
        </extensions>
      </trkpt>
      <trkpt lat="47.75564596988260746002197265625" lon="12.2548223845660686492919921875">
        <ele>1485.5999755859375</ele>
        <time>2020-06-23T14:53:18.000Z</time>
        <extensions>
          <ns3:TrackPointExtension>
            <ns3:atemp>23.0</ns3:atemp>
            <ns3:hr>101</ns3:hr>
          </ns3:TrackPointExtension>
        </extensions>
      </trkpt>
      <trkpt lat="47.7555679343640804290771484375" lon="12.25471652112901210784912109375">
        <ele>1487.4000244140625</ele>
        <time>2020-06-23T14:53:19.000Z</time>
        <extensions>
          <ns3:TrackPointExtension>
            <ns3:atemp>23.0</ns3:atemp>
            <ns3:hr>100</ns3:hr>
          </ns3:TrackPointExtension>
        </extensions>
      </trkpt>
      <trkpt lat="47.75548604317009449005126953125" lon="12.2546119987964630126953125">
        <ele>1489</ele>
        <time>2020-06-23T14:53:20.000Z</time>
        <extensions>
          <ns3:TrackPointExtension>
            <ns3:atemp>23.0</ns3:atemp>
            <ns3:hr>98</ns3:hr>
          </ns3:TrackPointExtension>
        </extensions>
      </trkpt>
      <trkpt lat="47.75540356524288654327392578125" lon="12.25449808873236179351806640625">
        <ele>1490.199951171875</ele>
        <time>2020-06-23T14:53:21.000Z</time>
        <extensions>
          <ns3:TrackPointExtension>
            <ns3:atemp>23.0</ns3:atemp>
            <ns3:hr>98</ns3:hr>
          </ns3:TrackPointExtension>
        </extensions>
      </trkpt>
      <trkpt lat="47.75523508898913860321044921875" lon="12.25426197052001953125">
        <ele>1491.5999755859375</ele>
        <time>2020-06-23T14:53:23.000Z</time>
        <extensions>
          <ns3:TrackPointExtension>
            <ns3:atemp>23.0</ns3:atemp>
            <ns3:hr>98</ns3:hr>
          </ns3:TrackPointExtension>
        </extensions>
      </trkpt>
      <trkpt lat="47.7550549618899822235107421875" lon="12.25406960584223270416259765625">
        <ele>1492.800048828125</ele>
        <time>2020-06-23T14:53:25.000Z</time>
        <extensions>
          <ns3:TrackPointExtension>
            <ns3:atemp>23.0</ns3:atemp>
            <ns3:hr>97</ns3:hr>
          </ns3:TrackPointExtension>
        </extensions>
      </trkpt>
      <trkpt lat="47.754964269697666168212890625" lon="12.25396717898547649383544921875">
        <ele>1493.4000244140625</ele>
        <time>2020-06-23T14:53:26.000Z</time>
        <extensions>
          <ns3:TrackPointExtension>
            <ns3:atemp>23.0</ns3:atemp>
            <ns3:hr>96</ns3:hr>
          </ns3:TrackPointExtension>
        </extensions>
      </trkpt>
      <trkpt lat="47.75477743707597255706787109375" lon="12.25372142158448696136474609375">
        <ele>1494.199951171875</ele>
        <time>2020-06-23T14:53:28.000Z</time>
        <extensions>
          <ns3:TrackPointExtension>
            <ns3:atemp>23.0</ns3:atemp>
            <ns3:hr>95</ns3:hr>
          </ns3:TrackPointExtension>
        </extensions>
      </trkpt>
      <trkpt lat="47.75468205101788043975830078125" lon="12.2535900771617889404296875">
        <ele>1494.4000244140625</ele>
        <time>2020-06-23T14:53:29.000Z</time>
        <extensions>
          <ns3:TrackPointExtension>
            <ns3:atemp>23.0</ns3:atemp>
            <ns3:hr>95</ns3:hr>
          </ns3:TrackPointExtension>
        </extensions>
      </trkpt>
      <trkpt lat="47.75441341102123260498046875" lon="12.2532304935157299041748046875">
        <ele>1495.800048828125</ele>
        <time>2020-06-23T14:53:32.000Z</time>
        <extensions>
          <ns3:TrackPointExtension>
            <ns3:atemp>23.0</ns3:atemp>
            <ns3:hr>97</ns3:hr>
          </ns3:TrackPointExtension>
        </extensions>
      </trkpt>
      <trkpt lat="47.75424711406230926513671875" lon="12.2530229575932025909423828125">
        <ele>1496.800048828125</ele>
        <time>2020-06-23T14:53:34.000Z</time>
        <extensions>
          <ns3:TrackPointExtension>
            <ns3:atemp>23.0</ns3:atemp>
            <ns3:hr>96</ns3:hr>
          </ns3:TrackPointExtension>
        </extensions>
      </trkpt>
      <trkpt lat="47.753924243152141571044921875" lon="12.2525683231651782989501953125">
        <ele>1495.4000244140625</ele>
        <time>2020-06-23T14:53:38.000Z</time>
        <extensions>
          <ns3:TrackPointExtension>
            <ns3:atemp>23.0</ns3:atemp>
            <ns3:hr>94</ns3:hr>
          </ns3:TrackPointExtension>
        </extensions>
      </trkpt>
      <trkpt lat="47.75384302251040935516357421875" lon="12.2524581849575042724609375">
        <ele>1494.199951171875</ele>
        <time>2020-06-23T14:53:39.000Z</time>
        <extensions>
          <ns3:TrackPointExtension>
            <ns3:atemp>23.0</ns3:atemp>
            <ns3:hr>94</ns3:hr>
          </ns3:TrackPointExtension>
        </extensions>
      </trkpt>
      <trkpt lat="47.753766663372516632080078125" lon="12.2523527406156063079833984375">
        <ele>1492.5999755859375</ele>
        <time>2020-06-23T14:53:40.000Z</time>
        <extensions>
          <ns3:TrackPointExtension>
            <ns3:atemp>23.0</ns3:atemp>
            <ns3:hr>95</ns3:hr>
          </ns3:TrackPointExtension>
        </extensions>
      </trkpt>
      <trkpt lat="47.7536887116730213165283203125" lon="12.2522514872252941131591796875">
        <ele>1490.800048828125</ele>
        <time>2020-06-23T14:53:41.000Z</time>
        <extensions>
          <ns3:TrackPointExtension>
            <ns3:atemp>23.0</ns3:atemp>
            <ns3:hr>94</ns3:hr>
          </ns3:TrackPointExtension>
        </extensions>
      </trkpt>
      <trkpt lat="47.75360229425132274627685546875" lon="12.2521483898162841796875">
        <ele>1488.5999755859375</ele>
        <time>2020-06-23T14:53:42.000Z</time>
        <extensions>
          <ns3:TrackPointExtension>
            <ns3:atemp>23.0</ns3:atemp>
            <ns3:hr>96</ns3:hr>
          </ns3:TrackPointExtension>
        </extensions>
      </trkpt>
      <trkpt lat="47.7535063214600086212158203125" lon="12.25203347392380237579345703125">
        <ele>1486.199951171875</ele>
        <time>2020-06-23T14:53:43.000Z</time>
        <extensions>
          <ns3:TrackPointExtension>
            <ns3:atemp>23.0</ns3:atemp>
            <ns3:hr>94</ns3:hr>
          </ns3:TrackPointExtension>
        </extensions>
      </trkpt>
      <trkpt lat="47.753411270678043365478515625" lon="12.25189902819693088531494140625">
        <ele>1483.5999755859375</ele>
        <time>2020-06-23T14:53:44.000Z</time>
        <extensions>
          <ns3:TrackPointExtension>
            <ns3:atemp>23.0</ns3:atemp>
            <ns3:hr>93</ns3:hr>
          </ns3:TrackPointExtension>
        </extensions>
      </trkpt>
      <trkpt lat="47.75333382189273834228515625" lon="12.251750417053699493408203125">
        <ele>1481</ele>
        <time>2020-06-23T14:53:45.000Z</time>
        <extensions>
          <ns3:TrackPointExtension>
            <ns3:atemp>23.0</ns3:atemp>
            <ns3:hr>92</ns3:hr>
          </ns3:TrackPointExtension>
        </extensions>
      </trkpt>
      <trkpt lat="47.75327288545668125152587890625" lon="12.25161052308976650238037109375">
        <ele>1479</ele>
        <time>2020-06-23T14:53:46.000Z</time>
        <extensions>
          <ns3:TrackPointExtension>
            <ns3:atemp>23.0</ns3:atemp>
            <ns3:hr>92</ns3:hr>
          </ns3:TrackPointExtension>
        </extensions>
      </trkpt>
      <trkpt lat="47.75321848690509796142578125" lon="12.25149166770279407501220703125">
        <ele>1478</ele>
        <time>2020-06-23T14:53:47.000Z</time>
        <extensions>
          <ns3:TrackPointExtension>
            <ns3:atemp>23.0</ns3:atemp>
            <ns3:hr>91</ns3:hr>
          </ns3:TrackPointExtension>
        </extensions>
      </trkpt>
      <trkpt lat="47.753163166344165802001953125" lon="12.2513861395418643951416015625">
        <ele>1477.4000244140625</ele>
        <time>2020-06-23T14:53:48.000Z</time>
        <extensions>
          <ns3:TrackPointExtension>
            <ns3:atemp>23.0</ns3:atemp>
            <ns3:hr>90</ns3:hr>
          </ns3:TrackPointExtension>
        </extensions>
      </trkpt>
      <trkpt lat="47.75305688381195068359375" lon="12.25117064081132411956787109375">
        <ele>1476.800048828125</ele>
        <time>2020-06-23T14:53:50.000Z</time>
        <extensions>
          <ns3:TrackPointExtension>
            <ns3:atemp>23.0</ns3:atemp>
            <ns3:hr>90</ns3:hr>
          </ns3:TrackPointExtension>
        </extensions>
      </trkpt>
      <trkpt lat="47.752968035638332366943359375" lon="12.2509400546550750732421875">
        <ele>1475.5999755859375</ele>
        <time>2020-06-23T14:53:52.000Z</time>
        <extensions>
          <ns3:TrackPointExtension>
            <ns3:atemp>23.0</ns3:atemp>
            <ns3:hr>90</ns3:hr>
          </ns3:TrackPointExtension>
        </extensions>
      </trkpt>
      <trkpt lat="47.7529195882380008697509765625" lon="12.2508336044847965240478515625">
        <ele>1474.199951171875</ele>
        <time>2020-06-23T14:53:53.000Z</time>
        <extensions>
          <ns3:TrackPointExtension>
            <ns3:atemp>23.0</ns3:atemp>
            <ns3:hr>90</ns3:hr>
          </ns3:TrackPointExtension>
        </extensions>
      </trkpt>
      <trkpt lat="47.752872146666049957275390625" lon="12.2507259808480739593505859375">
        <ele>1472.4000244140625</ele>
        <time>2020-06-23T14:53:54.000Z</time>
        <extensions>
          <ns3:TrackPointExtension>
            <ns3:atemp>23.0</ns3:atemp>
            <ns3:hr>90</ns3:hr>
          </ns3:TrackPointExtension>
        </extensions>
      </trkpt>
      <trkpt lat="47.75283149443566799163818359375" lon="12.2506074607372283935546875">
        <ele>1470.800048828125</ele>
        <time>2020-06-23T14:53:55.000Z</time>
        <extensions>
          <ns3:TrackPointExtension>
            <ns3:atemp>23.0</ns3:atemp>
            <ns3:hr>91</ns3:hr>
          </ns3:TrackPointExtension>
        </extensions>
      </trkpt>
      <trkpt lat="47.752800397574901580810546875" lon="12.25047410465776920318603515625">
        <ele>1469.199951171875</ele>
        <time>2020-06-23T14:53:56.000Z</time>
        <extensions>
          <ns3:TrackPointExtension>
            <ns3:atemp>23.0</ns3:atemp>
            <ns3:hr>91</ns3:hr>
          </ns3:TrackPointExtension>
        </extensions>
      </trkpt>
      <trkpt lat="47.75275656022131443023681640625" lon="12.250187695026397705078125">
        <ele>1467.800048828125</ele>
        <time>2020-06-23T14:53:58.000Z</time>
        <extensions>
          <ns3:TrackPointExtension>
            <ns3:atemp>23.0</ns3:atemp>
            <ns3:hr>93</ns3:hr>
          </ns3:TrackPointExtension>
        </extensions>
      </trkpt>
      <trkpt lat="47.75272068567574024200439453125" lon="12.2497905604541301727294921875">
        <ele>1468.800048828125</ele>
        <time>2020-06-23T14:54:01.000Z</time>
        <extensions>
          <ns3:TrackPointExtension>
            <ns3:atemp>23.0</ns3:atemp>
            <ns3:hr>95</ns3:hr>
          </ns3:TrackPointExtension>
        </extensions>
      </trkpt>
      <trkpt lat="47.7527150698006153106689453125" lon="12.2496678493916988372802734375">
        <ele>1470.800048828125</ele>
        <time>2020-06-23T14:54:02.000Z</time>
        <extensions>
          <ns3:TrackPointExtension>
            <ns3:atemp>23.0</ns3:atemp>
            <ns3:hr>95</ns3:hr>
          </ns3:TrackPointExtension>
        </extensions>
      </trkpt>
      <trkpt lat="47.75271113030612468719482421875" lon="12.2495494969189167022705078125">
        <ele>1472.5999755859375</ele>
        <time>2020-06-23T14:54:03.000Z</time>
        <extensions>
          <ns3:TrackPointExtension>
            <ns3:atemp>23.0</ns3:atemp>
            <ns3:hr>94</ns3:hr>
          </ns3:TrackPointExtension>
        </extensions>
      </trkpt>
      <trkpt lat="47.75270995683968067169189453125" lon="12.24943072535097599029541015625">
        <ele>1474</ele>
        <time>2020-06-23T14:54:04.000Z</time>
        <extensions>
          <ns3:TrackPointExtension>
            <ns3:atemp>23.0</ns3:atemp>
            <ns3:hr>94</ns3:hr>
          </ns3:TrackPointExtension>
        </extensions>
      </trkpt>
      <trkpt lat="47.75270811282098293304443359375" lon="12.24930725991725921630859375">
        <ele>1475.199951171875</ele>
        <time>2020-06-23T14:54:05.000Z</time>
        <extensions>
          <ns3:TrackPointExtension>
            <ns3:atemp>23.0</ns3:atemp>
            <ns3:hr>94</ns3:hr>
          </ns3:TrackPointExtension>
        </extensions>
      </trkpt>
      <trkpt lat="47.75270291604101657867431640625" lon="12.2491790167987346649169921875">
        <ele>1476.199951171875</ele>
        <time>2020-06-23T14:54:06.000Z</time>
        <extensions>
          <ns3:TrackPointExtension>
            <ns3:atemp>23.0</ns3:atemp>
            <ns3:hr>94</ns3:hr>
          </ns3:TrackPointExtension>
        </extensions>
      </trkpt>
      <trkpt lat="47.7526942826807498931884765625" lon="12.24905404262244701385498046875">
        <ele>1477.4000244140625</ele>
        <time>2020-06-23T14:54:07.000Z</time>
        <extensions>
          <ns3:TrackPointExtension>
            <ns3:atemp>23.0</ns3:atemp>
            <ns3:hr>94</ns3:hr>
          </ns3:TrackPointExtension>
        </extensions>
      </trkpt>
      <trkpt lat="47.7526845596730709075927734375" lon="12.2489352710545063018798828125">
        <ele>1478.5999755859375</ele>
        <time>2020-06-23T14:54:08.000Z</time>
        <extensions>
          <ns3:TrackPointExtension>
            <ns3:atemp>23.0</ns3:atemp>
            <ns3:hr>94</ns3:hr>
          </ns3:TrackPointExtension>
        </extensions>
      </trkpt>
      <trkpt lat="47.7526768483221530914306640625" lon="12.24881733767688274383544921875">
        <ele>1479.5999755859375</ele>
        <time>2020-06-23T14:54:09.000Z</time>
        <extensions>
          <ns3:TrackPointExtension>
            <ns3:atemp>23.0</ns3:atemp>
            <ns3:hr>95</ns3:hr>
          </ns3:TrackPointExtension>
        </extensions>
      </trkpt>
      <trkpt lat="47.7526671253144741058349609375" lon="12.24869093857705593109130859375">
        <ele>1480.5999755859375</ele>
        <time>2020-06-23T14:54:10.000Z</time>
        <extensions>
          <ns3:TrackPointExtension>
            <ns3:atemp>23.0</ns3:atemp>
            <ns3:hr>95</ns3:hr>
          </ns3:TrackPointExtension>
        </extensions>
      </trkpt>
      <trkpt lat="47.75265094824135303497314453125" lon="12.248549871146678924560546875">
        <ele>1482</ele>
        <time>2020-06-23T14:54:11.000Z</time>
        <extensions>
          <ns3:TrackPointExtension>
            <ns3:atemp>23.0</ns3:atemp>
            <ns3:hr>95</ns3:hr>
          </ns3:TrackPointExtension>
        </extensions>
      </trkpt>
      <trkpt lat="47.7526238746941089630126953125" lon="12.24840394221246242523193359375">
        <ele>1483.199951171875</ele>
        <time>2020-06-23T14:54:12.000Z</time>
        <extensions>
          <ns3:TrackPointExtension>
            <ns3:atemp>23.0</ns3:atemp>
            <ns3:hr>95</ns3:hr>
          </ns3:TrackPointExtension>
        </extensions>
      </trkpt>
      <trkpt lat="47.75258925743401050567626953125" lon="12.2482687421143054962158203125">
        <ele>1484.199951171875</ele>
        <time>2020-06-23T14:54:13.000Z</time>
        <extensions>
          <ns3:TrackPointExtension>
            <ns3:atemp>23.0</ns3:atemp>
            <ns3:hr>95</ns3:hr>
          </ns3:TrackPointExtension>
        </extensions>
      </trkpt>
      <trkpt lat="47.75255572982132434844970703125" lon="12.2481463663280010223388671875">
        <ele>1485.5999755859375</ele>
        <time>2020-06-23T14:54:14.000Z</time>
        <extensions>
          <ns3:TrackPointExtension>
            <ns3:atemp>23.0</ns3:atemp>
            <ns3:hr>95</ns3:hr>
          </ns3:TrackPointExtension>
        </extensions>
      </trkpt>
      <trkpt lat="47.7525273151695728302001953125" lon="12.24802591837942600250244140625">
        <ele>1487.4000244140625</ele>
        <time>2020-06-23T14:54:15.000Z</time>
        <extensions>
          <ns3:TrackPointExtension>
            <ns3:atemp>23.0</ns3:atemp>
            <ns3:hr>95</ns3:hr>
          </ns3:TrackPointExtension>
        </extensions>
      </trkpt>
      <trkpt lat="47.7525028400123119354248046875" lon="12.24790044128894805908203125">
        <ele>1489.5999755859375</ele>
        <time>2020-06-23T14:54:16.000Z</time>
        <extensions>
          <ns3:TrackPointExtension>
            <ns3:atemp>23.0</ns3:atemp>
            <ns3:hr>95</ns3:hr>
          </ns3:TrackPointExtension>
        </extensions>
      </trkpt>
      <trkpt lat="47.7524756826460361480712890625" lon="12.247770689427852630615234375">
        <ele>1491.800048828125</ele>
        <time>2020-06-23T14:54:17.000Z</time>
        <extensions>
          <ns3:TrackPointExtension>
            <ns3:atemp>23.0</ns3:atemp>
            <ns3:hr>95</ns3:hr>
          </ns3:TrackPointExtension>
        </extensions>
      </trkpt>
      <trkpt lat="47.75244173593819141387939453125" lon="12.24764253012835979461669921875">
        <ele>1494.4000244140625</ele>
        <time>2020-06-23T14:54:18.000Z</time>
        <extensions>
          <ns3:TrackPointExtension>
            <ns3:atemp>23.0</ns3:atemp>
            <ns3:hr>95</ns3:hr>
          </ns3:TrackPointExtension>
        </extensions>
      </trkpt>
      <trkpt lat="47.75240234099328517913818359375" lon="12.24751629866659641265869140625">
        <ele>1496.5999755859375</ele>
        <time>2020-06-23T14:54:19.000Z</time>
        <extensions>
          <ns3:TrackPointExtension>
            <ns3:atemp>23.0</ns3:atemp>
            <ns3:hr>94</ns3:hr>
          </ns3:TrackPointExtension>
        </extensions>
      </trkpt>
      <trkpt lat="47.7523613534867763519287109375" lon="12.24738772027194499969482421875">
        <ele>1498.5999755859375</ele>
        <time>2020-06-23T14:54:20.000Z</time>
        <extensions>
          <ns3:TrackPointExtension>
            <ns3:atemp>23.0</ns3:atemp>
            <ns3:hr>94</ns3:hr>
          </ns3:TrackPointExtension>
        </extensions>
      </trkpt>
      <trkpt lat="47.75231852196156978607177734375" lon="12.247253358364105224609375">
        <ele>1500.5999755859375</ele>
        <time>2020-06-23T14:54:21.000Z</time>
        <extensions>
          <ns3:TrackPointExtension>
            <ns3:atemp>23.0</ns3:atemp>
            <ns3:hr>91</ns3:hr>
          </ns3:TrackPointExtension>
        </extensions>
      </trkpt>
      <trkpt lat="47.75227309204638004302978515625" lon="12.247116565704345703125">
        <ele>1502.199951171875</ele>
        <time>2020-06-23T14:54:22.000Z</time>
        <extensions>
          <ns3:TrackPointExtension>
            <ns3:atemp>23.0</ns3:atemp>
            <ns3:hr>92</ns3:hr>
          </ns3:TrackPointExtension>
        </extensions>
      </trkpt>
      <trkpt lat="47.7522242255508899688720703125" lon="12.24698086269199848175048828125">
        <ele>1503.5999755859375</ele>
        <time>2020-06-23T14:54:23.000Z</time>
        <extensions>
          <ns3:TrackPointExtension>
            <ns3:atemp>23.0</ns3:atemp>
            <ns3:hr>92</ns3:hr>
          </ns3:TrackPointExtension>
        </extensions>
      </trkpt>
      <trkpt lat="47.752172090113162994384765625" lon="12.24684691987931728363037109375">
        <ele>1504.800048828125</ele>
        <time>2020-06-23T14:54:24.000Z</time>
        <extensions>
          <ns3:TrackPointExtension>
            <ns3:atemp>23.0</ns3:atemp>
            <ns3:hr>93</ns3:hr>
          </ns3:TrackPointExtension>
        </extensions>
      </trkpt>
      <trkpt lat="47.75212280452251434326171875" lon="12.2467147372663021087646484375">
        <ele>1506</ele>
        <time>2020-06-23T14:54:25.000Z</time>
        <extensions>
          <ns3:TrackPointExtension>
            <ns3:atemp>23.0</ns3:atemp>
            <ns3:hr>94</ns3:hr>
          </ns3:TrackPointExtension>
        </extensions>
      </trkpt>
      <trkpt lat="47.7520793862640857696533203125" lon="12.246584482491016387939453125">
        <ele>1507.5999755859375</ele>
        <time>2020-06-23T14:54:26.000Z</time>
        <extensions>
          <ns3:TrackPointExtension>
            <ns3:atemp>23.0</ns3:atemp>
            <ns3:hr>96</ns3:hr>
          </ns3:TrackPointExtension>
        </extensions>
      </trkpt>
      <trkpt lat="47.7520404942333698272705078125" lon="12.24645297043025493621826171875">
        <ele>1509.199951171875</ele>
        <time>2020-06-23T14:54:27.000Z</time>
        <extensions>
          <ns3:TrackPointExtension>
            <ns3:atemp>23.0</ns3:atemp>
            <ns3:hr>96</ns3:hr>
          </ns3:TrackPointExtension>
        </extensions>
      </trkpt>
      <trkpt lat="47.75200118310749530792236328125" lon="12.24631567485630512237548828125">
        <ele>1510.5999755859375</ele>
        <time>2020-06-23T14:54:28.000Z</time>
        <extensions>
          <ns3:TrackPointExtension>
            <ns3:atemp>23.0</ns3:atemp>
            <ns3:hr>99</ns3:hr>
          </ns3:TrackPointExtension>
        </extensions>
      </trkpt>
      <trkpt lat="47.75196296162903308868408203125" lon="12.2461769543588161468505859375">
        <ele>1512</ele>
        <time>2020-06-23T14:54:29.000Z</time>
        <extensions>
          <ns3:TrackPointExtension>
            <ns3:atemp>23.0</ns3:atemp>
            <ns3:hr>100</ns3:hr>
          </ns3:TrackPointExtension>
        </extensions>
      </trkpt>
      <trkpt lat="47.75193496607244014739990234375" lon="12.24605114199221134185791015625">
        <ele>1513.5999755859375</ele>
        <time>2020-06-23T14:54:30.000Z</time>
        <extensions>
          <ns3:TrackPointExtension>
            <ns3:atemp>23.0</ns3:atemp>
            <ns3:hr>100</ns3:hr>
          </ns3:TrackPointExtension>
        </extensions>
      </trkpt>
      <trkpt lat="47.75192105211317539215087890625" lon="12.24594083614647388458251953125">
        <ele>1515.4000244140625</ele>
        <time>2020-06-23T14:54:31.000Z</time>
        <extensions>
          <ns3:TrackPointExtension>
            <ns3:atemp>22.0</ns3:atemp>
            <ns3:hr>102</ns3:hr>
          </ns3:TrackPointExtension>
        </extensions>
      </trkpt>
      <trkpt lat="47.75191669352352619171142578125" lon="12.24583916366100311279296875">
        <ele>1517.199951171875</ele>
        <time>2020-06-23T14:54:32.000Z</time>
        <extensions>
          <ns3:TrackPointExtension>
            <ns3:atemp>22.0</ns3:atemp>
            <ns3:hr>100</ns3:hr>
          </ns3:TrackPointExtension>
        </extensions>
      </trkpt>
      <trkpt lat="47.75191585533320903778076171875" lon="12.24573128856718540191650390625">
        <ele>1518.800048828125</ele>
        <time>2020-06-23T14:54:33.000Z</time>
        <extensions>
          <ns3:TrackPointExtension>
            <ns3:atemp>22.0</ns3:atemp>
            <ns3:hr>99</ns3:hr>
          </ns3:TrackPointExtension>
        </extensions>
      </trkpt>
      <trkpt lat="47.75191686116158962249755859375" lon="12.24561008624732494354248046875">
        <ele>1519.800048828125</ele>
        <time>2020-06-23T14:54:34.000Z</time>
        <extensions>
          <ns3:TrackPointExtension>
            <ns3:atemp>22.0</ns3:atemp>
            <ns3:hr>99</ns3:hr>
          </ns3:TrackPointExtension>
        </extensions>
      </trkpt>
      <trkpt lat="47.75192566215991973876953125" lon="12.24547999911010265350341796875">
        <ele>1520.5999755859375</ele>
        <time>2020-06-23T14:54:35.000Z</time>
        <extensions>
          <ns3:TrackPointExtension>
            <ns3:atemp>22.0</ns3:atemp>
            <ns3:hr>99</ns3:hr>
          </ns3:TrackPointExtension>
        </extensions>
      </trkpt>
      <trkpt lat="47.7519486285746097564697265625" lon="12.245354354381561279296875">
        <ele>1521.4000244140625</ele>
        <time>2020-06-23T14:54:36.000Z</time>
        <extensions>
          <ns3:TrackPointExtension>
            <ns3:atemp>22.0</ns3:atemp>
            <ns3:hr>99</ns3:hr>
          </ns3:TrackPointExtension>
        </extensions>
      </trkpt>
      <trkpt lat="47.751982323825359344482421875" lon="12.245250083506107330322265625">
        <ele>1523</ele>
        <time>2020-06-23T14:54:37.000Z</time>
        <extensions>
          <ns3:TrackPointExtension>
            <ns3:atemp>22.0</ns3:atemp>
            <ns3:hr>99</ns3:hr>
          </ns3:TrackPointExtension>
        </extensions>
      </trkpt>
      <trkpt lat="47.7520183660089969635009765625" lon="12.2451733052730560302734375">
        <ele>1524.800048828125</ele>
        <time>2020-06-23T14:54:38.000Z</time>
        <extensions>
          <ns3:TrackPointExtension>
            <ns3:atemp>22.0</ns3:atemp>
            <ns3:hr>99</ns3:hr>
          </ns3:TrackPointExtension>
        </extensions>
      </trkpt>
      <trkpt lat="47.7520562522113323211669921875" lon="12.2451137937605381011962890625">
        <ele>1527.199951171875</ele>
        <time>2020-06-23T14:54:39.000Z</time>
        <extensions>
          <ns3:TrackPointExtension>
            <ns3:atemp>22.0</ns3:atemp>
            <ns3:hr>98</ns3:hr>
          </ns3:TrackPointExtension>
        </extensions>
      </trkpt>
      <trkpt lat="47.75209371931850910186767578125" lon="12.24506274797022342681884765625">
        <ele>1530</ele>
        <time>2020-06-23T14:54:40.000Z</time>
        <extensions>
          <ns3:TrackPointExtension>
            <ns3:atemp>22.0</ns3:atemp>
            <ns3:hr>98</ns3:hr>
          </ns3:TrackPointExtension>
        </extensions>
      </trkpt>
      <trkpt lat="47.75212548673152923583984375" lon="12.24502352066338062286376953125">
        <ele>1532.4000244140625</ele>
        <time>2020-06-23T14:54:41.000Z</time>
        <extensions>
          <ns3:TrackPointExtension>
            <ns3:atemp>22.0</ns3:atemp>
            <ns3:hr>98</ns3:hr>
          </ns3:TrackPointExtension>
        </extensions>
      </trkpt>
      <trkpt lat="47.7521601878106594085693359375" lon="12.24500206299126148223876953125">
        <ele>1534.4000244140625</ele>
        <time>2020-06-23T14:54:42.000Z</time>
        <extensions>
          <ns3:TrackPointExtension>
            <ns3:atemp>22.0</ns3:atemp>
            <ns3:hr>99</ns3:hr>
          </ns3:TrackPointExtension>
        </extensions>
      </trkpt>
      <trkpt lat="47.7522074617445468902587890625" lon="12.24499837495386600494384765625">
        <ele>1535.800048828125</ele>
        <time>2020-06-23T14:54:43.000Z</time>
        <extensions>
          <ns3:TrackPointExtension>
            <ns3:atemp>22.0</ns3:atemp>
            <ns3:hr>97</ns3:hr>
          </ns3:TrackPointExtension>
        </extensions>
      </trkpt>
      <trkpt lat="47.75226621888577938079833984375" lon="12.2450132109224796295166015625">
        <ele>1537.4000244140625</ele>
        <time>2020-06-23T14:54:44.000Z</time>
        <extensions>
          <ns3:TrackPointExtension>
            <ns3:atemp>22.0</ns3:atemp>
            <ns3:hr>98</ns3:hr>
          </ns3:TrackPointExtension>
        </extensions>
      </trkpt>
      <trkpt lat="47.75232220999896526336669921875" lon="12.24504112266004085540771484375">
        <ele>1538.5999755859375</ele>
        <time>2020-06-23T14:54:45.000Z</time>
        <extensions>
          <ns3:TrackPointExtension>
            <ns3:atemp>22.0</ns3:atemp>
            <ns3:hr>96</ns3:hr>
          </ns3:TrackPointExtension>
        </extensions>
      </trkpt>
      <trkpt lat="47.75236512534320354461669921875" lon="12.24507465027272701263427734375">
        <ele>1539.4000244140625</ele>
        <time>2020-06-23T14:54:46.000Z</time>
        <extensions>
          <ns3:TrackPointExtension>
            <ns3:atemp>22.0</ns3:atemp>
            <ns3:hr>97</ns3:hr>
          </ns3:TrackPointExtension>
        </extensions>
      </trkpt>
      <trkpt lat="47.7523999102413654327392578125" lon="12.24511354230344295501708984375">
        <ele>1540.4000244140625</ele>
        <time>2020-06-23T14:54:47.000Z</time>
        <extensions>
          <ns3:TrackPointExtension>
            <ns3:atemp>22.0</ns3:atemp>
            <ns3:hr>97</ns3:hr>
          </ns3:TrackPointExtension>
        </extensions>
      </trkpt>
      <trkpt lat="47.75243083946406841278076171875" lon="12.2451426275074481964111328125">
        <ele>1541.199951171875</ele>
        <time>2020-06-23T14:54:48.000Z</time>
        <extensions>
          <ns3:TrackPointExtension>
            <ns3:atemp>22.0</ns3:atemp>
            <ns3:hr>98</ns3:hr>
          </ns3:TrackPointExtension>
        </extensions>
      </trkpt>
      <trkpt lat="47.75246210396289825439453125" lon="12.2451754845678806304931640625">
        <ele>1542</ele>
        <time>2020-06-23T14:54:49.000Z</time>
        <extensions>
          <ns3:TrackPointExtension>
            <ns3:atemp>22.0</ns3:atemp>
            <ns3:hr>99</ns3:hr>
          </ns3:TrackPointExtension>
        </extensions>
      </trkpt>
      <trkpt lat="47.75249236263334751129150390625" lon="12.24522292613983154296875">
        <ele>1542.199951171875</ele>
        <time>2020-06-23T14:54:50.000Z</time>
        <extensions>
          <ns3:TrackPointExtension>
            <ns3:atemp>22.0</ns3:atemp>
            <ns3:hr>99</ns3:hr>
          </ns3:TrackPointExtension>
        </extensions>
      </trkpt>
      <trkpt lat="47.75251415558159351348876953125" lon="12.24528738297522068023681640625">
        <ele>1542.4000244140625</ele>
        <time>2020-06-23T14:54:51.000Z</time>
        <extensions>
          <ns3:TrackPointExtension>
            <ns3:atemp>22.0</ns3:atemp>
            <ns3:hr>98</ns3:hr>
          </ns3:TrackPointExtension>
        </extensions>
      </trkpt>
      <trkpt lat="47.75252379477024078369140625" lon="12.2453608922660350799560546875">
        <ele>1542.5999755859375</ele>
        <time>2020-06-23T14:54:52.000Z</time>
        <extensions>
          <ns3:TrackPointExtension>
            <ns3:atemp>22.0</ns3:atemp>
            <ns3:hr>97</ns3:hr>
          </ns3:TrackPointExtension>
        </extensions>
      </trkpt>
      <trkpt lat="47.7525365352630615234375" lon="12.24550631828606128692626953125">
        <ele>1543.199951171875</ele>
        <time>2020-06-23T14:54:54.000Z</time>
        <extensions>
          <ns3:TrackPointExtension>
            <ns3:atemp>22.0</ns3:atemp>
            <ns3:hr>97</ns3:hr>
          </ns3:TrackPointExtension>
        </extensions>
      </trkpt>
      <trkpt lat="47.7525566518306732177734375" lon="12.24558770656585693359375">
        <ele>1543.199951171875</ele>
        <time>2020-06-23T14:54:55.000Z</time>
        <extensions>
          <ns3:TrackPointExtension>
            <ns3:atemp>22.0</ns3:atemp>
            <ns3:hr>97</ns3:hr>
          </ns3:TrackPointExtension>
        </extensions>
      </trkpt>
      <trkpt lat="47.752588503062725067138671875" lon="12.2456773929297924041748046875">
        <ele>1543.5999755859375</ele>
        <time>2020-06-23T14:54:56.000Z</time>
        <extensions>
          <ns3:TrackPointExtension>
            <ns3:atemp>22.0</ns3:atemp>
            <ns3:hr>97</ns3:hr>
          </ns3:TrackPointExtension>
        </extensions>
      </trkpt>
      <trkpt lat="47.7526225335896015167236328125" lon="12.24575936794281005859375">
        <ele>1544.5999755859375</ele>
        <time>2020-06-23T14:54:57.000Z</time>
        <extensions>
          <ns3:TrackPointExtension>
            <ns3:atemp>22.0</ns3:atemp>
            <ns3:hr>96</ns3:hr>
          </ns3:TrackPointExtension>
        </extensions>
      </trkpt>
      <trkpt lat="47.7526506967842578887939453125" lon="12.24582265131175518035888671875">
        <ele>1546.199951171875</ele>
        <time>2020-06-23T14:54:58.000Z</time>
        <extensions>
          <ns3:TrackPointExtension>
            <ns3:atemp>22.0</ns3:atemp>
            <ns3:hr>97</ns3:hr>
          </ns3:TrackPointExtension>
        </extensions>
      </trkpt>
      <trkpt lat="47.7526751719415187835693359375" lon="12.24586791358888149261474609375">
        <ele>1548.199951171875</ele>
        <time>2020-06-23T14:54:59.000Z</time>
        <extensions>
          <ns3:TrackPointExtension>
            <ns3:atemp>22.0</ns3:atemp>
            <ns3:hr>98</ns3:hr>
          </ns3:TrackPointExtension>
        </extensions>
      </trkpt>
      <trkpt lat="47.75270258076488971710205078125" lon="12.2459109127521514892578125">
        <ele>1550.4000244140625</ele>
        <time>2020-06-23T14:55:00.000Z</time>
        <extensions>
          <ns3:TrackPointExtension>
            <ns3:atemp>22.0</ns3:atemp>
            <ns3:hr>99</ns3:hr>
          </ns3:TrackPointExtension>
        </extensions>
      </trkpt>
      <trkpt lat="47.75273568928241729736328125" lon="12.2459690831601619720458984375">
        <ele>1552.4000244140625</ele>
        <time>2020-06-23T14:55:01.000Z</time>
        <extensions>
          <ns3:TrackPointExtension>
            <ns3:atemp>22.0</ns3:atemp>
            <ns3:hr>99</ns3:hr>
          </ns3:TrackPointExtension>
        </extensions>
      </trkpt>
      <trkpt lat="47.7527700550854206085205078125" lon="12.24603789858520030975341796875">
        <ele>1553.800048828125</ele>
        <time>2020-06-23T14:55:02.000Z</time>
        <extensions>
          <ns3:TrackPointExtension>
            <ns3:atemp>22.0</ns3:atemp>
            <ns3:hr>99</ns3:hr>
          </ns3:TrackPointExtension>
        </extensions>
      </trkpt>
      <trkpt lat="47.75282529182732105255126953125" lon="12.24612641148269176483154296875">
        <ele>1555.199951171875</ele>
        <time>2020-06-23T14:55:04.000Z</time>
        <extensions>
          <ns3:TrackPointExtension>
            <ns3:atemp>23.0</ns3:atemp>
            <ns3:hr>99</ns3:hr>
          </ns3:TrackPointExtension>
        </extensions>
      </trkpt>
      <trkpt lat="47.75285194627940654754638671875" lon="12.2461469471454620361328125">
        <ele>1555.5999755859375</ele>
        <time>2020-06-23T14:55:05.000Z</time>
        <extensions>
          <ns3:TrackPointExtension>
            <ns3:atemp>23.0</ns3:atemp>
            <ns3:hr>98</ns3:hr>
          </ns3:TrackPointExtension>
        </extensions>
      </trkpt>
      <trkpt lat="47.75291631929576396942138671875" lon="12.2462191991508007049560546875">
        <ele>1555.800048828125</ele>
        <time>2020-06-23T14:55:07.000Z</time>
        <extensions>
          <ns3:TrackPointExtension>
            <ns3:atemp>23.0</ns3:atemp>
            <ns3:hr>97</ns3:hr>
          </ns3:TrackPointExtension>
        </extensions>
      </trkpt>
      <trkpt lat="47.752951942384243011474609375" lon="12.24628482945263385772705078125">
        <ele>1555.800048828125</ele>
        <time>2020-06-23T14:55:08.000Z</time>
        <extensions>
          <ns3:TrackPointExtension>
            <ns3:atemp>23.0</ns3:atemp>
            <ns3:hr>97</ns3:hr>
          </ns3:TrackPointExtension>
        </extensions>
      </trkpt>
      <trkpt lat="47.75301137007772922515869140625" lon="12.24643033929169178009033203125">
        <ele>1557</ele>
        <time>2020-06-23T14:55:10.000Z</time>
        <extensions>
          <ns3:TrackPointExtension>
            <ns3:atemp>23.0</ns3:atemp>
            <ns3:hr>97</ns3:hr>
          </ns3:TrackPointExtension>
        </extensions>
      </trkpt>
      <trkpt lat="47.753028385341167449951171875" lon="12.24650208838284015655517578125">
        <ele>1558.800048828125</ele>
        <time>2020-06-23T14:55:11.000Z</time>
        <extensions>
          <ns3:TrackPointExtension>
            <ns3:atemp>23.0</ns3:atemp>
            <ns3:hr>97</ns3:hr>
          </ns3:TrackPointExtension>
        </extensions>
      </trkpt>
      <trkpt lat="47.753035761415958404541015625" lon="12.2465749271214008331298828125">
        <ele>1561.4000244140625</ele>
        <time>2020-06-23T14:55:12.000Z</time>
        <extensions>
          <ns3:TrackPointExtension>
            <ns3:atemp>23.0</ns3:atemp>
            <ns3:hr>98</ns3:hr>
          </ns3:TrackPointExtension>
        </extensions>
      </trkpt>
      <trkpt lat="47.753035761415958404541015625" lon="12.24665229208767414093017578125">
        <ele>1563.800048828125</ele>
        <time>2020-06-23T14:55:13.000Z</time>
        <extensions>
          <ns3:TrackPointExtension>
            <ns3:atemp>23.0</ns3:atemp>
            <ns3:hr>98</ns3:hr>
          </ns3:TrackPointExtension>
        </extensions>
      </trkpt>
      <trkpt lat="47.75303634814918041229248046875" lon="12.24673292599618434906005859375">
        <ele>1565.4000244140625</ele>
        <time>2020-06-23T14:55:14.000Z</time>
        <extensions>
          <ns3:TrackPointExtension>
            <ns3:atemp>23.0</ns3:atemp>
            <ns3:hr>98</ns3:hr>
          </ns3:TrackPointExtension>
        </extensions>
      </trkpt>
      <trkpt lat="47.75305512361228466033935546875" lon="12.24689318798482418060302734375">
        <ele>1566.5999755859375</ele>
        <time>2020-06-23T14:55:16.000Z</time>
        <extensions>
          <ns3:TrackPointExtension>
            <ns3:atemp>23.0</ns3:atemp>
            <ns3:hr>98</ns3:hr>
          </ns3:TrackPointExtension>
        </extensions>
      </trkpt>
      <trkpt lat="47.75306300260126590728759765625" lon="12.24697482772171497344970703125">
        <ele>1566.4000244140625</ele>
        <time>2020-06-23T14:55:17.000Z</time>
        <extensions>
          <ns3:TrackPointExtension>
            <ns3:atemp>23.0</ns3:atemp>
            <ns3:hr>97</ns3:hr>
          </ns3:TrackPointExtension>
        </extensions>
      </trkpt>
      <trkpt lat="47.7530543692409992218017578125" lon="12.247153110802173614501953125">
        <ele>1565.5999755859375</ele>
        <time>2020-06-23T14:55:19.000Z</time>
        <extensions>
          <ns3:TrackPointExtension>
            <ns3:atemp>23.0</ns3:atemp>
            <ns3:hr>97</ns3:hr>
          </ns3:TrackPointExtension>
        </extensions>
      </trkpt>
      <trkpt lat="47.75304288603365421295166015625" lon="12.24724522791802883148193359375">
        <ele>1564.5999755859375</ele>
        <time>2020-06-23T14:55:20.000Z</time>
        <extensions>
          <ns3:TrackPointExtension>
            <ns3:atemp>23.0</ns3:atemp>
            <ns3:hr>98</ns3:hr>
          </ns3:TrackPointExtension>
        </extensions>
      </trkpt>
      <trkpt lat="47.75303198955953121185302734375" lon="12.24734195508062839508056640625">
        <ele>1563.800048828125</ele>
        <time>2020-06-23T14:55:21.000Z</time>
        <extensions>
          <ns3:TrackPointExtension>
            <ns3:atemp>23.0</ns3:atemp>
            <ns3:hr>98</ns3:hr>
          </ns3:TrackPointExtension>
        </extensions>
      </trkpt>
      <trkpt lat="47.75302327238023281097412109375" lon="12.24744890816509723663330078125">
        <ele>1562.5999755859375</ele>
        <time>2020-06-23T14:55:22.000Z</time>
        <extensions>
          <ns3:TrackPointExtension>
            <ns3:atemp>23.0</ns3:atemp>
            <ns3:hr>95</ns3:hr>
          </ns3:TrackPointExtension>
        </extensions>
      </trkpt>
      <trkpt lat="47.7530153095722198486328125" lon="12.24757061339914798736572265625">
        <ele>1561.199951171875</ele>
        <time>2020-06-23T14:55:23.000Z</time>
        <extensions>
          <ns3:TrackPointExtension>
            <ns3:atemp>23.0</ns3:atemp>
            <ns3:hr>95</ns3:hr>
          </ns3:TrackPointExtension>
        </extensions>
      </trkpt>
      <trkpt lat="47.75300734676420688629150390625" lon="12.24770195782184600830078125">
        <ele>1560</ele>
        <time>2020-06-23T14:55:24.000Z</time>
        <extensions>
          <ns3:TrackPointExtension>
            <ns3:atemp>23.0</ns3:atemp>
            <ns3:hr>95</ns3:hr>
          </ns3:TrackPointExtension>
        </extensions>
      </trkpt>
      <trkpt lat="47.75298873893916606903076171875" lon="12.24808727391064167022705078125">
        <ele>1558.800048828125</ele>
        <time>2020-06-23T14:55:27.000Z</time>
        <extensions>
          <ns3:TrackPointExtension>
            <ns3:atemp>23.0</ns3:atemp>
            <ns3:hr>95</ns3:hr>
          </ns3:TrackPointExtension>
        </extensions>
      </trkpt>
      <trkpt lat="47.7529742382466793060302734375" lon="12.24820814095437526702880859375">
        <ele>1559.199951171875</ele>
        <time>2020-06-23T14:55:28.000Z</time>
        <extensions>
          <ns3:TrackPointExtension>
            <ns3:atemp>23.0</ns3:atemp>
            <ns3:hr>95</ns3:hr>
          </ns3:TrackPointExtension>
        </extensions>
      </trkpt>
      <trkpt lat="47.75295403786003589630126953125" lon="12.2483123280107975006103515625">
        <ele>1560.4000244140625</ele>
        <time>2020-06-23T14:55:29.000Z</time>
        <extensions>
          <ns3:TrackPointExtension>
            <ns3:atemp>23.0</ns3:atemp>
            <ns3:hr>94</ns3:hr>
          </ns3:TrackPointExtension>
        </extensions>
      </trkpt>
      <trkpt lat="47.75290911085903644561767578125" lon="12.24848960526287555694580078125">
        <ele>1561.800048828125</ele>
        <time>2020-06-23T14:55:31.000Z</time>
        <extensions>
          <ns3:TrackPointExtension>
            <ns3:atemp>23.0</ns3:atemp>
            <ns3:hr>94</ns3:hr>
          </ns3:TrackPointExtension>
        </extensions>
      </trkpt>
      <trkpt lat="47.75284825824201107025146484375" lon="12.2487079538404941558837890625">
        <ele>1561.800048828125</ele>
        <time>2020-06-23T14:55:33.000Z</time>
        <extensions>
          <ns3:TrackPointExtension>
            <ns3:atemp>23.0</ns3:atemp>
            <ns3:hr>94</ns3:hr>
          </ns3:TrackPointExtension>
        </extensions>
      </trkpt>
      <trkpt lat="47.7527551352977752685546875" lon="12.2489570640027523040771484375">
        <ele>1560.199951171875</ele>
        <time>2020-06-23T14:55:35.000Z</time>
        <extensions>
          <ns3:TrackPointExtension>
            <ns3:atemp>23.0</ns3:atemp>
            <ns3:hr>96</ns3:hr>
          </ns3:TrackPointExtension>
        </extensions>
      </trkpt>
      <trkpt lat="47.75266838259994983673095703125" lon="12.24916133098304271697998046875">
        <ele>1559.4000244140625</ele>
        <time>2020-06-23T14:55:37.000Z</time>
        <extensions>
          <ns3:TrackPointExtension>
            <ns3:atemp>23.0</ns3:atemp>
            <ns3:hr>97</ns3:hr>
          </ns3:TrackPointExtension>
        </extensions>
      </trkpt>
      <trkpt lat="47.75262814946472644805908203125" lon="12.24925772286951541900634765625">
        <ele>1559</ele>
        <time>2020-06-23T14:55:38.000Z</time>
        <extensions>
          <ns3:TrackPointExtension>
            <ns3:atemp>23.0</ns3:atemp>
            <ns3:hr>97</ns3:hr>
          </ns3:TrackPointExtension>
        </extensions>
      </trkpt>
      <trkpt lat="47.75259084999561309814453125" lon="12.24936517886817455291748046875">
        <ele>1558.5999755859375</ele>
        <time>2020-06-23T14:55:39.000Z</time>
        <extensions>
          <ns3:TrackPointExtension>
            <ns3:atemp>23.0</ns3:atemp>
            <ns3:hr>97</ns3:hr>
          </ns3:TrackPointExtension>
        </extensions>
      </trkpt>
      <trkpt lat="47.752564363181591033935546875" lon="12.24958243779838085174560546875">
        <ele>1557.199951171875</ele>
        <time>2020-06-23T14:55:41.000Z</time>
        <extensions>
          <ns3:TrackPointExtension>
            <ns3:atemp>23.0</ns3:atemp>
            <ns3:hr>98</ns3:hr>
          </ns3:TrackPointExtension>
        </extensions>
      </trkpt>
      <trkpt lat="47.7525834739208221435546875" lon="12.249661982059478759765625">
        <ele>1556</ele>
        <time>2020-06-23T14:55:42.000Z</time>
        <extensions>
          <ns3:TrackPointExtension>
            <ns3:atemp>23.0</ns3:atemp>
            <ns3:hr>98</ns3:hr>
          </ns3:TrackPointExtension>
        </extensions>
      </trkpt>
      <trkpt lat="47.75261767208576202392578125" lon="12.24970716051757335662841796875">
        <ele>1555</ele>
        <time>2020-06-23T14:55:43.000Z</time>
        <extensions>
          <ns3:TrackPointExtension>
            <ns3:atemp>23.0</ns3:atemp>
            <ns3:hr>98</ns3:hr>
          </ns3:TrackPointExtension>
        </extensions>
      </trkpt>
      <trkpt lat="47.75265681557357311248779296875" lon="12.249712608754634857177734375">
        <ele>1553.4000244140625</ele>
        <time>2020-06-23T14:55:44.000Z</time>
        <extensions>
          <ns3:TrackPointExtension>
            <ns3:atemp>23.0</ns3:atemp>
            <ns3:hr>97</ns3:hr>
          </ns3:TrackPointExtension>
        </extensions>
      </trkpt>
      <trkpt lat="47.7526942826807498931884765625" lon="12.24967681802809238433837890625">
        <ele>1551.4000244140625</ele>
        <time>2020-06-23T14:55:45.000Z</time>
        <extensions>
          <ns3:TrackPointExtension>
            <ns3:atemp>23.0</ns3:atemp>
            <ns3:hr>96</ns3:hr>
          </ns3:TrackPointExtension>
        </extensions>
      </trkpt>
      <trkpt lat="47.75273024104535579681396484375" lon="12.24960071034729480743408203125">
        <ele>1549.199951171875</ele>
        <time>2020-06-23T14:55:46.000Z</time>
        <extensions>
          <ns3:TrackPointExtension>
            <ns3:atemp>23.0</ns3:atemp>
            <ns3:hr>98</ns3:hr>
          </ns3:TrackPointExtension>
        </extensions>
      </trkpt>
      <trkpt lat="47.752762176096439361572265625" lon="12.24949224852025508880615234375">
        <ele>1546.800048828125</ele>
        <time>2020-06-23T14:55:47.000Z</time>
        <extensions>
          <ns3:TrackPointExtension>
            <ns3:atemp>23.0</ns3:atemp>
            <ns3:hr>98</ns3:hr>
          </ns3:TrackPointExtension>
        </extensions>
      </trkpt>
      <trkpt lat="47.75278237648308277130126953125" lon="12.24936970509588718414306640625">
        <ele>1544.199951171875</ele>
        <time>2020-06-23T14:55:48.000Z</time>
        <extensions>
          <ns3:TrackPointExtension>
            <ns3:atemp>23.0</ns3:atemp>
            <ns3:hr>96</ns3:hr>
          </ns3:TrackPointExtension>
        </extensions>
      </trkpt>
      <trkpt lat="47.75278958491981029510498046875" lon="12.24924422800540924072265625">
        <ele>1541.5999755859375</ele>
        <time>2020-06-23T14:55:49.000Z</time>
        <extensions>
          <ns3:TrackPointExtension>
            <ns3:atemp>23.0</ns3:atemp>
            <ns3:hr>96</ns3:hr>
          </ns3:TrackPointExtension>
        </extensions>
      </trkpt>
      <trkpt lat="47.7527827955782413482666015625" lon="12.249113805592060089111328125">
        <ele>1539</ele>
        <time>2020-06-23T14:55:50.000Z</time>
        <extensions>
          <ns3:TrackPointExtension>
            <ns3:atemp>23.0</ns3:atemp>
            <ns3:hr>95</ns3:hr>
          </ns3:TrackPointExtension>
        </extensions>
      </trkpt>
      <trkpt lat="47.75276108644902706146240234375" lon="12.2489833831787109375">
        <ele>1537</ele>
        <time>2020-06-23T14:55:51.000Z</time>
        <extensions>
          <ns3:TrackPointExtension>
            <ns3:atemp>23.0</ns3:atemp>
            <ns3:hr>95</ns3:hr>
          </ns3:TrackPointExtension>
        </extensions>
      </trkpt>
      <trkpt lat="47.75272361934185028076171875" lon="12.2488561458885669708251953125">
        <ele>1535.199951171875</ele>
        <time>2020-06-23T14:55:52.000Z</time>
        <extensions>
          <ns3:TrackPointExtension>
            <ns3:atemp>23.0</ns3:atemp>
            <ns3:hr>95</ns3:hr>
          </ns3:TrackPointExtension>
        </extensions>
      </trkpt>
      <trkpt lat="47.75267072953283786773681640625" lon="12.24873402155935764312744140625">
        <ele>1534</ele>
        <time>2020-06-23T14:55:53.000Z</time>
        <extensions>
          <ns3:TrackPointExtension>
            <ns3:atemp>23.0</ns3:atemp>
            <ns3:hr>95</ns3:hr>
          </ns3:TrackPointExtension>
        </extensions>
      </trkpt>
      <trkpt lat="47.752606607973575592041015625" lon="12.24862304516136646270751953125">
        <ele>1532.800048828125</ele>
        <time>2020-06-23T14:55:54.000Z</time>
        <extensions>
          <ns3:TrackPointExtension>
            <ns3:atemp>23.0</ns3:atemp>
            <ns3:hr>95</ns3:hr>
          </ns3:TrackPointExtension>
        </extensions>
      </trkpt>
      <trkpt lat="47.75253452360630035400390625" lon="12.248519696295261383056640625">
        <ele>1531.4000244140625</ele>
        <time>2020-06-23T14:55:55.000Z</time>
        <extensions>
          <ns3:TrackPointExtension>
            <ns3:atemp>23.0</ns3:atemp>
            <ns3:hr>95</ns3:hr>
          </ns3:TrackPointExtension>
        </extensions>
      </trkpt>
      <trkpt lat="47.75245665572583675384521484375" lon="12.24841685034334659576416015625">
        <ele>1530.199951171875</ele>
        <time>2020-06-23T14:55:56.000Z</time>
        <extensions>
          <ns3:TrackPointExtension>
            <ns3:atemp>23.0</ns3:atemp>
            <ns3:hr>95</ns3:hr>
          </ns3:TrackPointExtension>
        </extensions>
      </trkpt>
      <trkpt lat="47.7523774467408657073974609375" lon="12.24830637685954570770263671875">
        <ele>1529.199951171875</ele>
        <time>2020-06-23T14:55:57.000Z</time>
        <extensions>
          <ns3:TrackPointExtension>
            <ns3:atemp>23.0</ns3:atemp>
            <ns3:hr>94</ns3:hr>
          </ns3:TrackPointExtension>
        </extensions>
      </trkpt>
      <trkpt lat="47.75230393745005130767822265625" lon="12.24818785674870014190673828125">
        <ele>1528.199951171875</ele>
        <time>2020-06-23T14:55:58.000Z</time>
        <extensions>
          <ns3:TrackPointExtension>
            <ns3:atemp>23.0</ns3:atemp>
            <ns3:hr>95</ns3:hr>
          </ns3:TrackPointExtension>
        </extensions>
      </trkpt>
      <trkpt lat="47.7522399835288524627685546875" lon="12.24805609323084354400634765625">
        <ele>1527.800048828125</ele>
        <time>2020-06-23T14:55:59.000Z</time>
        <extensions>
          <ns3:TrackPointExtension>
            <ns3:atemp>23.0</ns3:atemp>
            <ns3:hr>94</ns3:hr>
          </ns3:TrackPointExtension>
        </extensions>
      </trkpt>
      <trkpt lat="47.752181477844715118408203125" lon="12.24791360087692737579345703125">
        <ele>1527.5999755859375</ele>
        <time>2020-06-23T14:56:00.000Z</time>
        <extensions>
          <ns3:TrackPointExtension>
            <ns3:atemp>23.0</ns3:atemp>
            <ns3:hr>95</ns3:hr>
          </ns3:TrackPointExtension>
        </extensions>
      </trkpt>
      <trkpt lat="47.75212280452251434326171875" lon="12.24777814932167530059814453125">
        <ele>1527.4000244140625</ele>
        <time>2020-06-23T14:56:01.000Z</time>
        <extensions>
          <ns3:TrackPointExtension>
            <ns3:atemp>23.0</ns3:atemp>
            <ns3:hr>95</ns3:hr>
          </ns3:TrackPointExtension>
        </extensions>
      </trkpt>
      <trkpt lat="47.752010822296142578125" lon="12.2475606389343738555908203125">
        <ele>1529.4000244140625</ele>
        <time>2020-06-23T14:56:03.000Z</time>
        <extensions>
          <ns3:TrackPointExtension>
            <ns3:atemp>23.0</ns3:atemp>
            <ns3:hr>95</ns3:hr>
          </ns3:TrackPointExtension>
        </extensions>
      </trkpt>
      <trkpt lat="47.7519633807241916656494140625" lon="12.24745360203087329864501953125">
        <ele>1531.5999755859375</ele>
        <time>2020-06-23T14:56:04.000Z</time>
        <extensions>
          <ns3:TrackPointExtension>
            <ns3:atemp>23.0</ns3:atemp>
            <ns3:hr>96</ns3:hr>
          </ns3:TrackPointExtension>
        </extensions>
      </trkpt>
      <trkpt lat="47.7519157715141773223876953125" lon="12.24733189679682254791259765625">
        <ele>1533.800048828125</ele>
        <time>2020-06-23T14:56:05.000Z</time>
        <extensions>
          <ns3:TrackPointExtension>
            <ns3:atemp>23.0</ns3:atemp>
            <ns3:hr>95</ns3:hr>
          </ns3:TrackPointExtension>
        </extensions>
      </trkpt>
      <trkpt lat="47.75185994803905487060546875" lon="12.2471988759934902191162109375">
        <ele>1535.4000244140625</ele>
        <time>2020-06-23T14:56:06.000Z</time>
        <extensions>
          <ns3:TrackPointExtension>
            <ns3:atemp>23.0</ns3:atemp>
            <ns3:hr>95</ns3:hr>
          </ns3:TrackPointExtension>
        </extensions>
      </trkpt>
      <trkpt lat="47.7517967484891414642333984375" lon="12.247069291770458221435546875">
        <ele>1536.4000244140625</ele>
        <time>2020-06-23T14:56:07.000Z</time>
        <extensions>
          <ns3:TrackPointExtension>
            <ns3:atemp>23.0</ns3:atemp>
            <ns3:hr>96</ns3:hr>
          </ns3:TrackPointExtension>
        </extensions>
      </trkpt>
      <trkpt lat="47.7516830898821353912353515625" lon="12.24681372754275798797607421875">
        <ele>1538</ele>
        <time>2020-06-23T14:56:09.000Z</time>
        <extensions>
          <ns3:TrackPointExtension>
            <ns3:atemp>23.0</ns3:atemp>
            <ns3:hr>97</ns3:hr>
          </ns3:TrackPointExtension>
        </extensions>
      </trkpt>
      <trkpt lat="47.75163824670016765594482421875" lon="12.2466812096536159515380859375">
        <ele>1539.199951171875</ele>
        <time>2020-06-23T14:56:10.000Z</time>
        <extensions>
          <ns3:TrackPointExtension>
            <ns3:atemp>23.0</ns3:atemp>
            <ns3:hr>97</ns3:hr>
          </ns3:TrackPointExtension>
        </extensions>
      </trkpt>
      <trkpt lat="47.75159197859466075897216796875" lon="12.24654701538383960723876953125">
        <ele>1540.4000244140625</ele>
        <time>2020-06-23T14:56:11.000Z</time>
        <extensions>
          <ns3:TrackPointExtension>
            <ns3:atemp>23.0</ns3:atemp>
            <ns3:hr>97</ns3:hr>
          </ns3:TrackPointExtension>
        </extensions>
      </trkpt>
      <trkpt lat="47.75153699330985546112060546875" lon="12.24641944281756877899169921875">
        <ele>1541.5999755859375</ele>
        <time>2020-06-23T14:56:12.000Z</time>
        <extensions>
          <ns3:TrackPointExtension>
            <ns3:atemp>23.0</ns3:atemp>
            <ns3:hr>97</ns3:hr>
          </ns3:TrackPointExtension>
        </extensions>
      </trkpt>
      <trkpt lat="47.751406989991664886474609375" lon="12.24618248641490936279296875">
        <ele>1543</ele>
        <time>2020-06-23T14:56:14.000Z</time>
        <extensions>
          <ns3:TrackPointExtension>
            <ns3:atemp>23.0</ns3:atemp>
            <ns3:hr>97</ns3:hr>
          </ns3:TrackPointExtension>
        </extensions>
      </trkpt>
      <trkpt lat="47.7512934990227222442626953125" lon="12.24595039151608943939208984375">
        <ele>1544.800048828125</ele>
        <time>2020-06-23T14:56:16.000Z</time>
        <extensions>
          <ns3:TrackPointExtension>
            <ns3:atemp>23.0</ns3:atemp>
            <ns3:hr>97</ns3:hr>
          </ns3:TrackPointExtension>
        </extensions>
      </trkpt>
      <trkpt lat="47.75124228559434413909912109375" lon="12.24583782255649566650390625">
        <ele>1545.800048828125</ele>
        <time>2020-06-23T14:56:17.000Z</time>
        <extensions>
          <ns3:TrackPointExtension>
            <ns3:atemp>23.0</ns3:atemp>
            <ns3:hr>97</ns3:hr>
          </ns3:TrackPointExtension>
        </extensions>
      </trkpt>
      <trkpt lat="47.751187384128570556640625" lon="12.24573321640491485595703125">
        <ele>1547.5999755859375</ele>
        <time>2020-06-23T14:56:18.000Z</time>
        <extensions>
          <ns3:TrackPointExtension>
            <ns3:atemp>23.0</ns3:atemp>
            <ns3:hr>97</ns3:hr>
          </ns3:TrackPointExtension>
        </extensions>
      </trkpt>
      <trkpt lat="47.7511292137205600738525390625" lon="12.24563791416585445404052734375">
        <ele>1549.4000244140625</ele>
        <time>2020-06-23T14:56:19.000Z</time>
        <extensions>
          <ns3:TrackPointExtension>
            <ns3:atemp>23.0</ns3:atemp>
            <ns3:hr>97</ns3:hr>
          </ns3:TrackPointExtension>
        </extensions>
      </trkpt>
      <trkpt lat="47.75107163004577159881591796875" lon="12.24554722197353839874267578125">
        <ele>1551.4000244140625</ele>
        <time>2020-06-23T14:56:20.000Z</time>
        <extensions>
          <ns3:TrackPointExtension>
            <ns3:atemp>23.0</ns3:atemp>
            <ns3:hr>97</ns3:hr>
          </ns3:TrackPointExtension>
        </extensions>
      </trkpt>
      <trkpt lat="47.75101815350353717803955078125" lon="12.24545694887638092041015625">
        <ele>1552.800048828125</ele>
        <time>2020-06-23T14:56:21.000Z</time>
        <extensions>
          <ns3:TrackPointExtension>
            <ns3:atemp>23.0</ns3:atemp>
            <ns3:hr>97</ns3:hr>
          </ns3:TrackPointExtension>
        </extensions>
      </trkpt>
      <trkpt lat="47.7509662695229053497314453125" lon="12.24537153728306293487548828125">
        <ele>1554.199951171875</ele>
        <time>2020-06-23T14:56:22.000Z</time>
        <extensions>
          <ns3:TrackPointExtension>
            <ns3:atemp>23.0</ns3:atemp>
            <ns3:hr>98</ns3:hr>
          </ns3:TrackPointExtension>
        </extensions>
      </trkpt>
      <trkpt lat="47.75090717710554599761962890625" lon="12.24529040046036243438720703125">
        <ele>1555.199951171875</ele>
        <time>2020-06-23T14:56:23.000Z</time>
        <extensions>
          <ns3:TrackPointExtension>
            <ns3:atemp>23.0</ns3:atemp>
            <ns3:hr>99</ns3:hr>
          </ns3:TrackPointExtension>
        </extensions>
      </trkpt>
      <trkpt lat="47.75074842385947704315185546875" lon="12.24514069966971874237060546875">
        <ele>1556.4000244140625</ele>
        <time>2020-06-23T14:56:25.000Z</time>
        <extensions>
          <ns3:TrackPointExtension>
            <ns3:atemp>23.0</ns3:atemp>
            <ns3:hr>98</ns3:hr>
          </ns3:TrackPointExtension>
        </extensions>
      </trkpt>
      <trkpt lat="47.75066175498068332672119140625" lon="12.2450960241258144378662109375">
        <ele>1556.800048828125</ele>
        <time>2020-06-23T14:56:26.000Z</time>
        <extensions>
          <ns3:TrackPointExtension>
            <ns3:atemp>23.0</ns3:atemp>
            <ns3:hr>99</ns3:hr>
          </ns3:TrackPointExtension>
        </extensions>
      </trkpt>
      <trkpt lat="47.7505783550441265106201171875" lon="12.24508403800427913665771484375">
        <ele>1557.199951171875</ele>
        <time>2020-06-23T14:56:27.000Z</time>
        <extensions>
          <ns3:TrackPointExtension>
            <ns3:atemp>23.0</ns3:atemp>
            <ns3:hr>101</ns3:hr>
          </ns3:TrackPointExtension>
        </extensions>
      </trkpt>
      <trkpt lat="47.75049780495464801788330078125" lon="12.24510499276220798492431640625">
        <ele>1558</ele>
        <time>2020-06-23T14:56:28.000Z</time>
        <extensions>
          <ns3:TrackPointExtension>
            <ns3:atemp>23.0</ns3:atemp>
            <ns3:hr>101</ns3:hr>
          </ns3:TrackPointExtension>
        </extensions>
      </trkpt>
      <trkpt lat="47.75041759014129638671875" lon="12.24515863694250583648681640625">
        <ele>1559</ele>
        <time>2020-06-23T14:56:29.000Z</time>
        <extensions>
          <ns3:TrackPointExtension>
            <ns3:atemp>23.0</ns3:atemp>
            <ns3:hr>99</ns3:hr>
          </ns3:TrackPointExtension>
        </extensions>
      </trkpt>
      <trkpt lat="47.7503436617553234100341796875" lon="12.245240695774555206298828125">
        <ele>1560.199951171875</ele>
        <time>2020-06-23T14:56:30.000Z</time>
        <extensions>
          <ns3:TrackPointExtension>
            <ns3:atemp>23.0</ns3:atemp>
            <ns3:hr>98</ns3:hr>
          </ns3:TrackPointExtension>
        </extensions>
      </trkpt>
      <trkpt lat="47.75029194541275501251220703125" lon="12.245354019105434417724609375">
        <ele>1561.4000244140625</ele>
        <time>2020-06-23T14:56:31.000Z</time>
        <extensions>
          <ns3:TrackPointExtension>
            <ns3:atemp>23.0</ns3:atemp>
            <ns3:hr>98</ns3:hr>
          </ns3:TrackPointExtension>
        </extensions>
      </trkpt>
      <trkpt lat="47.750291191041469573974609375" lon="12.24561125971376895904541015625">
        <ele>1563.199951171875</ele>
        <time>2020-06-23T14:56:33.000Z</time>
        <extensions>
          <ns3:TrackPointExtension>
            <ns3:atemp>23.0</ns3:atemp>
            <ns3:hr>98</ns3:hr>
          </ns3:TrackPointExtension>
        </extensions>
      </trkpt>
      <trkpt lat="47.750334106385707855224609375" lon="12.24582047201693058013916015625">
        <ele>1565</ele>
        <time>2020-06-23T14:56:35.000Z</time>
        <extensions>
          <ns3:TrackPointExtension>
            <ns3:atemp>23.0</ns3:atemp>
            <ns3:hr>97</ns3:hr>
          </ns3:TrackPointExtension>
        </extensions>
      </trkpt>
      <trkpt lat="47.75033754296600818634033203125" lon="12.24590848200023174285888671875">
        <ele>1565.5999755859375</ele>
        <time>2020-06-23T14:56:36.000Z</time>
        <extensions>
          <ns3:TrackPointExtension>
            <ns3:atemp>23.0</ns3:atemp>
            <ns3:hr>97</ns3:hr>
          </ns3:TrackPointExtension>
        </extensions>
      </trkpt>
      <trkpt lat="47.75034391321241855621337890625" lon="12.24598743952810764312744140625">
        <ele>1565.800048828125</ele>
        <time>2020-06-23T14:56:37.000Z</time>
        <extensions>
          <ns3:TrackPointExtension>
            <ns3:atemp>23.0</ns3:atemp>
            <ns3:hr>96</ns3:hr>
          </ns3:TrackPointExtension>
        </extensions>
      </trkpt>
      <trkpt lat="47.750397808849811553955078125" lon="12.246168740093708038330078125">
        <ele>1566.199951171875</ele>
        <time>2020-06-23T14:56:39.000Z</time>
        <extensions>
          <ns3:TrackPointExtension>
            <ns3:atemp>23.0</ns3:atemp>
            <ns3:hr>95</ns3:hr>
          </ns3:TrackPointExtension>
        </extensions>
      </trkpt>
      <trkpt lat="47.7505039237439632415771484375" lon="12.2464243881404399871826171875">
        <ele>1566.800048828125</ele>
        <time>2020-06-23T14:56:42.000Z</time>
        <extensions>
          <ns3:TrackPointExtension>
            <ns3:atemp>23.0</ns3:atemp>
            <ns3:hr>96</ns3:hr>
          </ns3:TrackPointExtension>
        </extensions>
      </trkpt>
      <trkpt lat="47.75053971447050571441650390625" lon="12.2464840672910213470458984375">
        <ele>1567.4000244140625</ele>
        <time>2020-06-23T14:56:43.000Z</time>
        <extensions>
          <ns3:TrackPointExtension>
            <ns3:atemp>23.0</ns3:atemp>
            <ns3:hr>96</ns3:hr>
          </ns3:TrackPointExtension>
        </extensions>
      </trkpt>
      <trkpt lat="47.750677764415740966796875" lon="12.2466914355754852294921875">
        <ele>1568.5999755859375</ele>
        <time>2020-06-23T14:56:46.000Z</time>
        <extensions>
          <ns3:TrackPointExtension>
            <ns3:atemp>23.0</ns3:atemp>
            <ns3:hr>96</ns3:hr>
          </ns3:TrackPointExtension>
        </extensions>
      </trkpt>
      <trkpt lat="47.75072864256799221038818359375" lon="12.24677927792072296142578125">
        <ele>1569.199951171875</ele>
        <time>2020-06-23T14:56:47.000Z</time>
        <extensions>
          <ns3:TrackPointExtension>
            <ns3:atemp>23.0</ns3:atemp>
            <ns3:hr>96</ns3:hr>
          </ns3:TrackPointExtension>
        </extensions>
      </trkpt>
      <trkpt lat="47.750788070261478424072265625" lon="12.2468646056950092315673828125">
        <ele>1569.4000244140625</ele>
        <time>2020-06-23T14:56:48.000Z</time>
        <extensions>
          <ns3:TrackPointExtension>
            <ns3:atemp>23.0</ns3:atemp>
            <ns3:hr>96</ns3:hr>
          </ns3:TrackPointExtension>
        </extensions>
      </trkpt>
      <trkpt lat="47.7508509345352649688720703125" lon="12.24694549106061458587646484375">
        <ele>1570.199951171875</ele>
        <time>2020-06-23T14:56:49.000Z</time>
        <extensions>
          <ns3:TrackPointExtension>
            <ns3:atemp>23.0</ns3:atemp>
            <ns3:hr>97</ns3:hr>
          </ns3:TrackPointExtension>
        </extensions>
      </trkpt>
      <trkpt lat="47.75089594535529613494873046875" lon="12.24702763371169567108154296875">
        <ele>1571.5999755859375</ele>
        <time>2020-06-23T14:56:50.000Z</time>
        <extensions>
          <ns3:TrackPointExtension>
            <ns3:atemp>23.0</ns3:atemp>
            <ns3:hr>96</ns3:hr>
          </ns3:TrackPointExtension>
        </extensions>
      </trkpt>
      <trkpt lat="47.75091522373259067535400390625" lon="12.2471086867153644561767578125">
        <ele>1573.4000244140625</ele>
        <time>2020-06-23T14:56:51.000Z</time>
        <extensions>
          <ns3:TrackPointExtension>
            <ns3:atemp>23.0</ns3:atemp>
            <ns3:hr>96</ns3:hr>
          </ns3:TrackPointExtension>
        </extensions>
      </trkpt>
      <trkpt lat="47.7509230189025402069091796875" lon="12.24718336947262287139892578125">
        <ele>1575.4000244140625</ele>
        <time>2020-06-23T14:56:52.000Z</time>
        <extensions>
          <ns3:TrackPointExtension>
            <ns3:atemp>23.0</ns3:atemp>
            <ns3:hr>96</ns3:hr>
          </ns3:TrackPointExtension>
        </extensions>
      </trkpt>
      <trkpt lat="47.7509357593953609466552734375" lon="12.24725126288831233978271484375">
        <ele>1577.199951171875</ele>
        <time>2020-06-23T14:56:53.000Z</time>
        <extensions>
          <ns3:TrackPointExtension>
            <ns3:atemp>23.0</ns3:atemp>
            <ns3:hr>98</ns3:hr>
          </ns3:TrackPointExtension>
        </extensions>
      </trkpt>
      <trkpt lat="47.7509652636945247650146484375" lon="12.24733642302453517913818359375">
        <ele>1578.5999755859375</ele>
        <time>2020-06-23T14:56:54.000Z</time>
        <extensions>
          <ns3:TrackPointExtension>
            <ns3:atemp>23.0</ns3:atemp>
            <ns3:hr>96</ns3:hr>
          </ns3:TrackPointExtension>
        </extensions>
      </trkpt>
      <trkpt lat="47.7510024793446063995361328125" lon="12.24743717350065708160400390625">
        <ele>1579.5999755859375</ele>
        <time>2020-06-23T14:56:55.000Z</time>
        <extensions>
          <ns3:TrackPointExtension>
            <ns3:atemp>23.0</ns3:atemp>
            <ns3:hr>99</ns3:hr>
          </ns3:TrackPointExtension>
        </extensions>
      </trkpt>
      <trkpt lat="47.751032151281833648681640625" lon="12.24755066446959972381591796875">
        <ele>1580.800048828125</ele>
        <time>2020-06-23T14:56:56.000Z</time>
        <extensions>
          <ns3:TrackPointExtension>
            <ns3:atemp>23.0</ns3:atemp>
            <ns3:hr>101</ns3:hr>
          </ns3:TrackPointExtension>
        </extensions>
      </trkpt>
      <trkpt lat="47.7510477416217327117919921875" lon="12.24765208549797534942626953125">
        <ele>1582.4000244140625</ele>
        <time>2020-06-23T14:56:57.000Z</time>
        <extensions>
          <ns3:TrackPointExtension>
            <ns3:atemp>23.0</ns3:atemp>
            <ns3:hr>102</ns3:hr>
          </ns3:TrackPointExtension>
        </extensions>
      </trkpt>
      <trkpt lat="47.751058973371982574462890625" lon="12.247733809053897857666015625">
        <ele>1583.5999755859375</ele>
        <time>2020-06-23T14:56:58.000Z</time>
        <extensions>
          <ns3:TrackPointExtension>
            <ns3:atemp>23.0</ns3:atemp>
            <ns3:hr>104</ns3:hr>
          </ns3:TrackPointExtension>
        </extensions>
      </trkpt>
      <trkpt lat="47.751072384417057037353515625" lon="12.2477924823760986328125">
        <ele>1584.4000244140625</ele>
        <time>2020-06-23T14:56:59.000Z</time>
        <extensions>
          <ns3:TrackPointExtension>
            <ns3:atemp>23.0</ns3:atemp>
            <ns3:hr>105</ns3:hr>
          </ns3:TrackPointExtension>
        </extensions>
      </trkpt>
      <trkpt lat="47.7510933391749858856201171875" lon="12.24785291589796543121337890625">
        <ele>1584.800048828125</ele>
        <time>2020-06-23T14:57:00.000Z</time>
        <extensions>
          <ns3:TrackPointExtension>
            <ns3:atemp>23.0</ns3:atemp>
            <ns3:hr>104</ns3:hr>
          </ns3:TrackPointExtension>
        </extensions>
      </trkpt>
      <trkpt lat="47.75111722759902477264404296875" lon="12.24793002940714359283447265625">
        <ele>1585</ele>
        <time>2020-06-23T14:57:01.000Z</time>
        <extensions>
          <ns3:TrackPointExtension>
            <ns3:atemp>23.0</ns3:atemp>
            <ns3:hr>104</ns3:hr>
          </ns3:TrackPointExtension>
        </extensions>
      </trkpt>
      <trkpt lat="47.75116316042840480804443359375" lon="12.24820076487958431243896484375">
        <ele>1583.4000244140625</ele>
        <time>2020-06-23T14:57:04.000Z</time>
        <extensions>
          <ns3:TrackPointExtension>
            <ns3:atemp>23.0</ns3:atemp>
            <ns3:hr>103</ns3:hr>
          </ns3:TrackPointExtension>
        </extensions>
      </trkpt>
      <trkpt lat="47.7511788345873355865478515625" lon="12.24827536381781101226806640625">
        <ele>1582.5999755859375</ele>
        <time>2020-06-23T14:57:05.000Z</time>
        <extensions>
          <ns3:TrackPointExtension>
            <ns3:atemp>23.0</ns3:atemp>
            <ns3:hr>103</ns3:hr>
          </ns3:TrackPointExtension>
        </extensions>
      </trkpt>
      <trkpt lat="47.7511935867369174957275390625" lon="12.248350717127323150634765625">
        <ele>1581.800048828125</ele>
        <time>2020-06-23T14:57:06.000Z</time>
        <extensions>
          <ns3:TrackPointExtension>
            <ns3:atemp>23.0</ns3:atemp>
            <ns3:hr>102</ns3:hr>
          </ns3:TrackPointExtension>
        </extensions>
      </trkpt>
      <trkpt lat="47.7512048184871673583984375" lon="12.24843830801546573638916015625">
        <ele>1580.5999755859375</ele>
        <time>2020-06-23T14:57:07.000Z</time>
        <extensions>
          <ns3:TrackPointExtension>
            <ns3:atemp>23.0</ns3:atemp>
            <ns3:hr>103</ns3:hr>
          </ns3:TrackPointExtension>
        </extensions>
      </trkpt>
      <trkpt lat="47.7512128651142120361328125" lon="12.24854056723415851593017578125">
        <ele>1579</ele>
        <time>2020-06-23T14:57:08.000Z</time>
        <extensions>
          <ns3:TrackPointExtension>
            <ns3:atemp>23.0</ns3:atemp>
            <ns3:hr>101</ns3:hr>
          </ns3:TrackPointExtension>
        </extensions>
      </trkpt>
      <trkpt lat="47.7512210793793201446533203125" lon="12.24865053780376911163330078125">
        <ele>1577</ele>
        <time>2020-06-23T14:57:09.000Z</time>
        <extensions>
          <ns3:TrackPointExtension>
            <ns3:atemp>23.0</ns3:atemp>
            <ns3:hr>103</ns3:hr>
          </ns3:TrackPointExtension>
        </extensions>
      </trkpt>
      <trkpt lat="47.7512304671108722686767578125" lon="12.248757071793079376220703125">
        <ele>1575.199951171875</ele>
        <time>2020-06-23T14:57:10.000Z</time>
        <extensions>
          <ns3:TrackPointExtension>
            <ns3:atemp>23.0</ns3:atemp>
            <ns3:hr>104</ns3:hr>
          </ns3:TrackPointExtension>
        </extensions>
      </trkpt>
      <trkpt lat="47.75124010629951953887939453125" lon="12.248862348496913909912109375">
        <ele>1573.5999755859375</ele>
        <time>2020-06-23T14:57:11.000Z</time>
        <extensions>
          <ns3:TrackPointExtension>
            <ns3:atemp>23.0</ns3:atemp>
            <ns3:hr>104</ns3:hr>
          </ns3:TrackPointExtension>
        </extensions>
      </trkpt>
      <trkpt lat="47.75124647654592990875244140625" lon="12.24897257052361965179443359375">
        <ele>1572.4000244140625</ele>
        <time>2020-06-23T14:57:12.000Z</time>
        <extensions>
          <ns3:TrackPointExtension>
            <ns3:atemp>23.0</ns3:atemp>
            <ns3:hr>104</ns3:hr>
          </ns3:TrackPointExtension>
        </extensions>
      </trkpt>
      <trkpt lat="47.7512490749359130859375" lon="12.249090671539306640625">
        <ele>1571.199951171875</ele>
        <time>2020-06-23T14:57:13.000Z</time>
        <extensions>
          <ns3:TrackPointExtension>
            <ns3:atemp>23.0</ns3:atemp>
            <ns3:hr>103</ns3:hr>
          </ns3:TrackPointExtension>
        </extensions>
      </trkpt>
      <trkpt lat="47.75125242769718170166015625" lon="12.2492125444114208221435546875">
        <ele>1569.800048828125</ele>
        <time>2020-06-23T14:57:14.000Z</time>
        <extensions>
          <ns3:TrackPointExtension>
            <ns3:atemp>23.0</ns3:atemp>
            <ns3:hr>105</ns3:hr>
          </ns3:TrackPointExtension>
        </extensions>
      </trkpt>
      <trkpt lat="47.75126039050519466400146484375" lon="12.24933450110256671905517578125">
        <ele>1568.5999755859375</ele>
        <time>2020-06-23T14:57:15.000Z</time>
        <extensions>
          <ns3:TrackPointExtension>
            <ns3:atemp>23.0</ns3:atemp>
            <ns3:hr>106</ns3:hr>
          </ns3:TrackPointExtension>
        </extensions>
      </trkpt>
      <trkpt lat="47.7512733824551105499267578125" lon="12.2494556196033954620361328125">
        <ele>1567.5999755859375</ele>
        <time>2020-06-23T14:57:16.000Z</time>
        <extensions>
          <ns3:TrackPointExtension>
            <ns3:atemp>23.0</ns3:atemp>
            <ns3:hr>107</ns3:hr>
          </ns3:TrackPointExtension>
        </extensions>
      </trkpt>
      <trkpt lat="47.751291655004024505615234375" lon="12.2495773248374462127685546875">
        <ele>1566.4000244140625</ele>
        <time>2020-06-23T14:57:17.000Z</time>
        <extensions>
          <ns3:TrackPointExtension>
            <ns3:atemp>23.0</ns3:atemp>
            <ns3:hr>107</ns3:hr>
          </ns3:TrackPointExtension>
        </extensions>
      </trkpt>
      <trkpt lat="47.75134362280368804931640625" lon="12.2498036362230777740478515625">
        <ele>1565</ele>
        <time>2020-06-23T14:57:19.000Z</time>
        <extensions>
          <ns3:TrackPointExtension>
            <ns3:atemp>23.0</ns3:atemp>
            <ns3:hr>107</ns3:hr>
          </ns3:TrackPointExtension>
        </extensions>
      </trkpt>
      <trkpt lat="47.75143121369183063507080078125" lon="12.24993783049285411834716796875">
        <ele>1564.5999755859375</ele>
        <time>2020-06-23T14:57:21.000Z</time>
        <extensions>
          <ns3:TrackPointExtension>
            <ns3:atemp>23.0</ns3:atemp>
            <ns3:hr>106</ns3:hr>
          </ns3:TrackPointExtension>
        </extensions>
      </trkpt>
      <trkpt lat="47.7515469677746295928955078125" lon="12.24996632896363735198974609375">
        <ele>1564.800048828125</ele>
        <time>2020-06-23T14:57:23.000Z</time>
        <extensions>
          <ns3:TrackPointExtension>
            <ns3:atemp>23.0</ns3:atemp>
            <ns3:hr>106</ns3:hr>
          </ns3:TrackPointExtension>
        </extensions>
      </trkpt>
      <trkpt lat="47.75160052813589572906494140625" lon="12.2499508224427700042724609375">
        <ele>1564.800048828125</ele>
        <time>2020-06-23T14:57:24.000Z</time>
        <extensions>
          <ns3:TrackPointExtension>
            <ns3:atemp>23.0</ns3:atemp>
            <ns3:hr>104</ns3:hr>
          </ns3:TrackPointExtension>
        </extensions>
      </trkpt>
      <trkpt lat="47.7516445331275463104248046875" lon="12.24990631453692913055419921875">
        <ele>1565</ele>
        <time>2020-06-23T14:57:25.000Z</time>
        <extensions>
          <ns3:TrackPointExtension>
            <ns3:atemp>23.0</ns3:atemp>
            <ns3:hr>103</ns3:hr>
          </ns3:TrackPointExtension>
        </extensions>
      </trkpt>
      <trkpt lat="47.75167278014123439788818359375" lon="12.2498207353055477142333984375">
        <ele>1564.800048828125</ele>
        <time>2020-06-23T14:57:26.000Z</time>
        <extensions>
          <ns3:TrackPointExtension>
            <ns3:atemp>23.0</ns3:atemp>
            <ns3:hr>102</ns3:hr>
          </ns3:TrackPointExtension>
        </extensions>
      </trkpt>
      <trkpt lat="47.75168233551084995269775390625" lon="12.24970699287950992584228515625">
        <ele>1564.4000244140625</ele>
        <time>2020-06-23T14:57:27.000Z</time>
        <extensions>
          <ns3:TrackPointExtension>
            <ns3:atemp>23.0</ns3:atemp>
            <ns3:hr>102</ns3:hr>
          </ns3:TrackPointExtension>
        </extensions>
      </trkpt>
      <trkpt lat="47.7516659907996654510498046875" lon="12.2495867125689983367919921875">
        <ele>1563.5999755859375</ele>
        <time>2020-06-23T14:57:28.000Z</time>
        <extensions>
          <ns3:TrackPointExtension>
            <ns3:atemp>23.0</ns3:atemp>
            <ns3:hr>102</ns3:hr>
          </ns3:TrackPointExtension>
        </extensions>
      </trkpt>
      <trkpt lat="47.7516200579702854156494140625" lon="12.2494690306484699249267578125">
        <ele>1562.800048828125</ele>
        <time>2020-06-23T14:57:29.000Z</time>
        <extensions>
          <ns3:TrackPointExtension>
            <ns3:atemp>23.0</ns3:atemp>
            <ns3:hr>101</ns3:hr>
          </ns3:TrackPointExtension>
        </extensions>
      </trkpt>
      <trkpt lat="47.751549147069454193115234375" lon="12.249371297657489776611328125">
        <ele>1562</ele>
        <time>2020-06-23T14:57:30.000Z</time>
        <extensions>
          <ns3:TrackPointExtension>
            <ns3:atemp>23.0</ns3:atemp>
            <ns3:hr>101</ns3:hr>
          </ns3:TrackPointExtension>
        </extensions>
      </trkpt>
      <trkpt lat="47.7514638192951679229736328125" lon="12.2492987103760242462158203125">
        <ele>1561.4000244140625</ele>
        <time>2020-06-23T14:57:31.000Z</time>
        <extensions>
          <ns3:TrackPointExtension>
            <ns3:atemp>23.0</ns3:atemp>
            <ns3:hr>102</ns3:hr>
          </ns3:TrackPointExtension>
        </extensions>
      </trkpt>
      <trkpt lat="47.75137446820735931396484375" lon="12.24924665875732898712158203125">
        <ele>1560.5999755859375</ele>
        <time>2020-06-23T14:57:32.000Z</time>
        <extensions>
          <ns3:TrackPointExtension>
            <ns3:atemp>23.0</ns3:atemp>
            <ns3:hr>102</ns3:hr>
          </ns3:TrackPointExtension>
        </extensions>
      </trkpt>
      <trkpt lat="47.75128637440502643585205078125" lon="12.24920491687953472137451171875">
        <ele>1559.800048828125</ele>
        <time>2020-06-23T14:57:33.000Z</time>
        <extensions>
          <ns3:TrackPointExtension>
            <ns3:atemp>23.0</ns3:atemp>
            <ns3:hr>101</ns3:hr>
          </ns3:TrackPointExtension>
        </extensions>
      </trkpt>
      <trkpt lat="47.751196436583995819091796875" lon="12.2491595707833766937255859375">
        <ele>1559</ele>
        <time>2020-06-23T14:57:34.000Z</time>
        <extensions>
          <ns3:TrackPointExtension>
            <ns3:atemp>23.0</ns3:atemp>
            <ns3:hr>100</ns3:hr>
          </ns3:TrackPointExtension>
        </extensions>
      </trkpt>
      <trkpt lat="47.750999964773654937744140625" lon="12.24906192161142826080322265625">
        <ele>1557</ele>
        <time>2020-06-23T14:57:36.000Z</time>
        <extensions>
          <ns3:TrackPointExtension>
            <ns3:atemp>23.0</ns3:atemp>
            <ns3:hr>101</ns3:hr>
          </ns3:TrackPointExtension>
        </extensions>
      </trkpt>
      <trkpt lat="47.75089728645980358123779296875" lon="12.2490170784294605255126953125">
        <ele>1555.5999755859375</ele>
        <time>2020-06-23T14:57:37.000Z</time>
        <extensions>
          <ns3:TrackPointExtension>
            <ns3:atemp>23.0</ns3:atemp>
            <ns3:hr>102</ns3:hr>
          </ns3:TrackPointExtension>
        </extensions>
      </trkpt>
      <trkpt lat="47.7507999725639820098876953125" lon="12.24897692911326885223388671875">
        <ele>1554.199951171875</ele>
        <time>2020-06-23T14:57:38.000Z</time>
        <extensions>
          <ns3:TrackPointExtension>
            <ns3:atemp>23.0</ns3:atemp>
            <ns3:hr>102</ns3:hr>
          </ns3:TrackPointExtension>
        </extensions>
      </trkpt>
      <trkpt lat="47.750708945095539093017578125" lon="12.24893552251160144805908203125">
        <ele>1552.800048828125</ele>
        <time>2020-06-23T14:57:39.000Z</time>
        <extensions>
          <ns3:TrackPointExtension>
            <ns3:atemp>23.0</ns3:atemp>
            <ns3:hr>102</ns3:hr>
          </ns3:TrackPointExtension>
        </extensions>
      </trkpt>
      <trkpt lat="47.75052429176867008209228515625" lon="12.24885287694633007049560546875">
        <ele>1551.4000244140625</ele>
        <time>2020-06-23T14:57:41.000Z</time>
        <extensions>
          <ns3:TrackPointExtension>
            <ns3:atemp>23.0</ns3:atemp>
            <ns3:hr>101</ns3:hr>
          </ns3:TrackPointExtension>
        </extensions>
      </trkpt>
      <trkpt lat="47.75043024681508541107177734375" lon="12.24881180562078952789306640625">
        <ele>1550.4000244140625</ele>
        <time>2020-06-23T14:57:42.000Z</time>
        <extensions>
          <ns3:TrackPointExtension>
            <ns3:atemp>23.0</ns3:atemp>
            <ns3:hr>100</ns3:hr>
          </ns3:TrackPointExtension>
        </extensions>
      </trkpt>
      <trkpt lat="47.7503406442701816558837890625" lon="12.24875799380242824554443359375">
        <ele>1549.4000244140625</ele>
        <time>2020-06-23T14:57:43.000Z</time>
        <extensions>
          <ns3:TrackPointExtension>
            <ns3:atemp>23.0</ns3:atemp>
            <ns3:hr>101</ns3:hr>
          </ns3:TrackPointExtension>
        </extensions>
      </trkpt>
      <trkpt lat="47.75018935091793537139892578125" lon="12.2485691495239734649658203125">
        <ele>1548.5999755859375</ele>
        <time>2020-06-23T14:57:45.000Z</time>
        <extensions>
          <ns3:TrackPointExtension>
            <ns3:atemp>23.0</ns3:atemp>
            <ns3:hr>99</ns3:hr>
          </ns3:TrackPointExtension>
        </extensions>
      </trkpt>
      <trkpt lat="47.75014341808855533599853515625" lon="12.2484521381556987762451171875">
        <ele>1548.4000244140625</ele>
        <time>2020-06-23T14:57:46.000Z</time>
        <extensions>
          <ns3:TrackPointExtension>
            <ns3:atemp>23.0</ns3:atemp>
            <ns3:hr>103</ns3:hr>
          </ns3:TrackPointExtension>
        </extensions>
      </trkpt>
      <trkpt lat="47.7501183561980724334716796875" lon="12.24834032356739044189453125">
        <ele>1548.800048828125</ele>
        <time>2020-06-23T14:57:47.000Z</time>
        <extensions>
          <ns3:TrackPointExtension>
            <ns3:atemp>23.0</ns3:atemp>
            <ns3:hr>102</ns3:hr>
          </ns3:TrackPointExtension>
        </extensions>
      </trkpt>
      <trkpt lat="47.7501076273620128631591796875" lon="12.24824435077607631683349609375">
        <ele>1549.5999755859375</ele>
        <time>2020-06-23T14:57:48.000Z</time>
        <extensions>
          <ns3:TrackPointExtension>
            <ns3:atemp>23.0</ns3:atemp>
            <ns3:hr>100</ns3:hr>
          </ns3:TrackPointExtension>
        </extensions>
      </trkpt>
      <trkpt lat="47.75010804645717144012451171875" lon="12.24815986119210720062255859375">
        <ele>1550.5999755859375</ele>
        <time>2020-06-23T14:57:49.000Z</time>
        <extensions>
          <ns3:TrackPointExtension>
            <ns3:atemp>23.0</ns3:atemp>
            <ns3:hr>100</ns3:hr>
          </ns3:TrackPointExtension>
        </extensions>
      </trkpt>
      <trkpt lat="47.750144340097904205322265625" lon="12.2479797340929508209228515625">
        <ele>1552.199951171875</ele>
        <time>2020-06-23T14:57:51.000Z</time>
        <extensions>
          <ns3:TrackPointExtension>
            <ns3:atemp>23.0</ns3:atemp>
            <ns3:hr>99</ns3:hr>
          </ns3:TrackPointExtension>
        </extensions>
      </trkpt>
      <trkpt lat="47.750210724771022796630859375" lon="12.2477748803794384002685546875">
        <ele>1552.800048828125</ele>
        <time>2020-06-23T14:57:53.000Z</time>
        <extensions>
          <ns3:TrackPointExtension>
            <ns3:atemp>23.0</ns3:atemp>
            <ns3:hr>97</ns3:hr>
          </ns3:TrackPointExtension>
        </extensions>
      </trkpt>
      <trkpt lat="47.75025623850524425506591796875" lon="12.24769927561283111572265625">
        <ele>1553.4000244140625</ele>
        <time>2020-06-23T14:57:54.000Z</time>
        <extensions>
          <ns3:TrackPointExtension>
            <ns3:atemp>23.0</ns3:atemp>
            <ns3:hr>96</ns3:hr>
          </ns3:TrackPointExtension>
        </extensions>
      </trkpt>
      <trkpt lat="47.75031038559973239898681640625" lon="12.24764688871800899505615234375">
        <ele>1554.4000244140625</ele>
        <time>2020-06-23T14:57:55.000Z</time>
        <extensions>
          <ns3:TrackPointExtension>
            <ns3:atemp>23.0</ns3:atemp>
            <ns3:hr>93</ns3:hr>
          </ns3:TrackPointExtension>
        </extensions>
      </trkpt>
      <trkpt lat="47.75036956183612346649169921875" lon="12.24761210381984710693359375">
        <ele>1555.800048828125</ele>
        <time>2020-06-23T14:57:56.000Z</time>
        <extensions>
          <ns3:TrackPointExtension>
            <ns3:atemp>23.0</ns3:atemp>
            <ns3:hr>92</ns3:hr>
          </ns3:TrackPointExtension>
        </extensions>
      </trkpt>
      <trkpt lat="47.7504291571676731109619140625" lon="12.247589640319347381591796875">
        <ele>1556.4000244140625</ele>
        <time>2020-06-23T14:57:57.000Z</time>
        <extensions>
          <ns3:TrackPointExtension>
            <ns3:atemp>23.0</ns3:atemp>
            <ns3:hr>89</ns3:hr>
          </ns3:TrackPointExtension>
        </extensions>
      </trkpt>
      <trkpt lat="47.75048539973795413970947265625" lon="12.24758268333971500396728515625">
        <ele>1556.5999755859375</ele>
        <time>2020-06-23T14:57:58.000Z</time>
        <extensions>
          <ns3:TrackPointExtension>
            <ns3:atemp>23.0</ns3:atemp>
            <ns3:hr>86</ns3:hr>
          </ns3:TrackPointExtension>
        </extensions>
      </trkpt>
      <trkpt lat="47.750537954270839691162109375" lon="12.24760296754539012908935546875">
        <ele>1556.800048828125</ele>
        <time>2020-06-23T14:57:59.000Z</time>
        <extensions>
          <ns3:TrackPointExtension>
            <ns3:atemp>23.0</ns3:atemp>
            <ns3:hr>84</ns3:hr>
          </ns3:TrackPointExtension>
        </extensions>
      </trkpt>
      <trkpt lat="47.7506256289780139923095703125" lon="12.24773875437676906585693359375">
        <ele>1554.5999755859375</ele>
        <time>2020-06-23T14:58:01.000Z</time>
        <extensions>
          <ns3:TrackPointExtension>
            <ns3:atemp>23.0</ns3:atemp>
            <ns3:hr>82</ns3:hr>
          </ns3:TrackPointExtension>
        </extensions>
      </trkpt>
      <trkpt lat="47.75065655820071697235107421875" lon="12.24784419871866703033447265625">
        <ele>1552.5999755859375</ele>
        <time>2020-06-23T14:58:02.000Z</time>
        <extensions>
          <ns3:TrackPointExtension>
            <ns3:atemp>23.0</ns3:atemp>
            <ns3:hr>82</ns3:hr>
          </ns3:TrackPointExtension>
        </extensions>
      </trkpt>
      <trkpt lat="47.75067667476832866668701171875" lon="12.247961126267910003662109375">
        <ele>1550.199951171875</ele>
        <time>2020-06-23T14:58:03.000Z</time>
        <extensions>
          <ns3:TrackPointExtension>
            <ns3:atemp>23.0</ns3:atemp>
            <ns3:hr>82</ns3:hr>
          </ns3:TrackPointExtension>
        </extensions>
      </trkpt>
      <trkpt lat="47.75068656541407108306884765625" lon="12.24808207713067531585693359375">
        <ele>1547.800048828125</ele>
        <time>2020-06-23T14:58:04.000Z</time>
        <extensions>
          <ns3:TrackPointExtension>
            <ns3:atemp>23.0</ns3:atemp>
            <ns3:hr>82</ns3:hr>
          </ns3:TrackPointExtension>
        </extensions>
      </trkpt>
      <trkpt lat="47.7506863139569759368896484375" lon="12.248209901154041290283203125">
        <ele>1545.5999755859375</ele>
        <time>2020-06-23T14:58:05.000Z</time>
        <extensions>
          <ns3:TrackPointExtension>
            <ns3:atemp>23.0</ns3:atemp>
            <ns3:hr>81</ns3:hr>
          </ns3:TrackPointExtension>
        </extensions>
      </trkpt>
      <trkpt lat="47.75067633949220180511474609375" lon="12.24835264496505260467529296875">
        <ele>1543.4000244140625</ele>
        <time>2020-06-23T14:58:06.000Z</time>
        <extensions>
          <ns3:TrackPointExtension>
            <ns3:atemp>23.0</ns3:atemp>
            <ns3:hr>83</ns3:hr>
          </ns3:TrackPointExtension>
        </extensions>
      </trkpt>
      <trkpt lat="47.750656642019748687744140625" lon="12.248502261936664581298828125">
        <ele>1541.4000244140625</ele>
        <time>2020-06-23T14:58:07.000Z</time>
        <extensions>
          <ns3:TrackPointExtension>
            <ns3:atemp>23.0</ns3:atemp>
            <ns3:hr>83</ns3:hr>
          </ns3:TrackPointExtension>
        </extensions>
      </trkpt>
      <trkpt lat="47.75062889792025089263916015625" lon="12.24864416755735874176025390625">
        <ele>1539.800048828125</ele>
        <time>2020-06-23T14:58:08.000Z</time>
        <extensions>
          <ns3:TrackPointExtension>
            <ns3:atemp>23.0</ns3:atemp>
            <ns3:hr>84</ns3:hr>
          </ns3:TrackPointExtension>
        </extensions>
      </trkpt>
      <trkpt lat="47.75059939362108707427978515625" lon="12.2487701475620269775390625">
        <ele>1538.5999755859375</ele>
        <time>2020-06-23T14:58:09.000Z</time>
        <extensions>
          <ns3:TrackPointExtension>
            <ns3:atemp>23.0</ns3:atemp>
            <ns3:hr>87</ns3:hr>
          </ns3:TrackPointExtension>
        </extensions>
      </trkpt>
      <trkpt lat="47.75057257153093814849853515625" lon="12.24888523109257221221923828125">
        <ele>1537.5999755859375</ele>
        <time>2020-06-23T14:58:10.000Z</time>
        <extensions>
          <ns3:TrackPointExtension>
            <ns3:atemp>23.0</ns3:atemp>
            <ns3:hr>87</ns3:hr>
          </ns3:TrackPointExtension>
        </extensions>
      </trkpt>
      <trkpt lat="47.750545330345630645751953125" lon="12.2490029968321323394775390625">
        <ele>1536.800048828125</ele>
        <time>2020-06-23T14:58:11.000Z</time>
        <extensions>
          <ns3:TrackPointExtension>
            <ns3:atemp>23.0</ns3:atemp>
            <ns3:hr>90</ns3:hr>
          </ns3:TrackPointExtension>
        </extensions>
      </trkpt>
      <trkpt lat="47.75051423348486423492431640625" lon="12.24913082085549831390380859375">
        <ele>1535.800048828125</ele>
        <time>2020-06-23T14:58:12.000Z</time>
        <extensions>
          <ns3:TrackPointExtension>
            <ns3:atemp>23.0</ns3:atemp>
            <ns3:hr>92</ns3:hr>
          </ns3:TrackPointExtension>
        </extensions>
      </trkpt>
      <trkpt lat="47.75048405863344669342041015625" lon="12.24926576949656009674072265625">
        <ele>1534.4000244140625</ele>
        <time>2020-06-23T14:58:13.000Z</time>
        <extensions>
          <ns3:TrackPointExtension>
            <ns3:atemp>23.0</ns3:atemp>
            <ns3:hr>94</ns3:hr>
          </ns3:TrackPointExtension>
        </extensions>
      </trkpt>
      <trkpt lat="47.75046327151358127593994140625" lon="12.2493992932140827178955078125">
        <ele>1532.800048828125</ele>
        <time>2020-06-23T14:58:14.000Z</time>
        <extensions>
          <ns3:TrackPointExtension>
            <ns3:atemp>23.0</ns3:atemp>
            <ns3:hr>97</ns3:hr>
          </ns3:TrackPointExtension>
        </extensions>
      </trkpt>
      <trkpt lat="47.75045505724847316741943359375" lon="12.24952879361808300018310546875">
        <ele>1531.4000244140625</ele>
        <time>2020-06-23T14:58:15.000Z</time>
        <extensions>
          <ns3:TrackPointExtension>
            <ns3:atemp>23.0</ns3:atemp>
            <ns3:hr>101</ns3:hr>
          </ns3:TrackPointExtension>
        </extensions>
      </trkpt>
      <trkpt lat="47.75045405142009258270263671875" lon="12.2496557794511318206787109375">
        <ele>1530.199951171875</ele>
        <time>2020-06-23T14:58:16.000Z</time>
        <extensions>
          <ns3:TrackPointExtension>
            <ns3:atemp>23.0</ns3:atemp>
            <ns3:hr>105</ns3:hr>
          </ns3:TrackPointExtension>
        </extensions>
      </trkpt>
      <trkpt lat="47.75046427734196186065673828125" lon="12.24989759735763072967529296875">
        <ele>1528.4000244140625</ele>
        <time>2020-06-23T14:58:18.000Z</time>
        <extensions>
          <ns3:TrackPointExtension>
            <ns3:atemp>23.0</ns3:atemp>
            <ns3:hr>107</ns3:hr>
          </ns3:TrackPointExtension>
        </extensions>
      </trkpt>
      <trkpt lat="47.75050585158169269561767578125" lon="12.2501141019165515899658203125">
        <ele>1527</ele>
        <time>2020-06-23T14:58:20.000Z</time>
        <extensions>
          <ns3:TrackPointExtension>
            <ns3:atemp>23.0</ns3:atemp>
            <ns3:hr>107</ns3:hr>
          </ns3:TrackPointExtension>
        </extensions>
      </trkpt>
      <trkpt lat="47.75055396370589733123779296875" lon="12.2503213025629520416259765625">
        <ele>1526.199951171875</ele>
        <time>2020-06-23T14:58:22.000Z</time>
        <extensions>
          <ns3:TrackPointExtension>
            <ns3:atemp>23.0</ns3:atemp>
            <ns3:hr>107</ns3:hr>
          </ns3:TrackPointExtension>
        </extensions>
      </trkpt>
      <trkpt lat="47.75057776831090450286865234375" lon="12.25042129866778850555419921875">
        <ele>1526</ele>
        <time>2020-06-23T14:58:23.000Z</time>
        <extensions>
          <ns3:TrackPointExtension>
            <ns3:atemp>23.0</ns3:atemp>
            <ns3:hr>108</ns3:hr>
          </ns3:TrackPointExtension>
        </extensions>
      </trkpt>
      <trkpt lat="47.7506494335830211639404296875" lon="12.250711061060428619384765625">
        <ele>1525.199951171875</ele>
        <time>2020-06-23T14:58:26.000Z</time>
        <extensions>
          <ns3:TrackPointExtension>
            <ns3:atemp>23.0</ns3:atemp>
            <ns3:hr>108</ns3:hr>
          </ns3:TrackPointExtension>
        </extensions>
      </trkpt>
      <trkpt lat="47.7506645210087299346923828125" lon="12.250814326107501983642578125">
        <ele>1525.199951171875</ele>
        <time>2020-06-23T14:58:27.000Z</time>
        <extensions>
          <ns3:TrackPointExtension>
            <ns3:atemp>23.0</ns3:atemp>
            <ns3:hr>108</ns3:hr>
          </ns3:TrackPointExtension>
        </extensions>
      </trkpt>
      <trkpt lat="47.75070114992558956146240234375" lon="12.25101809017360210418701171875">
        <ele>1524.800048828125</ele>
        <time>2020-06-23T14:58:29.000Z</time>
        <extensions>
          <ns3:TrackPointExtension>
            <ns3:atemp>23.0</ns3:atemp>
            <ns3:hr>107</ns3:hr>
          </ns3:TrackPointExtension>
        </extensions>
      </trkpt>
      <trkpt lat="47.7507275529205799102783203125" lon="12.25111330859363079071044921875">
        <ele>1524.800048828125</ele>
        <time>2020-06-23T14:58:30.000Z</time>
        <extensions>
          <ns3:TrackPointExtension>
            <ns3:atemp>23.0</ns3:atemp>
            <ns3:hr>104</ns3:hr>
          </ns3:TrackPointExtension>
        </extensions>
      </trkpt>
      <trkpt lat="47.750774659216403961181640625" lon="12.25131715647876262664794921875">
        <ele>1524.199951171875</ele>
        <time>2020-06-23T14:58:32.000Z</time>
        <extensions>
          <ns3:TrackPointExtension>
            <ns3:atemp>23.0</ns3:atemp>
            <ns3:hr>102</ns3:hr>
          </ns3:TrackPointExtension>
        </extensions>
      </trkpt>
      <trkpt lat="47.75080055929720401763916015625" lon="12.25141949951648712158203125">
        <ele>1524</ele>
        <time>2020-06-23T14:58:33.000Z</time>
        <extensions>
          <ns3:TrackPointExtension>
            <ns3:atemp>23.0</ns3:atemp>
            <ns3:hr>101</ns3:hr>
          </ns3:TrackPointExtension>
        </extensions>
      </trkpt>
      <trkpt lat="47.7508764155209064483642578125" lon="12.25156945176422595977783203125">
        <ele>1524</ele>
        <time>2020-06-23T14:58:35.000Z</time>
        <extensions>
          <ns3:TrackPointExtension>
            <ns3:atemp>23.0</ns3:atemp>
            <ns3:hr>101</ns3:hr>
          </ns3:TrackPointExtension>
        </extensions>
      </trkpt>
      <trkpt lat="47.7509612403810024261474609375" lon="12.25166022777557373046875">
        <ele>1525</ele>
        <time>2020-06-23T14:58:37.000Z</time>
        <extensions>
          <ns3:TrackPointExtension>
            <ns3:atemp>23.0</ns3:atemp>
            <ns3:hr>101</ns3:hr>
          </ns3:TrackPointExtension>
        </extensions>
      </trkpt>
      <trkpt lat="47.75100222788751125335693359375" lon="12.2517194040119647979736328125">
        <ele>1525.800048828125</ele>
        <time>2020-06-23T14:58:38.000Z</time>
        <extensions>
          <ns3:TrackPointExtension>
            <ns3:atemp>23.0</ns3:atemp>
            <ns3:hr>101</ns3:hr>
          </ns3:TrackPointExtension>
        </extensions>
      </trkpt>
      <trkpt lat="47.7510430477559566497802734375" lon="12.251794673502445220947265625">
        <ele>1526.800048828125</ele>
        <time>2020-06-23T14:58:39.000Z</time>
        <extensions>
          <ns3:TrackPointExtension>
            <ns3:atemp>23.0</ns3:atemp>
            <ns3:hr>101</ns3:hr>
          </ns3:TrackPointExtension>
        </extensions>
      </trkpt>
      <trkpt lat="47.751077748835086822509765625" lon="12.251877821981906890869140625">
        <ele>1527.5999755859375</ele>
        <time>2020-06-23T14:58:40.000Z</time>
        <extensions>
          <ns3:TrackPointExtension>
            <ns3:atemp>23.0</ns3:atemp>
            <ns3:hr>101</ns3:hr>
          </ns3:TrackPointExtension>
        </extensions>
      </trkpt>
      <trkpt lat="47.7511285431683063507080078125" lon="12.2520308755338191986083984375">
        <ele>1530</ele>
        <time>2020-06-23T14:58:42.000Z</time>
        <extensions>
          <ns3:TrackPointExtension>
            <ns3:atemp>23.0</ns3:atemp>
            <ns3:hr>97</ns3:hr>
          </ns3:TrackPointExtension>
        </extensions>
      </trkpt>
      <trkpt lat="47.75115276686847209930419921875" lon="12.25210807286202907562255859375">
        <ele>1531.4000244140625</ele>
        <time>2020-06-23T14:58:43.000Z</time>
        <extensions>
          <ns3:TrackPointExtension>
            <ns3:atemp>23.0</ns3:atemp>
            <ns3:hr>97</ns3:hr>
          </ns3:TrackPointExtension>
        </extensions>
      </trkpt>
      <trkpt lat="47.75117388926446437835693359375" lon="12.2521924786269664764404296875">
        <ele>1532.800048828125</ele>
        <time>2020-06-23T14:58:44.000Z</time>
        <extensions>
          <ns3:TrackPointExtension>
            <ns3:atemp>23.0</ns3:atemp>
            <ns3:hr>97</ns3:hr>
          </ns3:TrackPointExtension>
        </extensions>
      </trkpt>
      <trkpt lat="47.75118361227214336395263671875" lon="12.2522920556366443634033203125">
        <ele>1534.199951171875</ele>
        <time>2020-06-23T14:58:45.000Z</time>
        <extensions>
          <ns3:TrackPointExtension>
            <ns3:atemp>23.0</ns3:atemp>
            <ns3:hr>97</ns3:hr>
          </ns3:TrackPointExtension>
        </extensions>
      </trkpt>
      <trkpt lat="47.75117464363574981689453125" lon="12.2523990087211132049560546875">
        <ele>1535.800048828125</ele>
        <time>2020-06-23T14:58:46.000Z</time>
        <extensions>
          <ns3:TrackPointExtension>
            <ns3:atemp>23.0</ns3:atemp>
            <ns3:hr>97</ns3:hr>
          </ns3:TrackPointExtension>
        </extensions>
      </trkpt>
      <trkpt lat="47.7511463128030300140380859375" lon="12.2525019384920597076416015625">
        <ele>1537.4000244140625</ele>
        <time>2020-06-23T14:58:47.000Z</time>
        <extensions>
          <ns3:TrackPointExtension>
            <ns3:atemp>23.0</ns3:atemp>
            <ns3:hr>97</ns3:hr>
          </ns3:TrackPointExtension>
        </extensions>
      </trkpt>
      <trkpt lat="47.751106582581996917724609375" lon="12.25261065177619457244873046875">
        <ele>1539</ele>
        <time>2020-06-23T14:58:48.000Z</time>
        <extensions>
          <ns3:TrackPointExtension>
            <ns3:atemp>23.0</ns3:atemp>
            <ns3:hr>99</ns3:hr>
          </ns3:TrackPointExtension>
        </extensions>
      </trkpt>
      <trkpt lat="47.75106861256062984466552734375" lon="12.2527245618402957916259765625">
        <ele>1540.4000244140625</ele>
        <time>2020-06-23T14:58:49.000Z</time>
        <extensions>
          <ns3:TrackPointExtension>
            <ns3:atemp>23.0</ns3:atemp>
            <ns3:hr>97</ns3:hr>
          </ns3:TrackPointExtension>
        </extensions>
      </trkpt>
      <trkpt lat="47.75104011408984661102294921875" lon="12.25283713079988956451416015625">
        <ele>1541.4000244140625</ele>
        <time>2020-06-23T14:58:50.000Z</time>
        <extensions>
          <ns3:TrackPointExtension>
            <ns3:atemp>23.0</ns3:atemp>
            <ns3:hr>98</ns3:hr>
          </ns3:TrackPointExtension>
        </extensions>
      </trkpt>
      <trkpt lat="47.75102368555963039398193359375" lon="12.2529409825801849365234375">
        <ele>1542.4000244140625</ele>
        <time>2020-06-23T14:58:51.000Z</time>
        <extensions>
          <ns3:TrackPointExtension>
            <ns3:atemp>23.0</ns3:atemp>
            <ns3:hr>97</ns3:hr>
          </ns3:TrackPointExtension>
        </extensions>
      </trkpt>
      <trkpt lat="47.75101798586547374725341796875" lon="12.253039889037609100341796875">
        <ele>1543.4000244140625</ele>
        <time>2020-06-23T14:58:52.000Z</time>
        <extensions>
          <ns3:TrackPointExtension>
            <ns3:atemp>23.0</ns3:atemp>
            <ns3:hr>96</ns3:hr>
          </ns3:TrackPointExtension>
        </extensions>
      </trkpt>
      <trkpt lat="47.75102217681705951690673828125" lon="12.25313619710505008697509765625">
        <ele>1544.800048828125</ele>
        <time>2020-06-23T14:58:53.000Z</time>
        <extensions>
          <ns3:TrackPointExtension>
            <ns3:atemp>23.0</ns3:atemp>
            <ns3:hr>96</ns3:hr>
          </ns3:TrackPointExtension>
        </extensions>
      </trkpt>
      <trkpt lat="47.75103106163442134857177734375" lon="12.2532321698963642120361328125">
        <ele>1546</ele>
        <time>2020-06-23T14:58:54.000Z</time>
        <extensions>
          <ns3:TrackPointExtension>
            <ns3:atemp>23.0</ns3:atemp>
            <ns3:hr>97</ns3:hr>
          </ns3:TrackPointExtension>
        </extensions>
      </trkpt>
      <trkpt lat="47.7510358393192291259765625" lon="12.253327555954456329345703125">
        <ele>1547</ele>
        <time>2020-06-23T14:58:55.000Z</time>
        <extensions>
          <ns3:TrackPointExtension>
            <ns3:atemp>23.0</ns3:atemp>
            <ns3:hr>98</ns3:hr>
          </ns3:TrackPointExtension>
        </extensions>
      </trkpt>
      <trkpt lat="47.7510339953005313873291015625" lon="12.25341699086129665374755859375">
        <ele>1547.5999755859375</ele>
        <time>2020-06-23T14:58:56.000Z</time>
        <extensions>
          <ns3:TrackPointExtension>
            <ns3:atemp>23.0</ns3:atemp>
            <ns3:hr>96</ns3:hr>
          </ns3:TrackPointExtension>
        </extensions>
      </trkpt>
      <trkpt lat="47.751026786863803863525390625" lon="12.2536003030836582183837890625">
        <ele>1547.5999755859375</ele>
        <time>2020-06-23T14:58:58.000Z</time>
        <extensions>
          <ns3:TrackPointExtension>
            <ns3:atemp>23.0</ns3:atemp>
            <ns3:hr>98</ns3:hr>
          </ns3:TrackPointExtension>
        </extensions>
      </trkpt>
      <trkpt lat="47.75104028172791004180908203125" lon="12.2538021393120288848876953125">
        <ele>1545.5999755859375</ele>
        <time>2020-06-23T14:59:00.000Z</time>
        <extensions>
          <ns3:TrackPointExtension>
            <ns3:atemp>23.0</ns3:atemp>
            <ns3:hr>98</ns3:hr>
          </ns3:TrackPointExtension>
        </extensions>
      </trkpt>
      <trkpt lat="47.7510567940771579742431640625" lon="12.2538903169333934783935546875">
        <ele>1544</ele>
        <time>2020-06-23T14:59:01.000Z</time>
        <extensions>
          <ns3:TrackPointExtension>
            <ns3:atemp>23.0</ns3:atemp>
            <ns3:hr>98</ns3:hr>
          </ns3:TrackPointExtension>
        </extensions>
      </trkpt>
      <trkpt lat="47.75107800029218196868896484375" lon="12.253964580595493316650390625">
        <ele>1542.199951171875</ele>
        <time>2020-06-23T14:59:02.000Z</time>
        <extensions>
          <ns3:TrackPointExtension>
            <ns3:atemp>23.0</ns3:atemp>
            <ns3:hr>97</ns3:hr>
          </ns3:TrackPointExtension>
        </extensions>
      </trkpt>
      <trkpt lat="47.75110063143074512481689453125" lon="12.2540291212499141693115234375">
        <ele>1540.800048828125</ele>
        <time>2020-06-23T14:59:03.000Z</time>
        <extensions>
          <ns3:TrackPointExtension>
            <ns3:atemp>23.0</ns3:atemp>
            <ns3:hr>98</ns3:hr>
          </ns3:TrackPointExtension>
        </extensions>
      </trkpt>
      <trkpt lat="47.7511258609592914581298828125" lon="12.25408569909632205963134765625">
        <ele>1539.5999755859375</ele>
        <time>2020-06-23T14:59:04.000Z</time>
        <extensions>
          <ns3:TrackPointExtension>
            <ns3:atemp>23.0</ns3:atemp>
            <ns3:hr>96</ns3:hr>
          </ns3:TrackPointExtension>
        </extensions>
      </trkpt>
      <trkpt lat="47.75115762837231159210205078125" lon="12.25412727333605289459228515625">
        <ele>1538.4000244140625</ele>
        <time>2020-06-23T14:59:05.000Z</time>
        <extensions>
          <ns3:TrackPointExtension>
            <ns3:atemp>23.0</ns3:atemp>
            <ns3:hr>97</ns3:hr>
          </ns3:TrackPointExtension>
        </extensions>
      </trkpt>
      <trkpt lat="47.75119752623140811920166015625" lon="12.2541424445807933807373046875">
        <ele>1537.199951171875</ele>
        <time>2020-06-23T14:59:06.000Z</time>
        <extensions>
          <ns3:TrackPointExtension>
            <ns3:atemp>23.0</ns3:atemp>
            <ns3:hr>97</ns3:hr>
          </ns3:TrackPointExtension>
        </extensions>
      </trkpt>
      <trkpt lat="47.75124094448983669281005859375" lon="12.25412291474640369415283203125">
        <ele>1535.800048828125</ele>
        <time>2020-06-23T14:59:07.000Z</time>
        <extensions>
          <ns3:TrackPointExtension>
            <ns3:atemp>23.0</ns3:atemp>
            <ns3:hr>98</ns3:hr>
          </ns3:TrackPointExtension>
        </extensions>
      </trkpt>
      <trkpt lat="47.75127732194960117340087890625" lon="12.2540706954896450042724609375">
        <ele>1535</ele>
        <time>2020-06-23T14:59:08.000Z</time>
        <extensions>
          <ns3:TrackPointExtension>
            <ns3:atemp>23.0</ns3:atemp>
            <ns3:hr>99</ns3:hr>
          </ns3:TrackPointExtension>
        </extensions>
      </trkpt>
      <trkpt lat="47.7513008750975131988525390625" lon="12.25400514900684356689453125">
        <ele>1534.4000244140625</ele>
        <time>2020-06-23T14:59:09.000Z</time>
        <extensions>
          <ns3:TrackPointExtension>
            <ns3:atemp>23.0</ns3:atemp>
            <ns3:hr>99</ns3:hr>
          </ns3:TrackPointExtension>
        </extensions>
      </trkpt>
      <trkpt lat="47.75130917318165302276611328125" lon="12.25392526946961879730224609375">
        <ele>1534.199951171875</ele>
        <time>2020-06-23T14:59:10.000Z</time>
        <extensions>
          <ns3:TrackPointExtension>
            <ns3:atemp>23.0</ns3:atemp>
            <ns3:hr>99</ns3:hr>
          </ns3:TrackPointExtension>
        </extensions>
      </trkpt>
      <trkpt lat="47.7512827701866626739501953125" lon="12.25370549596846103668212890625">
        <ele>1533.800048828125</ele>
        <time>2020-06-23T14:59:12.000Z</time>
        <extensions>
          <ns3:TrackPointExtension>
            <ns3:atemp>23.0</ns3:atemp>
            <ns3:hr>99</ns3:hr>
          </ns3:TrackPointExtension>
        </extensions>
      </trkpt>
      <trkpt lat="47.75124966166913509368896484375" lon="12.2535815276205539703369140625">
        <ele>1533.800048828125</ele>
        <time>2020-06-23T14:59:13.000Z</time>
        <extensions>
          <ns3:TrackPointExtension>
            <ns3:atemp>23.0</ns3:atemp>
            <ns3:hr>100</ns3:hr>
          </ns3:TrackPointExtension>
        </extensions>
      </trkpt>
      <trkpt lat="47.75119937025010585784912109375" lon="12.25345755927264690399169921875">
        <ele>1534</ele>
        <time>2020-06-23T14:59:14.000Z</time>
        <extensions>
          <ns3:TrackPointExtension>
            <ns3:atemp>23.0</ns3:atemp>
            <ns3:hr>98</ns3:hr>
          </ns3:TrackPointExtension>
        </extensions>
      </trkpt>
      <trkpt lat="47.75104279629886150360107421875" lon="12.25323627702891826629638671875">
        <ele>1534</ele>
        <time>2020-06-23T14:59:16.000Z</time>
        <extensions>
          <ns3:TrackPointExtension>
            <ns3:atemp>23.0</ns3:atemp>
            <ns3:hr>96</ns3:hr>
          </ns3:TrackPointExtension>
        </extensions>
      </trkpt>
      <trkpt lat="47.7506685443222522735595703125" lon="12.25290812551975250244140625">
        <ele>1535.4000244140625</ele>
        <time>2020-06-23T14:59:20.000Z</time>
        <extensions>
          <ns3:TrackPointExtension>
            <ns3:atemp>23.0</ns3:atemp>
            <ns3:hr>93</ns3:hr>
          </ns3:TrackPointExtension>
        </extensions>
      </trkpt>
      <trkpt lat="47.75034273974597454071044921875" lon="12.25244276225566864013671875">
        <ele>1534.800048828125</ele>
        <time>2020-06-23T14:59:24.000Z</time>
        <extensions>
          <ns3:TrackPointExtension>
            <ns3:atemp>23.0</ns3:atemp>
            <ns3:hr>94</ns3:hr>
          </ns3:TrackPointExtension>
        </extensions>
      </trkpt>
      <trkpt lat="47.7501756884157657623291015625" lon="12.2520556859672069549560546875">
        <ele>1535.800048828125</ele>
        <time>2020-06-23T14:59:27.000Z</time>
        <extensions>
          <ns3:TrackPointExtension>
            <ns3:atemp>23.0</ns3:atemp>
            <ns3:hr>94</ns3:hr>
          </ns3:TrackPointExtension>
        </extensions>
      </trkpt>
      <trkpt lat="47.7501233853399753570556640625" lon="12.25193724967539310455322265625">
        <ele>1537</ele>
        <time>2020-06-23T14:59:28.000Z</time>
        <extensions>
          <ns3:TrackPointExtension>
            <ns3:atemp>23.0</ns3:atemp>
            <ns3:hr>95</ns3:hr>
          </ns3:TrackPointExtension>
        </extensions>
      </trkpt>
      <trkpt lat="47.75007183663547039031982421875" lon="12.2518216632306575775146484375">
        <ele>1538.199951171875</ele>
        <time>2020-06-23T14:59:29.000Z</time>
        <extensions>
          <ns3:TrackPointExtension>
            <ns3:atemp>23.0</ns3:atemp>
            <ns3:hr>94</ns3:hr>
          </ns3:TrackPointExtension>
        </extensions>
      </trkpt>
      <trkpt lat="47.75003344751894474029541015625" lon="12.2517049871385097503662109375">
        <ele>1539.4000244140625</ele>
        <time>2020-06-23T14:59:30.000Z</time>
        <extensions>
          <ns3:TrackPointExtension>
            <ns3:atemp>23.0</ns3:atemp>
            <ns3:hr>95</ns3:hr>
          </ns3:TrackPointExtension>
        </extensions>
      </trkpt>
      <trkpt lat="47.7500114031136035919189453125" lon="12.2515862993896007537841796875">
        <ele>1540.800048828125</ele>
        <time>2020-06-23T14:59:31.000Z</time>
        <extensions>
          <ns3:TrackPointExtension>
            <ns3:atemp>23.0</ns3:atemp>
            <ns3:hr>96</ns3:hr>
          </ns3:TrackPointExtension>
        </extensions>
      </trkpt>
      <trkpt lat="47.749994806945323944091796875" lon="12.25146710872650146484375">
        <ele>1541.800048828125</ele>
        <time>2020-06-23T14:59:32.000Z</time>
        <extensions>
          <ns3:TrackPointExtension>
            <ns3:atemp>23.0</ns3:atemp>
            <ns3:hr>97</ns3:hr>
          </ns3:TrackPointExtension>
        </extensions>
      </trkpt>
      <trkpt lat="47.74996873922646045684814453125" lon="12.25134707987308502197265625">
        <ele>1542.5999755859375</ele>
        <time>2020-06-23T14:59:33.000Z</time>
        <extensions>
          <ns3:TrackPointExtension>
            <ns3:atemp>23.0</ns3:atemp>
            <ns3:hr>96</ns3:hr>
          </ns3:TrackPointExtension>
        </extensions>
      </trkpt>
      <trkpt lat="47.74992850609123706817626953125" lon="12.25122646428644657135009765625">
        <ele>1542.800048828125</ele>
        <time>2020-06-23T14:59:34.000Z</time>
        <extensions>
          <ns3:TrackPointExtension>
            <ns3:atemp>23.0</ns3:atemp>
            <ns3:hr>94</ns3:hr>
          </ns3:TrackPointExtension>
        </extensions>
      </trkpt>
      <trkpt lat="47.74988022632896900177001953125" lon="12.2511065192520618438720703125">
        <ele>1543</ele>
        <time>2020-06-23T14:59:35.000Z</time>
        <extensions>
          <ns3:TrackPointExtension>
            <ns3:atemp>23.0</ns3:atemp>
            <ns3:hr>95</ns3:hr>
          </ns3:TrackPointExtension>
        </extensions>
      </trkpt>
      <trkpt lat="47.7496399171650409698486328125" lon="12.25064811296761035919189453125">
        <ele>1543.199951171875</ele>
        <time>2020-06-23T14:59:39.000Z</time>
        <extensions>
          <ns3:TrackPointExtension>
            <ns3:atemp>23.0</ns3:atemp>
            <ns3:hr>93</ns3:hr>
          </ns3:TrackPointExtension>
        </extensions>
      </trkpt>
      <trkpt lat="47.74956121109426021575927734375" lon="12.25051936693489551544189453125">
        <ele>1543.199951171875</ele>
        <time>2020-06-23T14:59:40.000Z</time>
        <extensions>
          <ns3:TrackPointExtension>
            <ns3:atemp>23.0</ns3:atemp>
            <ns3:hr>94</ns3:hr>
          </ns3:TrackPointExtension>
        </extensions>
      </trkpt>
      <trkpt lat="47.749385274946689605712890625" lon="12.25031040608882904052734375">
        <ele>1544.199951171875</ele>
        <time>2020-06-23T14:59:42.000Z</time>
        <extensions>
          <ns3:TrackPointExtension>
            <ns3:atemp>23.0</ns3:atemp>
            <ns3:hr>92</ns3:hr>
          </ns3:TrackPointExtension>
        </extensions>
      </trkpt>
      <trkpt lat="47.7492439560592174530029296875" lon="12.250165902078151702880859375">
        <ele>1546.5999755859375</ele>
        <time>2020-06-23T14:59:44.000Z</time>
        <extensions>
          <ns3:TrackPointExtension>
            <ns3:atemp>23.0</ns3:atemp>
            <ns3:hr>93</ns3:hr>
          </ns3:TrackPointExtension>
        </extensions>
      </trkpt>
      <trkpt lat="47.74917899630963802337646484375" lon="12.2500859387218952178955078125">
        <ele>1547.800048828125</ele>
        <time>2020-06-23T14:59:45.000Z</time>
        <extensions>
          <ns3:TrackPointExtension>
            <ns3:atemp>23.0</ns3:atemp>
            <ns3:hr>95</ns3:hr>
          </ns3:TrackPointExtension>
        </extensions>
      </trkpt>
      <trkpt lat="47.74902594275772571563720703125" lon="12.24987731315195560455322265625">
        <ele>1549.4000244140625</ele>
        <time>2020-06-23T14:59:47.000Z</time>
        <extensions>
          <ns3:TrackPointExtension>
            <ns3:atemp>23.0</ns3:atemp>
            <ns3:hr>95</ns3:hr>
          </ns3:TrackPointExtension>
        </extensions>
      </trkpt>
      <trkpt lat="47.74894882924854755401611328125" lon="12.2497665882110595703125">
        <ele>1549.800048828125</ele>
        <time>2020-06-23T14:59:48.000Z</time>
        <extensions>
          <ns3:TrackPointExtension>
            <ns3:atemp>23.0</ns3:atemp>
            <ns3:hr>94</ns3:hr>
          </ns3:TrackPointExtension>
        </extensions>
      </trkpt>
      <trkpt lat="47.7488241903483867645263671875" lon="12.249581515789031982421875">
        <ele>1551.199951171875</ele>
        <time>2020-06-23T14:59:50.000Z</time>
        <extensions>
          <ns3:TrackPointExtension>
            <ns3:atemp>23.0</ns3:atemp>
            <ns3:hr>93</ns3:hr>
          </ns3:TrackPointExtension>
        </extensions>
      </trkpt>
      <trkpt lat="47.74877180345356464385986328125" lon="12.24949107505381107330322265625">
        <ele>1551.800048828125</ele>
        <time>2020-06-23T14:59:51.000Z</time>
        <extensions>
          <ns3:TrackPointExtension>
            <ns3:atemp>23.0</ns3:atemp>
            <ns3:hr>93</ns3:hr>
          </ns3:TrackPointExtension>
        </extensions>
      </trkpt>
      <trkpt lat="47.74866350926458835601806640625" lon="12.2492618300020694732666015625">
        <ele>1552.4000244140625</ele>
        <time>2020-06-23T14:59:53.000Z</time>
        <extensions>
          <ns3:TrackPointExtension>
            <ns3:atemp>23.0</ns3:atemp>
            <ns3:hr>92</ns3:hr>
          </ns3:TrackPointExtension>
        </extensions>
      </trkpt>
      <trkpt lat="47.74861757643520832061767578125" lon="12.24912797100841999053955078125">
        <ele>1552.4000244140625</ele>
        <time>2020-06-23T14:59:54.000Z</time>
        <extensions>
          <ns3:TrackPointExtension>
            <ns3:atemp>23.0</ns3:atemp>
            <ns3:hr>92</ns3:hr>
          </ns3:TrackPointExtension>
        </extensions>
      </trkpt>
      <trkpt lat="47.748587988317012786865234375" lon="12.24900308065116405487060546875">
        <ele>1552</ele>
        <time>2020-06-23T14:59:55.000Z</time>
        <extensions>
          <ns3:TrackPointExtension>
            <ns3:atemp>23.0</ns3:atemp>
            <ns3:hr>92</ns3:hr>
          </ns3:TrackPointExtension>
        </extensions>
      </trkpt>
      <trkpt lat="47.74857583455741405487060546875" lon="12.24879764020442962646484375">
        <ele>1551.5999755859375</ele>
        <time>2020-06-23T14:59:57.000Z</time>
        <extensions>
          <ns3:TrackPointExtension>
            <ns3:atemp>23.0</ns3:atemp>
            <ns3:hr>94</ns3:hr>
          </ns3:TrackPointExtension>
        </extensions>
      </trkpt>
      <trkpt lat="47.74858094751834869384765625" lon="12.24859370850026607513427734375">
        <ele>1551.4000244140625</ele>
        <time>2020-06-23T14:59:59.000Z</time>
        <extensions>
          <ns3:TrackPointExtension>
            <ns3:atemp>23.0</ns3:atemp>
            <ns3:hr>93</ns3:hr>
          </ns3:TrackPointExtension>
        </extensions>
      </trkpt>
      <trkpt lat="47.74859947152435779571533203125" lon="12.2485111467540264129638671875">
        <ele>1551.4000244140625</ele>
        <time>2020-06-23T15:00:00.000Z</time>
        <extensions>
          <ns3:TrackPointExtension>
            <ns3:atemp>23.0</ns3:atemp>
            <ns3:hr>96</ns3:hr>
          </ns3:TrackPointExtension>
        </extensions>
      </trkpt>
      <trkpt lat="47.7486371062695980072021484375" lon="12.2484699077904224395751953125">
        <ele>1551.199951171875</ele>
        <time>2020-06-23T15:00:01.000Z</time>
        <extensions>
          <ns3:TrackPointExtension>
            <ns3:atemp>23.0</ns3:atemp>
            <ns3:hr>94</ns3:hr>
          </ns3:TrackPointExtension>
        </extensions>
      </trkpt>
      <trkpt lat="47.748722769320011138916015625" lon="12.24853185005486011505126953125">
        <ele>1551.199951171875</ele>
        <time>2020-06-23T15:00:03.000Z</time>
        <extensions>
          <ns3:TrackPointExtension>
            <ns3:atemp>23.0</ns3:atemp>
            <ns3:hr>93</ns3:hr>
          </ns3:TrackPointExtension>
        </extensions>
      </trkpt>
      <trkpt lat="47.74874188005924224853515625" lon="12.24859538488090038299560546875">
        <ele>1551.199951171875</ele>
        <time>2020-06-23T15:00:04.000Z</time>
        <extensions>
          <ns3:TrackPointExtension>
            <ns3:atemp>23.0</ns3:atemp>
            <ns3:hr>92</ns3:hr>
          </ns3:TrackPointExtension>
        </extensions>
      </trkpt>
      <trkpt lat="47.74873693473637104034423828125" lon="12.24875145591795444488525390625">
        <ele>1551</ele>
        <time>2020-06-23T15:00:06.000Z</time>
        <extensions>
          <ns3:TrackPointExtension>
            <ns3:atemp>23.0</ns3:atemp>
            <ns3:hr>91</ns3:hr>
          </ns3:TrackPointExtension>
        </extensions>
      </trkpt>
      <trkpt lat="47.74869318120181560516357421875" lon="12.2489738278090953826904296875">
        <ele>1550.199951171875</ele>
        <time>2020-06-23T15:00:08.000Z</time>
        <extensions>
          <ns3:TrackPointExtension>
            <ns3:atemp>23.0</ns3:atemp>
            <ns3:hr>93</ns3:hr>
          </ns3:TrackPointExtension>
        </extensions>
      </trkpt>
      <trkpt lat="47.7486632578074932098388671875" lon="12.24909226410090923309326171875">
        <ele>1549.5999755859375</ele>
        <time>2020-06-23T15:00:09.000Z</time>
        <extensions>
          <ns3:TrackPointExtension>
            <ns3:atemp>23.0</ns3:atemp>
            <ns3:hr>94</ns3:hr>
          </ns3:TrackPointExtension>
        </extensions>
      </trkpt>
      <trkpt lat="47.74863232858479022979736328125" lon="12.2492014802992343902587890625">
        <ele>1549</ele>
        <time>2020-06-23T15:00:10.000Z</time>
        <extensions>
          <ns3:TrackPointExtension>
            <ns3:atemp>23.0</ns3:atemp>
            <ns3:hr>95</ns3:hr>
          </ns3:TrackPointExtension>
        </extensions>
      </trkpt>
      <trkpt lat="47.7486065961420536041259765625" lon="12.24930248223245143890380859375">
        <ele>1548.5999755859375</ele>
        <time>2020-06-23T15:00:11.000Z</time>
        <extensions>
          <ns3:TrackPointExtension>
            <ns3:atemp>23.0</ns3:atemp>
            <ns3:hr>96</ns3:hr>
          </ns3:TrackPointExtension>
        </extensions>
      </trkpt>
      <trkpt lat="47.74858689866960048675537109375" lon="12.24950482137501239776611328125">
        <ele>1547.800048828125</ele>
        <time>2020-06-23T15:00:13.000Z</time>
        <extensions>
          <ns3:TrackPointExtension>
            <ns3:atemp>23.0</ns3:atemp>
            <ns3:hr>98</ns3:hr>
          </ns3:TrackPointExtension>
        </extensions>
      </trkpt>
      <trkpt lat="47.74859301745891571044921875" lon="12.24968989379703998565673828125">
        <ele>1547</ele>
        <time>2020-06-23T15:00:15.000Z</time>
        <extensions>
          <ns3:TrackPointExtension>
            <ns3:atemp>23.0</ns3:atemp>
            <ns3:hr>103</ns3:hr>
          </ns3:TrackPointExtension>
        </extensions>
      </trkpt>
      <trkpt lat="47.74860047735273838043212890625" lon="12.249760217964649200439453125">
        <ele>1546.5999755859375</ele>
        <time>2020-06-23T15:00:16.000Z</time>
        <extensions>
          <ns3:TrackPointExtension>
            <ns3:atemp>23.0</ns3:atemp>
            <ns3:hr>104</ns3:hr>
          </ns3:TrackPointExtension>
        </extensions>
      </trkpt>
      <trkpt lat="47.748614139854907989501953125" lon="12.2498224116861820220947265625">
        <ele>1546.199951171875</ele>
        <time>2020-06-23T15:00:17.000Z</time>
        <extensions>
          <ns3:TrackPointExtension>
            <ns3:atemp>23.0</ns3:atemp>
            <ns3:hr>105</ns3:hr>
          </ns3:TrackPointExtension>
        </extensions>
      </trkpt>
      <trkpt lat="47.74864993058145046234130859375" lon="12.2499498166143894195556640625">
        <ele>1545.5999755859375</ele>
        <time>2020-06-23T15:00:19.000Z</time>
        <extensions>
          <ns3:TrackPointExtension>
            <ns3:atemp>23.0</ns3:atemp>
            <ns3:hr>106</ns3:hr>
          </ns3:TrackPointExtension>
        </extensions>
      </trkpt>
      <trkpt lat="47.74872486479580402374267578125" lon="12.2502009384334087371826171875">
        <ele>1545</ele>
        <time>2020-06-23T15:00:23.000Z</time>
        <extensions>
          <ns3:TrackPointExtension>
            <ns3:atemp>23.0</ns3:atemp>
            <ns3:hr>106</ns3:hr>
          </ns3:TrackPointExtension>
        </extensions>
      </trkpt>
      <trkpt lat="47.748771049082279205322265625" lon="12.25040688179433345794677734375">
        <ele>1544.5999755859375</ele>
        <time>2020-06-23T15:00:26.000Z</time>
        <extensions>
          <ns3:TrackPointExtension>
            <ns3:atemp>23.0</ns3:atemp>
            <ns3:hr>106</ns3:hr>
          </ns3:TrackPointExtension>
        </extensions>
      </trkpt>
      <trkpt lat="47.748805247247219085693359375" lon="12.250564210116863250732421875">
        <ele>1544.199951171875</ele>
        <time>2020-06-23T15:00:28.000Z</time>
        <extensions>
          <ns3:TrackPointExtension>
            <ns3:atemp>23.0</ns3:atemp>
            <ns3:hr>106</ns3:hr>
          </ns3:TrackPointExtension>
        </extensions>
      </trkpt>
      <trkpt lat="47.74888311512768268585205078125" lon="12.25092287175357341766357421875">
        <ele>1544.4000244140625</ele>
        <time>2020-06-23T15:00:33.000Z</time>
        <extensions>
          <ns3:TrackPointExtension>
            <ns3:atemp>23.0</ns3:atemp>
            <ns3:hr>107</ns3:hr>
          </ns3:TrackPointExtension>
        </extensions>
      </trkpt>
      <trkpt lat="47.74890490807592868804931640625" lon="12.25097425282001495361328125">
        <ele>1544.4000244140625</ele>
        <time>2020-06-23T15:00:34.000Z</time>
        <extensions>
          <ns3:TrackPointExtension>
            <ns3:atemp>23.0</ns3:atemp>
            <ns3:hr>108</ns3:hr>
          </ns3:TrackPointExtension>
        </extensions>
      </trkpt>
      <trkpt lat="47.7489981986582279205322265625" lon="12.25114482454955577850341796875">
        <ele>1544</ele>
        <time>2020-06-23T15:00:38.000Z</time>
        <extensions>
          <ns3:TrackPointExtension>
            <ns3:atemp>23.0</ns3:atemp>
            <ns3:hr>111</ns3:hr>
          </ns3:TrackPointExtension>
        </extensions>
      </trkpt>
      <trkpt lat="47.74901605211198329925537109375" lon="12.25119628943502902984619140625">
        <ele>1543.800048828125</ele>
        <time>2020-06-23T15:00:39.000Z</time>
        <extensions>
          <ns3:TrackPointExtension>
            <ns3:atemp>23.0</ns3:atemp>
            <ns3:hr>110</ns3:hr>
          </ns3:TrackPointExtension>
        </extensions>
      </trkpt>
      <trkpt lat="47.74903901852667331695556640625" lon="12.25124775432050228118896484375">
        <ele>1543.4000244140625</ele>
        <time>2020-06-23T15:00:40.000Z</time>
        <extensions>
          <ns3:TrackPointExtension>
            <ns3:atemp>23.0</ns3:atemp>
            <ns3:hr>109</ns3:hr>
          </ns3:TrackPointExtension>
        </extensions>
      </trkpt>
      <trkpt lat="47.749062068760395050048828125" lon="12.251304499804973602294921875">
        <ele>1542.800048828125</ele>
        <time>2020-06-23T15:00:41.000Z</time>
        <extensions>
          <ns3:TrackPointExtension>
            <ns3:atemp>23.0</ns3:atemp>
            <ns3:hr>109</ns3:hr>
          </ns3:TrackPointExtension>
        </extensions>
      </trkpt>
      <trkpt lat="47.74908109568059444427490234375" lon="12.25136929191648960113525390625">
        <ele>1542.199951171875</ele>
        <time>2020-06-23T15:00:42.000Z</time>
        <extensions>
          <ns3:TrackPointExtension>
            <ns3:atemp>23.0</ns3:atemp>
            <ns3:hr>108</ns3:hr>
          </ns3:TrackPointExtension>
        </extensions>
      </trkpt>
      <trkpt lat="47.749095596373081207275390625" lon="12.25143953226506710052490234375">
        <ele>1541.800048828125</ele>
        <time>2020-06-23T15:00:43.000Z</time>
        <extensions>
          <ns3:TrackPointExtension>
            <ns3:atemp>23.0</ns3:atemp>
            <ns3:hr>107</ns3:hr>
          </ns3:TrackPointExtension>
        </extensions>
      </trkpt>
      <trkpt lat="47.74912484921514987945556640625" lon="12.2515557892620563507080078125">
        <ele>1541.199951171875</ele>
        <time>2020-06-23T15:00:45.000Z</time>
        <extensions>
          <ns3:TrackPointExtension>
            <ns3:atemp>23.0</ns3:atemp>
            <ns3:hr>108</ns3:hr>
          </ns3:TrackPointExtension>
        </extensions>
      </trkpt>
      <trkpt lat="47.74918385781347751617431640625" lon="12.25161504931747913360595703125">
        <ele>1540.4000244140625</ele>
        <time>2020-06-23T15:00:47.000Z</time>
        <extensions>
          <ns3:TrackPointExtension>
            <ns3:atemp>23.0</ns3:atemp>
            <ns3:hr>106</ns3:hr>
          </ns3:TrackPointExtension>
        </extensions>
      </trkpt>
      <trkpt lat="47.7492146193981170654296875" lon="12.25163416005671024322509765625">
        <ele>1539.5999755859375</ele>
        <time>2020-06-23T15:00:48.000Z</time>
        <extensions>
          <ns3:TrackPointExtension>
            <ns3:atemp>23.0</ns3:atemp>
            <ns3:hr>103</ns3:hr>
          </ns3:TrackPointExtension>
        </extensions>
      </trkpt>
      <trkpt lat="47.74926717393100261688232421875" lon="12.2516637481749057769775390625">
        <ele>1538.199951171875</ele>
        <time>2020-06-23T15:00:50.000Z</time>
        <extensions>
          <ns3:TrackPointExtension>
            <ns3:atemp>23.0</ns3:atemp>
            <ns3:hr>100</ns3:hr>
          </ns3:TrackPointExtension>
        </extensions>
      </trkpt>
      <trkpt lat="47.7493297867476940155029296875" lon="12.25170205347239971160888671875">
        <ele>1536.199951171875</ele>
        <time>2020-06-23T15:00:52.000Z</time>
        <extensions>
          <ns3:TrackPointExtension>
            <ns3:atemp>23.0</ns3:atemp>
            <ns3:hr>97</ns3:hr>
          </ns3:TrackPointExtension>
        </extensions>
      </trkpt>
      <trkpt lat="47.74936415255069732666015625" lon="12.2517371736466884613037109375">
        <ele>1535.199951171875</ele>
        <time>2020-06-23T15:00:53.000Z</time>
        <extensions>
          <ns3:TrackPointExtension>
            <ns3:atemp>23.0</ns3:atemp>
            <ns3:hr>97</ns3:hr>
          </ns3:TrackPointExtension>
        </extensions>
      </trkpt>
      <trkpt lat="47.74939675815403461456298828125" lon="12.25178335793316364288330078125">
        <ele>1534</ele>
        <time>2020-06-23T15:00:54.000Z</time>
        <extensions>
          <ns3:TrackPointExtension>
            <ns3:atemp>23.0</ns3:atemp>
            <ns3:hr>99</ns3:hr>
          </ns3:TrackPointExtension>
        </extensions>
      </trkpt>
      <trkpt lat="47.749425508081912994384765625" lon="12.2518411092460155487060546875">
        <ele>1533</ele>
        <time>2020-06-23T15:00:55.000Z</time>
        <extensions>
          <ns3:TrackPointExtension>
            <ns3:atemp>23.0</ns3:atemp>
            <ns3:hr>100</ns3:hr>
          </ns3:TrackPointExtension>
        </extensions>
      </trkpt>
      <trkpt lat="47.7494504861533641815185546875" lon="12.25191059522330760955810546875">
        <ele>1532.199951171875</ele>
        <time>2020-06-23T15:00:56.000Z</time>
        <extensions>
          <ns3:TrackPointExtension>
            <ns3:atemp>23.0</ns3:atemp>
            <ns3:hr>100</ns3:hr>
          </ns3:TrackPointExtension>
        </extensions>
      </trkpt>
      <trkpt lat="47.74947303347289562225341796875" lon="12.25199189968407154083251953125">
        <ele>1531</ele>
        <time>2020-06-23T15:00:57.000Z</time>
        <extensions>
          <ns3:TrackPointExtension>
            <ns3:atemp>23.0</ns3:atemp>
            <ns3:hr>100</ns3:hr>
          </ns3:TrackPointExtension>
        </extensions>
      </trkpt>
      <trkpt lat="47.74949398823082447052001953125" lon="12.2520845197141170501708984375">
        <ele>1529.5999755859375</ele>
        <time>2020-06-23T15:00:58.000Z</time>
        <extensions>
          <ns3:TrackPointExtension>
            <ns3:atemp>23.0</ns3:atemp>
            <ns3:hr>99</ns3:hr>
          </ns3:TrackPointExtension>
        </extensions>
      </trkpt>
      <trkpt lat="47.74951125495135784149169921875" lon="12.2521819174289703369140625">
        <ele>1528.199951171875</ele>
        <time>2020-06-23T15:00:59.000Z</time>
        <extensions>
          <ns3:TrackPointExtension>
            <ns3:atemp>23.0</ns3:atemp>
            <ns3:hr>99</ns3:hr>
          </ns3:TrackPointExtension>
        </extensions>
      </trkpt>
      <trkpt lat="47.749530114233493804931640625" lon="12.2523629665374755859375">
        <ele>1526.800048828125</ele>
        <time>2020-06-23T15:01:00.000Z</time>
        <extensions>
          <ns3:TrackPointExtension>
            <ns3:atemp>23.0</ns3:atemp>
            <ns3:hr>98</ns3:hr>
          </ns3:TrackPointExtension>
        </extensions>
      </trkpt>
      <trkpt lat="47.749530114233493804931640625" lon="12.2523629665374755859375">
        <ele>1525.5999755859375</ele>
        <time>2020-06-23T15:01:01.000Z</time>
        <extensions>
          <ns3:TrackPointExtension>
            <ns3:atemp>23.0</ns3:atemp>
            <ns3:hr>98</ns3:hr>
          </ns3:TrackPointExtension>
        </extensions>
      </trkpt>
      <trkpt lat="47.74953623302280902862548828125" lon="12.2524506412446498870849609375">
        <ele>1524.4000244140625</ele>
        <time>2020-06-23T15:01:02.000Z</time>
        <extensions>
          <ns3:TrackPointExtension>
            <ns3:atemp>23.0</ns3:atemp>
            <ns3:hr>99</ns3:hr>
          </ns3:TrackPointExtension>
        </extensions>
      </trkpt>
      <trkpt lat="47.74954260326921939849853515625" lon="12.2525384835898876190185546875">
        <ele>1523.199951171875</ele>
        <time>2020-06-23T15:01:03.000Z</time>
        <extensions>
          <ns3:TrackPointExtension>
            <ns3:atemp>23.0</ns3:atemp>
            <ns3:hr>99</ns3:hr>
          </ns3:TrackPointExtension>
        </extensions>
      </trkpt>
      <trkpt lat="47.74954997934401035308837890625" lon="12.2526236437261104583740234375">
        <ele>1522.199951171875</ele>
        <time>2020-06-23T15:01:04.000Z</time>
        <extensions>
          <ns3:TrackPointExtension>
            <ns3:atemp>23.0</ns3:atemp>
            <ns3:hr>100</ns3:hr>
          </ns3:TrackPointExtension>
        </extensions>
      </trkpt>
      <trkpt lat="47.7495591156184673309326171875" lon="12.25270167924463748931884765625">
        <ele>1520.800048828125</ele>
        <time>2020-06-23T15:01:05.000Z</time>
        <extensions>
          <ns3:TrackPointExtension>
            <ns3:atemp>23.0</ns3:atemp>
            <ns3:hr>98</ns3:hr>
          </ns3:TrackPointExtension>
        </extensions>
      </trkpt>
      <trkpt lat="47.74957160465419292449951171875" lon="12.25277611054480075836181640625">
        <ele>1518.800048828125</ele>
        <time>2020-06-23T15:01:06.000Z</time>
        <extensions>
          <ns3:TrackPointExtension>
            <ns3:atemp>23.0</ns3:atemp>
            <ns3:hr>98</ns3:hr>
          </ns3:TrackPointExtension>
        </extensions>
      </trkpt>
      <trkpt lat="47.74959105066955089569091796875" lon="12.252841405570507049560546875">
        <ele>1516.5999755859375</ele>
        <time>2020-06-23T15:01:07.000Z</time>
        <extensions>
          <ns3:TrackPointExtension>
            <ns3:atemp>23.0</ns3:atemp>
            <ns3:hr>96</ns3:hr>
          </ns3:TrackPointExtension>
        </extensions>
      </trkpt>
      <trkpt lat="47.7496198005974292755126953125" lon="12.25288541056215763092041015625">
        <ele>1514.5999755859375</ele>
        <time>2020-06-23T15:01:08.000Z</time>
        <extensions>
          <ns3:TrackPointExtension>
            <ns3:atemp>23.0</ns3:atemp>
            <ns3:hr>97</ns3:hr>
          </ns3:TrackPointExtension>
        </extensions>
      </trkpt>
      <trkpt lat="47.749656178057193756103515625" lon="12.25289848633110523223876953125">
        <ele>1512.4000244140625</ele>
        <time>2020-06-23T15:01:09.000Z</time>
        <extensions>
          <ns3:TrackPointExtension>
            <ns3:atemp>23.0</ns3:atemp>
            <ns3:hr>96</ns3:hr>
          </ns3:TrackPointExtension>
        </extensions>
      </trkpt>
      <trkpt lat="47.74969615973532199859619140625" lon="12.25288608111441135406494140625">
        <ele>1510.4000244140625</ele>
        <time>2020-06-23T15:01:10.000Z</time>
        <extensions>
          <ns3:TrackPointExtension>
            <ns3:atemp>23.0</ns3:atemp>
            <ns3:hr>95</ns3:hr>
          </ns3:TrackPointExtension>
        </extensions>
      </trkpt>
      <trkpt lat="47.74973488412797451019287109375" lon="12.25286814384162425994873046875">
        <ele>1508.5999755859375</ele>
        <time>2020-06-23T15:01:11.000Z</time>
        <extensions>
          <ns3:TrackPointExtension>
            <ns3:atemp>23.0</ns3:atemp>
            <ns3:hr>92</ns3:hr>
          </ns3:TrackPointExtension>
        </extensions>
      </trkpt>
      <trkpt lat="47.7497713454067707061767578125" lon="12.2528583370149135589599609375">
        <ele>1506.800048828125</ele>
        <time>2020-06-23T15:01:12.000Z</time>
        <extensions>
          <ns3:TrackPointExtension>
            <ns3:atemp>23.0</ns3:atemp>
            <ns3:hr>91</ns3:hr>
          </ns3:TrackPointExtension>
        </extensions>
      </trkpt>
      <trkpt lat="47.7498092316091060638427734375" lon="12.25285573862493038177490234375">
        <ele>1505.199951171875</ele>
        <time>2020-06-23T15:01:13.000Z</time>
        <extensions>
          <ns3:TrackPointExtension>
            <ns3:atemp>23.0</ns3:atemp>
            <ns3:hr>90</ns3:hr>
          </ns3:TrackPointExtension>
        </extensions>
      </trkpt>
      <trkpt lat="47.74985239841043949127197265625" lon="12.25285221822559833526611328125">
        <ele>1503.800048828125</ele>
        <time>2020-06-23T15:01:14.000Z</time>
        <extensions>
          <ns3:TrackPointExtension>
            <ns3:atemp>23.0</ns3:atemp>
            <ns3:hr>90</ns3:hr>
          </ns3:TrackPointExtension>
        </extensions>
      </trkpt>
      <trkpt lat="47.74990059435367584228515625" lon="12.25284769199788570404052734375">
        <ele>1502.4000244140625</ele>
        <time>2020-06-23T15:01:15.000Z</time>
        <extensions>
          <ns3:TrackPointExtension>
            <ns3:atemp>23.0</ns3:atemp>
            <ns3:hr>90</ns3:hr>
          </ns3:TrackPointExtension>
        </extensions>
      </trkpt>
      <trkpt lat="47.74994543753564357757568359375" lon="12.25283713079988956451416015625">
        <ele>1501</ele>
        <time>2020-06-23T15:01:16.000Z</time>
        <extensions>
          <ns3:TrackPointExtension>
            <ns3:atemp>23.0</ns3:atemp>
            <ns3:hr>90</ns3:hr>
          </ns3:TrackPointExtension>
        </extensions>
      </trkpt>
      <trkpt lat="47.74997946806252002716064453125" lon="12.2528134100139141082763671875">
        <ele>1499.800048828125</ele>
        <time>2020-06-23T15:01:17.000Z</time>
        <extensions>
          <ns3:TrackPointExtension>
            <ns3:atemp>23.0</ns3:atemp>
            <ns3:hr>90</ns3:hr>
          </ns3:TrackPointExtension>
        </extensions>
      </trkpt>
      <trkpt lat="47.750002853572368621826171875" lon="12.25276756100356578826904296875">
        <ele>1498.5999755859375</ele>
        <time>2020-06-23T15:01:18.000Z</time>
        <extensions>
          <ns3:TrackPointExtension>
            <ns3:atemp>23.0</ns3:atemp>
            <ns3:hr>90</ns3:hr>
          </ns3:TrackPointExtension>
        </extensions>
      </trkpt>
      <trkpt lat="47.75001534260809421539306640625" lon="12.25269748829305171966552734375">
        <ele>1497.5999755859375</ele>
        <time>2020-06-23T15:01:19.000Z</time>
        <extensions>
          <ns3:TrackPointExtension>
            <ns3:atemp>23.0</ns3:atemp>
            <ns3:hr>89</ns3:hr>
          </ns3:TrackPointExtension>
        </extensions>
      </trkpt>
      <trkpt lat="47.75001567788422107696533203125" lon="12.25260830484330654144287109375">
        <ele>1496.199951171875</ele>
        <time>2020-06-23T15:01:20.000Z</time>
        <extensions>
          <ns3:TrackPointExtension>
            <ns3:atemp>23.0</ns3:atemp>
            <ns3:hr>89</ns3:hr>
          </ns3:TrackPointExtension>
        </extensions>
      </trkpt>
      <trkpt lat="47.74999924935400485992431640625" lon="12.25250839255750179290771484375">
        <ele>1494.4000244140625</ele>
        <time>2020-06-23T15:01:21.000Z</time>
        <extensions>
          <ns3:TrackPointExtension>
            <ns3:atemp>23.0</ns3:atemp>
            <ns3:hr>89</ns3:hr>
          </ns3:TrackPointExtension>
        </extensions>
      </trkpt>
      <trkpt lat="47.74996857158839702606201171875" lon="12.25240646861493587493896484375">
        <ele>1492.800048828125</ele>
        <time>2020-06-23T15:01:22.000Z</time>
        <extensions>
          <ns3:TrackPointExtension>
            <ns3:atemp>23.0</ns3:atemp>
            <ns3:hr>89</ns3:hr>
          </ns3:TrackPointExtension>
        </extensions>
      </trkpt>
      <trkpt lat="47.7499294281005859375" lon="12.252304293215274810791015625">
        <ele>1491.199951171875</ele>
        <time>2020-06-23T15:01:23.000Z</time>
        <extensions>
          <ns3:TrackPointExtension>
            <ns3:atemp>23.0</ns3:atemp>
            <ns3:hr>89</ns3:hr>
          </ns3:TrackPointExtension>
        </extensions>
      </trkpt>
      <trkpt lat="47.74989095516502857208251953125" lon="12.25220614112913608551025390625">
        <ele>1489.4000244140625</ele>
        <time>2020-06-23T15:01:24.000Z</time>
        <extensions>
          <ns3:TrackPointExtension>
            <ns3:atemp>23.0</ns3:atemp>
            <ns3:hr>89</ns3:hr>
          </ns3:TrackPointExtension>
        </extensions>
      </trkpt>
      <trkpt lat="47.7498583495616912841796875" lon="12.25210924632847309112548828125">
        <ele>1487.800048828125</ele>
        <time>2020-06-23T15:01:25.000Z</time>
        <extensions>
          <ns3:TrackPointExtension>
            <ns3:atemp>23.0</ns3:atemp>
            <ns3:hr>89</ns3:hr>
          </ns3:TrackPointExtension>
        </extensions>
      </trkpt>
      <trkpt lat="47.7498261630535125732421875" lon="12.2520094178617000579833984375">
        <ele>1486.800048828125</ele>
        <time>2020-06-23T15:01:26.000Z</time>
        <extensions>
          <ns3:TrackPointExtension>
            <ns3:atemp>23.0</ns3:atemp>
            <ns3:hr>88</ns3:hr>
          </ns3:TrackPointExtension>
        </extensions>
      </trkpt>
      <trkpt lat="47.749788947403430938720703125" lon="12.2519084997475147247314453125">
        <ele>1485.5999755859375</ele>
        <time>2020-06-23T15:01:27.000Z</time>
        <extensions>
          <ns3:TrackPointExtension>
            <ns3:atemp>23.0</ns3:atemp>
            <ns3:hr>88</ns3:hr>
          </ns3:TrackPointExtension>
        </extensions>
      </trkpt>
      <trkpt lat="47.7497470378875732421875" lon="12.25181034766137599945068359375">
        <ele>1484.4000244140625</ele>
        <time>2020-06-23T15:01:28.000Z</time>
        <extensions>
          <ns3:TrackPointExtension>
            <ns3:atemp>23.0</ns3:atemp>
            <ns3:hr>88</ns3:hr>
          </ns3:TrackPointExtension>
        </extensions>
      </trkpt>
      <trkpt lat="47.7497076429426670074462890625" lon="12.251716218888759613037109375">
        <ele>1482.800048828125</ele>
        <time>2020-06-23T15:01:29.000Z</time>
        <extensions>
          <ns3:TrackPointExtension>
            <ns3:atemp>23.0</ns3:atemp>
            <ns3:hr>88</ns3:hr>
          </ns3:TrackPointExtension>
        </extensions>
      </trkpt>
      <trkpt lat="47.7496778033673763275146484375" lon="12.25162376649677753448486328125">
        <ele>1481</ele>
        <time>2020-06-23T15:01:30.000Z</time>
        <extensions>
          <ns3:TrackPointExtension>
            <ns3:atemp>23.0</ns3:atemp>
            <ns3:hr>88</ns3:hr>
          </ns3:TrackPointExtension>
        </extensions>
      </trkpt>
      <trkpt lat="47.74965877644717693328857421875" lon="12.25153005681931972503662109375">
        <ele>1478.800048828125</ele>
        <time>2020-06-23T15:01:31.000Z</time>
        <extensions>
          <ns3:TrackPointExtension>
            <ns3:atemp>23.0</ns3:atemp>
            <ns3:hr>88</ns3:hr>
          </ns3:TrackPointExtension>
        </extensions>
      </trkpt>
      <trkpt lat="47.74964586831629276275634765625" lon="12.2514330781996250152587890625">
        <ele>1476.5999755859375</ele>
        <time>2020-06-23T15:01:32.000Z</time>
        <extensions>
          <ns3:TrackPointExtension>
            <ns3:atemp>23.0</ns3:atemp>
            <ns3:hr>88</ns3:hr>
          </ns3:TrackPointExtension>
        </extensions>
      </trkpt>
      <trkpt lat="47.74963497184216976165771484375" lon="12.2513328306376934051513671875">
        <ele>1474.4000244140625</ele>
        <time>2020-06-23T15:01:33.000Z</time>
        <extensions>
          <ns3:TrackPointExtension>
            <ns3:atemp>23.0</ns3:atemp>
            <ns3:hr>88</ns3:hr>
          </ns3:TrackPointExtension>
        </extensions>
      </trkpt>
      <trkpt lat="47.74962340481579303741455078125" lon="12.2512345947325229644775390625">
        <ele>1472.4000244140625</ele>
        <time>2020-06-23T15:01:34.000Z</time>
        <extensions>
          <ns3:TrackPointExtension>
            <ns3:atemp>23.0</ns3:atemp>
            <ns3:hr>87</ns3:hr>
          </ns3:TrackPointExtension>
        </extensions>
      </trkpt>
      <trkpt lat="47.7496154420077800750732421875" lon="12.25114700384438037872314453125">
        <ele>1470.800048828125</ele>
        <time>2020-06-23T15:01:35.000Z</time>
        <extensions>
          <ns3:TrackPointExtension>
            <ns3:atemp>23.0</ns3:atemp>
            <ns3:hr>86</ns3:hr>
          </ns3:TrackPointExtension>
        </extensions>
      </trkpt>
      <trkpt lat="47.7496167831122875213623046875" lon="12.2510682977735996246337890625">
        <ele>1469.199951171875</ele>
        <time>2020-06-23T15:01:36.000Z</time>
        <extensions>
          <ns3:TrackPointExtension>
            <ns3:atemp>23.0</ns3:atemp>
            <ns3:hr>88</ns3:hr>
          </ns3:TrackPointExtension>
        </extensions>
      </trkpt>
      <trkpt lat="47.7496288530528545379638671875" lon="12.2509910166263580322265625">
        <ele>1467.5999755859375</ele>
        <time>2020-06-23T15:01:37.000Z</time>
        <extensions>
          <ns3:TrackPointExtension>
            <ns3:atemp>23.0</ns3:atemp>
            <ns3:hr>91</ns3:hr>
          </ns3:TrackPointExtension>
        </extensions>
      </trkpt>
      <trkpt lat="47.7496466226875782012939453125" lon="12.2509120590984821319580078125">
        <ele>1466</ele>
        <time>2020-06-23T15:01:38.000Z</time>
        <extensions>
          <ns3:TrackPointExtension>
            <ns3:atemp>23.0</ns3:atemp>
            <ns3:hr>92</ns3:hr>
          </ns3:TrackPointExtension>
        </extensions>
      </trkpt>
      <trkpt lat="47.74966548196971416473388671875" lon="12.25083704106509685516357421875">
        <ele>1464.5999755859375</ele>
        <time>2020-06-23T15:01:39.000Z</time>
        <extensions>
          <ns3:TrackPointExtension>
            <ns3:atemp>23.0</ns3:atemp>
            <ns3:hr>92</ns3:hr>
          </ns3:TrackPointExtension>
        </extensions>
      </trkpt>
      <trkpt lat="47.7496831677854061126708984375" lon="12.25077166222035884857177734375">
        <ele>1463.4000244140625</ele>
        <time>2020-06-23T15:01:40.000Z</time>
        <extensions>
          <ns3:TrackPointExtension>
            <ns3:atemp>23.0</ns3:atemp>
            <ns3:hr>93</ns3:hr>
          </ns3:TrackPointExtension>
        </extensions>
      </trkpt>
      <trkpt lat="47.74970521219074726104736328125" lon="12.25072237662971019744873046875">
        <ele>1462</ele>
        <time>2020-06-23T15:01:41.000Z</time>
        <extensions>
          <ns3:TrackPointExtension>
            <ns3:atemp>23.0</ns3:atemp>
            <ns3:hr>93</ns3:hr>
          </ns3:TrackPointExtension>
        </extensions>
      </trkpt>
      <trkpt lat="47.749734632670879364013671875" lon="12.2506894357502460479736328125">
        <ele>1461</ele>
        <time>2020-06-23T15:01:42.000Z</time>
        <extensions>
          <ns3:TrackPointExtension>
            <ns3:atemp>23.0</ns3:atemp>
            <ns3:hr>93</ns3:hr>
          </ns3:TrackPointExtension>
        </extensions>
      </trkpt>
      <trkpt lat="47.74977385997772216796875" lon="12.2506793774664402008056640625">
        <ele>1459.800048828125</ele>
        <time>2020-06-23T15:01:43.000Z</time>
        <extensions>
          <ns3:TrackPointExtension>
            <ns3:atemp>23.0</ns3:atemp>
            <ns3:hr>93</ns3:hr>
          </ns3:TrackPointExtension>
        </extensions>
      </trkpt>
      <trkpt lat="47.7498236484825611114501953125" lon="12.25070594809949398040771484375">
        <ele>1458.800048828125</ele>
        <time>2020-06-23T15:01:44.000Z</time>
        <extensions>
          <ns3:TrackPointExtension>
            <ns3:atemp>23.0</ns3:atemp>
            <ns3:hr>93</ns3:hr>
          </ns3:TrackPointExtension>
        </extensions>
      </trkpt>
      <trkpt lat="47.7498766221106052398681640625" lon="12.25077099166810512542724609375">
        <ele>1457.4000244140625</ele>
        <time>2020-06-23T15:01:45.000Z</time>
        <extensions>
          <ns3:TrackPointExtension>
            <ns3:atemp>23.0</ns3:atemp>
            <ns3:hr>92</ns3:hr>
          </ns3:TrackPointExtension>
        </extensions>
      </trkpt>
      <trkpt lat="47.74992297403514385223388671875" lon="12.25086268968880176544189453125">
        <ele>1455.5999755859375</ele>
        <time>2020-06-23T15:01:46.000Z</time>
        <extensions>
          <ns3:TrackPointExtension>
            <ns3:atemp>23.0</ns3:atemp>
            <ns3:hr>92</ns3:hr>
          </ns3:TrackPointExtension>
        </extensions>
      </trkpt>
      <trkpt lat="47.74995834566652774810791015625" lon="12.25096830166876316070556640625">
        <ele>1453.199951171875</ele>
        <time>2020-06-23T15:01:47.000Z</time>
        <extensions>
          <ns3:TrackPointExtension>
            <ns3:atemp>23.0</ns3:atemp>
            <ns3:hr>94</ns3:hr>
          </ns3:TrackPointExtension>
        </extensions>
      </trkpt>
      <trkpt lat="47.74998634122312068939208984375" lon="12.25108246318995952606201171875">
        <ele>1450.800048828125</ele>
        <time>2020-06-23T15:01:48.000Z</time>
        <extensions>
          <ns3:TrackPointExtension>
            <ns3:atemp>23.0</ns3:atemp>
            <ns3:hr>93</ns3:hr>
          </ns3:TrackPointExtension>
        </extensions>
      </trkpt>
      <trkpt lat="47.75001299567520618438720703125" lon="12.2512000612914562225341796875">
        <ele>1449</ele>
        <time>2020-06-23T15:01:49.000Z</time>
        <extensions>
          <ns3:TrackPointExtension>
            <ns3:atemp>23.0</ns3:atemp>
            <ns3:hr>93</ns3:hr>
          </ns3:TrackPointExtension>
        </extensions>
      </trkpt>
      <trkpt lat="47.75004518218338489532470703125" lon="12.25132352672517299652099609375">
        <ele>1447.5999755859375</ele>
        <time>2020-06-23T15:01:50.000Z</time>
        <extensions>
          <ns3:TrackPointExtension>
            <ns3:atemp>23.0</ns3:atemp>
            <ns3:hr>91</ns3:hr>
          </ns3:TrackPointExtension>
        </extensions>
      </trkpt>
      <trkpt lat="47.7500801347196102142333984375" lon="12.25144607014954090118408203125">
        <ele>1446.199951171875</ele>
        <time>2020-06-23T15:01:51.000Z</time>
        <extensions>
          <ns3:TrackPointExtension>
            <ns3:atemp>23.0</ns3:atemp>
            <ns3:hr>92</ns3:hr>
          </ns3:TrackPointExtension>
        </extensions>
      </trkpt>
      <trkpt lat="47.75011357851326465606689453125" lon="12.25156165659427642822265625">
        <ele>1444.800048828125</ele>
        <time>2020-06-23T15:01:52.000Z</time>
        <extensions>
          <ns3:TrackPointExtension>
            <ns3:atemp>23.0</ns3:atemp>
            <ns3:hr>94</ns3:hr>
          </ns3:TrackPointExtension>
        </extensions>
      </trkpt>
      <trkpt lat="47.75014710612595081329345703125" lon="12.25167137570679187774658203125">
        <ele>1443.5999755859375</ele>
        <time>2020-06-23T15:01:53.000Z</time>
        <extensions>
          <ns3:TrackPointExtension>
            <ns3:atemp>23.0</ns3:atemp>
            <ns3:hr>94</ns3:hr>
          </ns3:TrackPointExtension>
        </extensions>
      </trkpt>
      <trkpt lat="47.75023092515766620635986328125" lon="12.25188930518925189971923828125">
        <ele>1442.4000244140625</ele>
        <time>2020-06-23T15:01:55.000Z</time>
        <extensions>
          <ns3:TrackPointExtension>
            <ns3:atemp>23.0</ns3:atemp>
            <ns3:hr>95</ns3:hr>
          </ns3:TrackPointExtension>
        </extensions>
      </trkpt>
      <trkpt lat="47.75028138421475887298583984375" lon="12.25200229324400424957275390625">
        <ele>1442</ele>
        <time>2020-06-23T15:01:56.000Z</time>
        <extensions>
          <ns3:TrackPointExtension>
            <ns3:atemp>23.0</ns3:atemp>
            <ns3:hr>93</ns3:hr>
          </ns3:TrackPointExtension>
        </extensions>
      </trkpt>
      <trkpt lat="47.750415243208408355712890625" lon="12.2523088194429874420166015625">
        <ele>1441.199951171875</ele>
        <time>2020-06-23T15:01:59.000Z</time>
        <extensions>
          <ns3:TrackPointExtension>
            <ns3:atemp>23.0</ns3:atemp>
            <ns3:hr>92</ns3:hr>
          </ns3:TrackPointExtension>
        </extensions>
      </trkpt>
      <trkpt lat="47.75044918991625308990478515625" lon="12.25240395404398441314697265625">
        <ele>1441</ele>
        <time>2020-06-23T15:02:00.000Z</time>
        <extensions>
          <ns3:TrackPointExtension>
            <ns3:atemp>23.0</ns3:atemp>
            <ns3:hr>92</ns3:hr>
          </ns3:TrackPointExtension>
        </extensions>
      </trkpt>
      <trkpt lat="47.75065102614462375640869140625" lon="12.25289781577885150909423828125">
        <ele>1441.199951171875</ele>
        <time>2020-06-23T15:02:05.000Z</time>
        <extensions>
          <ns3:TrackPointExtension>
            <ns3:atemp>24.0</ns3:atemp>
            <ns3:hr>92</ns3:hr>
          </ns3:TrackPointExtension>
        </extensions>
      </trkpt>
      <trkpt lat="47.75068656541407108306884765625" lon="12.25297786295413970947265625">
        <ele>1442</ele>
        <time>2020-06-23T15:02:06.000Z</time>
        <extensions>
          <ns3:TrackPointExtension>
            <ns3:atemp>24.0</ns3:atemp>
            <ns3:hr>93</ns3:hr>
          </ns3:TrackPointExtension>
        </extensions>
      </trkpt>
      <trkpt lat="47.750726379454135894775390625" lon="12.2530497796833515167236328125">
        <ele>1442.800048828125</ele>
        <time>2020-06-23T15:02:07.000Z</time>
        <extensions>
          <ns3:TrackPointExtension>
            <ns3:atemp>24.0</ns3:atemp>
            <ns3:hr>93</ns3:hr>
          </ns3:TrackPointExtension>
        </extensions>
      </trkpt>
      <trkpt lat="47.7507754974067211151123046875" lon="12.253111638128757476806640625">
        <ele>1443.4000244140625</ele>
        <time>2020-06-23T15:02:08.000Z</time>
        <extensions>
          <ns3:TrackPointExtension>
            <ns3:atemp>24.0</ns3:atemp>
            <ns3:hr>93</ns3:hr>
          </ns3:TrackPointExtension>
        </extensions>
      </trkpt>
      <trkpt lat="47.75083090178668498992919921875" lon="12.25316989235579967498779296875">
        <ele>1443.800048828125</ele>
        <time>2020-06-23T15:02:09.000Z</time>
        <extensions>
          <ns3:TrackPointExtension>
            <ns3:atemp>24.0</ns3:atemp>
            <ns3:hr>93</ns3:hr>
          </ns3:TrackPointExtension>
        </extensions>
      </trkpt>
      <trkpt lat="47.75088454596698284149169921875" lon="12.25322152487933635711669921875">
        <ele>1444.199951171875</ele>
        <time>2020-06-23T15:02:10.000Z</time>
        <extensions>
          <ns3:TrackPointExtension>
            <ns3:atemp>24.0</ns3:atemp>
            <ns3:hr>96</ns3:hr>
          </ns3:TrackPointExtension>
        </extensions>
      </trkpt>
      <trkpt lat="47.75096786208450794219970703125" lon="12.25331054069101810455322265625">
        <ele>1445.800048828125</ele>
        <time>2020-06-23T15:02:12.000Z</time>
        <extensions>
          <ns3:TrackPointExtension>
            <ns3:atemp>24.0</ns3:atemp>
            <ns3:hr>99</ns3:hr>
          </ns3:TrackPointExtension>
        </extensions>
      </trkpt>
      <trkpt lat="47.75100373663008213043212890625" lon="12.25335312075912952423095703125">
        <ele>1446.5999755859375</ele>
        <time>2020-06-23T15:02:13.000Z</time>
        <extensions>
          <ns3:TrackPointExtension>
            <ns3:atemp>24.0</ns3:atemp>
            <ns3:hr>99</ns3:hr>
          </ns3:TrackPointExtension>
        </extensions>
      </trkpt>
      <trkpt lat="47.75104396976530551910400390625" lon="12.25339788012206554412841796875">
        <ele>1447.4000244140625</ele>
        <time>2020-06-23T15:02:14.000Z</time>
        <extensions>
          <ns3:TrackPointExtension>
            <ns3:atemp>24.0</ns3:atemp>
            <ns3:hr>99</ns3:hr>
          </ns3:TrackPointExtension>
        </extensions>
      </trkpt>
      <trkpt lat="47.75120087899267673492431640625" lon="12.25352905690670013427734375">
        <ele>1447.800048828125</ele>
        <time>2020-06-23T15:02:17.000Z</time>
        <extensions>
          <ns3:TrackPointExtension>
            <ns3:atemp>24.0</ns3:atemp>
            <ns3:hr>99</ns3:hr>
          </ns3:TrackPointExtension>
        </extensions>
      </trkpt>
      <trkpt lat="47.751404978334903717041015625" lon="12.2536821104586124420166015625">
        <ele>1446.5999755859375</ele>
        <time>2020-06-23T15:02:21.000Z</time>
        <extensions>
          <ns3:TrackPointExtension>
            <ns3:atemp>24.0</ns3:atemp>
            <ns3:hr>96</ns3:hr>
          </ns3:TrackPointExtension>
        </extensions>
      </trkpt>
      <trkpt lat="47.7514648251235485076904296875" lon="12.25372754037380218505859375">
        <ele>1446</ele>
        <time>2020-06-23T15:02:22.000Z</time>
        <extensions>
          <ns3:TrackPointExtension>
            <ns3:atemp>24.0</ns3:atemp>
            <ns3:hr>96</ns3:hr>
          </ns3:TrackPointExtension>
        </extensions>
      </trkpt>
      <trkpt lat="47.7515888772904872894287109375" lon="12.2537939250469207763671875">
        <ele>1444.800048828125</ele>
        <time>2020-06-23T15:02:24.000Z</time>
        <extensions>
          <ns3:TrackPointExtension>
            <ns3:atemp>24.0</ns3:atemp>
            <ns3:hr>95</ns3:hr>
          </ns3:TrackPointExtension>
        </extensions>
      </trkpt>
      <trkpt lat="47.75168954394757747650146484375" lon="12.2538393549621105194091796875">
        <ele>1444.4000244140625</ele>
        <time>2020-06-23T15:02:26.000Z</time>
        <extensions>
          <ns3:TrackPointExtension>
            <ns3:atemp>24.0</ns3:atemp>
            <ns3:hr>94</ns3:hr>
          </ns3:TrackPointExtension>
        </extensions>
      </trkpt>
      <trkpt lat="47.751824744045734405517578125" lon="12.2539583779871463775634765625">
        <ele>1444.4000244140625</ele>
        <time>2020-06-23T15:02:29.000Z</time>
        <extensions>
          <ns3:TrackPointExtension>
            <ns3:atemp>24.0</ns3:atemp>
            <ns3:hr>95</ns3:hr>
          </ns3:TrackPointExtension>
        </extensions>
      </trkpt>
      <trkpt lat="47.751875706017017364501953125" lon="12.25399316288530826568603515625">
        <ele>1444.5999755859375</ele>
        <time>2020-06-23T15:02:30.000Z</time>
        <extensions>
          <ns3:TrackPointExtension>
            <ns3:atemp>24.0</ns3:atemp>
            <ns3:hr>96</ns3:hr>
          </ns3:TrackPointExtension>
        </extensions>
      </trkpt>
      <trkpt lat="47.75191895663738250732421875" lon="12.25404697470366954803466796875">
        <ele>1444.5999755859375</ele>
        <time>2020-06-23T15:02:31.000Z</time>
        <extensions>
          <ns3:TrackPointExtension>
            <ns3:atemp>24.0</ns3:atemp>
            <ns3:hr>96</ns3:hr>
          </ns3:TrackPointExtension>
        </extensions>
      </trkpt>
      <trkpt lat="47.75198207236826419830322265625" lon="12.2542083263397216796875">
        <ele>1444.5999755859375</ele>
        <time>2020-06-23T15:02:33.000Z</time>
        <extensions>
          <ns3:TrackPointExtension>
            <ns3:atemp>24.0</ns3:atemp>
            <ns3:hr>96</ns3:hr>
          </ns3:TrackPointExtension>
        </extensions>
      </trkpt>
      <trkpt lat="47.752074189484119415283203125" lon="12.25433765910565853118896484375">
        <ele>1445.5999755859375</ele>
        <time>2020-06-23T15:02:35.000Z</time>
        <extensions>
          <ns3:TrackPointExtension>
            <ns3:atemp>24.0</ns3:atemp>
            <ns3:hr>95</ns3:hr>
          </ns3:TrackPointExtension>
        </extensions>
      </trkpt>
      <trkpt lat="47.7521189488470554351806640625" lon="12.2543895430862903594970703125">
        <ele>1446.800048828125</ele>
        <time>2020-06-23T15:02:36.000Z</time>
        <extensions>
          <ns3:TrackPointExtension>
            <ns3:atemp>24.0</ns3:atemp>
            <ns3:hr>97</ns3:hr>
          </ns3:TrackPointExtension>
        </extensions>
      </trkpt>
      <trkpt lat="47.75214920751750469207763671875" lon="12.2544529102742671966552734375">
        <ele>1448.4000244140625</ele>
        <time>2020-06-23T15:02:37.000Z</time>
        <extensions>
          <ns3:TrackPointExtension>
            <ns3:atemp>24.0</ns3:atemp>
            <ns3:hr>96</ns3:hr>
          </ns3:TrackPointExtension>
        </extensions>
      </trkpt>
      <trkpt lat="47.7521709166467189788818359375" lon="12.2545310296118259429931640625">
        <ele>1450.4000244140625</ele>
        <time>2020-06-23T15:02:38.000Z</time>
        <extensions>
          <ns3:TrackPointExtension>
            <ns3:atemp>24.0</ns3:atemp>
            <ns3:hr>97</ns3:hr>
          </ns3:TrackPointExtension>
        </extensions>
      </trkpt>
      <trkpt lat="47.7521932125091552734375" lon="12.25461526773869991302490234375">
        <ele>1453</ele>
        <time>2020-06-23T15:02:39.000Z</time>
        <extensions>
          <ns3:TrackPointExtension>
            <ns3:atemp>24.0</ns3:atemp>
            <ns3:hr>97</ns3:hr>
          </ns3:TrackPointExtension>
        </extensions>
      </trkpt>
      <trkpt lat="47.7522198669612407684326171875" lon="12.25469774566590785980224609375">
        <ele>1455.4000244140625</ele>
        <time>2020-06-23T15:02:40.000Z</time>
        <extensions>
          <ns3:TrackPointExtension>
            <ns3:atemp>24.0</ns3:atemp>
            <ns3:hr>97</ns3:hr>
          </ns3:TrackPointExtension>
        </extensions>
      </trkpt>
      <trkpt lat="47.75224694050848484039306640625" lon="12.2547836601734161376953125">
        <ele>1457.4000244140625</ele>
        <time>2020-06-23T15:02:41.000Z</time>
        <extensions>
          <ns3:TrackPointExtension>
            <ns3:atemp>24.0</ns3:atemp>
            <ns3:hr>97</ns3:hr>
          </ns3:TrackPointExtension>
        </extensions>
      </trkpt>
      <trkpt lat="47.7522691525518894195556640625" lon="12.2548834048211574554443359375">
        <ele>1459.5999755859375</ele>
        <time>2020-06-23T15:02:42.000Z</time>
        <extensions>
          <ns3:TrackPointExtension>
            <ns3:atemp>24.0</ns3:atemp>
            <ns3:hr>97</ns3:hr>
          </ns3:TrackPointExtension>
        </extensions>
      </trkpt>
      <trkpt lat="47.752288095653057098388671875" lon="12.25499060936272144317626953125">
        <ele>1462</ele>
        <time>2020-06-23T15:02:43.000Z</time>
        <extensions>
          <ns3:TrackPointExtension>
            <ns3:atemp>24.0</ns3:atemp>
            <ns3:hr>97</ns3:hr>
          </ns3:TrackPointExtension>
        </extensions>
      </trkpt>
      <trkpt lat="47.75231047533452510833740234375" lon="12.25509278476238250732421875">
        <ele>1464</ele>
        <time>2020-06-23T15:02:44.000Z</time>
        <extensions>
          <ns3:TrackPointExtension>
            <ns3:atemp>24.0</ns3:atemp>
            <ns3:hr>97</ns3:hr>
          </ns3:TrackPointExtension>
        </extensions>
      </trkpt>
      <trkpt lat="47.7523372136056423187255859375" lon="12.25518791936337947845458984375">
        <ele>1465.800048828125</ele>
        <time>2020-06-23T15:02:45.000Z</time>
        <extensions>
          <ns3:TrackPointExtension>
            <ns3:atemp>24.0</ns3:atemp>
            <ns3:hr>97</ns3:hr>
          </ns3:TrackPointExtension>
        </extensions>
      </trkpt>
      <trkpt lat="47.752363197505474090576171875" lon="12.2552860714495182037353515625">
        <ele>1467.4000244140625</ele>
        <time>2020-06-23T15:02:46.000Z</time>
        <extensions>
          <ns3:TrackPointExtension>
            <ns3:atemp>24.0</ns3:atemp>
            <ns3:hr>97</ns3:hr>
          </ns3:TrackPointExtension>
        </extensions>
      </trkpt>
      <trkpt lat="47.75238096714019775390625" lon="12.255394198000431060791015625">
        <ele>1469</ele>
        <time>2020-06-23T15:02:47.000Z</time>
        <extensions>
          <ns3:TrackPointExtension>
            <ns3:atemp>24.0</ns3:atemp>
            <ns3:hr>98</ns3:hr>
          </ns3:TrackPointExtension>
        </extensions>
      </trkpt>
      <trkpt lat="47.75238909758627414703369140625" lon="12.255506180226802825927734375">
        <ele>1470.5999755859375</ele>
        <time>2020-06-23T15:02:48.000Z</time>
        <extensions>
          <ns3:TrackPointExtension>
            <ns3:atemp>24.0</ns3:atemp>
            <ns3:hr>98</ns3:hr>
          </ns3:TrackPointExtension>
        </extensions>
      </trkpt>
      <trkpt lat="47.752396725118160247802734375" lon="12.25561154074966907501220703125">
        <ele>1472</ele>
        <time>2020-06-23T15:02:49.000Z</time>
        <extensions>
          <ns3:TrackPointExtension>
            <ns3:atemp>24.0</ns3:atemp>
            <ns3:hr>99</ns3:hr>
          </ns3:TrackPointExtension>
        </extensions>
      </trkpt>
      <trkpt lat="47.7524126507341861724853515625" lon="12.25570256821811199188232421875">
        <ele>1473</ele>
        <time>2020-06-23T15:02:50.000Z</time>
        <extensions>
          <ns3:TrackPointExtension>
            <ns3:atemp>24.0</ns3:atemp>
            <ns3:hr>99</ns3:hr>
          </ns3:TrackPointExtension>
        </extensions>
      </trkpt>
      <trkpt lat="47.7524341084063053131103515625" lon="12.25578202866017818450927734375">
        <ele>1474.199951171875</ele>
        <time>2020-06-23T15:02:51.000Z</time>
        <extensions>
          <ns3:TrackPointExtension>
            <ns3:atemp>24.0</ns3:atemp>
            <ns3:hr>99</ns3:hr>
          </ns3:TrackPointExtension>
        </extensions>
      </trkpt>
      <trkpt lat="47.75245162658393383026123046875" lon="12.25585780106484889984130859375">
        <ele>1475.5999755859375</ele>
        <time>2020-06-23T15:02:52.000Z</time>
        <extensions>
          <ns3:TrackPointExtension>
            <ns3:atemp>24.0</ns3:atemp>
            <ns3:hr>100</ns3:hr>
          </ns3:TrackPointExtension>
        </extensions>
      </trkpt>
      <trkpt lat="47.7524619363248348236083984375" lon="12.255930639803409576416015625">
        <ele>1476.800048828125</ele>
        <time>2020-06-23T15:02:53.000Z</time>
        <extensions>
          <ns3:TrackPointExtension>
            <ns3:atemp>24.0</ns3:atemp>
            <ns3:hr>101</ns3:hr>
          </ns3:TrackPointExtension>
        </extensions>
      </trkpt>
      <trkpt lat="47.752473168075084686279296875" lon="12.255993671715259552001953125">
        <ele>1478.4000244140625</ele>
        <time>2020-06-23T15:02:54.000Z</time>
        <extensions>
          <ns3:TrackPointExtension>
            <ns3:atemp>24.0</ns3:atemp>
            <ns3:hr>101</ns3:hr>
          </ns3:TrackPointExtension>
        </extensions>
      </trkpt>
      <trkpt lat="47.7524924464523792266845703125" lon="12.25603960454463958740234375">
        <ele>1479.800048828125</ele>
        <time>2020-06-23T15:02:55.000Z</time>
        <extensions>
          <ns3:TrackPointExtension>
            <ns3:atemp>24.0</ns3:atemp>
            <ns3:hr>101</ns3:hr>
          </ns3:TrackPointExtension>
        </extensions>
      </trkpt>
      <trkpt lat="47.7525175921618938446044921875" lon="12.25607355125248432159423828125">
        <ele>1480.800048828125</ele>
        <time>2020-06-23T15:02:56.000Z</time>
        <extensions>
          <ns3:TrackPointExtension>
            <ns3:atemp>24.0</ns3:atemp>
            <ns3:hr>101</ns3:hr>
          </ns3:TrackPointExtension>
        </extensions>
      </trkpt>
      <trkpt lat="47.7525571547448635101318359375" lon="12.25615049712359905242919921875">
        <ele>1483</ele>
        <time>2020-06-23T15:02:58.000Z</time>
        <extensions>
          <ns3:TrackPointExtension>
            <ns3:atemp>24.0</ns3:atemp>
            <ns3:hr>101</ns3:hr>
          </ns3:TrackPointExtension>
        </extensions>
      </trkpt>
      <trkpt lat="47.7526054345071315765380859375" lon="12.2562305442988872528076171875">
        <ele>1484</ele>
        <time>2020-06-23T15:03:00.000Z</time>
        <extensions>
          <ns3:TrackPointExtension>
            <ns3:atemp>24.0</ns3:atemp>
            <ns3:hr>101</ns3:hr>
          </ns3:TrackPointExtension>
        </extensions>
      </trkpt>
      <trkpt lat="47.752637453377246856689453125" lon="12.2562811709940433502197265625">
        <ele>1484.199951171875</ele>
        <time>2020-06-23T15:03:01.000Z</time>
        <extensions>
          <ns3:TrackPointExtension>
            <ns3:atemp>24.0</ns3:atemp>
            <ns3:hr>101</ns3:hr>
          </ns3:TrackPointExtension>
        </extensions>
      </trkpt>
      <trkpt lat="47.75270693935453891754150390625" lon="12.2564665786921977996826171875">
        <ele>1484</ele>
        <time>2020-06-23T15:03:04.000Z</time>
        <extensions>
          <ns3:TrackPointExtension>
            <ns3:atemp>24.0</ns3:atemp>
            <ns3:hr>99</ns3:hr>
          </ns3:TrackPointExtension>
        </extensions>
      </trkpt>
      <trkpt lat="47.75281791575253009796142578125" lon="12.2566556744277477264404296875">
        <ele>1485</ele>
        <time>2020-06-23T15:03:08.000Z</time>
        <extensions>
          <ns3:TrackPointExtension>
            <ns3:atemp>24.0</ns3:atemp>
            <ns3:hr>100</ns3:hr>
          </ns3:TrackPointExtension>
        </extensions>
      </trkpt>
      <trkpt lat="47.75284834206104278564453125" lon="12.25668425671756267547607421875">
        <ele>1485.199951171875</ele>
        <time>2020-06-23T15:03:09.000Z</time>
        <extensions>
          <ns3:TrackPointExtension>
            <ns3:atemp>24.0</ns3:atemp>
            <ns3:hr>100</ns3:hr>
          </ns3:TrackPointExtension>
        </extensions>
      </trkpt>
      <trkpt lat="47.7528890781104564666748046875" lon="12.25672935135662555694580078125">
        <ele>1485.4000244140625</ele>
        <time>2020-06-23T15:03:10.000Z</time>
        <extensions>
          <ns3:TrackPointExtension>
            <ns3:atemp>24.0</ns3:atemp>
            <ns3:hr>99</ns3:hr>
          </ns3:TrackPointExtension>
        </extensions>
      </trkpt>
      <trkpt lat="47.75293123908340930938720703125" lon="12.25679506547749042510986328125">
        <ele>1485.800048828125</ele>
        <time>2020-06-23T15:03:11.000Z</time>
        <extensions>
          <ns3:TrackPointExtension>
            <ns3:atemp>24.0</ns3:atemp>
            <ns3:hr>99</ns3:hr>
          </ns3:TrackPointExtension>
        </extensions>
      </trkpt>
      <trkpt lat="47.7529675327241420745849609375" lon="12.25686513818800449371337890625">
        <ele>1486.199951171875</ele>
        <time>2020-06-23T15:03:12.000Z</time>
        <extensions>
          <ns3:TrackPointExtension>
            <ns3:atemp>24.0</ns3:atemp>
            <ns3:hr>99</ns3:hr>
          </ns3:TrackPointExtension>
        </extensions>
      </trkpt>
      <trkpt lat="47.75300122797489166259765625" lon="12.2569252364337444305419921875">
        <ele>1486.5999755859375</ele>
        <time>2020-06-23T15:03:13.000Z</time>
        <extensions>
          <ns3:TrackPointExtension>
            <ns3:atemp>24.0</ns3:atemp>
            <ns3:hr>99</ns3:hr>
          </ns3:TrackPointExtension>
        </extensions>
      </trkpt>
      <trkpt lat="47.7530979551374912261962890625" lon="12.25705540738999843597412109375">
        <ele>1487.4000244140625</ele>
        <time>2020-06-23T15:03:15.000Z</time>
        <extensions>
          <ns3:TrackPointExtension>
            <ns3:atemp>24.0</ns3:atemp>
            <ns3:hr>99</ns3:hr>
          </ns3:TrackPointExtension>
        </extensions>
      </trkpt>
      <trkpt lat="47.7531579695641994476318359375" lon="12.25715163163840770721435546875">
        <ele>1487.800048828125</ele>
        <time>2020-06-23T15:03:16.000Z</time>
        <extensions>
          <ns3:TrackPointExtension>
            <ns3:atemp>24.0</ns3:atemp>
            <ns3:hr>98</ns3:hr>
          </ns3:TrackPointExtension>
        </extensions>
      </trkpt>
      <trkpt lat="47.75324606336653232574462890625" lon="12.257325388491153717041015625">
        <ele>1489.199951171875</ele>
        <time>2020-06-23T15:03:18.000Z</time>
        <extensions>
          <ns3:TrackPointExtension>
            <ns3:atemp>24.0</ns3:atemp>
            <ns3:hr>98</ns3:hr>
          </ns3:TrackPointExtension>
        </extensions>
      </trkpt>
      <trkpt lat="47.753276489675045013427734375" lon="12.25736989639699459075927734375">
        <ele>1491.199951171875</ele>
        <time>2020-06-23T15:03:19.000Z</time>
        <extensions>
          <ns3:TrackPointExtension>
            <ns3:atemp>24.0</ns3:atemp>
            <ns3:hr>98</ns3:hr>
          </ns3:TrackPointExtension>
        </extensions>
      </trkpt>
      <trkpt lat="47.75331211276352405548095703125" lon="12.25740241818130016326904296875">
        <ele>1493.4000244140625</ele>
        <time>2020-06-23T15:03:20.000Z</time>
        <extensions>
          <ns3:TrackPointExtension>
            <ns3:atemp>24.0</ns3:atemp>
            <ns3:hr>98</ns3:hr>
          </ns3:TrackPointExtension>
        </extensions>
      </trkpt>
      <trkpt lat="47.75336022488772869110107421875" lon="12.25744164548814296722412109375">
        <ele>1495.4000244140625</ele>
        <time>2020-06-23T15:03:21.000Z</time>
        <extensions>
          <ns3:TrackPointExtension>
            <ns3:atemp>24.0</ns3:atemp>
            <ns3:hr>98</ns3:hr>
          </ns3:TrackPointExtension>
        </extensions>
      </trkpt>
      <trkpt lat="47.75341806001961231231689453125" lon="12.25748891942203044891357421875">
        <ele>1497.199951171875</ele>
        <time>2020-06-23T15:03:22.000Z</time>
        <extensions>
          <ns3:TrackPointExtension>
            <ns3:atemp>24.0</ns3:atemp>
            <ns3:hr>98</ns3:hr>
          </ns3:TrackPointExtension>
        </extensions>
      </trkpt>
      <trkpt lat="47.75347539223730564117431640625" lon="12.25751976482570171356201171875">
        <ele>1499.199951171875</ele>
        <time>2020-06-23T15:03:23.000Z</time>
        <extensions>
          <ns3:TrackPointExtension>
            <ns3:atemp>24.0</ns3:atemp>
            <ns3:hr>98</ns3:hr>
          </ns3:TrackPointExtension>
        </extensions>
      </trkpt>
      <trkpt lat="47.7535249292850494384765625" lon="12.257519848644733428955078125">
        <ele>1501</ele>
        <time>2020-06-23T15:03:24.000Z</time>
        <extensions>
          <ns3:TrackPointExtension>
            <ns3:atemp>24.0</ns3:atemp>
            <ns3:hr>96</ns3:hr>
          </ns3:TrackPointExtension>
        </extensions>
      </trkpt>
      <trkpt lat="47.75357094593346118927001953125" lon="12.25749604403972625732421875">
        <ele>1502.4000244140625</ele>
        <time>2020-06-23T15:03:25.000Z</time>
        <extensions>
          <ns3:TrackPointExtension>
            <ns3:atemp>24.0</ns3:atemp>
            <ns3:hr>97</ns3:hr>
          </ns3:TrackPointExtension>
        </extensions>
      </trkpt>
      <trkpt lat="47.7536804974079132080078125" lon="12.25743695162236690521240234375">
        <ele>1503.5999755859375</ele>
        <time>2020-06-23T15:03:27.000Z</time>
        <extensions>
          <ns3:TrackPointExtension>
            <ns3:atemp>24.0</ns3:atemp>
            <ns3:hr>98</ns3:hr>
          </ns3:TrackPointExtension>
        </extensions>
      </trkpt>
      <trkpt lat="47.753801532089710235595703125" lon="12.257346846163272857666015625">
        <ele>1504</ele>
        <time>2020-06-23T15:03:29.000Z</time>
        <extensions>
          <ns3:TrackPointExtension>
            <ns3:atemp>24.0</ns3:atemp>
            <ns3:hr>98</ns3:hr>
          </ns3:TrackPointExtension>
        </extensions>
      </trkpt>
      <trkpt lat="47.7538415975868701934814453125" lon="12.25726344622671604156494140625">
        <ele>1504</ele>
        <time>2020-06-23T15:03:30.000Z</time>
        <extensions>
          <ns3:TrackPointExtension>
            <ns3:atemp>24.0</ns3:atemp>
            <ns3:hr>98</ns3:hr>
          </ns3:TrackPointExtension>
        </extensions>
      </trkpt>
      <trkpt lat="47.75386531837284564971923828125" lon="12.2571602649986743927001953125">
        <ele>1503.800048828125</ele>
        <time>2020-06-23T15:03:31.000Z</time>
        <extensions>
          <ns3:TrackPointExtension>
            <ns3:atemp>24.0</ns3:atemp>
            <ns3:hr>98</ns3:hr>
          </ns3:TrackPointExtension>
        </extensions>
      </trkpt>
      <trkpt lat="47.75391192175447940826416015625" lon="12.256803698837757110595703125">
        <ele>1502</ele>
        <time>2020-06-23T15:03:34.000Z</time>
        <extensions>
          <ns3:TrackPointExtension>
            <ns3:atemp>24.0</ns3:atemp>
            <ns3:hr>98</ns3:hr>
          </ns3:TrackPointExtension>
        </extensions>
      </trkpt>
      <trkpt lat="47.75383564643561840057373046875" lon="12.2565190494060516357421875">
        <ele>1500.5999755859375</ele>
        <time>2020-06-23T15:03:36.000Z</time>
        <extensions>
          <ns3:TrackPointExtension>
            <ns3:atemp>24.0</ns3:atemp>
            <ns3:hr>98</ns3:hr>
          </ns3:TrackPointExtension>
        </extensions>
      </trkpt>
      <trkpt lat="47.7536518312990665435791015625" lon="12.25631897337734699249267578125">
        <ele>1500.199951171875</ele>
        <time>2020-06-23T15:03:38.000Z</time>
        <extensions>
          <ns3:TrackPointExtension>
            <ns3:atemp>24.0</ns3:atemp>
            <ns3:hr>97</ns3:hr>
          </ns3:TrackPointExtension>
        </extensions>
      </trkpt>
      <trkpt lat="47.75348779745399951934814453125" lon="12.25621989928185939788818359375">
        <ele>1501</ele>
        <time>2020-06-23T15:03:40.000Z</time>
        <extensions>
          <ns3:TrackPointExtension>
            <ns3:atemp>24.0</ns3:atemp>
            <ns3:hr>97</ns3:hr>
          </ns3:TrackPointExtension>
        </extensions>
      </trkpt>
      <trkpt lat="47.7533929981291294097900390625" lon="12.25618301890790462493896484375">
        <ele>1501.4000244140625</ele>
        <time>2020-06-23T15:03:41.000Z</time>
        <extensions>
          <ns3:TrackPointExtension>
            <ns3:atemp>24.0</ns3:atemp>
            <ns3:hr>97</ns3:hr>
          </ns3:TrackPointExtension>
        </extensions>
      </trkpt>
      <trkpt lat="47.75327422656118869781494140625" lon="12.2561534307897090911865234375">
        <ele>1502</ele>
        <time>2020-06-23T15:03:42.000Z</time>
        <extensions>
          <ns3:TrackPointExtension>
            <ns3:atemp>24.0</ns3:atemp>
            <ns3:hr>97</ns3:hr>
          </ns3:TrackPointExtension>
        </extensions>
      </trkpt>
      <trkpt lat="47.753015644848346710205078125" lon="12.256121747195720672607421875">
        <ele>1503.199951171875</ele>
        <time>2020-06-23T15:03:44.000Z</time>
        <extensions>
          <ns3:TrackPointExtension>
            <ns3:atemp>24.0</ns3:atemp>
            <ns3:hr>98</ns3:hr>
          </ns3:TrackPointExtension>
        </extensions>
      </trkpt>
      <trkpt lat="47.7529095299541950225830078125" lon="12.2561031393706798553466796875">
        <ele>1504.4000244140625</ele>
        <time>2020-06-23T15:03:45.000Z</time>
        <extensions>
          <ns3:TrackPointExtension>
            <ns3:atemp>24.0</ns3:atemp>
            <ns3:hr>98</ns3:hr>
          </ns3:TrackPointExtension>
        </extensions>
      </trkpt>
      <trkpt lat="47.7528183348476886749267578125" lon="12.25608126260340213775634765625">
        <ele>1506.199951171875</ele>
        <time>2020-06-23T15:03:46.000Z</time>
        <extensions>
          <ns3:TrackPointExtension>
            <ns3:atemp>24.0</ns3:atemp>
            <ns3:hr>98</ns3:hr>
          </ns3:TrackPointExtension>
        </extensions>
      </trkpt>
      <trkpt lat="47.75272789411246776580810546875" lon="12.2560555301606655120849609375">
        <ele>1507.5999755859375</ele>
        <time>2020-06-23T15:03:47.000Z</time>
        <extensions>
          <ns3:TrackPointExtension>
            <ns3:atemp>24.0</ns3:atemp>
            <ns3:hr>98</ns3:hr>
          </ns3:TrackPointExtension>
        </extensions>
      </trkpt>
      <trkpt lat="47.75262571871280670166015625" lon="12.25601135753095149993896484375">
        <ele>1509.4000244140625</ele>
        <time>2020-06-23T15:03:48.000Z</time>
        <extensions>
          <ns3:TrackPointExtension>
            <ns3:atemp>24.0</ns3:atemp>
            <ns3:hr>99</ns3:hr>
          </ns3:TrackPointExtension>
        </extensions>
      </trkpt>
      <trkpt lat="47.7525139041244983673095703125" lon="12.255941368639469146728515625">
        <ele>1511.199951171875</ele>
        <time>2020-06-23T15:03:49.000Z</time>
        <extensions>
          <ns3:TrackPointExtension>
            <ns3:atemp>24.0</ns3:atemp>
            <ns3:hr>99</ns3:hr>
          </ns3:TrackPointExtension>
        </extensions>
      </trkpt>
      <trkpt lat="47.75241558440029621124267578125" lon="12.25586199201643466949462890625">
        <ele>1513</ele>
        <time>2020-06-23T15:03:50.000Z</time>
        <extensions>
          <ns3:TrackPointExtension>
            <ns3:atemp>24.0</ns3:atemp>
            <ns3:hr>99</ns3:hr>
          </ns3:TrackPointExtension>
        </extensions>
      </trkpt>
      <trkpt lat="47.7523474395275115966796875" lon="12.255803905427455902099609375">
        <ele>1515.199951171875</ele>
        <time>2020-06-23T15:03:51.000Z</time>
        <extensions>
          <ns3:TrackPointExtension>
            <ns3:atemp>24.0</ns3:atemp>
            <ns3:hr>100</ns3:hr>
          </ns3:TrackPointExtension>
        </extensions>
      </trkpt>
      <trkpt lat="47.75229874067008495330810546875" lon="12.255769036710262298583984375">
        <ele>1517.5999755859375</ele>
        <time>2020-06-23T15:03:52.000Z</time>
        <extensions>
          <ns3:TrackPointExtension>
            <ns3:atemp>24.0</ns3:atemp>
            <ns3:hr>100</ns3:hr>
          </ns3:TrackPointExtension>
        </extensions>
      </trkpt>
      <trkpt lat="47.75225029326975345611572265625" lon="12.25573291070759296417236328125">
        <ele>1520.199951171875</ele>
        <time>2020-06-23T15:03:53.000Z</time>
        <extensions>
          <ns3:TrackPointExtension>
            <ns3:atemp>24.0</ns3:atemp>
            <ns3:hr>101</ns3:hr>
          </ns3:TrackPointExtension>
        </extensions>
      </trkpt>
      <trkpt lat="47.752187512814998626708984375" lon="12.25566719658672809600830078125">
        <ele>1522.4000244140625</ele>
        <time>2020-06-23T15:03:54.000Z</time>
        <extensions>
          <ns3:TrackPointExtension>
            <ns3:atemp>24.0</ns3:atemp>
            <ns3:hr>102</ns3:hr>
          </ns3:TrackPointExtension>
        </extensions>
      </trkpt>
      <trkpt lat="47.75210495106875896453857421875" lon="12.25556342862546443939208984375">
        <ele>1524</ele>
        <time>2020-06-23T15:03:55.000Z</time>
        <extensions>
          <ns3:TrackPointExtension>
            <ns3:atemp>24.0</ns3:atemp>
            <ns3:hr>102</ns3:hr>
          </ns3:TrackPointExtension>
        </extensions>
      </trkpt>
      <trkpt lat="47.75201459415256977081298828125" lon="12.2554510273039340972900390625">
        <ele>1525.4000244140625</ele>
        <time>2020-06-23T15:03:56.000Z</time>
        <extensions>
          <ns3:TrackPointExtension>
            <ns3:atemp>24.0</ns3:atemp>
            <ns3:hr>102</ns3:hr>
          </ns3:TrackPointExtension>
        </extensions>
      </trkpt>
      <trkpt lat="47.751874029636383056640625" lon="12.2552984766662120819091796875">
        <ele>1527.4000244140625</ele>
        <time>2020-06-23T15:03:58.000Z</time>
        <extensions>
          <ns3:TrackPointExtension>
            <ns3:atemp>24.0</ns3:atemp>
            <ns3:hr>102</ns3:hr>
          </ns3:TrackPointExtension>
        </extensions>
      </trkpt>
      <trkpt lat="47.7518131770193576812744140625" lon="12.255237288773059844970703125">
        <ele>1529</ele>
        <time>2020-06-23T15:03:59.000Z</time>
        <extensions>
          <ns3:TrackPointExtension>
            <ns3:atemp>24.0</ns3:atemp>
            <ns3:hr>102</ns3:hr>
          </ns3:TrackPointExtension>
        </extensions>
      </trkpt>
      <trkpt lat="47.75174318812787532806396484375" lon="12.2551529668271541595458984375">
        <ele>1530.800048828125</ele>
        <time>2020-06-23T15:04:00.000Z</time>
        <extensions>
          <ns3:TrackPointExtension>
            <ns3:atemp>24.0</ns3:atemp>
            <ns3:hr>102</ns3:hr>
          </ns3:TrackPointExtension>
        </extensions>
      </trkpt>
      <trkpt lat="47.75165417231619358062744140625" lon="12.25503805093467235565185546875">
        <ele>1532.4000244140625</ele>
        <time>2020-06-23T15:04:01.000Z</time>
        <extensions>
          <ns3:TrackPointExtension>
            <ns3:atemp>24.0</ns3:atemp>
            <ns3:hr>103</ns3:hr>
          </ns3:TrackPointExtension>
        </extensions>
      </trkpt>
      <trkpt lat="47.751551829278469085693359375" lon="12.25491533987224102020263671875">
        <ele>1533.800048828125</ele>
        <time>2020-06-23T15:04:02.000Z</time>
        <extensions>
          <ns3:TrackPointExtension>
            <ns3:atemp>24.0</ns3:atemp>
            <ns3:hr>105</ns3:hr>
          </ns3:TrackPointExtension>
        </extensions>
      </trkpt>
      <trkpt lat="47.7514520846307277679443359375" lon="12.25481559522449970245361328125">
        <ele>1535.4000244140625</ele>
        <time>2020-06-23T15:04:03.000Z</time>
        <extensions>
          <ns3:TrackPointExtension>
            <ns3:atemp>24.0</ns3:atemp>
            <ns3:hr>106</ns3:hr>
          </ns3:TrackPointExtension>
        </extensions>
      </trkpt>
      <trkpt lat="47.75136684067547321319580078125" lon="12.2547549940645694732666015625">
        <ele>1537.4000244140625</ele>
        <time>2020-06-23T15:04:04.000Z</time>
        <extensions>
          <ns3:TrackPointExtension>
            <ns3:atemp>24.0</ns3:atemp>
            <ns3:hr>107</ns3:hr>
          </ns3:TrackPointExtension>
        </extensions>
      </trkpt>
      <trkpt lat="47.75128838606178760528564453125" lon="12.25473110564053058624267578125">
        <ele>1540</ele>
        <time>2020-06-23T15:04:05.000Z</time>
        <extensions>
          <ns3:TrackPointExtension>
            <ns3:atemp>24.0</ns3:atemp>
            <ns3:hr>108</ns3:hr>
          </ns3:TrackPointExtension>
        </extensions>
      </trkpt>
      <trkpt lat="47.75120607577264308929443359375" lon="12.25470327772200107574462890625">
        <ele>1541.800048828125</ele>
        <time>2020-06-23T15:04:06.000Z</time>
        <extensions>
          <ns3:TrackPointExtension>
            <ns3:atemp>24.0</ns3:atemp>
            <ns3:hr>108</ns3:hr>
          </ns3:TrackPointExtension>
        </extensions>
      </trkpt>
      <trkpt lat="47.75110783986747264862060546875" lon="12.2546426765620708465576171875">
        <ele>1542.5999755859375</ele>
        <time>2020-06-23T15:04:07.000Z</time>
        <extensions>
          <ns3:TrackPointExtension>
            <ns3:atemp>24.0</ns3:atemp>
            <ns3:hr>108</ns3:hr>
          </ns3:TrackPointExtension>
        </extensions>
      </trkpt>
      <trkpt lat="47.7509956061840057373046875" lon="12.25454200990498065948486328125">
        <ele>1543.800048828125</ele>
        <time>2020-06-23T15:04:08.000Z</time>
        <extensions>
          <ns3:TrackPointExtension>
            <ns3:atemp>24.0</ns3:atemp>
            <ns3:hr>109</ns3:hr>
          </ns3:TrackPointExtension>
        </extensions>
      </trkpt>
      <trkpt lat="47.75089225731790065765380859375" lon="12.2544240765273571014404296875">
        <ele>1544.5999755859375</ele>
        <time>2020-06-23T15:04:09.000Z</time>
        <extensions>
          <ns3:TrackPointExtension>
            <ns3:atemp>24.0</ns3:atemp>
            <ns3:hr>110</ns3:hr>
          </ns3:TrackPointExtension>
        </extensions>
      </trkpt>
      <trkpt lat="47.75081925094127655029296875" lon="12.2543187998235225677490234375">
        <ele>1545.199951171875</ele>
        <time>2020-06-23T15:04:10.000Z</time>
        <extensions>
          <ns3:TrackPointExtension>
            <ns3:atemp>24.0</ns3:atemp>
            <ns3:hr>109</ns3:hr>
          </ns3:TrackPointExtension>
        </extensions>
      </trkpt>
      <trkpt lat="47.75066862814128398895263671875" lon="12.2541196458041667938232421875">
        <ele>1546.199951171875</ele>
        <time>2020-06-23T15:04:13.000Z</time>
        <extensions>
          <ns3:TrackPointExtension>
            <ns3:atemp>24.0</ns3:atemp>
            <ns3:hr>108</ns3:hr>
          </ns3:TrackPointExtension>
        </extensions>
      </trkpt>
      <trkpt lat="47.7505646087229251861572265625" lon="12.2539007104933261871337890625">
        <ele>1546.5999755859375</ele>
        <time>2020-06-23T15:04:15.000Z</time>
        <extensions>
          <ns3:TrackPointExtension>
            <ns3:atemp>24.0</ns3:atemp>
            <ns3:hr>109</ns3:hr>
          </ns3:TrackPointExtension>
        </extensions>
      </trkpt>
      <trkpt lat="47.75052865035831928253173828125" lon="12.25378789007663726806640625">
        <ele>1546.5999755859375</ele>
        <time>2020-06-23T15:04:16.000Z</time>
        <extensions>
          <ns3:TrackPointExtension>
            <ns3:atemp>24.0</ns3:atemp>
            <ns3:hr>109</ns3:hr>
          </ns3:TrackPointExtension>
        </extensions>
      </trkpt>
      <trkpt lat="47.75046947412192821502685546875" lon="12.25361891090869903564453125">
        <ele>1546.5999755859375</ele>
        <time>2020-06-23T15:04:18.000Z</time>
        <extensions>
          <ns3:TrackPointExtension>
            <ns3:atemp>24.0</ns3:atemp>
            <ns3:hr>107</ns3:hr>
          </ns3:TrackPointExtension>
        </extensions>
      </trkpt>
      <trkpt lat="47.75043301284313201904296875" lon="12.2535382770001888275146484375">
        <ele>1546.4000244140625</ele>
        <time>2020-06-23T15:04:19.000Z</time>
        <extensions>
          <ns3:TrackPointExtension>
            <ns3:atemp>24.0</ns3:atemp>
            <ns3:hr>106</ns3:hr>
          </ns3:TrackPointExtension>
        </extensions>
      </trkpt>
      <trkpt lat="47.7503118105232715606689453125" lon="12.25320593453943729400634765625">
        <ele>1545.800048828125</ele>
        <time>2020-06-23T15:04:22.000Z</time>
        <extensions>
          <ns3:TrackPointExtension>
            <ns3:atemp>24.0</ns3:atemp>
            <ns3:hr>106</ns3:hr>
          </ns3:TrackPointExtension>
        </extensions>
      </trkpt>
      <trkpt lat="47.7501411549746990203857421875" lon="12.2527936287224292755126953125">
        <ele>1547.800048828125</ele>
        <time>2020-06-23T15:04:26.000Z</time>
        <extensions>
          <ns3:TrackPointExtension>
            <ns3:atemp>23.0</ns3:atemp>
            <ns3:hr>103</ns3:hr>
          </ns3:TrackPointExtension>
        </extensions>
      </trkpt>
      <trkpt lat="47.7501185238361358642578125" lon="12.25271827541291713714599609375">
        <ele>1549</ele>
        <time>2020-06-23T15:04:27.000Z</time>
        <extensions>
          <ns3:TrackPointExtension>
            <ns3:atemp>23.0</ns3:atemp>
            <ns3:hr>101</ns3:hr>
          </ns3:TrackPointExtension>
        </extensions>
      </trkpt>
      <trkpt lat="47.75009631179273128509521484375" lon="12.25263512693345546722412109375">
        <ele>1550</ele>
        <time>2020-06-23T15:04:28.000Z</time>
        <extensions>
          <ns3:TrackPointExtension>
            <ns3:atemp>23.0</ns3:atemp>
            <ns3:hr>98</ns3:hr>
          </ns3:TrackPointExtension>
        </extensions>
      </trkpt>
      <trkpt lat="47.75007032789289951324462890625" lon="12.25253974087536334991455078125">
        <ele>1550.5999755859375</ele>
        <time>2020-06-23T15:04:29.000Z</time>
        <extensions>
          <ns3:TrackPointExtension>
            <ns3:atemp>23.0</ns3:atemp>
            <ns3:hr>97</ns3:hr>
          </ns3:TrackPointExtension>
        </extensions>
      </trkpt>
      <trkpt lat="47.75004208087921142578125" lon="12.25243982858955860137939453125">
        <ele>1551</ele>
        <time>2020-06-23T15:04:30.000Z</time>
        <extensions>
          <ns3:TrackPointExtension>
            <ns3:atemp>23.0</ns3:atemp>
            <ns3:hr>97</ns3:hr>
          </ns3:TrackPointExtension>
        </extensions>
      </trkpt>
      <trkpt lat="47.74998466484248638153076171875" lon="12.25228426046669483184814453125">
        <ele>1551.4000244140625</ele>
        <time>2020-06-23T15:04:32.000Z</time>
        <extensions>
          <ns3:TrackPointExtension>
            <ns3:atemp>23.0</ns3:atemp>
            <ns3:hr>97</ns3:hr>
          </ns3:TrackPointExtension>
        </extensions>
      </trkpt>
      <trkpt lat="47.74994744919240474700927734375" lon="12.2522226534783840179443359375">
        <ele>1551.5999755859375</ele>
        <time>2020-06-23T15:04:33.000Z</time>
        <extensions>
          <ns3:TrackPointExtension>
            <ns3:atemp>23.0</ns3:atemp>
            <ns3:hr>97</ns3:hr>
          </ns3:TrackPointExtension>
        </extensions>
      </trkpt>
      <trkpt lat="47.7497770451009273529052734375" lon="12.2519135288894176483154296875">
        <ele>1550.4000244140625</ele>
        <time>2020-06-23T15:04:36.000Z</time>
        <extensions>
          <ns3:TrackPointExtension>
            <ns3:atemp>23.0</ns3:atemp>
            <ns3:hr>96</ns3:hr>
          </ns3:TrackPointExtension>
        </extensions>
      </trkpt>
      <trkpt lat="47.7497116662561893463134765625" lon="12.2517908178269863128662109375">
        <ele>1549.4000244140625</ele>
        <time>2020-06-23T15:04:37.000Z</time>
        <extensions>
          <ns3:TrackPointExtension>
            <ns3:atemp>23.0</ns3:atemp>
            <ns3:hr>95</ns3:hr>
          </ns3:TrackPointExtension>
        </extensions>
      </trkpt>
      <trkpt lat="47.74952651001513004302978515625" lon="12.2514826990664005279541015625">
        <ele>1548.199951171875</ele>
        <time>2020-06-23T15:04:40.000Z</time>
        <extensions>
          <ns3:TrackPointExtension>
            <ns3:atemp>23.0</ns3:atemp>
            <ns3:hr>94</ns3:hr>
          </ns3:TrackPointExtension>
        </extensions>
      </trkpt>
      <trkpt lat="47.749343700706958770751953125" lon="12.25110442377626895904541015625">
        <ele>1549.199951171875</ele>
        <time>2020-06-23T15:04:43.000Z</time>
        <extensions>
          <ns3:TrackPointExtension>
            <ns3:atemp>23.0</ns3:atemp>
            <ns3:hr>93</ns3:hr>
          </ns3:TrackPointExtension>
        </extensions>
      </trkpt>
      <trkpt lat="47.7492929063737392425537109375" lon="12.25100870244204998016357421875">
        <ele>1550</ele>
        <time>2020-06-23T15:04:44.000Z</time>
        <extensions>
          <ns3:TrackPointExtension>
            <ns3:atemp>23.0</ns3:atemp>
            <ns3:hr>94</ns3:hr>
          </ns3:TrackPointExtension>
        </extensions>
      </trkpt>
      <trkpt lat="47.74924722500145435333251953125" lon="12.25092505104839801788330078125">
        <ele>1551.4000244140625</ele>
        <time>2020-06-23T15:04:45.000Z</time>
        <extensions>
          <ns3:TrackPointExtension>
            <ns3:atemp>23.0</ns3:atemp>
            <ns3:hr>94</ns3:hr>
          </ns3:TrackPointExtension>
        </extensions>
      </trkpt>
      <trkpt lat="47.74920514784753322601318359375" lon="12.2508339397609233856201171875">
        <ele>1552.800048828125</ele>
        <time>2020-06-23T15:04:46.000Z</time>
        <extensions>
          <ns3:TrackPointExtension>
            <ns3:atemp>23.0</ns3:atemp>
            <ns3:hr>94</ns3:hr>
          </ns3:TrackPointExtension>
        </extensions>
      </trkpt>
      <trkpt lat="47.7491655014455318450927734375" lon="12.25072874687612056732177734375">
        <ele>1554</ele>
        <time>2020-06-23T15:04:47.000Z</time>
        <extensions>
          <ns3:TrackPointExtension>
            <ns3:atemp>23.0</ns3:atemp>
            <ns3:hr>94</ns3:hr>
          </ns3:TrackPointExtension>
        </extensions>
      </trkpt>
      <trkpt lat="47.74912836961448192596435546875" lon="12.2506129927933216094970703125">
        <ele>1555.199951171875</ele>
        <time>2020-06-23T15:04:48.000Z</time>
        <extensions>
          <ns3:TrackPointExtension>
            <ns3:atemp>23.0</ns3:atemp>
            <ns3:hr>94</ns3:hr>
          </ns3:TrackPointExtension>
        </extensions>
      </trkpt>
      <trkpt lat="47.7490930818021297454833984375" lon="12.25049841217696666717529296875">
        <ele>1556.5999755859375</ele>
        <time>2020-06-23T15:04:49.000Z</time>
        <extensions>
          <ns3:TrackPointExtension>
            <ns3:atemp>23.0</ns3:atemp>
            <ns3:hr>95</ns3:hr>
          </ns3:TrackPointExtension>
        </extensions>
      </trkpt>
      <trkpt lat="47.7490590512752532958984375" lon="12.25039497949182987213134765625">
        <ele>1557.800048828125</ele>
        <time>2020-06-23T15:04:50.000Z</time>
        <extensions>
          <ns3:TrackPointExtension>
            <ns3:atemp>23.0</ns3:atemp>
            <ns3:hr>95</ns3:hr>
          </ns3:TrackPointExtension>
        </extensions>
      </trkpt>
      <trkpt lat="47.749027870595455169677734375" lon="12.25030177272856235504150390625">
        <ele>1559</ele>
        <time>2020-06-23T15:04:51.000Z</time>
        <extensions>
          <ns3:TrackPointExtension>
            <ns3:atemp>23.0</ns3:atemp>
            <ns3:hr>95</ns3:hr>
          </ns3:TrackPointExtension>
        </extensions>
      </trkpt>
      <trkpt lat="47.7490002103149890899658203125" lon="12.25021116435527801513671875">
        <ele>1560.199951171875</ele>
        <time>2020-06-23T15:04:52.000Z</time>
        <extensions>
          <ns3:TrackPointExtension>
            <ns3:atemp>23.0</ns3:atemp>
            <ns3:hr>95</ns3:hr>
          </ns3:TrackPointExtension>
        </extensions>
      </trkpt>
      <trkpt lat="47.7489732205867767333984375" lon="12.2501141019165515899658203125">
        <ele>1561.199951171875</ele>
        <time>2020-06-23T15:04:53.000Z</time>
        <extensions>
          <ns3:TrackPointExtension>
            <ns3:atemp>23.0</ns3:atemp>
            <ns3:hr>95</ns3:hr>
          </ns3:TrackPointExtension>
        </extensions>
      </trkpt>
      <trkpt lat="47.74894799105823040008544921875" lon="12.25000823847949504852294921875">
        <ele>1562.199951171875</ele>
        <time>2020-06-23T15:04:54.000Z</time>
        <extensions>
          <ns3:TrackPointExtension>
            <ns3:atemp>23.0</ns3:atemp>
            <ns3:hr>91</ns3:hr>
          </ns3:TrackPointExtension>
        </extensions>
      </trkpt>
      <trkpt lat="47.74892284534871578216552734375" lon="12.24989734590053558349609375">
        <ele>1563.4000244140625</ele>
        <time>2020-06-23T15:04:55.000Z</time>
        <extensions>
          <ns3:TrackPointExtension>
            <ns3:atemp>23.0</ns3:atemp>
            <ns3:hr>91</ns3:hr>
          </ns3:TrackPointExtension>
        </extensions>
      </trkpt>
      <trkpt lat="47.74889350868761539459228515625" lon="12.2497935779392719268798828125">
        <ele>1565</ele>
        <time>2020-06-23T15:04:56.000Z</time>
        <extensions>
          <ns3:TrackPointExtension>
            <ns3:atemp>23.0</ns3:atemp>
            <ns3:hr>93</ns3:hr>
          </ns3:TrackPointExtension>
        </extensions>
      </trkpt>
      <trkpt lat="47.7488577179610729217529296875" lon="12.24970531649887561798095703125">
        <ele>1566.5999755859375</ele>
        <time>2020-06-23T15:04:57.000Z</time>
        <extensions>
          <ns3:TrackPointExtension>
            <ns3:atemp>23.0</ns3:atemp>
            <ns3:hr>92</ns3:hr>
          </ns3:TrackPointExtension>
        </extensions>
      </trkpt>
      <trkpt lat="47.74882108904421329498291015625" lon="12.24962200038135051727294921875">
        <ele>1568.4000244140625</ele>
        <time>2020-06-23T15:04:58.000Z</time>
        <extensions>
          <ns3:TrackPointExtension>
            <ns3:atemp>23.0</ns3:atemp>
            <ns3:hr>94</ns3:hr>
          </ns3:TrackPointExtension>
        </extensions>
      </trkpt>
      <trkpt lat="47.7487909980118274688720703125" lon="12.24953248165547847747802734375">
        <ele>1570.800048828125</ele>
        <time>2020-06-23T15:04:59.000Z</time>
        <extensions>
          <ns3:TrackPointExtension>
            <ns3:atemp>23.0</ns3:atemp>
            <ns3:hr>94</ns3:hr>
          </ns3:TrackPointExtension>
        </extensions>
      </trkpt>
      <trkpt lat="47.7487675286829471588134765625" lon="12.24943198263645172119140625">
        <ele>1573</ele>
        <time>2020-06-23T15:05:00.000Z</time>
        <extensions>
          <ns3:TrackPointExtension>
            <ns3:atemp>23.0</ns3:atemp>
            <ns3:hr>92</ns3:hr>
          </ns3:TrackPointExtension>
        </extensions>
      </trkpt>
      <trkpt lat="47.74874565191566944122314453125" lon="12.249323688447475433349609375">
        <ele>1574.4000244140625</ele>
        <time>2020-06-23T15:05:01.000Z</time>
        <extensions>
          <ns3:TrackPointExtension>
            <ns3:atemp>23.0</ns3:atemp>
            <ns3:hr>92</ns3:hr>
          </ns3:TrackPointExtension>
        </extensions>
      </trkpt>
      <trkpt lat="47.74871715344488620758056640625" lon="12.249213047325611114501953125">
        <ele>1575.199951171875</ele>
        <time>2020-06-23T15:05:02.000Z</time>
        <extensions>
          <ns3:TrackPointExtension>
            <ns3:atemp>23.0</ns3:atemp>
            <ns3:hr>90</ns3:hr>
          </ns3:TrackPointExtension>
        </extensions>
      </trkpt>
      <trkpt lat="47.7486827038228511810302734375" lon="12.249104417860507965087890625">
        <ele>1576</ele>
        <time>2020-06-23T15:05:03.000Z</time>
        <extensions>
          <ns3:TrackPointExtension>
            <ns3:atemp>23.0</ns3:atemp>
            <ns3:hr>89</ns3:hr>
          </ns3:TrackPointExtension>
        </extensions>
      </trkpt>
      <trkpt lat="47.7486468292772769927978515625" lon="12.24900173954665660858154296875">
        <ele>1577.199951171875</ele>
        <time>2020-06-23T15:05:04.000Z</time>
        <extensions>
          <ns3:TrackPointExtension>
            <ns3:atemp>23.0</ns3:atemp>
            <ns3:hr>89</ns3:hr>
          </ns3:TrackPointExtension>
        </extensions>
      </trkpt>
      <trkpt lat="47.74861640296876430511474609375" lon="12.24890752695500850677490234375">
        <ele>1578.4000244140625</ele>
        <time>2020-06-23T15:05:05.000Z</time>
        <extensions>
          <ns3:TrackPointExtension>
            <ns3:atemp>23.0</ns3:atemp>
            <ns3:hr>91</ns3:hr>
          </ns3:TrackPointExtension>
        </extensions>
      </trkpt>
      <trkpt lat="47.7485978789627552032470703125" lon="12.2488135658204555511474609375">
        <ele>1579.199951171875</ele>
        <time>2020-06-23T15:05:06.000Z</time>
        <extensions>
          <ns3:TrackPointExtension>
            <ns3:atemp>23.0</ns3:atemp>
            <ns3:hr>89</ns3:hr>
          </ns3:TrackPointExtension>
        </extensions>
      </trkpt>
      <trkpt lat="47.7485968731343746185302734375" lon="12.24871189333498477935791015625">
        <ele>1579.800048828125</ele>
        <time>2020-06-23T15:05:07.000Z</time>
        <extensions>
          <ns3:TrackPointExtension>
            <ns3:atemp>23.0</ns3:atemp>
            <ns3:hr>90</ns3:hr>
          </ns3:TrackPointExtension>
        </extensions>
      </trkpt>
      <trkpt lat="47.7486146427690982818603515625" lon="12.248610220849514007568359375">
        <ele>1580.5999755859375</ele>
        <time>2020-06-23T15:05:08.000Z</time>
        <extensions>
          <ns3:TrackPointExtension>
            <ns3:atemp>23.0</ns3:atemp>
            <ns3:hr>90</ns3:hr>
          </ns3:TrackPointExtension>
        </extensions>
      </trkpt>
      <trkpt lat="47.7486474998295307159423828125" lon="12.24852782674133777618408203125">
        <ele>1581.199951171875</ele>
        <time>2020-06-23T15:05:09.000Z</time>
        <extensions>
          <ns3:TrackPointExtension>
            <ns3:atemp>23.0</ns3:atemp>
            <ns3:hr>92</ns3:hr>
          </ns3:TrackPointExtension>
        </extensions>
      </trkpt>
      <trkpt lat="47.74868899025022983551025390625" lon="12.24847720004618167877197265625">
        <ele>1581.5999755859375</ele>
        <time>2020-06-23T15:05:10.000Z</time>
        <extensions>
          <ns3:TrackPointExtension>
            <ns3:atemp>23.0</ns3:atemp>
            <ns3:hr>91</ns3:hr>
          </ns3:TrackPointExtension>
        </extensions>
      </trkpt>
      <trkpt lat="47.74873383343219757080078125" lon="12.24846160970628261566162109375">
        <ele>1582.199951171875</ele>
        <time>2020-06-23T15:05:11.000Z</time>
        <extensions>
          <ns3:TrackPointExtension>
            <ns3:atemp>23.0</ns3:atemp>
            <ns3:hr>91</ns3:hr>
          </ns3:TrackPointExtension>
        </extensions>
      </trkpt>
      <trkpt lat="47.74877666495740413665771484375" lon="12.24847669713199138641357421875">
        <ele>1582.4000244140625</ele>
        <time>2020-06-23T15:05:12.000Z</time>
        <extensions>
          <ns3:TrackPointExtension>
            <ns3:atemp>23.0</ns3:atemp>
            <ns3:hr>91</ns3:hr>
          </ns3:TrackPointExtension>
        </extensions>
      </trkpt>
      <trkpt lat="47.7488550357520580291748046875" lon="12.24859756417572498321533203125">
        <ele>1583</ele>
        <time>2020-06-23T15:05:14.000Z</time>
        <extensions>
          <ns3:TrackPointExtension>
            <ns3:atemp>23.0</ns3:atemp>
            <ns3:hr>92</ns3:hr>
          </ns3:TrackPointExtension>
        </extensions>
      </trkpt>
      <trkpt lat="47.74888445623219013214111328125" lon="12.248702757060527801513671875">
        <ele>1583.199951171875</ele>
        <time>2020-06-23T15:05:15.000Z</time>
        <extensions>
          <ns3:TrackPointExtension>
            <ns3:atemp>23.0</ns3:atemp>
            <ns3:hr>90</ns3:hr>
          </ns3:TrackPointExtension>
        </extensions>
      </trkpt>
      <trkpt lat="47.7488982863724231719970703125" lon="12.248831503093242645263671875">
        <ele>1583.4000244140625</ele>
        <time>2020-06-23T15:05:16.000Z</time>
        <extensions>
          <ns3:TrackPointExtension>
            <ns3:atemp>23.0</ns3:atemp>
            <ns3:hr>90</ns3:hr>
          </ns3:TrackPointExtension>
        </extensions>
      </trkpt>
      <trkpt lat="47.7488976158201694488525390625" lon="12.2490854747593402862548828125">
        <ele>1584.4000244140625</ele>
        <time>2020-06-23T15:05:18.000Z</time>
        <extensions>
          <ns3:TrackPointExtension>
            <ns3:atemp>23.0</ns3:atemp>
            <ns3:hr>89</ns3:hr>
          </ns3:TrackPointExtension>
        </extensions>
      </trkpt>
      <trkpt lat="47.7489049918949604034423828125" lon="12.24919837899506092071533203125">
        <ele>1585.199951171875</ele>
        <time>2020-06-23T15:05:19.000Z</time>
        <extensions>
          <ns3:TrackPointExtension>
            <ns3:atemp>23.0</ns3:atemp>
            <ns3:hr>89</ns3:hr>
          </ns3:TrackPointExtension>
        </extensions>
      </trkpt>
      <trkpt lat="47.74892049841582775115966796875" lon="12.24930885247886180877685546875">
        <ele>1586.5999755859375</ele>
        <time>2020-06-23T15:05:20.000Z</time>
        <extensions>
          <ns3:TrackPointExtension>
            <ns3:atemp>23.0</ns3:atemp>
            <ns3:hr>89</ns3:hr>
          </ns3:TrackPointExtension>
        </extensions>
      </trkpt>
      <trkpt lat="47.748938016593456268310546875" lon="12.249420247972011566162109375">
        <ele>1588.199951171875</ele>
        <time>2020-06-23T15:05:21.000Z</time>
        <extensions>
          <ns3:TrackPointExtension>
            <ns3:atemp>23.0</ns3:atemp>
            <ns3:hr>90</ns3:hr>
          </ns3:TrackPointExtension>
        </extensions>
      </trkpt>
      <trkpt lat="47.7489569596946239471435546875" lon="12.2495256923139095306396484375">
        <ele>1589.800048828125</ele>
        <time>2020-06-23T15:05:22.000Z</time>
        <extensions>
          <ns3:TrackPointExtension>
            <ns3:atemp>23.0</ns3:atemp>
            <ns3:hr>88</ns3:hr>
          </ns3:TrackPointExtension>
        </extensions>
      </trkpt>
      <trkpt lat="47.74897984229028224945068359375" lon="12.2496182285249233245849609375">
        <ele>1591.199951171875</ele>
        <time>2020-06-23T15:05:23.000Z</time>
        <extensions>
          <ns3:TrackPointExtension>
            <ns3:atemp>23.0</ns3:atemp>
            <ns3:hr>89</ns3:hr>
          </ns3:TrackPointExtension>
        </extensions>
      </trkpt>
      <trkpt lat="47.74900733493268489837646484375" lon="12.24969877861440181732177734375">
        <ele>1592.4000244140625</ele>
        <time>2020-06-23T15:05:24.000Z</time>
        <extensions>
          <ns3:TrackPointExtension>
            <ns3:atemp>23.0</ns3:atemp>
            <ns3:hr>90</ns3:hr>
          </ns3:TrackPointExtension>
        </extensions>
      </trkpt>
      <trkpt lat="47.7490375936031341552734375" lon="12.249776311218738555908203125">
        <ele>1593.5999755859375</ele>
        <time>2020-06-23T15:05:25.000Z</time>
        <extensions>
          <ns3:TrackPointExtension>
            <ns3:atemp>23.0</ns3:atemp>
            <ns3:hr>90</ns3:hr>
          </ns3:TrackPointExtension>
        </extensions>
      </trkpt>
      <trkpt lat="47.74906910955905914306640625" lon="12.24985417909920215606689453125">
        <ele>1594.4000244140625</ele>
        <time>2020-06-23T15:05:26.000Z</time>
        <extensions>
          <ns3:TrackPointExtension>
            <ns3:atemp>23.0</ns3:atemp>
            <ns3:hr>90</ns3:hr>
          </ns3:TrackPointExtension>
        </extensions>
      </trkpt>
      <trkpt lat="47.74910087697207927703857421875" lon="12.2499261796474456787109375">
        <ele>1595.4000244140625</ele>
        <time>2020-06-23T15:05:27.000Z</time>
        <extensions>
          <ns3:TrackPointExtension>
            <ns3:atemp>23.0</ns3:atemp>
            <ns3:hr>91</ns3:hr>
          </ns3:TrackPointExtension>
        </extensions>
      </trkpt>
      <trkpt lat="47.74913608096539974212646484375" lon="12.2499893791973590850830078125">
        <ele>1596</ele>
        <time>2020-06-23T15:05:28.000Z</time>
        <extensions>
          <ns3:TrackPointExtension>
            <ns3:atemp>23.0</ns3:atemp>
            <ns3:hr>91</ns3:hr>
          </ns3:TrackPointExtension>
        </extensions>
      </trkpt>
      <trkpt lat="47.74917815811932086944580078125" lon="12.25004863925278186798095703125">
        <ele>1596.4000244140625</ele>
        <time>2020-06-23T15:05:29.000Z</time>
        <extensions>
          <ns3:TrackPointExtension>
            <ns3:atemp>23.0</ns3:atemp>
            <ns3:hr>90</ns3:hr>
          </ns3:TrackPointExtension>
        </extensions>
      </trkpt>
      <trkpt lat="47.749226354062557220458984375" lon="12.2501117549836635589599609375">
        <ele>1596.5999755859375</ele>
        <time>2020-06-23T15:05:30.000Z</time>
        <extensions>
          <ns3:TrackPointExtension>
            <ns3:atemp>23.0</ns3:atemp>
            <ns3:hr>90</ns3:hr>
          </ns3:TrackPointExtension>
        </extensions>
      </trkpt>
      <trkpt lat="47.74941469542682170867919921875" lon="12.250395901501178741455078125">
        <ele>1595.5999755859375</ele>
        <time>2020-06-23T15:05:34.000Z</time>
        <extensions>
          <ns3:TrackPointExtension>
            <ns3:atemp>23.0</ns3:atemp>
            <ns3:hr>89</ns3:hr>
          </ns3:TrackPointExtension>
        </extensions>
      </trkpt>
      <trkpt lat="47.74946901015937328338623046875" lon="12.2504507191479206085205078125">
        <ele>1595.199951171875</ele>
        <time>2020-06-23T15:05:35.000Z</time>
        <extensions>
          <ns3:TrackPointExtension>
            <ns3:atemp>23.0</ns3:atemp>
            <ns3:hr>89</ns3:hr>
          </ns3:TrackPointExtension>
        </extensions>
      </trkpt>
      <trkpt lat="47.7495715208351612091064453125" lon="12.250544093549251556396484375">
        <ele>1593</ele>
        <time>2020-06-23T15:05:37.000Z</time>
        <extensions>
          <ns3:TrackPointExtension>
            <ns3:atemp>23.0</ns3:atemp>
            <ns3:hr>91</ns3:hr>
          </ns3:TrackPointExtension>
        </extensions>
      </trkpt>
      <trkpt lat="47.74961032904684543609619140625" lon="12.25058734416961669921875">
        <ele>1591.5999755859375</ele>
        <time>2020-06-23T15:05:38.000Z</time>
        <extensions>
          <ns3:TrackPointExtension>
            <ns3:atemp>23.0</ns3:atemp>
            <ns3:hr>90</ns3:hr>
          </ns3:TrackPointExtension>
        </extensions>
      </trkpt>
      <trkpt lat="47.7496472932398319244384765625" lon="12.25061777047812938690185546875">
        <ele>1590</ele>
        <time>2020-06-23T15:05:39.000Z</time>
        <extensions>
          <ns3:TrackPointExtension>
            <ns3:atemp>23.0</ns3:atemp>
            <ns3:hr>90</ns3:hr>
          </ns3:TrackPointExtension>
        </extensions>
      </trkpt>
      <trkpt lat="47.74969364516437053680419921875" lon="12.2506233863532543182373046875">
        <ele>1588.5999755859375</ele>
        <time>2020-06-23T15:05:40.000Z</time>
        <extensions>
          <ns3:TrackPointExtension>
            <ns3:atemp>23.0</ns3:atemp>
            <ns3:hr>91</ns3:hr>
          </ns3:TrackPointExtension>
        </extensions>
      </trkpt>
      <trkpt lat="47.7497549168765544891357421875" lon="12.25060502998530864715576171875">
        <ele>1586.800048828125</ele>
        <time>2020-06-23T15:05:41.000Z</time>
        <extensions>
          <ns3:TrackPointExtension>
            <ns3:atemp>23.0</ns3:atemp>
            <ns3:hr>93</ns3:hr>
          </ns3:TrackPointExtension>
        </extensions>
      </trkpt>
      <trkpt lat="47.749821804463863372802734375" lon="12.25057167001068592071533203125">
        <ele>1584.800048828125</ele>
        <time>2020-06-23T15:05:42.000Z</time>
        <extensions>
          <ns3:TrackPointExtension>
            <ns3:atemp>23.0</ns3:atemp>
            <ns3:hr>92</ns3:hr>
          </ns3:TrackPointExtension>
        </extensions>
      </trkpt>
      <trkpt lat="47.74987720884382724761962890625" lon="12.2505216300487518310546875">
        <ele>1582.199951171875</ele>
        <time>2020-06-23T15:05:43.000Z</time>
        <extensions>
          <ns3:TrackPointExtension>
            <ns3:atemp>23.0</ns3:atemp>
            <ns3:hr>92</ns3:hr>
          </ns3:TrackPointExtension>
        </extensions>
      </trkpt>
      <trkpt lat="47.749910652637481689453125" lon="12.25044594146311283111572265625">
        <ele>1579.800048828125</ele>
        <time>2020-06-23T15:05:44.000Z</time>
        <extensions>
          <ns3:TrackPointExtension>
            <ns3:atemp>23.0</ns3:atemp>
            <ns3:hr>91</ns3:hr>
          </ns3:TrackPointExtension>
        </extensions>
      </trkpt>
      <trkpt lat="47.7499202080070972442626953125" lon="12.2503498010337352752685546875">
        <ele>1578</ele>
        <time>2020-06-23T15:05:45.000Z</time>
        <extensions>
          <ns3:TrackPointExtension>
            <ns3:atemp>23.0</ns3:atemp>
            <ns3:hr>91</ns3:hr>
          </ns3:TrackPointExtension>
        </extensions>
      </trkpt>
      <trkpt lat="47.74991291575133800506591796875" lon="12.2502453625202178955078125">
        <ele>1576.4000244140625</ele>
        <time>2020-06-23T15:05:46.000Z</time>
        <extensions>
          <ns3:TrackPointExtension>
            <ns3:atemp>23.0</ns3:atemp>
            <ns3:hr>90</ns3:hr>
          </ns3:TrackPointExtension>
        </extensions>
      </trkpt>
      <trkpt lat="47.74989900179207324981689453125" lon="12.250140421092510223388671875">
        <ele>1574.5999755859375</ele>
        <time>2020-06-23T15:05:47.000Z</time>
        <extensions>
          <ns3:TrackPointExtension>
            <ns3:atemp>23.0</ns3:atemp>
            <ns3:hr>90</ns3:hr>
          </ns3:TrackPointExtension>
        </extensions>
      </trkpt>
      <trkpt lat="47.74988240562379360198974609375" lon="12.2500346414744853973388671875">
        <ele>1572.800048828125</ele>
        <time>2020-06-23T15:05:48.000Z</time>
        <extensions>
          <ns3:TrackPointExtension>
            <ns3:atemp>23.0</ns3:atemp>
            <ns3:hr>91</ns3:hr>
          </ns3:TrackPointExtension>
        </extensions>
      </trkpt>
      <trkpt lat="47.74986145086586475372314453125" lon="12.249923162162303924560546875">
        <ele>1570.800048828125</ele>
        <time>2020-06-23T15:05:49.000Z</time>
        <extensions>
          <ns3:TrackPointExtension>
            <ns3:atemp>23.0</ns3:atemp>
            <ns3:hr>90</ns3:hr>
          </ns3:TrackPointExtension>
        </extensions>
      </trkpt>
      <trkpt lat="47.7498363889753818511962890625" lon="12.24980489350855350494384765625">
        <ele>1568.5999755859375</ele>
        <time>2020-06-23T15:05:50.000Z</time>
        <extensions>
          <ns3:TrackPointExtension>
            <ns3:atemp>23.0</ns3:atemp>
            <ns3:hr>90</ns3:hr>
          </ns3:TrackPointExtension>
        </extensions>
      </trkpt>
      <trkpt lat="47.749809734523296356201171875" lon="12.2496832720935344696044921875">
        <ele>1566</ele>
        <time>2020-06-23T15:05:51.000Z</time>
        <extensions>
          <ns3:TrackPointExtension>
            <ns3:atemp>23.0</ns3:atemp>
            <ns3:hr>90</ns3:hr>
          </ns3:TrackPointExtension>
        </extensions>
      </trkpt>
      <trkpt lat="47.749786265194416046142578125" lon="12.24956215359270572662353515625">
        <ele>1563.4000244140625</ele>
        <time>2020-06-23T15:05:52.000Z</time>
        <extensions>
          <ns3:TrackPointExtension>
            <ns3:atemp>23.0</ns3:atemp>
            <ns3:hr>91</ns3:hr>
          </ns3:TrackPointExtension>
        </extensions>
      </trkpt>
      <trkpt lat="47.74976723827421665191650390625" lon="12.24944396875798702239990234375">
        <ele>1561.199951171875</ele>
        <time>2020-06-23T15:05:53.000Z</time>
        <extensions>
          <ns3:TrackPointExtension>
            <ns3:atemp>23.0</ns3:atemp>
            <ns3:hr>91</ns3:hr>
          </ns3:TrackPointExtension>
        </extensions>
      </trkpt>
      <trkpt lat="47.749749720096588134765625" lon="12.24933181889355182647705078125">
        <ele>1559</ele>
        <time>2020-06-23T15:05:54.000Z</time>
        <extensions>
          <ns3:TrackPointExtension>
            <ns3:atemp>23.0</ns3:atemp>
            <ns3:hr>89</ns3:hr>
          </ns3:TrackPointExtension>
        </extensions>
      </trkpt>
      <trkpt lat="47.7497314475476741790771484375" lon="12.2492276318371295928955078125">
        <ele>1557</ele>
        <time>2020-06-23T15:05:55.000Z</time>
        <extensions>
          <ns3:TrackPointExtension>
            <ns3:atemp>23.0</ns3:atemp>
            <ns3:hr>91</ns3:hr>
          </ns3:TrackPointExtension>
        </extensions>
      </trkpt>
      <trkpt lat="47.74971141479909420013427734375" lon="12.24912880919873714447021484375">
        <ele>1554.800048828125</ele>
        <time>2020-06-23T15:05:56.000Z</time>
        <extensions>
          <ns3:TrackPointExtension>
            <ns3:atemp>23.0</ns3:atemp>
            <ns3:hr>91</ns3:hr>
          </ns3:TrackPointExtension>
        </extensions>
      </trkpt>
      <trkpt lat="47.74969129823148250579833984375" lon="12.24902705289423465728759765625">
        <ele>1552.4000244140625</ele>
        <time>2020-06-23T15:05:57.000Z</time>
        <extensions>
          <ns3:TrackPointExtension>
            <ns3:atemp>23.0</ns3:atemp>
            <ns3:hr>90</ns3:hr>
          </ns3:TrackPointExtension>
        </extensions>
      </trkpt>
      <trkpt lat="47.74967302568256855010986328125" lon="12.24891959689557552337646484375">
        <ele>1550</ele>
        <time>2020-06-23T15:05:58.000Z</time>
        <extensions>
          <ns3:TrackPointExtension>
            <ns3:atemp>23.0</ns3:atemp>
            <ns3:hr>90</ns3:hr>
          </ns3:TrackPointExtension>
        </extensions>
      </trkpt>
      <trkpt lat="47.7496543340384960174560546875" lon="12.24881012924015522003173828125">
        <ele>1547.800048828125</ele>
        <time>2020-06-23T15:05:59.000Z</time>
        <extensions>
          <ns3:TrackPointExtension>
            <ns3:atemp>23.0</ns3:atemp>
            <ns3:hr>90</ns3:hr>
          </ns3:TrackPointExtension>
        </extensions>
      </trkpt>
      <trkpt lat="47.74963262490928173065185546875" lon="12.2487057745456695556640625">
        <ele>1545.5999755859375</ele>
        <time>2020-06-23T15:06:00.000Z</time>
        <extensions>
          <ns3:TrackPointExtension>
            <ns3:atemp>23.0</ns3:atemp>
            <ns3:hr>89</ns3:hr>
          </ns3:TrackPointExtension>
        </extensions>
      </trkpt>
      <trkpt lat="47.74960957467555999755859375" lon="12.24860812537372112274169921875">
        <ele>1543.800048828125</ele>
        <time>2020-06-23T15:06:01.000Z</time>
        <extensions>
          <ns3:TrackPointExtension>
            <ns3:atemp>23.0</ns3:atemp>
            <ns3:hr>89</ns3:hr>
          </ns3:TrackPointExtension>
        </extensions>
      </trkpt>
      <trkpt lat="47.7495889551937580108642578125" lon="12.24851290695369243621826171875">
        <ele>1542</ele>
        <time>2020-06-23T15:06:02.000Z</time>
        <extensions>
          <ns3:TrackPointExtension>
            <ns3:atemp>23.0</ns3:atemp>
            <ns3:hr>89</ns3:hr>
          </ns3:TrackPointExtension>
        </extensions>
      </trkpt>
      <trkpt lat="47.7495713531970977783203125" lon="12.24841467104852199554443359375">
        <ele>1540.199951171875</ele>
        <time>2020-06-23T15:06:03.000Z</time>
        <extensions>
          <ns3:TrackPointExtension>
            <ns3:atemp>23.0</ns3:atemp>
            <ns3:hr>89</ns3:hr>
          </ns3:TrackPointExtension>
        </extensions>
      </trkpt>
      <trkpt lat="47.749556265771389007568359375" lon="12.2483103163540363311767578125">
        <ele>1538.199951171875</ele>
        <time>2020-06-23T15:06:04.000Z</time>
        <extensions>
          <ns3:TrackPointExtension>
            <ns3:atemp>23.0</ns3:atemp>
            <ns3:hr>89</ns3:hr>
          </ns3:TrackPointExtension>
        </extensions>
      </trkpt>
      <trkpt lat="47.7495430223643779754638671875" lon="12.24819523282349109649658203125">
        <ele>1536.199951171875</ele>
        <time>2020-06-23T15:06:05.000Z</time>
        <extensions>
          <ns3:TrackPointExtension>
            <ns3:atemp>23.0</ns3:atemp>
            <ns3:hr>89</ns3:hr>
          </ns3:TrackPointExtension>
        </extensions>
      </trkpt>
      <trkpt lat="47.74953388608992099761962890625" lon="12.24807746708393096923828125">
        <ele>1534</ele>
        <time>2020-06-23T15:06:06.000Z</time>
        <extensions>
          <ns3:TrackPointExtension>
            <ns3:atemp>23.0</ns3:atemp>
            <ns3:hr>89</ns3:hr>
          </ns3:TrackPointExtension>
        </extensions>
      </trkpt>
      <trkpt lat="47.74953707121312618255615234375" lon="12.24796674214303493499755859375">
        <ele>1531.5999755859375</ele>
        <time>2020-06-23T15:06:07.000Z</time>
        <extensions>
          <ns3:TrackPointExtension>
            <ns3:atemp>23.0</ns3:atemp>
            <ns3:hr>89</ns3:hr>
          </ns3:TrackPointExtension>
        </extensions>
      </trkpt>
      <trkpt lat="47.74955458939075469970703125" lon="12.2478700987994670867919921875">
        <ele>1529.5999755859375</ele>
        <time>2020-06-23T15:06:08.000Z</time>
        <extensions>
          <ns3:TrackPointExtension>
            <ns3:atemp>23.0</ns3:atemp>
            <ns3:hr>87</ns3:hr>
          </ns3:TrackPointExtension>
        </extensions>
      </trkpt>
      <trkpt lat="47.7495856024324893951416015625" lon="12.24779407493770122528076171875">
        <ele>1527.800048828125</ele>
        <time>2020-06-23T15:06:09.000Z</time>
        <extensions>
          <ns3:TrackPointExtension>
            <ns3:atemp>23.0</ns3:atemp>
            <ns3:hr>86</ns3:hr>
          </ns3:TrackPointExtension>
        </extensions>
      </trkpt>
      <trkpt lat="47.74962491355836391448974609375" lon="12.24774160422384738922119140625">
        <ele>1526</ele>
        <time>2020-06-23T15:06:10.000Z</time>
        <extensions>
          <ns3:TrackPointExtension>
            <ns3:atemp>23.0</ns3:atemp>
            <ns3:hr>86</ns3:hr>
          </ns3:TrackPointExtension>
        </extensions>
      </trkpt>
      <trkpt lat="47.7496697567403316497802734375" lon="12.24771394394338130950927734375">
        <ele>1524.199951171875</ele>
        <time>2020-06-23T15:06:11.000Z</time>
        <extensions>
          <ns3:TrackPointExtension>
            <ns3:atemp>23.0</ns3:atemp>
            <ns3:hr>86</ns3:hr>
          </ns3:TrackPointExtension>
        </extensions>
      </trkpt>
      <trkpt lat="47.7497187070548534393310546875" lon="12.2477187216281890869140625">
        <ele>1522.5999755859375</ele>
        <time>2020-06-23T15:06:12.000Z</time>
        <extensions>
          <ns3:TrackPointExtension>
            <ns3:atemp>23.0</ns3:atemp>
            <ns3:hr>86</ns3:hr>
          </ns3:TrackPointExtension>
        </extensions>
      </trkpt>
      <trkpt lat="47.7497686631977558135986328125" lon="12.247761972248554229736328125">
        <ele>1521</ele>
        <time>2020-06-23T15:06:13.000Z</time>
        <extensions>
          <ns3:TrackPointExtension>
            <ns3:atemp>23.0</ns3:atemp>
            <ns3:hr>86</ns3:hr>
          </ns3:TrackPointExtension>
        </extensions>
      </trkpt>
      <trkpt lat="47.74981115944683551788330078125" lon="12.2478442825376987457275390625">
        <ele>1519</ele>
        <time>2020-06-23T15:06:14.000Z</time>
        <extensions>
          <ns3:TrackPointExtension>
            <ns3:atemp>23.0</ns3:atemp>
            <ns3:hr>86</ns3:hr>
          </ns3:TrackPointExtension>
        </extensions>
      </trkpt>
      <trkpt lat="47.74983546696603298187255859375" lon="12.247953079640865325927734375">
        <ele>1516.5999755859375</ele>
        <time>2020-06-23T15:06:15.000Z</time>
        <extensions>
          <ns3:TrackPointExtension>
            <ns3:atemp>23.0</ns3:atemp>
            <ns3:hr>87</ns3:hr>
          </ns3:TrackPointExtension>
        </extensions>
      </trkpt>
      <trkpt lat="47.7498342096805572509765625" lon="12.24807101301848888397216796875">
        <ele>1514.4000244140625</ele>
        <time>2020-06-23T15:06:16.000Z</time>
        <extensions>
          <ns3:TrackPointExtension>
            <ns3:atemp>23.0</ns3:atemp>
            <ns3:hr>87</ns3:hr>
          </ns3:TrackPointExtension>
        </extensions>
      </trkpt>
      <trkpt lat="47.74981182999908924102783203125" lon="12.24818534217774868011474609375">
        <ele>1512.4000244140625</ele>
        <time>2020-06-23T15:06:17.000Z</time>
        <extensions>
          <ns3:TrackPointExtension>
            <ns3:atemp>23.0</ns3:atemp>
            <ns3:hr>88</ns3:hr>
          </ns3:TrackPointExtension>
        </extensions>
      </trkpt>
      <trkpt lat="47.749782912433147430419921875" lon="12.24829531274735927581787109375">
        <ele>1510.5999755859375</ele>
        <time>2020-06-23T15:06:18.000Z</time>
        <extensions>
          <ns3:TrackPointExtension>
            <ns3:atemp>23.0</ns3:atemp>
            <ns3:hr>88</ns3:hr>
          </ns3:TrackPointExtension>
        </extensions>
      </trkpt>
      <trkpt lat="47.74976204149425029754638671875" lon="12.248406708240509033203125">
        <ele>1508.800048828125</ele>
        <time>2020-06-23T15:06:19.000Z</time>
        <extensions>
          <ns3:TrackPointExtension>
            <ns3:atemp>23.0</ns3:atemp>
            <ns3:hr>88</ns3:hr>
          </ns3:TrackPointExtension>
        </extensions>
      </trkpt>
      <trkpt lat="47.74975298903882503509521484375" lon="12.24852296523749828338623046875">
        <ele>1507</ele>
        <time>2020-06-23T15:06:20.000Z</time>
        <extensions>
          <ns3:TrackPointExtension>
            <ns3:atemp>23.0</ns3:atemp>
            <ns3:hr>88</ns3:hr>
          </ns3:TrackPointExtension>
        </extensions>
      </trkpt>
      <trkpt lat="47.74974980391561985015869140625" lon="12.2486442513763904571533203125">
        <ele>1504.800048828125</ele>
        <time>2020-06-23T15:06:21.000Z</time>
        <extensions>
          <ns3:TrackPointExtension>
            <ns3:atemp>23.0</ns3:atemp>
            <ns3:hr>88</ns3:hr>
          </ns3:TrackPointExtension>
        </extensions>
      </trkpt>
      <trkpt lat="47.74974511004984378814697265625" lon="12.2487709857523441314697265625">
        <ele>1502.800048828125</ele>
        <time>2020-06-23T15:06:22.000Z</time>
        <extensions>
          <ns3:TrackPointExtension>
            <ns3:atemp>23.0</ns3:atemp>
            <ns3:hr>88</ns3:hr>
          </ns3:TrackPointExtension>
        </extensions>
      </trkpt>
      <trkpt lat="47.7497430145740509033203125" lon="12.248897552490234375">
        <ele>1501</ele>
        <time>2020-06-23T15:06:23.000Z</time>
        <extensions>
          <ns3:TrackPointExtension>
            <ns3:atemp>23.0</ns3:atemp>
            <ns3:hr>89</ns3:hr>
          </ns3:TrackPointExtension>
        </extensions>
      </trkpt>
      <trkpt lat="47.74975365959107875823974609375" lon="12.24901380948722362518310546875">
        <ele>1499.800048828125</ele>
        <time>2020-06-23T15:06:24.000Z</time>
        <extensions>
          <ns3:TrackPointExtension>
            <ns3:atemp>23.0</ns3:atemp>
            <ns3:hr>90</ns3:hr>
          </ns3:TrackPointExtension>
        </extensions>
      </trkpt>
      <trkpt lat="47.74978123605251312255859375" lon="12.2491179965436458587646484375">
        <ele>1499</ele>
        <time>2020-06-23T15:06:25.000Z</time>
        <extensions>
          <ns3:TrackPointExtension>
            <ns3:atemp>23.0</ns3:atemp>
            <ns3:hr>88</ns3:hr>
          </ns3:TrackPointExtension>
        </extensions>
      </trkpt>
      <trkpt lat="47.74981635622680187225341796875" lon="12.24921480752527713775634765625">
        <ele>1498.4000244140625</ele>
        <time>2020-06-23T15:06:26.000Z</time>
        <extensions>
          <ns3:TrackPointExtension>
            <ns3:atemp>23.0</ns3:atemp>
            <ns3:hr>88</ns3:hr>
          </ns3:TrackPointExtension>
        </extensions>
      </trkpt>
      <trkpt lat="47.7498449385166168212890625" lon="12.249314971268177032470703125">
        <ele>1498</ele>
        <time>2020-06-23T15:06:27.000Z</time>
        <extensions>
          <ns3:TrackPointExtension>
            <ns3:atemp>23.0</ns3:atemp>
            <ns3:hr>89</ns3:hr>
          </ns3:TrackPointExtension>
        </extensions>
      </trkpt>
      <trkpt lat="47.7498752810060977935791015625" lon="12.24952544085681438446044921875">
        <ele>1497.5999755859375</ele>
        <time>2020-06-23T15:06:29.000Z</time>
        <extensions>
          <ns3:TrackPointExtension>
            <ns3:atemp>23.0</ns3:atemp>
            <ns3:hr>88</ns3:hr>
          </ns3:TrackPointExtension>
        </extensions>
      </trkpt>
      <trkpt lat="47.74989497847855091094970703125" lon="12.24962132982909679412841796875">
        <ele>1497.5999755859375</ele>
        <time>2020-06-23T15:06:30.000Z</time>
        <extensions>
          <ns3:TrackPointExtension>
            <ns3:atemp>23.0</ns3:atemp>
            <ns3:hr>90</ns3:hr>
          </ns3:TrackPointExtension>
        </extensions>
      </trkpt>
      <trkpt lat="47.749966643750667572021484375" lon="12.249803803861141204833984375">
        <ele>1497.5999755859375</ele>
        <time>2020-06-23T15:06:32.000Z</time>
        <extensions>
          <ns3:TrackPointExtension>
            <ns3:atemp>23.0</ns3:atemp>
            <ns3:hr>89</ns3:hr>
          </ns3:TrackPointExtension>
        </extensions>
      </trkpt>
      <trkpt lat="47.75013436563313007354736328125" lon="12.2502710111439228057861328125">
        <ele>1497.5999755859375</ele>
        <time>2020-06-23T15:06:37.000Z</time>
        <extensions>
          <ns3:TrackPointExtension>
            <ns3:atemp>23.0</ns3:atemp>
            <ns3:hr>89</ns3:hr>
          </ns3:TrackPointExtension>
        </extensions>
      </trkpt>
      <trkpt lat="47.75029798038303852081298828125" lon="12.25062632001936435699462890625">
        <ele>1499.4000244140625</ele>
        <time>2020-06-23T15:06:42.000Z</time>
        <extensions>
          <ns3:TrackPointExtension>
            <ns3:atemp>23.0</ns3:atemp>
            <ns3:hr>89</ns3:hr>
          </ns3:TrackPointExtension>
        </extensions>
      </trkpt>
      <trkpt lat="47.75036394596099853515625" lon="12.25076210685074329376220703125">
        <ele>1500.4000244140625</ele>
        <time>2020-06-23T15:06:44.000Z</time>
        <extensions>
          <ns3:TrackPointExtension>
            <ns3:atemp>23.0</ns3:atemp>
            <ns3:hr>89</ns3:hr>
          </ns3:TrackPointExtension>
        </extensions>
      </trkpt>
      <trkpt lat="47.75038741528987884521484375" lon="12.2508285753428936004638671875">
        <ele>1501</ele>
        <time>2020-06-23T15:06:45.000Z</time>
        <extensions>
          <ns3:TrackPointExtension>
            <ns3:atemp>23.0</ns3:atemp>
            <ns3:hr>89</ns3:hr>
          </ns3:TrackPointExtension>
        </extensions>
      </trkpt>
      <trkpt lat="47.750404514372348785400390625" lon="12.250895798206329345703125">
        <ele>1501.800048828125</ele>
        <time>2020-06-23T15:06:46.000Z</time>
        <extensions>
          <ns3:TrackPointExtension>
            <ns3:atemp>23.0</ns3:atemp>
            <ns3:hr>89</ns3:hr>
          </ns3:TrackPointExtension>
        </extensions>
      </trkpt>
      <trkpt lat="47.7504189312458038330078125" lon="12.2509727440774440765380859375">
        <ele>1502.4000244140625</ele>
        <time>2020-06-23T15:06:47.000Z</time>
        <extensions>
          <ns3:TrackPointExtension>
            <ns3:atemp>23.0</ns3:atemp>
            <ns3:hr>89</ns3:hr>
          </ns3:TrackPointExtension>
        </extensions>
      </trkpt>
      <trkpt lat="47.75043477304279804229736328125" lon="12.25117147900164127349853515625">
        <ele>1503.5999755859375</ele>
        <time>2020-06-23T15:06:49.000Z</time>
        <extensions>
          <ns3:TrackPointExtension>
            <ns3:atemp>23.0</ns3:atemp>
            <ns3:hr>88</ns3:hr>
          </ns3:TrackPointExtension>
        </extensions>
      </trkpt>
      <trkpt lat="47.75042370893061161041259765625" lon="12.2512808628380298614501953125">
        <ele>1504.4000244140625</ele>
        <time>2020-06-23T15:06:50.000Z</time>
        <extensions>
          <ns3:TrackPointExtension>
            <ns3:atemp>23.0</ns3:atemp>
            <ns3:hr>88</ns3:hr>
          </ns3:TrackPointExtension>
        </extensions>
      </trkpt>
      <trkpt lat="47.7504001557826995849609375" lon="12.251394689083099365234375">
        <ele>1505.800048828125</ele>
        <time>2020-06-23T15:06:51.000Z</time>
        <extensions>
          <ns3:TrackPointExtension>
            <ns3:atemp>23.0</ns3:atemp>
            <ns3:hr>89</ns3:hr>
          </ns3:TrackPointExtension>
        </extensions>
      </trkpt>
      <trkpt lat="47.7503678016364574432373046875" lon="12.25151195190846920013427734375">
        <ele>1507</ele>
        <time>2020-06-23T15:06:52.000Z</time>
        <extensions>
          <ns3:TrackPointExtension>
            <ns3:atemp>23.0</ns3:atemp>
            <ns3:hr>90</ns3:hr>
          </ns3:TrackPointExtension>
        </extensions>
      </trkpt>
      <trkpt lat="47.75029010139405727386474609375" lon="12.25175871513783931732177734375">
        <ele>1508.5999755859375</ele>
        <time>2020-06-23T15:06:54.000Z</time>
        <extensions>
          <ns3:TrackPointExtension>
            <ns3:atemp>23.0</ns3:atemp>
            <ns3:hr>92</ns3:hr>
          </ns3:TrackPointExtension>
        </extensions>
      </trkpt>
      <trkpt lat="47.7502204477787017822265625" lon="12.251999191939830780029296875">
        <ele>1510</ele>
        <time>2020-06-23T15:06:56.000Z</time>
        <extensions>
          <ns3:TrackPointExtension>
            <ns3:atemp>23.0</ns3:atemp>
            <ns3:hr>92</ns3:hr>
          </ns3:TrackPointExtension>
        </extensions>
      </trkpt>
      <trkpt lat="47.7501998282968997955322265625" lon="12.25210237316787242889404296875">
        <ele>1511.199951171875</ele>
        <time>2020-06-23T15:06:57.000Z</time>
        <extensions>
          <ns3:TrackPointExtension>
            <ns3:atemp>23.0</ns3:atemp>
            <ns3:hr>92</ns3:hr>
          </ns3:TrackPointExtension>
        </extensions>
      </trkpt>
      <trkpt lat="47.75019102729856967926025390625" lon="12.2521968372166156768798828125">
        <ele>1512.4000244140625</ele>
        <time>2020-06-23T15:06:58.000Z</time>
        <extensions>
          <ns3:TrackPointExtension>
            <ns3:atemp>23.0</ns3:atemp>
            <ns3:hr>93</ns3:hr>
          </ns3:TrackPointExtension>
        </extensions>
      </trkpt>
      <trkpt lat="47.75019287131726741790771484375" lon="12.25228442810475826263427734375">
        <ele>1513.800048828125</ele>
        <time>2020-06-23T15:06:59.000Z</time>
        <extensions>
          <ns3:TrackPointExtension>
            <ns3:atemp>23.0</ns3:atemp>
            <ns3:hr>92</ns3:hr>
          </ns3:TrackPointExtension>
        </extensions>
      </trkpt>
      <trkpt lat="47.7502025105059146881103515625" lon="12.25236372090876102447509765625">
        <ele>1514.800048828125</ele>
        <time>2020-06-23T15:07:00.000Z</time>
        <extensions>
          <ns3:TrackPointExtension>
            <ns3:atemp>23.0</ns3:atemp>
            <ns3:hr>93</ns3:hr>
          </ns3:TrackPointExtension>
        </extensions>
      </trkpt>
      <trkpt lat="47.75021734647452831268310546875" lon="12.25243094377219676971435546875">
        <ele>1516</ele>
        <time>2020-06-23T15:07:01.000Z</time>
        <extensions>
          <ns3:TrackPointExtension>
            <ns3:atemp>23.0</ns3:atemp>
            <ns3:hr>94</ns3:hr>
          </ns3:TrackPointExtension>
        </extensions>
      </trkpt>
      <trkpt lat="47.7502370439469814300537109375" lon="12.25248425267636775970458984375">
        <ele>1517</ele>
        <time>2020-06-23T15:07:02.000Z</time>
        <extensions>
          <ns3:TrackPointExtension>
            <ns3:atemp>23.0</ns3:atemp>
            <ns3:hr>95</ns3:hr>
          </ns3:TrackPointExtension>
        </extensions>
      </trkpt>
      <trkpt lat="47.7502625249326229095458984375" lon="12.25252733565866947174072265625">
        <ele>1518.4000244140625</ele>
        <time>2020-06-23T15:07:03.000Z</time>
        <extensions>
          <ns3:TrackPointExtension>
            <ns3:atemp>23.0</ns3:atemp>
            <ns3:hr>96</ns3:hr>
          </ns3:TrackPointExtension>
        </extensions>
      </trkpt>
      <trkpt lat="47.75029161013662815093994140625" lon="12.2525649704039096832275390625">
        <ele>1519.4000244140625</ele>
        <time>2020-06-23T15:07:04.000Z</time>
        <extensions>
          <ns3:TrackPointExtension>
            <ns3:atemp>23.0</ns3:atemp>
            <ns3:hr>94</ns3:hr>
          </ns3:TrackPointExtension>
        </extensions>
      </trkpt>
      <trkpt lat="47.75035061873495578765869140625" lon="12.25265507586300373077392578125">
        <ele>1520.800048828125</ele>
        <time>2020-06-23T15:07:06.000Z</time>
        <extensions>
          <ns3:TrackPointExtension>
            <ns3:atemp>23.0</ns3:atemp>
            <ns3:hr>94</ns3:hr>
          </ns3:TrackPointExtension>
        </extensions>
      </trkpt>
      <trkpt lat="47.750385068356990814208984375" lon="12.25271693430840969085693359375">
        <ele>1521.4000244140625</ele>
        <time>2020-06-23T15:07:07.000Z</time>
        <extensions>
          <ns3:TrackPointExtension>
            <ns3:atemp>23.0</ns3:atemp>
            <ns3:hr>94</ns3:hr>
          </ns3:TrackPointExtension>
        </extensions>
      </trkpt>
      <trkpt lat="47.7504296600818634033203125" lon="12.25277460180222988128662109375">
        <ele>1521.800048828125</ele>
        <time>2020-06-23T15:07:08.000Z</time>
        <extensions>
          <ns3:TrackPointExtension>
            <ns3:atemp>23.0</ns3:atemp>
            <ns3:hr>94</ns3:hr>
          </ns3:TrackPointExtension>
        </extensions>
      </trkpt>
      <trkpt lat="47.75048037059605121612548828125" lon="12.2527979873120784759521484375">
        <ele>1522.800048828125</ele>
        <time>2020-06-23T15:07:09.000Z</time>
        <extensions>
          <ns3:TrackPointExtension>
            <ns3:atemp>23.0</ns3:atemp>
            <ns3:hr>95</ns3:hr>
          </ns3:TrackPointExtension>
        </extensions>
      </trkpt>
      <trkpt lat="47.7505263872444629669189453125" lon="12.2527647949755191802978515625">
        <ele>1523.800048828125</ele>
        <time>2020-06-23T15:07:10.000Z</time>
        <extensions>
          <ns3:TrackPointExtension>
            <ns3:atemp>23.0</ns3:atemp>
            <ns3:hr>94</ns3:hr>
          </ns3:TrackPointExtension>
        </extensions>
      </trkpt>
      <trkpt lat="47.75055748410522937774658203125" lon="12.2526861727237701416015625">
        <ele>1525</ele>
        <time>2020-06-23T15:07:11.000Z</time>
        <extensions>
          <ns3:TrackPointExtension>
            <ns3:atemp>23.0</ns3:atemp>
            <ns3:hr>93</ns3:hr>
          </ns3:TrackPointExtension>
        </extensions>
      </trkpt>
      <trkpt lat="47.75057039223611354827880859375" lon="12.25258651189506053924560546875">
        <ele>1526.199951171875</ele>
        <time>2020-06-23T15:07:12.000Z</time>
        <extensions>
          <ns3:TrackPointExtension>
            <ns3:atemp>23.0</ns3:atemp>
            <ns3:hr>92</ns3:hr>
          </ns3:TrackPointExtension>
        </extensions>
      </trkpt>
      <trkpt lat="47.75056620128452777862548828125" lon="12.252479977905750274658203125">
        <ele>1527.4000244140625</ele>
        <time>2020-06-23T15:07:13.000Z</time>
        <extensions>
          <ns3:TrackPointExtension>
            <ns3:atemp>23.0</ns3:atemp>
            <ns3:hr>91</ns3:hr>
          </ns3:TrackPointExtension>
        </extensions>
      </trkpt>
      <trkpt lat="47.75054809637367725372314453125" lon="12.2523638047277927398681640625">
        <ele>1528.800048828125</ele>
        <time>2020-06-23T15:07:14.000Z</time>
        <extensions>
          <ns3:TrackPointExtension>
            <ns3:atemp>23.0</ns3:atemp>
            <ns3:hr>91</ns3:hr>
          </ns3:TrackPointExtension>
        </extensions>
      </trkpt>
      <trkpt lat="47.750514484941959381103515625" lon="12.25224050693213939666748046875">
        <ele>1530.4000244140625</ele>
        <time>2020-06-23T15:07:15.000Z</time>
        <extensions>
          <ns3:TrackPointExtension>
            <ns3:atemp>23.0</ns3:atemp>
            <ns3:hr>90</ns3:hr>
          </ns3:TrackPointExtension>
        </extensions>
      </trkpt>
      <trkpt lat="47.7504593320190906524658203125" lon="12.2521153651177883148193359375">
        <ele>1532.199951171875</ele>
        <time>2020-06-23T15:07:16.000Z</time>
        <extensions>
          <ns3:TrackPointExtension>
            <ns3:atemp>23.0</ns3:atemp>
            <ns3:hr>90</ns3:hr>
          </ns3:TrackPointExtension>
        </extensions>
      </trkpt>
      <trkpt lat="47.75039034895598888397216796875" lon="12.25200631655752658843994140625">
        <ele>1533.800048828125</ele>
        <time>2020-06-23T15:07:17.000Z</time>
        <extensions>
          <ns3:TrackPointExtension>
            <ns3:atemp>23.0</ns3:atemp>
            <ns3:hr>90</ns3:hr>
          </ns3:TrackPointExtension>
        </extensions>
      </trkpt>
      <trkpt lat="47.75031306780874729156494140625" lon="12.251912690699100494384765625">
        <ele>1535.5999755859375</ele>
        <time>2020-06-23T15:07:18.000Z</time>
        <extensions>
          <ns3:TrackPointExtension>
            <ns3:atemp>23.0</ns3:atemp>
            <ns3:hr>91</ns3:hr>
          </ns3:TrackPointExtension>
        </extensions>
      </trkpt>
      <trkpt lat="47.7502303384244441986083984375" lon="12.2518287040293216705322265625">
        <ele>1537.4000244140625</ele>
        <time>2020-06-23T15:07:19.000Z</time>
        <extensions>
          <ns3:TrackPointExtension>
            <ns3:atemp>23.0</ns3:atemp>
            <ns3:hr>91</ns3:hr>
          </ns3:TrackPointExtension>
        </extensions>
      </trkpt>
      <trkpt lat="47.75014459155499935150146484375" lon="12.25175209343433380126953125">
        <ele>1539</ele>
        <time>2020-06-23T15:07:20.000Z</time>
        <extensions>
          <ns3:TrackPointExtension>
            <ns3:atemp>23.0</ns3:atemp>
            <ns3:hr>91</ns3:hr>
          </ns3:TrackPointExtension>
        </extensions>
      </trkpt>
      <trkpt lat="47.75005809031426906585693359375" lon="12.2516771592199802398681640625">
        <ele>1540.5999755859375</ele>
        <time>2020-06-23T15:07:21.000Z</time>
        <extensions>
          <ns3:TrackPointExtension>
            <ns3:atemp>23.0</ns3:atemp>
            <ns3:hr>91</ns3:hr>
          </ns3:TrackPointExtension>
        </extensions>
      </trkpt>
      <trkpt lat="47.74997494183480739593505859375" lon="12.2516030631959438323974609375">
        <ele>1542.4000244140625</ele>
        <time>2020-06-23T15:07:22.000Z</time>
        <extensions>
          <ns3:TrackPointExtension>
            <ns3:atemp>23.0</ns3:atemp>
            <ns3:hr>91</ns3:hr>
          </ns3:TrackPointExtension>
        </extensions>
      </trkpt>
      <trkpt lat="47.74989816360175609588623046875" lon="12.25152502767741680145263671875">
        <ele>1543.800048828125</ele>
        <time>2020-06-23T15:07:23.000Z</time>
        <extensions>
          <ns3:TrackPointExtension>
            <ns3:atemp>23.0</ns3:atemp>
            <ns3:hr>92</ns3:hr>
          </ns3:TrackPointExtension>
        </extensions>
      </trkpt>
      <trkpt lat="47.7498280070722103118896484375" lon="12.2514374367892742156982421875">
        <ele>1545</ele>
        <time>2020-06-23T15:07:24.000Z</time>
        <extensions>
          <ns3:TrackPointExtension>
            <ns3:atemp>23.0</ns3:atemp>
            <ns3:hr>94</ns3:hr>
          </ns3:TrackPointExtension>
        </extensions>
      </trkpt>
      <trkpt lat="47.74976589716970920562744140625" lon="12.25134163163602352142333984375">
        <ele>1546.199951171875</ele>
        <time>2020-06-23T15:07:25.000Z</time>
        <extensions>
          <ns3:TrackPointExtension>
            <ns3:atemp>23.0</ns3:atemp>
            <ns3:hr>92</ns3:hr>
          </ns3:TrackPointExtension>
        </extensions>
      </trkpt>
      <trkpt lat="47.7497120015323162078857421875" lon="12.25124473683536052703857421875">
        <ele>1547.4000244140625</ele>
        <time>2020-06-23T15:07:26.000Z</time>
        <extensions>
          <ns3:TrackPointExtension>
            <ns3:atemp>23.0</ns3:atemp>
            <ns3:hr>93</ns3:hr>
          </ns3:TrackPointExtension>
        </extensions>
      </trkpt>
      <trkpt lat="47.749665565788745880126953125" lon="12.25115354172885417938232421875">
        <ele>1548.4000244140625</ele>
        <time>2020-06-23T15:07:27.000Z</time>
        <extensions>
          <ns3:TrackPointExtension>
            <ns3:atemp>23.0</ns3:atemp>
            <ns3:hr>95</ns3:hr>
          </ns3:TrackPointExtension>
        </extensions>
      </trkpt>
      <trkpt lat="47.74962742812931537628173828125" lon="12.25106419064104557037353515625">
        <ele>1549.199951171875</ele>
        <time>2020-06-23T15:07:28.000Z</time>
        <extensions>
          <ns3:TrackPointExtension>
            <ns3:atemp>23.0</ns3:atemp>
            <ns3:hr>92</ns3:hr>
          </ns3:TrackPointExtension>
        </extensions>
      </trkpt>
      <trkpt lat="47.74959524162113666534423828125" lon="12.250969223678112030029296875">
        <ele>1550.199951171875</ele>
        <time>2020-06-23T15:07:29.000Z</time>
        <extensions>
          <ns3:TrackPointExtension>
            <ns3:atemp>23.0</ns3:atemp>
            <ns3:hr>91</ns3:hr>
          </ns3:TrackPointExtension>
        </extensions>
      </trkpt>
      <trkpt lat="47.74956531822681427001953125" lon="12.2508649528026580810546875">
        <ele>1551.199951171875</ele>
        <time>2020-06-23T15:07:30.000Z</time>
        <extensions>
          <ns3:TrackPointExtension>
            <ns3:atemp>23.0</ns3:atemp>
            <ns3:hr>92</ns3:hr>
          </ns3:TrackPointExtension>
        </extensions>
      </trkpt>
      <trkpt lat="47.74953640066087245941162109375" lon="12.2507554851472377777099609375">
        <ele>1552</ele>
        <time>2020-06-23T15:07:31.000Z</time>
        <extensions>
          <ns3:TrackPointExtension>
            <ns3:atemp>23.0</ns3:atemp>
            <ns3:hr>92</ns3:hr>
          </ns3:TrackPointExtension>
        </extensions>
      </trkpt>
      <trkpt lat="47.74950890801846981048583984375" lon="12.25064677186310291290283203125">
        <ele>1553</ele>
        <time>2020-06-23T15:07:32.000Z</time>
        <extensions>
          <ns3:TrackPointExtension>
            <ns3:atemp>23.0</ns3:atemp>
            <ns3:hr>91</ns3:hr>
          </ns3:TrackPointExtension>
        </extensions>
      </trkpt>
      <trkpt lat="47.749485187232494354248046875" lon="12.25054484792053699493408203125">
        <ele>1554</ele>
        <time>2020-06-23T15:07:33.000Z</time>
        <extensions>
          <ns3:TrackPointExtension>
            <ns3:atemp>23.0</ns3:atemp>
            <ns3:hr>91</ns3:hr>
          </ns3:TrackPointExtension>
        </extensions>
      </trkpt>
      <trkpt lat="47.74945626966655254364013671875" lon="12.25036212243139743804931640625">
        <ele>1555.199951171875</ele>
        <time>2020-06-23T15:07:35.000Z</time>
        <extensions>
          <ns3:TrackPointExtension>
            <ns3:atemp>23.0</ns3:atemp>
            <ns3:hr>91</ns3:hr>
          </ns3:TrackPointExtension>
        </extensions>
      </trkpt>
      <trkpt lat="47.74941704235970973968505859375" lon="12.2500105015933513641357421875">
        <ele>1556</ele>
        <time>2020-06-23T15:07:38.000Z</time>
        <extensions>
          <ns3:TrackPointExtension>
            <ns3:atemp>23.0</ns3:atemp>
            <ns3:hr>91</ns3:hr>
          </ns3:TrackPointExtension>
        </extensions>
      </trkpt>
      <trkpt lat="47.74941603653132915496826171875" lon="12.2498998604714870452880859375">
        <ele>1556.199951171875</ele>
        <time>2020-06-23T15:07:39.000Z</time>
        <extensions>
          <ns3:TrackPointExtension>
            <ns3:atemp>23.0</ns3:atemp>
            <ns3:hr>92</ns3:hr>
          </ns3:TrackPointExtension>
        </extensions>
      </trkpt>
      <trkpt lat="47.7494380809366703033447265625" lon="12.249819226562976837158203125">
        <ele>1556.199951171875</ele>
        <time>2020-06-23T15:07:40.000Z</time>
        <extensions>
          <ns3:TrackPointExtension>
            <ns3:atemp>23.0</ns3:atemp>
            <ns3:hr>93</ns3:hr>
          </ns3:TrackPointExtension>
        </extensions>
      </trkpt>
      <trkpt lat="47.749483175575733184814453125" lon="12.24977404810488224029541015625">
        <ele>1556.4000244140625</ele>
        <time>2020-06-23T15:07:41.000Z</time>
        <extensions>
          <ns3:TrackPointExtension>
            <ns3:atemp>23.0</ns3:atemp>
            <ns3:hr>92</ns3:hr>
          </ns3:TrackPointExtension>
        </extensions>
      </trkpt>
      <trkpt lat="47.74954377673566341400146484375" lon="12.24976281635463237762451171875">
        <ele>1556.5999755859375</ele>
        <time>2020-06-23T15:07:42.000Z</time>
        <extensions>
          <ns3:TrackPointExtension>
            <ns3:atemp>23.0</ns3:atemp>
            <ns3:hr>91</ns3:hr>
          </ns3:TrackPointExtension>
        </extensions>
      </trkpt>
      <trkpt lat="47.74960563518106937408447265625" lon="12.249782346189022064208984375">
        <ele>1557</ele>
        <time>2020-06-23T15:07:43.000Z</time>
        <extensions>
          <ns3:TrackPointExtension>
            <ns3:atemp>23.0</ns3:atemp>
            <ns3:hr>91</ns3:hr>
          </ns3:TrackPointExtension>
        </extensions>
      </trkpt>
      <trkpt lat="47.74965559132397174835205078125" lon="12.24983389489352703094482421875">
        <ele>1557.4000244140625</ele>
        <time>2020-06-23T15:07:44.000Z</time>
        <extensions>
          <ns3:TrackPointExtension>
            <ns3:atemp>23.0</ns3:atemp>
            <ns3:hr>92</ns3:hr>
          </ns3:TrackPointExtension>
        </extensions>
      </trkpt>
      <trkpt lat="47.74968660436570644378662109375" lon="12.2499079070985317230224609375">
        <ele>1558</ele>
        <time>2020-06-23T15:07:45.000Z</time>
        <extensions>
          <ns3:TrackPointExtension>
            <ns3:atemp>23.0</ns3:atemp>
            <ns3:hr>91</ns3:hr>
          </ns3:TrackPointExtension>
        </extensions>
      </trkpt>
      <trkpt lat="47.7497069723904132843017578125" lon="12.24999281577765941619873046875">
        <ele>1559</ele>
        <time>2020-06-23T15:07:46.000Z</time>
        <extensions>
          <ns3:TrackPointExtension>
            <ns3:atemp>23.0</ns3:atemp>
            <ns3:hr>91</ns3:hr>
          </ns3:TrackPointExtension>
        </extensions>
      </trkpt>
      <trkpt lat="47.74972759187221527099609375" lon="12.25008082576096057891845703125">
        <ele>1560.4000244140625</ele>
        <time>2020-06-23T15:07:47.000Z</time>
        <extensions>
          <ns3:TrackPointExtension>
            <ns3:atemp>23.0</ns3:atemp>
            <ns3:hr>89</ns3:hr>
          </ns3:TrackPointExtension>
        </extensions>
      </trkpt>
      <trkpt lat="47.7497575990855693817138671875" lon="12.25017017684876918792724609375">
        <ele>1561.800048828125</ele>
        <time>2020-06-23T15:07:48.000Z</time>
        <extensions>
          <ns3:TrackPointExtension>
            <ns3:atemp>23.0</ns3:atemp>
            <ns3:hr>87</ns3:hr>
          </ns3:TrackPointExtension>
        </extensions>
      </trkpt>
      <trkpt lat="47.7498261630535125732421875" lon="12.25036002695560455322265625">
        <ele>1563.4000244140625</ele>
        <time>2020-06-23T15:07:50.000Z</time>
        <extensions>
          <ns3:TrackPointExtension>
            <ns3:atemp>23.0</ns3:atemp>
            <ns3:hr>85</ns3:hr>
          </ns3:TrackPointExtension>
        </extensions>
      </trkpt>
      <trkpt lat="47.74985021911561489105224609375" lon="12.25046136416494846343994140625">
        <ele>1564.4000244140625</ele>
        <time>2020-06-23T15:07:51.000Z</time>
        <extensions>
          <ns3:TrackPointExtension>
            <ns3:atemp>23.0</ns3:atemp>
            <ns3:hr>87</ns3:hr>
          </ns3:TrackPointExtension>
        </extensions>
      </trkpt>
      <trkpt lat="47.74987067095935344696044921875" lon="12.250564210116863250732421875">
        <ele>1565.5999755859375</ele>
        <time>2020-06-23T15:07:52.000Z</time>
        <extensions>
          <ns3:TrackPointExtension>
            <ns3:atemp>23.0</ns3:atemp>
            <ns3:hr>92</ns3:hr>
          </ns3:TrackPointExtension>
        </extensions>
      </trkpt>
      <trkpt lat="47.74989447556436061859130859375" lon="12.25066621787846088409423828125">
        <ele>1567</ele>
        <time>2020-06-23T15:07:53.000Z</time>
        <extensions>
          <ns3:TrackPointExtension>
            <ns3:atemp>23.0</ns3:atemp>
            <ns3:hr>96</ns3:hr>
          </ns3:TrackPointExtension>
        </extensions>
      </trkpt>
      <trkpt lat="47.74992465041577816009521484375" lon="12.25077132694423198699951171875">
        <ele>1568.4000244140625</ele>
        <time>2020-06-23T15:07:54.000Z</time>
        <extensions>
          <ns3:TrackPointExtension>
            <ns3:atemp>23.0</ns3:atemp>
            <ns3:hr>101</ns3:hr>
          </ns3:TrackPointExtension>
        </extensions>
      </trkpt>
      <trkpt lat="47.74995700456202030181884765625" lon="12.25088364444673061370849609375">
        <ele>1569.5999755859375</ele>
        <time>2020-06-23T15:07:55.000Z</time>
        <extensions>
          <ns3:TrackPointExtension>
            <ns3:atemp>23.0</ns3:atemp>
            <ns3:hr>103</ns3:hr>
          </ns3:TrackPointExtension>
        </extensions>
      </trkpt>
      <trkpt lat="47.7499844133853912353515625" lon="12.2510012425482273101806640625">
        <ele>1570.800048828125</ele>
        <time>2020-06-23T15:07:56.000Z</time>
        <extensions>
          <ns3:TrackPointExtension>
            <ns3:atemp>23.0</ns3:atemp>
            <ns3:hr>106</ns3:hr>
          </ns3:TrackPointExtension>
        </extensions>
      </trkpt>
      <trkpt lat="47.75000612251460552215576171875" lon="12.2511159069836139678955078125">
        <ele>1572.199951171875</ele>
        <time>2020-06-23T15:07:57.000Z</time>
        <extensions>
          <ns3:TrackPointExtension>
            <ns3:atemp>23.0</ns3:atemp>
            <ns3:hr>105</ns3:hr>
          </ns3:TrackPointExtension>
        </extensions>
      </trkpt>
      <trkpt lat="47.75002322159707546234130859375" lon="12.2512245364487171173095703125">
        <ele>1573.800048828125</ele>
        <time>2020-06-23T15:07:58.000Z</time>
        <extensions>
          <ns3:TrackPointExtension>
            <ns3:atemp>23.0</ns3:atemp>
            <ns3:hr>105</ns3:hr>
          </ns3:TrackPointExtension>
        </extensions>
      </trkpt>
      <trkpt lat="47.75003713555634021759033203125" lon="12.25133098661899566650390625">
        <ele>1575.5999755859375</ele>
        <time>2020-06-23T15:07:59.000Z</time>
        <extensions>
          <ns3:TrackPointExtension>
            <ns3:atemp>23.0</ns3:atemp>
            <ns3:hr>105</ns3:hr>
          </ns3:TrackPointExtension>
        </extensions>
      </trkpt>
      <trkpt lat="47.75004803203046321868896484375" lon="12.25144565105438232421875">
        <ele>1577.199951171875</ele>
        <time>2020-06-23T15:08:00.000Z</time>
        <extensions>
          <ns3:TrackPointExtension>
            <ns3:atemp>23.0</ns3:atemp>
            <ns3:hr>105</ns3:hr>
          </ns3:TrackPointExtension>
        </extensions>
      </trkpt>
      <trkpt lat="47.7500573359429836273193359375" lon="12.251576744019985198974609375">
        <ele>1578.5999755859375</ele>
        <time>2020-06-23T15:08:01.000Z</time>
        <extensions>
          <ns3:TrackPointExtension>
            <ns3:atemp>23.0</ns3:atemp>
            <ns3:hr>105</ns3:hr>
          </ns3:TrackPointExtension>
        </extensions>
      </trkpt>
      <trkpt lat="47.75006161071360111236572265625" lon="12.25171948783099651336669921875">
        <ele>1580</ele>
        <time>2020-06-23T15:08:02.000Z</time>
        <extensions>
          <ns3:TrackPointExtension>
            <ns3:atemp>23.0</ns3:atemp>
            <ns3:hr>105</ns3:hr>
          </ns3:TrackPointExtension>
        </extensions>
      </trkpt>
      <trkpt lat="47.75005884468555450439453125" lon="12.25185812450945377349853515625">
        <ele>1581.5999755859375</ele>
        <time>2020-06-23T15:08:03.000Z</time>
        <extensions>
          <ns3:TrackPointExtension>
            <ns3:atemp>23.0</ns3:atemp>
            <ns3:hr>105</ns3:hr>
          </ns3:TrackPointExtension>
        </extensions>
      </trkpt>
      <trkpt lat="47.75004903785884380340576171875" lon="12.25198133848607540130615234375">
        <ele>1583.199951171875</ele>
        <time>2020-06-23T15:08:04.000Z</time>
        <extensions>
          <ns3:TrackPointExtension>
            <ns3:atemp>23.0</ns3:atemp>
            <ns3:hr>105</ns3:hr>
          </ns3:TrackPointExtension>
        </extensions>
      </trkpt>
      <trkpt lat="47.7500355429947376251220703125" lon="12.25208929739892482757568359375">
        <ele>1585.199951171875</ele>
        <time>2020-06-23T15:08:05.000Z</time>
        <extensions>
          <ns3:TrackPointExtension>
            <ns3:atemp>23.0</ns3:atemp>
            <ns3:hr>105</ns3:hr>
          </ns3:TrackPointExtension>
        </extensions>
      </trkpt>
      <trkpt lat="47.75002397596836090087890625" lon="12.2521914727985858917236328125">
        <ele>1587.800048828125</ele>
        <time>2020-06-23T15:08:06.000Z</time>
        <extensions>
          <ns3:TrackPointExtension>
            <ns3:atemp>23.0</ns3:atemp>
            <ns3:hr>105</ns3:hr>
          </ns3:TrackPointExtension>
        </extensions>
      </trkpt>
      <trkpt lat="47.750018946826457977294921875" lon="12.2522977553308010101318359375">
        <ele>1590.199951171875</ele>
        <time>2020-06-23T15:08:07.000Z</time>
        <extensions>
          <ns3:TrackPointExtension>
            <ns3:atemp>23.0</ns3:atemp>
            <ns3:hr>106</ns3:hr>
          </ns3:TrackPointExtension>
        </extensions>
      </trkpt>
      <trkpt lat="47.75002171285450458526611328125" lon="12.25240965373814105987548828125">
        <ele>1592.4000244140625</ele>
        <time>2020-06-23T15:08:08.000Z</time>
        <extensions>
          <ns3:TrackPointExtension>
            <ns3:atemp>23.0</ns3:atemp>
            <ns3:hr>106</ns3:hr>
          </ns3:TrackPointExtension>
        </extensions>
      </trkpt>
      <trkpt lat="47.7500315196812152862548828125" lon="12.2525225579738616943359375">
        <ele>1594.5999755859375</ele>
        <time>2020-06-23T15:08:09.000Z</time>
        <extensions>
          <ns3:TrackPointExtension>
            <ns3:atemp>23.0</ns3:atemp>
            <ns3:hr>103</ns3:hr>
          </ns3:TrackPointExtension>
        </extensions>
      </trkpt>
      <trkpt lat="47.75004350580275058746337890625" lon="12.2526313550770282745361328125">
        <ele>1596.800048828125</ele>
        <time>2020-06-23T15:08:10.000Z</time>
        <extensions>
          <ns3:TrackPointExtension>
            <ns3:atemp>23.0</ns3:atemp>
            <ns3:hr>104</ns3:hr>
          </ns3:TrackPointExtension>
        </extensions>
      </trkpt>
      <trkpt lat="47.750055491924285888671875" lon="12.25273185409605503082275390625">
        <ele>1599</ele>
        <time>2020-06-23T15:08:11.000Z</time>
        <extensions>
          <ns3:TrackPointExtension>
            <ns3:atemp>23.0</ns3:atemp>
            <ns3:hr>102</ns3:hr>
          </ns3:TrackPointExtension>
        </extensions>
      </trkpt>
      <trkpt lat="47.75006848387420177459716796875" lon="12.252826988697052001953125">
        <ele>1601.4000244140625</ele>
        <time>2020-06-23T15:08:12.000Z</time>
        <extensions>
          <ns3:TrackPointExtension>
            <ns3:atemp>23.0</ns3:atemp>
            <ns3:hr>101</ns3:hr>
          </ns3:TrackPointExtension>
        </extensions>
      </trkpt>
      <trkpt lat="47.75008675642311573028564453125" lon="12.25291709415614604949951171875">
        <ele>1603.5999755859375</ele>
        <time>2020-06-23T15:08:13.000Z</time>
        <extensions>
          <ns3:TrackPointExtension>
            <ns3:atemp>23.0</ns3:atemp>
            <ns3:hr>101</ns3:hr>
          </ns3:TrackPointExtension>
        </extensions>
      </trkpt>
      <trkpt lat="47.7501131594181060791015625" lon="12.25300091318786144256591796875">
        <ele>1605.800048828125</ele>
        <time>2020-06-23T15:08:14.000Z</time>
        <extensions>
          <ns3:TrackPointExtension>
            <ns3:atemp>23.0</ns3:atemp>
            <ns3:hr>102</ns3:hr>
          </ns3:TrackPointExtension>
        </extensions>
      </trkpt>
      <trkpt lat="47.750147022306919097900390625" lon="12.25307635031640529632568359375">
        <ele>1608.199951171875</ele>
        <time>2020-06-23T15:08:15.000Z</time>
        <extensions>
          <ns3:TrackPointExtension>
            <ns3:atemp>23.0</ns3:atemp>
            <ns3:hr>100</ns3:hr>
          </ns3:TrackPointExtension>
        </extensions>
      </trkpt>
      <trkpt lat="47.7501847408711910247802734375" lon="12.25314281880855560302734375">
        <ele>1611</ele>
        <time>2020-06-23T15:08:16.000Z</time>
        <extensions>
          <ns3:TrackPointExtension>
            <ns3:atemp>23.0</ns3:atemp>
            <ns3:hr>101</ns3:hr>
          </ns3:TrackPointExtension>
        </extensions>
      </trkpt>
      <trkpt lat="47.7502236329019069671630859375" lon="12.25320057012140750885009765625">
        <ele>1613.800048828125</ele>
        <time>2020-06-23T15:08:17.000Z</time>
        <extensions>
          <ns3:TrackPointExtension>
            <ns3:atemp>23.0</ns3:atemp>
            <ns3:hr>101</ns3:hr>
          </ns3:TrackPointExtension>
        </extensions>
      </trkpt>
      <trkpt lat="47.750262357294559478759765625" lon="12.253251112997531890869140625">
        <ele>1616.5999755859375</ele>
        <time>2020-06-23T15:08:18.000Z</time>
        <extensions>
          <ns3:TrackPointExtension>
            <ns3:atemp>23.0</ns3:atemp>
            <ns3:hr>99</ns3:hr>
          </ns3:TrackPointExtension>
        </extensions>
      </trkpt>
      <trkpt lat="47.750300578773021697998046875" lon="12.2532972134649753570556640625">
        <ele>1619</ele>
        <time>2020-06-23T15:08:19.000Z</time>
        <extensions>
          <ns3:TrackPointExtension>
            <ns3:atemp>23.0</ns3:atemp>
            <ns3:hr>99</ns3:hr>
          </ns3:TrackPointExtension>
        </extensions>
      </trkpt>
      <trkpt lat="47.75033938698470592498779296875" lon="12.25334054790437221527099609375">
        <ele>1621.199951171875</ele>
        <time>2020-06-23T15:08:20.000Z</time>
        <extensions>
          <ns3:TrackPointExtension>
            <ns3:atemp>23.0</ns3:atemp>
            <ns3:hr>101</ns3:hr>
          </ns3:TrackPointExtension>
        </extensions>
      </trkpt>
      <trkpt lat="47.75038540363311767578125" lon="12.25338178686797618865966796875">
        <ele>1622.800048828125</ele>
        <time>2020-06-23T15:08:21.000Z</time>
        <extensions>
          <ns3:TrackPointExtension>
            <ns3:atemp>23.0</ns3:atemp>
            <ns3:hr>101</ns3:hr>
          </ns3:TrackPointExtension>
        </extensions>
      </trkpt>
      <trkpt lat="47.75044499896466732025146484375" lon="12.25342101417481899261474609375">
        <ele>1623.800048828125</ele>
        <time>2020-06-23T15:08:22.000Z</time>
        <extensions>
          <ns3:TrackPointExtension>
            <ns3:atemp>23.0</ns3:atemp>
            <ns3:hr>102</ns3:hr>
          </ns3:TrackPointExtension>
        </extensions>
      </trkpt>
      <trkpt lat="47.75051750242710113525390625" lon="12.2534591518342494964599609375">
        <ele>1625</ele>
        <time>2020-06-23T15:08:23.000Z</time>
        <extensions>
          <ns3:TrackPointExtension>
            <ns3:atemp>23.0</ns3:atemp>
            <ns3:hr>101</ns3:hr>
          </ns3:TrackPointExtension>
        </extensions>
      </trkpt>
      <trkpt lat="47.75058648549020290374755859375" lon="12.25348991341888904571533203125">
        <ele>1626.199951171875</ele>
        <time>2020-06-23T15:08:24.000Z</time>
        <extensions>
          <ns3:TrackPointExtension>
            <ns3:atemp>23.0</ns3:atemp>
            <ns3:hr>101</ns3:hr>
          </ns3:TrackPointExtension>
        </extensions>
      </trkpt>
      <trkpt lat="47.7506407164037227630615234375" lon="12.2535020671784877777099609375">
        <ele>1628</ele>
        <time>2020-06-23T15:08:25.000Z</time>
        <extensions>
          <ns3:TrackPointExtension>
            <ns3:atemp>23.0</ns3:atemp>
            <ns3:hr>101</ns3:hr>
          </ns3:TrackPointExtension>
        </extensions>
      </trkpt>
      <trkpt lat="47.75067499838769435882568359375" lon="12.25347817875444889068603515625">
        <ele>1629.800048828125</ele>
        <time>2020-06-23T15:08:26.000Z</time>
        <extensions>
          <ns3:TrackPointExtension>
            <ns3:atemp>23.0</ns3:atemp>
            <ns3:hr>101</ns3:hr>
          </ns3:TrackPointExtension>
        </extensions>
      </trkpt>
      <trkpt lat="47.75070282630622386932373046875" lon="12.25341816432774066925048828125">
        <ele>1631.4000244140625</ele>
        <time>2020-06-23T15:08:27.000Z</time>
        <extensions>
          <ns3:TrackPointExtension>
            <ns3:atemp>23.0</ns3:atemp>
            <ns3:hr>101</ns3:hr>
          </ns3:TrackPointExtension>
        </extensions>
      </trkpt>
      <trkpt lat="47.750737778842449188232421875" lon="12.25333367474377155303955078125">
        <ele>1633.199951171875</ele>
        <time>2020-06-23T15:08:28.000Z</time>
        <extensions>
          <ns3:TrackPointExtension>
            <ns3:atemp>23.0</ns3:atemp>
            <ns3:hr>101</ns3:hr>
          </ns3:TrackPointExtension>
        </extensions>
      </trkpt>
      <trkpt lat="47.75077407248318195343017578125" lon="12.2532288171350955963134765625">
        <ele>1635</ele>
        <time>2020-06-23T15:08:29.000Z</time>
        <extensions>
          <ns3:TrackPointExtension>
            <ns3:atemp>23.0</ns3:atemp>
            <ns3:hr>101</ns3:hr>
          </ns3:TrackPointExtension>
        </extensions>
      </trkpt>
      <trkpt lat="47.750796787440776824951171875" lon="12.2530957125127315521240234375">
        <ele>1636.4000244140625</ele>
        <time>2020-06-23T15:08:30.000Z</time>
        <extensions>
          <ns3:TrackPointExtension>
            <ns3:atemp>23.0</ns3:atemp>
            <ns3:hr>101</ns3:hr>
          </ns3:TrackPointExtension>
        </extensions>
      </trkpt>
      <trkpt lat="47.7507865615189075469970703125" lon="12.2529377974569797515869140625">
        <ele>1637.800048828125</ele>
        <time>2020-06-23T15:08:31.000Z</time>
        <extensions>
          <ns3:TrackPointExtension>
            <ns3:atemp>23.0</ns3:atemp>
            <ns3:hr>103</ns3:hr>
          </ns3:TrackPointExtension>
        </extensions>
      </trkpt>
      <trkpt lat="47.7507402934134006500244140625" lon="12.25277426652610301971435546875">
        <ele>1638.800048828125</ele>
        <time>2020-06-23T15:08:32.000Z</time>
        <extensions>
          <ns3:TrackPointExtension>
            <ns3:atemp>23.0</ns3:atemp>
            <ns3:hr>102</ns3:hr>
          </ns3:TrackPointExtension>
        </extensions>
      </trkpt>
      <trkpt lat="47.75067516602575778961181640625" lon="12.25262205116450786590576171875">
        <ele>1639.800048828125</ele>
        <time>2020-06-23T15:08:33.000Z</time>
        <extensions>
          <ns3:TrackPointExtension>
            <ns3:atemp>23.0</ns3:atemp>
            <ns3:hr>100</ns3:hr>
          </ns3:TrackPointExtension>
        </extensions>
      </trkpt>
      <trkpt lat="47.7506031654775142669677734375" lon="12.25247872062027454376220703125">
        <ele>1640.5999755859375</ele>
        <time>2020-06-23T15:08:34.000Z</time>
        <extensions>
          <ns3:TrackPointExtension>
            <ns3:atemp>23.0</ns3:atemp>
            <ns3:hr>98</ns3:hr>
          </ns3:TrackPointExtension>
        </extensions>
      </trkpt>
      <trkpt lat="47.75052295066416263580322265625" lon="12.25233572535216808319091796875">
        <ele>1641.800048828125</ele>
        <time>2020-06-23T15:08:35.000Z</time>
        <extensions>
          <ns3:TrackPointExtension>
            <ns3:atemp>23.0</ns3:atemp>
            <ns3:hr>97</ns3:hr>
          </ns3:TrackPointExtension>
        </extensions>
      </trkpt>
      <trkpt lat="47.75043225847184658050537109375" lon="12.2521908022463321685791015625">
        <ele>1643.199951171875</ele>
        <time>2020-06-23T15:08:36.000Z</time>
        <extensions>
          <ns3:TrackPointExtension>
            <ns3:atemp>23.0</ns3:atemp>
            <ns3:hr>95</ns3:hr>
          </ns3:TrackPointExtension>
        </extensions>
      </trkpt>
      <trkpt lat="47.7503342740237712860107421875" lon="12.25204847753047943115234375">
        <ele>1644.4000244140625</ele>
        <time>2020-06-23T15:08:37.000Z</time>
        <extensions>
          <ns3:TrackPointExtension>
            <ns3:atemp>23.0</ns3:atemp>
            <ns3:hr>93</ns3:hr>
          </ns3:TrackPointExtension>
        </extensions>
      </trkpt>
      <trkpt lat="47.7501512132585048675537109375" lon="12.2517784126102924346923828125">
        <ele>1646.199951171875</ele>
        <time>2020-06-23T15:08:39.000Z</time>
        <extensions>
          <ns3:TrackPointExtension>
            <ns3:atemp>23.0</ns3:atemp>
            <ns3:hr>93</ns3:hr>
          </ns3:TrackPointExtension>
        </extensions>
      </trkpt>
      <trkpt lat="47.7499621175229549407958984375" lon="12.251517735421657562255859375">
        <ele>1648</ele>
        <time>2020-06-23T15:08:41.000Z</time>
        <extensions>
          <ns3:TrackPointExtension>
            <ns3:atemp>23.0</ns3:atemp>
            <ns3:hr>93</ns3:hr>
          </ns3:TrackPointExtension>
        </extensions>
      </trkpt>
      <trkpt lat="47.74973873980343341827392578125" lon="12.25123736076056957244873046875">
        <ele>1649.199951171875</ele>
        <time>2020-06-23T15:08:43.000Z</time>
        <extensions>
          <ns3:TrackPointExtension>
            <ns3:atemp>23.0</ns3:atemp>
            <ns3:hr>93</ns3:hr>
          </ns3:TrackPointExtension>
        </extensions>
      </trkpt>
      <trkpt lat="47.7496399171650409698486328125" lon="12.251102663576602935791015625">
        <ele>1650.199951171875</ele>
        <time>2020-06-23T15:08:44.000Z</time>
        <extensions>
          <ns3:TrackPointExtension>
            <ns3:atemp>23.0</ns3:atemp>
            <ns3:hr>93</ns3:hr>
          </ns3:TrackPointExtension>
        </extensions>
      </trkpt>
      <trkpt lat="47.749556265771389007568359375" lon="12.25098221562802791595458984375">
        <ele>1651.199951171875</ele>
        <time>2020-06-23T15:08:45.000Z</time>
        <extensions>
          <ns3:TrackPointExtension>
            <ns3:atemp>23.0</ns3:atemp>
            <ns3:hr>93</ns3:hr>
          </ns3:TrackPointExtension>
        </extensions>
      </trkpt>
      <trkpt lat="47.749478816986083984375" lon="12.25086721591651439666748046875">
        <ele>1652.800048828125</ele>
        <time>2020-06-23T15:08:46.000Z</time>
        <extensions>
          <ns3:TrackPointExtension>
            <ns3:atemp>23.0</ns3:atemp>
            <ns3:hr>92</ns3:hr>
          </ns3:TrackPointExtension>
        </extensions>
      </trkpt>
      <trkpt lat="47.749396674335002899169921875" lon="12.2507474385201930999755859375">
        <ele>1654.5999755859375</ele>
        <time>2020-06-23T15:08:47.000Z</time>
        <extensions>
          <ns3:TrackPointExtension>
            <ns3:atemp>23.0</ns3:atemp>
            <ns3:hr>92</ns3:hr>
          </ns3:TrackPointExtension>
        </extensions>
      </trkpt>
      <trkpt lat="47.74930371902883052825927734375" lon="12.2506176866590976715087890625">
        <ele>1656.199951171875</ele>
        <time>2020-06-23T15:08:48.000Z</time>
        <extensions>
          <ns3:TrackPointExtension>
            <ns3:atemp>23.0</ns3:atemp>
            <ns3:hr>92</ns3:hr>
          </ns3:TrackPointExtension>
        </extensions>
      </trkpt>
      <trkpt lat="47.74920430965721607208251953125" lon="12.25047863088548183441162109375">
        <ele>1657.4000244140625</ele>
        <time>2020-06-23T15:08:49.000Z</time>
        <extensions>
          <ns3:TrackPointExtension>
            <ns3:atemp>23.0</ns3:atemp>
            <ns3:hr>93</ns3:hr>
          </ns3:TrackPointExtension>
        </extensions>
      </trkpt>
      <trkpt lat="47.7491073310375213623046875" lon="12.25033580325543880462646484375">
        <ele>1658.5999755859375</ele>
        <time>2020-06-23T15:08:50.000Z</time>
        <extensions>
          <ns3:TrackPointExtension>
            <ns3:atemp>23.0</ns3:atemp>
            <ns3:hr>91</ns3:hr>
          </ns3:TrackPointExtension>
        </extensions>
      </trkpt>
      <trkpt lat="47.7490179799497127532958984375" lon="12.25019750185310840606689453125">
        <ele>1660</ele>
        <time>2020-06-23T15:08:51.000Z</time>
        <extensions>
          <ns3:TrackPointExtension>
            <ns3:atemp>23.0</ns3:atemp>
            <ns3:hr>91</ns3:hr>
          </ns3:TrackPointExtension>
        </extensions>
      </trkpt>
      <trkpt lat="47.74893592111766338348388671875" lon="12.2500725276768207550048828125">
        <ele>1661.800048828125</ele>
        <time>2020-06-23T15:08:52.000Z</time>
        <extensions>
          <ns3:TrackPointExtension>
            <ns3:atemp>23.0</ns3:atemp>
            <ns3:hr>93</ns3:hr>
          </ns3:TrackPointExtension>
        </extensions>
      </trkpt>
      <trkpt lat="47.74885721504688262939453125" lon="12.24996440112590789794921875">
        <ele>1664.199951171875</ele>
        <time>2020-06-23T15:08:53.000Z</time>
        <extensions>
          <ns3:TrackPointExtension>
            <ns3:atemp>23.0</ns3:atemp>
            <ns3:hr>96</ns3:hr>
          </ns3:TrackPointExtension>
        </extensions>
      </trkpt>
      <trkpt lat="47.74877934716641902923583984375" lon="12.2498626448214054107666015625">
        <ele>1667</ele>
        <time>2020-06-23T15:08:54.000Z</time>
        <extensions>
          <ns3:TrackPointExtension>
            <ns3:atemp>23.0</ns3:atemp>
            <ns3:hr>98</ns3:hr>
          </ns3:TrackPointExtension>
        </extensions>
      </trkpt>
      <trkpt lat="47.748704664409160614013671875" lon="12.24976189434528350830078125">
        <ele>1669.5999755859375</ele>
        <time>2020-06-23T15:08:55.000Z</time>
        <extensions>
          <ns3:TrackPointExtension>
            <ns3:atemp>23.0</ns3:atemp>
            <ns3:hr>99</ns3:hr>
          </ns3:TrackPointExtension>
        </extensions>
      </trkpt>
      <trkpt lat="47.74863886646926403045654296875" lon="12.249656282365322113037109375">
        <ele>1671.5999755859375</ele>
        <time>2020-06-23T15:08:56.000Z</time>
        <extensions>
          <ns3:TrackPointExtension>
            <ns3:atemp>23.0</ns3:atemp>
            <ns3:hr>100</ns3:hr>
          </ns3:TrackPointExtension>
        </extensions>
      </trkpt>
      <trkpt lat="47.748583294451236724853515625" lon="12.24955108948051929473876953125">
        <ele>1673.4000244140625</ele>
        <time>2020-06-23T15:08:57.000Z</time>
        <extensions>
          <ns3:TrackPointExtension>
            <ns3:atemp>23.0</ns3:atemp>
            <ns3:hr>100</ns3:hr>
          </ns3:TrackPointExtension>
        </extensions>
      </trkpt>
      <trkpt lat="47.7485351823270320892333984375" lon="12.24945100955665111541748046875">
        <ele>1675</ele>
        <time>2020-06-23T15:08:58.000Z</time>
        <extensions>
          <ns3:TrackPointExtension>
            <ns3:atemp>23.0</ns3:atemp>
            <ns3:hr>100</ns3:hr>
          </ns3:TrackPointExtension>
        </extensions>
      </trkpt>
      <trkpt lat="47.74843887425959110260009765625" lon="12.2492457367479801177978515625">
        <ele>1676</ele>
        <time>2020-06-23T15:09:00.000Z</time>
        <extensions>
          <ns3:TrackPointExtension>
            <ns3:atemp>23.0</ns3:atemp>
            <ns3:hr>100</ns3:hr>
          </ns3:TrackPointExtension>
        </extensions>
      </trkpt>
      <trkpt lat="47.74837349541485309600830078125" lon="12.24899210035800933837890625">
        <ele>1676</ele>
        <time>2020-06-23T15:09:02.000Z</time>
        <extensions>
          <ns3:TrackPointExtension>
            <ns3:atemp>23.0</ns3:atemp>
            <ns3:hr>98</ns3:hr>
          </ns3:TrackPointExtension>
        </extensions>
      </trkpt>
      <trkpt lat="47.74836611934006214141845703125" lon="12.2488720715045928955078125">
        <ele>1675.5999755859375</ele>
        <time>2020-06-23T15:09:03.000Z</time>
        <extensions>
          <ns3:TrackPointExtension>
            <ns3:atemp>23.0</ns3:atemp>
            <ns3:hr>97</ns3:hr>
          </ns3:TrackPointExtension>
        </extensions>
      </trkpt>
      <trkpt lat="47.74837500415742397308349609375" lon="12.2487770207226276397705078125">
        <ele>1675.4000244140625</ele>
        <time>2020-06-23T15:09:04.000Z</time>
        <extensions>
          <ns3:TrackPointExtension>
            <ns3:atemp>23.0</ns3:atemp>
            <ns3:hr>97</ns3:hr>
          </ns3:TrackPointExtension>
        </extensions>
      </trkpt>
      <trkpt lat="47.74842663668096065521240234375" lon="12.2486368753015995025634765625">
        <ele>1675.199951171875</ele>
        <time>2020-06-23T15:09:06.000Z</time>
        <extensions>
          <ns3:TrackPointExtension>
            <ns3:atemp>23.0</ns3:atemp>
            <ns3:hr>98</ns3:hr>
          </ns3:TrackPointExtension>
        </extensions>
      </trkpt>
      <trkpt lat="47.74850944988429546356201171875" lon="12.2485352866351604461669921875">
        <ele>1675</ele>
        <time>2020-06-23T15:09:08.000Z</time>
        <extensions>
          <ns3:TrackPointExtension>
            <ns3:atemp>23.0</ns3:atemp>
            <ns3:hr>96</ns3:hr>
          </ns3:TrackPointExtension>
        </extensions>
      </trkpt>
      <trkpt lat="47.7485552988946437835693359375" lon="12.24852095358073711395263671875">
        <ele>1675</ele>
        <time>2020-06-23T15:09:09.000Z</time>
        <extensions>
          <ns3:TrackPointExtension>
            <ns3:atemp>23.0</ns3:atemp>
            <ns3:hr>95</ns3:hr>
          </ns3:TrackPointExtension>
        </extensions>
      </trkpt>
      <trkpt lat="47.74860106408596038818359375" lon="12.24853956140577793121337890625">
        <ele>1675.199951171875</ele>
        <time>2020-06-23T15:09:10.000Z</time>
        <extensions>
          <ns3:TrackPointExtension>
            <ns3:atemp>23.0</ns3:atemp>
            <ns3:hr>95</ns3:hr>
          </ns3:TrackPointExtension>
        </extensions>
      </trkpt>
      <trkpt lat="47.74865780957043170928955078125" lon="12.2486596740782260894775390625">
        <ele>1675.5999755859375</ele>
        <time>2020-06-23T15:09:12.000Z</time>
        <extensions>
          <ns3:TrackPointExtension>
            <ns3:atemp>23.0</ns3:atemp>
            <ns3:hr>95</ns3:hr>
          </ns3:TrackPointExtension>
        </extensions>
      </trkpt>
      <trkpt lat="47.74866736494004726409912109375" lon="12.2488403879106044769287109375">
        <ele>1676.199951171875</ele>
        <time>2020-06-23T15:09:14.000Z</time>
        <extensions>
          <ns3:TrackPointExtension>
            <ns3:atemp>22.0</ns3:atemp>
            <ns3:hr>95</ns3:hr>
          </ns3:TrackPointExtension>
        </extensions>
      </trkpt>
      <trkpt lat="47.74866132996976375579833984375" lon="12.2489265538752079010009765625">
        <ele>1676.5999755859375</ele>
        <time>2020-06-23T15:09:15.000Z</time>
        <extensions>
          <ns3:TrackPointExtension>
            <ns3:atemp>22.0</ns3:atemp>
            <ns3:hr>95</ns3:hr>
          </ns3:TrackPointExtension>
        </extensions>
      </trkpt>
      <trkpt lat="47.74865563027560710906982421875" lon="12.2490759193897247314453125">
        <ele>1677</ele>
        <time>2020-06-23T15:09:17.000Z</time>
        <extensions>
          <ns3:TrackPointExtension>
            <ns3:atemp>22.0</ns3:atemp>
            <ns3:hr>96</ns3:hr>
          </ns3:TrackPointExtension>
        </extensions>
      </trkpt>
      <trkpt lat="47.748703658580780029296875" lon="12.249192260205745697021484375">
        <ele>1676</ele>
        <time>2020-06-23T15:09:19.000Z</time>
        <extensions>
          <ns3:TrackPointExtension>
            <ns3:atemp>22.0</ns3:atemp>
            <ns3:hr>94</ns3:hr>
          </ns3:TrackPointExtension>
        </extensions>
      </trkpt>
      <trkpt lat="47.74873651564121246337890625" lon="12.24924732930958271026611328125">
        <ele>1674.800048828125</ele>
        <time>2020-06-23T15:09:20.000Z</time>
        <extensions>
          <ns3:TrackPointExtension>
            <ns3:atemp>22.0</ns3:atemp>
            <ns3:hr>95</ns3:hr>
          </ns3:TrackPointExtension>
        </extensions>
      </trkpt>
      <trkpt lat="47.74876174516975879669189453125" lon="12.2493080981075763702392578125">
        <ele>1674</ele>
        <time>2020-06-23T15:09:21.000Z</time>
        <extensions>
          <ns3:TrackPointExtension>
            <ns3:atemp>22.0</ns3:atemp>
            <ns3:hr>95</ns3:hr>
          </ns3:TrackPointExtension>
        </extensions>
      </trkpt>
      <trkpt lat="47.74878286756575107574462890625" lon="12.24937163293361663818359375">
        <ele>1673</ele>
        <time>2020-06-23T15:09:22.000Z</time>
        <extensions>
          <ns3:TrackPointExtension>
            <ns3:atemp>22.0</ns3:atemp>
            <ns3:hr>98</ns3:hr>
          </ns3:TrackPointExtension>
        </extensions>
      </trkpt>
      <trkpt lat="47.74881019257009029388427734375" lon="12.24943106062710285186767578125">
        <ele>1671.5999755859375</ele>
        <time>2020-06-23T15:09:23.000Z</time>
        <extensions>
          <ns3:TrackPointExtension>
            <ns3:atemp>22.0</ns3:atemp>
            <ns3:hr>97</ns3:hr>
          </ns3:TrackPointExtension>
        </extensions>
      </trkpt>
      <trkpt lat="47.7488498389720916748046875" lon="12.24947799928486347198486328125">
        <ele>1670</ele>
        <time>2020-06-23T15:09:24.000Z</time>
        <extensions>
          <ns3:TrackPointExtension>
            <ns3:atemp>22.0</ns3:atemp>
            <ns3:hr>97</ns3:hr>
          </ns3:TrackPointExtension>
        </extensions>
      </trkpt>
      <trkpt lat="47.7488962747156620025634765625" lon="12.24951244890689849853515625">
        <ele>1668.199951171875</ele>
        <time>2020-06-23T15:09:25.000Z</time>
        <extensions>
          <ns3:TrackPointExtension>
            <ns3:atemp>22.0</ns3:atemp>
            <ns3:hr>97</ns3:hr>
          </ns3:TrackPointExtension>
        </extensions>
      </trkpt>
      <trkpt lat="47.7489405311644077301025390625" lon="12.24954538978636264801025390625">
        <ele>1666.199951171875</ele>
        <time>2020-06-23T15:09:26.000Z</time>
        <extensions>
          <ns3:TrackPointExtension>
            <ns3:atemp>22.0</ns3:atemp>
            <ns3:hr>97</ns3:hr>
          </ns3:TrackPointExtension>
        </extensions>
      </trkpt>
      <trkpt lat="47.74897682480514049530029296875" lon="12.249583192169666290283203125">
        <ele>1664.199951171875</ele>
        <time>2020-06-23T15:09:27.000Z</time>
        <extensions>
          <ns3:TrackPointExtension>
            <ns3:atemp>22.0</ns3:atemp>
            <ns3:hr>98</ns3:hr>
          </ns3:TrackPointExtension>
        </extensions>
      </trkpt>
      <trkpt lat="47.7490099333226680755615234375" lon="12.249628119170665740966796875">
        <ele>1662.4000244140625</ele>
        <time>2020-06-23T15:09:28.000Z</time>
        <extensions>
          <ns3:TrackPointExtension>
            <ns3:atemp>22.0</ns3:atemp>
            <ns3:hr>98</ns3:hr>
          </ns3:TrackPointExtension>
        </extensions>
      </trkpt>
      <trkpt lat="47.74904706515371799468994140625" lon="12.2496842779219150543212890625">
        <ele>1661</ele>
        <time>2020-06-23T15:09:29.000Z</time>
        <extensions>
          <ns3:TrackPointExtension>
            <ns3:atemp>22.0</ns3:atemp>
            <ns3:hr>98</ns3:hr>
          </ns3:TrackPointExtension>
        </extensions>
      </trkpt>
      <trkpt lat="47.74908947758376598358154296875" lon="12.24975359626114368438720703125">
        <ele>1660</ele>
        <time>2020-06-23T15:09:30.000Z</time>
        <extensions>
          <ns3:TrackPointExtension>
            <ns3:atemp>22.0</ns3:atemp>
            <ns3:hr>97</ns3:hr>
          </ns3:TrackPointExtension>
        </extensions>
      </trkpt>
      <trkpt lat="47.74913071654736995697021484375" lon="12.2498323023319244384765625">
        <ele>1658.800048828125</ele>
        <time>2020-06-23T15:09:31.000Z</time>
        <extensions>
          <ns3:TrackPointExtension>
            <ns3:atemp>22.0</ns3:atemp>
            <ns3:hr>100</ns3:hr>
          </ns3:TrackPointExtension>
        </extensions>
      </trkpt>
      <trkpt lat="47.74916659109294414520263671875" lon="12.249919474124908447265625">
        <ele>1657.800048828125</ele>
        <time>2020-06-23T15:09:32.000Z</time>
        <extensions>
          <ns3:TrackPointExtension>
            <ns3:atemp>22.0</ns3:atemp>
            <ns3:hr>98</ns3:hr>
          </ns3:TrackPointExtension>
        </extensions>
      </trkpt>
      <trkpt lat="47.74919517338275909423828125" lon="12.250011675059795379638671875">
        <ele>1656.800048828125</ele>
        <time>2020-06-23T15:09:33.000Z</time>
        <extensions>
          <ns3:TrackPointExtension>
            <ns3:atemp>22.0</ns3:atemp>
            <ns3:hr>98</ns3:hr>
          </ns3:TrackPointExtension>
        </extensions>
      </trkpt>
      <trkpt lat="47.74921805597841739654541015625" lon="12.25010597147047519683837890625">
        <ele>1656.4000244140625</ele>
        <time>2020-06-23T15:09:34.000Z</time>
        <extensions>
          <ns3:TrackPointExtension>
            <ns3:atemp>22.0</ns3:atemp>
            <ns3:hr>97</ns3:hr>
          </ns3:TrackPointExtension>
        </extensions>
      </trkpt>
      <trkpt lat="47.74929215200245380401611328125" lon="12.250374443829059600830078125">
        <ele>1655.199951171875</ele>
        <time>2020-06-23T15:09:37.000Z</time>
        <extensions>
          <ns3:TrackPointExtension>
            <ns3:atemp>22.0</ns3:atemp>
            <ns3:hr>97</ns3:hr>
          </ns3:TrackPointExtension>
        </extensions>
      </trkpt>
      <trkpt lat="47.7493616379797458648681640625" lon="12.2505281679332256317138671875">
        <ele>1653.800048828125</ele>
        <time>2020-06-23T15:09:39.000Z</time>
        <extensions>
          <ns3:TrackPointExtension>
            <ns3:atemp>22.0</ns3:atemp>
            <ns3:hr>97</ns3:hr>
          </ns3:TrackPointExtension>
        </extensions>
      </trkpt>
      <trkpt lat="47.74944193661212921142578125" lon="12.25068390369415283203125">
        <ele>1651.800048828125</ele>
        <time>2020-06-23T15:09:41.000Z</time>
        <extensions>
          <ns3:TrackPointExtension>
            <ns3:atemp>22.0</ns3:atemp>
            <ns3:hr>95</ns3:hr>
          </ns3:TrackPointExtension>
        </extensions>
      </trkpt>
      <trkpt lat="47.7494828402996063232421875" lon="12.250753976404666900634765625">
        <ele>1650.5999755859375</ele>
        <time>2020-06-23T15:09:42.000Z</time>
        <extensions>
          <ns3:TrackPointExtension>
            <ns3:atemp>22.0</ns3:atemp>
            <ns3:hr>95</ns3:hr>
          </ns3:TrackPointExtension>
        </extensions>
      </trkpt>
      <trkpt lat="47.74956875480711460113525390625" lon="12.25089118815958499908447265625">
        <ele>1648.800048828125</ele>
        <time>2020-06-23T15:09:44.000Z</time>
        <extensions>
          <ns3:TrackPointExtension>
            <ns3:atemp>22.0</ns3:atemp>
            <ns3:hr>97</ns3:hr>
          </ns3:TrackPointExtension>
        </extensions>
      </trkpt>
      <trkpt lat="47.7496080659329891204833984375" lon="12.250969223678112030029296875">
        <ele>1647.800048828125</ele>
        <time>2020-06-23T15:09:45.000Z</time>
        <extensions>
          <ns3:TrackPointExtension>
            <ns3:atemp>22.0</ns3:atemp>
            <ns3:hr>96</ns3:hr>
          </ns3:TrackPointExtension>
        </extensions>
      </trkpt>
      <trkpt lat="47.74964578449726104736328125" lon="12.2510552220046520233154296875">
        <ele>1646.800048828125</ele>
        <time>2020-06-23T15:09:46.000Z</time>
        <extensions>
          <ns3:TrackPointExtension>
            <ns3:atemp>22.0</ns3:atemp>
            <ns3:hr>96</ns3:hr>
          </ns3:TrackPointExtension>
        </extensions>
      </trkpt>
      <trkpt lat="47.7496835030615329742431640625" lon="12.25114750675857067108154296875">
        <ele>1645.5999755859375</ele>
        <time>2020-06-23T15:09:47.000Z</time>
        <extensions>
          <ns3:TrackPointExtension>
            <ns3:atemp>22.0</ns3:atemp>
            <ns3:hr>93</ns3:hr>
          </ns3:TrackPointExtension>
        </extensions>
      </trkpt>
      <trkpt lat="47.74972088634967803955078125" lon="12.251244485378265380859375">
        <ele>1644.5999755859375</ele>
        <time>2020-06-23T15:09:48.000Z</time>
        <extensions>
          <ns3:TrackPointExtension>
            <ns3:atemp>22.0</ns3:atemp>
            <ns3:hr>88</ns3:hr>
          </ns3:TrackPointExtension>
        </extensions>
      </trkpt>
      <trkpt lat="47.74975567124783992767333984375" lon="12.25134498439729213714599609375">
        <ele>1643.5999755859375</ele>
        <time>2020-06-23T15:09:49.000Z</time>
        <extensions>
          <ns3:TrackPointExtension>
            <ns3:atemp>22.0</ns3:atemp>
            <ns3:hr>85</ns3:hr>
          </ns3:TrackPointExtension>
        </extensions>
      </trkpt>
      <trkpt lat="47.7497887797653675079345703125" lon="12.25144489668309688568115234375">
        <ele>1642.5999755859375</ele>
        <time>2020-06-23T15:09:50.000Z</time>
        <extensions>
          <ns3:TrackPointExtension>
            <ns3:atemp>22.0</ns3:atemp>
            <ns3:hr>86</ns3:hr>
          </ns3:TrackPointExtension>
        </extensions>
      </trkpt>
      <trkpt lat="47.74986245669424533843994140625" lon="12.25163566879928112030029296875">
        <ele>1641</ele>
        <time>2020-06-23T15:09:52.000Z</time>
        <extensions>
          <ns3:TrackPointExtension>
            <ns3:atemp>22.0</ns3:atemp>
            <ns3:hr>88</ns3:hr>
          </ns3:TrackPointExtension>
        </extensions>
      </trkpt>
      <trkpt lat="47.7500030212104320526123046875" lon="12.25187874399125576019287109375">
        <ele>1640</ele>
        <time>2020-06-23T15:09:55.000Z</time>
        <extensions>
          <ns3:TrackPointExtension>
            <ns3:atemp>23.0</ns3:atemp>
            <ns3:hr>90</ns3:hr>
          </ns3:TrackPointExtension>
        </extensions>
      </trkpt>
      <trkpt lat="47.75004166178405284881591796875" lon="12.2519235871732234954833984375">
        <ele>1640.199951171875</ele>
        <time>2020-06-23T15:09:56.000Z</time>
        <extensions>
          <ns3:TrackPointExtension>
            <ns3:atemp>23.0</ns3:atemp>
            <ns3:hr>91</ns3:hr>
          </ns3:TrackPointExtension>
        </extensions>
      </trkpt>
      <trkpt lat="47.750072591006755828857421875" lon="12.25193708203732967376708984375">
        <ele>1640.4000244140625</ele>
        <time>2020-06-23T15:09:57.000Z</time>
        <extensions>
          <ns3:TrackPointExtension>
            <ns3:atemp>23.0</ns3:atemp>
            <ns3:hr>92</ns3:hr>
          </ns3:TrackPointExtension>
        </extensions>
      </trkpt>
      <trkpt lat="47.75009966455399990081787109375" lon="12.25191880948841571807861328125">
        <ele>1640.5999755859375</ele>
        <time>2020-06-23T15:09:58.000Z</time>
        <extensions>
          <ns3:TrackPointExtension>
            <ns3:atemp>23.0</ns3:atemp>
            <ns3:hr>92</ns3:hr>
          </ns3:TrackPointExtension>
        </extensions>
      </trkpt>
      <trkpt lat="47.7501321025192737579345703125" lon="12.25178000517189502716064453125">
        <ele>1640.800048828125</ele>
        <time>2020-06-23T15:10:00.000Z</time>
        <extensions>
          <ns3:TrackPointExtension>
            <ns3:atemp>23.0</ns3:atemp>
            <ns3:hr>93</ns3:hr>
          </ns3:TrackPointExtension>
        </extensions>
      </trkpt>
      <trkpt lat="47.75007032789289951324462890625" lon="12.25156660191714763641357421875">
        <ele>1640.4000244140625</ele>
        <time>2020-06-23T15:10:02.000Z</time>
        <extensions>
          <ns3:TrackPointExtension>
            <ns3:atemp>23.0</ns3:atemp>
            <ns3:hr>93</ns3:hr>
          </ns3:TrackPointExtension>
        </extensions>
      </trkpt>
      <trkpt lat="47.7499108202755451202392578125" lon="12.2513767518103122711181640625">
        <ele>1639.800048828125</ele>
        <time>2020-06-23T15:10:04.000Z</time>
        <extensions>
          <ns3:TrackPointExtension>
            <ns3:atemp>23.0</ns3:atemp>
            <ns3:hr>92</ns3:hr>
          </ns3:TrackPointExtension>
        </extensions>
      </trkpt>
      <trkpt lat="47.749813757836818695068359375" lon="12.25131145678460597991943359375">
        <ele>1639.5999755859375</ele>
        <time>2020-06-23T15:10:05.000Z</time>
        <extensions>
          <ns3:TrackPointExtension>
            <ns3:atemp>23.0</ns3:atemp>
            <ns3:hr>92</ns3:hr>
          </ns3:TrackPointExtension>
        </extensions>
      </trkpt>
      <trkpt lat="47.74952969513833522796630859375" lon="12.2511517815291881561279296875">
        <ele>1639.5999755859375</ele>
        <time>2020-06-23T15:10:08.000Z</time>
        <extensions>
          <ns3:TrackPointExtension>
            <ns3:atemp>23.0</ns3:atemp>
            <ns3:hr>94</ns3:hr>
          </ns3:TrackPointExtension>
        </extensions>
      </trkpt>
      <trkpt lat="47.7494353987276554107666015625" lon="12.251077182590961456298828125">
        <ele>1639.5999755859375</ele>
        <time>2020-06-23T15:10:09.000Z</time>
        <extensions>
          <ns3:TrackPointExtension>
            <ns3:atemp>23.0</ns3:atemp>
            <ns3:hr>94</ns3:hr>
          </ns3:TrackPointExtension>
        </extensions>
      </trkpt>
      <trkpt lat="47.7492456324398517608642578125" lon="12.25091583095490932464599609375">
        <ele>1638</ele>
        <time>2020-06-23T15:10:11.000Z</time>
        <extensions>
          <ns3:TrackPointExtension>
            <ns3:atemp>23.0</ns3:atemp>
            <ns3:hr>94</ns3:hr>
          </ns3:TrackPointExtension>
        </extensions>
      </trkpt>
      <trkpt lat="47.74917145259678363800048828125" lon="12.25082949735224246978759765625">
        <ele>1636.800048828125</ele>
        <time>2020-06-23T15:10:12.000Z</time>
        <extensions>
          <ns3:TrackPointExtension>
            <ns3:atemp>23.0</ns3:atemp>
            <ns3:hr>94</ns3:hr>
          </ns3:TrackPointExtension>
        </extensions>
      </trkpt>
      <trkpt lat="47.7491155453026294708251953125" lon="12.25073687732219696044921875">
        <ele>1635.800048828125</ele>
        <time>2020-06-23T15:10:13.000Z</time>
        <extensions>
          <ns3:TrackPointExtension>
            <ns3:atemp>23.0</ns3:atemp>
            <ns3:hr>96</ns3:hr>
          </ns3:TrackPointExtension>
        </extensions>
      </trkpt>
      <trkpt lat="47.74900297634303569793701171875" lon="12.25051953457295894622802734375">
        <ele>1633.5999755859375</ele>
        <time>2020-06-23T15:10:15.000Z</time>
        <extensions>
          <ns3:TrackPointExtension>
            <ns3:atemp>23.0</ns3:atemp>
            <ns3:hr>94</ns3:hr>
          </ns3:TrackPointExtension>
        </extensions>
      </trkpt>
      <trkpt lat="47.7489298023283481597900390625" lon="12.2504014335572719573974609375">
        <ele>1632.199951171875</ele>
        <time>2020-06-23T15:10:16.000Z</time>
        <extensions>
          <ns3:TrackPointExtension>
            <ns3:atemp>23.0</ns3:atemp>
            <ns3:hr>95</ns3:hr>
          </ns3:TrackPointExtension>
        </extensions>
      </trkpt>
      <trkpt lat="47.74886182509362697601318359375" lon="12.25028626620769500732421875">
        <ele>1630.800048828125</ele>
        <time>2020-06-23T15:10:17.000Z</time>
        <extensions>
          <ns3:TrackPointExtension>
            <ns3:atemp>23.0</ns3:atemp>
            <ns3:hr>94</ns3:hr>
          </ns3:TrackPointExtension>
        </extensions>
      </trkpt>
      <trkpt lat="47.74881052784621715545654296875" lon="12.25017721764743328094482421875">
        <ele>1629.5999755859375</ele>
        <time>2020-06-23T15:10:18.000Z</time>
        <extensions>
          <ns3:TrackPointExtension>
            <ns3:atemp>23.0</ns3:atemp>
            <ns3:hr>93</ns3:hr>
          </ns3:TrackPointExtension>
        </extensions>
      </trkpt>
      <trkpt lat="47.7487688697874546051025390625" lon="12.2500725276768207550048828125">
        <ele>1628.5999755859375</ele>
        <time>2020-06-23T15:10:19.000Z</time>
        <extensions>
          <ns3:TrackPointExtension>
            <ns3:atemp>22.0</ns3:atemp>
            <ns3:hr>94</ns3:hr>
          </ns3:TrackPointExtension>
        </extensions>
      </trkpt>
      <trkpt lat="47.74872318841516971588134765625" lon="12.2499655745923519134521484375">
        <ele>1628</ele>
        <time>2020-06-23T15:10:20.000Z</time>
        <extensions>
          <ns3:TrackPointExtension>
            <ns3:atemp>22.0</ns3:atemp>
            <ns3:hr>95</ns3:hr>
          </ns3:TrackPointExtension>
        </extensions>
      </trkpt>
      <trkpt lat="47.7486052550375461578369140625" lon="12.24974018521606922149658203125">
        <ele>1627</ele>
        <time>2020-06-23T15:10:22.000Z</time>
        <extensions>
          <ns3:TrackPointExtension>
            <ns3:atemp>22.0</ns3:atemp>
            <ns3:hr>95</ns3:hr>
          </ns3:TrackPointExtension>
        </extensions>
      </trkpt>
      <trkpt lat="47.7484007366001605987548828125" lon="12.2493588924407958984375">
        <ele>1626.199951171875</ele>
        <time>2020-06-23T15:10:26.000Z</time>
        <extensions>
          <ns3:TrackPointExtension>
            <ns3:atemp>22.0</ns3:atemp>
            <ns3:hr>89</ns3:hr>
          </ns3:TrackPointExtension>
        </extensions>
      </trkpt>
      <trkpt lat="47.748301662504673004150390625" lon="12.249156050384044647216796875">
        <ele>1626</ele>
        <time>2020-06-23T15:10:28.000Z</time>
        <extensions>
          <ns3:TrackPointExtension>
            <ns3:atemp>22.0</ns3:atemp>
            <ns3:hr>86</ns3:hr>
          </ns3:TrackPointExtension>
        </extensions>
      </trkpt>
      <trkpt lat="47.7482213638722896575927734375" lon="12.2489493526518344879150390625">
        <ele>1626</ele>
        <time>2020-06-23T15:10:30.000Z</time>
        <extensions>
          <ns3:TrackPointExtension>
            <ns3:atemp>22.0</ns3:atemp>
            <ns3:hr>87</ns3:hr>
          </ns3:TrackPointExtension>
        </extensions>
      </trkpt>
      <trkpt lat="47.748200409114360809326171875" lon="12.2488638572394847869873046875">
        <ele>1625.800048828125</ele>
        <time>2020-06-23T15:10:31.000Z</time>
        <extensions>
          <ns3:TrackPointExtension>
            <ns3:atemp>22.0</ns3:atemp>
            <ns3:hr>88</ns3:hr>
          </ns3:TrackPointExtension>
        </extensions>
      </trkpt>
      <trkpt lat="47.74818004108965396881103515625" lon="12.2486881725490093231201171875">
        <ele>1624.800048828125</ele>
        <time>2020-06-23T15:10:33.000Z</time>
        <extensions>
          <ns3:TrackPointExtension>
            <ns3:atemp>22.0</ns3:atemp>
            <ns3:hr>88</ns3:hr>
          </ns3:TrackPointExtension>
        </extensions>
      </trkpt>
      <trkpt lat="47.74816562421619892120361328125" lon="12.2485802136361598968505859375">
        <ele>1623.5999755859375</ele>
        <time>2020-06-23T15:10:34.000Z</time>
        <extensions>
          <ns3:TrackPointExtension>
            <ns3:atemp>22.0</ns3:atemp>
            <ns3:hr>88</ns3:hr>
          </ns3:TrackPointExtension>
        </extensions>
      </trkpt>
      <trkpt lat="47.7481536380946636199951171875" lon="12.24847803823649883270263671875">
        <ele>1622.199951171875</ele>
        <time>2020-06-23T15:10:35.000Z</time>
        <extensions>
          <ns3:TrackPointExtension>
            <ns3:atemp>22.0</ns3:atemp>
            <ns3:hr>88</ns3:hr>
          </ns3:TrackPointExtension>
        </extensions>
      </trkpt>
      <trkpt lat="47.74818490259349346160888671875" lon="12.248348034918308258056640625">
        <ele>1620.5999755859375</ele>
        <time>2020-06-23T15:10:37.000Z</time>
        <extensions>
          <ns3:TrackPointExtension>
            <ns3:atemp>22.0</ns3:atemp>
            <ns3:hr>86</ns3:hr>
          </ns3:TrackPointExtension>
        </extensions>
      </trkpt>
      <trkpt lat="47.7482837252318859100341796875" lon="12.24830185063183307647705078125">
        <ele>1620.199951171875</ele>
        <time>2020-06-23T15:10:39.000Z</time>
        <extensions>
          <ns3:TrackPointExtension>
            <ns3:atemp>22.0</ns3:atemp>
            <ns3:hr>88</ns3:hr>
          </ns3:TrackPointExtension>
        </extensions>
      </trkpt>
      <trkpt lat="47.74832957424223423004150390625" lon="12.24831224419176578521728515625">
        <ele>1620.199951171875</ele>
        <time>2020-06-23T15:10:40.000Z</time>
        <extensions>
          <ns3:TrackPointExtension>
            <ns3:atemp>22.0</ns3:atemp>
            <ns3:hr>88</ns3:hr>
          </ns3:TrackPointExtension>
        </extensions>
      </trkpt>
      <trkpt lat="47.74836502969264984130859375" lon="12.2483629547059535980224609375">
        <ele>1620.4000244140625</ele>
        <time>2020-06-23T15:10:41.000Z</time>
        <extensions>
          <ns3:TrackPointExtension>
            <ns3:atemp>22.0</ns3:atemp>
            <ns3:hr>89</ns3:hr>
          </ns3:TrackPointExtension>
        </extensions>
      </trkpt>
      <trkpt lat="47.74838908575475215911865234375" lon="12.2484548203647136688232421875">
        <ele>1620.5999755859375</ele>
        <time>2020-06-23T15:10:42.000Z</time>
        <extensions>
          <ns3:TrackPointExtension>
            <ns3:atemp>22.0</ns3:atemp>
            <ns3:hr>89</ns3:hr>
          </ns3:TrackPointExtension>
        </extensions>
      </trkpt>
      <trkpt lat="47.74841121397912502288818359375" lon="12.24867300130426883697509765625">
        <ele>1620.800048828125</ele>
        <time>2020-06-23T15:10:44.000Z</time>
        <extensions>
          <ns3:TrackPointExtension>
            <ns3:atemp>22.0</ns3:atemp>
            <ns3:hr>88</ns3:hr>
          </ns3:TrackPointExtension>
        </extensions>
      </trkpt>
      <trkpt lat="47.7484104596078395843505859375" lon="12.24885941483080387115478515625">
        <ele>1620.800048828125</ele>
        <time>2020-06-23T15:10:46.000Z</time>
        <extensions>
          <ns3:TrackPointExtension>
            <ns3:atemp>22.0</ns3:atemp>
            <ns3:hr>89</ns3:hr>
          </ns3:TrackPointExtension>
        </extensions>
      </trkpt>
      <trkpt lat="47.74841356091201305389404296875" lon="12.2489751689136028289794921875">
        <ele>1620.5999755859375</ele>
        <time>2020-06-23T15:10:47.000Z</time>
        <extensions>
          <ns3:TrackPointExtension>
            <ns3:atemp>22.0</ns3:atemp>
            <ns3:hr>89</ns3:hr>
          </ns3:TrackPointExtension>
        </extensions>
      </trkpt>
      <trkpt lat="47.74843200109899044036865234375" lon="12.24910215474665164947509765625">
        <ele>1620.4000244140625</ele>
        <time>2020-06-23T15:10:48.000Z</time>
        <extensions>
          <ns3:TrackPointExtension>
            <ns3:atemp>22.0</ns3:atemp>
            <ns3:hr>86</ns3:hr>
          </ns3:TrackPointExtension>
        </extensions>
      </trkpt>
      <trkpt lat="47.74847005493938922882080078125" lon="12.24921145476400852203369140625">
        <ele>1619.800048828125</ele>
        <time>2020-06-23T15:10:49.000Z</time>
        <extensions>
          <ns3:TrackPointExtension>
            <ns3:atemp>22.0</ns3:atemp>
            <ns3:hr>90</ns3:hr>
          </ns3:TrackPointExtension>
        </extensions>
      </trkpt>
      <trkpt lat="47.74851883761584758758544921875" lon="12.24928605370223522186279296875">
        <ele>1618.5999755859375</ele>
        <time>2020-06-23T15:10:50.000Z</time>
        <extensions>
          <ns3:TrackPointExtension>
            <ns3:atemp>22.0</ns3:atemp>
            <ns3:hr>90</ns3:hr>
          </ns3:TrackPointExtension>
        </extensions>
      </trkpt>
      <trkpt lat="47.7485640160739421844482421875" lon="12.249339111149311065673828125">
        <ele>1616.800048828125</ele>
        <time>2020-06-23T15:10:51.000Z</time>
        <extensions>
          <ns3:TrackPointExtension>
            <ns3:atemp>22.0</ns3:atemp>
            <ns3:hr>91</ns3:hr>
          </ns3:TrackPointExtension>
        </extensions>
      </trkpt>
      <trkpt lat="47.7486008964478969573974609375" lon="12.2493952699005603790283203125">
        <ele>1615.4000244140625</ele>
        <time>2020-06-23T15:10:52.000Z</time>
        <extensions>
          <ns3:TrackPointExtension>
            <ns3:atemp>22.0</ns3:atemp>
            <ns3:hr>91</ns3:hr>
          </ns3:TrackPointExtension>
        </extensions>
      </trkpt>
      <trkpt lat="47.74867616593837738037109375" lon="12.24953927099704742431640625">
        <ele>1613.800048828125</ele>
        <time>2020-06-23T15:10:54.000Z</time>
        <extensions>
          <ns3:TrackPointExtension>
            <ns3:atemp>22.0</ns3:atemp>
            <ns3:hr>90</ns3:hr>
          </ns3:TrackPointExtension>
        </extensions>
      </trkpt>
      <trkpt lat="47.74872520007193088531494140625" lon="12.24960439838469028472900390625">
        <ele>1612.5999755859375</ele>
        <time>2020-06-23T15:10:55.000Z</time>
        <extensions>
          <ns3:TrackPointExtension>
            <ns3:atemp>22.0</ns3:atemp>
            <ns3:hr>91</ns3:hr>
          </ns3:TrackPointExtension>
        </extensions>
      </trkpt>
      <trkpt lat="47.74877917952835559844970703125" lon="12.24966005422174930572509765625">
        <ele>1611.199951171875</ele>
        <time>2020-06-23T15:10:56.000Z</time>
        <extensions>
          <ns3:TrackPointExtension>
            <ns3:atemp>22.0</ns3:atemp>
            <ns3:hr>91</ns3:hr>
          </ns3:TrackPointExtension>
        </extensions>
      </trkpt>
      <trkpt lat="47.74882997386157512664794921875" lon="12.2497191466391086578369140625">
        <ele>1609.800048828125</ele>
        <time>2020-06-23T15:10:57.000Z</time>
        <extensions>
          <ns3:TrackPointExtension>
            <ns3:atemp>22.0</ns3:atemp>
            <ns3:hr>91</ns3:hr>
          </ns3:TrackPointExtension>
        </extensions>
      </trkpt>
      <trkpt lat="47.74890658445656299591064453125" lon="12.2498673386871814727783203125">
        <ele>1608.199951171875</ele>
        <time>2020-06-23T15:10:59.000Z</time>
        <extensions>
          <ns3:TrackPointExtension>
            <ns3:atemp>22.0</ns3:atemp>
            <ns3:hr>91</ns3:hr>
          </ns3:TrackPointExtension>
        </extensions>
      </trkpt>
      <trkpt lat="47.7489727176725864410400390625" lon="12.250009663403034210205078125">
        <ele>1607.199951171875</ele>
        <time>2020-06-23T15:11:01.000Z</time>
        <extensions>
          <ns3:TrackPointExtension>
            <ns3:atemp>22.0</ns3:atemp>
            <ns3:hr>91</ns3:hr>
          </ns3:TrackPointExtension>
        </extensions>
      </trkpt>
      <trkpt lat="47.74901353754103183746337890625" lon="12.2500748746097087860107421875">
        <ele>1606.800048828125</ele>
        <time>2020-06-23T15:11:02.000Z</time>
        <extensions>
          <ns3:TrackPointExtension>
            <ns3:atemp>22.0</ns3:atemp>
            <ns3:hr>91</ns3:hr>
          </ns3:TrackPointExtension>
        </extensions>
      </trkpt>
      <trkpt lat="47.7490562014281749725341796875" lon="12.25014519877731800079345703125">
        <ele>1606</ele>
        <time>2020-06-23T15:11:03.000Z</time>
        <extensions>
          <ns3:TrackPointExtension>
            <ns3:atemp>22.0</ns3:atemp>
            <ns3:hr>92</ns3:hr>
          </ns3:TrackPointExtension>
        </extensions>
      </trkpt>
      <trkpt lat="47.74909584783017635345458984375" lon="12.250219546258449554443359375">
        <ele>1605.4000244140625</ele>
        <time>2020-06-23T15:11:04.000Z</time>
        <extensions>
          <ns3:TrackPointExtension>
            <ns3:atemp>22.0</ns3:atemp>
            <ns3:hr>91</ns3:hr>
          </ns3:TrackPointExtension>
        </extensions>
      </trkpt>
      <trkpt lat="47.7491688542068004608154296875" lon="12.2503481246531009674072265625">
        <ele>1604.4000244140625</ele>
        <time>2020-06-23T15:11:06.000Z</time>
        <extensions>
          <ns3:TrackPointExtension>
            <ns3:atemp>22.0</ns3:atemp>
            <ns3:hr>91</ns3:hr>
          </ns3:TrackPointExtension>
        </extensions>
      </trkpt>
      <trkpt lat="47.74923683144152164459228515625" lon="12.25045792758464813232421875">
        <ele>1603.800048828125</ele>
        <time>2020-06-23T15:11:08.000Z</time>
        <extensions>
          <ns3:TrackPointExtension>
            <ns3:atemp>22.0</ns3:atemp>
            <ns3:hr>91</ns3:hr>
          </ns3:TrackPointExtension>
        </extensions>
      </trkpt>
      <trkpt lat="47.74928762577474117279052734375" lon="12.250615842640399932861328125">
        <ele>1603</ele>
        <time>2020-06-23T15:11:10.000Z</time>
        <extensions>
          <ns3:TrackPointExtension>
            <ns3:atemp>22.0</ns3:atemp>
            <ns3:hr>90</ns3:hr>
          </ns3:TrackPointExtension>
        </extensions>
      </trkpt>
      <trkpt lat="47.74932928383350372314453125" lon="12.25078859366476535797119140625">
        <ele>1601.800048828125</ele>
        <time>2020-06-23T15:11:12.000Z</time>
        <extensions>
          <ns3:TrackPointExtension>
            <ns3:atemp>22.0</ns3:atemp>
            <ns3:hr>91</ns3:hr>
          </ns3:TrackPointExtension>
        </extensions>
      </trkpt>
      <trkpt lat="47.74936616420745849609375" lon="12.2509787790477275848388671875">
        <ele>1600.5999755859375</ele>
        <time>2020-06-23T15:11:14.000Z</time>
        <extensions>
          <ns3:TrackPointExtension>
            <ns3:atemp>22.0</ns3:atemp>
            <ns3:hr>92</ns3:hr>
          </ns3:TrackPointExtension>
        </extensions>
      </trkpt>
      <trkpt lat="47.74938217364251613616943359375" lon="12.251187153160572052001953125">
        <ele>1599.5999755859375</ele>
        <time>2020-06-23T15:11:16.000Z</time>
        <extensions>
          <ns3:TrackPointExtension>
            <ns3:atemp>22.0</ns3:atemp>
            <ns3:hr>90</ns3:hr>
          </ns3:TrackPointExtension>
        </extensions>
      </trkpt>
      <trkpt lat="47.749390639364719390869140625" lon="12.2512731514871120452880859375">
        <ele>1599.199951171875</ele>
        <time>2020-06-23T15:11:17.000Z</time>
        <extensions>
          <ns3:TrackPointExtension>
            <ns3:atemp>22.0</ns3:atemp>
            <ns3:hr>90</ns3:hr>
          </ns3:TrackPointExtension>
        </extensions>
      </trkpt>
      <trkpt lat="47.749427519738674163818359375" lon="12.25141304545104503631591796875">
        <ele>1598.199951171875</ele>
        <time>2020-06-23T15:11:19.000Z</time>
        <extensions>
          <ns3:TrackPointExtension>
            <ns3:atemp>22.0</ns3:atemp>
            <ns3:hr>91</ns3:hr>
          </ns3:TrackPointExtension>
        </extensions>
      </trkpt>
      <trkpt lat="47.74947621859610080718994140625" lon="12.2515474073588848114013671875">
        <ele>1596.5999755859375</ele>
        <time>2020-06-23T15:11:21.000Z</time>
        <extensions>
          <ns3:TrackPointExtension>
            <ns3:atemp>22.0</ns3:atemp>
            <ns3:hr>90</ns3:hr>
          </ns3:TrackPointExtension>
        </extensions>
      </trkpt>
      <trkpt lat="47.74950471706688404083251953125" lon="12.25160323083400726318359375">
        <ele>1596</ele>
        <time>2020-06-23T15:11:22.000Z</time>
        <extensions>
          <ns3:TrackPointExtension>
            <ns3:atemp>22.0</ns3:atemp>
            <ns3:hr>91</ns3:hr>
          </ns3:TrackPointExtension>
        </extensions>
      </trkpt>
      <trkpt lat="47.7495403401553630828857421875" lon="12.2516508400440216064453125">
        <ele>1595.4000244140625</ele>
        <time>2020-06-23T15:11:23.000Z</time>
        <extensions>
          <ns3:TrackPointExtension>
            <ns3:atemp>22.0</ns3:atemp>
            <ns3:hr>89</ns3:hr>
          </ns3:TrackPointExtension>
        </extensions>
      </trkpt>
      <trkpt lat="47.7495805732905864715576171875" lon="12.25169367156922817230224609375">
        <ele>1594.5999755859375</ele>
        <time>2020-06-23T15:11:24.000Z</time>
        <extensions>
          <ns3:TrackPointExtension>
            <ns3:atemp>22.0</ns3:atemp>
            <ns3:hr>87</ns3:hr>
          </ns3:TrackPointExtension>
        </extensions>
      </trkpt>
      <trkpt lat="47.74962038733065128326416015625" lon="12.2517358325421810150146484375">
        <ele>1593.5999755859375</ele>
        <time>2020-06-23T15:11:25.000Z</time>
        <extensions>
          <ns3:TrackPointExtension>
            <ns3:atemp>22.0</ns3:atemp>
            <ns3:hr>89</ns3:hr>
          </ns3:TrackPointExtension>
        </extensions>
      </trkpt>
      <trkpt lat="47.749658189713954925537109375" lon="12.2517780773341655731201171875">
        <ele>1592.199951171875</ele>
        <time>2020-06-23T15:11:26.000Z</time>
        <extensions>
          <ns3:TrackPointExtension>
            <ns3:atemp>22.0</ns3:atemp>
            <ns3:hr>86</ns3:hr>
          </ns3:TrackPointExtension>
        </extensions>
      </trkpt>
      <trkpt lat="47.749695740640163421630859375" lon="12.2518169693648815155029296875">
        <ele>1591</ele>
        <time>2020-06-23T15:11:27.000Z</time>
        <extensions>
          <ns3:TrackPointExtension>
            <ns3:atemp>22.0</ns3:atemp>
            <ns3:hr>85</ns3:hr>
          </ns3:TrackPointExtension>
        </extensions>
      </trkpt>
      <trkpt lat="47.74973438121378421783447265625" lon="12.2518494911491870880126953125">
        <ele>1589.800048828125</ele>
        <time>2020-06-23T15:11:28.000Z</time>
        <extensions>
          <ns3:TrackPointExtension>
            <ns3:atemp>22.0</ns3:atemp>
            <ns3:hr>86</ns3:hr>
          </ns3:TrackPointExtension>
        </extensions>
      </trkpt>
      <trkpt lat="47.7497730217874050140380859375" lon="12.251874469220638275146484375">
        <ele>1588.199951171875</ele>
        <time>2020-06-23T15:11:29.000Z</time>
        <extensions>
          <ns3:TrackPointExtension>
            <ns3:atemp>22.0</ns3:atemp>
            <ns3:hr>87</ns3:hr>
          </ns3:TrackPointExtension>
        </extensions>
      </trkpt>
      <trkpt lat="47.74981199763715267181396484375" lon="12.2518934123218059539794921875">
        <ele>1586.800048828125</ele>
        <time>2020-06-23T15:11:30.000Z</time>
        <extensions>
          <ns3:TrackPointExtension>
            <ns3:atemp>22.0</ns3:atemp>
            <ns3:hr>86</ns3:hr>
          </ns3:TrackPointExtension>
        </extensions>
      </trkpt>
      <trkpt lat="47.7498528175055980682373046875" lon="12.25191227160394191741943359375">
        <ele>1585.4000244140625</ele>
        <time>2020-06-23T15:11:31.000Z</time>
        <extensions>
          <ns3:TrackPointExtension>
            <ns3:atemp>22.0</ns3:atemp>
            <ns3:hr>86</ns3:hr>
          </ns3:TrackPointExtension>
        </extensions>
      </trkpt>
      <trkpt lat="47.74989388883113861083984375" lon="12.2519343160092830657958984375">
        <ele>1584.199951171875</ele>
        <time>2020-06-23T15:11:32.000Z</time>
        <extensions>
          <ns3:TrackPointExtension>
            <ns3:atemp>22.0</ns3:atemp>
            <ns3:hr>86</ns3:hr>
          </ns3:TrackPointExtension>
        </extensions>
      </trkpt>
      <trkpt lat="47.7499349601566791534423828125" lon="12.251960299909114837646484375">
        <ele>1582.5999755859375</ele>
        <time>2020-06-23T15:11:33.000Z</time>
        <extensions>
          <ns3:TrackPointExtension>
            <ns3:atemp>22.0</ns3:atemp>
            <ns3:hr>86</ns3:hr>
          </ns3:TrackPointExtension>
        </extensions>
      </trkpt>
      <trkpt lat="47.74997728876769542694091796875" lon="12.2519973479211330413818359375">
        <ele>1581</ele>
        <time>2020-06-23T15:11:34.000Z</time>
        <extensions>
          <ns3:TrackPointExtension>
            <ns3:atemp>22.0</ns3:atemp>
            <ns3:hr>86</ns3:hr>
          </ns3:TrackPointExtension>
        </extensions>
      </trkpt>
      <trkpt lat="47.75001701898872852325439453125" lon="12.25205342285335063934326171875">
        <ele>1579.199951171875</ele>
        <time>2020-06-23T15:11:35.000Z</time>
        <extensions>
          <ns3:TrackPointExtension>
            <ns3:atemp>22.0</ns3:atemp>
            <ns3:hr>86</ns3:hr>
          </ns3:TrackPointExtension>
        </extensions>
      </trkpt>
      <trkpt lat="47.75004685856401920318603515625" lon="12.25212802179157733917236328125">
        <ele>1577.800048828125</ele>
        <time>2020-06-23T15:11:36.000Z</time>
        <extensions>
          <ns3:TrackPointExtension>
            <ns3:atemp>22.0</ns3:atemp>
            <ns3:hr>86</ns3:hr>
          </ns3:TrackPointExtension>
        </extensions>
      </trkpt>
      <trkpt lat="47.75006244890391826629638671875" lon="12.25220899097621440887451171875">
        <ele>1576.800048828125</ele>
        <time>2020-06-23T15:11:37.000Z</time>
        <extensions>
          <ns3:TrackPointExtension>
            <ns3:atemp>22.0</ns3:atemp>
            <ns3:hr>86</ns3:hr>
          </ns3:TrackPointExtension>
        </extensions>
      </trkpt>
      <trkpt lat="47.7500704117119312286376953125" lon="12.25228610448539257049560546875">
        <ele>1575.5999755859375</ele>
        <time>2020-06-23T15:11:38.000Z</time>
        <extensions>
          <ns3:TrackPointExtension>
            <ns3:atemp>22.0</ns3:atemp>
            <ns3:hr>86</ns3:hr>
          </ns3:TrackPointExtension>
        </extensions>
      </trkpt>
      <trkpt lat="47.75008139200508594512939453125" lon="12.2523589432239532470703125">
        <ele>1574.199951171875</ele>
        <time>2020-06-23T15:11:39.000Z</time>
        <extensions>
          <ns3:TrackPointExtension>
            <ns3:atemp>22.0</ns3:atemp>
            <ns3:hr>86</ns3:hr>
          </ns3:TrackPointExtension>
        </extensions>
      </trkpt>
      <trkpt lat="47.7501002512872219085693359375" lon="12.2524322010576725006103515625">
        <ele>1572.4000244140625</ele>
        <time>2020-06-23T15:11:40.000Z</time>
        <extensions>
          <ns3:TrackPointExtension>
            <ns3:atemp>22.0</ns3:atemp>
            <ns3:hr>85</ns3:hr>
          </ns3:TrackPointExtension>
        </extensions>
      </trkpt>
      <trkpt lat="47.75012682192027568817138671875" lon="12.25250721909105777740478515625">
        <ele>1570.199951171875</ele>
        <time>2020-06-23T15:11:41.000Z</time>
        <extensions>
          <ns3:TrackPointExtension>
            <ns3:atemp>22.0</ns3:atemp>
            <ns3:hr>86</ns3:hr>
          </ns3:TrackPointExtension>
        </extensions>
      </trkpt>
      <trkpt lat="47.75015766732394695281982421875" lon="12.2525777108967304229736328125">
        <ele>1568</ele>
        <time>2020-06-23T15:11:42.000Z</time>
        <extensions>
          <ns3:TrackPointExtension>
            <ns3:atemp>22.0</ns3:atemp>
            <ns3:hr>86</ns3:hr>
          </ns3:TrackPointExtension>
        </extensions>
      </trkpt>
      <trkpt lat="47.7501907758414745330810546875" lon="12.2526363842189311981201171875">
        <ele>1566</ele>
        <time>2020-06-23T15:11:43.000Z</time>
        <extensions>
          <ns3:TrackPointExtension>
            <ns3:atemp>22.0</ns3:atemp>
            <ns3:hr>85</ns3:hr>
          </ns3:TrackPointExtension>
        </extensions>
      </trkpt>
      <trkpt lat="47.75022505782544612884521484375" lon="12.2526843287050724029541015625">
        <ele>1564</ele>
        <time>2020-06-23T15:11:44.000Z</time>
        <extensions>
          <ns3:TrackPointExtension>
            <ns3:atemp>22.0</ns3:atemp>
            <ns3:hr>85</ns3:hr>
          </ns3:TrackPointExtension>
        </extensions>
      </trkpt>
      <trkpt lat="47.7502618543803691864013671875" lon="12.25272917188704013824462890625">
        <ele>1562.199951171875</ele>
        <time>2020-06-23T15:11:45.000Z</time>
        <extensions>
          <ns3:TrackPointExtension>
            <ns3:atemp>22.0</ns3:atemp>
            <ns3:hr>83</ns3:hr>
          </ns3:TrackPointExtension>
        </extensions>
      </trkpt>
      <trkpt lat="47.7503024227917194366455078125" lon="12.25277594290673732757568359375">
        <ele>1560.199951171875</ele>
        <time>2020-06-23T15:11:46.000Z</time>
        <extensions>
          <ns3:TrackPointExtension>
            <ns3:atemp>22.0</ns3:atemp>
            <ns3:hr>88</ns3:hr>
          </ns3:TrackPointExtension>
        </extensions>
      </trkpt>
      <trkpt lat="47.75034693069756031036376953125" lon="12.2528217919170856475830078125">
        <ele>1558.199951171875</ele>
        <time>2020-06-23T15:11:47.000Z</time>
        <extensions>
          <ns3:TrackPointExtension>
            <ns3:atemp>22.0</ns3:atemp>
            <ns3:hr>86</ns3:hr>
          </ns3:TrackPointExtension>
        </extensions>
      </trkpt>
      <trkpt lat="47.750393450260162353515625" lon="12.2528586722910404205322265625">
        <ele>1556.4000244140625</ele>
        <time>2020-06-23T15:11:48.000Z</time>
        <extensions>
          <ns3:TrackPointExtension>
            <ns3:atemp>22.0</ns3:atemp>
            <ns3:hr>86</ns3:hr>
          </ns3:TrackPointExtension>
        </extensions>
      </trkpt>
      <trkpt lat="47.75043795816600322723388671875" lon="12.25288574583828449249267578125">
        <ele>1554.5999755859375</ele>
        <time>2020-06-23T15:11:49.000Z</time>
        <extensions>
          <ns3:TrackPointExtension>
            <ns3:atemp>22.0</ns3:atemp>
            <ns3:hr>86</ns3:hr>
          </ns3:TrackPointExtension>
        </extensions>
      </trkpt>
      <trkpt lat="47.75047852657735347747802734375" lon="12.25291022099554538726806640625">
        <ele>1553.199951171875</ele>
        <time>2020-06-23T15:11:50.000Z</time>
        <extensions>
          <ns3:TrackPointExtension>
            <ns3:atemp>22.0</ns3:atemp>
            <ns3:hr>86</ns3:hr>
          </ns3:TrackPointExtension>
        </extensions>
      </trkpt>
      <trkpt lat="47.75051658041775226593017578125" lon="12.252943329513072967529296875">
        <ele>1551.800048828125</ele>
        <time>2020-06-23T15:11:51.000Z</time>
        <extensions>
          <ns3:TrackPointExtension>
            <ns3:atemp>22.0</ns3:atemp>
            <ns3:hr>86</ns3:hr>
          </ns3:TrackPointExtension>
        </extensions>
      </trkpt>
      <trkpt lat="47.75055429898202419281005859375" lon="12.2529901005327701568603515625">
        <ele>1550.199951171875</ele>
        <time>2020-06-23T15:11:52.000Z</time>
        <extensions>
          <ns3:TrackPointExtension>
            <ns3:atemp>22.0</ns3:atemp>
            <ns3:hr>86</ns3:hr>
          </ns3:TrackPointExtension>
        </extensions>
      </trkpt>
      <trkpt lat="47.75059235282242298126220703125" lon="12.2530467621982097625732421875">
        <ele>1548.5999755859375</ele>
        <time>2020-06-23T15:11:53.000Z</time>
        <extensions>
          <ns3:TrackPointExtension>
            <ns3:atemp>22.0</ns3:atemp>
            <ns3:hr>86</ns3:hr>
          </ns3:TrackPointExtension>
        </extensions>
      </trkpt>
      <trkpt lat="47.75062805972993373870849609375" lon="12.25310736335813999176025390625">
        <ele>1547.4000244140625</ele>
        <time>2020-06-23T15:11:54.000Z</time>
        <extensions>
          <ns3:TrackPointExtension>
            <ns3:atemp>22.0</ns3:atemp>
            <ns3:hr>85</ns3:hr>
          </ns3:TrackPointExtension>
        </extensions>
      </trkpt>
      <trkpt lat="47.7506571449339389801025390625" lon="12.25316695868968963623046875">
        <ele>1546.5999755859375</ele>
        <time>2020-06-23T15:11:55.000Z</time>
        <extensions>
          <ns3:TrackPointExtension>
            <ns3:atemp>22.0</ns3:atemp>
            <ns3:hr>84</ns3:hr>
          </ns3:TrackPointExtension>
        </extensions>
      </trkpt>
      <trkpt lat="47.75068153627216815948486328125" lon="12.2532254643738269805908203125">
        <ele>1545.5999755859375</ele>
        <time>2020-06-23T15:11:56.000Z</time>
        <extensions>
          <ns3:TrackPointExtension>
            <ns3:atemp>22.0</ns3:atemp>
            <ns3:hr>84</ns3:hr>
          </ns3:TrackPointExtension>
        </extensions>
      </trkpt>
      <trkpt lat="47.75070793926715850830078125" lon="12.25327868945896625518798828125">
        <ele>1544.5999755859375</ele>
        <time>2020-06-23T15:11:57.000Z</time>
        <extensions>
          <ns3:TrackPointExtension>
            <ns3:atemp>22.0</ns3:atemp>
            <ns3:hr>84</ns3:hr>
          </ns3:TrackPointExtension>
        </extensions>
      </trkpt>
      <trkpt lat="47.75074071250855922698974609375" lon="12.253325879573822021484375">
        <ele>1543.5999755859375</ele>
        <time>2020-06-23T15:11:58.000Z</time>
        <extensions>
          <ns3:TrackPointExtension>
            <ns3:atemp>22.0</ns3:atemp>
            <ns3:hr>85</ns3:hr>
          </ns3:TrackPointExtension>
        </extensions>
      </trkpt>
      <trkpt lat="47.750779688358306884765625" lon="12.2533713094890117645263671875">
        <ele>1542.4000244140625</ele>
        <time>2020-06-23T15:11:59.000Z</time>
        <extensions>
          <ns3:TrackPointExtension>
            <ns3:atemp>22.0</ns3:atemp>
            <ns3:hr>84</ns3:hr>
          </ns3:TrackPointExtension>
        </extensions>
      </trkpt>
      <trkpt lat="47.75081983767449855804443359375" lon="12.25342151708900928497314453125">
        <ele>1541</ele>
        <time>2020-06-23T15:12:00.000Z</time>
        <extensions>
          <ns3:TrackPointExtension>
            <ns3:atemp>22.0</ns3:atemp>
            <ns3:hr>84</ns3:hr>
          </ns3:TrackPointExtension>
        </extensions>
      </trkpt>
      <trkpt lat="47.750853784382343292236328125" lon="12.25347868166863918304443359375">
        <ele>1539.800048828125</ele>
        <time>2020-06-23T15:12:01.000Z</time>
        <extensions>
          <ns3:TrackPointExtension>
            <ns3:atemp>22.0</ns3:atemp>
            <ns3:hr>85</ns3:hr>
          </ns3:TrackPointExtension>
        </extensions>
      </trkpt>
      <trkpt lat="47.75088186375796794891357421875" lon="12.25354020483791828155517578125">
        <ele>1538.5999755859375</ele>
        <time>2020-06-23T15:12:02.000Z</time>
        <extensions>
          <ns3:TrackPointExtension>
            <ns3:atemp>22.0</ns3:atemp>
            <ns3:hr>85</ns3:hr>
          </ns3:TrackPointExtension>
        </extensions>
      </trkpt>
      <trkpt lat="47.7509096078574657440185546875" lon="12.25359854288399219512939453125">
        <ele>1537.5999755859375</ele>
        <time>2020-06-23T15:12:03.000Z</time>
        <extensions>
          <ns3:TrackPointExtension>
            <ns3:atemp>22.0</ns3:atemp>
            <ns3:hr>85</ns3:hr>
          </ns3:TrackPointExtension>
        </extensions>
      </trkpt>
      <trkpt lat="47.75094036944210529327392578125" lon="12.25364975631237030029296875">
        <ele>1536.5999755859375</ele>
        <time>2020-06-23T15:12:04.000Z</time>
        <extensions>
          <ns3:TrackPointExtension>
            <ns3:atemp>22.0</ns3:atemp>
            <ns3:hr>87</ns3:hr>
          </ns3:TrackPointExtension>
        </extensions>
      </trkpt>
      <trkpt lat="47.7509736455976963043212890625" lon="12.25369661115109920501708984375">
        <ele>1535.5999755859375</ele>
        <time>2020-06-23T15:12:05.000Z</time>
        <extensions>
          <ns3:TrackPointExtension>
            <ns3:atemp>22.0</ns3:atemp>
            <ns3:hr>87</ns3:hr>
          </ns3:TrackPointExtension>
        </extensions>
      </trkpt>
      <trkpt lat="47.75100566446781158447265625" lon="12.253747992217540740966796875">
        <ele>1534.5999755859375</ele>
        <time>2020-06-23T15:12:06.000Z</time>
        <extensions>
          <ns3:TrackPointExtension>
            <ns3:atemp>22.0</ns3:atemp>
            <ns3:hr>88</ns3:hr>
          </ns3:TrackPointExtension>
        </extensions>
      </trkpt>
      <trkpt lat="47.75103424675762653350830078125" lon="12.25380666553974151611328125">
        <ele>1533.5999755859375</ele>
        <time>2020-06-23T15:12:07.000Z</time>
        <extensions>
          <ns3:TrackPointExtension>
            <ns3:atemp>22.0</ns3:atemp>
            <ns3:hr>88</ns3:hr>
          </ns3:TrackPointExtension>
        </extensions>
      </trkpt>
      <trkpt lat="47.75106064975261688232421875" lon="12.25386693142354488372802734375">
        <ele>1532.800048828125</ele>
        <time>2020-06-23T15:12:08.000Z</time>
        <extensions>
          <ns3:TrackPointExtension>
            <ns3:atemp>22.0</ns3:atemp>
            <ns3:hr>88</ns3:hr>
          </ns3:TrackPointExtension>
        </extensions>
      </trkpt>
      <trkpt lat="47.75108822621405124664306640625" lon="12.2539208270609378814697265625">
        <ele>1531.5999755859375</ele>
        <time>2020-06-23T15:12:09.000Z</time>
        <extensions>
          <ns3:TrackPointExtension>
            <ns3:atemp>22.0</ns3:atemp>
            <ns3:hr>87</ns3:hr>
          </ns3:TrackPointExtension>
        </extensions>
      </trkpt>
      <trkpt lat="47.75116391479969024658203125" lon="12.25401411764323711395263671875">
        <ele>1530.199951171875</ele>
        <time>2020-06-23T15:12:11.000Z</time>
        <extensions>
          <ns3:TrackPointExtension>
            <ns3:atemp>22.0</ns3:atemp>
            <ns3:hr>86</ns3:hr>
          </ns3:TrackPointExtension>
        </extensions>
      </trkpt>
      <trkpt lat="47.75129936635494232177734375" lon="12.25416365079581737518310546875">
        <ele>1531</ele>
        <time>2020-06-23T15:12:15.000Z</time>
        <extensions>
          <ns3:TrackPointExtension>
            <ns3:atemp>22.0</ns3:atemp>
            <ns3:hr>86</ns3:hr>
          </ns3:TrackPointExtension>
        </extensions>
      </trkpt>
      <trkpt lat="47.751325853168964385986328125" lon="12.254178822040557861328125">
        <ele>1531.199951171875</ele>
        <time>2020-06-23T15:12:16.000Z</time>
        <extensions>
          <ns3:TrackPointExtension>
            <ns3:atemp>22.0</ns3:atemp>
            <ns3:hr>86</ns3:hr>
          </ns3:TrackPointExtension>
        </extensions>
      </trkpt>
      <trkpt lat="47.7514185570180416107177734375" lon="12.25420455448329448699951171875">
        <ele>1531.4000244140625</ele>
        <time>2020-06-23T15:12:18.000Z</time>
        <extensions>
          <ns3:TrackPointExtension>
            <ns3:atemp>22.0</ns3:atemp>
            <ns3:hr>87</ns3:hr>
          </ns3:TrackPointExtension>
        </extensions>
      </trkpt>
      <trkpt lat="47.75147178210318088531494140625" lon="12.2542061470448970794677734375">
        <ele>1530.800048828125</ele>
        <time>2020-06-23T15:12:19.000Z</time>
        <extensions>
          <ns3:TrackPointExtension>
            <ns3:atemp>22.0</ns3:atemp>
            <ns3:hr>86</ns3:hr>
          </ns3:TrackPointExtension>
        </extensions>
      </trkpt>
      <trkpt lat="47.7515132725238800048828125" lon="12.25418795831501483917236328125">
        <ele>1529.800048828125</ele>
        <time>2020-06-23T15:12:20.000Z</time>
        <extensions>
          <ns3:TrackPointExtension>
            <ns3:atemp>22.0</ns3:atemp>
            <ns3:hr>86</ns3:hr>
          </ns3:TrackPointExtension>
        </extensions>
      </trkpt>
      <trkpt lat="47.751537747681140899658203125" lon="12.2541407682001590728759765625">
        <ele>1529</ele>
        <time>2020-06-23T15:12:21.000Z</time>
        <extensions>
          <ns3:TrackPointExtension>
            <ns3:atemp>22.0</ns3:atemp>
            <ns3:hr>86</ns3:hr>
          </ns3:TrackPointExtension>
        </extensions>
      </trkpt>
      <trkpt lat="47.75154571048915386199951171875" lon="12.254056446254253387451171875">
        <ele>1528.199951171875</ele>
        <time>2020-06-23T15:12:22.000Z</time>
        <extensions>
          <ns3:TrackPointExtension>
            <ns3:atemp>22.0</ns3:atemp>
            <ns3:hr>85</ns3:hr>
          </ns3:TrackPointExtension>
        </extensions>
      </trkpt>
      <trkpt lat="47.75153732858598232269287109375" lon="12.253941781818866729736328125">
        <ele>1527.4000244140625</ele>
        <time>2020-06-23T15:12:23.000Z</time>
        <extensions>
          <ns3:TrackPointExtension>
            <ns3:atemp>22.0</ns3:atemp>
            <ns3:hr>86</ns3:hr>
          </ns3:TrackPointExtension>
        </extensions>
      </trkpt>
      <trkpt lat="47.7515023760497570037841796875" lon="12.25381529890000820159912109375">
        <ele>1526.4000244140625</ele>
        <time>2020-06-23T15:12:24.000Z</time>
        <extensions>
          <ns3:TrackPointExtension>
            <ns3:atemp>22.0</ns3:atemp>
            <ns3:hr>86</ns3:hr>
          </ns3:TrackPointExtension>
        </extensions>
      </trkpt>
      <trkpt lat="47.75143607519567012786865234375" lon="12.25369376130402088165283203125">
        <ele>1525.5999755859375</ele>
        <time>2020-06-23T15:12:25.000Z</time>
        <extensions>
          <ns3:TrackPointExtension>
            <ns3:atemp>22.0</ns3:atemp>
            <ns3:hr>87</ns3:hr>
          </ns3:TrackPointExtension>
        </extensions>
      </trkpt>
      <trkpt lat="47.7513451315462589263916015625" lon="12.253599464893341064453125">
        <ele>1524.800048828125</ele>
        <time>2020-06-23T15:12:26.000Z</time>
        <extensions>
          <ns3:TrackPointExtension>
            <ns3:atemp>22.0</ns3:atemp>
            <ns3:hr>87</ns3:hr>
          </ns3:TrackPointExtension>
        </extensions>
      </trkpt>
      <trkpt lat="47.7512396872043609619140625" lon="12.25353383459150791168212890625">
        <ele>1524.199951171875</ele>
        <time>2020-06-23T15:12:27.000Z</time>
        <extensions>
          <ns3:TrackPointExtension>
            <ns3:atemp>22.0</ns3:atemp>
            <ns3:hr>87</ns3:hr>
          </ns3:TrackPointExtension>
        </extensions>
      </trkpt>
      <trkpt lat="47.75113047100603580474853515625" lon="12.253483124077320098876953125">
        <ele>1523.5999755859375</ele>
        <time>2020-06-23T15:12:28.000Z</time>
        <extensions>
          <ns3:TrackPointExtension>
            <ns3:atemp>22.0</ns3:atemp>
            <ns3:hr>87</ns3:hr>
          </ns3:TrackPointExtension>
        </extensions>
      </trkpt>
      <trkpt lat="47.75070131756365299224853515625" lon="12.2532878257334232330322265625">
        <ele>1522.800048828125</ele>
        <time>2020-06-23T15:12:32.000Z</time>
        <extensions>
          <ns3:TrackPointExtension>
            <ns3:atemp>22.0</ns3:atemp>
            <ns3:hr>85</ns3:hr>
          </ns3:TrackPointExtension>
        </extensions>
      </trkpt>
      <trkpt lat="47.75053703226149082183837890625" lon="12.2531081177294254302978515625">
        <ele>1522.5999755859375</ele>
        <time>2020-06-23T15:12:34.000Z</time>
        <extensions>
          <ns3:TrackPointExtension>
            <ns3:atemp>22.0</ns3:atemp>
            <ns3:hr>84</ns3:hr>
          </ns3:TrackPointExtension>
        </extensions>
      </trkpt>
      <trkpt lat="47.7504744194447994232177734375" lon="12.2530014999210834503173828125">
        <ele>1522.5999755859375</ele>
        <time>2020-06-23T15:12:35.000Z</time>
        <extensions>
          <ns3:TrackPointExtension>
            <ns3:atemp>22.0</ns3:atemp>
            <ns3:hr>83</ns3:hr>
          </ns3:TrackPointExtension>
        </extensions>
      </trkpt>
      <trkpt lat="47.750312648713588714599609375" lon="12.2526735998690128326416015625">
        <ele>1522.800048828125</ele>
        <time>2020-06-23T15:12:38.000Z</time>
        <extensions>
          <ns3:TrackPointExtension>
            <ns3:atemp>22.0</ns3:atemp>
            <ns3:hr>83</ns3:hr>
          </ns3:TrackPointExtension>
        </extensions>
      </trkpt>
      <trkpt lat="47.7502598427236080169677734375" lon="12.2524581849575042724609375">
        <ele>1524</ele>
        <time>2020-06-23T15:12:40.000Z</time>
        <extensions>
          <ns3:TrackPointExtension>
            <ns3:atemp>22.0</ns3:atemp>
            <ns3:hr>83</ns3:hr>
          </ns3:TrackPointExtension>
        </extensions>
      </trkpt>
      <trkpt lat="47.75023519992828369140625" lon="12.2523473761975765228271484375">
        <ele>1524.800048828125</ele>
        <time>2020-06-23T15:12:41.000Z</time>
        <extensions>
          <ns3:TrackPointExtension>
            <ns3:atemp>22.0</ns3:atemp>
            <ns3:hr>83</ns3:hr>
          </ns3:TrackPointExtension>
        </extensions>
      </trkpt>
      <trkpt lat="47.75019890628755092620849609375" lon="12.252231538295745849609375">
        <ele>1525.5999755859375</ele>
        <time>2020-06-23T15:12:42.000Z</time>
        <extensions>
          <ns3:TrackPointExtension>
            <ns3:atemp>22.0</ns3:atemp>
            <ns3:hr>83</ns3:hr>
          </ns3:TrackPointExtension>
        </extensions>
      </trkpt>
      <trkpt lat="47.7501518838107585906982421875" lon="12.25211150944232940673828125">
        <ele>1526.4000244140625</ele>
        <time>2020-06-23T15:12:43.000Z</time>
        <extensions>
          <ns3:TrackPointExtension>
            <ns3:atemp>22.0</ns3:atemp>
            <ns3:hr>83</ns3:hr>
          </ns3:TrackPointExtension>
        </extensions>
      </trkpt>
      <trkpt lat="47.750104106962680816650390625" lon="12.2519893012940883636474609375">
        <ele>1527.199951171875</ele>
        <time>2020-06-23T15:12:44.000Z</time>
        <extensions>
          <ns3:TrackPointExtension>
            <ns3:atemp>22.0</ns3:atemp>
            <ns3:hr>83</ns3:hr>
          </ns3:TrackPointExtension>
        </extensions>
      </trkpt>
      <trkpt lat="47.75001056492328643798828125" lon="12.2517589665949344635009765625">
        <ele>1528.800048828125</ele>
        <time>2020-06-23T15:12:46.000Z</time>
        <extensions>
          <ns3:TrackPointExtension>
            <ns3:atemp>22.0</ns3:atemp>
            <ns3:hr>83</ns3:hr>
          </ns3:TrackPointExtension>
        </extensions>
      </trkpt>
      <trkpt lat="47.749902270734310150146484375" lon="12.251528799533843994140625">
        <ele>1530.5999755859375</ele>
        <time>2020-06-23T15:12:48.000Z</time>
        <extensions>
          <ns3:TrackPointExtension>
            <ns3:atemp>22.0</ns3:atemp>
            <ns3:hr>83</ns3:hr>
          </ns3:TrackPointExtension>
        </extensions>
      </trkpt>
      <trkpt lat="47.74979858659207820892333984375" lon="12.25129150785505771636962890625">
        <ele>1532</ele>
        <time>2020-06-23T15:12:50.000Z</time>
        <extensions>
          <ns3:TrackPointExtension>
            <ns3:atemp>22.0</ns3:atemp>
            <ns3:hr>83</ns3:hr>
          </ns3:TrackPointExtension>
        </extensions>
      </trkpt>
      <trkpt lat="47.749658524990081787109375" lon="12.2511222772300243377685546875">
        <ele>1532.5999755859375</ele>
        <time>2020-06-23T15:12:52.000Z</time>
        <extensions>
          <ns3:TrackPointExtension>
            <ns3:atemp>22.0</ns3:atemp>
            <ns3:hr>85</ns3:hr>
          </ns3:TrackPointExtension>
        </extensions>
      </trkpt>
      <trkpt lat="47.749502956867218017578125" lon="12.25096779875457286834716796875">
        <ele>1532.4000244140625</ele>
        <time>2020-06-23T15:12:54.000Z</time>
        <extensions>
          <ns3:TrackPointExtension>
            <ns3:atemp>22.0</ns3:atemp>
            <ns3:hr>84</ns3:hr>
          </ns3:TrackPointExtension>
        </extensions>
      </trkpt>
      <trkpt lat="47.74937194772064685821533203125" lon="12.25075607188045978546142578125">
        <ele>1530.199951171875</ele>
        <time>2020-06-23T15:12:56.000Z</time>
        <extensions>
          <ns3:TrackPointExtension>
            <ns3:atemp>22.0</ns3:atemp>
            <ns3:hr>84</ns3:hr>
          </ns3:TrackPointExtension>
        </extensions>
      </trkpt>
      <trkpt lat="47.749309837818145751953125" lon="12.2506476938724517822265625">
        <ele>1528.4000244140625</ele>
        <time>2020-06-23T15:12:57.000Z</time>
        <extensions>
          <ns3:TrackPointExtension>
            <ns3:atemp>22.0</ns3:atemp>
            <ns3:hr>83</ns3:hr>
          </ns3:TrackPointExtension>
        </extensions>
      </trkpt>
      <trkpt lat="47.74925552308559417724609375" lon="12.25054065696895122528076171875">
        <ele>1525.800048828125</ele>
        <time>2020-06-23T15:12:58.000Z</time>
        <extensions>
          <ns3:TrackPointExtension>
            <ns3:atemp>22.0</ns3:atemp>
            <ns3:hr>83</ns3:hr>
          </ns3:TrackPointExtension>
        </extensions>
      </trkpt>
      <trkpt lat="47.74921570904552936553955078125" lon="12.25043085403740406036376953125">
        <ele>1523.5999755859375</ele>
        <time>2020-06-23T15:12:59.000Z</time>
        <extensions>
          <ns3:TrackPointExtension>
            <ns3:atemp>22.0</ns3:atemp>
            <ns3:hr>82</ns3:hr>
          </ns3:TrackPointExtension>
        </extensions>
      </trkpt>
      <trkpt lat="47.74919115006923675537109375" lon="12.2503142617642879486083984375">
        <ele>1521.5999755859375</ele>
        <time>2020-06-23T15:13:00.000Z</time>
        <extensions>
          <ns3:TrackPointExtension>
            <ns3:atemp>22.0</ns3:atemp>
            <ns3:hr>82</ns3:hr>
          </ns3:TrackPointExtension>
        </extensions>
      </trkpt>
      <trkpt lat="47.749171368777751922607421875" lon="12.25019398145377635955810546875">
        <ele>1519.800048828125</ele>
        <time>2020-06-23T15:13:01.000Z</time>
        <extensions>
          <ns3:TrackPointExtension>
            <ns3:atemp>22.0</ns3:atemp>
            <ns3:hr>83</ns3:hr>
          </ns3:TrackPointExtension>
        </extensions>
      </trkpt>
      <trkpt lat="47.7491475641727447509765625" lon="12.2500742040574550628662109375">
        <ele>1518</ele>
        <time>2020-06-23T15:13:02.000Z</time>
        <extensions>
          <ns3:TrackPointExtension>
            <ns3:atemp>22.0</ns3:atemp>
            <ns3:hr>82</ns3:hr>
          </ns3:TrackPointExtension>
        </extensions>
      </trkpt>
      <trkpt lat="47.7491188980638980865478515625" lon="12.24995610304176807403564453125">
        <ele>1516.800048828125</ele>
        <time>2020-06-23T15:13:03.000Z</time>
        <extensions>
          <ns3:TrackPointExtension>
            <ns3:atemp>22.0</ns3:atemp>
            <ns3:hr>83</ns3:hr>
          </ns3:TrackPointExtension>
        </extensions>
      </trkpt>
      <trkpt lat="47.74906617589294910430908203125" lon="12.249722667038440704345703125">
        <ele>1514.800048828125</ele>
        <time>2020-06-23T15:13:05.000Z</time>
        <extensions>
          <ns3:TrackPointExtension>
            <ns3:atemp>22.0</ns3:atemp>
            <ns3:hr>85</ns3:hr>
          </ns3:TrackPointExtension>
        </extensions>
      </trkpt>
      <trkpt lat="47.74901940487325191497802734375" lon="12.24947263486683368682861328125">
        <ele>1513</ele>
        <time>2020-06-23T15:13:07.000Z</time>
        <extensions>
          <ns3:TrackPointExtension>
            <ns3:atemp>22.0</ns3:atemp>
            <ns3:hr>86</ns3:hr>
          </ns3:TrackPointExtension>
        </extensions>
      </trkpt>
      <trkpt lat="47.74895117618143558502197265625" lon="12.2492115385830402374267578125">
        <ele>1511.199951171875</ele>
        <time>2020-06-23T15:13:09.000Z</time>
        <extensions>
          <ns3:TrackPointExtension>
            <ns3:atemp>22.0</ns3:atemp>
            <ns3:hr>87</ns3:hr>
          </ns3:TrackPointExtension>
        </extensions>
      </trkpt>
      <trkpt lat="47.74888537824153900146484375" lon="12.24895932711660861968994140625">
        <ele>1510.4000244140625</ele>
        <time>2020-06-23T15:13:11.000Z</time>
        <extensions>
          <ns3:TrackPointExtension>
            <ns3:atemp>22.0</ns3:atemp>
            <ns3:hr>92</ns3:hr>
          </ns3:TrackPointExtension>
        </extensions>
      </trkpt>
      <trkpt lat="47.74886182509362697601318359375" lon="12.24883250892162322998046875">
        <ele>1510.199951171875</ele>
        <time>2020-06-23T15:13:12.000Z</time>
        <extensions>
          <ns3:TrackPointExtension>
            <ns3:atemp>22.0</ns3:atemp>
            <ns3:hr>94</ns3:hr>
          </ns3:TrackPointExtension>
        </extensions>
      </trkpt>
      <trkpt lat="47.7488201670348644256591796875" lon="12.24858105182647705078125">
        <ele>1509.4000244140625</ele>
        <time>2020-06-23T15:13:14.000Z</time>
        <extensions>
          <ns3:TrackPointExtension>
            <ns3:atemp>22.0</ns3:atemp>
            <ns3:hr>94</ns3:hr>
          </ns3:TrackPointExtension>
        </extensions>
      </trkpt>
      <trkpt lat="47.748797871172428131103515625" lon="12.24845959804952144622802734375">
        <ele>1508.800048828125</ele>
        <time>2020-06-23T15:13:15.000Z</time>
        <extensions>
          <ns3:TrackPointExtension>
            <ns3:atemp>22.0</ns3:atemp>
            <ns3:hr>92</ns3:hr>
          </ns3:TrackPointExtension>
        </extensions>
      </trkpt>
      <trkpt lat="47.74877917952835559844970703125" lon="12.24833898246288299560546875">
        <ele>1508</ele>
        <time>2020-06-23T15:13:16.000Z</time>
        <extensions>
          <ns3:TrackPointExtension>
            <ns3:atemp>22.0</ns3:atemp>
            <ns3:hr>94</ns3:hr>
          </ns3:TrackPointExtension>
        </extensions>
      </trkpt>
      <trkpt lat="47.74877062998712062835693359375" lon="12.24822071380913257598876953125">
        <ele>1507.4000244140625</ele>
        <time>2020-06-23T15:13:17.000Z</time>
        <extensions>
          <ns3:TrackPointExtension>
            <ns3:atemp>22.0</ns3:atemp>
            <ns3:hr>95</ns3:hr>
          </ns3:TrackPointExtension>
        </extensions>
      </trkpt>
      <trkpt lat="47.74877884425222873687744140625" lon="12.2481128387153148651123046875">
        <ele>1506.800048828125</ele>
        <time>2020-06-23T15:13:18.000Z</time>
        <extensions>
          <ns3:TrackPointExtension>
            <ns3:atemp>22.0</ns3:atemp>
            <ns3:hr>93</ns3:hr>
          </ns3:TrackPointExtension>
        </extensions>
      </trkpt>
      <trkpt lat="47.74881002493202686309814453125" lon="12.24802541546523571014404296875">
        <ele>1506.199951171875</ele>
        <time>2020-06-23T15:13:19.000Z</time>
        <extensions>
          <ns3:TrackPointExtension>
            <ns3:atemp>22.0</ns3:atemp>
            <ns3:hr>92</ns3:hr>
          </ns3:TrackPointExtension>
        </extensions>
      </trkpt>
      <trkpt lat="47.74885914288461208343505859375" lon="12.24797059781849384307861328125">
        <ele>1505.199951171875</ele>
        <time>2020-06-23T15:13:20.000Z</time>
        <extensions>
          <ns3:TrackPointExtension>
            <ns3:atemp>22.0</ns3:atemp>
            <ns3:hr>91</ns3:hr>
          </ns3:TrackPointExtension>
        </extensions>
      </trkpt>
      <trkpt lat="47.7489142119884490966796875" lon="12.24796070717275142669677734375">
        <ele>1504.199951171875</ele>
        <time>2020-06-23T15:13:21.000Z</time>
        <extensions>
          <ns3:TrackPointExtension>
            <ns3:atemp>22.0</ns3:atemp>
            <ns3:hr>91</ns3:hr>
          </ns3:TrackPointExtension>
        </extensions>
      </trkpt>
      <trkpt lat="47.74896207265555858612060546875" lon="12.2479901276528835296630859375">
        <ele>1503</ele>
        <time>2020-06-23T15:13:22.000Z</time>
        <extensions>
          <ns3:TrackPointExtension>
            <ns3:atemp>22.0</ns3:atemp>
            <ns3:hr>90</ns3:hr>
          </ns3:TrackPointExtension>
        </extensions>
      </trkpt>
      <trkpt lat="47.749027200043201446533203125" lon="12.24813639186322689056396484375">
        <ele>1501.5999755859375</ele>
        <time>2020-06-23T15:13:24.000Z</time>
        <extensions>
          <ns3:TrackPointExtension>
            <ns3:atemp>22.0</ns3:atemp>
            <ns3:hr>90</ns3:hr>
          </ns3:TrackPointExtension>
        </extensions>
      </trkpt>
      <trkpt lat="47.74904153309762477874755859375" lon="12.24824510514736175537109375">
        <ele>1500.800048828125</ele>
        <time>2020-06-23T15:13:25.000Z</time>
        <extensions>
          <ns3:TrackPointExtension>
            <ns3:atemp>22.0</ns3:atemp>
            <ns3:hr>90</ns3:hr>
          </ns3:TrackPointExtension>
        </extensions>
      </trkpt>
      <trkpt lat="47.7490411140024662017822265625" lon="12.2483746893703937530517578125">
        <ele>1499.800048828125</ele>
        <time>2020-06-23T15:13:26.000Z</time>
        <extensions>
          <ns3:TrackPointExtension>
            <ns3:atemp>22.0</ns3:atemp>
            <ns3:hr>90</ns3:hr>
          </ns3:TrackPointExtension>
        </extensions>
      </trkpt>
      <trkpt lat="47.74902845732867717742919921875" lon="12.248511649668216705322265625">
        <ele>1498.5999755859375</ele>
        <time>2020-06-23T15:13:27.000Z</time>
        <extensions>
          <ns3:TrackPointExtension>
            <ns3:atemp>22.0</ns3:atemp>
            <ns3:hr>90</ns3:hr>
          </ns3:TrackPointExtension>
        </extensions>
      </trkpt>
      <trkpt lat="47.74900934658944606781005859375" lon="12.2486449219286441802978515625">
        <ele>1497.199951171875</ele>
        <time>2020-06-23T15:13:28.000Z</time>
        <extensions>
          <ns3:TrackPointExtension>
            <ns3:atemp>22.0</ns3:atemp>
            <ns3:hr>90</ns3:hr>
          </ns3:TrackPointExtension>
        </extensions>
      </trkpt>
      <trkpt lat="47.7489931695163249969482421875" lon="12.24877023138105869293212890625">
        <ele>1495.800048828125</ele>
        <time>2020-06-23T15:13:29.000Z</time>
        <extensions>
          <ns3:TrackPointExtension>
            <ns3:atemp>22.0</ns3:atemp>
            <ns3:hr>90</ns3:hr>
          </ns3:TrackPointExtension>
        </extensions>
      </trkpt>
      <trkpt lat="47.74898453615605831146240234375" lon="12.24889059551060199737548828125">
        <ele>1494.5999755859375</ele>
        <time>2020-06-23T15:13:30.000Z</time>
        <extensions>
          <ns3:TrackPointExtension>
            <ns3:atemp>22.0</ns3:atemp>
            <ns3:hr>89</ns3:hr>
          </ns3:TrackPointExtension>
        </extensions>
      </trkpt>
      <trkpt lat="47.748998701572418212890625" lon="12.24912352859973907470703125">
        <ele>1492.800048828125</ele>
        <time>2020-06-23T15:13:32.000Z</time>
        <extensions>
          <ns3:TrackPointExtension>
            <ns3:atemp>22.0</ns3:atemp>
            <ns3:hr>90</ns3:hr>
          </ns3:TrackPointExtension>
        </extensions>
      </trkpt>
      <trkpt lat="47.74901940487325191497802734375" lon="12.249223776161670684814453125">
        <ele>1491.5999755859375</ele>
        <time>2020-06-23T15:13:33.000Z</time>
        <extensions>
          <ns3:TrackPointExtension>
            <ns3:atemp>22.0</ns3:atemp>
            <ns3:hr>90</ns3:hr>
          </ns3:TrackPointExtension>
        </extensions>
      </trkpt>
      <trkpt lat="47.74904572404921054840087890625" lon="12.2493119537830352783203125">
        <ele>1490.5999755859375</ele>
        <time>2020-06-23T15:13:34.000Z</time>
        <extensions>
          <ns3:TrackPointExtension>
            <ns3:atemp>22.0</ns3:atemp>
            <ns3:hr>89</ns3:hr>
          </ns3:TrackPointExtension>
        </extensions>
      </trkpt>
      <trkpt lat="47.7491064928472042083740234375" lon="12.24947623908519744873046875">
        <ele>1489.4000244140625</ele>
        <time>2020-06-23T15:13:36.000Z</time>
        <extensions>
          <ns3:TrackPointExtension>
            <ns3:atemp>22.0</ns3:atemp>
            <ns3:hr>88</ns3:hr>
          </ns3:TrackPointExtension>
        </extensions>
      </trkpt>
      <trkpt lat="47.74914194829761981964111328125" lon="12.249561734497547149658203125">
        <ele>1489</ele>
        <time>2020-06-23T15:13:37.000Z</time>
        <extensions>
          <ns3:TrackPointExtension>
            <ns3:atemp>22.0</ns3:atemp>
            <ns3:hr>91</ns3:hr>
          </ns3:TrackPointExtension>
        </extensions>
      </trkpt>
      <trkpt lat="47.7491802535951137542724609375" lon="12.24964521825313568115234375">
        <ele>1488.4000244140625</ele>
        <time>2020-06-23T15:13:38.000Z</time>
        <extensions>
          <ns3:TrackPointExtension>
            <ns3:atemp>22.0</ns3:atemp>
            <ns3:hr>91</ns3:hr>
          </ns3:TrackPointExtension>
        </extensions>
      </trkpt>
      <trkpt lat="47.74925812147557735443115234375" lon="12.249776311218738555908203125">
        <ele>1486.5999755859375</ele>
        <time>2020-06-23T15:13:40.000Z</time>
        <extensions>
          <ns3:TrackPointExtension>
            <ns3:atemp>22.0</ns3:atemp>
            <ns3:hr>91</ns3:hr>
          </ns3:TrackPointExtension>
        </extensions>
      </trkpt>
      <trkpt lat="47.749298773705959320068359375" lon="12.24982551299035549163818359375">
        <ele>1486</ele>
        <time>2020-06-23T15:13:41.000Z</time>
        <extensions>
          <ns3:TrackPointExtension>
            <ns3:atemp>22.0</ns3:atemp>
            <ns3:hr>92</ns3:hr>
          </ns3:TrackPointExtension>
        </extensions>
      </trkpt>
      <trkpt lat="47.74934344924986362457275390625" lon="12.249871529638767242431640625">
        <ele>1485.199951171875</ele>
        <time>2020-06-23T15:13:42.000Z</time>
        <extensions>
          <ns3:TrackPointExtension>
            <ns3:atemp>22.0</ns3:atemp>
            <ns3:hr>93</ns3:hr>
          </ns3:TrackPointExtension>
        </extensions>
      </trkpt>
      <trkpt lat="47.749443948268890380859375" lon="12.24996431730687618255615234375">
        <ele>1484.199951171875</ele>
        <time>2020-06-23T15:13:44.000Z</time>
        <extensions>
          <ns3:TrackPointExtension>
            <ns3:atemp>22.0</ns3:atemp>
            <ns3:hr>93</ns3:hr>
          </ns3:TrackPointExtension>
        </extensions>
      </trkpt>
      <trkpt lat="47.7495426870882511138916015625" lon="12.250076718628406524658203125">
        <ele>1483.199951171875</ele>
        <time>2020-06-23T15:13:46.000Z</time>
        <extensions>
          <ns3:TrackPointExtension>
            <ns3:atemp>22.0</ns3:atemp>
            <ns3:hr>92</ns3:hr>
          </ns3:TrackPointExtension>
        </extensions>
      </trkpt>
      <trkpt lat="47.74965676479041576385498046875" lon="12.25027260370552539825439453125">
        <ele>1482.199951171875</ele>
        <time>2020-06-23T15:13:49.000Z</time>
        <extensions>
          <ns3:TrackPointExtension>
            <ns3:atemp>22.0</ns3:atemp>
            <ns3:hr>90</ns3:hr>
          </ns3:TrackPointExtension>
        </extensions>
      </trkpt>
      <trkpt lat="47.7497280947864055633544921875" lon="12.25038995034992694854736328125">
        <ele>1481.800048828125</ele>
        <time>2020-06-23T15:13:51.000Z</time>
        <extensions>
          <ns3:TrackPointExtension>
            <ns3:atemp>22.0</ns3:atemp>
            <ns3:hr>92</ns3:hr>
          </ns3:TrackPointExtension>
        </extensions>
      </trkpt>
      <trkpt lat="47.74981132708489894866943359375" lon="12.2505060397088527679443359375">
        <ele>1480.800048828125</ele>
        <time>2020-06-23T15:13:53.000Z</time>
        <extensions>
          <ns3:TrackPointExtension>
            <ns3:atemp>22.0</ns3:atemp>
            <ns3:hr>93</ns3:hr>
          </ns3:TrackPointExtension>
        </extensions>
      </trkpt>
      <trkpt lat="47.74985642172396183013916015625" lon="12.25056781433522701263427734375">
        <ele>1480.199951171875</ele>
        <time>2020-06-23T15:13:54.000Z</time>
        <extensions>
          <ns3:TrackPointExtension>
            <ns3:atemp>22.0</ns3:atemp>
            <ns3:hr>90</ns3:hr>
          </ns3:TrackPointExtension>
        </extensions>
      </trkpt>
      <trkpt lat="47.74989883415400981903076171875" lon="12.25063704885542392730712890625">
        <ele>1479.4000244140625</ele>
        <time>2020-06-23T15:13:55.000Z</time>
        <extensions>
          <ns3:TrackPointExtension>
            <ns3:atemp>22.0</ns3:atemp>
            <ns3:hr>87</ns3:hr>
          </ns3:TrackPointExtension>
        </extensions>
      </trkpt>
      <trkpt lat="47.7499376423656940460205078125" lon="12.25071785040199756622314453125">
        <ele>1478.5999755859375</ele>
        <time>2020-06-23T15:13:56.000Z</time>
        <extensions>
          <ns3:TrackPointExtension>
            <ns3:atemp>22.0</ns3:atemp>
            <ns3:hr>84</ns3:hr>
          </ns3:TrackPointExtension>
        </extensions>
      </trkpt>
      <trkpt lat="47.74997276253998279571533203125" lon="12.2508139908313751220703125">
        <ele>1478.199951171875</ele>
        <time>2020-06-23T15:13:57.000Z</time>
        <extensions>
          <ns3:TrackPointExtension>
            <ns3:atemp>22.0</ns3:atemp>
            <ns3:hr>79</ns3:hr>
          </ns3:TrackPointExtension>
        </extensions>
      </trkpt>
      <trkpt lat="47.75004669092595577239990234375" lon="12.2511189244687557220458984375">
        <ele>1478.199951171875</ele>
        <time>2020-06-23T15:14:00.000Z</time>
        <extensions>
          <ns3:TrackPointExtension>
            <ns3:atemp>22.0</ns3:atemp>
            <ns3:hr>78</ns3:hr>
          </ns3:TrackPointExtension>
        </extensions>
      </trkpt>
      <trkpt lat="47.750065214931964874267578125" lon="12.2512190043926239013671875">
        <ele>1478.199951171875</ele>
        <time>2020-06-23T15:14:01.000Z</time>
        <extensions>
          <ns3:TrackPointExtension>
            <ns3:atemp>22.0</ns3:atemp>
            <ns3:hr>74</ns3:hr>
          </ns3:TrackPointExtension>
        </extensions>
      </trkpt>
      <trkpt lat="47.75012212805449962615966796875" lon="12.25161102600395679473876953125">
        <ele>1477.5999755859375</ele>
        <time>2020-06-23T15:14:05.000Z</time>
        <extensions>
          <ns3:TrackPointExtension>
            <ns3:atemp>22.0</ns3:atemp>
            <ns3:hr>75</ns3:hr>
          </ns3:TrackPointExtension>
        </extensions>
      </trkpt>
      <trkpt lat="47.75014945305883884429931640625" lon="12.2517019696533679962158203125">
        <ele>1476.800048828125</ele>
        <time>2020-06-23T15:14:06.000Z</time>
        <extensions>
          <ns3:TrackPointExtension>
            <ns3:atemp>22.0</ns3:atemp>
            <ns3:hr>78</ns3:hr>
          </ns3:TrackPointExtension>
        </extensions>
      </trkpt>
      <trkpt lat="47.750183902680873870849609375" lon="12.25178503431379795074462890625">
        <ele>1475.5999755859375</ele>
        <time>2020-06-23T15:14:07.000Z</time>
        <extensions>
          <ns3:TrackPointExtension>
            <ns3:atemp>22.0</ns3:atemp>
            <ns3:hr>77</ns3:hr>
          </ns3:TrackPointExtension>
        </extensions>
      </trkpt>
      <trkpt lat="47.750218771398067474365234375" lon="12.251861058175563812255859375">
        <ele>1474.4000244140625</ele>
        <time>2020-06-23T15:14:08.000Z</time>
        <extensions>
          <ns3:TrackPointExtension>
            <ns3:atemp>22.0</ns3:atemp>
            <ns3:hr>77</ns3:hr>
          </ns3:TrackPointExtension>
        </extensions>
      </trkpt>
      <trkpt lat="47.75025255046784877777099609375" lon="12.25193121470510959625244140625">
        <ele>1473.199951171875</ele>
        <time>2020-06-23T15:14:09.000Z</time>
        <extensions>
          <ns3:TrackPointExtension>
            <ns3:atemp>22.0</ns3:atemp>
            <ns3:hr>76</ns3:hr>
          </ns3:TrackPointExtension>
        </extensions>
      </trkpt>
      <trkpt lat="47.7502873353660106658935546875" lon="12.25199743174016475677490234375">
        <ele>1472.199951171875</ele>
        <time>2020-06-23T15:14:10.000Z</time>
        <extensions>
          <ns3:TrackPointExtension>
            <ns3:atemp>22.0</ns3:atemp>
            <ns3:hr>77</ns3:hr>
          </ns3:TrackPointExtension>
        </extensions>
      </trkpt>
      <trkpt lat="47.7503258921205997467041015625" lon="12.2520627267658710479736328125">
        <ele>1471.199951171875</ele>
        <time>2020-06-23T15:14:11.000Z</time>
        <extensions>
          <ns3:TrackPointExtension>
            <ns3:atemp>22.0</ns3:atemp>
            <ns3:hr>76</ns3:hr>
          </ns3:TrackPointExtension>
        </extensions>
      </trkpt>
      <trkpt lat="47.75036838836967945098876953125" lon="12.2521301172673702239990234375">
        <ele>1470.199951171875</ele>
        <time>2020-06-23T15:14:12.000Z</time>
        <extensions>
          <ns3:TrackPointExtension>
            <ns3:atemp>22.0</ns3:atemp>
            <ns3:hr>79</ns3:hr>
          </ns3:TrackPointExtension>
        </extensions>
      </trkpt>
      <trkpt lat="47.75040979497134685516357421875" lon="12.25220144726336002349853515625">
        <ele>1469.199951171875</ele>
        <time>2020-06-23T15:14:13.000Z</time>
        <extensions>
          <ns3:TrackPointExtension>
            <ns3:atemp>22.0</ns3:atemp>
            <ns3:hr>82</ns3:hr>
          </ns3:TrackPointExtension>
        </extensions>
      </trkpt>
      <trkpt lat="47.750448770821094512939453125" lon="12.25227604620158672332763671875">
        <ele>1468.199951171875</ele>
        <time>2020-06-23T15:14:14.000Z</time>
        <extensions>
          <ns3:TrackPointExtension>
            <ns3:atemp>22.0</ns3:atemp>
            <ns3:hr>83</ns3:hr>
          </ns3:TrackPointExtension>
        </extensions>
      </trkpt>
      <trkpt lat="47.7505213581025600433349609375" lon="12.25241594016551971435546875">
        <ele>1466.199951171875</ele>
        <time>2020-06-23T15:14:16.000Z</time>
        <extensions>
          <ns3:TrackPointExtension>
            <ns3:atemp>22.0</ns3:atemp>
            <ns3:hr>86</ns3:hr>
          </ns3:TrackPointExtension>
        </extensions>
      </trkpt>
      <trkpt lat="47.7505592443048954010009765625" lon="12.2524794749915599822998046875">
        <ele>1464.800048828125</ele>
        <time>2020-06-23T15:14:17.000Z</time>
        <extensions>
          <ns3:TrackPointExtension>
            <ns3:atemp>22.0</ns3:atemp>
            <ns3:hr>86</ns3:hr>
          </ns3:TrackPointExtension>
        </extensions>
      </trkpt>
      <trkpt lat="47.7505981363356113433837890625" lon="12.25254644639790058135986328125">
        <ele>1463.4000244140625</ele>
        <time>2020-06-23T15:14:18.000Z</time>
        <extensions>
          <ns3:TrackPointExtension>
            <ns3:atemp>22.0</ns3:atemp>
            <ns3:hr>87</ns3:hr>
          </ns3:TrackPointExtension>
        </extensions>
      </trkpt>
      <trkpt lat="47.75063476525247097015380859375" lon="12.2526169382035732269287109375">
        <ele>1462</ele>
        <time>2020-06-23T15:14:19.000Z</time>
        <extensions>
          <ns3:TrackPointExtension>
            <ns3:atemp>22.0</ns3:atemp>
            <ns3:hr>87</ns3:hr>
          </ns3:TrackPointExtension>
        </extensions>
      </trkpt>
      <trkpt lat="47.7506698854267597198486328125" lon="12.25268416106700897216796875">
        <ele>1460.800048828125</ele>
        <time>2020-06-23T15:14:20.000Z</time>
        <extensions>
          <ns3:TrackPointExtension>
            <ns3:atemp>22.0</ns3:atemp>
            <ns3:hr>87</ns3:hr>
          </ns3:TrackPointExtension>
        </extensions>
      </trkpt>
      <trkpt lat="47.750704921782016754150390625" lon="12.2527399845421314239501953125">
        <ele>1459.800048828125</ele>
        <time>2020-06-23T15:14:21.000Z</time>
        <extensions>
          <ns3:TrackPointExtension>
            <ns3:atemp>22.0</ns3:atemp>
            <ns3:hr>87</ns3:hr>
          </ns3:TrackPointExtension>
        </extensions>
      </trkpt>
      <trkpt lat="47.7507443167269229888916015625" lon="12.2527854144573211669921875">
        <ele>1459.199951171875</ele>
        <time>2020-06-23T15:14:22.000Z</time>
        <extensions>
          <ns3:TrackPointExtension>
            <ns3:atemp>22.0</ns3:atemp>
            <ns3:hr>87</ns3:hr>
          </ns3:TrackPointExtension>
        </extensions>
      </trkpt>
      <trkpt lat="47.7508831210434436798095703125" lon="12.252911143004894256591796875">
        <ele>1458</ele>
        <time>2020-06-23T15:14:25.000Z</time>
        <extensions>
          <ns3:TrackPointExtension>
            <ns3:atemp>22.0</ns3:atemp>
            <ns3:hr>84</ns3:hr>
          </ns3:TrackPointExtension>
        </extensions>
      </trkpt>
      <trkpt lat="47.7509285509586334228515625" lon="12.25294508971273899078369140625">
        <ele>1457.800048828125</ele>
        <time>2020-06-23T15:14:26.000Z</time>
        <extensions>
          <ns3:TrackPointExtension>
            <ns3:atemp>22.0</ns3:atemp>
            <ns3:hr>85</ns3:hr>
          </ns3:TrackPointExtension>
        </extensions>
      </trkpt>
      <trkpt lat="47.75102184154093265533447265625" lon="12.25299705751240253448486328125">
        <ele>1457.5999755859375</ele>
        <time>2020-06-23T15:14:28.000Z</time>
        <extensions>
          <ns3:TrackPointExtension>
            <ns3:atemp>22.0</ns3:atemp>
            <ns3:hr>86</ns3:hr>
          </ns3:TrackPointExtension>
        </extensions>
      </trkpt>
      <trkpt lat="47.75107112713158130645751953125" lon="12.2530313394963741302490234375">
        <ele>1457.5999755859375</ele>
        <time>2020-06-23T15:14:29.000Z</time>
        <extensions>
          <ns3:TrackPointExtension>
            <ns3:atemp>22.0</ns3:atemp>
            <ns3:hr>87</ns3:hr>
          </ns3:TrackPointExtension>
        </extensions>
      </trkpt>
      <trkpt lat="47.75116248987615108489990234375" lon="12.25311943329870700836181640625">
        <ele>1457.800048828125</ele>
        <time>2020-06-23T15:14:31.000Z</time>
        <extensions>
          <ns3:TrackPointExtension>
            <ns3:atemp>22.0</ns3:atemp>
            <ns3:hr>84</ns3:hr>
          </ns3:TrackPointExtension>
        </extensions>
      </trkpt>
      <trkpt lat="47.75124496780335903167724609375" lon="12.253210879862308502197265625">
        <ele>1457.800048828125</ele>
        <time>2020-06-23T15:14:33.000Z</time>
        <extensions>
          <ns3:TrackPointExtension>
            <ns3:atemp>22.0</ns3:atemp>
            <ns3:hr>84</ns3:hr>
          </ns3:TrackPointExtension>
        </extensions>
      </trkpt>
      <trkpt lat="47.7512867935001850128173828125" lon="12.2532693855464458465576171875">
        <ele>1457.800048828125</ele>
        <time>2020-06-23T15:14:34.000Z</time>
        <extensions>
          <ns3:TrackPointExtension>
            <ns3:atemp>22.0</ns3:atemp>
            <ns3:hr>85</ns3:hr>
          </ns3:TrackPointExtension>
        </extensions>
      </trkpt>
      <trkpt lat="47.75141193531453609466552734375" lon="12.2534866444766521453857421875">
        <ele>1456.5999755859375</ele>
        <time>2020-06-23T15:14:37.000Z</time>
        <extensions>
          <ns3:TrackPointExtension>
            <ns3:atemp>22.0</ns3:atemp>
            <ns3:hr>87</ns3:hr>
          </ns3:TrackPointExtension>
        </extensions>
      </trkpt>
      <trkpt lat="47.75150279514491558074951171875" lon="12.25362419150769710540771484375">
        <ele>1454.800048828125</ele>
        <time>2020-06-23T15:14:39.000Z</time>
        <extensions>
          <ns3:TrackPointExtension>
            <ns3:atemp>22.0</ns3:atemp>
            <ns3:hr>85</ns3:hr>
          </ns3:TrackPointExtension>
        </extensions>
      </trkpt>
      <trkpt lat="47.7515419386327266693115234375" lon="12.25369895808398723602294921875">
        <ele>1454.199951171875</ele>
        <time>2020-06-23T15:14:40.000Z</time>
        <extensions>
          <ns3:TrackPointExtension>
            <ns3:atemp>22.0</ns3:atemp>
            <ns3:hr>87</ns3:hr>
          </ns3:TrackPointExtension>
        </extensions>
      </trkpt>
      <trkpt lat="47.75157739408314228057861328125" lon="12.25377841852605342864990234375">
        <ele>1453.4000244140625</ele>
        <time>2020-06-23T15:14:41.000Z</time>
        <extensions>
          <ns3:TrackPointExtension>
            <ns3:atemp>22.0</ns3:atemp>
            <ns3:hr>86</ns3:hr>
          </ns3:TrackPointExtension>
        </extensions>
      </trkpt>
      <trkpt lat="47.75165618397295475006103515625" lon="12.25393046624958515167236328125">
        <ele>1451.5999755859375</ele>
        <time>2020-06-23T15:14:43.000Z</time>
        <extensions>
          <ns3:TrackPointExtension>
            <ns3:atemp>22.0</ns3:atemp>
            <ns3:hr>87</ns3:hr>
          </ns3:TrackPointExtension>
        </extensions>
      </trkpt>
      <trkpt lat="47.75170178152620792388916015625" lon="12.25400389172136783599853515625">
        <ele>1450.4000244140625</ele>
        <time>2020-06-23T15:14:44.000Z</time>
        <extensions>
          <ns3:TrackPointExtension>
            <ns3:atemp>22.0</ns3:atemp>
            <ns3:hr>88</ns3:hr>
          </ns3:TrackPointExtension>
        </extensions>
      </trkpt>
      <trkpt lat="47.75174603797495365142822265625" lon="12.25407849065959453582763671875">
        <ele>1449</ele>
        <time>2020-06-23T15:14:45.000Z</time>
        <extensions>
          <ns3:TrackPointExtension>
            <ns3:atemp>22.0</ns3:atemp>
            <ns3:hr>90</ns3:hr>
          </ns3:TrackPointExtension>
        </extensions>
      </trkpt>
      <trkpt lat="47.7517856843769550323486328125" lon="12.25415091030299663543701171875">
        <ele>1447.800048828125</ele>
        <time>2020-06-23T15:14:46.000Z</time>
        <extensions>
          <ns3:TrackPointExtension>
            <ns3:atemp>22.0</ns3:atemp>
            <ns3:hr>89</ns3:hr>
          </ns3:TrackPointExtension>
        </extensions>
      </trkpt>
      <trkpt lat="47.75182264856994152069091796875" lon="12.25421947427093982696533203125">
        <ele>1446.5999755859375</ele>
        <time>2020-06-23T15:14:47.000Z</time>
        <extensions>
          <ns3:TrackPointExtension>
            <ns3:atemp>22.0</ns3:atemp>
            <ns3:hr>90</ns3:hr>
          </ns3:TrackPointExtension>
        </extensions>
      </trkpt>
      <trkpt lat="47.7518624626100063323974609375" lon="12.25428435020148754119873046875">
        <ele>1445.199951171875</ele>
        <time>2020-06-23T15:14:48.000Z</time>
        <extensions>
          <ns3:TrackPointExtension>
            <ns3:atemp>22.0</ns3:atemp>
            <ns3:hr>91</ns3:hr>
          </ns3:TrackPointExtension>
        </extensions>
      </trkpt>
      <trkpt lat="47.7519073896110057830810546875" lon="12.25434822030365467071533203125">
        <ele>1443.800048828125</ele>
        <time>2020-06-23T15:14:49.000Z</time>
        <extensions>
          <ns3:TrackPointExtension>
            <ns3:atemp>22.0</ns3:atemp>
            <ns3:hr>92</ns3:hr>
          </ns3:TrackPointExtension>
        </extensions>
      </trkpt>
      <trkpt lat="47.75195474736392498016357421875" lon="12.254412174224853515625">
        <ele>1442.4000244140625</ele>
        <time>2020-06-23T15:14:50.000Z</time>
        <extensions>
          <ns3:TrackPointExtension>
            <ns3:atemp>22.0</ns3:atemp>
            <ns3:hr>92</ns3:hr>
          </ns3:TrackPointExtension>
        </extensions>
      </trkpt>
      <trkpt lat="47.75200068019330501556396484375" lon="12.254475541412830352783203125">
        <ele>1441.199951171875</ele>
        <time>2020-06-23T15:14:51.000Z</time>
        <extensions>
          <ns3:TrackPointExtension>
            <ns3:atemp>22.0</ns3:atemp>
            <ns3:hr>92</ns3:hr>
          </ns3:TrackPointExtension>
        </extensions>
      </trkpt>
      <trkpt lat="47.752044685184955596923828125" lon="12.2545333765447139739990234375">
        <ele>1440</ele>
        <time>2020-06-23T15:14:52.000Z</time>
        <extensions>
          <ns3:TrackPointExtension>
            <ns3:atemp>22.0</ns3:atemp>
            <ns3:hr>92</ns3:hr>
          </ns3:TrackPointExtension>
        </extensions>
      </trkpt>
      <trkpt lat="47.75208902545273303985595703125" lon="12.2545850090682506561279296875">
        <ele>1438.800048828125</ele>
        <time>2020-06-23T15:14:53.000Z</time>
        <extensions>
          <ns3:TrackPointExtension>
            <ns3:atemp>22.0</ns3:atemp>
            <ns3:hr>92</ns3:hr>
          </ns3:TrackPointExtension>
        </extensions>
      </trkpt>
      <trkpt lat="47.7521353773772716522216796875" lon="12.2546307742595672607421875">
        <ele>1437.5999755859375</ele>
        <time>2020-06-23T15:14:54.000Z</time>
        <extensions>
          <ns3:TrackPointExtension>
            <ns3:atemp>22.0</ns3:atemp>
            <ns3:hr>92</ns3:hr>
          </ns3:TrackPointExtension>
        </extensions>
      </trkpt>
      <trkpt lat="47.7521833218634128570556640625" lon="12.254675365984439849853515625">
        <ele>1436.4000244140625</ele>
        <time>2020-06-23T15:14:55.000Z</time>
        <extensions>
          <ns3:TrackPointExtension>
            <ns3:atemp>22.0</ns3:atemp>
            <ns3:hr>92</ns3:hr>
          </ns3:TrackPointExtension>
        </extensions>
      </trkpt>
      <trkpt lat="47.75223017670214176177978515625" lon="12.25472263991832733154296875">
        <ele>1435.4000244140625</ele>
        <time>2020-06-23T15:14:56.000Z</time>
        <extensions>
          <ns3:TrackPointExtension>
            <ns3:atemp>22.0</ns3:atemp>
            <ns3:hr>92</ns3:hr>
          </ns3:TrackPointExtension>
        </extensions>
      </trkpt>
      <trkpt lat="47.75227594189345836639404296875" lon="12.25477418862283229827880859375">
        <ele>1434.199951171875</ele>
        <time>2020-06-23T15:14:57.000Z</time>
        <extensions>
          <ns3:TrackPointExtension>
            <ns3:atemp>22.0</ns3:atemp>
            <ns3:hr>92</ns3:hr>
          </ns3:TrackPointExtension>
        </extensions>
      </trkpt>
      <trkpt lat="47.7523687295615673065185546875" lon="12.25489069707691669464111328125">
        <ele>1432.800048828125</ele>
        <time>2020-06-23T15:14:59.000Z</time>
        <extensions>
          <ns3:TrackPointExtension>
            <ns3:atemp>22.0</ns3:atemp>
            <ns3:hr>90</ns3:hr>
          </ns3:TrackPointExtension>
        </extensions>
      </trkpt>
      <trkpt lat="47.75245497934520244598388671875" lon="12.2550148330628871917724609375">
        <ele>1430.800048828125</ele>
        <time>2020-06-23T15:15:01.000Z</time>
        <extensions>
          <ns3:TrackPointExtension>
            <ns3:atemp>22.0</ns3:atemp>
            <ns3:hr>89</ns3:hr>
          </ns3:TrackPointExtension>
        </extensions>
      </trkpt>
      <trkpt lat="47.75249638594686985015869140625" lon="12.25507945753633975982666015625">
        <ele>1429.800048828125</ele>
        <time>2020-06-23T15:15:02.000Z</time>
        <extensions>
          <ns3:TrackPointExtension>
            <ns3:atemp>22.0</ns3:atemp>
            <ns3:hr>89</ns3:hr>
          </ns3:TrackPointExtension>
        </extensions>
      </trkpt>
      <trkpt lat="47.75258288718760013580322265625" lon="12.25521926768124103546142578125">
        <ele>1428</ele>
        <time>2020-06-23T15:15:04.000Z</time>
        <extensions>
          <ns3:TrackPointExtension>
            <ns3:atemp>22.0</ns3:atemp>
            <ns3:hr>90</ns3:hr>
          </ns3:TrackPointExtension>
        </extensions>
      </trkpt>
      <trkpt lat="47.75262647308409214019775390625" lon="12.2552905976772308349609375">
        <ele>1426.800048828125</ele>
        <time>2020-06-23T15:15:05.000Z</time>
        <extensions>
          <ns3:TrackPointExtension>
            <ns3:atemp>22.0</ns3:atemp>
            <ns3:hr>91</ns3:hr>
          </ns3:TrackPointExtension>
        </extensions>
      </trkpt>
      <trkpt lat="47.75266922079026699066162109375" lon="12.25535673089325428009033203125">
        <ele>1425.4000244140625</ele>
        <time>2020-06-23T15:15:06.000Z</time>
        <extensions>
          <ns3:TrackPointExtension>
            <ns3:atemp>22.0</ns3:atemp>
            <ns3:hr>92</ns3:hr>
          </ns3:TrackPointExtension>
        </extensions>
      </trkpt>
      <trkpt lat="47.75271356105804443359375" lon="12.25541464984416961669921875">
        <ele>1424</ele>
        <time>2020-06-23T15:15:07.000Z</time>
        <extensions>
          <ns3:TrackPointExtension>
            <ns3:atemp>22.0</ns3:atemp>
            <ns3:hr>92</ns3:hr>
          </ns3:TrackPointExtension>
        </extensions>
      </trkpt>
      <trkpt lat="47.75276091881096363067626953125" lon="12.25546351633965969085693359375">
        <ele>1422.5999755859375</ele>
        <time>2020-06-23T15:15:08.000Z</time>
        <extensions>
          <ns3:TrackPointExtension>
            <ns3:atemp>22.0</ns3:atemp>
            <ns3:hr>93</ns3:hr>
          </ns3:TrackPointExtension>
        </extensions>
      </trkpt>
      <trkpt lat="47.75281087495386600494384765625" lon="12.2555073536932468414306640625">
        <ele>1421.4000244140625</ele>
        <time>2020-06-23T15:15:09.000Z</time>
        <extensions>
          <ns3:TrackPointExtension>
            <ns3:atemp>22.0</ns3:atemp>
            <ns3:hr>93</ns3:hr>
          </ns3:TrackPointExtension>
        </extensions>
      </trkpt>
      <trkpt lat="47.75285932235419750213623046875" lon="12.255551107227802276611328125">
        <ele>1420.199951171875</ele>
        <time>2020-06-23T15:15:10.000Z</time>
        <extensions>
          <ns3:TrackPointExtension>
            <ns3:atemp>22.0</ns3:atemp>
            <ns3:hr>93</ns3:hr>
          </ns3:TrackPointExtension>
        </extensions>
      </trkpt>
      <trkpt lat="47.75290542282164096832275390625" lon="12.25559477694332599639892578125">
        <ele>1419</ele>
        <time>2020-06-23T15:15:11.000Z</time>
        <extensions>
          <ns3:TrackPointExtension>
            <ns3:atemp>22.0</ns3:atemp>
            <ns3:hr>93</ns3:hr>
          </ns3:TrackPointExtension>
        </extensions>
      </trkpt>
      <trkpt lat="47.7529500983655452728271484375" lon="12.25563526153564453125">
        <ele>1417.5999755859375</ele>
        <time>2020-06-23T15:15:12.000Z</time>
        <extensions>
          <ns3:TrackPointExtension>
            <ns3:atemp>22.0</ns3:atemp>
            <ns3:hr>93</ns3:hr>
          </ns3:TrackPointExtension>
        </extensions>
      </trkpt>
      <trkpt lat="47.752994187176227569580078125" lon="12.255675494670867919921875">
        <ele>1416</ele>
        <time>2020-06-23T15:15:13.000Z</time>
        <extensions>
          <ns3:TrackPointExtension>
            <ns3:atemp>22.0</ns3:atemp>
            <ns3:hr>92</ns3:hr>
          </ns3:TrackPointExtension>
        </extensions>
      </trkpt>
      <trkpt lat="47.7530372701585292816162109375" lon="12.25572084076702594757080078125">
        <ele>1414.5999755859375</ele>
        <time>2020-06-23T15:15:14.000Z</time>
        <extensions>
          <ns3:TrackPointExtension>
            <ns3:atemp>22.0</ns3:atemp>
            <ns3:hr>93</ns3:hr>
          </ns3:TrackPointExtension>
        </extensions>
      </trkpt>
      <trkpt lat="47.7530771680176258087158203125" lon="12.255775742232799530029296875">
        <ele>1413.4000244140625</ele>
        <time>2020-06-23T15:15:15.000Z</time>
        <extensions>
          <ns3:TrackPointExtension>
            <ns3:atemp>22.0</ns3:atemp>
            <ns3:hr>92</ns3:hr>
          </ns3:TrackPointExtension>
        </extensions>
      </trkpt>
      <trkpt lat="47.753113545477390289306640625" lon="12.25583768449723720550537109375">
        <ele>1412</ele>
        <time>2020-06-23T15:15:16.000Z</time>
        <extensions>
          <ns3:TrackPointExtension>
            <ns3:atemp>22.0</ns3:atemp>
            <ns3:hr>92</ns3:hr>
          </ns3:TrackPointExtension>
        </extensions>
      </trkpt>
      <trkpt lat="47.75314950384199619293212890625" lon="12.255895771086215972900390625">
        <ele>1410.4000244140625</ele>
        <time>2020-06-23T15:15:17.000Z</time>
        <extensions>
          <ns3:TrackPointExtension>
            <ns3:atemp>22.0</ns3:atemp>
            <ns3:hr>92</ns3:hr>
          </ns3:TrackPointExtension>
        </extensions>
      </trkpt>
      <trkpt lat="47.7531884796917438507080078125" lon="12.25594648160040378570556640625">
        <ele>1408.800048828125</ele>
        <time>2020-06-23T15:15:18.000Z</time>
        <extensions>
          <ns3:TrackPointExtension>
            <ns3:atemp>23.0</ns3:atemp>
            <ns3:hr>91</ns3:hr>
          </ns3:TrackPointExtension>
        </extensions>
      </trkpt>
      <trkpt lat="47.75323416106402873992919921875" lon="12.25598906166851520538330078125">
        <ele>1407</ele>
        <time>2020-06-23T15:15:19.000Z</time>
        <extensions>
          <ns3:TrackPointExtension>
            <ns3:atemp>23.0</ns3:atemp>
            <ns3:hr>91</ns3:hr>
          </ns3:TrackPointExtension>
        </extensions>
      </trkpt>
      <trkpt lat="47.753285877406597137451171875" lon="12.2560213319957256317138671875">
        <ele>1405.199951171875</ele>
        <time>2020-06-23T15:15:20.000Z</time>
        <extensions>
          <ns3:TrackPointExtension>
            <ns3:atemp>23.0</ns3:atemp>
            <ns3:hr>92</ns3:hr>
          </ns3:TrackPointExtension>
        </extensions>
      </trkpt>
      <trkpt lat="47.753338515758514404296875" lon="12.25603750906884670257568359375">
        <ele>1403.199951171875</ele>
        <time>2020-06-23T15:15:21.000Z</time>
        <extensions>
          <ns3:TrackPointExtension>
            <ns3:atemp>23.0</ns3:atemp>
            <ns3:hr>92</ns3:hr>
          </ns3:TrackPointExtension>
        </extensions>
      </trkpt>
      <trkpt lat="47.75338738225400447845458984375" lon="12.2560357488691806793212890625">
        <ele>1401.199951171875</ele>
        <time>2020-06-23T15:15:22.000Z</time>
        <extensions>
          <ns3:TrackPointExtension>
            <ns3:atemp>23.0</ns3:atemp>
            <ns3:hr>92</ns3:hr>
          </ns3:TrackPointExtension>
        </extensions>
      </trkpt>
      <trkpt lat="47.75343247689306735992431640625" lon="12.25602007471024990081787109375">
        <ele>1400</ele>
        <time>2020-06-23T15:15:23.000Z</time>
        <extensions>
          <ns3:TrackPointExtension>
            <ns3:atemp>23.0</ns3:atemp>
            <ns3:hr>91</ns3:hr>
          </ns3:TrackPointExtension>
        </extensions>
      </trkpt>
      <trkpt lat="47.753526605665683746337890625" lon="12.25598319433629512786865234375">
        <ele>1398</ele>
        <time>2020-06-23T15:15:25.000Z</time>
        <extensions>
          <ns3:TrackPointExtension>
            <ns3:atemp>23.0</ns3:atemp>
            <ns3:hr>88</ns3:hr>
          </ns3:TrackPointExtension>
        </extensions>
      </trkpt>
      <trkpt lat="47.75364219211041927337646484375" lon="12.256009764969348907470703125">
        <ele>1396.5999755859375</ele>
        <time>2020-06-23T15:15:27.000Z</time>
        <extensions>
          <ns3:TrackPointExtension>
            <ns3:atemp>23.0</ns3:atemp>
            <ns3:hr>86</ns3:hr>
          </ns3:TrackPointExtension>
        </extensions>
      </trkpt>
      <trkpt lat="47.75372542440891265869140625" lon="12.256113030016422271728515625">
        <ele>1396</ele>
        <time>2020-06-23T15:15:29.000Z</time>
        <extensions>
          <ns3:TrackPointExtension>
            <ns3:atemp>23.0</ns3:atemp>
            <ns3:hr>86</ns3:hr>
          </ns3:TrackPointExtension>
        </extensions>
      </trkpt>
      <trkpt lat="47.7537473849952220916748046875" lon="12.25616994313895702362060546875">
        <ele>1396.4000244140625</ele>
        <time>2020-06-23T15:15:30.000Z</time>
        <extensions>
          <ns3:TrackPointExtension>
            <ns3:atemp>23.0</ns3:atemp>
            <ns3:hr>86</ns3:hr>
          </ns3:TrackPointExtension>
        </extensions>
      </trkpt>
      <trkpt lat="47.7537596225738525390625" lon="12.25623196922242641448974609375">
        <ele>1397.5999755859375</ele>
        <time>2020-06-23T15:15:31.000Z</time>
        <extensions>
          <ns3:TrackPointExtension>
            <ns3:atemp>23.0</ns3:atemp>
            <ns3:hr>86</ns3:hr>
          </ns3:TrackPointExtension>
        </extensions>
      </trkpt>
      <trkpt lat="47.7537648193538188934326171875" lon="12.25630606524646282196044921875">
        <ele>1399</ele>
        <time>2020-06-23T15:15:32.000Z</time>
        <extensions>
          <ns3:TrackPointExtension>
            <ns3:atemp>23.0</ns3:atemp>
            <ns3:hr>86</ns3:hr>
          </ns3:TrackPointExtension>
        </extensions>
      </trkpt>
      <trkpt lat="47.7537691779434680938720703125" lon="12.2563981823623180389404296875">
        <ele>1400.4000244140625</ele>
        <time>2020-06-23T15:15:33.000Z</time>
        <extensions>
          <ns3:TrackPointExtension>
            <ns3:atemp>23.0</ns3:atemp>
            <ns3:hr>86</ns3:hr>
          </ns3:TrackPointExtension>
        </extensions>
      </trkpt>
      <trkpt lat="47.753778062760829925537109375" lon="12.256492562592029571533203125">
        <ele>1401.199951171875</ele>
        <time>2020-06-23T15:15:34.000Z</time>
        <extensions>
          <ns3:TrackPointExtension>
            <ns3:atemp>23.0</ns3:atemp>
            <ns3:hr>86</ns3:hr>
          </ns3:TrackPointExtension>
        </extensions>
      </trkpt>
      <trkpt lat="47.7537926472723484039306640625" lon="12.2565668262541294097900390625">
        <ele>1401.800048828125</ele>
        <time>2020-06-23T15:15:35.000Z</time>
        <extensions>
          <ns3:TrackPointExtension>
            <ns3:atemp>23.0</ns3:atemp>
            <ns3:hr>86</ns3:hr>
          </ns3:TrackPointExtension>
        </extensions>
      </trkpt>
      <trkpt lat="47.75381033308804035186767578125" lon="12.2566137649118900299072265625">
        <ele>1402.800048828125</ele>
        <time>2020-06-23T15:15:36.000Z</time>
        <extensions>
          <ns3:TrackPointExtension>
            <ns3:atemp>23.0</ns3:atemp>
            <ns3:hr>87</ns3:hr>
          </ns3:TrackPointExtension>
        </extensions>
      </trkpt>
      <trkpt lat="47.7538342215120792388916015625" lon="12.2566466219723224639892578125">
        <ele>1404</ele>
        <time>2020-06-23T15:15:37.000Z</time>
        <extensions>
          <ns3:TrackPointExtension>
            <ns3:atemp>23.0</ns3:atemp>
            <ns3:hr>87</ns3:hr>
          </ns3:TrackPointExtension>
        </extensions>
      </trkpt>
      <trkpt lat="47.7538669109344482421875" lon="12.2566746175289154052734375">
        <ele>1405.199951171875</ele>
        <time>2020-06-23T15:15:38.000Z</time>
        <extensions>
          <ns3:TrackPointExtension>
            <ns3:atemp>23.0</ns3:atemp>
            <ns3:hr>89</ns3:hr>
          </ns3:TrackPointExtension>
        </extensions>
      </trkpt>
      <trkpt lat="47.7539525739848613739013671875" lon="12.25666061975061893463134765625">
        <ele>1406.4000244140625</ele>
        <time>2020-06-23T15:15:40.000Z</time>
        <extensions>
          <ns3:TrackPointExtension>
            <ns3:atemp>23.0</ns3:atemp>
            <ns3:hr>92</ns3:hr>
          </ns3:TrackPointExtension>
        </extensions>
      </trkpt>
      <trkpt lat="47.75400546379387378692626953125" lon="12.25648191757500171661376953125">
        <ele>1407.5999755859375</ele>
        <time>2020-06-23T15:15:42.000Z</time>
        <extensions>
          <ns3:TrackPointExtension>
            <ns3:atemp>23.0</ns3:atemp>
            <ns3:hr>93</ns3:hr>
          </ns3:TrackPointExtension>
        </extensions>
      </trkpt>
      <trkpt lat="47.75397243909537792205810546875" lon="12.256260216236114501953125">
        <ele>1410</ele>
        <time>2020-06-23T15:15:44.000Z</time>
        <extensions>
          <ns3:TrackPointExtension>
            <ns3:atemp>23.0</ns3:atemp>
            <ns3:hr>93</ns3:hr>
          </ns3:TrackPointExtension>
        </extensions>
      </trkpt>
      <trkpt lat="47.75394000113010406494140625" lon="12.25615820847451686859130859375">
        <ele>1412</ele>
        <time>2020-06-23T15:15:45.000Z</time>
        <extensions>
          <ns3:TrackPointExtension>
            <ns3:atemp>23.0</ns3:atemp>
            <ns3:hr>93</ns3:hr>
          </ns3:TrackPointExtension>
        </extensions>
      </trkpt>
      <trkpt lat="47.75389918126165866851806640625" lon="12.25604706443846225738525390625">
        <ele>1413.800048828125</ele>
        <time>2020-06-23T15:15:46.000Z</time>
        <extensions>
          <ns3:TrackPointExtension>
            <ns3:atemp>23.0</ns3:atemp>
            <ns3:hr>93</ns3:hr>
          </ns3:TrackPointExtension>
        </extensions>
      </trkpt>
      <trkpt lat="47.75384880602359771728515625" lon="12.25592385046184062957763671875">
        <ele>1415.199951171875</ele>
        <time>2020-06-23T15:15:47.000Z</time>
        <extensions>
          <ns3:TrackPointExtension>
            <ns3:atemp>23.0</ns3:atemp>
            <ns3:hr>93</ns3:hr>
          </ns3:TrackPointExtension>
        </extensions>
      </trkpt>
      <trkpt lat="47.753789462149143218994140625" lon="12.2557903267443180084228515625">
        <ele>1416</ele>
        <time>2020-06-23T15:15:48.000Z</time>
        <extensions>
          <ns3:TrackPointExtension>
            <ns3:atemp>23.0</ns3:atemp>
            <ns3:hr>93</ns3:hr>
          </ns3:TrackPointExtension>
        </extensions>
      </trkpt>
      <trkpt lat="47.75372601114213466644287109375" lon="12.25565412081778049468994140625">
        <ele>1416.5999755859375</ele>
        <time>2020-06-23T15:15:49.000Z</time>
        <extensions>
          <ns3:TrackPointExtension>
            <ns3:atemp>23.0</ns3:atemp>
            <ns3:hr>93</ns3:hr>
          </ns3:TrackPointExtension>
        </extensions>
      </trkpt>
      <trkpt lat="47.75361905805766582489013671875" lon="12.25542110390961170196533203125">
        <ele>1418</ele>
        <time>2020-06-23T15:15:51.000Z</time>
        <extensions>
          <ns3:TrackPointExtension>
            <ns3:atemp>23.0</ns3:atemp>
            <ns3:hr>93</ns3:hr>
          </ns3:TrackPointExtension>
        </extensions>
      </trkpt>
      <trkpt lat="47.75357614271342754364013671875" lon="12.2553293220698833465576171875">
        <ele>1419</ele>
        <time>2020-06-23T15:15:52.000Z</time>
        <extensions>
          <ns3:TrackPointExtension>
            <ns3:atemp>23.0</ns3:atemp>
            <ns3:hr>93</ns3:hr>
          </ns3:TrackPointExtension>
        </extensions>
      </trkpt>
      <trkpt lat="47.75353289209306240081787109375" lon="12.2552315890789031982421875">
        <ele>1420.199951171875</ele>
        <time>2020-06-23T15:15:53.000Z</time>
        <extensions>
          <ns3:TrackPointExtension>
            <ns3:atemp>23.0</ns3:atemp>
            <ns3:hr>93</ns3:hr>
          </ns3:TrackPointExtension>
        </extensions>
      </trkpt>
      <trkpt lat="47.75343935005366802215576171875" lon="12.2549796290695667266845703125">
        <ele>1421.4000244140625</ele>
        <time>2020-06-23T15:15:55.000Z</time>
        <extensions>
          <ns3:TrackPointExtension>
            <ns3:atemp>23.0</ns3:atemp>
            <ns3:hr>93</ns3:hr>
          </ns3:TrackPointExtension>
        </extensions>
      </trkpt>
      <trkpt lat="47.7533034794032573699951171875" lon="12.254611663520336151123046875">
        <ele>1422.4000244140625</ele>
        <time>2020-06-23T15:15:58.000Z</time>
        <extensions>
          <ns3:TrackPointExtension>
            <ns3:atemp>23.0</ns3:atemp>
            <ns3:hr>94</ns3:hr>
          </ns3:TrackPointExtension>
        </extensions>
      </trkpt>
      <trkpt lat="47.7532531879842281341552734375" lon="12.2545068897306919097900390625">
        <ele>1422.4000244140625</ele>
        <time>2020-06-23T15:15:59.000Z</time>
        <extensions>
          <ns3:TrackPointExtension>
            <ns3:atemp>23.0</ns3:atemp>
            <ns3:hr>93</ns3:hr>
          </ns3:TrackPointExtension>
        </extensions>
      </trkpt>
      <trkpt lat="47.75306233204901218414306640625" lon="12.25415828637778759002685546875">
        <ele>1422.199951171875</ele>
        <time>2020-06-23T15:16:02.000Z</time>
        <extensions>
          <ns3:TrackPointExtension>
            <ns3:atemp>23.0</ns3:atemp>
            <ns3:hr>90</ns3:hr>
          </ns3:TrackPointExtension>
        </extensions>
      </trkpt>
      <trkpt lat="47.75298119522631168365478515625" lon="12.25405502133071422576904296875">
        <ele>1421.800048828125</ele>
        <time>2020-06-23T15:16:03.000Z</time>
        <extensions>
          <ns3:TrackPointExtension>
            <ns3:atemp>23.0</ns3:atemp>
            <ns3:hr>93</ns3:hr>
          </ns3:TrackPointExtension>
        </extensions>
      </trkpt>
      <trkpt lat="47.75289502926170825958251953125" lon="12.25396550260484218597412109375">
        <ele>1420.800048828125</ele>
        <time>2020-06-23T15:16:04.000Z</time>
        <extensions>
          <ns3:TrackPointExtension>
            <ns3:atemp>23.0</ns3:atemp>
            <ns3:hr>90</ns3:hr>
          </ns3:TrackPointExtension>
        </extensions>
      </trkpt>
      <trkpt lat="47.752810455858707427978515625" lon="12.25387799553573131561279296875">
        <ele>1419</ele>
        <time>2020-06-23T15:16:05.000Z</time>
        <extensions>
          <ns3:TrackPointExtension>
            <ns3:atemp>23.0</ns3:atemp>
            <ns3:hr>93</ns3:hr>
          </ns3:TrackPointExtension>
        </extensions>
      </trkpt>
      <trkpt lat="47.75273040868341922760009765625" lon="12.25377741269767284393310546875">
        <ele>1417.199951171875</ele>
        <time>2020-06-23T15:16:06.000Z</time>
        <extensions>
          <ns3:TrackPointExtension>
            <ns3:atemp>23.0</ns3:atemp>
            <ns3:hr>92</ns3:hr>
          </ns3:TrackPointExtension>
        </extensions>
      </trkpt>
      <trkpt lat="47.75265480391681194305419921875" lon="12.25366115570068359375">
        <ele>1415.4000244140625</ele>
        <time>2020-06-23T15:16:07.000Z</time>
        <extensions>
          <ns3:TrackPointExtension>
            <ns3:atemp>23.0</ns3:atemp>
            <ns3:hr>92</ns3:hr>
          </ns3:TrackPointExtension>
        </extensions>
      </trkpt>
      <trkpt lat="47.7525789476931095123291015625" lon="12.25353919900953769683837890625">
        <ele>1413.5999755859375</ele>
        <time>2020-06-23T15:16:08.000Z</time>
        <extensions>
          <ns3:TrackPointExtension>
            <ns3:atemp>23.0</ns3:atemp>
            <ns3:hr>92</ns3:hr>
          </ns3:TrackPointExtension>
        </extensions>
      </trkpt>
      <trkpt lat="47.75250175036489963531494140625" lon="12.25342436693608760833740234375">
        <ele>1412.199951171875</ele>
        <time>2020-06-23T15:16:09.000Z</time>
        <extensions>
          <ns3:TrackPointExtension>
            <ns3:atemp>23.0</ns3:atemp>
            <ns3:hr>91</ns3:hr>
          </ns3:TrackPointExtension>
        </extensions>
      </trkpt>
      <trkpt lat="47.7523563243448734283447265625" lon="12.2532174177467823028564453125">
        <ele>1411</ele>
        <time>2020-06-23T15:16:11.000Z</time>
        <extensions>
          <ns3:TrackPointExtension>
            <ns3:atemp>23.0</ns3:atemp>
            <ns3:hr>92</ns3:hr>
          </ns3:TrackPointExtension>
        </extensions>
      </trkpt>
      <trkpt lat="47.7522919513285160064697265625" lon="12.25311331450939178466796875">
        <ele>1410.5999755859375</ele>
        <time>2020-06-23T15:16:12.000Z</time>
        <extensions>
          <ns3:TrackPointExtension>
            <ns3:atemp>23.0</ns3:atemp>
            <ns3:hr>92</ns3:hr>
          </ns3:TrackPointExtension>
        </extensions>
      </trkpt>
      <trkpt lat="47.75217485614120960235595703125" lon="12.25290753878653049468994140625">
        <ele>1409.199951171875</ele>
        <time>2020-06-23T15:16:14.000Z</time>
        <extensions>
          <ns3:TrackPointExtension>
            <ns3:atemp>23.0</ns3:atemp>
            <ns3:hr>92</ns3:hr>
          </ns3:TrackPointExtension>
        </extensions>
      </trkpt>
      <trkpt lat="47.7521290071308612823486328125" lon="12.25280058570206165313720703125">
        <ele>1408</ele>
        <time>2020-06-23T15:16:15.000Z</time>
        <extensions>
          <ns3:TrackPointExtension>
            <ns3:atemp>23.0</ns3:atemp>
            <ns3:hr>94</ns3:hr>
          </ns3:TrackPointExtension>
        </extensions>
      </trkpt>
      <trkpt lat="47.752105705440044403076171875" lon="12.25268256850540637969970703125">
        <ele>1406.800048828125</ele>
        <time>2020-06-23T15:16:16.000Z</time>
        <extensions>
          <ns3:TrackPointExtension>
            <ns3:atemp>23.0</ns3:atemp>
            <ns3:hr>94</ns3:hr>
          </ns3:TrackPointExtension>
        </extensions>
      </trkpt>
      <trkpt lat="47.752118445932865142822265625" lon="12.25255985744297504425048828125">
        <ele>1405.5999755859375</ele>
        <time>2020-06-23T15:16:17.000Z</time>
        <extensions>
          <ns3:TrackPointExtension>
            <ns3:atemp>23.0</ns3:atemp>
            <ns3:hr>93</ns3:hr>
          </ns3:TrackPointExtension>
        </extensions>
      </trkpt>
      <trkpt lat="47.7521623671054840087890625" lon="12.2524647228419780731201171875">
        <ele>1403.800048828125</ele>
        <time>2020-06-23T15:16:18.000Z</time>
        <extensions>
          <ns3:TrackPointExtension>
            <ns3:atemp>23.0</ns3:atemp>
            <ns3:hr>92</ns3:hr>
          </ns3:TrackPointExtension>
        </extensions>
      </trkpt>
      <trkpt lat="47.75222380645573139190673828125" lon="12.25242474116384983062744140625">
        <ele>1401.5999755859375</ele>
        <time>2020-06-23T15:16:19.000Z</time>
        <extensions>
          <ns3:TrackPointExtension>
            <ns3:atemp>23.0</ns3:atemp>
            <ns3:hr>92</ns3:hr>
          </ns3:TrackPointExtension>
        </extensions>
      </trkpt>
      <trkpt lat="47.75227879174053668975830078125" lon="12.25243697874248027801513671875">
        <ele>1399.800048828125</ele>
        <time>2020-06-23T15:16:20.000Z</time>
        <extensions>
          <ns3:TrackPointExtension>
            <ns3:atemp>23.0</ns3:atemp>
            <ns3:hr>92</ns3:hr>
          </ns3:TrackPointExtension>
        </extensions>
      </trkpt>
      <trkpt lat="47.7523204497992992401123046875" lon="12.252486012876033782958984375">
        <ele>1398</ele>
        <time>2020-06-23T15:16:21.000Z</time>
        <extensions>
          <ns3:TrackPointExtension>
            <ns3:atemp>23.0</ns3:atemp>
            <ns3:hr>91</ns3:hr>
          </ns3:TrackPointExtension>
        </extensions>
      </trkpt>
      <trkpt lat="47.752355150878429412841796875" lon="12.252548374235630035400390625">
        <ele>1396.4000244140625</ele>
        <time>2020-06-23T15:16:22.000Z</time>
        <extensions>
          <ns3:TrackPointExtension>
            <ns3:atemp>23.0</ns3:atemp>
            <ns3:hr>92</ns3:hr>
          </ns3:TrackPointExtension>
        </extensions>
      </trkpt>
      <trkpt lat="47.75238725356757640838623046875" lon="12.25261819548904895782470703125">
        <ele>1394.800048828125</ele>
        <time>2020-06-23T15:16:23.000Z</time>
        <extensions>
          <ns3:TrackPointExtension>
            <ns3:atemp>23.0</ns3:atemp>
            <ns3:hr>92</ns3:hr>
          </ns3:TrackPointExtension>
        </extensions>
      </trkpt>
      <trkpt lat="47.7524171769618988037109375" lon="12.25269815884530544281005859375">
        <ele>1393.4000244140625</ele>
        <time>2020-06-23T15:16:24.000Z</time>
        <extensions>
          <ns3:TrackPointExtension>
            <ns3:atemp>23.0</ns3:atemp>
            <ns3:hr>90</ns3:hr>
          </ns3:TrackPointExtension>
        </extensions>
      </trkpt>
      <trkpt lat="47.7524434961378574371337890625" lon="12.25279052741825580596923828125">
        <ele>1392.4000244140625</ele>
        <time>2020-06-23T15:16:25.000Z</time>
        <extensions>
          <ns3:TrackPointExtension>
            <ns3:atemp>23.0</ns3:atemp>
            <ns3:hr>91</ns3:hr>
          </ns3:TrackPointExtension>
        </extensions>
      </trkpt>
      <trkpt lat="47.7524703182280063629150390625" lon="12.25288976915180683135986328125">
        <ele>1391</ele>
        <time>2020-06-23T15:16:26.000Z</time>
        <extensions>
          <ns3:TrackPointExtension>
            <ns3:atemp>23.0</ns3:atemp>
            <ns3:hr>92</ns3:hr>
          </ns3:TrackPointExtension>
        </extensions>
      </trkpt>
      <trkpt lat="47.752500660717487335205078125" lon="12.25298565812408924102783203125">
        <ele>1389.800048828125</ele>
        <time>2020-06-23T15:16:27.000Z</time>
        <extensions>
          <ns3:TrackPointExtension>
            <ns3:atemp>23.0</ns3:atemp>
            <ns3:hr>92</ns3:hr>
          </ns3:TrackPointExtension>
        </extensions>
      </trkpt>
      <trkpt lat="47.75253578089177608489990234375" lon="12.2530732490122318267822265625">
        <ele>1388.800048828125</ele>
        <time>2020-06-23T15:16:28.000Z</time>
        <extensions>
          <ns3:TrackPointExtension>
            <ns3:atemp>23.0</ns3:atemp>
            <ns3:hr>91</ns3:hr>
          </ns3:TrackPointExtension>
        </extensions>
      </trkpt>
      <trkpt lat="47.752606607973575592041015625" lon="12.25324046798050403594970703125">
        <ele>1386.800048828125</ele>
        <time>2020-06-23T15:16:30.000Z</time>
        <extensions>
          <ns3:TrackPointExtension>
            <ns3:atemp>23.0</ns3:atemp>
            <ns3:hr>92</ns3:hr>
          </ns3:TrackPointExtension>
        </extensions>
      </trkpt>
      <trkpt lat="47.7526419796049594879150390625" lon="12.25332194007933139801025390625">
        <ele>1385.800048828125</ele>
        <time>2020-06-23T15:16:31.000Z</time>
        <extensions>
          <ns3:TrackPointExtension>
            <ns3:atemp>23.0</ns3:atemp>
            <ns3:hr>92</ns3:hr>
          </ns3:TrackPointExtension>
        </extensions>
      </trkpt>
      <trkpt lat="47.7526835538446903228759765625" lon="12.25339829921722412109375">
        <ele>1384.5999755859375</ele>
        <time>2020-06-23T15:16:32.000Z</time>
        <extensions>
          <ns3:TrackPointExtension>
            <ns3:atemp>23.0</ns3:atemp>
            <ns3:hr>93</ns3:hr>
          </ns3:TrackPointExtension>
        </extensions>
      </trkpt>
      <trkpt lat="47.75273459963500499725341796875" lon="12.25346560589969158172607421875">
        <ele>1383.4000244140625</ele>
        <time>2020-06-23T15:16:33.000Z</time>
        <extensions>
          <ns3:TrackPointExtension>
            <ns3:atemp>23.0</ns3:atemp>
            <ns3:hr>91</ns3:hr>
          </ns3:TrackPointExtension>
        </extensions>
      </trkpt>
      <trkpt lat="47.75279277004301548004150390625" lon="12.25352662615478038787841796875">
        <ele>1382.199951171875</ele>
        <time>2020-06-23T15:16:34.000Z</time>
        <extensions>
          <ns3:TrackPointExtension>
            <ns3:atemp>23.0</ns3:atemp>
            <ns3:hr>91</ns3:hr>
          </ns3:TrackPointExtension>
        </extensions>
      </trkpt>
      <trkpt lat="47.75285010226070880889892578125" lon="12.253589741885662078857421875">
        <ele>1381</ele>
        <time>2020-06-23T15:16:35.000Z</time>
        <extensions>
          <ns3:TrackPointExtension>
            <ns3:atemp>23.0</ns3:atemp>
            <ns3:hr>92</ns3:hr>
          </ns3:TrackPointExtension>
        </extensions>
      </trkpt>
      <trkpt lat="47.7529021538794040679931640625" lon="12.25365721620619297027587890625">
        <ele>1380</ele>
        <time>2020-06-23T15:16:36.000Z</time>
        <extensions>
          <ns3:TrackPointExtension>
            <ns3:atemp>23.0</ns3:atemp>
            <ns3:hr>89</ns3:hr>
          </ns3:TrackPointExtension>
        </extensions>
      </trkpt>
      <trkpt lat="47.7529938519001007080078125" lon="12.25378830917179584503173828125">
        <ele>1378.4000244140625</ele>
        <time>2020-06-23T15:16:38.000Z</time>
        <extensions>
          <ns3:TrackPointExtension>
            <ns3:atemp>23.0</ns3:atemp>
            <ns3:hr>91</ns3:hr>
          </ns3:TrackPointExtension>
        </extensions>
      </trkpt>
      <trkpt lat="47.7530892379581928253173828125" lon="12.25391068495810031890869140625">
        <ele>1377.199951171875</ele>
        <time>2020-06-23T15:16:40.000Z</time>
        <extensions>
          <ns3:TrackPointExtension>
            <ns3:atemp>23.0</ns3:atemp>
            <ns3:hr>91</ns3:hr>
          </ns3:TrackPointExtension>
        </extensions>
      </trkpt>
      <trkpt lat="47.753134667873382568359375" lon="12.25399383343756198883056640625">
        <ele>1376.800048828125</ele>
        <time>2020-06-23T15:16:41.000Z</time>
        <extensions>
          <ns3:TrackPointExtension>
            <ns3:atemp>23.0</ns3:atemp>
            <ns3:hr>92</ns3:hr>
          </ns3:TrackPointExtension>
        </extensions>
      </trkpt>
      <trkpt lat="47.7532756514847278594970703125" lon="12.25434017367660999298095703125">
        <ele>1376.4000244140625</ele>
        <time>2020-06-23T15:16:45.000Z</time>
        <extensions>
          <ns3:TrackPointExtension>
            <ns3:atemp>23.0</ns3:atemp>
            <ns3:hr>91</ns3:hr>
          </ns3:TrackPointExtension>
        </extensions>
      </trkpt>
      <trkpt lat="47.75338285602629184722900390625" lon="12.2545860148966312408447265625">
        <ele>1376.199951171875</ele>
        <time>2020-06-23T15:16:48.000Z</time>
        <extensions>
          <ns3:TrackPointExtension>
            <ns3:atemp>23.0</ns3:atemp>
            <ns3:hr>92</ns3:hr>
          </ns3:TrackPointExtension>
        </extensions>
      </trkpt>
      <trkpt lat="47.7534364163875579833984375" lon="12.254658602178096771240234375">
        <ele>1375.5999755859375</ele>
        <time>2020-06-23T15:16:49.000Z</time>
        <extensions>
          <ns3:TrackPointExtension>
            <ns3:atemp>23.0</ns3:atemp>
            <ns3:hr>93</ns3:hr>
          </ns3:TrackPointExtension>
        </extensions>
      </trkpt>
      <trkpt lat="47.75355200283229351043701171875" lon="12.25478374399244785308837890625">
        <ele>1374.800048828125</ele>
        <time>2020-06-23T15:16:51.000Z</time>
        <extensions>
          <ns3:TrackPointExtension>
            <ns3:atemp>23.0</ns3:atemp>
            <ns3:hr>96</ns3:hr>
          </ns3:TrackPointExtension>
        </extensions>
      </trkpt>
      <trkpt lat="47.753607071936130523681640625" lon="12.25485415197908878326416015625">
        <ele>1374.5999755859375</ele>
        <time>2020-06-23T15:16:52.000Z</time>
        <extensions>
          <ns3:TrackPointExtension>
            <ns3:atemp>23.0</ns3:atemp>
            <ns3:hr>96</ns3:hr>
          </ns3:TrackPointExtension>
        </extensions>
      </trkpt>
      <trkpt lat="47.75365593843162059783935546875" lon="12.25493947975337505340576171875">
        <ele>1374.5999755859375</ele>
        <time>2020-06-23T15:16:53.000Z</time>
        <extensions>
          <ns3:TrackPointExtension>
            <ns3:atemp>23.0</ns3:atemp>
            <ns3:hr>96</ns3:hr>
          </ns3:TrackPointExtension>
        </extensions>
      </trkpt>
      <trkpt lat="47.75369231589138507843017578125" lon="12.2550366260111331939697265625">
        <ele>1375</ele>
        <time>2020-06-23T15:16:54.000Z</time>
        <extensions>
          <ns3:TrackPointExtension>
            <ns3:atemp>23.0</ns3:atemp>
            <ns3:hr>96</ns3:hr>
          </ns3:TrackPointExtension>
        </extensions>
      </trkpt>
      <trkpt lat="47.7537202276289463043212890625" lon="12.25525598041713237762451171875">
        <ele>1376.199951171875</ele>
        <time>2020-06-23T15:16:56.000Z</time>
        <extensions>
          <ns3:TrackPointExtension>
            <ns3:atemp>23.0</ns3:atemp>
            <ns3:hr>96</ns3:hr>
          </ns3:TrackPointExtension>
        </extensions>
      </trkpt>
      <trkpt lat="47.75371544994413852691650390625" lon="12.25537617690861225128173828125">
        <ele>1377.4000244140625</ele>
        <time>2020-06-23T15:16:57.000Z</time>
        <extensions>
          <ns3:TrackPointExtension>
            <ns3:atemp>23.0</ns3:atemp>
            <ns3:hr>96</ns3:hr>
          </ns3:TrackPointExtension>
        </extensions>
      </trkpt>
      <trkpt lat="47.75369860231876373291015625" lon="12.25549855269491672515869140625">
        <ele>1378.5999755859375</ele>
        <time>2020-06-23T15:16:58.000Z</time>
        <extensions>
          <ns3:TrackPointExtension>
            <ns3:atemp>23.0</ns3:atemp>
            <ns3:hr>97</ns3:hr>
          </ns3:TrackPointExtension>
        </extensions>
      </trkpt>
      <trkpt lat="47.75367035530507564544677734375" lon="12.25561849772930145263671875">
        <ele>1379.800048828125</ele>
        <time>2020-06-23T15:16:59.000Z</time>
        <extensions>
          <ns3:TrackPointExtension>
            <ns3:atemp>23.0</ns3:atemp>
            <ns3:hr>97</ns3:hr>
          </ns3:TrackPointExtension>
        </extensions>
      </trkpt>
      <trkpt lat="47.75363297201693058013916015625" lon="12.25573542527854442596435546875">
        <ele>1381.199951171875</ele>
        <time>2020-06-23T15:17:00.000Z</time>
        <extensions>
          <ns3:TrackPointExtension>
            <ns3:atemp>23.0</ns3:atemp>
            <ns3:hr>97</ns3:hr>
          </ns3:TrackPointExtension>
        </extensions>
      </trkpt>
      <trkpt lat="47.75359475053846836090087890625" lon="12.255844809114933013916015625">
        <ele>1382.5999755859375</ele>
        <time>2020-06-23T15:17:01.000Z</time>
        <extensions>
          <ns3:TrackPointExtension>
            <ns3:atemp>23.0</ns3:atemp>
            <ns3:hr>96</ns3:hr>
          </ns3:TrackPointExtension>
        </extensions>
      </trkpt>
      <trkpt lat="47.75357061065733432769775390625" lon="12.2559482418000698089599609375">
        <ele>1384</ele>
        <time>2020-06-23T15:17:02.000Z</time>
        <extensions>
          <ns3:TrackPointExtension>
            <ns3:atemp>23.0</ns3:atemp>
            <ns3:hr>96</ns3:hr>
          </ns3:TrackPointExtension>
        </extensions>
      </trkpt>
      <trkpt lat="47.75357228703796863555908203125" lon="12.25604538805782794952392578125">
        <ele>1385.199951171875</ele>
        <time>2020-06-23T15:17:03.000Z</time>
        <extensions>
          <ns3:TrackPointExtension>
            <ns3:atemp>23.0</ns3:atemp>
            <ns3:hr>95</ns3:hr>
          </ns3:TrackPointExtension>
        </extensions>
      </trkpt>
      <trkpt lat="47.75360614992678165435791015625" lon="12.25612945854663848876953125">
        <ele>1386.4000244140625</ele>
        <time>2020-06-23T15:17:04.000Z</time>
        <extensions>
          <ns3:TrackPointExtension>
            <ns3:atemp>23.0</ns3:atemp>
            <ns3:hr>95</ns3:hr>
          </ns3:TrackPointExtension>
        </extensions>
      </trkpt>
      <trkpt lat="47.7536558546125888824462890625" lon="12.25619240663945674896240234375">
        <ele>1387.199951171875</ele>
        <time>2020-06-23T15:17:05.000Z</time>
        <extensions>
          <ns3:TrackPointExtension>
            <ns3:atemp>23.0</ns3:atemp>
            <ns3:hr>93</ns3:hr>
          </ns3:TrackPointExtension>
        </extensions>
      </trkpt>
      <trkpt lat="47.75370405055582523345947265625" lon="12.25622392259538173675537109375">
        <ele>1388</ele>
        <time>2020-06-23T15:17:06.000Z</time>
        <extensions>
          <ns3:TrackPointExtension>
            <ns3:atemp>23.0</ns3:atemp>
            <ns3:hr>91</ns3:hr>
          </ns3:TrackPointExtension>
        </extensions>
      </trkpt>
      <trkpt lat="47.7537460438907146453857421875" lon="12.25622341968119144439697265625">
        <ele>1389</ele>
        <time>2020-06-23T15:17:07.000Z</time>
        <extensions>
          <ns3:TrackPointExtension>
            <ns3:atemp>23.0</ns3:atemp>
            <ns3:hr>90</ns3:hr>
          </ns3:TrackPointExtension>
        </extensions>
      </trkpt>
      <trkpt lat="47.753787450492382049560546875" lon="12.2562057338654994964599609375">
        <ele>1389.800048828125</ele>
        <time>2020-06-23T15:17:08.000Z</time>
        <extensions>
          <ns3:TrackPointExtension>
            <ns3:atemp>23.0</ns3:atemp>
            <ns3:hr>89</ns3:hr>
          </ns3:TrackPointExtension>
        </extensions>
      </trkpt>
      <trkpt lat="47.75389649905264377593994140625" lon="12.25619575940072536468505859375">
        <ele>1391.199951171875</ele>
        <time>2020-06-23T15:17:10.000Z</time>
        <extensions>
          <ns3:TrackPointExtension>
            <ns3:atemp>23.0</ns3:atemp>
            <ns3:hr>88</ns3:hr>
          </ns3:TrackPointExtension>
        </extensions>
      </trkpt>
      <trkpt lat="47.7539889514446258544921875" lon="12.25629919208586215972900390625">
        <ele>1392.4000244140625</ele>
        <time>2020-06-23T15:17:12.000Z</time>
        <extensions>
          <ns3:TrackPointExtension>
            <ns3:atemp>23.0</ns3:atemp>
            <ns3:hr>90</ns3:hr>
          </ns3:TrackPointExtension>
        </extensions>
      </trkpt>
      <trkpt lat="47.75400948710739612579345703125" lon="12.2564417682588100433349609375">
        <ele>1393.5999755859375</ele>
        <time>2020-06-23T15:17:14.000Z</time>
        <extensions>
          <ns3:TrackPointExtension>
            <ns3:atemp>23.0</ns3:atemp>
            <ns3:hr>89</ns3:hr>
          </ns3:TrackPointExtension>
        </extensions>
      </trkpt>
      <trkpt lat="47.7540196292102336883544921875" lon="12.25652399472892284393310546875">
        <ele>1393.800048828125</ele>
        <time>2020-06-23T15:17:15.000Z</time>
        <extensions>
          <ns3:TrackPointExtension>
            <ns3:atemp>23.0</ns3:atemp>
            <ns3:hr>90</ns3:hr>
          </ns3:TrackPointExtension>
        </extensions>
      </trkpt>
      <trkpt lat="47.754058353602886199951171875" lon="12.25674158893525600433349609375">
        <ele>1393.5999755859375</ele>
        <time>2020-06-23T15:17:17.000Z</time>
        <extensions>
          <ns3:TrackPointExtension>
            <ns3:atemp>23.0</ns3:atemp>
            <ns3:hr>91</ns3:hr>
          </ns3:TrackPointExtension>
        </extensions>
      </trkpt>
      <trkpt lat="47.7540726028382778167724609375" lon="12.25685709156095981597900390625">
        <ele>1392.800048828125</ele>
        <time>2020-06-23T15:17:18.000Z</time>
        <extensions>
          <ns3:TrackPointExtension>
            <ns3:atemp>23.0</ns3:atemp>
            <ns3:hr>91</ns3:hr>
          </ns3:TrackPointExtension>
        </extensions>
      </trkpt>
      <trkpt lat="47.7540850080549716949462890625" lon="12.25695331580936908721923828125">
        <ele>1391.5999755859375</ele>
        <time>2020-06-23T15:17:19.000Z</time>
        <extensions>
          <ns3:TrackPointExtension>
            <ns3:atemp>23.0</ns3:atemp>
            <ns3:hr>90</ns3:hr>
          </ns3:TrackPointExtension>
        </extensions>
      </trkpt>
      <trkpt lat="47.75410671718418598175048828125" lon="12.25702808238565921783447265625">
        <ele>1390.4000244140625</ele>
        <time>2020-06-23T15:17:20.000Z</time>
        <extensions>
          <ns3:TrackPointExtension>
            <ns3:atemp>23.0</ns3:atemp>
            <ns3:hr>92</ns3:hr>
          </ns3:TrackPointExtension>
        </extensions>
      </trkpt>
      <trkpt lat="47.7541458606719970703125" lon="12.25708792917430400848388671875">
        <ele>1388.800048828125</ele>
        <time>2020-06-23T15:17:21.000Z</time>
        <extensions>
          <ns3:TrackPointExtension>
            <ns3:atemp>23.0</ns3:atemp>
            <ns3:hr>90</ns3:hr>
          </ns3:TrackPointExtension>
        </extensions>
      </trkpt>
      <trkpt lat="47.75419858284294605255126953125" lon="12.25714199244976043701171875">
        <ele>1386.800048828125</ele>
        <time>2020-06-23T15:17:22.000Z</time>
        <extensions>
          <ns3:TrackPointExtension>
            <ns3:atemp>23.0</ns3:atemp>
            <ns3:hr>89</ns3:hr>
          </ns3:TrackPointExtension>
        </extensions>
      </trkpt>
      <trkpt lat="47.754252813756465911865234375" lon="12.257193624973297119140625">
        <ele>1384.199951171875</ele>
        <time>2020-06-23T15:17:23.000Z</time>
        <extensions>
          <ns3:TrackPointExtension>
            <ns3:atemp>23.0</ns3:atemp>
            <ns3:hr>88</ns3:hr>
          </ns3:TrackPointExtension>
        </extensions>
      </trkpt>
      <trkpt lat="47.7543036080896854400634765625" lon="12.25723427720367908477783203125">
        <ele>1382</ele>
        <time>2020-06-23T15:17:24.000Z</time>
        <extensions>
          <ns3:TrackPointExtension>
            <ns3:atemp>23.0</ns3:atemp>
            <ns3:hr>90</ns3:hr>
          </ns3:TrackPointExtension>
        </extensions>
      </trkpt>
      <trkpt lat="47.7543528936803340911865234375" lon="12.25725573487579822540283203125">
        <ele>1380.199951171875</ele>
        <time>2020-06-23T15:17:25.000Z</time>
        <extensions>
          <ns3:TrackPointExtension>
            <ns3:atemp>23.0</ns3:atemp>
            <ns3:hr>89</ns3:hr>
          </ns3:TrackPointExtension>
        </extensions>
      </trkpt>
      <trkpt lat="47.75440360419452190399169921875" lon="12.257262356579303741455078125">
        <ele>1378.5999755859375</ele>
        <time>2020-06-23T15:17:26.000Z</time>
        <extensions>
          <ns3:TrackPointExtension>
            <ns3:atemp>23.0</ns3:atemp>
            <ns3:hr>90</ns3:hr>
          </ns3:TrackPointExtension>
        </extensions>
      </trkpt>
      <trkpt lat="47.75445825420320034027099609375" lon="12.2572672180831432342529296875">
        <ele>1377.199951171875</ele>
        <time>2020-06-23T15:17:27.000Z</time>
        <extensions>
          <ns3:TrackPointExtension>
            <ns3:atemp>23.0</ns3:atemp>
            <ns3:hr>88</ns3:hr>
          </ns3:TrackPointExtension>
        </extensions>
      </trkpt>
      <trkpt lat="47.75451407767832279205322265625" lon="12.257285155355930328369140625">
        <ele>1376</ele>
        <time>2020-06-23T15:17:28.000Z</time>
        <extensions>
          <ns3:TrackPointExtension>
            <ns3:atemp>23.0</ns3:atemp>
            <ns3:hr>87</ns3:hr>
          </ns3:TrackPointExtension>
        </extensions>
      </trkpt>
      <trkpt lat="47.75456705130636692047119140625" lon="12.257316000759601593017578125">
        <ele>1374.800048828125</ele>
        <time>2020-06-23T15:17:29.000Z</time>
        <extensions>
          <ns3:TrackPointExtension>
            <ns3:atemp>23.0</ns3:atemp>
            <ns3:hr>89</ns3:hr>
          </ns3:TrackPointExtension>
        </extensions>
      </trkpt>
      <trkpt lat="47.7546144090592861175537109375" lon="12.2573493607342243194580078125">
        <ele>1373.4000244140625</ele>
        <time>2020-06-23T15:17:30.000Z</time>
        <extensions>
          <ns3:TrackPointExtension>
            <ns3:atemp>23.0</ns3:atemp>
            <ns3:hr>89</ns3:hr>
          </ns3:TrackPointExtension>
        </extensions>
      </trkpt>
      <trkpt lat="47.7546586655080318450927734375" lon="12.25737626664340496063232421875">
        <ele>1372.199951171875</ele>
        <time>2020-06-23T15:17:31.000Z</time>
        <extensions>
          <ns3:TrackPointExtension>
            <ns3:atemp>23.0</ns3:atemp>
            <ns3:hr>89</ns3:hr>
          </ns3:TrackPointExtension>
        </extensions>
      </trkpt>
      <trkpt lat="47.754704095423221588134765625" lon="12.257403843104839324951171875">
        <ele>1371</ele>
        <time>2020-06-23T15:17:32.000Z</time>
        <extensions>
          <ns3:TrackPointExtension>
            <ns3:atemp>23.0</ns3:atemp>
            <ns3:hr>89</ns3:hr>
          </ns3:TrackPointExtension>
        </extensions>
      </trkpt>
      <trkpt lat="47.754753045737743377685546875" lon="12.25743980146944522857666015625">
        <ele>1369.5999755859375</ele>
        <time>2020-06-23T15:17:33.000Z</time>
        <extensions>
          <ns3:TrackPointExtension>
            <ns3:atemp>23.0</ns3:atemp>
            <ns3:hr>85</ns3:hr>
          </ns3:TrackPointExtension>
        </extensions>
      </trkpt>
      <trkpt lat="47.754800654947757720947265625" lon="12.2574878297746181488037109375">
        <ele>1368</ele>
        <time>2020-06-23T15:17:34.000Z</time>
        <extensions>
          <ns3:TrackPointExtension>
            <ns3:atemp>23.0</ns3:atemp>
            <ns3:hr>83</ns3:hr>
          </ns3:TrackPointExtension>
        </extensions>
      </trkpt>
      <trkpt lat="47.75484331883490085601806640625" lon="12.25754440762102603912353515625">
        <ele>1366.4000244140625</ele>
        <time>2020-06-23T15:17:35.000Z</time>
        <extensions>
          <ns3:TrackPointExtension>
            <ns3:atemp>23.0</ns3:atemp>
            <ns3:hr>83</ns3:hr>
          </ns3:TrackPointExtension>
        </extensions>
      </trkpt>
      <trkpt lat="47.75488355197012424468994140625" lon="12.2575994767248630523681640625">
        <ele>1364.800048828125</ele>
        <time>2020-06-23T15:17:36.000Z</time>
        <extensions>
          <ns3:TrackPointExtension>
            <ns3:atemp>23.0</ns3:atemp>
            <ns3:hr>84</ns3:hr>
          </ns3:TrackPointExtension>
        </extensions>
      </trkpt>
      <trkpt lat="47.75492571294307708740234375" lon="12.25764415226876735687255859375">
        <ele>1363.5999755859375</ele>
        <time>2020-06-23T15:17:37.000Z</time>
        <extensions>
          <ns3:TrackPointExtension>
            <ns3:atemp>23.0</ns3:atemp>
            <ns3:hr>87</ns3:hr>
          </ns3:TrackPointExtension>
        </extensions>
      </trkpt>
      <trkpt lat="47.75497424416244029998779296875" lon="12.25767499767243862152099609375">
        <ele>1362.199951171875</ele>
        <time>2020-06-23T15:17:38.000Z</time>
        <extensions>
          <ns3:TrackPointExtension>
            <ns3:atemp>23.0</ns3:atemp>
            <ns3:hr>87</ns3:hr>
          </ns3:TrackPointExtension>
        </extensions>
      </trkpt>
      <trkpt lat="47.7550278045237064361572265625" lon="12.2576946951448917388916015625">
        <ele>1360.5999755859375</ele>
        <time>2020-06-23T15:17:39.000Z</time>
        <extensions>
          <ns3:TrackPointExtension>
            <ns3:atemp>23.0</ns3:atemp>
            <ns3:hr>87</ns3:hr>
          </ns3:TrackPointExtension>
        </extensions>
      </trkpt>
      <trkpt lat="47.7550807781517505645751953125" lon="12.25771221332252025604248046875">
        <ele>1359</ele>
        <time>2020-06-23T15:17:40.000Z</time>
        <extensions>
          <ns3:TrackPointExtension>
            <ns3:atemp>23.0</ns3:atemp>
            <ns3:hr>90</ns3:hr>
          </ns3:TrackPointExtension>
        </extensions>
      </trkpt>
      <trkpt lat="47.755129896104335784912109375" lon="12.25773073732852935791015625">
        <ele>1357.4000244140625</ele>
        <time>2020-06-23T15:17:41.000Z</time>
        <extensions>
          <ns3:TrackPointExtension>
            <ns3:atemp>23.0</ns3:atemp>
            <ns3:hr>91</ns3:hr>
          </ns3:TrackPointExtension>
        </extensions>
      </trkpt>
      <trkpt lat="47.755172811448574066162109375" lon="12.25775009952485561370849609375">
        <ele>1356</ele>
        <time>2020-06-23T15:17:42.000Z</time>
        <extensions>
          <ns3:TrackPointExtension>
            <ns3:atemp>23.0</ns3:atemp>
            <ns3:hr>87</ns3:hr>
          </ns3:TrackPointExtension>
        </extensions>
      </trkpt>
      <trkpt lat="47.75521413423120975494384765625" lon="12.2577654384076595306396484375">
        <ele>1354.800048828125</ele>
        <time>2020-06-23T15:17:43.000Z</time>
        <extensions>
          <ns3:TrackPointExtension>
            <ns3:atemp>23.0</ns3:atemp>
            <ns3:hr>89</ns3:hr>
          </ns3:TrackPointExtension>
        </extensions>
      </trkpt>
      <trkpt lat="47.75525922887027263641357421875" lon="12.2577785141766071319580078125">
        <ele>1353.199951171875</ele>
        <time>2020-06-23T15:17:44.000Z</time>
        <extensions>
          <ns3:TrackPointExtension>
            <ns3:atemp>23.0</ns3:atemp>
            <ns3:hr>89</ns3:hr>
          </ns3:TrackPointExtension>
        </extensions>
      </trkpt>
      <trkpt lat="47.7553104422986507415771484375" lon="12.25779955275356769561767578125">
        <ele>1351.4000244140625</ele>
        <time>2020-06-23T15:17:45.000Z</time>
        <extensions>
          <ns3:TrackPointExtension>
            <ns3:atemp>23.0</ns3:atemp>
            <ns3:hr>91</ns3:hr>
          </ns3:TrackPointExtension>
        </extensions>
      </trkpt>
      <trkpt lat="47.755365259945392608642578125" lon="12.25783928297460079193115234375">
        <ele>1349.5999755859375</ele>
        <time>2020-06-23T15:17:46.000Z</time>
        <extensions>
          <ns3:TrackPointExtension>
            <ns3:atemp>23.0</ns3:atemp>
            <ns3:hr>92</ns3:hr>
          </ns3:TrackPointExtension>
        </extensions>
      </trkpt>
      <trkpt lat="47.75541496463119983673095703125" lon="12.25789728574454784393310546875">
        <ele>1347.5999755859375</ele>
        <time>2020-06-23T15:17:47.000Z</time>
        <extensions>
          <ns3:TrackPointExtension>
            <ns3:atemp>23.0</ns3:atemp>
            <ns3:hr>94</ns3:hr>
          </ns3:TrackPointExtension>
        </extensions>
      </trkpt>
      <trkpt lat="47.755455113947391510009765625" lon="12.25796635262668132781982421875">
        <ele>1345.4000244140625</ele>
        <time>2020-06-23T15:17:48.000Z</time>
        <extensions>
          <ns3:TrackPointExtension>
            <ns3:atemp>23.0</ns3:atemp>
            <ns3:hr>92</ns3:hr>
          </ns3:TrackPointExtension>
        </extensions>
      </trkpt>
      <trkpt lat="47.7554901503026485443115234375" lon="12.25803516805171966552734375">
        <ele>1343.4000244140625</ele>
        <time>2020-06-23T15:17:49.000Z</time>
        <extensions>
          <ns3:TrackPointExtension>
            <ns3:atemp>23.0</ns3:atemp>
            <ns3:hr>91</ns3:hr>
          </ns3:TrackPointExtension>
        </extensions>
      </trkpt>
      <trkpt lat="47.75552778504788875579833984375" lon="12.25810222327709197998046875">
        <ele>1342</ele>
        <time>2020-06-23T15:17:50.000Z</time>
        <extensions>
          <ns3:TrackPointExtension>
            <ns3:atemp>23.0</ns3:atemp>
            <ns3:hr>89</ns3:hr>
          </ns3:TrackPointExtension>
        </extensions>
      </trkpt>
      <trkpt lat="47.75557204149663448333740234375" lon="12.25816835649311542510986328125">
        <ele>1340.4000244140625</ele>
        <time>2020-06-23T15:17:51.000Z</time>
        <extensions>
          <ns3:TrackPointExtension>
            <ns3:atemp>23.0</ns3:atemp>
            <ns3:hr>88</ns3:hr>
          </ns3:TrackPointExtension>
        </extensions>
      </trkpt>
      <trkpt lat="47.7556188963353633880615234375" lon="12.25823004730045795440673828125">
        <ele>1339.199951171875</ele>
        <time>2020-06-23T15:17:52.000Z</time>
        <extensions>
          <ns3:TrackPointExtension>
            <ns3:atemp>23.0</ns3:atemp>
            <ns3:hr>88</ns3:hr>
          </ns3:TrackPointExtension>
        </extensions>
      </trkpt>
      <trkpt lat="47.75566122494637966156005859375" lon="12.2582817636430263519287109375">
        <ele>1338</ele>
        <time>2020-06-23T15:17:53.000Z</time>
        <extensions>
          <ns3:TrackPointExtension>
            <ns3:atemp>23.0</ns3:atemp>
            <ns3:hr>88</ns3:hr>
          </ns3:TrackPointExtension>
        </extensions>
      </trkpt>
      <trkpt lat="47.75574378669261932373046875" lon="12.25836952216923236846923828125">
        <ele>1336.4000244140625</ele>
        <time>2020-06-23T15:17:55.000Z</time>
        <extensions>
          <ns3:TrackPointExtension>
            <ns3:atemp>23.0</ns3:atemp>
            <ns3:hr>88</ns3:hr>
          </ns3:TrackPointExtension>
        </extensions>
      </trkpt>
      <trkpt lat="47.75585685856640338897705078125" lon="12.25845451466739177703857421875">
        <ele>1335</ele>
        <time>2020-06-23T15:17:57.000Z</time>
        <extensions>
          <ns3:TrackPointExtension>
            <ns3:atemp>23.0</ns3:atemp>
            <ns3:hr>88</ns3:hr>
          </ns3:TrackPointExtension>
        </extensions>
      </trkpt>
      <trkpt lat="47.7560705132782459259033203125" lon="12.25859432481229305267333984375">
        <ele>1334.5999755859375</ele>
        <time>2020-06-23T15:18:01.000Z</time>
        <extensions>
          <ns3:TrackPointExtension>
            <ns3:atemp>23.0</ns3:atemp>
            <ns3:hr>89</ns3:hr>
          </ns3:TrackPointExtension>
        </extensions>
      </trkpt>
      <trkpt lat="47.7563058771193027496337890625" lon="12.25869960151612758636474609375">
        <ele>1336</ele>
        <time>2020-06-23T15:18:05.000Z</time>
        <extensions>
          <ns3:TrackPointExtension>
            <ns3:atemp>24.0</ns3:atemp>
            <ns3:hr>90</ns3:hr>
          </ns3:TrackPointExtension>
        </extensions>
      </trkpt>
      <trkpt lat="47.7563578449189662933349609375" lon="12.258738242089748382568359375">
        <ele>1336.4000244140625</ele>
        <time>2020-06-23T15:18:06.000Z</time>
        <extensions>
          <ns3:TrackPointExtension>
            <ns3:atemp>24.0</ns3:atemp>
            <ns3:hr>91</ns3:hr>
          </ns3:TrackPointExtension>
        </extensions>
      </trkpt>
      <trkpt lat="47.7564057894051074981689453125" lon="12.25878945551812648773193359375">
        <ele>1337</ele>
        <time>2020-06-23T15:18:07.000Z</time>
        <extensions>
          <ns3:TrackPointExtension>
            <ns3:atemp>24.0</ns3:atemp>
            <ns3:hr>91</ns3:hr>
          </ns3:TrackPointExtension>
        </extensions>
      </trkpt>
      <trkpt lat="47.756479717791080474853515625" lon="12.2589254938066005706787109375">
        <ele>1337.4000244140625</ele>
        <time>2020-06-23T15:18:09.000Z</time>
        <extensions>
          <ns3:TrackPointExtension>
            <ns3:atemp>24.0</ns3:atemp>
            <ns3:hr>92</ns3:hr>
          </ns3:TrackPointExtension>
        </extensions>
      </trkpt>
      <trkpt lat="47.75651064701378345489501953125" lon="12.25900369696319103240966796875">
        <ele>1337.4000244140625</ele>
        <time>2020-06-23T15:18:10.000Z</time>
        <extensions>
          <ns3:TrackPointExtension>
            <ns3:atemp>24.0</ns3:atemp>
            <ns3:hr>92</ns3:hr>
          </ns3:TrackPointExtension>
        </extensions>
      </trkpt>
      <trkpt lat="47.7565911971032619476318359375" lon="12.259171418845653533935546875">
        <ele>1336.5999755859375</ele>
        <time>2020-06-23T15:18:12.000Z</time>
        <extensions>
          <ns3:TrackPointExtension>
            <ns3:atemp>24.0</ns3:atemp>
            <ns3:hr>92</ns3:hr>
          </ns3:TrackPointExtension>
        </extensions>
      </trkpt>
      <trkpt lat="47.756645679473876953125" lon="12.2592527233064174652099609375">
        <ele>1335.5999755859375</ele>
        <time>2020-06-23T15:18:13.000Z</time>
        <extensions>
          <ns3:TrackPointExtension>
            <ns3:atemp>24.0</ns3:atemp>
            <ns3:hr>92</ns3:hr>
          </ns3:TrackPointExtension>
        </extensions>
      </trkpt>
      <trkpt lat="47.75674349628388881683349609375" lon="12.2593942098319530487060546875">
        <ele>1333.800048828125</ele>
        <time>2020-06-23T15:18:15.000Z</time>
        <extensions>
          <ns3:TrackPointExtension>
            <ns3:atemp>24.0</ns3:atemp>
            <ns3:hr>91</ns3:hr>
          </ns3:TrackPointExtension>
        </extensions>
      </trkpt>
      <trkpt lat="47.7567769400775432586669921875" lon="12.25945782847702503204345703125">
        <ele>1333.199951171875</ele>
        <time>2020-06-23T15:18:16.000Z</time>
        <extensions>
          <ns3:TrackPointExtension>
            <ns3:atemp>24.0</ns3:atemp>
            <ns3:hr>91</ns3:hr>
          </ns3:TrackPointExtension>
        </extensions>
      </trkpt>
      <trkpt lat="47.7568097971379756927490234375" lon="12.25952220149338245391845703125">
        <ele>1332.5999755859375</ele>
        <time>2020-06-23T15:18:17.000Z</time>
        <extensions>
          <ns3:TrackPointExtension>
            <ns3:atemp>24.0</ns3:atemp>
            <ns3:hr>90</ns3:hr>
          </ns3:TrackPointExtension>
        </extensions>
      </trkpt>
      <trkpt lat="47.756852209568023681640625" lon="12.25959026254713535308837890625">
        <ele>1331.800048828125</ele>
        <time>2020-06-23T15:18:18.000Z</time>
        <extensions>
          <ns3:TrackPointExtension>
            <ns3:atemp>24.0</ns3:atemp>
            <ns3:hr>90</ns3:hr>
          </ns3:TrackPointExtension>
        </extensions>
      </trkpt>
      <trkpt lat="47.756906189024448394775390625" lon="12.25966050289571285247802734375">
        <ele>1330.800048828125</ele>
        <time>2020-06-23T15:18:19.000Z</time>
        <extensions>
          <ns3:TrackPointExtension>
            <ns3:atemp>24.0</ns3:atemp>
            <ns3:hr>89</ns3:hr>
          </ns3:TrackPointExtension>
        </extensions>
      </trkpt>
      <trkpt lat="47.75696192868053913116455078125" lon="12.259732000529766082763671875">
        <ele>1329.4000244140625</ele>
        <time>2020-06-23T15:18:20.000Z</time>
        <extensions>
          <ns3:TrackPointExtension>
            <ns3:atemp>24.0</ns3:atemp>
            <ns3:hr>89</ns3:hr>
          </ns3:TrackPointExtension>
        </extensions>
      </trkpt>
      <trkpt lat="47.7570072747766971588134765625" lon="12.259804420173168182373046875">
        <ele>1328.4000244140625</ele>
        <time>2020-06-23T15:18:21.000Z</time>
        <extensions>
          <ns3:TrackPointExtension>
            <ns3:atemp>24.0</ns3:atemp>
            <ns3:hr>89</ns3:hr>
          </ns3:TrackPointExtension>
        </extensions>
      </trkpt>
      <trkpt lat="47.75707340799272060394287109375" lon="12.2599497623741626739501953125">
        <ele>1327.4000244140625</ele>
        <time>2020-06-23T15:18:23.000Z</time>
        <extensions>
          <ns3:TrackPointExtension>
            <ns3:atemp>24.0</ns3:atemp>
            <ns3:hr>89</ns3:hr>
          </ns3:TrackPointExtension>
        </extensions>
      </trkpt>
      <trkpt lat="47.75711146183311939239501953125" lon="12.26002478040754795074462890625">
        <ele>1327</ele>
        <time>2020-06-23T15:18:24.000Z</time>
        <extensions>
          <ns3:TrackPointExtension>
            <ns3:atemp>24.0</ns3:atemp>
            <ns3:hr>89</ns3:hr>
          </ns3:TrackPointExtension>
        </extensions>
      </trkpt>
      <trkpt lat="47.75715873576700687408447265625" lon="12.26010390557348728179931640625">
        <ele>1326.199951171875</ele>
        <time>2020-06-23T15:18:25.000Z</time>
        <extensions>
          <ns3:TrackPointExtension>
            <ns3:atemp>24.0</ns3:atemp>
            <ns3:hr>89</ns3:hr>
          </ns3:TrackPointExtension>
        </extensions>
      </trkpt>
      <trkpt lat="47.75721003301441669464111328125" lon="12.26018722169101238250732421875">
        <ele>1325</ele>
        <time>2020-06-23T15:18:26.000Z</time>
        <extensions>
          <ns3:TrackPointExtension>
            <ns3:atemp>24.0</ns3:atemp>
            <ns3:hr>89</ns3:hr>
          </ns3:TrackPointExtension>
        </extensions>
      </trkpt>
      <trkpt lat="47.75725646875798702239990234375" lon="12.2602749802172183990478515625">
        <ele>1323.5999755859375</ele>
        <time>2020-06-23T15:18:27.000Z</time>
        <extensions>
          <ns3:TrackPointExtension>
            <ns3:atemp>24.0</ns3:atemp>
            <ns3:hr>89</ns3:hr>
          </ns3:TrackPointExtension>
        </extensions>
      </trkpt>
      <trkpt lat="47.757294438779354095458984375" lon="12.26036793552339076995849609375">
        <ele>1322.4000244140625</ele>
        <time>2020-06-23T15:18:28.000Z</time>
        <extensions>
          <ns3:TrackPointExtension>
            <ns3:atemp>24.0</ns3:atemp>
            <ns3:hr>90</ns3:hr>
          </ns3:TrackPointExtension>
        </extensions>
      </trkpt>
      <trkpt lat="47.7573573030531406402587890625" lon="12.26055108010768890380859375">
        <ele>1320.800048828125</ele>
        <time>2020-06-23T15:18:30.000Z</time>
        <extensions>
          <ns3:TrackPointExtension>
            <ns3:atemp>24.0</ns3:atemp>
            <ns3:hr>90</ns3:hr>
          </ns3:TrackPointExtension>
        </extensions>
      </trkpt>
      <trkpt lat="47.757397703826427459716796875" lon="12.2606286965310573577880859375">
        <ele>1320</ele>
        <time>2020-06-23T15:18:31.000Z</time>
        <extensions>
          <ns3:TrackPointExtension>
            <ns3:atemp>24.0</ns3:atemp>
            <ns3:hr>90</ns3:hr>
          </ns3:TrackPointExtension>
        </extensions>
      </trkpt>
      <trkpt lat="47.75744606740772724151611328125" lon="12.2606923989951610565185546875">
        <ele>1319.199951171875</ele>
        <time>2020-06-23T15:18:32.000Z</time>
        <extensions>
          <ns3:TrackPointExtension>
            <ns3:atemp>24.0</ns3:atemp>
            <ns3:hr>90</ns3:hr>
          </ns3:TrackPointExtension>
        </extensions>
      </trkpt>
      <trkpt lat="47.7575477398931980133056640625" lon="12.26079943589866161346435546875">
        <ele>1317.199951171875</ele>
        <time>2020-06-23T15:18:34.000Z</time>
        <extensions>
          <ns3:TrackPointExtension>
            <ns3:atemp>24.0</ns3:atemp>
            <ns3:hr>90</ns3:hr>
          </ns3:TrackPointExtension>
        </extensions>
      </trkpt>
      <trkpt lat="47.757594175636768341064453125" lon="12.26085224188864231109619140625">
        <ele>1316.5999755859375</ele>
        <time>2020-06-23T15:18:35.000Z</time>
        <extensions>
          <ns3:TrackPointExtension>
            <ns3:atemp>24.0</ns3:atemp>
            <ns3:hr>90</ns3:hr>
          </ns3:TrackPointExtension>
        </extensions>
      </trkpt>
      <trkpt lat="47.75764035992324352264404296875" lon="12.26090186275541782379150390625">
        <ele>1316</ele>
        <time>2020-06-23T15:18:36.000Z</time>
        <extensions>
          <ns3:TrackPointExtension>
            <ns3:atemp>24.0</ns3:atemp>
            <ns3:hr>90</ns3:hr>
          </ns3:TrackPointExtension>
        </extensions>
      </trkpt>
      <trkpt lat="47.7577413618564605712890625" lon="12.26100244559347629547119140625">
        <ele>1315.199951171875</ele>
        <time>2020-06-23T15:18:38.000Z</time>
        <extensions>
          <ns3:TrackPointExtension>
            <ns3:atemp>24.0</ns3:atemp>
            <ns3:hr>90</ns3:hr>
          </ns3:TrackPointExtension>
        </extensions>
      </trkpt>
      <trkpt lat="47.7577914856374263763427734375" lon="12.26107251830399036407470703125">
        <ele>1315</ele>
        <time>2020-06-23T15:18:39.000Z</time>
        <extensions>
          <ns3:TrackPointExtension>
            <ns3:atemp>24.0</ns3:atemp>
            <ns3:hr>90</ns3:hr>
          </ns3:TrackPointExtension>
        </extensions>
      </trkpt>
      <trkpt lat="47.7578354068100452423095703125" lon="12.26115650497376918792724609375">
        <ele>1314.4000244140625</ele>
        <time>2020-06-23T15:18:40.000Z</time>
        <extensions>
          <ns3:TrackPointExtension>
            <ns3:atemp>24.0</ns3:atemp>
            <ns3:hr>90</ns3:hr>
          </ns3:TrackPointExtension>
        </extensions>
      </trkpt>
      <trkpt lat="47.75787371210753917694091796875" lon="12.26124401204288005828857421875">
        <ele>1313.800048828125</ele>
        <time>2020-06-23T15:18:41.000Z</time>
        <extensions>
          <ns3:TrackPointExtension>
            <ns3:atemp>24.0</ns3:atemp>
            <ns3:hr>90</ns3:hr>
          </ns3:TrackPointExtension>
        </extensions>
      </trkpt>
      <trkpt lat="47.75799340568482875823974609375" lon="12.2614963911473751068115234375">
        <ele>1312.5999755859375</ele>
        <time>2020-06-23T15:18:44.000Z</time>
        <extensions>
          <ns3:TrackPointExtension>
            <ns3:atemp>24.0</ns3:atemp>
            <ns3:hr>90</ns3:hr>
          </ns3:TrackPointExtension>
        </extensions>
      </trkpt>
      <trkpt lat="47.758069597184658050537109375" lon="12.2616663761436939239501953125">
        <ele>1312</ele>
        <time>2020-06-23T15:18:46.000Z</time>
        <extensions>
          <ns3:TrackPointExtension>
            <ns3:atemp>24.0</ns3:atemp>
            <ns3:hr>91</ns3:hr>
          </ns3:TrackPointExtension>
        </extensions>
      </trkpt>
      <trkpt lat="47.75815702043473720550537109375" lon="12.26181716658174991607666015625">
        <ele>1311.5999755859375</ele>
        <time>2020-06-23T15:18:48.000Z</time>
        <extensions>
          <ns3:TrackPointExtension>
            <ns3:atemp>24.0</ns3:atemp>
            <ns3:hr>90</ns3:hr>
          </ns3:TrackPointExtension>
        </extensions>
      </trkpt>
      <trkpt lat="47.75826380588114261627197265625" lon="12.26195580326020717620849609375">
        <ele>1311.4000244140625</ele>
        <time>2020-06-23T15:18:50.000Z</time>
        <extensions>
          <ns3:TrackPointExtension>
            <ns3:atemp>24.0</ns3:atemp>
            <ns3:hr>89</ns3:hr>
          </ns3:TrackPointExtension>
        </extensions>
      </trkpt>
      <trkpt lat="47.758313678205013275146484375" lon="12.26203945465385913848876953125">
        <ele>1311.199951171875</ele>
        <time>2020-06-23T15:18:51.000Z</time>
        <extensions>
          <ns3:TrackPointExtension>
            <ns3:atemp>24.0</ns3:atemp>
            <ns3:hr>89</ns3:hr>
          </ns3:TrackPointExtension>
        </extensions>
      </trkpt>
      <trkpt lat="47.758376039564609527587890625" lon="12.26225830614566802978515625">
        <ele>1311</ele>
        <time>2020-06-23T15:18:53.000Z</time>
        <extensions>
          <ns3:TrackPointExtension>
            <ns3:atemp>24.0</ns3:atemp>
            <ns3:hr>87</ns3:hr>
          </ns3:TrackPointExtension>
        </extensions>
      </trkpt>
      <trkpt lat="47.7584885247051715850830078125" lon="12.26280723698437213897705078125">
        <ele>1311</ele>
        <time>2020-06-23T15:18:58.000Z</time>
        <extensions>
          <ns3:TrackPointExtension>
            <ns3:atemp>24.0</ns3:atemp>
            <ns3:hr>87</ns3:hr>
          </ns3:TrackPointExtension>
        </extensions>
      </trkpt>
      <trkpt lat="47.7586427517235279083251953125" lon="12.26316447369754314422607421875">
        <ele>1312.5999755859375</ele>
        <time>2020-06-23T15:19:02.000Z</time>
        <extensions>
          <ns3:TrackPointExtension>
            <ns3:atemp>24.0</ns3:atemp>
            <ns3:hr>90</ns3:hr>
          </ns3:TrackPointExtension>
        </extensions>
      </trkpt>
      <trkpt lat="47.758717350661754608154296875" lon="12.26335792802274227142333984375">
        <ele>1313.800048828125</ele>
        <time>2020-06-23T15:19:04.000Z</time>
        <extensions>
          <ns3:TrackPointExtension>
            <ns3:atemp>24.0</ns3:atemp>
            <ns3:hr>91</ns3:hr>
          </ns3:TrackPointExtension>
        </extensions>
      </trkpt>
      <trkpt lat="47.7587996609508991241455078125" lon="12.26353730075061321258544921875">
        <ele>1315.199951171875</ele>
        <time>2020-06-23T15:19:06.000Z</time>
        <extensions>
          <ns3:TrackPointExtension>
            <ns3:atemp>24.0</ns3:atemp>
            <ns3:hr>91</ns3:hr>
          </ns3:TrackPointExtension>
        </extensions>
      </trkpt>
      <trkpt lat="47.7588429115712642669677734375" lon="12.26361357606947422027587890625">
        <ele>1316.800048828125</ele>
        <time>2020-06-23T15:19:07.000Z</time>
        <extensions>
          <ns3:TrackPointExtension>
            <ns3:atemp>24.0</ns3:atemp>
            <ns3:hr>91</ns3:hr>
          </ns3:TrackPointExtension>
        </extensions>
      </trkpt>
      <trkpt lat="47.75888976640999317169189453125" lon="12.26367308758199214935302734375">
        <ele>1318.4000244140625</ele>
        <time>2020-06-23T15:19:08.000Z</time>
        <extensions>
          <ns3:TrackPointExtension>
            <ns3:atemp>24.0</ns3:atemp>
            <ns3:hr>91</ns3:hr>
          </ns3:TrackPointExtension>
        </extensions>
      </trkpt>
      <trkpt lat="47.758940644562244415283203125" lon="12.26372069679200649261474609375">
        <ele>1320.199951171875</ele>
        <time>2020-06-23T15:19:09.000Z</time>
        <extensions>
          <ns3:TrackPointExtension>
            <ns3:atemp>24.0</ns3:atemp>
            <ns3:hr>91</ns3:hr>
          </ns3:TrackPointExtension>
        </extensions>
      </trkpt>
      <trkpt lat="47.7589927799999713897705078125" lon="12.26377115584909915924072265625">
        <ele>1322</ele>
        <time>2020-06-23T15:19:10.000Z</time>
        <extensions>
          <ns3:TrackPointExtension>
            <ns3:atemp>24.0</ns3:atemp>
            <ns3:hr>92</ns3:hr>
          </ns3:TrackPointExtension>
        </extensions>
      </trkpt>
      <trkpt lat="47.75903896428644657135009765625" lon="12.26383150555193424224853515625">
        <ele>1324</ele>
        <time>2020-06-23T15:19:11.000Z</time>
        <extensions>
          <ns3:TrackPointExtension>
            <ns3:atemp>24.0</ns3:atemp>
            <ns3:hr>92</ns3:hr>
          </ns3:TrackPointExtension>
        </extensions>
      </trkpt>
      <trkpt lat="47.759073078632354736328125" lon="12.26389219053089618682861328125">
        <ele>1326.199951171875</ele>
        <time>2020-06-23T15:19:12.000Z</time>
        <extensions>
          <ns3:TrackPointExtension>
            <ns3:atemp>24.0</ns3:atemp>
            <ns3:hr>92</ns3:hr>
          </ns3:TrackPointExtension>
        </extensions>
      </trkpt>
      <trkpt lat="47.75909713469445705413818359375" lon="12.2639355249702930450439453125">
        <ele>1328.800048828125</ele>
        <time>2020-06-23T15:19:13.000Z</time>
        <extensions>
          <ns3:TrackPointExtension>
            <ns3:atemp>24.0</ns3:atemp>
            <ns3:hr>92</ns3:hr>
          </ns3:TrackPointExtension>
        </extensions>
      </trkpt>
      <trkpt lat="47.75911909528076648712158203125" lon="12.26395874284207820892333984375">
        <ele>1331.4000244140625</ele>
        <time>2020-06-23T15:19:14.000Z</time>
        <extensions>
          <ns3:TrackPointExtension>
            <ns3:atemp>24.0</ns3:atemp>
            <ns3:hr>91</ns3:hr>
          </ns3:TrackPointExtension>
        </extensions>
      </trkpt>
      <trkpt lat="47.75914348661899566650390625" lon="12.2639797814190387725830078125">
        <ele>1334</ele>
        <time>2020-06-23T15:19:15.000Z</time>
        <extensions>
          <ns3:TrackPointExtension>
            <ns3:atemp>24.0</ns3:atemp>
            <ns3:hr>91</ns3:hr>
          </ns3:TrackPointExtension>
        </extensions>
      </trkpt>
      <trkpt lat="47.759169973433017730712890625" lon="12.26401490159332752227783203125">
        <ele>1336.199951171875</ele>
        <time>2020-06-23T15:19:16.000Z</time>
        <extensions>
          <ns3:TrackPointExtension>
            <ns3:atemp>24.0</ns3:atemp>
            <ns3:hr>90</ns3:hr>
          </ns3:TrackPointExtension>
        </extensions>
      </trkpt>
      <trkpt lat="47.7591962926089763641357421875" lon="12.264070473611354827880859375">
        <ele>1338</ele>
        <time>2020-06-23T15:19:17.000Z</time>
        <extensions>
          <ns3:TrackPointExtension>
            <ns3:atemp>24.0</ns3:atemp>
            <ns3:hr>90</ns3:hr>
          </ns3:TrackPointExtension>
        </extensions>
      </trkpt>
      <trkpt lat="47.75922135449945926666259765625" lon="12.2641319967806339263916015625">
        <ele>1339.4000244140625</ele>
        <time>2020-06-23T15:19:18.000Z</time>
        <extensions>
          <ns3:TrackPointExtension>
            <ns3:atemp>24.0</ns3:atemp>
            <ns3:hr>90</ns3:hr>
          </ns3:TrackPointExtension>
        </extensions>
      </trkpt>
      <trkpt lat="47.75924633257091045379638671875" lon="12.26418413221836090087890625">
        <ele>1340.5999755859375</ele>
        <time>2020-06-23T15:19:19.000Z</time>
        <extensions>
          <ns3:TrackPointExtension>
            <ns3:atemp>24.0</ns3:atemp>
            <ns3:hr>90</ns3:hr>
          </ns3:TrackPointExtension>
        </extensions>
      </trkpt>
      <trkpt lat="47.7592700533568859100341796875" lon="12.264226041734218597412109375">
        <ele>1341.800048828125</ele>
        <time>2020-06-23T15:19:20.000Z</time>
        <extensions>
          <ns3:TrackPointExtension>
            <ns3:atemp>24.0</ns3:atemp>
            <ns3:hr>90</ns3:hr>
          </ns3:TrackPointExtension>
        </extensions>
      </trkpt>
      <trkpt lat="47.75928757153451442718505859375" lon="12.26426954381167888641357421875">
        <ele>1343</ele>
        <time>2020-06-23T15:19:21.000Z</time>
        <extensions>
          <ns3:TrackPointExtension>
            <ns3:atemp>24.0</ns3:atemp>
            <ns3:hr>90</ns3:hr>
          </ns3:TrackPointExtension>
        </extensions>
      </trkpt>
      <trkpt lat="47.75930039584636688232421875" lon="12.26432419382035732269287109375">
        <ele>1344</ele>
        <time>2020-06-23T15:19:22.000Z</time>
        <extensions>
          <ns3:TrackPointExtension>
            <ns3:atemp>24.0</ns3:atemp>
            <ns3:hr>90</ns3:hr>
          </ns3:TrackPointExtension>
        </extensions>
      </trkpt>
      <trkpt lat="47.75932964868843555450439453125" lon="12.2644652612507343292236328125">
        <ele>1345</ele>
        <time>2020-06-23T15:19:24.000Z</time>
        <extensions>
          <ns3:TrackPointExtension>
            <ns3:atemp>24.0</ns3:atemp>
            <ns3:hr>90</ns3:hr>
          </ns3:TrackPointExtension>
        </extensions>
      </trkpt>
      <trkpt lat="47.75936569087207317352294921875" lon="12.2646003775298595428466796875">
        <ele>1345.800048828125</ele>
        <time>2020-06-23T15:19:26.000Z</time>
        <extensions>
          <ns3:TrackPointExtension>
            <ns3:atemp>24.0</ns3:atemp>
            <ns3:hr>89</ns3:hr>
          </ns3:TrackPointExtension>
        </extensions>
      </trkpt>
      <trkpt lat="47.75940835475921630859375" lon="12.26466567255556583404541015625">
        <ele>1346.199951171875</ele>
        <time>2020-06-23T15:19:28.000Z</time>
        <extensions>
          <ns3:TrackPointExtension>
            <ns3:atemp>24.0</ns3:atemp>
            <ns3:hr>89</ns3:hr>
          </ns3:TrackPointExtension>
        </extensions>
      </trkpt>
      <trkpt lat="47.75945051573216915130615234375" lon="12.2646546922624111175537109375">
        <ele>1346.4000244140625</ele>
        <time>2020-06-23T15:19:29.000Z</time>
        <extensions>
          <ns3:TrackPointExtension>
            <ns3:atemp>24.0</ns3:atemp>
            <ns3:hr>90</ns3:hr>
          </ns3:TrackPointExtension>
        </extensions>
      </trkpt>
      <trkpt lat="47.759503237903118133544921875" lon="12.26459987461566925048828125">
        <ele>1346.4000244140625</ele>
        <time>2020-06-23T15:19:30.000Z</time>
        <extensions>
          <ns3:TrackPointExtension>
            <ns3:atemp>24.0</ns3:atemp>
            <ns3:hr>90</ns3:hr>
          </ns3:TrackPointExtension>
        </extensions>
      </trkpt>
      <trkpt lat="47.759550847113132476806640625" lon="12.26449300535023212432861328125">
        <ele>1346.199951171875</ele>
        <time>2020-06-23T15:19:31.000Z</time>
        <extensions>
          <ns3:TrackPointExtension>
            <ns3:atemp>24.0</ns3:atemp>
            <ns3:hr>91</ns3:hr>
          </ns3:TrackPointExtension>
        </extensions>
      </trkpt>
      <trkpt lat="47.75957708247005939483642578125" lon="12.2643479146063327789306640625">
        <ele>1345.800048828125</ele>
        <time>2020-06-23T15:19:32.000Z</time>
        <extensions>
          <ns3:TrackPointExtension>
            <ns3:atemp>24.0</ns3:atemp>
            <ns3:hr>92</ns3:hr>
          </ns3:TrackPointExtension>
        </extensions>
      </trkpt>
      <trkpt lat="47.75957557372748851776123046875" lon="12.2641832940280437469482421875">
        <ele>1345.5999755859375</ele>
        <time>2020-06-23T15:19:33.000Z</time>
        <extensions>
          <ns3:TrackPointExtension>
            <ns3:atemp>24.0</ns3:atemp>
            <ns3:hr>91</ns3:hr>
          </ns3:TrackPointExtension>
        </extensions>
      </trkpt>
      <trkpt lat="47.75957440026104450225830078125" lon="12.2640317492187023162841796875">
        <ele>1345.199951171875</ele>
        <time>2020-06-23T15:19:34.000Z</time>
        <extensions>
          <ns3:TrackPointExtension>
            <ns3:atemp>24.0</ns3:atemp>
            <ns3:hr>91</ns3:hr>
          </ns3:TrackPointExtension>
        </extensions>
      </trkpt>
      <trkpt lat="47.75957859121263027191162109375" lon="12.26388833485543727874755859375">
        <ele>1345</ele>
        <time>2020-06-23T15:19:35.000Z</time>
        <extensions>
          <ns3:TrackPointExtension>
            <ns3:atemp>24.0</ns3:atemp>
            <ns3:hr>90</ns3:hr>
          </ns3:TrackPointExtension>
        </extensions>
      </trkpt>
      <trkpt lat="47.7596026472747325897216796875" lon="12.2635905258357524871826171875">
        <ele>1344.800048828125</ele>
        <time>2020-06-23T15:19:37.000Z</time>
        <extensions>
          <ns3:TrackPointExtension>
            <ns3:atemp>24.0</ns3:atemp>
            <ns3:hr>89</ns3:hr>
          </ns3:TrackPointExtension>
        </extensions>
      </trkpt>
      <trkpt lat="47.75962905026972293853759765625" lon="12.26327427662909030914306640625">
        <ele>1344.800048828125</ele>
        <time>2020-06-23T15:19:39.000Z</time>
        <extensions>
          <ns3:TrackPointExtension>
            <ns3:atemp>24.0</ns3:atemp>
            <ns3:hr>89</ns3:hr>
          </ns3:TrackPointExtension>
        </extensions>
      </trkpt>
      <trkpt lat="47.7596861310303211212158203125" lon="12.26300722919404506683349609375">
        <ele>1345.5999755859375</ele>
        <time>2020-06-23T15:19:41.000Z</time>
        <extensions>
          <ns3:TrackPointExtension>
            <ns3:atemp>24.0</ns3:atemp>
            <ns3:hr>90</ns3:hr>
          </ns3:TrackPointExtension>
        </extensions>
      </trkpt>
      <trkpt lat="47.7597424574196338653564453125" lon="12.26273582316935062408447265625">
        <ele>1346.800048828125</ele>
        <time>2020-06-23T15:19:43.000Z</time>
        <extensions>
          <ns3:TrackPointExtension>
            <ns3:atemp>24.0</ns3:atemp>
            <ns3:hr>90</ns3:hr>
          </ns3:TrackPointExtension>
        </extensions>
      </trkpt>
      <trkpt lat="47.75980196893215179443359375" lon="12.2624475695192813873291015625">
        <ele>1348.4000244140625</ele>
        <time>2020-06-23T15:19:45.000Z</time>
        <extensions>
          <ns3:TrackPointExtension>
            <ns3:atemp>24.0</ns3:atemp>
            <ns3:hr>90</ns3:hr>
          </ns3:TrackPointExtension>
        </extensions>
      </trkpt>
      <trkpt lat="47.7598376758396625518798828125" lon="12.2623141296207904815673828125">
        <ele>1349.4000244140625</ele>
        <time>2020-06-23T15:19:46.000Z</time>
        <extensions>
          <ns3:TrackPointExtension>
            <ns3:atemp>24.0</ns3:atemp>
            <ns3:hr>90</ns3:hr>
          </ns3:TrackPointExtension>
        </extensions>
      </trkpt>
      <trkpt lat="47.7598691917955875396728515625" lon="12.262184880673885345458984375">
        <ele>1350.800048828125</ele>
        <time>2020-06-23T15:19:47.000Z</time>
        <extensions>
          <ns3:TrackPointExtension>
            <ns3:atemp>24.0</ns3:atemp>
            <ns3:hr>90</ns3:hr>
          </ns3:TrackPointExtension>
        </extensions>
      </trkpt>
      <trkpt lat="47.7598940022289752960205078125" lon="12.26205286569893360137939453125">
        <ele>1352.4000244140625</ele>
        <time>2020-06-23T15:19:48.000Z</time>
        <extensions>
          <ns3:TrackPointExtension>
            <ns3:atemp>24.0</ns3:atemp>
            <ns3:hr>90</ns3:hr>
          </ns3:TrackPointExtension>
        </extensions>
      </trkpt>
      <trkpt lat="47.7599151246249675750732421875" lon="12.2619164921343326568603515625">
        <ele>1354.4000244140625</ele>
        <time>2020-06-23T15:19:49.000Z</time>
        <extensions>
          <ns3:TrackPointExtension>
            <ns3:atemp>24.0</ns3:atemp>
            <ns3:hr>90</ns3:hr>
          </ns3:TrackPointExtension>
        </extensions>
      </trkpt>
      <trkpt lat="47.75993800722062587738037109375" lon="12.261781208217144012451171875">
        <ele>1356.199951171875</ele>
        <time>2020-06-23T15:19:50.000Z</time>
        <extensions>
          <ns3:TrackPointExtension>
            <ns3:atemp>24.0</ns3:atemp>
            <ns3:hr>91</ns3:hr>
          </ns3:TrackPointExtension>
        </extensions>
      </trkpt>
      <trkpt lat="47.7599649131298065185546875" lon="12.2616472654044628143310546875">
        <ele>1358.199951171875</ele>
        <time>2020-06-23T15:19:51.000Z</time>
        <extensions>
          <ns3:TrackPointExtension>
            <ns3:atemp>24.0</ns3:atemp>
            <ns3:hr>91</ns3:hr>
          </ns3:TrackPointExtension>
        </extensions>
      </trkpt>
      <trkpt lat="47.759993411600589752197265625" lon="12.26151642389595508575439453125">
        <ele>1360.199951171875</ele>
        <time>2020-06-23T15:19:52.000Z</time>
        <extensions>
          <ns3:TrackPointExtension>
            <ns3:atemp>24.0</ns3:atemp>
            <ns3:hr>90</ns3:hr>
          </ns3:TrackPointExtension>
        </extensions>
      </trkpt>
      <trkpt lat="47.76001788675785064697265625" lon="12.26139195263385772705078125">
        <ele>1362.199951171875</ele>
        <time>2020-06-23T15:19:53.000Z</time>
        <extensions>
          <ns3:TrackPointExtension>
            <ns3:atemp>24.0</ns3:atemp>
            <ns3:hr>92</ns3:hr>
          </ns3:TrackPointExtension>
        </extensions>
      </trkpt>
      <trkpt lat="47.7600338123738765716552734375" lon="12.26126882247626781463623046875">
        <ele>1363.800048828125</ele>
        <time>2020-06-23T15:19:54.000Z</time>
        <extensions>
          <ns3:TrackPointExtension>
            <ns3:atemp>24.0</ns3:atemp>
            <ns3:hr>93</ns3:hr>
          </ns3:TrackPointExtension>
        </extensions>
      </trkpt>
      <trkpt lat="47.76004336774349212646484375" lon="12.26114518940448760986328125">
        <ele>1365.5999755859375</ele>
        <time>2020-06-23T15:19:55.000Z</time>
        <extensions>
          <ns3:TrackPointExtension>
            <ns3:atemp>24.0</ns3:atemp>
            <ns3:hr>94</ns3:hr>
          </ns3:TrackPointExtension>
        </extensions>
      </trkpt>
      <trkpt lat="47.7600512467324733734130859375" lon="12.26102574728429317474365234375">
        <ele>1367.5999755859375</ele>
        <time>2020-06-23T15:19:56.000Z</time>
        <extensions>
          <ns3:TrackPointExtension>
            <ns3:atemp>24.0</ns3:atemp>
            <ns3:hr>94</ns3:hr>
          </ns3:TrackPointExtension>
        </extensions>
      </trkpt>
      <trkpt lat="47.76006306521594524383544921875" lon="12.2609173692762851715087890625">
        <ele>1369.5999755859375</ele>
        <time>2020-06-23T15:19:57.000Z</time>
        <extensions>
          <ns3:TrackPointExtension>
            <ns3:atemp>24.0</ns3:atemp>
            <ns3:hr>95</ns3:hr>
          </ns3:TrackPointExtension>
        </extensions>
      </trkpt>
      <trkpt lat="47.76008066721260547637939453125" lon="12.2608130984008312225341796875">
        <ele>1371.4000244140625</ele>
        <time>2020-06-23T15:19:58.000Z</time>
        <extensions>
          <ns3:TrackPointExtension>
            <ns3:atemp>24.0</ns3:atemp>
            <ns3:hr>94</ns3:hr>
          </ns3:TrackPointExtension>
        </extensions>
      </trkpt>
      <trkpt lat="47.760101370513439178466796875" lon="12.26070270873606204986572265625">
        <ele>1373</ele>
        <time>2020-06-23T15:19:59.000Z</time>
        <extensions>
          <ns3:TrackPointExtension>
            <ns3:atemp>24.0</ns3:atemp>
            <ns3:hr>96</ns3:hr>
          </ns3:TrackPointExtension>
        </extensions>
      </trkpt>
      <trkpt lat="47.7601177990436553955078125" lon="12.2605827637016773223876953125">
        <ele>1374.800048828125</ele>
        <time>2020-06-23T15:20:00.000Z</time>
        <extensions>
          <ns3:TrackPointExtension>
            <ns3:atemp>24.0</ns3:atemp>
            <ns3:hr>95</ns3:hr>
          </ns3:TrackPointExtension>
        </extensions>
      </trkpt>
      <trkpt lat="47.76012626476585865020751953125" lon="12.2604597173631191253662109375">
        <ele>1376.5999755859375</ele>
        <time>2020-06-23T15:20:01.000Z</time>
        <extensions>
          <ns3:TrackPointExtension>
            <ns3:atemp>24.0</ns3:atemp>
            <ns3:hr>95</ns3:hr>
          </ns3:TrackPointExtension>
        </extensions>
      </trkpt>
      <trkpt lat="47.7601323835551738739013671875" lon="12.26034061051905155181884765625">
        <ele>1378</ele>
        <time>2020-06-23T15:20:02.000Z</time>
        <extensions>
          <ns3:TrackPointExtension>
            <ns3:atemp>24.0</ns3:atemp>
            <ns3:hr>92</ns3:hr>
          </ns3:TrackPointExtension>
        </extensions>
      </trkpt>
      <trkpt lat="47.76014571078121662139892578125" lon="12.2602236829698085784912109375">
        <ele>1379</ele>
        <time>2020-06-23T15:20:03.000Z</time>
        <extensions>
          <ns3:TrackPointExtension>
            <ns3:atemp>24.0</ns3:atemp>
            <ns3:hr>92</ns3:hr>
          </ns3:TrackPointExtension>
        </extensions>
      </trkpt>
      <trkpt lat="47.760167419910430908203125" lon="12.2601106949150562286376953125">
        <ele>1380.4000244140625</ele>
        <time>2020-06-23T15:20:04.000Z</time>
        <extensions>
          <ns3:TrackPointExtension>
            <ns3:atemp>24.0</ns3:atemp>
            <ns3:hr>90</ns3:hr>
          </ns3:TrackPointExtension>
        </extensions>
      </trkpt>
      <trkpt lat="47.760188542306423187255859375" lon="12.26000382564961910247802734375">
        <ele>1381.800048828125</ele>
        <time>2020-06-23T15:20:05.000Z</time>
        <extensions>
          <ns3:TrackPointExtension>
            <ns3:atemp>24.0</ns3:atemp>
            <ns3:hr>89</ns3:hr>
          </ns3:TrackPointExtension>
        </extensions>
      </trkpt>
      <trkpt lat="47.76020203717052936553955078125" lon="12.2599021531641483306884765625">
        <ele>1383.199951171875</ele>
        <time>2020-06-23T15:20:06.000Z</time>
        <extensions>
          <ns3:TrackPointExtension>
            <ns3:atemp>24.0</ns3:atemp>
            <ns3:hr>86</ns3:hr>
          </ns3:TrackPointExtension>
        </extensions>
      </trkpt>
      <trkpt lat="47.76020832359790802001953125" lon="12.25980299524962902069091796875">
        <ele>1384.800048828125</ele>
        <time>2020-06-23T15:20:07.000Z</time>
        <extensions>
          <ns3:TrackPointExtension>
            <ns3:atemp>24.0</ns3:atemp>
            <ns3:hr>86</ns3:hr>
          </ns3:TrackPointExtension>
        </extensions>
      </trkpt>
      <trkpt lat="47.7602131851017475128173828125" lon="12.259703837335109710693359375">
        <ele>1386</ele>
        <time>2020-06-23T15:20:08.000Z</time>
        <extensions>
          <ns3:TrackPointExtension>
            <ns3:atemp>24.0</ns3:atemp>
            <ns3:hr>86</ns3:hr>
          </ns3:TrackPointExtension>
        </extensions>
      </trkpt>
      <trkpt lat="47.7602277696132659912109375" lon="12.25960887037217617034912109375">
        <ele>1386.5999755859375</ele>
        <time>2020-06-23T15:20:09.000Z</time>
        <extensions>
          <ns3:TrackPointExtension>
            <ns3:atemp>24.0</ns3:atemp>
            <ns3:hr>86</ns3:hr>
          </ns3:TrackPointExtension>
        </extensions>
      </trkpt>
      <trkpt lat="47.76025752536952495574951171875" lon="12.25952220149338245391845703125">
        <ele>1386.800048828125</ele>
        <time>2020-06-23T15:20:10.000Z</time>
        <extensions>
          <ns3:TrackPointExtension>
            <ns3:atemp>24.0</ns3:atemp>
            <ns3:hr>86</ns3:hr>
          </ns3:TrackPointExtension>
        </extensions>
      </trkpt>
      <trkpt lat="47.7602986805140972137451171875" lon="12.2594461776316165924072265625">
        <ele>1387</ele>
        <time>2020-06-23T15:20:11.000Z</time>
        <extensions>
          <ns3:TrackPointExtension>
            <ns3:atemp>24.0</ns3:atemp>
            <ns3:hr>86</ns3:hr>
          </ns3:TrackPointExtension>
        </extensions>
      </trkpt>
      <trkpt lat="47.76040102355182170867919921875" lon="12.259327657520771026611328125">
        <ele>1386.5999755859375</ele>
        <time>2020-06-23T15:20:13.000Z</time>
        <extensions>
          <ns3:TrackPointExtension>
            <ns3:atemp>24.0</ns3:atemp>
            <ns3:hr>86</ns3:hr>
          </ns3:TrackPointExtension>
        </extensions>
      </trkpt>
      <trkpt lat="47.760556004941463470458984375" lon="12.259187512099742889404296875">
        <ele>1386.199951171875</ele>
        <time>2020-06-23T15:20:16.000Z</time>
        <extensions>
          <ns3:TrackPointExtension>
            <ns3:atemp>24.0</ns3:atemp>
            <ns3:hr>89</ns3:hr>
          </ns3:TrackPointExtension>
        </extensions>
      </trkpt>
      <trkpt lat="47.7606520615518093109130859375" lon="12.25909866392612457275390625">
        <ele>1386</ele>
        <time>2020-06-23T15:20:18.000Z</time>
        <extensions>
          <ns3:TrackPointExtension>
            <ns3:atemp>24.0</ns3:atemp>
            <ns3:hr>86</ns3:hr>
          </ns3:TrackPointExtension>
        </extensions>
      </trkpt>
      <trkpt lat="47.76070411317050457000732421875" lon="12.2590394876897335052490234375">
        <ele>1385.4000244140625</ele>
        <time>2020-06-23T15:20:19.000Z</time>
        <extensions>
          <ns3:TrackPointExtension>
            <ns3:atemp>24.0</ns3:atemp>
            <ns3:hr>86</ns3:hr>
          </ns3:TrackPointExtension>
        </extensions>
      </trkpt>
      <trkpt lat="47.76075390167534351348876953125" lon="12.2589734382927417755126953125">
        <ele>1384.199951171875</ele>
        <time>2020-06-23T15:20:20.000Z</time>
        <extensions>
          <ns3:TrackPointExtension>
            <ns3:atemp>24.0</ns3:atemp>
            <ns3:hr>85</ns3:hr>
          </ns3:TrackPointExtension>
        </extensions>
      </trkpt>
      <trkpt lat="47.76079279370605945587158203125" lon="12.25890688598155975341796875">
        <ele>1382.5999755859375</ele>
        <time>2020-06-23T15:20:21.000Z</time>
        <extensions>
          <ns3:TrackPointExtension>
            <ns3:atemp>24.0</ns3:atemp>
            <ns3:hr>86</ns3:hr>
          </ns3:TrackPointExtension>
        </extensions>
      </trkpt>
      <trkpt lat="47.76082263328135013580322265625" lon="12.258838824927806854248046875">
        <ele>1380.800048828125</ele>
        <time>2020-06-23T15:20:22.000Z</time>
        <extensions>
          <ns3:TrackPointExtension>
            <ns3:atemp>24.0</ns3:atemp>
            <ns3:hr>83</ns3:hr>
          </ns3:TrackPointExtension>
        </extensions>
      </trkpt>
      <trkpt lat="47.76085481978952884674072265625" lon="12.25875928066670894622802734375">
        <ele>1378.800048828125</ele>
        <time>2020-06-23T15:20:23.000Z</time>
        <extensions>
          <ns3:TrackPointExtension>
            <ns3:atemp>24.0</ns3:atemp>
            <ns3:hr>84</ns3:hr>
          </ns3:TrackPointExtension>
        </extensions>
      </trkpt>
      <trkpt lat="47.76089471764862537384033203125" lon="12.2586619667708873748779296875">
        <ele>1376.199951171875</ele>
        <time>2020-06-23T15:20:24.000Z</time>
        <extensions>
          <ns3:TrackPointExtension>
            <ns3:atemp>24.0</ns3:atemp>
            <ns3:hr>84</ns3:hr>
          </ns3:TrackPointExtension>
        </extensions>
      </trkpt>
      <trkpt lat="47.76093780063092708587646484375" lon="12.2585526667535305023193359375">
        <ele>1373.5999755859375</ele>
        <time>2020-06-23T15:20:25.000Z</time>
        <extensions>
          <ns3:TrackPointExtension>
            <ns3:atemp>24.0</ns3:atemp>
            <ns3:hr>85</ns3:hr>
          </ns3:TrackPointExtension>
        </extensions>
      </trkpt>
      <trkpt lat="47.76097350753843784332275390625" lon="12.25844562985002994537353515625">
        <ele>1371</ele>
        <time>2020-06-23T15:20:26.000Z</time>
        <extensions>
          <ns3:TrackPointExtension>
            <ns3:atemp>24.0</ns3:atemp>
            <ns3:hr>86</ns3:hr>
          </ns3:TrackPointExtension>
        </extensions>
      </trkpt>
      <trkpt lat="47.76099555194377899169921875" lon="12.258346639573574066162109375">
        <ele>1368.5999755859375</ele>
        <time>2020-06-23T15:20:27.000Z</time>
        <extensions>
          <ns3:TrackPointExtension>
            <ns3:atemp>24.0</ns3:atemp>
            <ns3:hr>86</ns3:hr>
          </ns3:TrackPointExtension>
        </extensions>
      </trkpt>
      <trkpt lat="47.76100770570337772369384765625" lon="12.25824731402099132537841796875">
        <ele>1366.800048828125</ele>
        <time>2020-06-23T15:20:28.000Z</time>
        <extensions>
          <ns3:TrackPointExtension>
            <ns3:atemp>24.0</ns3:atemp>
            <ns3:hr>87</ns3:hr>
          </ns3:TrackPointExtension>
        </extensions>
      </trkpt>
      <trkpt lat="47.761020027101039886474609375" lon="12.25814002566039562225341796875">
        <ele>1365.199951171875</ele>
        <time>2020-06-23T15:20:29.000Z</time>
        <extensions>
          <ns3:TrackPointExtension>
            <ns3:atemp>24.0</ns3:atemp>
            <ns3:hr>87</ns3:hr>
          </ns3:TrackPointExtension>
        </extensions>
      </trkpt>
      <trkpt lat="47.76103938929736614227294921875" lon="12.2580249421298503875732421875">
        <ele>1363.800048828125</ele>
        <time>2020-06-23T15:20:30.000Z</time>
        <extensions>
          <ns3:TrackPointExtension>
            <ns3:atemp>24.0</ns3:atemp>
            <ns3:hr>87</ns3:hr>
          </ns3:TrackPointExtension>
        </extensions>
      </trkpt>
      <trkpt lat="47.76106235571205615997314453125" lon="12.25791153497993946075439453125">
        <ele>1362.199951171875</ele>
        <time>2020-06-23T15:20:31.000Z</time>
        <extensions>
          <ns3:TrackPointExtension>
            <ns3:atemp>24.0</ns3:atemp>
            <ns3:hr>88</ns3:hr>
          </ns3:TrackPointExtension>
        </extensions>
      </trkpt>
      <trkpt lat="47.76108146645128726959228515625" lon="12.25780449807643890380859375">
        <ele>1360.5999755859375</ele>
        <time>2020-06-23T15:20:32.000Z</time>
        <extensions>
          <ns3:TrackPointExtension>
            <ns3:atemp>24.0</ns3:atemp>
            <ns3:hr>88</ns3:hr>
          </ns3:TrackPointExtension>
        </extensions>
      </trkpt>
      <trkpt lat="47.7610949613153934478759765625" lon="12.2576993890106678009033203125">
        <ele>1359.4000244140625</ele>
        <time>2020-06-23T15:20:33.000Z</time>
        <extensions>
          <ns3:TrackPointExtension>
            <ns3:atemp>24.0</ns3:atemp>
            <ns3:hr>88</ns3:hr>
          </ns3:TrackPointExtension>
        </extensions>
      </trkpt>
      <trkpt lat="47.76111356914043426513671875" lon="12.2574640251696109771728515625">
        <ele>1357.5999755859375</ele>
        <time>2020-06-23T15:20:35.000Z</time>
        <extensions>
          <ns3:TrackPointExtension>
            <ns3:atemp>24.0</ns3:atemp>
            <ns3:hr>86</ns3:hr>
          </ns3:TrackPointExtension>
        </extensions>
      </trkpt>
      <trkpt lat="47.76112270541489124298095703125" lon="12.25733754225075244903564453125">
        <ele>1356.4000244140625</ele>
        <time>2020-06-23T15:20:36.000Z</time>
        <extensions>
          <ns3:TrackPointExtension>
            <ns3:atemp>24.0</ns3:atemp>
            <ns3:hr>86</ns3:hr>
          </ns3:TrackPointExtension>
        </extensions>
      </trkpt>
      <trkpt lat="47.7611335180699825286865234375" lon="12.25721172988414764404296875">
        <ele>1354.5999755859375</ele>
        <time>2020-06-23T15:20:37.000Z</time>
        <extensions>
          <ns3:TrackPointExtension>
            <ns3:atemp>24.0</ns3:atemp>
            <ns3:hr>89</ns3:hr>
          </ns3:TrackPointExtension>
        </extensions>
      </trkpt>
      <trkpt lat="47.761149108409881591796875" lon="12.25708407349884510040283203125">
        <ele>1352.800048828125</ele>
        <time>2020-06-23T15:20:38.000Z</time>
        <extensions>
          <ns3:TrackPointExtension>
            <ns3:atemp>24.0</ns3:atemp>
            <ns3:hr>91</ns3:hr>
          </ns3:TrackPointExtension>
        </extensions>
      </trkpt>
      <trkpt lat="47.761170901358127593994140625" lon="12.25695381872355937957763671875">
        <ele>1351.4000244140625</ele>
        <time>2020-06-23T15:20:39.000Z</time>
        <extensions>
          <ns3:TrackPointExtension>
            <ns3:atemp>24.0</ns3:atemp>
            <ns3:hr>92</ns3:hr>
          </ns3:TrackPointExtension>
        </extensions>
      </trkpt>
      <trkpt lat="47.76120048947632312774658203125" lon="12.2568263299763202667236328125">
        <ele>1350.4000244140625</ele>
        <time>2020-06-23T15:20:40.000Z</time>
        <extensions>
          <ns3:TrackPointExtension>
            <ns3:atemp>24.0</ns3:atemp>
            <ns3:hr>92</ns3:hr>
          </ns3:TrackPointExtension>
        </extensions>
      </trkpt>
      <trkpt lat="47.7612847276031970977783203125" lon="12.25663279183208942413330078125">
        <ele>1349.199951171875</ele>
        <time>2020-06-23T15:20:42.000Z</time>
        <extensions>
          <ns3:TrackPointExtension>
            <ns3:atemp>24.0</ns3:atemp>
            <ns3:hr>92</ns3:hr>
          </ns3:TrackPointExtension>
        </extensions>
      </trkpt>
      <trkpt lat="47.76137550361454486846923828125" lon="12.2565118409693241119384765625">
        <ele>1347.5999755859375</ele>
        <time>2020-06-23T15:20:44.000Z</time>
        <extensions>
          <ns3:TrackPointExtension>
            <ns3:atemp>24.0</ns3:atemp>
            <ns3:hr>92</ns3:hr>
          </ns3:TrackPointExtension>
        </extensions>
      </trkpt>
      <trkpt lat="47.7614235319197177886962890625" lon="12.2564444504678249359130859375">
        <ele>1346.199951171875</ele>
        <time>2020-06-23T15:20:45.000Z</time>
        <extensions>
          <ns3:TrackPointExtension>
            <ns3:atemp>24.0</ns3:atemp>
            <ns3:hr>92</ns3:hr>
          </ns3:TrackPointExtension>
        </extensions>
      </trkpt>
      <trkpt lat="47.761477343738079071044921875" lon="12.2563690133392810821533203125">
        <ele>1345</ele>
        <time>2020-06-23T15:20:46.000Z</time>
        <extensions>
          <ns3:TrackPointExtension>
            <ns3:atemp>24.0</ns3:atemp>
            <ns3:hr>92</ns3:hr>
          </ns3:TrackPointExtension>
        </extensions>
      </trkpt>
      <trkpt lat="47.7615318261086940765380859375" lon="12.2562972642481327056884765625">
        <ele>1343.800048828125</ele>
        <time>2020-06-23T15:20:47.000Z</time>
        <extensions>
          <ns3:TrackPointExtension>
            <ns3:atemp>24.0</ns3:atemp>
            <ns3:hr>92</ns3:hr>
          </ns3:TrackPointExtension>
        </extensions>
      </trkpt>
      <trkpt lat="47.761579938232898712158203125" lon="12.25622727535665035247802734375">
        <ele>1342.5999755859375</ele>
        <time>2020-06-23T15:20:48.000Z</time>
        <extensions>
          <ns3:TrackPointExtension>
            <ns3:atemp>24.0</ns3:atemp>
            <ns3:hr>91</ns3:hr>
          </ns3:TrackPointExtension>
        </extensions>
      </trkpt>
      <trkpt lat="47.76161916553974151611328125" lon="12.25614949129521846771240234375">
        <ele>1341.5999755859375</ele>
        <time>2020-06-23T15:20:49.000Z</time>
        <extensions>
          <ns3:TrackPointExtension>
            <ns3:atemp>24.0</ns3:atemp>
            <ns3:hr>92</ns3:hr>
          </ns3:TrackPointExtension>
        </extensions>
      </trkpt>
      <trkpt lat="47.76165529154241085052490234375" lon="12.25606030784547328948974609375">
        <ele>1340.800048828125</ele>
        <time>2020-06-23T15:20:50.000Z</time>
        <extensions>
          <ns3:TrackPointExtension>
            <ns3:atemp>24.0</ns3:atemp>
            <ns3:hr>92</ns3:hr>
          </ns3:TrackPointExtension>
        </extensions>
      </trkpt>
      <trkpt lat="47.7617259509861469268798828125" lon="12.255876995623111724853515625">
        <ele>1340.4000244140625</ele>
        <time>2020-06-23T15:20:52.000Z</time>
        <extensions>
          <ns3:TrackPointExtension>
            <ns3:atemp>24.0</ns3:atemp>
            <ns3:hr>92</ns3:hr>
          </ns3:TrackPointExtension>
        </extensions>
      </trkpt>
      <trkpt lat="47.76175050996243953704833984375" lon="12.25580281578004360198974609375">
        <ele>1340.4000244140625</ele>
        <time>2020-06-23T15:20:53.000Z</time>
        <extensions>
          <ns3:TrackPointExtension>
            <ns3:atemp>24.0</ns3:atemp>
            <ns3:hr>89</ns3:hr>
          </ns3:TrackPointExtension>
        </extensions>
      </trkpt>
      <trkpt lat="47.7617715485394001007080078125" lon="12.2557303123176097869873046875">
        <ele>1340.5999755859375</ele>
        <time>2020-06-23T15:20:54.000Z</time>
        <extensions>
          <ns3:TrackPointExtension>
            <ns3:atemp>24.0</ns3:atemp>
            <ns3:hr>90</ns3:hr>
          </ns3:TrackPointExtension>
        </extensions>
      </trkpt>
      <trkpt lat="47.7618761546909809112548828125" lon="12.2554513625800609588623046875">
        <ele>1341.5999755859375</ele>
        <time>2020-06-23T15:20:57.000Z</time>
        <extensions>
          <ns3:TrackPointExtension>
            <ns3:atemp>24.0</ns3:atemp>
            <ns3:hr>91</ns3:hr>
          </ns3:TrackPointExtension>
        </extensions>
      </trkpt>
      <trkpt lat="47.76204085908830165863037109375" lon="12.25500552915036678314208984375">
        <ele>1342.800048828125</ele>
        <time>2020-06-23T15:21:02.000Z</time>
        <extensions>
          <ns3:TrackPointExtension>
            <ns3:atemp>24.0</ns3:atemp>
            <ns3:hr>90</ns3:hr>
          </ns3:TrackPointExtension>
        </extensions>
      </trkpt>
      <trkpt lat="47.76219693012535572052001953125" lon="12.25451384671032428741455078125">
        <ele>1343</ele>
        <time>2020-06-23T15:21:07.000Z</time>
        <extensions>
          <ns3:TrackPointExtension>
            <ns3:atemp>24.0</ns3:atemp>
            <ns3:hr>94</ns3:hr>
          </ns3:TrackPointExtension>
        </extensions>
      </trkpt>
      <trkpt lat="47.76222878135740756988525390625" lon="12.25441443733870983123779296875">
        <ele>1342.5999755859375</ele>
        <time>2020-06-23T15:21:08.000Z</time>
        <extensions>
          <ns3:TrackPointExtension>
            <ns3:atemp>24.0</ns3:atemp>
            <ns3:hr>99</ns3:hr>
          </ns3:TrackPointExtension>
        </extensions>
      </trkpt>
      <trkpt lat="47.7622858621180057525634765625" lon="12.2542088292539119720458984375">
        <ele>1341.4000244140625</ele>
        <time>2020-06-23T15:21:10.000Z</time>
        <extensions>
          <ns3:TrackPointExtension>
            <ns3:atemp>24.0</ns3:atemp>
            <ns3:hr>100</ns3:hr>
          </ns3:TrackPointExtension>
        </extensions>
      </trkpt>
      <trkpt lat="47.76232500560581684112548828125" lon="12.2539996169507503509521484375">
        <ele>1339.199951171875</ele>
        <time>2020-06-23T15:21:12.000Z</time>
        <extensions>
          <ns3:TrackPointExtension>
            <ns3:atemp>24.0</ns3:atemp>
            <ns3:hr>99</ns3:hr>
          </ns3:TrackPointExtension>
        </extensions>
      </trkpt>
      <trkpt lat="47.762346379458904266357421875" lon="12.2538886405527591705322265625">
        <ele>1338.199951171875</ele>
        <time>2020-06-23T15:21:13.000Z</time>
        <extensions>
          <ns3:TrackPointExtension>
            <ns3:atemp>24.0</ns3:atemp>
            <ns3:hr>99</ns3:hr>
          </ns3:TrackPointExtension>
        </extensions>
      </trkpt>
      <trkpt lat="47.7623693458735942840576171875" lon="12.25377087481319904327392578125">
        <ele>1337</ele>
        <time>2020-06-23T15:21:14.000Z</time>
        <extensions>
          <ns3:TrackPointExtension>
            <ns3:atemp>24.0</ns3:atemp>
            <ns3:hr>97</ns3:hr>
          </ns3:TrackPointExtension>
        </extensions>
      </trkpt>
      <trkpt lat="47.76239004917442798614501953125" lon="12.25364414043724536895751953125">
        <ele>1335.5999755859375</ele>
        <time>2020-06-23T15:21:15.000Z</time>
        <extensions>
          <ns3:TrackPointExtension>
            <ns3:atemp>24.0</ns3:atemp>
            <ns3:hr>96</ns3:hr>
          </ns3:TrackPointExtension>
        </extensions>
      </trkpt>
      <trkpt lat="47.762405388057231903076171875" lon="12.253515310585498809814453125">
        <ele>1334</ele>
        <time>2020-06-23T15:21:16.000Z</time>
        <extensions>
          <ns3:TrackPointExtension>
            <ns3:atemp>24.0</ns3:atemp>
            <ns3:hr>95</ns3:hr>
          </ns3:TrackPointExtension>
        </extensions>
      </trkpt>
      <trkpt lat="47.7624193020164966583251953125" lon="12.25339218042790889739990234375">
        <ele>1332.4000244140625</ele>
        <time>2020-06-23T15:21:17.000Z</time>
        <extensions>
          <ns3:TrackPointExtension>
            <ns3:atemp>24.0</ns3:atemp>
            <ns3:hr>95</ns3:hr>
          </ns3:TrackPointExtension>
        </extensions>
      </trkpt>
      <trkpt lat="47.7624367363750934600830078125" lon="12.25327466614544391632080078125">
        <ele>1331</ele>
        <time>2020-06-23T15:21:18.000Z</time>
        <extensions>
          <ns3:TrackPointExtension>
            <ns3:atemp>24.0</ns3:atemp>
            <ns3:hr>94</ns3:hr>
          </ns3:TrackPointExtension>
        </extensions>
      </trkpt>
      <trkpt lat="47.7624612115323543548583984375" lon="12.2531654499471187591552734375">
        <ele>1329.199951171875</ele>
        <time>2020-06-23T15:21:19.000Z</time>
        <extensions>
          <ns3:TrackPointExtension>
            <ns3:atemp>24.0</ns3:atemp>
            <ns3:hr>94</ns3:hr>
          </ns3:TrackPointExtension>
        </extensions>
      </trkpt>
      <trkpt lat="47.7624957449734210968017578125" lon="12.25306528620421886444091796875">
        <ele>1327.5999755859375</ele>
        <time>2020-06-23T15:21:20.000Z</time>
        <extensions>
          <ns3:TrackPointExtension>
            <ns3:atemp>24.0</ns3:atemp>
            <ns3:hr>95</ns3:hr>
          </ns3:TrackPointExtension>
        </extensions>
      </trkpt>
      <trkpt lat="47.7625393308699131011962890625" lon="12.252974845468997955322265625">
        <ele>1325.800048828125</ele>
        <time>2020-06-23T15:21:21.000Z</time>
        <extensions>
          <ns3:TrackPointExtension>
            <ns3:atemp>24.0</ns3:atemp>
            <ns3:hr>95</ns3:hr>
          </ns3:TrackPointExtension>
        </extensions>
      </trkpt>
      <trkpt lat="47.76258920319378376007080078125" lon="12.2528978995978832244873046875">
        <ele>1323.5999755859375</ele>
        <time>2020-06-23T15:21:22.000Z</time>
        <extensions>
          <ns3:TrackPointExtension>
            <ns3:atemp>24.0</ns3:atemp>
            <ns3:hr>95</ns3:hr>
          </ns3:TrackPointExtension>
        </extensions>
      </trkpt>
      <trkpt lat="47.762643434107303619384765625" lon="12.25283394567668437957763671875">
        <ele>1321.5999755859375</ele>
        <time>2020-06-23T15:21:23.000Z</time>
        <extensions>
          <ns3:TrackPointExtension>
            <ns3:atemp>24.0</ns3:atemp>
            <ns3:hr>95</ns3:hr>
          </ns3:TrackPointExtension>
        </extensions>
      </trkpt>
      <trkpt lat="47.762697748839855194091796875" lon="12.25277937948703765869140625">
        <ele>1319.800048828125</ele>
        <time>2020-06-23T15:21:24.000Z</time>
        <extensions>
          <ns3:TrackPointExtension>
            <ns3:atemp>24.0</ns3:atemp>
            <ns3:hr>96</ns3:hr>
          </ns3:TrackPointExtension>
        </extensions>
      </trkpt>
      <trkpt lat="47.76274728588759899139404296875" lon="12.25272498093545436859130859375">
        <ele>1318.5999755859375</ele>
        <time>2020-06-23T15:21:25.000Z</time>
        <extensions>
          <ns3:TrackPointExtension>
            <ns3:atemp>24.0</ns3:atemp>
            <ns3:hr>96</ns3:hr>
          </ns3:TrackPointExtension>
        </extensions>
      </trkpt>
      <trkpt lat="47.76279053650796413421630859375" lon="12.25266446359455585479736328125">
        <ele>1317.4000244140625</ele>
        <time>2020-06-23T15:21:26.000Z</time>
        <extensions>
          <ns3:TrackPointExtension>
            <ns3:atemp>24.0</ns3:atemp>
            <ns3:hr>96</ns3:hr>
          </ns3:TrackPointExtension>
        </extensions>
      </trkpt>
      <trkpt lat="47.7628310211002826690673828125" lon="12.25259623490273952484130859375">
        <ele>1316.199951171875</ele>
        <time>2020-06-23T15:21:27.000Z</time>
        <extensions>
          <ns3:TrackPointExtension>
            <ns3:atemp>24.0</ns3:atemp>
            <ns3:hr>95</ns3:hr>
          </ns3:TrackPointExtension>
        </extensions>
      </trkpt>
      <trkpt lat="47.7628715895116329193115234375" lon="12.25252029486000537872314453125">
        <ele>1314.5999755859375</ele>
        <time>2020-06-23T15:21:28.000Z</time>
        <extensions>
          <ns3:TrackPointExtension>
            <ns3:atemp>24.0</ns3:atemp>
            <ns3:hr>94</ns3:hr>
          </ns3:TrackPointExtension>
        </extensions>
      </trkpt>
      <trkpt lat="47.7629128284752368927001953125" lon="12.25243848748505115509033203125">
        <ele>1313.199951171875</ele>
        <time>2020-06-23T15:21:29.000Z</time>
        <extensions>
          <ns3:TrackPointExtension>
            <ns3:atemp>24.0</ns3:atemp>
            <ns3:hr>95</ns3:hr>
          </ns3:TrackPointExtension>
        </extensions>
      </trkpt>
      <trkpt lat="47.7629502117633819580078125" lon="12.25235114805400371551513671875">
        <ele>1311.800048828125</ele>
        <time>2020-06-23T15:21:30.000Z</time>
        <extensions>
          <ns3:TrackPointExtension>
            <ns3:atemp>24.0</ns3:atemp>
            <ns3:hr>95</ns3:hr>
          </ns3:TrackPointExtension>
        </extensions>
      </trkpt>
      <trkpt lat="47.76298164390027523040771484375" lon="12.2522618807852268218994140625">
        <ele>1310.199951171875</ele>
        <time>2020-06-23T15:21:31.000Z</time>
        <extensions>
          <ns3:TrackPointExtension>
            <ns3:atemp>24.0</ns3:atemp>
            <ns3:hr>97</ns3:hr>
          </ns3:TrackPointExtension>
        </extensions>
      </trkpt>
      <trkpt lat="47.76301031000912189483642578125" lon="12.252173535525798797607421875">
        <ele>1308.4000244140625</ele>
        <time>2020-06-23T15:21:32.000Z</time>
        <extensions>
          <ns3:TrackPointExtension>
            <ns3:atemp>24.0</ns3:atemp>
            <ns3:hr>96</ns3:hr>
          </ns3:TrackPointExtension>
        </extensions>
      </trkpt>
      <trkpt lat="47.76304082013666629791259765625" lon="12.25208192132413387298583984375">
        <ele>1306.199951171875</ele>
        <time>2020-06-23T15:21:33.000Z</time>
        <extensions>
          <ns3:TrackPointExtension>
            <ns3:atemp>24.0</ns3:atemp>
            <ns3:hr>95</ns3:hr>
          </ns3:TrackPointExtension>
        </extensions>
      </trkpt>
      <trkpt lat="47.76307317428290843963623046875" lon="12.25198033265769481658935546875">
        <ele>1303.4000244140625</ele>
        <time>2020-06-23T15:21:34.000Z</time>
        <extensions>
          <ns3:TrackPointExtension>
            <ns3:atemp>24.0</ns3:atemp>
            <ns3:hr>95</ns3:hr>
          </ns3:TrackPointExtension>
        </extensions>
      </trkpt>
      <trkpt lat="47.763106785714626312255859375" lon="12.25187136791646480560302734375">
        <ele>1300.199951171875</ele>
        <time>2020-06-23T15:21:35.000Z</time>
        <extensions>
          <ns3:TrackPointExtension>
            <ns3:atemp>24.0</ns3:atemp>
            <ns3:hr>95</ns3:hr>
          </ns3:TrackPointExtension>
        </extensions>
      </trkpt>
      <trkpt lat="47.7631418220698833465576171875" lon="12.251767180860042572021484375">
        <ele>1297</ele>
        <time>2020-06-23T15:21:36.000Z</time>
        <extensions>
          <ns3:TrackPointExtension>
            <ns3:atemp>23.0</ns3:atemp>
            <ns3:hr>95</ns3:hr>
          </ns3:TrackPointExtension>
        </extensions>
      </trkpt>
      <trkpt lat="47.76317962445318698883056640625" lon="12.25167506374418735504150390625">
        <ele>1294</ele>
        <time>2020-06-23T15:21:37.000Z</time>
        <extensions>
          <ns3:TrackPointExtension>
            <ns3:atemp>23.0</ns3:atemp>
            <ns3:hr>94</ns3:hr>
          </ns3:TrackPointExtension>
        </extensions>
      </trkpt>
      <trkpt lat="47.76322153396904468536376953125" lon="12.25159292109310626983642578125">
        <ele>1291.199951171875</ele>
        <time>2020-06-23T15:21:38.000Z</time>
        <extensions>
          <ns3:TrackPointExtension>
            <ns3:atemp>23.0</ns3:atemp>
            <ns3:hr>94</ns3:hr>
          </ns3:TrackPointExtension>
        </extensions>
      </trkpt>
      <trkpt lat="47.763266377151012420654296875" lon="12.251509688794612884521484375">
        <ele>1288.4000244140625</ele>
        <time>2020-06-23T15:21:39.000Z</time>
        <extensions>
          <ns3:TrackPointExtension>
            <ns3:atemp>23.0</ns3:atemp>
            <ns3:hr>94</ns3:hr>
          </ns3:TrackPointExtension>
        </extensions>
      </trkpt>
      <trkpt lat="47.76331105269491672515869140625" lon="12.2514213435351848602294921875">
        <ele>1286</ele>
        <time>2020-06-23T15:21:40.000Z</time>
        <extensions>
          <ns3:TrackPointExtension>
            <ns3:atemp>23.0</ns3:atemp>
            <ns3:hr>95</ns3:hr>
          </ns3:TrackPointExtension>
        </extensions>
      </trkpt>
      <trkpt lat="47.7633550576865673065185546875" lon="12.25133366882801055908203125">
        <ele>1283.800048828125</ele>
        <time>2020-06-23T15:21:41.000Z</time>
        <extensions>
          <ns3:TrackPointExtension>
            <ns3:atemp>23.0</ns3:atemp>
            <ns3:hr>95</ns3:hr>
          </ns3:TrackPointExtension>
        </extensions>
      </trkpt>
      <trkpt lat="47.76339654810726642608642578125" lon="12.25125563330948352813720703125">
        <ele>1282</ele>
        <time>2020-06-23T15:21:42.000Z</time>
        <extensions>
          <ns3:TrackPointExtension>
            <ns3:atemp>23.0</ns3:atemp>
            <ns3:hr>95</ns3:hr>
          </ns3:TrackPointExtension>
        </extensions>
      </trkpt>
      <trkpt lat="47.76343342848122119903564453125" lon="12.251184470951557159423828125">
        <ele>1280.5999755859375</ele>
        <time>2020-06-23T15:21:43.000Z</time>
        <extensions>
          <ns3:TrackPointExtension>
            <ns3:atemp>23.0</ns3:atemp>
            <ns3:hr>94</ns3:hr>
          </ns3:TrackPointExtension>
        </extensions>
      </trkpt>
      <trkpt lat="47.76346595026552677154541015625" lon="12.25111146457493305206298828125">
        <ele>1279.199951171875</ele>
        <time>2020-06-23T15:21:44.000Z</time>
        <extensions>
          <ns3:TrackPointExtension>
            <ns3:atemp>23.0</ns3:atemp>
            <ns3:hr>94</ns3:hr>
          </ns3:TrackPointExtension>
        </extensions>
      </trkpt>
      <trkpt lat="47.7634982205927371978759765625" lon="12.25102630443871021270751953125">
        <ele>1277.4000244140625</ele>
        <time>2020-06-23T15:21:45.000Z</time>
        <extensions>
          <ns3:TrackPointExtension>
            <ns3:atemp>23.0</ns3:atemp>
            <ns3:hr>94</ns3:hr>
          </ns3:TrackPointExtension>
        </extensions>
      </trkpt>
      <trkpt lat="47.76353518478572368621826171875" lon="12.25092999637126922607421875">
        <ele>1275.4000244140625</ele>
        <time>2020-06-23T15:21:46.000Z</time>
        <extensions>
          <ns3:TrackPointExtension>
            <ns3:atemp>23.0</ns3:atemp>
            <ns3:hr>94</ns3:hr>
          </ns3:TrackPointExtension>
        </extensions>
      </trkpt>
      <trkpt lat="47.763575501739978790283203125" lon="12.25083854980766773223876953125">
        <ele>1273.199951171875</ele>
        <time>2020-06-23T15:21:47.000Z</time>
        <extensions>
          <ns3:TrackPointExtension>
            <ns3:atemp>23.0</ns3:atemp>
            <ns3:hr>95</ns3:hr>
          </ns3:TrackPointExtension>
        </extensions>
      </trkpt>
      <trkpt lat="47.7636118791997432708740234375" lon="12.250761352479457855224609375">
        <ele>1271.4000244140625</ele>
        <time>2020-06-23T15:21:48.000Z</time>
        <extensions>
          <ns3:TrackPointExtension>
            <ns3:atemp>23.0</ns3:atemp>
            <ns3:hr>94</ns3:hr>
          </ns3:TrackPointExtension>
        </extensions>
      </trkpt>
      <trkpt lat="47.763640545308589935302734375" lon="12.25069555453956127166748046875">
        <ele>1270</ele>
        <time>2020-06-23T15:21:49.000Z</time>
        <extensions>
          <ns3:TrackPointExtension>
            <ns3:atemp>23.0</ns3:atemp>
            <ns3:hr>95</ns3:hr>
          </ns3:TrackPointExtension>
        </extensions>
      </trkpt>
      <trkpt lat="47.76369796134531497955322265625" lon="12.250550799071788787841796875">
        <ele>1268.4000244140625</ele>
        <time>2020-06-23T15:21:51.000Z</time>
        <extensions>
          <ns3:TrackPointExtension>
            <ns3:atemp>23.0</ns3:atemp>
            <ns3:hr>96</ns3:hr>
          </ns3:TrackPointExtension>
        </extensions>
      </trkpt>
      <trkpt lat="47.7637349255383014678955078125" lon="12.25046052597463130950927734375">
        <ele>1267.4000244140625</ele>
        <time>2020-06-23T15:21:52.000Z</time>
        <extensions>
          <ns3:TrackPointExtension>
            <ns3:atemp>23.0</ns3:atemp>
            <ns3:hr>94</ns3:hr>
          </ns3:TrackPointExtension>
        </extensions>
      </trkpt>
      <trkpt lat="47.76377390138804912567138671875" lon="12.25037603639066219329833984375">
        <ele>1265.800048828125</ele>
        <time>2020-06-23T15:21:53.000Z</time>
        <extensions>
          <ns3:TrackPointExtension>
            <ns3:atemp>23.0</ns3:atemp>
            <ns3:hr>94</ns3:hr>
          </ns3:TrackPointExtension>
        </extensions>
      </trkpt>
      <trkpt lat="47.76380860246717929840087890625" lon="12.25029976107180118560791015625">
        <ele>1263.800048828125</ele>
        <time>2020-06-23T15:21:54.000Z</time>
        <extensions>
          <ns3:TrackPointExtension>
            <ns3:atemp>23.0</ns3:atemp>
            <ns3:hr>93</ns3:hr>
          </ns3:TrackPointExtension>
        </extensions>
      </trkpt>
      <trkpt lat="47.76383659802377223968505859375" lon="12.25022499449551105499267578125">
        <ele>1262</ele>
        <time>2020-06-23T15:21:55.000Z</time>
        <extensions>
          <ns3:TrackPointExtension>
            <ns3:atemp>23.0</ns3:atemp>
            <ns3:hr>93</ns3:hr>
          </ns3:TrackPointExtension>
        </extensions>
      </trkpt>
      <trkpt lat="47.7638621628284454345703125" lon="12.25014737807214260101318359375">
        <ele>1260.199951171875</ele>
        <time>2020-06-23T15:21:56.000Z</time>
        <extensions>
          <ns3:TrackPointExtension>
            <ns3:atemp>23.0</ns3:atemp>
            <ns3:hr>92</ns3:hr>
          </ns3:TrackPointExtension>
        </extensions>
      </trkpt>
      <trkpt lat="47.763892672955989837646484375" lon="12.2500634752213954925537109375">
        <ele>1258.199951171875</ele>
        <time>2020-06-23T15:21:57.000Z</time>
        <extensions>
          <ns3:TrackPointExtension>
            <ns3:atemp>23.0</ns3:atemp>
            <ns3:hr>92</ns3:hr>
          </ns3:TrackPointExtension>
        </extensions>
      </trkpt>
      <trkpt lat="47.76392879895865917205810546875" lon="12.2499744594097137451171875">
        <ele>1256.199951171875</ele>
        <time>2020-06-23T15:21:58.000Z</time>
        <extensions>
          <ns3:TrackPointExtension>
            <ns3:atemp>23.0</ns3:atemp>
            <ns3:hr>93</ns3:hr>
          </ns3:TrackPointExtension>
        </extensions>
      </trkpt>
      <trkpt lat="47.7639635838568210601806640625" lon="12.24988468922674655914306640625">
        <ele>1253.800048828125</ele>
        <time>2020-06-23T15:21:59.000Z</time>
        <extensions>
          <ns3:TrackPointExtension>
            <ns3:atemp>23.0</ns3:atemp>
            <ns3:hr>90</ns3:hr>
          </ns3:TrackPointExtension>
        </extensions>
      </trkpt>
      <trkpt lat="47.76399233378469944000244140625" lon="12.2497972659766674041748046875">
        <ele>1251.4000244140625</ele>
        <time>2020-06-23T15:22:00.000Z</time>
        <extensions>
          <ns3:TrackPointExtension>
            <ns3:atemp>23.0</ns3:atemp>
            <ns3:hr>90</ns3:hr>
          </ns3:TrackPointExtension>
        </extensions>
      </trkpt>
      <trkpt lat="47.7640155516564846038818359375" lon="12.2497117705643177032470703125">
        <ele>1249.199951171875</ele>
        <time>2020-06-23T15:22:01.000Z</time>
        <extensions>
          <ns3:TrackPointExtension>
            <ns3:atemp>23.0</ns3:atemp>
            <ns3:hr>90</ns3:hr>
          </ns3:TrackPointExtension>
        </extensions>
      </trkpt>
      <trkpt lat="47.76403910480439662933349609375" lon="12.2496296279132366180419921875">
        <ele>1247.199951171875</ele>
        <time>2020-06-23T15:22:02.000Z</time>
        <extensions>
          <ns3:TrackPointExtension>
            <ns3:atemp>23.0</ns3:atemp>
            <ns3:hr>88</ns3:hr>
          </ns3:TrackPointExtension>
        </extensions>
      </trkpt>
      <trkpt lat="47.764067016541957855224609375" lon="12.24954840727150440216064453125">
        <ele>1245.199951171875</ele>
        <time>2020-06-23T15:22:03.000Z</time>
        <extensions>
          <ns3:TrackPointExtension>
            <ns3:atemp>23.0</ns3:atemp>
            <ns3:hr>90</ns3:hr>
          </ns3:TrackPointExtension>
        </extensions>
      </trkpt>
      <trkpt lat="47.76409727521240711212158203125" lon="12.2494663484394550323486328125">
        <ele>1242.800048828125</ele>
        <time>2020-06-23T15:22:04.000Z</time>
        <extensions>
          <ns3:TrackPointExtension>
            <ns3:atemp>23.0</ns3:atemp>
            <ns3:hr>90</ns3:hr>
          </ns3:TrackPointExtension>
        </extensions>
      </trkpt>
      <trkpt lat="47.76412627659738063812255859375" lon="12.2493791766464710235595703125">
        <ele>1240</ele>
        <time>2020-06-23T15:22:05.000Z</time>
        <extensions>
          <ns3:TrackPointExtension>
            <ns3:atemp>23.0</ns3:atemp>
            <ns3:hr>90</ns3:hr>
          </ns3:TrackPointExtension>
        </extensions>
      </trkpt>
      <trkpt lat="47.76415385305881500244140625" lon="12.2492859698832035064697265625">
        <ele>1236.800048828125</ele>
        <time>2020-06-23T15:22:06.000Z</time>
        <extensions>
          <ns3:TrackPointExtension>
            <ns3:atemp>23.0</ns3:atemp>
            <ns3:hr>88</ns3:hr>
          </ns3:TrackPointExtension>
        </extensions>
      </trkpt>
      <trkpt lat="47.76418277062475681304931640625" lon="12.2491870634257793426513671875">
        <ele>1233.199951171875</ele>
        <time>2020-06-23T15:22:07.000Z</time>
        <extensions>
          <ns3:TrackPointExtension>
            <ns3:atemp>23.0</ns3:atemp>
            <ns3:hr>88</ns3:hr>
          </ns3:TrackPointExtension>
        </extensions>
      </trkpt>
      <trkpt lat="47.76421294547617435455322265625" lon="12.24908773787319660186767578125">
        <ele>1230</ele>
        <time>2020-06-23T15:22:08.000Z</time>
        <extensions>
          <ns3:TrackPointExtension>
            <ns3:atemp>23.0</ns3:atemp>
            <ns3:hr>88</ns3:hr>
          </ns3:TrackPointExtension>
        </extensions>
      </trkpt>
      <trkpt lat="47.764242701232433319091796875" lon="12.24899285472929477691650390625">
        <ele>1227</ele>
        <time>2020-06-23T15:22:09.000Z</time>
        <extensions>
          <ns3:TrackPointExtension>
            <ns3:atemp>23.0</ns3:atemp>
            <ns3:hr>88</ns3:hr>
          </ns3:TrackPointExtension>
        </extensions>
      </trkpt>
      <trkpt lat="47.76427228935062885284423828125" lon="12.248903922736644744873046875">
        <ele>1224</ele>
        <time>2020-06-23T15:22:10.000Z</time>
        <extensions>
          <ns3:TrackPointExtension>
            <ns3:atemp>23.0</ns3:atemp>
            <ns3:hr>91</ns3:hr>
          </ns3:TrackPointExtension>
        </extensions>
      </trkpt>
      <trkpt lat="47.764303386211395263671875" lon="12.2488142363727092742919921875">
        <ele>1221</ele>
        <time>2020-06-23T15:22:11.000Z</time>
        <extensions>
          <ns3:TrackPointExtension>
            <ns3:atemp>23.0</ns3:atemp>
            <ns3:hr>88</ns3:hr>
          </ns3:TrackPointExtension>
        </extensions>
      </trkpt>
      <trkpt lat="47.76433733291923999786376953125" lon="12.248719520866870880126953125">
        <ele>1218</ele>
        <time>2020-06-23T15:22:12.000Z</time>
        <extensions>
          <ns3:TrackPointExtension>
            <ns3:atemp>23.0</ns3:atemp>
            <ns3:hr>86</ns3:hr>
          </ns3:TrackPointExtension>
        </extensions>
      </trkpt>
      <trkpt lat="47.7643742971122264862060546875" lon="12.24862069822847843170166015625">
        <ele>1215.199951171875</ele>
        <time>2020-06-23T15:22:13.000Z</time>
        <extensions>
          <ns3:TrackPointExtension>
            <ns3:atemp>23.0</ns3:atemp>
            <ns3:hr>84</ns3:hr>
          </ns3:TrackPointExtension>
        </extensions>
      </trkpt>
      <trkpt lat="47.76441411115229129791259765625" lon="12.24852497689425945281982421875">
        <ele>1212.4000244140625</ele>
        <time>2020-06-23T15:22:14.000Z</time>
        <extensions>
          <ns3:TrackPointExtension>
            <ns3:atemp>23.0</ns3:atemp>
            <ns3:hr>82</ns3:hr>
          </ns3:TrackPointExtension>
        </extensions>
      </trkpt>
      <trkpt lat="47.76445484720170497894287109375" lon="12.24844015203416347503662109375">
        <ele>1209.800048828125</ele>
        <time>2020-06-23T15:22:15.000Z</time>
        <extensions>
          <ns3:TrackPointExtension>
            <ns3:atemp>23.0</ns3:atemp>
            <ns3:hr>82</ns3:hr>
          </ns3:TrackPointExtension>
        </extensions>
      </trkpt>
      <trkpt lat="47.7644946612417697906494140625" lon="12.24836471490561962127685546875">
        <ele>1207.199951171875</ele>
        <time>2020-06-23T15:22:16.000Z</time>
        <extensions>
          <ns3:TrackPointExtension>
            <ns3:atemp>23.0</ns3:atemp>
            <ns3:hr>81</ns3:hr>
          </ns3:TrackPointExtension>
        </extensions>
      </trkpt>
      <trkpt lat="47.7645328827202320098876953125" lon="12.24828936159610748291015625">
        <ele>1205</ele>
        <time>2020-06-23T15:22:17.000Z</time>
        <extensions>
          <ns3:TrackPointExtension>
            <ns3:atemp>23.0</ns3:atemp>
            <ns3:hr>82</ns3:hr>
          </ns3:TrackPointExtension>
        </extensions>
      </trkpt>
      <trkpt lat="47.76457085274159908294677734375" lon="12.24820579402148723602294921875">
        <ele>1202.800048828125</ele>
        <time>2020-06-23T15:22:18.000Z</time>
        <extensions>
          <ns3:TrackPointExtension>
            <ns3:atemp>23.0</ns3:atemp>
            <ns3:hr>83</ns3:hr>
          </ns3:TrackPointExtension>
        </extensions>
      </trkpt>
      <trkpt lat="47.76461008004844188690185546875" lon="12.2481125034391880035400390625">
        <ele>1200.800048828125</ele>
        <time>2020-06-23T15:22:19.000Z</time>
        <extensions>
          <ns3:TrackPointExtension>
            <ns3:atemp>23.0</ns3:atemp>
            <ns3:hr>84</ns3:hr>
          </ns3:TrackPointExtension>
        </extensions>
      </trkpt>
      <trkpt lat="47.76465115137398242950439453125" lon="12.2480182908475399017333984375">
        <ele>1198.5999755859375</ele>
        <time>2020-06-23T15:22:20.000Z</time>
        <extensions>
          <ns3:TrackPointExtension>
            <ns3:atemp>23.0</ns3:atemp>
            <ns3:hr>83</ns3:hr>
          </ns3:TrackPointExtension>
        </extensions>
      </trkpt>
      <trkpt lat="47.76469322852790355682373046875" lon="12.24793271161615848541259765625">
        <ele>1196.199951171875</ele>
        <time>2020-06-23T15:22:21.000Z</time>
        <extensions>
          <ns3:TrackPointExtension>
            <ns3:atemp>23.0</ns3:atemp>
            <ns3:hr>83</ns3:hr>
          </ns3:TrackPointExtension>
        </extensions>
      </trkpt>
      <trkpt lat="47.76473455131053924560546875" lon="12.24785693921148777008056640625">
        <ele>1193.800048828125</ele>
        <time>2020-06-23T15:22:22.000Z</time>
        <extensions>
          <ns3:TrackPointExtension>
            <ns3:atemp>23.0</ns3:atemp>
            <ns3:hr>81</ns3:hr>
          </ns3:TrackPointExtension>
        </extensions>
      </trkpt>
      <trkpt lat="47.76477612555027008056640625" lon="12.24778703413903713226318359375">
        <ele>1191.5999755859375</ele>
        <time>2020-06-23T15:22:23.000Z</time>
        <extensions>
          <ns3:TrackPointExtension>
            <ns3:atemp>23.0</ns3:atemp>
            <ns3:hr>84</ns3:hr>
          </ns3:TrackPointExtension>
        </extensions>
      </trkpt>
      <trkpt lat="47.76481996290385723114013671875" lon="12.24771461449563503265380859375">
        <ele>1189.5999755859375</ele>
        <time>2020-06-23T15:22:24.000Z</time>
        <extensions>
          <ns3:TrackPointExtension>
            <ns3:atemp>23.0</ns3:atemp>
            <ns3:hr>82</ns3:hr>
          </ns3:TrackPointExtension>
        </extensions>
      </trkpt>
      <trkpt lat="47.76486421935260295867919921875" lon="12.24763867445290088653564453125">
        <ele>1188</ele>
        <time>2020-06-23T15:22:25.000Z</time>
        <extensions>
          <ns3:TrackPointExtension>
            <ns3:atemp>23.0</ns3:atemp>
            <ns3:hr>81</ns3:hr>
          </ns3:TrackPointExtension>
        </extensions>
      </trkpt>
      <trkpt lat="47.76490612886846065521240234375" lon="12.24756181240081787109375">
        <ele>1186.199951171875</ele>
        <time>2020-06-23T15:22:26.000Z</time>
        <extensions>
          <ns3:TrackPointExtension>
            <ns3:atemp>23.0</ns3:atemp>
            <ns3:hr>80</ns3:hr>
          </ns3:TrackPointExtension>
        </extensions>
      </trkpt>
      <trkpt lat="47.7649449370801448822021484375" lon="12.2474841959774494171142578125">
        <ele>1184.199951171875</ele>
        <time>2020-06-23T15:22:27.000Z</time>
        <extensions>
          <ns3:TrackPointExtension>
            <ns3:atemp>23.0</ns3:atemp>
            <ns3:hr>80</ns3:hr>
          </ns3:TrackPointExtension>
        </extensions>
      </trkpt>
      <trkpt lat="47.76498190127313137054443359375" lon="12.24739911966025829315185546875">
        <ele>1182.4000244140625</ele>
        <time>2020-06-23T15:22:28.000Z</time>
        <extensions>
          <ns3:TrackPointExtension>
            <ns3:atemp>23.0</ns3:atemp>
            <ns3:hr>79</ns3:hr>
          </ns3:TrackPointExtension>
        </extensions>
      </trkpt>
      <trkpt lat="47.76501911692321300506591796875" lon="12.24729903973639011383056640625">
        <ele>1180.5999755859375</ele>
        <time>2020-06-23T15:22:29.000Z</time>
        <extensions>
          <ns3:TrackPointExtension>
            <ns3:atemp>23.0</ns3:atemp>
            <ns3:hr>79</ns3:hr>
          </ns3:TrackPointExtension>
        </extensions>
      </trkpt>
      <trkpt lat="47.7650552429258823394775390625" lon="12.24718554876744747161865234375">
        <ele>1178.800048828125</ele>
        <time>2020-06-23T15:22:30.000Z</time>
        <extensions>
          <ns3:TrackPointExtension>
            <ns3:atemp>23.0</ns3:atemp>
            <ns3:hr>78</ns3:hr>
          </ns3:TrackPointExtension>
        </extensions>
      </trkpt>
      <trkpt lat="47.76509128510951995849609375" lon="12.24707054905593395233154296875">
        <ele>1176.800048828125</ele>
        <time>2020-06-23T15:22:31.000Z</time>
        <extensions>
          <ns3:TrackPointExtension>
            <ns3:atemp>23.0</ns3:atemp>
            <ns3:hr>81</ns3:hr>
          </ns3:TrackPointExtension>
        </extensions>
      </trkpt>
      <trkpt lat="47.7651281654834747314453125" lon="12.2469650208950042724609375">
        <ele>1174.800048828125</ele>
        <time>2020-06-23T15:22:32.000Z</time>
        <extensions>
          <ns3:TrackPointExtension>
            <ns3:atemp>24.0</ns3:atemp>
            <ns3:hr>80</ns3:hr>
          </ns3:TrackPointExtension>
        </extensions>
      </trkpt>
      <trkpt lat="47.7651662193238735198974609375" lon="12.24686938337981700897216796875">
        <ele>1173.199951171875</ele>
        <time>2020-06-23T15:22:33.000Z</time>
        <extensions>
          <ns3:TrackPointExtension>
            <ns3:atemp>24.0</ns3:atemp>
            <ns3:hr>81</ns3:hr>
          </ns3:TrackPointExtension>
        </extensions>
      </trkpt>
      <trkpt lat="47.76520469225943088531494140625" lon="12.246777601540088653564453125">
        <ele>1171.800048828125</ele>
        <time>2020-06-23T15:22:34.000Z</time>
        <extensions>
          <ns3:TrackPointExtension>
            <ns3:atemp>24.0</ns3:atemp>
            <ns3:hr>81</ns3:hr>
          </ns3:TrackPointExtension>
        </extensions>
      </trkpt>
      <trkpt lat="47.76524207554757595062255859375" lon="12.24668682552874088287353515625">
        <ele>1170.800048828125</ele>
        <time>2020-06-23T15:22:35.000Z</time>
        <extensions>
          <ns3:TrackPointExtension>
            <ns3:atemp>24.0</ns3:atemp>
            <ns3:hr>82</ns3:hr>
          </ns3:TrackPointExtension>
        </extensions>
      </trkpt>
      <trkpt lat="47.76531516574323177337646484375" lon="12.24651415832340717315673828125">
        <ele>1169</ele>
        <time>2020-06-23T15:22:37.000Z</time>
        <extensions>
          <ns3:TrackPointExtension>
            <ns3:atemp>24.0</ns3:atemp>
            <ns3:hr>81</ns3:hr>
          </ns3:TrackPointExtension>
        </extensions>
      </trkpt>
      <trkpt lat="47.7653506211936473846435546875" lon="12.24643788300454616546630859375">
        <ele>1168</ele>
        <time>2020-06-23T15:22:38.000Z</time>
        <extensions>
          <ns3:TrackPointExtension>
            <ns3:atemp>24.0</ns3:atemp>
            <ns3:hr>81</ns3:hr>
          </ns3:TrackPointExtension>
        </extensions>
      </trkpt>
      <trkpt lat="47.76538372971117496490478515625" lon="12.24636496044695377349853515625">
        <ele>1166.800048828125</ele>
        <time>2020-06-23T15:22:39.000Z</time>
        <extensions>
          <ns3:TrackPointExtension>
            <ns3:atemp>24.0</ns3:atemp>
            <ns3:hr>81</ns3:hr>
          </ns3:TrackPointExtension>
        </extensions>
      </trkpt>
      <trkpt lat="47.76541390456259250640869140625" lon="12.246287763118743896484375">
        <ele>1165.4000244140625</ele>
        <time>2020-06-23T15:22:40.000Z</time>
        <extensions>
          <ns3:TrackPointExtension>
            <ns3:atemp>24.0</ns3:atemp>
            <ns3:hr>81</ns3:hr>
          </ns3:TrackPointExtension>
        </extensions>
      </trkpt>
      <trkpt lat="47.7654455043375492095947265625" lon="12.24620017223060131072998046875">
        <ele>1164</ele>
        <time>2020-06-23T15:22:41.000Z</time>
        <extensions>
          <ns3:TrackPointExtension>
            <ns3:atemp>24.0</ns3:atemp>
            <ns3:hr>81</ns3:hr>
          </ns3:TrackPointExtension>
        </extensions>
      </trkpt>
      <trkpt lat="47.7654820494353771209716796875" lon="12.2461035288870334625244140625">
        <ele>1162</ele>
        <time>2020-06-23T15:22:42.000Z</time>
        <extensions>
          <ns3:TrackPointExtension>
            <ns3:atemp>24.0</ns3:atemp>
            <ns3:hr>82</ns3:hr>
          </ns3:TrackPointExtension>
        </extensions>
      </trkpt>
      <trkpt lat="47.765522114932537078857421875" lon="12.24600722081959247589111328125">
        <ele>1159.800048828125</ele>
        <time>2020-06-23T15:22:43.000Z</time>
        <extensions>
          <ns3:TrackPointExtension>
            <ns3:atemp>24.0</ns3:atemp>
            <ns3:hr>81</ns3:hr>
          </ns3:TrackPointExtension>
        </extensions>
      </trkpt>
      <trkpt lat="47.7655625157058238983154296875" lon="12.245915941894054412841796875">
        <ele>1157.5999755859375</ele>
        <time>2020-06-23T15:22:44.000Z</time>
        <extensions>
          <ns3:TrackPointExtension>
            <ns3:atemp>24.0</ns3:atemp>
            <ns3:hr>83</ns3:hr>
          </ns3:TrackPointExtension>
        </extensions>
      </trkpt>
      <trkpt lat="47.76560266502201557159423828125" lon="12.24582801572978496551513671875">
        <ele>1155.800048828125</ele>
        <time>2020-06-23T15:22:45.000Z</time>
        <extensions>
          <ns3:TrackPointExtension>
            <ns3:atemp>24.0</ns3:atemp>
            <ns3:hr>83</ns3:hr>
          </ns3:TrackPointExtension>
        </extensions>
      </trkpt>
      <trkpt lat="47.765642814338207244873046875" lon="12.2457394190132617950439453125">
        <ele>1154.5999755859375</ele>
        <time>2020-06-23T15:22:46.000Z</time>
        <extensions>
          <ns3:TrackPointExtension>
            <ns3:atemp>24.0</ns3:atemp>
            <ns3:hr>81</ns3:hr>
          </ns3:TrackPointExtension>
        </extensions>
      </trkpt>
      <trkpt lat="47.76568447239696979522705078125" lon="12.24564470350742340087890625">
        <ele>1153.4000244140625</ele>
        <time>2020-06-23T15:22:47.000Z</time>
        <extensions>
          <ns3:TrackPointExtension>
            <ns3:atemp>24.0</ns3:atemp>
            <ns3:hr>80</ns3:hr>
          </ns3:TrackPointExtension>
        </extensions>
      </trkpt>
      <trkpt lat="47.765729315578937530517578125" lon="12.24554051645100116729736328125">
        <ele>1152.4000244140625</ele>
        <time>2020-06-23T15:22:48.000Z</time>
        <extensions>
          <ns3:TrackPointExtension>
            <ns3:atemp>24.0</ns3:atemp>
            <ns3:hr>77</ns3:hr>
          </ns3:TrackPointExtension>
        </extensions>
      </trkpt>
      <trkpt lat="47.7658176608383655548095703125" lon="12.2453248500823974609375">
        <ele>1151</ele>
        <time>2020-06-23T15:22:50.000Z</time>
        <extensions>
          <ns3:TrackPointExtension>
            <ns3:atemp>24.0</ns3:atemp>
            <ns3:hr>76</ns3:hr>
          </ns3:TrackPointExtension>
        </extensions>
      </trkpt>
      <trkpt lat="47.7658577263355255126953125" lon="12.24523038603365421295166015625">
        <ele>1150.5999755859375</ele>
        <time>2020-06-23T15:22:51.000Z</time>
        <extensions>
          <ns3:TrackPointExtension>
            <ns3:atemp>24.0</ns3:atemp>
            <ns3:hr>76</ns3:hr>
          </ns3:TrackPointExtension>
        </extensions>
      </trkpt>
      <trkpt lat="47.76589737273752689361572265625" lon="12.24514841102063655853271484375">
        <ele>1150.199951171875</ele>
        <time>2020-06-23T15:22:52.000Z</time>
        <extensions>
          <ns3:TrackPointExtension>
            <ns3:atemp>24.0</ns3:atemp>
            <ns3:hr>76</ns3:hr>
          </ns3:TrackPointExtension>
        </extensions>
      </trkpt>
      <trkpt lat="47.7659408748149871826171875" lon="12.24507951177656650543212890625">
        <ele>1149.800048828125</ele>
        <time>2020-06-23T15:22:53.000Z</time>
        <extensions>
          <ns3:TrackPointExtension>
            <ns3:atemp>24.0</ns3:atemp>
            <ns3:hr>80</ns3:hr>
          </ns3:TrackPointExtension>
        </extensions>
      </trkpt>
      <trkpt lat="47.7659896574914455413818359375" lon="12.24501731805503368377685546875">
        <ele>1149.4000244140625</ele>
        <time>2020-06-23T15:22:54.000Z</time>
        <extensions>
          <ns3:TrackPointExtension>
            <ns3:atemp>24.0</ns3:atemp>
            <ns3:hr>80</ns3:hr>
          </ns3:TrackPointExtension>
        </extensions>
      </trkpt>
      <trkpt lat="47.76604154147207736968994140625" lon="12.2449555434286594390869140625">
        <ele>1148.5999755859375</ele>
        <time>2020-06-23T15:22:55.000Z</time>
        <extensions>
          <ns3:TrackPointExtension>
            <ns3:atemp>24.0</ns3:atemp>
            <ns3:hr>82</ns3:hr>
          </ns3:TrackPointExtension>
        </extensions>
      </trkpt>
      <trkpt lat="47.76614413596689701080322265625" lon="12.2448328323662281036376953125">
        <ele>1146.5999755859375</ele>
        <time>2020-06-23T15:22:57.000Z</time>
        <extensions>
          <ns3:TrackPointExtension>
            <ns3:atemp>24.0</ns3:atemp>
            <ns3:hr>84</ns3:hr>
          </ns3:TrackPointExtension>
        </extensions>
      </trkpt>
      <trkpt lat="47.7661935053765773773193359375" lon="12.244784720242023468017578125">
        <ele>1145.5999755859375</ele>
        <time>2020-06-23T15:22:58.000Z</time>
        <extensions>
          <ns3:TrackPointExtension>
            <ns3:atemp>24.0</ns3:atemp>
            <ns3:hr>84</ns3:hr>
          </ns3:TrackPointExtension>
        </extensions>
      </trkpt>
      <trkpt lat="47.766240276396274566650390625" lon="12.2447470016777515411376953125">
        <ele>1144.5999755859375</ele>
        <time>2020-06-23T15:22:59.000Z</time>
        <extensions>
          <ns3:TrackPointExtension>
            <ns3:atemp>24.0</ns3:atemp>
            <ns3:hr>84</ns3:hr>
          </ns3:TrackPointExtension>
        </extensions>
      </trkpt>
      <trkpt lat="47.76628352701663970947265625" lon="12.2447097860276699066162109375">
        <ele>1143.4000244140625</ele>
        <time>2020-06-23T15:23:00.000Z</time>
        <extensions>
          <ns3:TrackPointExtension>
            <ns3:atemp>24.0</ns3:atemp>
            <ns3:hr>84</ns3:hr>
          </ns3:TrackPointExtension>
        </extensions>
      </trkpt>
      <trkpt lat="47.76632451452314853668212890625" lon="12.24466460756957530975341796875">
        <ele>1142.199951171875</ele>
        <time>2020-06-23T15:23:01.000Z</time>
        <extensions>
          <ns3:TrackPointExtension>
            <ns3:atemp>24.0</ns3:atemp>
            <ns3:hr>84</ns3:hr>
          </ns3:TrackPointExtension>
        </extensions>
      </trkpt>
      <trkpt lat="47.76636709459125995635986328125" lon="12.244615741074085235595703125">
        <ele>1141.199951171875</ele>
        <time>2020-06-23T15:23:02.000Z</time>
        <extensions>
          <ns3:TrackPointExtension>
            <ns3:atemp>24.0</ns3:atemp>
            <ns3:hr>83</ns3:hr>
          </ns3:TrackPointExtension>
        </extensions>
      </trkpt>
      <trkpt lat="47.766414619982242584228515625" lon="12.2445686347782611846923828125">
        <ele>1140</ele>
        <time>2020-06-23T15:23:03.000Z</time>
        <extensions>
          <ns3:TrackPointExtension>
            <ns3:atemp>24.0</ns3:atemp>
            <ns3:hr>83</ns3:hr>
          </ns3:TrackPointExtension>
        </extensions>
      </trkpt>
      <trkpt lat="47.76646533049643039703369140625" lon="12.2445220313966274261474609375">
        <ele>1138.800048828125</ele>
        <time>2020-06-23T15:23:04.000Z</time>
        <extensions>
          <ns3:TrackPointExtension>
            <ns3:atemp>24.0</ns3:atemp>
            <ns3:hr>84</ns3:hr>
          </ns3:TrackPointExtension>
        </extensions>
      </trkpt>
      <trkpt lat="47.76651495136320590972900390625" lon="12.2444707341492176055908203125">
        <ele>1137.4000244140625</ele>
        <time>2020-06-23T15:23:05.000Z</time>
        <extensions>
          <ns3:TrackPointExtension>
            <ns3:atemp>24.0</ns3:atemp>
            <ns3:hr>87</ns3:hr>
          </ns3:TrackPointExtension>
        </extensions>
      </trkpt>
      <trkpt lat="47.76655954308807849884033203125" lon="12.2444088757038116455078125">
        <ele>1136</ele>
        <time>2020-06-23T15:23:06.000Z</time>
        <extensions>
          <ns3:TrackPointExtension>
            <ns3:atemp>24.0</ns3:atemp>
            <ns3:hr>84</ns3:hr>
          </ns3:TrackPointExtension>
        </extensions>
      </trkpt>
      <trkpt lat="47.766601033508777618408203125" lon="12.2443393059074878692626953125">
        <ele>1134.4000244140625</ele>
        <time>2020-06-23T15:23:07.000Z</time>
        <extensions>
          <ns3:TrackPointExtension>
            <ns3:atemp>24.0</ns3:atemp>
            <ns3:hr>84</ns3:hr>
          </ns3:TrackPointExtension>
        </extensions>
      </trkpt>
      <trkpt lat="47.7666407637298107147216796875" lon="12.24426646716892719268798828125">
        <ele>1132.5999755859375</ele>
        <time>2020-06-23T15:23:08.000Z</time>
        <extensions>
          <ns3:TrackPointExtension>
            <ns3:atemp>24.0</ns3:atemp>
            <ns3:hr>84</ns3:hr>
          </ns3:TrackPointExtension>
        </extensions>
      </trkpt>
      <trkpt lat="47.7666809968650341033935546875" lon="12.24419505335390567779541015625">
        <ele>1130.800048828125</ele>
        <time>2020-06-23T15:23:09.000Z</time>
        <extensions>
          <ns3:TrackPointExtension>
            <ns3:atemp>24.0</ns3:atemp>
            <ns3:hr>85</ns3:hr>
          </ns3:TrackPointExtension>
        </extensions>
      </trkpt>
      <trkpt lat="47.76672340929508209228515625" lon="12.2441260702908039093017578125">
        <ele>1128.800048828125</ele>
        <time>2020-06-23T15:23:10.000Z</time>
        <extensions>
          <ns3:TrackPointExtension>
            <ns3:atemp>24.0</ns3:atemp>
            <ns3:hr>86</ns3:hr>
          </ns3:TrackPointExtension>
        </extensions>
      </trkpt>
      <trkpt lat="47.76676406152546405792236328125" lon="12.2440543211996555328369140625">
        <ele>1126.800048828125</ele>
        <time>2020-06-23T15:23:11.000Z</time>
        <extensions>
          <ns3:TrackPointExtension>
            <ns3:atemp>24.0</ns3:atemp>
            <ns3:hr>86</ns3:hr>
          </ns3:TrackPointExtension>
        </extensions>
      </trkpt>
      <trkpt lat="47.7668003551661968231201171875" lon="12.243974693119525909423828125">
        <ele>1124.800048828125</ele>
        <time>2020-06-23T15:23:12.000Z</time>
        <extensions>
          <ns3:TrackPointExtension>
            <ns3:atemp>24.0</ns3:atemp>
            <ns3:hr>86</ns3:hr>
          </ns3:TrackPointExtension>
        </extensions>
      </trkpt>
      <trkpt lat="47.7668312005698680877685546875" lon="12.24388877861201763153076171875">
        <ele>1122.5999755859375</ele>
        <time>2020-06-23T15:23:13.000Z</time>
        <extensions>
          <ns3:TrackPointExtension>
            <ns3:atemp>24.0</ns3:atemp>
            <ns3:hr>86</ns3:hr>
          </ns3:TrackPointExtension>
        </extensions>
      </trkpt>
      <trkpt lat="47.76685944758355617523193359375" lon="12.24379858933389186859130859375">
        <ele>1120.800048828125</ele>
        <time>2020-06-23T15:23:14.000Z</time>
        <extensions>
          <ns3:TrackPointExtension>
            <ns3:atemp>24.0</ns3:atemp>
            <ns3:hr>86</ns3:hr>
          </ns3:TrackPointExtension>
        </extensions>
      </trkpt>
      <trkpt lat="47.76688979007303714752197265625" lon="12.243705131113529205322265625">
        <ele>1119.199951171875</ele>
        <time>2020-06-23T15:23:15.000Z</time>
        <extensions>
          <ns3:TrackPointExtension>
            <ns3:atemp>24.0</ns3:atemp>
            <ns3:hr>86</ns3:hr>
          </ns3:TrackPointExtension>
        </extensions>
      </trkpt>
      <trkpt lat="47.76692231185734272003173828125" lon="12.24360815249383449554443359375">
        <ele>1117.800048828125</ele>
        <time>2020-06-23T15:23:16.000Z</time>
        <extensions>
          <ns3:TrackPointExtension>
            <ns3:atemp>24.0</ns3:atemp>
            <ns3:hr>87</ns3:hr>
          </ns3:TrackPointExtension>
        </extensions>
      </trkpt>
      <trkpt lat="47.76695801876485347747802734375" lon="12.2435141913592815399169921875">
        <ele>1116.5999755859375</ele>
        <time>2020-06-23T15:23:17.000Z</time>
        <extensions>
          <ns3:TrackPointExtension>
            <ns3:atemp>24.0</ns3:atemp>
            <ns3:hr>87</ns3:hr>
          </ns3:TrackPointExtension>
        </extensions>
      </trkpt>
      <trkpt lat="47.76699540205299854278564453125" lon="12.24343213252723217010498046875">
        <ele>1115.5999755859375</ele>
        <time>2020-06-23T15:23:18.000Z</time>
        <extensions>
          <ns3:TrackPointExtension>
            <ns3:atemp>24.0</ns3:atemp>
            <ns3:hr>87</ns3:hr>
          </ns3:TrackPointExtension>
        </extensions>
      </trkpt>
      <trkpt lat="47.7670323662459850311279296875" lon="12.2433636523783206939697265625">
        <ele>1114.5999755859375</ele>
        <time>2020-06-23T15:23:19.000Z</time>
        <extensions>
          <ns3:TrackPointExtension>
            <ns3:atemp>24.0</ns3:atemp>
            <ns3:hr>87</ns3:hr>
          </ns3:TrackPointExtension>
        </extensions>
      </trkpt>
      <trkpt lat="47.76707016862928867340087890625" lon="12.2433022968471050262451171875">
        <ele>1113.800048828125</ele>
        <time>2020-06-23T15:23:20.000Z</time>
        <extensions>
          <ns3:TrackPointExtension>
            <ns3:atemp>24.0</ns3:atemp>
            <ns3:hr>88</ns3:hr>
          </ns3:TrackPointExtension>
        </extensions>
      </trkpt>
      <trkpt lat="47.767111994326114654541015625" lon="12.2432434558868408203125">
        <ele>1112.800048828125</ele>
        <time>2020-06-23T15:23:21.000Z</time>
        <extensions>
          <ns3:TrackPointExtension>
            <ns3:atemp>24.0</ns3:atemp>
            <ns3:hr>87</ns3:hr>
          </ns3:TrackPointExtension>
        </extensions>
      </trkpt>
      <trkpt lat="47.76716203428804874420166015625" lon="12.24319023080170154571533203125">
        <ele>1111.5999755859375</ele>
        <time>2020-06-23T15:23:22.000Z</time>
        <extensions>
          <ns3:TrackPointExtension>
            <ns3:atemp>24.0</ns3:atemp>
            <ns3:hr>87</ns3:hr>
          </ns3:TrackPointExtension>
        </extensions>
      </trkpt>
      <trkpt lat="47.7672197856009006500244140625" lon="12.243147231638431549072265625">
        <ele>1110.5999755859375</ele>
        <time>2020-06-23T15:23:23.000Z</time>
        <extensions>
          <ns3:TrackPointExtension>
            <ns3:atemp>24.0</ns3:atemp>
            <ns3:hr>87</ns3:hr>
          </ns3:TrackPointExtension>
        </extensions>
      </trkpt>
      <trkpt lat="47.7672787941992282867431640625" lon="12.2431155480444431304931640625">
        <ele>1109.199951171875</ele>
        <time>2020-06-23T15:23:24.000Z</time>
        <extensions>
          <ns3:TrackPointExtension>
            <ns3:atemp>24.0</ns3:atemp>
            <ns3:hr>87</ns3:hr>
          </ns3:TrackPointExtension>
        </extensions>
      </trkpt>
      <trkpt lat="47.76733101345598697662353515625" lon="12.24308813922107219696044921875">
        <ele>1108</ele>
        <time>2020-06-23T15:23:25.000Z</time>
        <extensions>
          <ns3:TrackPointExtension>
            <ns3:atemp>24.0</ns3:atemp>
            <ns3:hr>86</ns3:hr>
          </ns3:TrackPointExtension>
        </extensions>
      </trkpt>
      <trkpt lat="47.76737577281892299652099609375" lon="12.2430582158267498016357421875">
        <ele>1107</ele>
        <time>2020-06-23T15:23:26.000Z</time>
        <extensions>
          <ns3:TrackPointExtension>
            <ns3:atemp>24.0</ns3:atemp>
            <ns3:hr>86</ns3:hr>
          </ns3:TrackPointExtension>
        </extensions>
      </trkpt>
      <trkpt lat="47.76741835288703441619873046875" lon="12.2430226765573024749755859375">
        <ele>1105.800048828125</ele>
        <time>2020-06-23T15:23:27.000Z</time>
        <extensions>
          <ns3:TrackPointExtension>
            <ns3:atemp>24.0</ns3:atemp>
            <ns3:hr>86</ns3:hr>
          </ns3:TrackPointExtension>
        </extensions>
      </trkpt>
      <trkpt lat="47.767464704811573028564453125" lon="12.24298085086047649383544921875">
        <ele>1104.5999755859375</ele>
        <time>2020-06-23T15:23:28.000Z</time>
        <extensions>
          <ns3:TrackPointExtension>
            <ns3:atemp>24.0</ns3:atemp>
            <ns3:hr>86</ns3:hr>
          </ns3:TrackPointExtension>
        </extensions>
      </trkpt>
      <trkpt lat="47.7675148285925388336181640625" lon="12.2429287992417812347412109375">
        <ele>1103</ele>
        <time>2020-06-23T15:23:29.000Z</time>
        <extensions>
          <ns3:TrackPointExtension>
            <ns3:atemp>24.0</ns3:atemp>
            <ns3:hr>85</ns3:hr>
          </ns3:TrackPointExtension>
        </extensions>
      </trkpt>
      <trkpt lat="47.76756386272609233856201171875" lon="12.24286149255931377410888671875">
        <ele>1101.199951171875</ele>
        <time>2020-06-23T15:23:30.000Z</time>
        <extensions>
          <ns3:TrackPointExtension>
            <ns3:atemp>24.0</ns3:atemp>
            <ns3:hr>84</ns3:hr>
          </ns3:TrackPointExtension>
        </extensions>
      </trkpt>
      <trkpt lat="47.76760719716548919677734375" lon="12.24278102628886699676513671875">
        <ele>1099.199951171875</ele>
        <time>2020-06-23T15:23:31.000Z</time>
        <extensions>
          <ns3:TrackPointExtension>
            <ns3:atemp>24.0</ns3:atemp>
            <ns3:hr>83</ns3:hr>
          </ns3:TrackPointExtension>
        </extensions>
      </trkpt>
      <trkpt lat="47.76764617301523685455322265625" lon="12.24269737489521503448486328125">
        <ele>1097.199951171875</ele>
        <time>2020-06-23T15:23:32.000Z</time>
        <extensions>
          <ns3:TrackPointExtension>
            <ns3:atemp>24.0</ns3:atemp>
            <ns3:hr>83</ns3:hr>
          </ns3:TrackPointExtension>
        </extensions>
      </trkpt>
      <trkpt lat="47.7676848135888576507568359375" lon="12.24261707626283168792724609375">
        <ele>1095.4000244140625</ele>
        <time>2020-06-23T15:23:33.000Z</time>
        <extensions>
          <ns3:TrackPointExtension>
            <ns3:atemp>24.0</ns3:atemp>
            <ns3:hr>83</ns3:hr>
          </ns3:TrackPointExtension>
        </extensions>
      </trkpt>
      <trkpt lat="47.7677267231047153472900390625" lon="12.2425382025539875030517578125">
        <ele>1093.5999755859375</ele>
        <time>2020-06-23T15:23:34.000Z</time>
        <extensions>
          <ns3:TrackPointExtension>
            <ns3:atemp>24.0</ns3:atemp>
            <ns3:hr>83</ns3:hr>
          </ns3:TrackPointExtension>
        </extensions>
      </trkpt>
      <trkpt lat="47.76776955462992191314697265625" lon="12.2424543835222721099853515625">
        <ele>1091.5999755859375</ele>
        <time>2020-06-23T15:23:35.000Z</time>
        <extensions>
          <ns3:TrackPointExtension>
            <ns3:atemp>24.0</ns3:atemp>
            <ns3:hr>83</ns3:hr>
          </ns3:TrackPointExtension>
        </extensions>
      </trkpt>
      <trkpt lat="47.7678102068603038787841796875" lon="12.24236427806317806243896484375">
        <ele>1089.4000244140625</ele>
        <time>2020-06-23T15:23:36.000Z</time>
        <extensions>
          <ns3:TrackPointExtension>
            <ns3:atemp>24.0</ns3:atemp>
            <ns3:hr>83</ns3:hr>
          </ns3:TrackPointExtension>
        </extensions>
      </trkpt>
      <trkpt lat="47.767848260700702667236328125" lon="12.24227006547152996063232421875">
        <ele>1087.4000244140625</ele>
        <time>2020-06-23T15:23:37.000Z</time>
        <extensions>
          <ns3:TrackPointExtension>
            <ns3:atemp>24.0</ns3:atemp>
            <ns3:hr>83</ns3:hr>
          </ns3:TrackPointExtension>
        </extensions>
      </trkpt>
      <trkpt lat="47.76788488961756229400634765625" lon="12.24218054674565792083740234375">
        <ele>1085.5999755859375</ele>
        <time>2020-06-23T15:23:38.000Z</time>
        <extensions>
          <ns3:TrackPointExtension>
            <ns3:atemp>24.0</ns3:atemp>
            <ns3:hr>83</ns3:hr>
          </ns3:TrackPointExtension>
        </extensions>
      </trkpt>
      <trkpt lat="47.7679228596389293670654296875" lon="12.242099829018115997314453125">
        <ele>1083.800048828125</ele>
        <time>2020-06-23T15:23:39.000Z</time>
        <extensions>
          <ns3:TrackPointExtension>
            <ns3:atemp>24.0</ns3:atemp>
            <ns3:hr>83</ns3:hr>
          </ns3:TrackPointExtension>
        </extensions>
      </trkpt>
      <trkpt lat="47.767964266240596771240234375" lon="12.24202179349958896636962890625">
        <ele>1081.5999755859375</ele>
        <time>2020-06-23T15:23:40.000Z</time>
        <extensions>
          <ns3:TrackPointExtension>
            <ns3:atemp>24.0</ns3:atemp>
            <ns3:hr>83</ns3:hr>
          </ns3:TrackPointExtension>
        </extensions>
      </trkpt>
      <trkpt lat="47.76801095344126224517822265625" lon="12.2419452667236328125">
        <ele>1079.4000244140625</ele>
        <time>2020-06-23T15:23:41.000Z</time>
        <extensions>
          <ns3:TrackPointExtension>
            <ns3:atemp>24.0</ns3:atemp>
            <ns3:hr>83</ns3:hr>
          </ns3:TrackPointExtension>
        </extensions>
      </trkpt>
      <trkpt lat="47.7680626697838306427001953125" lon="12.24187393672764301300048828125">
        <ele>1076.800048828125</ele>
        <time>2020-06-23T15:23:42.000Z</time>
        <extensions>
          <ns3:TrackPointExtension>
            <ns3:atemp>24.0</ns3:atemp>
            <ns3:hr>83</ns3:hr>
          </ns3:TrackPointExtension>
        </extensions>
      </trkpt>
      <trkpt lat="47.768115811049938201904296875" lon="12.24181241355836391448974609375">
        <ele>1074.199951171875</ele>
        <time>2020-06-23T15:23:43.000Z</time>
        <extensions>
          <ns3:TrackPointExtension>
            <ns3:atemp>24.0</ns3:atemp>
            <ns3:hr>84</ns3:hr>
          </ns3:TrackPointExtension>
        </extensions>
      </trkpt>
      <trkpt lat="47.768166773021221160888671875" lon="12.241756506264209747314453125">
        <ele>1071.800048828125</ele>
        <time>2020-06-23T15:23:44.000Z</time>
        <extensions>
          <ns3:TrackPointExtension>
            <ns3:atemp>24.0</ns3:atemp>
            <ns3:hr>84</ns3:hr>
          </ns3:TrackPointExtension>
        </extensions>
      </trkpt>
      <trkpt lat="47.768213041126728057861328125" lon="12.24170160479843616485595703125">
        <ele>1069.5999755859375</ele>
        <time>2020-06-23T15:23:45.000Z</time>
        <extensions>
          <ns3:TrackPointExtension>
            <ns3:atemp>24.0</ns3:atemp>
            <ns3:hr>85</ns3:hr>
          </ns3:TrackPointExtension>
        </extensions>
      </trkpt>
      <trkpt lat="47.76825754903256893157958984375" lon="12.2416446916759014129638671875">
        <ele>1067.4000244140625</ele>
        <time>2020-06-23T15:23:46.000Z</time>
        <extensions>
          <ns3:TrackPointExtension>
            <ns3:atemp>24.0</ns3:atemp>
            <ns3:hr>86</ns3:hr>
          </ns3:TrackPointExtension>
        </extensions>
      </trkpt>
      <trkpt lat="47.76830415241420269012451171875" lon="12.2415856830775737762451171875">
        <ele>1065.199951171875</ele>
        <time>2020-06-23T15:23:47.000Z</time>
        <extensions>
          <ns3:TrackPointExtension>
            <ns3:atemp>24.0</ns3:atemp>
            <ns3:hr>87</ns3:hr>
          </ns3:TrackPointExtension>
        </extensions>
      </trkpt>
      <trkpt lat="47.76835192926228046417236328125" lon="12.24152675829827785491943359375">
        <ele>1062.800048828125</ele>
        <time>2020-06-23T15:23:48.000Z</time>
        <extensions>
          <ns3:TrackPointExtension>
            <ns3:atemp>24.0</ns3:atemp>
            <ns3:hr>87</ns3:hr>
          </ns3:TrackPointExtension>
        </extensions>
      </trkpt>
      <trkpt lat="47.76839668862521648406982421875" lon="12.24146691150963306427001953125">
        <ele>1060.199951171875</ele>
        <time>2020-06-23T15:23:49.000Z</time>
        <extensions>
          <ns3:TrackPointExtension>
            <ns3:atemp>24.0</ns3:atemp>
            <ns3:hr>88</ns3:hr>
          </ns3:TrackPointExtension>
        </extensions>
      </trkpt>
      <trkpt lat="47.76843692176043987274169921875" lon="12.24140421487390995025634765625">
        <ele>1057.800048828125</ele>
        <time>2020-06-23T15:23:50.000Z</time>
        <extensions>
          <ns3:TrackPointExtension>
            <ns3:atemp>24.0</ns3:atemp>
            <ns3:hr>88</ns3:hr>
          </ns3:TrackPointExtension>
        </extensions>
      </trkpt>
      <trkpt lat="47.76847547851502895355224609375" lon="12.24133799783885478973388671875">
        <ele>1055.4000244140625</ele>
        <time>2020-06-23T15:23:51.000Z</time>
        <extensions>
          <ns3:TrackPointExtension>
            <ns3:atemp>24.0</ns3:atemp>
            <ns3:hr>87</ns3:hr>
          </ns3:TrackPointExtension>
        </extensions>
      </trkpt>
      <trkpt lat="47.76851638220250606536865234375" lon="12.24127094261348247528076171875">
        <ele>1053</ele>
        <time>2020-06-23T15:23:52.000Z</time>
        <extensions>
          <ns3:TrackPointExtension>
            <ns3:atemp>24.0</ns3:atemp>
            <ns3:hr>86</ns3:hr>
          </ns3:TrackPointExtension>
        </extensions>
      </trkpt>
      <trkpt lat="47.76856147684156894683837890625" lon="12.241207659244537353515625">
        <ele>1050.5999755859375</ele>
        <time>2020-06-23T15:23:53.000Z</time>
        <extensions>
          <ns3:TrackPointExtension>
            <ns3:atemp>24.0</ns3:atemp>
            <ns3:hr>86</ns3:hr>
          </ns3:TrackPointExtension>
        </extensions>
      </trkpt>
      <trkpt lat="47.76860791258513927459716796875" lon="12.24115200340747833251953125">
        <ele>1048.199951171875</ele>
        <time>2020-06-23T15:23:54.000Z</time>
        <extensions>
          <ns3:TrackPointExtension>
            <ns3:atemp>24.0</ns3:atemp>
            <ns3:hr>86</ns3:hr>
          </ns3:TrackPointExtension>
        </extensions>
      </trkpt>
      <trkpt lat="47.7686534263193607330322265625" lon="12.24110229872167110443115234375">
        <ele>1045.5999755859375</ele>
        <time>2020-06-23T15:23:55.000Z</time>
        <extensions>
          <ns3:TrackPointExtension>
            <ns3:atemp>24.0</ns3:atemp>
            <ns3:hr>86</ns3:hr>
          </ns3:TrackPointExtension>
        </extensions>
      </trkpt>
      <trkpt lat="47.7686963416635990142822265625" lon="12.2410529293119907379150390625">
        <ele>1043</ele>
        <time>2020-06-23T15:23:56.000Z</time>
        <extensions>
          <ns3:TrackPointExtension>
            <ns3:atemp>24.0</ns3:atemp>
            <ns3:hr>87</ns3:hr>
          </ns3:TrackPointExtension>
        </extensions>
      </trkpt>
      <trkpt lat="47.768736071884632110595703125" lon="12.24099970422685146331787109375">
        <ele>1040.4000244140625</ele>
        <time>2020-06-23T15:23:57.000Z</time>
        <extensions>
          <ns3:TrackPointExtension>
            <ns3:atemp>24.0</ns3:atemp>
            <ns3:hr>88</ns3:hr>
          </ns3:TrackPointExtension>
        </extensions>
      </trkpt>
      <trkpt lat="47.7687754668295383453369140625" lon="12.2409402765333652496337890625">
        <ele>1038</ele>
        <time>2020-06-23T15:23:58.000Z</time>
        <extensions>
          <ns3:TrackPointExtension>
            <ns3:atemp>24.0</ns3:atemp>
            <ns3:hr>87</ns3:hr>
          </ns3:TrackPointExtension>
        </extensions>
      </trkpt>
      <trkpt lat="47.76881553232669830322265625" lon="12.24087464623153209686279296875">
        <ele>1035.5999755859375</ele>
        <time>2020-06-23T15:23:59.000Z</time>
        <extensions>
          <ns3:TrackPointExtension>
            <ns3:atemp>24.0</ns3:atemp>
            <ns3:hr>85</ns3:hr>
          </ns3:TrackPointExtension>
        </extensions>
      </trkpt>
      <trkpt lat="47.768856771290302276611328125" lon="12.24080356769263744354248046875">
        <ele>1033</ele>
        <time>2020-06-23T15:24:00.000Z</time>
        <extensions>
          <ns3:TrackPointExtension>
            <ns3:atemp>24.0</ns3:atemp>
            <ns3:hr>86</ns3:hr>
          </ns3:TrackPointExtension>
        </extensions>
      </trkpt>
      <trkpt lat="47.76889675296843051910400390625" lon="12.24072930403053760528564453125">
        <ele>1030.199951171875</ele>
        <time>2020-06-23T15:24:01.000Z</time>
        <extensions>
          <ns3:TrackPointExtension>
            <ns3:atemp>24.0</ns3:atemp>
            <ns3:hr>86</ns3:hr>
          </ns3:TrackPointExtension>
        </extensions>
      </trkpt>
      <trkpt lat="47.7689342200756072998046875" lon="12.24065369926393032073974609375">
        <ele>1027.4000244140625</ele>
        <time>2020-06-23T15:24:02.000Z</time>
        <extensions>
          <ns3:TrackPointExtension>
            <ns3:atemp>24.0</ns3:atemp>
            <ns3:hr>84</ns3:hr>
          </ns3:TrackPointExtension>
        </extensions>
      </trkpt>
      <trkpt lat="47.76897001080214977264404296875" lon="12.24057734012603759765625">
        <ele>1025</ele>
        <time>2020-06-23T15:24:03.000Z</time>
        <extensions>
          <ns3:TrackPointExtension>
            <ns3:atemp>24.0</ns3:atemp>
            <ns3:hr>85</ns3:hr>
          </ns3:TrackPointExtension>
        </extensions>
      </trkpt>
      <trkpt lat="47.76900605298578739166259765625" lon="12.24049947224557399749755859375">
        <ele>1022.5999755859375</ele>
        <time>2020-06-23T15:24:04.000Z</time>
        <extensions>
          <ns3:TrackPointExtension>
            <ns3:atemp>24.0</ns3:atemp>
            <ns3:hr>85</ns3:hr>
          </ns3:TrackPointExtension>
        </extensions>
      </trkpt>
      <trkpt lat="47.76904310099780559539794921875" lon="12.240419425070285797119140625">
        <ele>1020</ele>
        <time>2020-06-23T15:24:05.000Z</time>
        <extensions>
          <ns3:TrackPointExtension>
            <ns3:atemp>24.0</ns3:atemp>
            <ns3:hr>87</ns3:hr>
          </ns3:TrackPointExtension>
        </extensions>
      </trkpt>
      <trkpt lat="47.7690795622766017913818359375" lon="12.24033904261887073516845703125">
        <ele>1017.4000244140625</ele>
        <time>2020-06-23T15:24:06.000Z</time>
        <extensions>
          <ns3:TrackPointExtension>
            <ns3:atemp>24.0</ns3:atemp>
            <ns3:hr>85</ns3:hr>
          </ns3:TrackPointExtension>
        </extensions>
      </trkpt>
      <trkpt lat="47.76911535300314426422119140625" lon="12.24026058800518512725830078125">
        <ele>1014.79998779296875</ele>
        <time>2020-06-23T15:24:07.000Z</time>
        <extensions>
          <ns3:TrackPointExtension>
            <ns3:atemp>24.0</ns3:atemp>
            <ns3:hr>83</ns3:hr>
          </ns3:TrackPointExtension>
        </extensions>
      </trkpt>
      <trkpt lat="47.769150473177433013916015625" lon="12.24018347449600696563720703125">
        <ele>1012.4000244140625</ele>
        <time>2020-06-23T15:24:08.000Z</time>
        <extensions>
          <ns3:TrackPointExtension>
            <ns3:atemp>24.0</ns3:atemp>
            <ns3:hr>82</ns3:hr>
          </ns3:TrackPointExtension>
        </extensions>
      </trkpt>
      <trkpt lat="47.76918592862784862518310546875" lon="12.24010636098682880401611328125">
        <ele>1010.20001220703125</ele>
        <time>2020-06-23T15:24:09.000Z</time>
        <extensions>
          <ns3:TrackPointExtension>
            <ns3:atemp>24.0</ns3:atemp>
            <ns3:hr>82</ns3:hr>
          </ns3:TrackPointExtension>
        </extensions>
      </trkpt>
      <trkpt lat="47.76922364719212055206298828125" lon="12.24003084003925323486328125">
        <ele>1007.79998779296875</ele>
        <time>2020-06-23T15:24:10.000Z</time>
        <extensions>
          <ns3:TrackPointExtension>
            <ns3:atemp>24.0</ns3:atemp>
            <ns3:hr>82</ns3:hr>
          </ns3:TrackPointExtension>
        </extensions>
      </trkpt>
      <trkpt lat="47.76926555670797824859619140625" lon="12.23995548672974109649658203125">
        <ele>1005.79998779296875</ele>
        <time>2020-06-23T15:24:11.000Z</time>
        <extensions>
          <ns3:TrackPointExtension>
            <ns3:atemp>24.0</ns3:atemp>
            <ns3:hr>83</ns3:hr>
          </ns3:TrackPointExtension>
        </extensions>
      </trkpt>
      <trkpt lat="47.7693092264235019683837890625" lon="12.2398814745247364044189453125">
        <ele>1003.4000244140625</ele>
        <time>2020-06-23T15:24:12.000Z</time>
        <extensions>
          <ns3:TrackPointExtension>
            <ns3:atemp>24.0</ns3:atemp>
            <ns3:hr>84</ns3:hr>
          </ns3:TrackPointExtension>
        </extensions>
      </trkpt>
      <trkpt lat="47.769351638853549957275390625" lon="12.23980821669101715087890625">
        <ele>1000.79998779296875</ele>
        <time>2020-06-23T15:24:13.000Z</time>
        <extensions>
          <ns3:TrackPointExtension>
            <ns3:atemp>24.0</ns3:atemp>
            <ns3:hr>84</ns3:hr>
          </ns3:TrackPointExtension>
        </extensions>
      </trkpt>
      <trkpt lat="47.76939178816974163055419921875" lon="12.23973755724728107452392578125">
        <ele>998.79998779296875</ele>
        <time>2020-06-23T15:24:14.000Z</time>
        <extensions>
          <ns3:TrackPointExtension>
            <ns3:atemp>24.0</ns3:atemp>
            <ns3:hr>85</ns3:hr>
          </ns3:TrackPointExtension>
        </extensions>
      </trkpt>
      <trkpt lat="47.769432775676250457763671875" lon="12.2396722622215747833251953125">
        <ele>997</ele>
        <time>2020-06-23T15:24:15.000Z</time>
        <extensions>
          <ns3:TrackPointExtension>
            <ns3:atemp>24.0</ns3:atemp>
            <ns3:hr>85</ns3:hr>
          </ns3:TrackPointExtension>
        </extensions>
      </trkpt>
      <trkpt lat="47.76947778649628162384033203125" lon="12.239614091813564300537109375">
        <ele>995</ele>
        <time>2020-06-23T15:24:16.000Z</time>
        <extensions>
          <ns3:TrackPointExtension>
            <ns3:atemp>24.0</ns3:atemp>
            <ns3:hr>85</ns3:hr>
          </ns3:TrackPointExtension>
        </extensions>
      </trkpt>
      <trkpt lat="47.769527323544025421142578125" lon="12.2395592741668224334716796875">
        <ele>993.20001220703125</ele>
        <time>2020-06-23T15:24:17.000Z</time>
        <extensions>
          <ns3:TrackPointExtension>
            <ns3:atemp>24.0</ns3:atemp>
            <ns3:hr>85</ns3:hr>
          </ns3:TrackPointExtension>
        </extensions>
      </trkpt>
      <trkpt lat="47.769577614963054656982421875" lon="12.2395006008446216583251953125">
        <ele>991</ele>
        <time>2020-06-23T15:24:18.000Z</time>
        <extensions>
          <ns3:TrackPointExtension>
            <ns3:atemp>24.0</ns3:atemp>
            <ns3:hr>85</ns3:hr>
          </ns3:TrackPointExtension>
        </extensions>
      </trkpt>
      <trkpt lat="47.769624553620815277099609375" lon="12.239432036876678466796875">
        <ele>989</ele>
        <time>2020-06-23T15:24:19.000Z</time>
        <extensions>
          <ns3:TrackPointExtension>
            <ns3:atemp>24.0</ns3:atemp>
            <ns3:hr>85</ns3:hr>
          </ns3:TrackPointExtension>
        </extensions>
      </trkpt>
      <trkpt lat="47.7696676366031169891357421875" lon="12.2393537499010562896728515625">
        <ele>987</ele>
        <time>2020-06-23T15:24:20.000Z</time>
        <extensions>
          <ns3:TrackPointExtension>
            <ns3:atemp>24.0</ns3:atemp>
            <ns3:hr>86</ns3:hr>
          </ns3:TrackPointExtension>
        </extensions>
      </trkpt>
      <trkpt lat="47.769710384309291839599609375" lon="12.23927286453545093536376953125">
        <ele>985.4000244140625</ele>
        <time>2020-06-23T15:24:21.000Z</time>
        <extensions>
          <ns3:TrackPointExtension>
            <ns3:atemp>24.0</ns3:atemp>
            <ns3:hr>85</ns3:hr>
          </ns3:TrackPointExtension>
        </extensions>
      </trkpt>
      <trkpt lat="47.7697541378438472747802734375" lon="12.23919323645532131195068359375">
        <ele>983.5999755859375</ele>
        <time>2020-06-23T15:24:22.000Z</time>
        <extensions>
          <ns3:TrackPointExtension>
            <ns3:atemp>24.0</ns3:atemp>
            <ns3:hr>84</ns3:hr>
          </ns3:TrackPointExtension>
        </extensions>
      </trkpt>
      <trkpt lat="47.76979797519743442535400390625" lon="12.2391143627464771270751953125">
        <ele>981.5999755859375</ele>
        <time>2020-06-23T15:24:23.000Z</time>
        <extensions>
          <ns3:TrackPointExtension>
            <ns3:atemp>24.0</ns3:atemp>
            <ns3:hr>84</ns3:hr>
          </ns3:TrackPointExtension>
        </extensions>
      </trkpt>
      <trkpt lat="47.769839465618133544921875" lon="12.23903238773345947265625">
        <ele>979.4000244140625</ele>
        <time>2020-06-23T15:24:24.000Z</time>
        <extensions>
          <ns3:TrackPointExtension>
            <ns3:atemp>24.0</ns3:atemp>
            <ns3:hr>85</ns3:hr>
          </ns3:TrackPointExtension>
        </extensions>
      </trkpt>
      <trkpt lat="47.76987827382981777191162109375" lon="12.238949239253997802734375">
        <ele>977</ele>
        <time>2020-06-23T15:24:25.000Z</time>
        <extensions>
          <ns3:TrackPointExtension>
            <ns3:atemp>24.0</ns3:atemp>
            <ns3:hr>85</ns3:hr>
          </ns3:TrackPointExtension>
        </extensions>
      </trkpt>
      <trkpt lat="47.7699177525937557220458984375" lon="12.2388686053454875946044921875">
        <ele>974.5999755859375</ele>
        <time>2020-06-23T15:24:26.000Z</time>
        <extensions>
          <ns3:TrackPointExtension>
            <ns3:atemp>24.0</ns3:atemp>
            <ns3:hr>86</ns3:hr>
          </ns3:TrackPointExtension>
        </extensions>
      </trkpt>
      <trkpt lat="47.76996158994734287261962890625" lon="12.23879207856953144073486328125">
        <ele>972.4000244140625</ele>
        <time>2020-06-23T15:24:27.000Z</time>
        <extensions>
          <ns3:TrackPointExtension>
            <ns3:atemp>24.0</ns3:atemp>
            <ns3:hr>86</ns3:hr>
          </ns3:TrackPointExtension>
        </extensions>
      </trkpt>
      <trkpt lat="47.77000970207154750823974609375" lon="12.2387194074690341949462890625">
        <ele>970</ele>
        <time>2020-06-23T15:24:28.000Z</time>
        <extensions>
          <ns3:TrackPointExtension>
            <ns3:atemp>24.0</ns3:atemp>
            <ns3:hr>83</ns3:hr>
          </ns3:TrackPointExtension>
        </extensions>
      </trkpt>
      <trkpt lat="47.77005831710994243621826171875" lon="12.2386483289301395416259765625">
        <ele>967.79998779296875</ele>
        <time>2020-06-23T15:24:29.000Z</time>
        <extensions>
          <ns3:TrackPointExtension>
            <ns3:atemp>24.0</ns3:atemp>
            <ns3:hr>80</ns3:hr>
          </ns3:TrackPointExtension>
        </extensions>
      </trkpt>
      <trkpt lat="47.7701041661202907562255859375" lon="12.238579094409942626953125">
        <ele>965.5999755859375</ele>
        <time>2020-06-23T15:24:30.000Z</time>
        <extensions>
          <ns3:TrackPointExtension>
            <ns3:atemp>24.0</ns3:atemp>
            <ns3:hr>78</ns3:hr>
          </ns3:TrackPointExtension>
        </extensions>
      </trkpt>
      <trkpt lat="47.7701484225690364837646484375" lon="12.2385145537555217742919921875">
        <ele>963.20001220703125</ele>
        <time>2020-06-23T15:24:31.000Z</time>
        <extensions>
          <ns3:TrackPointExtension>
            <ns3:atemp>24.0</ns3:atemp>
            <ns3:hr>79</ns3:hr>
          </ns3:TrackPointExtension>
        </extensions>
      </trkpt>
      <trkpt lat="47.77019326575100421905517578125" lon="12.238455377519130706787109375">
        <ele>960.79998779296875</ele>
        <time>2020-06-23T15:24:32.000Z</time>
        <extensions>
          <ns3:TrackPointExtension>
            <ns3:atemp>24.0</ns3:atemp>
            <ns3:hr>79</ns3:hr>
          </ns3:TrackPointExtension>
        </extensions>
      </trkpt>
      <trkpt lat="47.7702372707426548004150390625" lon="12.23839896731078624725341796875">
        <ele>958.4000244140625</ele>
        <time>2020-06-23T15:24:33.000Z</time>
        <extensions>
          <ns3:TrackPointExtension>
            <ns3:atemp>25.0</ns3:atemp>
            <ns3:hr>79</ns3:hr>
          </ns3:TrackPointExtension>
        </extensions>
      </trkpt>
      <trkpt lat="47.77027926407754421234130859375" lon="12.2383398748934268951416015625">
        <ele>956.20001220703125</ele>
        <time>2020-06-23T15:24:34.000Z</time>
        <extensions>
          <ns3:TrackPointExtension>
            <ns3:atemp>25.0</ns3:atemp>
            <ns3:hr>79</ns3:hr>
          </ns3:TrackPointExtension>
        </extensions>
      </trkpt>
      <trkpt lat="47.77032000012695789337158203125" lon="12.23827474750578403472900390625">
        <ele>953.79998779296875</ele>
        <time>2020-06-23T15:24:35.000Z</time>
        <extensions>
          <ns3:TrackPointExtension>
            <ns3:atemp>25.0</ns3:atemp>
            <ns3:hr>79</ns3:hr>
          </ns3:TrackPointExtension>
        </extensions>
      </trkpt>
      <trkpt lat="47.77036224491894245147705078125" lon="12.23820383660495281219482421875">
        <ele>951.4000244140625</ele>
        <time>2020-06-23T15:24:36.000Z</time>
        <extensions>
          <ns3:TrackPointExtension>
            <ns3:atemp>25.0</ns3:atemp>
            <ns3:hr>80</ns3:hr>
          </ns3:TrackPointExtension>
        </extensions>
      </trkpt>
      <trkpt lat="47.770407088100910186767578125" lon="12.23812940530478954315185546875">
        <ele>948.5999755859375</ele>
        <time>2020-06-23T15:24:37.000Z</time>
        <extensions>
          <ns3:TrackPointExtension>
            <ns3:atemp>25.0</ns3:atemp>
            <ns3:hr>80</ns3:hr>
          </ns3:TrackPointExtension>
        </extensions>
      </trkpt>
      <trkpt lat="47.77045126073062419891357421875" lon="12.23805229179561138153076171875">
        <ele>946</ele>
        <time>2020-06-23T15:24:38.000Z</time>
        <extensions>
          <ns3:TrackPointExtension>
            <ns3:atemp>25.0</ns3:atemp>
            <ns3:hr>80</ns3:hr>
          </ns3:TrackPointExtension>
        </extensions>
      </trkpt>
      <trkpt lat="47.770490907132625579833984375" lon="12.23797299899160861968994140625">
        <ele>943.20001220703125</ele>
        <time>2020-06-23T15:24:39.000Z</time>
        <extensions>
          <ns3:TrackPointExtension>
            <ns3:atemp>25.0</ns3:atemp>
            <ns3:hr>83</ns3:hr>
          </ns3:TrackPointExtension>
        </extensions>
      </trkpt>
      <trkpt lat="47.77052585966885089874267578125" lon="12.2378912754356861114501953125">
        <ele>940.5999755859375</ele>
        <time>2020-06-23T15:24:40.000Z</time>
        <extensions>
          <ns3:TrackPointExtension>
            <ns3:atemp>25.0</ns3:atemp>
            <ns3:hr>83</ns3:hr>
          </ns3:TrackPointExtension>
        </extensions>
      </trkpt>
      <trkpt lat="47.77055896818637847900390625" lon="12.2378052771091461181640625">
        <ele>938.20001220703125</ele>
        <time>2020-06-23T15:24:41.000Z</time>
        <extensions>
          <ns3:TrackPointExtension>
            <ns3:atemp>25.0</ns3:atemp>
            <ns3:hr>83</ns3:hr>
          </ns3:TrackPointExtension>
        </extensions>
      </trkpt>
      <trkpt lat="47.7705953456461429595947265625" lon="12.23771701566874980926513671875">
        <ele>935.79998779296875</ele>
        <time>2020-06-23T15:24:42.000Z</time>
        <extensions>
          <ns3:TrackPointExtension>
            <ns3:atemp>25.0</ns3:atemp>
            <ns3:hr>83</ns3:hr>
          </ns3:TrackPointExtension>
        </extensions>
      </trkpt>
      <trkpt lat="47.770635746419429779052734375" lon="12.23763017915189266204833984375">
        <ele>933.20001220703125</ele>
        <time>2020-06-23T15:24:43.000Z</time>
        <extensions>
          <ns3:TrackPointExtension>
            <ns3:atemp>25.0</ns3:atemp>
            <ns3:hr>82</ns3:hr>
          </ns3:TrackPointExtension>
        </extensions>
      </trkpt>
      <trkpt lat="47.77067824266850948333740234375" lon="12.23754887469112873077392578125">
        <ele>930.4000244140625</ele>
        <time>2020-06-23T15:24:44.000Z</time>
        <extensions>
          <ns3:TrackPointExtension>
            <ns3:atemp>25.0</ns3:atemp>
            <ns3:hr>81</ns3:hr>
          </ns3:TrackPointExtension>
        </extensions>
      </trkpt>
      <trkpt lat="47.77071830816566944122314453125" lon="12.23747109062969684600830078125">
        <ele>927.4000244140625</ele>
        <time>2020-06-23T15:24:45.000Z</time>
        <extensions>
          <ns3:TrackPointExtension>
            <ns3:atemp>25.0</ns3:atemp>
            <ns3:hr>79</ns3:hr>
          </ns3:TrackPointExtension>
        </extensions>
      </trkpt>
      <trkpt lat="47.77075502090156078338623046875" lon="12.23739464767277240753173828125">
        <ele>924.79998779296875</ele>
        <time>2020-06-23T15:24:46.000Z</time>
        <extensions>
          <ns3:TrackPointExtension>
            <ns3:atemp>25.0</ns3:atemp>
            <ns3:hr>78</ns3:hr>
          </ns3:TrackPointExtension>
        </extensions>
      </trkpt>
      <trkpt lat="47.77079089544713497161865234375" lon="12.23732055164873600006103515625">
        <ele>922.4000244140625</ele>
        <time>2020-06-23T15:24:47.000Z</time>
        <extensions>
          <ns3:TrackPointExtension>
            <ns3:atemp>25.0</ns3:atemp>
            <ns3:hr>78</ns3:hr>
          </ns3:TrackPointExtension>
        </extensions>
      </trkpt>
      <trkpt lat="47.770830877125263214111328125" lon="12.237251736223697662353515625">
        <ele>920</ele>
        <time>2020-06-23T15:24:48.000Z</time>
        <extensions>
          <ns3:TrackPointExtension>
            <ns3:atemp>25.0</ns3:atemp>
            <ns3:hr>78</ns3:hr>
          </ns3:TrackPointExtension>
        </extensions>
      </trkpt>
      <trkpt lat="47.7708776481449604034423828125" lon="12.2371882013976573944091796875">
        <ele>917.4000244140625</ele>
        <time>2020-06-23T15:24:49.000Z</time>
        <extensions>
          <ns3:TrackPointExtension>
            <ns3:atemp>25.0</ns3:atemp>
            <ns3:hr>78</ns3:hr>
          </ns3:TrackPointExtension>
        </extensions>
      </trkpt>
      <trkpt lat="47.77092911303043365478515625" lon="12.237127013504505157470703125">
        <ele>914.5999755859375</ele>
        <time>2020-06-23T15:24:50.000Z</time>
        <extensions>
          <ns3:TrackPointExtension>
            <ns3:atemp>25.0</ns3:atemp>
            <ns3:hr>78</ns3:hr>
          </ns3:TrackPointExtension>
        </extensions>
      </trkpt>
      <trkpt lat="47.77098149992525577545166015625" lon="12.23706758581101894378662109375">
        <ele>911.4000244140625</ele>
        <time>2020-06-23T15:24:51.000Z</time>
        <extensions>
          <ns3:TrackPointExtension>
            <ns3:atemp>25.0</ns3:atemp>
            <ns3:hr>76</ns3:hr>
          </ns3:TrackPointExtension>
        </extensions>
      </trkpt>
      <trkpt lat="47.7710370719432830810546875" lon="12.23700673319399356842041015625">
        <ele>908.4000244140625</ele>
        <time>2020-06-23T15:24:52.000Z</time>
        <extensions>
          <ns3:TrackPointExtension>
            <ns3:atemp>25.0</ns3:atemp>
            <ns3:hr>76</ns3:hr>
          </ns3:TrackPointExtension>
        </extensions>
      </trkpt>
      <trkpt lat="47.77109566144645214080810546875" lon="12.23694152198731899261474609375">
        <ele>905.79998779296875</ele>
        <time>2020-06-23T15:24:53.000Z</time>
        <extensions>
          <ns3:TrackPointExtension>
            <ns3:atemp>25.0</ns3:atemp>
            <ns3:hr>77</ns3:hr>
          </ns3:TrackPointExtension>
        </extensions>
      </trkpt>
      <trkpt lat="47.77115349657833576202392578125" lon="12.23687228746712207794189453125">
        <ele>903</ele>
        <time>2020-06-23T15:24:54.000Z</time>
        <extensions>
          <ns3:TrackPointExtension>
            <ns3:atemp>25.0</ns3:atemp>
            <ns3:hr>75</ns3:hr>
          </ns3:TrackPointExtension>
        </extensions>
      </trkpt>
      <trkpt lat="47.77120982296764850616455078125" lon="12.23680472932755947113037109375">
        <ele>900.4000244140625</ele>
        <time>2020-06-23T15:24:55.000Z</time>
        <extensions>
          <ns3:TrackPointExtension>
            <ns3:atemp>25.0</ns3:atemp>
            <ns3:hr>77</ns3:hr>
          </ns3:TrackPointExtension>
        </extensions>
      </trkpt>
      <trkpt lat="47.771266400814056396484375" lon="12.23674672655761241912841796875">
        <ele>898.20001220703125</ele>
        <time>2020-06-23T15:24:56.000Z</time>
        <extensions>
          <ns3:TrackPointExtension>
            <ns3:atemp>25.0</ns3:atemp>
            <ns3:hr>76</ns3:hr>
          </ns3:TrackPointExtension>
        </extensions>
      </trkpt>
      <trkpt lat="47.771323733031749725341796875" lon="12.2367017157375812530517578125">
        <ele>896.4000244140625</ele>
        <time>2020-06-23T15:24:57.000Z</time>
        <extensions>
          <ns3:TrackPointExtension>
            <ns3:atemp>25.0</ns3:atemp>
            <ns3:hr>74</ns3:hr>
          </ns3:TrackPointExtension>
        </extensions>
      </trkpt>
      <trkpt lat="47.7713802270591259002685546875" lon="12.236657626926898956298828125">
        <ele>894.5999755859375</ele>
        <time>2020-06-23T15:24:58.000Z</time>
        <extensions>
          <ns3:TrackPointExtension>
            <ns3:atemp>25.0</ns3:atemp>
            <ns3:hr>75</ns3:hr>
          </ns3:TrackPointExtension>
        </extensions>
      </trkpt>
      <trkpt lat="47.7714345417916774749755859375" lon="12.23659886978566646575927734375">
        <ele>892.20001220703125</ele>
        <time>2020-06-23T15:24:59.000Z</time>
        <extensions>
          <ns3:TrackPointExtension>
            <ns3:atemp>25.0</ns3:atemp>
            <ns3:hr>77</ns3:hr>
          </ns3:TrackPointExtension>
        </extensions>
      </trkpt>
      <trkpt lat="47.77148558758199214935302734375" lon="12.23651236854493618011474609375">
        <ele>889.79998779296875</ele>
        <time>2020-06-23T15:25:00.000Z</time>
        <extensions>
          <ns3:TrackPointExtension>
            <ns3:atemp>25.0</ns3:atemp>
            <ns3:hr>78</ns3:hr>
          </ns3:TrackPointExtension>
        </extensions>
      </trkpt>
      <trkpt lat="47.771533615887165069580078125" lon="12.23641455173492431640625">
        <ele>887.4000244140625</ele>
        <time>2020-06-23T15:25:01.000Z</time>
        <extensions>
          <ns3:TrackPointExtension>
            <ns3:atemp>25.0</ns3:atemp>
            <ns3:hr>78</ns3:hr>
          </ns3:TrackPointExtension>
        </extensions>
      </trkpt>
      <trkpt lat="47.7715810574591159820556640625" lon="12.236318998038768768310546875">
        <ele>885.4000244140625</ele>
        <time>2020-06-23T15:25:02.000Z</time>
        <extensions>
          <ns3:TrackPointExtension>
            <ns3:atemp>25.0</ns3:atemp>
            <ns3:hr>81</ns3:hr>
          </ns3:TrackPointExtension>
        </extensions>
      </trkpt>
      <trkpt lat="47.7716290019452571868896484375" lon="12.23623543046414852142333984375">
        <ele>883.5999755859375</ele>
        <time>2020-06-23T15:25:03.000Z</time>
        <extensions>
          <ns3:TrackPointExtension>
            <ns3:atemp>25.0</ns3:atemp>
            <ns3:hr>80</ns3:hr>
          </ns3:TrackPointExtension>
        </extensions>
      </trkpt>
      <trkpt lat="47.77167719788849353790283203125" lon="12.23615379072725772857666015625">
        <ele>881.79998779296875</ele>
        <time>2020-06-23T15:25:04.000Z</time>
        <extensions>
          <ns3:TrackPointExtension>
            <ns3:atemp>24.0</ns3:atemp>
            <ns3:hr>83</ns3:hr>
          </ns3:TrackPointExtension>
        </extensions>
      </trkpt>
      <trkpt lat="47.77172380127012729644775390625" lon="12.23606293089687824249267578125">
        <ele>880.20001220703125</ele>
        <time>2020-06-23T15:25:05.000Z</time>
        <extensions>
          <ns3:TrackPointExtension>
            <ns3:atemp>24.0</ns3:atemp>
            <ns3:hr>86</ns3:hr>
          </ns3:TrackPointExtension>
        </extensions>
      </trkpt>
      <trkpt lat="47.77176738716661930084228515625" lon="12.23596486262977123260498046875">
        <ele>878.79998779296875</ele>
        <time>2020-06-23T15:25:06.000Z</time>
        <extensions>
          <ns3:TrackPointExtension>
            <ns3:atemp>24.0</ns3:atemp>
            <ns3:hr>87</ns3:hr>
          </ns3:TrackPointExtension>
        </extensions>
      </trkpt>
      <trkpt lat="47.77181164361536502838134765625" lon="12.23587148822844028472900390625">
        <ele>877.20001220703125</ele>
        <time>2020-06-23T15:25:07.000Z</time>
        <extensions>
          <ns3:TrackPointExtension>
            <ns3:atemp>24.0</ns3:atemp>
            <ns3:hr>88</ns3:hr>
          </ns3:TrackPointExtension>
        </extensions>
      </trkpt>
      <trkpt lat="47.77186059392988681793212890625" lon="12.2357907705008983612060546875">
        <ele>875.79998779296875</ele>
        <time>2020-06-23T15:25:08.000Z</time>
        <extensions>
          <ns3:TrackPointExtension>
            <ns3:atemp>24.0</ns3:atemp>
            <ns3:hr>88</ns3:hr>
          </ns3:TrackPointExtension>
        </extensions>
      </trkpt>
      <trkpt lat="47.7719141542911529541015625" lon="12.23572279326617717742919921875">
        <ele>874.4000244140625</ele>
        <time>2020-06-23T15:25:09.000Z</time>
        <extensions>
          <ns3:TrackPointExtension>
            <ns3:atemp>24.0</ns3:atemp>
            <ns3:hr>89</ns3:hr>
          </ns3:TrackPointExtension>
        </extensions>
      </trkpt>
      <trkpt lat="47.771970145404338836669921875" lon="12.235658168792724609375">
        <ele>873</ele>
        <time>2020-06-23T15:25:10.000Z</time>
        <extensions>
          <ns3:TrackPointExtension>
            <ns3:atemp>24.0</ns3:atemp>
            <ns3:hr>89</ns3:hr>
          </ns3:TrackPointExtension>
        </extensions>
      </trkpt>
      <trkpt lat="47.77202504687011241912841796875" lon="12.2355899401009082794189453125">
        <ele>871.4000244140625</ele>
        <time>2020-06-23T15:25:11.000Z</time>
        <extensions>
          <ns3:TrackPointExtension>
            <ns3:atemp>24.0</ns3:atemp>
            <ns3:hr>89</ns3:hr>
          </ns3:TrackPointExtension>
        </extensions>
      </trkpt>
      <trkpt lat="47.77207667939364910125732421875" lon="12.23551911301910877227783203125">
        <ele>869.79998779296875</ele>
        <time>2020-06-23T15:25:12.000Z</time>
        <extensions>
          <ns3:TrackPointExtension>
            <ns3:atemp>24.0</ns3:atemp>
            <ns3:hr>89</ns3:hr>
          </ns3:TrackPointExtension>
        </extensions>
      </trkpt>
      <trkpt lat="47.77212546207010746002197265625" lon="12.23544987849891185760498046875">
        <ele>868.5999755859375</ele>
        <time>2020-06-23T15:25:13.000Z</time>
        <extensions>
          <ns3:TrackPointExtension>
            <ns3:atemp>24.0</ns3:atemp>
            <ns3:hr>89</ns3:hr>
          </ns3:TrackPointExtension>
        </extensions>
      </trkpt>
      <trkpt lat="47.77217575348913669586181640625" lon="12.2353817336261272430419921875">
        <ele>867.20001220703125</ele>
        <time>2020-06-23T15:25:14.000Z</time>
        <extensions>
          <ns3:TrackPointExtension>
            <ns3:atemp>24.0</ns3:atemp>
            <ns3:hr>89</ns3:hr>
          </ns3:TrackPointExtension>
        </extensions>
      </trkpt>
      <trkpt lat="47.77222931385040283203125" lon="12.23531107418239116668701171875">
        <ele>865.79998779296875</ele>
        <time>2020-06-23T15:25:15.000Z</time>
        <extensions>
          <ns3:TrackPointExtension>
            <ns3:atemp>24.0</ns3:atemp>
            <ns3:hr>90</ns3:hr>
          </ns3:TrackPointExtension>
        </extensions>
      </trkpt>
      <trkpt lat="47.7722831256687641143798828125" lon="12.23523731343448162078857421875">
        <ele>864.20001220703125</ele>
        <time>2020-06-23T15:25:16.000Z</time>
        <extensions>
          <ns3:TrackPointExtension>
            <ns3:atemp>24.0</ns3:atemp>
            <ns3:hr>89</ns3:hr>
          </ns3:TrackPointExtension>
        </extensions>
      </trkpt>
      <trkpt lat="47.772332914173603057861328125" lon="12.2351621277630329132080078125">
        <ele>862.79998779296875</ele>
        <time>2020-06-23T15:25:17.000Z</time>
        <extensions>
          <ns3:TrackPointExtension>
            <ns3:atemp>24.0</ns3:atemp>
            <ns3:hr>86</ns3:hr>
          </ns3:TrackPointExtension>
        </extensions>
      </trkpt>
      <trkpt lat="47.77237541042268276214599609375" lon="12.23508845083415508270263671875">
        <ele>861.4000244140625</ele>
        <time>2020-06-23T15:25:18.000Z</time>
        <extensions>
          <ns3:TrackPointExtension>
            <ns3:atemp>24.0</ns3:atemp>
            <ns3:hr>88</ns3:hr>
          </ns3:TrackPointExtension>
        </extensions>
      </trkpt>
      <trkpt lat="47.77241262607276439666748046875" lon="12.23501519300043582916259765625">
        <ele>859.79998779296875</ele>
        <time>2020-06-23T15:25:19.000Z</time>
        <extensions>
          <ns3:TrackPointExtension>
            <ns3:atemp>24.0</ns3:atemp>
            <ns3:hr>87</ns3:hr>
          </ns3:TrackPointExtension>
        </extensions>
      </trkpt>
      <trkpt lat="47.77245151810348033905029296875" lon="12.23493606783449649810791015625">
        <ele>858.20001220703125</ele>
        <time>2020-06-23T15:25:20.000Z</time>
        <extensions>
          <ns3:TrackPointExtension>
            <ns3:atemp>24.0</ns3:atemp>
            <ns3:hr>88</ns3:hr>
          </ns3:TrackPointExtension>
        </extensions>
      </trkpt>
      <trkpt lat="47.77249325998127460479736328125" lon="12.23484386689960956573486328125">
        <ele>856.4000244140625</ele>
        <time>2020-06-23T15:25:21.000Z</time>
        <extensions>
          <ns3:TrackPointExtension>
            <ns3:atemp>24.0</ns3:atemp>
            <ns3:hr>85</ns3:hr>
          </ns3:TrackPointExtension>
        </extensions>
      </trkpt>
      <trkpt lat="47.77253382839262485504150390625" lon="12.234739176928997039794921875">
        <ele>854.4000244140625</ele>
        <time>2020-06-23T15:25:22.000Z</time>
        <extensions>
          <ns3:TrackPointExtension>
            <ns3:atemp>24.0</ns3:atemp>
            <ns3:hr>91</ns3:hr>
          </ns3:TrackPointExtension>
        </extensions>
      </trkpt>
      <trkpt lat="47.77256702072918415069580078125" lon="12.2346287034451961517333984375">
        <ele>852.20001220703125</ele>
        <time>2020-06-23T15:25:23.000Z</time>
        <extensions>
          <ns3:TrackPointExtension>
            <ns3:atemp>24.0</ns3:atemp>
            <ns3:hr>89</ns3:hr>
          </ns3:TrackPointExtension>
        </extensions>
      </trkpt>
      <trkpt lat="47.77259183116257190704345703125" lon="12.23451864905655384063720703125">
        <ele>850.20001220703125</ele>
        <time>2020-06-23T15:25:24.000Z</time>
        <extensions>
          <ns3:TrackPointExtension>
            <ns3:atemp>24.0</ns3:atemp>
            <ns3:hr>88</ns3:hr>
          </ns3:TrackPointExtension>
        </extensions>
      </trkpt>
      <trkpt lat="47.77261412702500820159912109375" lon="12.23440817557275295257568359375">
        <ele>848.4000244140625</ele>
        <time>2020-06-23T15:25:25.000Z</time>
        <extensions>
          <ns3:TrackPointExtension>
            <ns3:atemp>24.0</ns3:atemp>
            <ns3:hr>89</ns3:hr>
          </ns3:TrackPointExtension>
        </extensions>
      </trkpt>
      <trkpt lat="47.772636674344539642333984375" lon="12.23429099656641483306884765625">
        <ele>847.20001220703125</ele>
        <time>2020-06-23T15:25:26.000Z</time>
        <extensions>
          <ns3:TrackPointExtension>
            <ns3:atemp>24.0</ns3:atemp>
            <ns3:hr>90</ns3:hr>
          </ns3:TrackPointExtension>
        </extensions>
      </trkpt>
      <trkpt lat="47.77265938930213451385498046875" lon="12.23416392691433429718017578125">
        <ele>845.5999755859375</ele>
        <time>2020-06-23T15:25:27.000Z</time>
        <extensions>
          <ns3:TrackPointExtension>
            <ns3:atemp>24.0</ns3:atemp>
            <ns3:hr>91</ns3:hr>
          </ns3:TrackPointExtension>
        </extensions>
      </trkpt>
      <trkpt lat="47.77268202044069766998291015625" lon="12.23402763716876506805419921875">
        <ele>844</ele>
        <time>2020-06-23T15:25:28.000Z</time>
        <extensions>
          <ns3:TrackPointExtension>
            <ns3:atemp>24.0</ns3:atemp>
            <ns3:hr>92</ns3:hr>
          </ns3:TrackPointExtension>
        </extensions>
      </trkpt>
      <trkpt lat="47.7727067470550537109375" lon="12.23389327526092529296875">
        <ele>842.4000244140625</ele>
        <time>2020-06-23T15:25:29.000Z</time>
        <extensions>
          <ns3:TrackPointExtension>
            <ns3:atemp>24.0</ns3:atemp>
            <ns3:hr>91</ns3:hr>
          </ns3:TrackPointExtension>
        </extensions>
      </trkpt>
      <trkpt lat="47.772737927734851837158203125" lon="12.233780287206172943115234375">
        <ele>840.79998779296875</ele>
        <time>2020-06-23T15:25:30.000Z</time>
        <extensions>
          <ns3:TrackPointExtension>
            <ns3:atemp>24.0</ns3:atemp>
            <ns3:hr>90</ns3:hr>
          </ns3:TrackPointExtension>
        </extensions>
      </trkpt>
      <trkpt lat="47.77278251945972442626953125" lon="12.2337026707828044891357421875">
        <ele>839.20001220703125</ele>
        <time>2020-06-23T15:25:31.000Z</time>
        <extensions>
          <ns3:TrackPointExtension>
            <ns3:atemp>24.0</ns3:atemp>
            <ns3:hr>91</ns3:hr>
          </ns3:TrackPointExtension>
        </extensions>
      </trkpt>
      <trkpt lat="47.77283775620162487030029296875" lon="12.2336698137223720550537109375">
        <ele>837.79998779296875</ele>
        <time>2020-06-23T15:25:32.000Z</time>
        <extensions>
          <ns3:TrackPointExtension>
            <ns3:atemp>24.0</ns3:atemp>
            <ns3:hr>93</ns3:hr>
          </ns3:TrackPointExtension>
        </extensions>
      </trkpt>
      <trkpt lat="47.7728933282196521759033203125" lon="12.23368397913873195648193359375">
        <ele>836.4000244140625</ele>
        <time>2020-06-23T15:25:33.000Z</time>
        <extensions>
          <ns3:TrackPointExtension>
            <ns3:atemp>24.0</ns3:atemp>
            <ns3:hr>93</ns3:hr>
          </ns3:TrackPointExtension>
        </extensions>
      </trkpt>
      <trkpt lat="47.77293414808809757232666015625" lon="12.23373158834874629974365234375">
        <ele>834.4000244140625</ele>
        <time>2020-06-23T15:25:34.000Z</time>
        <extensions>
          <ns3:TrackPointExtension>
            <ns3:atemp>24.0</ns3:atemp>
            <ns3:hr>93</ns3:hr>
          </ns3:TrackPointExtension>
        </extensions>
      </trkpt>
      <trkpt lat="47.77295409701764583587646484375" lon="12.2337901778519153594970703125">
        <ele>832.79998779296875</ele>
        <time>2020-06-23T15:25:35.000Z</time>
        <extensions>
          <ns3:TrackPointExtension>
            <ns3:atemp>24.0</ns3:atemp>
            <ns3:hr>91</ns3:hr>
          </ns3:TrackPointExtension>
        </extensions>
      </trkpt>
      <trkpt lat="47.77295929379761219024658203125" lon="12.23384507931768894195556640625">
        <ele>831.5999755859375</ele>
        <time>2020-06-23T15:25:36.000Z</time>
        <extensions>
          <ns3:TrackPointExtension>
            <ns3:atemp>24.0</ns3:atemp>
            <ns3:hr>91</ns3:hr>
          </ns3:TrackPointExtension>
        </extensions>
      </trkpt>
      <trkpt lat="47.7729734592139720916748046875" lon="12.23394549451768398284912109375">
        <ele>829.4000244140625</ele>
        <time>2020-06-23T15:25:38.000Z</time>
        <extensions>
          <ns3:TrackPointExtension>
            <ns3:atemp>24.0</ns3:atemp>
            <ns3:hr>90</ns3:hr>
          </ns3:TrackPointExtension>
        </extensions>
      </trkpt>
      <trkpt lat="47.77299466542899608612060546875" lon="12.233997881412506103515625">
        <ele>828.20001220703125</ele>
        <time>2020-06-23T15:25:39.000Z</time>
        <extensions>
          <ns3:TrackPointExtension>
            <ns3:atemp>24.0</ns3:atemp>
            <ns3:hr>89</ns3:hr>
          </ns3:TrackPointExtension>
        </extensions>
      </trkpt>
      <trkpt lat="47.77302500791847705841064453125" lon="12.23404993303120136260986328125">
        <ele>826.79998779296875</ele>
        <time>2020-06-23T15:25:40.000Z</time>
        <extensions>
          <ns3:TrackPointExtension>
            <ns3:atemp>24.0</ns3:atemp>
            <ns3:hr>90</ns3:hr>
          </ns3:TrackPointExtension>
        </extensions>
      </trkpt>
      <trkpt lat="47.77306105010211467742919921875" lon="12.23409452475607395172119140625">
        <ele>825.20001220703125</ele>
        <time>2020-06-23T15:25:41.000Z</time>
        <extensions>
          <ns3:TrackPointExtension>
            <ns3:atemp>24.0</ns3:atemp>
            <ns3:hr>88</ns3:hr>
          </ns3:TrackPointExtension>
        </extensions>
      </trkpt>
      <trkpt lat="47.77309793047606945037841796875" lon="12.23412998020648956298828125">
        <ele>823.5999755859375</ele>
        <time>2020-06-23T15:25:42.000Z</time>
        <extensions>
          <ns3:TrackPointExtension>
            <ns3:atemp>24.0</ns3:atemp>
            <ns3:hr>89</ns3:hr>
          </ns3:TrackPointExtension>
        </extensions>
      </trkpt>
      <trkpt lat="47.7731353975832462310791015625" lon="12.23415420390665531158447265625">
        <ele>822.4000244140625</ele>
        <time>2020-06-23T15:25:43.000Z</time>
        <extensions>
          <ns3:TrackPointExtension>
            <ns3:atemp>24.0</ns3:atemp>
            <ns3:hr>87</ns3:hr>
          </ns3:TrackPointExtension>
        </extensions>
      </trkpt>
      <trkpt lat="47.7731749601662158966064453125" lon="12.23417147062718868255615234375">
        <ele>821.20001220703125</ele>
        <time>2020-06-23T15:25:44.000Z</time>
        <extensions>
          <ns3:TrackPointExtension>
            <ns3:atemp>24.0</ns3:atemp>
            <ns3:hr>89</ns3:hr>
          </ns3:TrackPointExtension>
        </extensions>
      </trkpt>
      <trkpt lat="47.77321846224367618560791015625" lon="12.23418873734772205352783203125">
        <ele>820</ele>
        <time>2020-06-23T15:25:45.000Z</time>
        <extensions>
          <ns3:TrackPointExtension>
            <ns3:atemp>24.0</ns3:atemp>
            <ns3:hr>89</ns3:hr>
          </ns3:TrackPointExtension>
        </extensions>
      </trkpt>
      <trkpt lat="47.7732648141682147979736328125" lon="12.23420818336308002471923828125">
        <ele>819</ele>
        <time>2020-06-23T15:25:46.000Z</time>
        <extensions>
          <ns3:TrackPointExtension>
            <ns3:atemp>24.0</ns3:atemp>
            <ns3:hr>88</ns3:hr>
          </ns3:TrackPointExtension>
        </extensions>
      </trkpt>
      <trkpt lat="47.77331225574016571044921875" lon="12.23422109149396419525146484375">
        <ele>817.79998779296875</ele>
        <time>2020-06-23T15:25:47.000Z</time>
        <extensions>
          <ns3:TrackPointExtension>
            <ns3:atemp>24.0</ns3:atemp>
            <ns3:hr>88</ns3:hr>
          </ns3:TrackPointExtension>
        </extensions>
      </trkpt>
      <trkpt lat="47.77335961349308490753173828125" lon="12.23421203903853893280029296875">
        <ele>816.4000244140625</ele>
        <time>2020-06-23T15:25:48.000Z</time>
        <extensions>
          <ns3:TrackPointExtension>
            <ns3:atemp>24.0</ns3:atemp>
            <ns3:hr>85</ns3:hr>
          </ns3:TrackPointExtension>
        </extensions>
      </trkpt>
      <trkpt lat="47.77340923435986042022705078125" lon="12.234169207513332366943359375">
        <ele>815</ele>
        <time>2020-06-23T15:25:49.000Z</time>
        <extensions>
          <ns3:TrackPointExtension>
            <ns3:atemp>24.0</ns3:atemp>
            <ns3:hr>83</ns3:hr>
          </ns3:TrackPointExtension>
        </extensions>
      </trkpt>
      <trkpt lat="47.7734643034636974334716796875" lon="12.23410491831600666046142578125">
        <ele>813.5999755859375</ele>
        <time>2020-06-23T15:25:50.000Z</time>
        <extensions>
          <ns3:TrackPointExtension>
            <ns3:atemp>24.0</ns3:atemp>
            <ns3:hr>82</ns3:hr>
          </ns3:TrackPointExtension>
        </extensions>
      </trkpt>
      <trkpt lat="47.77352415025234222412109375" lon="12.23405362106859683990478515625">
        <ele>812</ele>
        <time>2020-06-23T15:25:51.000Z</time>
        <extensions>
          <ns3:TrackPointExtension>
            <ns3:atemp>24.0</ns3:atemp>
            <ns3:hr>83</ns3:hr>
          </ns3:TrackPointExtension>
        </extensions>
      </trkpt>
      <trkpt lat="47.77358072809875011444091796875" lon="12.2340530343353748321533203125">
        <ele>810.4000244140625</ele>
        <time>2020-06-23T15:25:52.000Z</time>
        <extensions>
          <ns3:TrackPointExtension>
            <ns3:atemp>24.0</ns3:atemp>
            <ns3:hr>83</ns3:hr>
          </ns3:TrackPointExtension>
        </extensions>
      </trkpt>
      <trkpt lat="47.77361811138689517974853515625" lon="12.234115898609161376953125">
        <ele>808.5999755859375</ele>
        <time>2020-06-23T15:25:53.000Z</time>
        <extensions>
          <ns3:TrackPointExtension>
            <ns3:atemp>24.0</ns3:atemp>
            <ns3:hr>83</ns3:hr>
          </ns3:TrackPointExtension>
        </extensions>
      </trkpt>
      <trkpt lat="47.77363814413547515869140625" lon="12.23420432768762111663818359375">
        <ele>806.4000244140625</ele>
        <time>2020-06-23T15:25:54.000Z</time>
        <extensions>
          <ns3:TrackPointExtension>
            <ns3:atemp>24.0</ns3:atemp>
            <ns3:hr>83</ns3:hr>
          </ns3:TrackPointExtension>
        </extensions>
      </trkpt>
      <trkpt lat="47.7736483700573444366455078125" lon="12.2342632524669170379638671875">
        <ele>804.20001220703125</ele>
        <time>2020-06-23T15:25:55.000Z</time>
        <extensions>
          <ns3:TrackPointExtension>
            <ns3:atemp>24.0</ns3:atemp>
            <ns3:hr>83</ns3:hr>
          </ns3:TrackPointExtension>
        </extensions>
      </trkpt>
      <trkpt lat="47.773676030337810516357421875" lon="12.23427808843553066253662109375">
        <ele>802.5999755859375</ele>
        <time>2020-06-23T15:25:56.000Z</time>
        <extensions>
          <ns3:TrackPointExtension>
            <ns3:atemp>24.0</ns3:atemp>
            <ns3:hr>82</ns3:hr>
          </ns3:TrackPointExtension>
        </extensions>
      </trkpt>
      <trkpt lat="47.773732356727123260498046875" lon="12.234248332679271697998046875">
        <ele>801</ele>
        <time>2020-06-23T15:25:57.000Z</time>
        <extensions>
          <ns3:TrackPointExtension>
            <ns3:atemp>24.0</ns3:atemp>
            <ns3:hr>82</ns3:hr>
          </ns3:TrackPointExtension>
        </extensions>
      </trkpt>
      <trkpt lat="47.77380972169339656829833984375" lon="12.23421002738177776336669921875">
        <ele>799.20001220703125</ele>
        <time>2020-06-23T15:25:58.000Z</time>
        <extensions>
          <ns3:TrackPointExtension>
            <ns3:atemp>24.0</ns3:atemp>
            <ns3:hr>82</ns3:hr>
          </ns3:TrackPointExtension>
        </extensions>
      </trkpt>
      <trkpt lat="47.77387644164264202117919921875" lon="12.23422109149396419525146484375">
        <ele>797.20001220703125</ele>
        <time>2020-06-23T15:25:59.000Z</time>
        <extensions>
          <ns3:TrackPointExtension>
            <ns3:atemp>24.0</ns3:atemp>
            <ns3:hr>83</ns3:hr>
          </ns3:TrackPointExtension>
        </extensions>
      </trkpt>
      <trkpt lat="47.77390276081860065460205078125" lon="12.23429870791733264923095703125">
        <ele>795.20001220703125</ele>
        <time>2020-06-23T15:26:00.000Z</time>
        <extensions>
          <ns3:TrackPointExtension>
            <ns3:atemp>24.0</ns3:atemp>
            <ns3:hr>83</ns3:hr>
          </ns3:TrackPointExtension>
        </extensions>
      </trkpt>
      <trkpt lat="47.7738719992339611053466796875" lon="12.23440733738243579864501953125">
        <ele>792.4000244140625</ele>
        <time>2020-06-23T15:26:01.000Z</time>
        <extensions>
          <ns3:TrackPointExtension>
            <ns3:atemp>24.0</ns3:atemp>
            <ns3:hr>83</ns3:hr>
          </ns3:TrackPointExtension>
        </extensions>
      </trkpt>
      <trkpt lat="47.77382480911910533905029296875" lon="12.23449601791799068450927734375">
        <ele>789.20001220703125</ele>
        <time>2020-06-23T15:26:02.000Z</time>
        <extensions>
          <ns3:TrackPointExtension>
            <ns3:atemp>24.0</ns3:atemp>
            <ns3:hr>82</ns3:hr>
          </ns3:TrackPointExtension>
        </extensions>
      </trkpt>
      <trkpt lat="47.77380184270441532135009765625" lon="12.23455284722149372100830078125">
        <ele>786.20001220703125</ele>
        <time>2020-06-23T15:26:03.000Z</time>
        <extensions>
          <ns3:TrackPointExtension>
            <ns3:atemp>24.0</ns3:atemp>
            <ns3:hr>81</ns3:hr>
          </ns3:TrackPointExtension>
        </extensions>
      </trkpt>
      <trkpt lat="47.77381022460758686065673828125" lon="12.23458729684352874755859375">
        <ele>784</ele>
        <time>2020-06-23T15:26:04.000Z</time>
        <extensions>
          <ns3:TrackPointExtension>
            <ns3:atemp>24.0</ns3:atemp>
            <ns3:hr>82</ns3:hr>
          </ns3:TrackPointExtension>
        </extensions>
      </trkpt>
      <trkpt lat="47.7738401480019092559814453125" lon="12.23463096655905246734619140625">
        <ele>781.79998779296875</ele>
        <time>2020-06-23T15:26:05.000Z</time>
        <extensions>
          <ns3:TrackPointExtension>
            <ns3:atemp>24.0</ns3:atemp>
            <ns3:hr>83</ns3:hr>
          </ns3:TrackPointExtension>
        </extensions>
      </trkpt>
      <trkpt lat="47.77384576387703418731689453125" lon="12.23470305092632770538330078125">
        <ele>779.79998779296875</ele>
        <time>2020-06-23T15:26:06.000Z</time>
        <extensions>
          <ns3:TrackPointExtension>
            <ns3:atemp>24.0</ns3:atemp>
            <ns3:hr>80</ns3:hr>
          </ns3:TrackPointExtension>
        </extensions>
      </trkpt>
      <trkpt lat="47.77379237115383148193359375" lon="12.23478435538709163665771484375">
        <ele>777.20001220703125</ele>
        <time>2020-06-23T15:26:07.000Z</time>
        <extensions>
          <ns3:TrackPointExtension>
            <ns3:atemp>24.0</ns3:atemp>
            <ns3:hr>83</ns3:hr>
          </ns3:TrackPointExtension>
        </extensions>
      </trkpt>
      <trkpt lat="47.773707546293735504150390625" lon="12.23485417664051055908203125">
        <ele>774</ele>
        <time>2020-06-23T15:26:08.000Z</time>
        <extensions>
          <ns3:TrackPointExtension>
            <ns3:atemp>24.0</ns3:atemp>
            <ns3:hr>84</ns3:hr>
          </ns3:TrackPointExtension>
        </extensions>
      </trkpt>
      <trkpt lat="47.77364225126802921295166015625" lon="12.2349165380001068115234375">
        <ele>770.5999755859375</ele>
        <time>2020-06-23T15:26:09.000Z</time>
        <extensions>
          <ns3:TrackPointExtension>
            <ns3:atemp>24.0</ns3:atemp>
            <ns3:hr>84</ns3:hr>
          </ns3:TrackPointExtension>
        </extensions>
      </trkpt>
      <trkpt lat="47.77361609973013401031494140625" lon="12.23497462458908557891845703125">
        <ele>767.5999755859375</ele>
        <time>2020-06-23T15:26:10.000Z</time>
        <extensions>
          <ns3:TrackPointExtension>
            <ns3:atemp>24.0</ns3:atemp>
            <ns3:hr>84</ns3:hr>
          </ns3:TrackPointExtension>
        </extensions>
      </trkpt>
      <trkpt lat="47.773621715605258941650390625" lon="12.23502315580844879150390625">
        <ele>765.20001220703125</ele>
        <time>2020-06-23T15:26:11.000Z</time>
        <extensions>
          <ns3:TrackPointExtension>
            <ns3:atemp>24.0</ns3:atemp>
            <ns3:hr>83</ns3:hr>
          </ns3:TrackPointExtension>
        </extensions>
      </trkpt>
      <trkpt lat="47.7736316062510013580322265625" lon="12.235076129436492919921875">
        <ele>762.79998779296875</ele>
        <time>2020-06-23T15:26:12.000Z</time>
        <extensions>
          <ns3:TrackPointExtension>
            <ns3:atemp>24.0</ns3:atemp>
            <ns3:hr>85</ns3:hr>
          </ns3:TrackPointExtension>
        </extensions>
      </trkpt>
      <trkpt lat="47.773632109165191650390625" lon="12.23512985743582248687744140625">
        <ele>760.5999755859375</ele>
        <time>2020-06-23T15:26:13.000Z</time>
        <extensions>
          <ns3:TrackPointExtension>
            <ns3:atemp>24.0</ns3:atemp>
            <ns3:hr>85</ns3:hr>
          </ns3:TrackPointExtension>
        </extensions>
      </trkpt>
      <trkpt lat="47.773641161620616912841796875" lon="12.23517981357872486114501953125">
        <ele>758.5999755859375</ele>
        <time>2020-06-23T15:26:14.000Z</time>
        <extensions>
          <ns3:TrackPointExtension>
            <ns3:atemp>24.0</ns3:atemp>
            <ns3:hr>84</ns3:hr>
          </ns3:TrackPointExtension>
        </extensions>
      </trkpt>
      <trkpt lat="47.77367175556719303131103515625" lon="12.23521250300109386444091796875">
        <ele>756.79998779296875</ele>
        <time>2020-06-23T15:26:15.000Z</time>
        <extensions>
          <ns3:TrackPointExtension>
            <ns3:atemp>24.0</ns3:atemp>
            <ns3:hr>86</ns3:hr>
          </ns3:TrackPointExtension>
        </extensions>
      </trkpt>
      <trkpt lat="47.77372757904231548309326171875" lon="12.23521200008690357208251953125">
        <ele>754.5999755859375</ele>
        <time>2020-06-23T15:26:16.000Z</time>
        <extensions>
          <ns3:TrackPointExtension>
            <ns3:atemp>24.0</ns3:atemp>
            <ns3:hr>84</ns3:hr>
          </ns3:TrackPointExtension>
        </extensions>
      </trkpt>
      <trkpt lat="47.77379178442060947418212890625" lon="12.23516170866787433624267578125">
        <ele>752.20001220703125</ele>
        <time>2020-06-23T15:26:17.000Z</time>
        <extensions>
          <ns3:TrackPointExtension>
            <ns3:atemp>24.0</ns3:atemp>
            <ns3:hr>86</ns3:hr>
          </ns3:TrackPointExtension>
        </extensions>
      </trkpt>
      <trkpt lat="47.773840315639972686767578125" lon="12.23505307920277118682861328125">
        <ele>749.4000244140625</ele>
        <time>2020-06-23T15:26:18.000Z</time>
        <extensions>
          <ns3:TrackPointExtension>
            <ns3:atemp>24.0</ns3:atemp>
            <ns3:hr>84</ns3:hr>
          </ns3:TrackPointExtension>
        </extensions>
      </trkpt>
      <trkpt lat="47.7738602645695209503173828125" lon="12.2349036298692226409912109375">
        <ele>747</ele>
        <time>2020-06-23T15:26:19.000Z</time>
        <extensions>
          <ns3:TrackPointExtension>
            <ns3:atemp>24.0</ns3:atemp>
            <ns3:hr>85</ns3:hr>
          </ns3:TrackPointExtension>
        </extensions>
      </trkpt>
      <trkpt lat="47.77383117936551570892333984375" lon="12.2347319684922695159912109375">
        <ele>744.5999755859375</ele>
        <time>2020-06-23T15:26:20.000Z</time>
        <extensions>
          <ns3:TrackPointExtension>
            <ns3:atemp>24.0</ns3:atemp>
            <ns3:hr>84</ns3:hr>
          </ns3:TrackPointExtension>
        </extensions>
      </trkpt>
      <trkpt lat="47.77377066202461719512939453125" lon="12.2345747239887714385986328125">
        <ele>742.4000244140625</ele>
        <time>2020-06-23T15:26:21.000Z</time>
        <extensions>
          <ns3:TrackPointExtension>
            <ns3:atemp>24.0</ns3:atemp>
            <ns3:hr>82</ns3:hr>
          </ns3:TrackPointExtension>
        </extensions>
      </trkpt>
      <trkpt lat="47.77369958348572254180908203125" lon="12.23443306982517242431640625">
        <ele>740</ele>
        <time>2020-06-23T15:26:22.000Z</time>
        <extensions>
          <ns3:TrackPointExtension>
            <ns3:atemp>24.0</ns3:atemp>
            <ns3:hr>82</ns3:hr>
          </ns3:TrackPointExtension>
        </extensions>
      </trkpt>
      <trkpt lat="47.77363956905901432037353515625" lon="12.2342991270124912261962890625">
        <ele>737.79998779296875</ele>
        <time>2020-06-23T15:26:23.000Z</time>
        <extensions>
          <ns3:TrackPointExtension>
            <ns3:atemp>24.0</ns3:atemp>
            <ns3:hr>84</ns3:hr>
          </ns3:TrackPointExtension>
        </extensions>
      </trkpt>
      <trkpt lat="47.77358961291611194610595703125" lon="12.23416610620915889739990234375">
        <ele>736</ele>
        <time>2020-06-23T15:26:24.000Z</time>
        <extensions>
          <ns3:TrackPointExtension>
            <ns3:atemp>24.0</ns3:atemp>
            <ns3:hr>83</ns3:hr>
          </ns3:TrackPointExtension>
        </extensions>
      </trkpt>
      <trkpt lat="47.7735461108386516571044921875" lon="12.23402964882552623748779296875">
        <ele>734.4000244140625</ele>
        <time>2020-06-23T15:26:25.000Z</time>
        <extensions>
          <ns3:TrackPointExtension>
            <ns3:atemp>24.0</ns3:atemp>
            <ns3:hr>82</ns3:hr>
          </ns3:TrackPointExtension>
        </extensions>
      </trkpt>
      <trkpt lat="47.77350361458957195281982421875" lon="12.2338840551674365997314453125">
        <ele>732.4000244140625</ele>
        <time>2020-06-23T15:26:26.000Z</time>
        <extensions>
          <ns3:TrackPointExtension>
            <ns3:atemp>24.0</ns3:atemp>
            <ns3:hr>84</ns3:hr>
          </ns3:TrackPointExtension>
        </extensions>
      </trkpt>
      <trkpt lat="47.77346405200660228729248046875" lon="12.23373041488230228424072265625">
        <ele>730.4000244140625</ele>
        <time>2020-06-23T15:26:27.000Z</time>
        <extensions>
          <ns3:TrackPointExtension>
            <ns3:atemp>24.0</ns3:atemp>
            <ns3:hr>86</ns3:hr>
          </ns3:TrackPointExtension>
        </extensions>
      </trkpt>
      <trkpt lat="47.77343287132680416107177734375" lon="12.23357384093105792999267578125">
        <ele>728.20001220703125</ele>
        <time>2020-06-23T15:26:28.000Z</time>
        <extensions>
          <ns3:TrackPointExtension>
            <ns3:atemp>24.0</ns3:atemp>
            <ns3:hr>84</ns3:hr>
          </ns3:TrackPointExtension>
        </extensions>
      </trkpt>
      <trkpt lat="47.77340973727405071258544921875" lon="12.233419530093669891357421875">
        <ele>726</ele>
        <time>2020-06-23T15:26:29.000Z</time>
        <extensions>
          <ns3:TrackPointExtension>
            <ns3:atemp>24.0</ns3:atemp>
            <ns3:hr>85</ns3:hr>
          </ns3:TrackPointExtension>
        </extensions>
      </trkpt>
      <trkpt lat="47.77338869869709014892578125" lon="12.23327075131237506866455078125">
        <ele>724.20001220703125</ele>
        <time>2020-06-23T15:26:30.000Z</time>
        <extensions>
          <ns3:TrackPointExtension>
            <ns3:atemp>24.0</ns3:atemp>
            <ns3:hr>84</ns3:hr>
          </ns3:TrackPointExtension>
        </extensions>
      </trkpt>
      <trkpt lat="47.7733598649501800537109375" lon="12.23312742076814174652099609375">
        <ele>722.4000244140625</ele>
        <time>2020-06-23T15:26:31.000Z</time>
        <extensions>
          <ns3:TrackPointExtension>
            <ns3:atemp>24.0</ns3:atemp>
            <ns3:hr>85</ns3:hr>
          </ns3:TrackPointExtension>
        </extensions>
      </trkpt>
      <trkpt lat="47.773322649300098419189453125" lon="12.23298861645162105560302734375">
        <ele>720.5999755859375</ele>
        <time>2020-06-23T15:26:32.000Z</time>
        <extensions>
          <ns3:TrackPointExtension>
            <ns3:atemp>24.0</ns3:atemp>
            <ns3:hr>86</ns3:hr>
          </ns3:TrackPointExtension>
        </extensions>
      </trkpt>
      <trkpt lat="47.77328006923198699951171875" lon="12.23285148851573467254638671875">
        <ele>718.79998779296875</ele>
        <time>2020-06-23T15:26:33.000Z</time>
        <extensions>
          <ns3:TrackPointExtension>
            <ns3:atemp>24.0</ns3:atemp>
            <ns3:hr>85</ns3:hr>
          </ns3:TrackPointExtension>
        </extensions>
      </trkpt>
      <trkpt lat="47.773235477507114410400390625" lon="12.23271754570305347442626953125">
        <ele>717.20001220703125</ele>
        <time>2020-06-23T15:26:34.000Z</time>
        <extensions>
          <ns3:TrackPointExtension>
            <ns3:atemp>24.0</ns3:atemp>
            <ns3:hr>85</ns3:hr>
          </ns3:TrackPointExtension>
        </extensions>
      </trkpt>
      <trkpt lat="47.773187868297100067138671875" lon="12.232586704194545745849609375">
        <ele>715.5999755859375</ele>
        <time>2020-06-23T15:26:35.000Z</time>
        <extensions>
          <ns3:TrackPointExtension>
            <ns3:atemp>24.0</ns3:atemp>
            <ns3:hr>85</ns3:hr>
          </ns3:TrackPointExtension>
        </extensions>
      </trkpt>
      <trkpt lat="47.77313849888741970062255859375" lon="12.2324557788670063018798828125">
        <ele>714</ele>
        <time>2020-06-23T15:26:36.000Z</time>
        <extensions>
          <ns3:TrackPointExtension>
            <ns3:atemp>24.0</ns3:atemp>
            <ns3:hr>85</ns3:hr>
          </ns3:TrackPointExtension>
        </extensions>
      </trkpt>
      <trkpt lat="47.77308829128742218017578125" lon="12.23232191987335681915283203125">
        <ele>712.20001220703125</ele>
        <time>2020-06-23T15:26:37.000Z</time>
        <extensions>
          <ns3:TrackPointExtension>
            <ns3:atemp>24.0</ns3:atemp>
            <ns3:hr>85</ns3:hr>
          </ns3:TrackPointExtension>
        </extensions>
      </trkpt>
      <trkpt lat="47.77303732931613922119140625" lon="12.23218328319489955902099609375">
        <ele>710.5999755859375</ele>
        <time>2020-06-23T15:26:38.000Z</time>
        <extensions>
          <ns3:TrackPointExtension>
            <ns3:atemp>24.0</ns3:atemp>
            <ns3:hr>85</ns3:hr>
          </ns3:TrackPointExtension>
        </extensions>
      </trkpt>
      <trkpt lat="47.77298578061163425445556640625" lon="12.23204179666936397552490234375">
        <ele>709</ele>
        <time>2020-06-23T15:26:39.000Z</time>
        <extensions>
          <ns3:TrackPointExtension>
            <ns3:atemp>24.0</ns3:atemp>
            <ns3:hr>85</ns3:hr>
          </ns3:TrackPointExtension>
        </extensions>
      </trkpt>
      <trkpt lat="47.77293448336422443389892578125" lon="12.23190500400960445404052734375">
        <ele>707.5999755859375</ele>
        <time>2020-06-23T15:26:40.000Z</time>
        <extensions>
          <ns3:TrackPointExtension>
            <ns3:atemp>24.0</ns3:atemp>
            <ns3:hr>85</ns3:hr>
          </ns3:TrackPointExtension>
        </extensions>
      </trkpt>
      <trkpt lat="47.77288318611681461334228515625" lon="12.23177768290042877197265625">
        <ele>706.4000244140625</ele>
        <time>2020-06-23T15:26:41.000Z</time>
        <extensions>
          <ns3:TrackPointExtension>
            <ns3:atemp>24.0</ns3:atemp>
            <ns3:hr>85</ns3:hr>
          </ns3:TrackPointExtension>
        </extensions>
      </trkpt>
      <trkpt lat="47.77276634238660335540771484375" lon="12.23153502680361270904541015625">
        <ele>704.5999755859375</ele>
        <time>2020-06-23T15:26:43.000Z</time>
        <extensions>
          <ns3:TrackPointExtension>
            <ns3:atemp>24.0</ns3:atemp>
            <ns3:hr>87</ns3:hr>
          </ns3:TrackPointExtension>
        </extensions>
      </trkpt>
      <trkpt lat="47.77269459329545497894287109375" lon="12.23141533322632312774658203125">
        <ele>703.20001220703125</ele>
        <time>2020-06-23T15:26:44.000Z</time>
        <extensions>
          <ns3:TrackPointExtension>
            <ns3:atemp>24.0</ns3:atemp>
            <ns3:hr>85</ns3:hr>
          </ns3:TrackPointExtension>
        </extensions>
      </trkpt>
      <trkpt lat="47.7726170606911182403564453125" lon="12.23130200989544391632080078125">
        <ele>701.5999755859375</ele>
        <time>2020-06-23T15:26:45.000Z</time>
        <extensions>
          <ns3:TrackPointExtension>
            <ns3:atemp>24.0</ns3:atemp>
            <ns3:hr>86</ns3:hr>
          </ns3:TrackPointExtension>
        </extensions>
      </trkpt>
      <trkpt lat="47.77253885753452777862548828125" lon="12.23120234906673431396484375">
        <ele>700</ele>
        <time>2020-06-23T15:26:46.000Z</time>
        <extensions>
          <ns3:TrackPointExtension>
            <ns3:atemp>24.0</ns3:atemp>
            <ns3:hr>85</ns3:hr>
          </ns3:TrackPointExtension>
        </extensions>
      </trkpt>
      <trkpt lat="47.77246065437793731689453125" lon="12.23111995495855808258056640625">
        <ele>698.4000244140625</ele>
        <time>2020-06-23T15:26:47.000Z</time>
        <extensions>
          <ns3:TrackPointExtension>
            <ns3:atemp>24.0</ns3:atemp>
            <ns3:hr>87</ns3:hr>
          </ns3:TrackPointExtension>
        </extensions>
      </trkpt>
      <trkpt lat="47.7723781764507293701171875" lon="12.23106287419795989990234375">
        <ele>697</ele>
        <time>2020-06-23T15:26:48.000Z</time>
        <extensions>
          <ns3:TrackPointExtension>
            <ns3:atemp>24.0</ns3:atemp>
            <ns3:hr>84</ns3:hr>
          </ns3:TrackPointExtension>
        </extensions>
      </trkpt>
      <trkpt lat="47.7722923457622528076171875" lon="12.23103529773652553558349609375">
        <ele>695.79998779296875</ele>
        <time>2020-06-23T15:26:49.000Z</time>
        <extensions>
          <ns3:TrackPointExtension>
            <ns3:atemp>24.0</ns3:atemp>
            <ns3:hr>85</ns3:hr>
          </ns3:TrackPointExtension>
        </extensions>
      </trkpt>
      <trkpt lat="47.772214896976947784423828125" lon="12.23106019198894500732421875">
        <ele>694.5999755859375</ele>
        <time>2020-06-23T15:26:50.000Z</time>
        <extensions>
          <ns3:TrackPointExtension>
            <ns3:atemp>24.0</ns3:atemp>
            <ns3:hr>85</ns3:hr>
          </ns3:TrackPointExtension>
        </extensions>
      </trkpt>
      <trkpt lat="47.7721711434423923492431640625" lon="12.23113789223134517669677734375">
        <ele>692.79998779296875</ele>
        <time>2020-06-23T15:26:51.000Z</time>
        <extensions>
          <ns3:TrackPointExtension>
            <ns3:atemp>24.0</ns3:atemp>
            <ns3:hr>85</ns3:hr>
          </ns3:TrackPointExtension>
        </extensions>
      </trkpt>
      <trkpt lat="47.772181034088134765625" lon="12.2312199510633945465087890625">
        <ele>690.79998779296875</ele>
        <time>2020-06-23T15:26:52.000Z</time>
        <extensions>
          <ns3:TrackPointExtension>
            <ns3:atemp>24.0</ns3:atemp>
            <ns3:hr>84</ns3:hr>
          </ns3:TrackPointExtension>
        </extensions>
      </trkpt>
      <trkpt lat="47.77222218923270702362060546875" lon="12.23127066157758235931396484375">
        <ele>688.79998779296875</ele>
        <time>2020-06-23T15:26:53.000Z</time>
        <extensions>
          <ns3:TrackPointExtension>
            <ns3:atemp>24.0</ns3:atemp>
            <ns3:hr>84</ns3:hr>
          </ns3:TrackPointExtension>
        </extensions>
      </trkpt>
      <trkpt lat="47.77228404767811298370361328125" lon="12.2312585078179836273193359375">
        <ele>686.79998779296875</ele>
        <time>2020-06-23T15:26:54.000Z</time>
        <extensions>
          <ns3:TrackPointExtension>
            <ns3:atemp>24.0</ns3:atemp>
            <ns3:hr>79</ns3:hr>
          </ns3:TrackPointExtension>
        </extensions>
      </trkpt>
      <trkpt lat="47.77236141264438629150390625" lon="12.23115541040897369384765625">
        <ele>684.5999755859375</ele>
        <time>2020-06-23T15:26:55.000Z</time>
        <extensions>
          <ns3:TrackPointExtension>
            <ns3:atemp>24.0</ns3:atemp>
            <ns3:hr>80</ns3:hr>
          </ns3:TrackPointExtension>
        </extensions>
      </trkpt>
      <trkpt lat="47.7724034897983074188232421875" lon="12.231031022965908050537109375">
        <ele>683</ele>
        <time>2020-06-23T15:26:56.000Z</time>
        <extensions>
          <ns3:TrackPointExtension>
            <ns3:atemp>24.0</ns3:atemp>
            <ns3:hr>78</ns3:hr>
          </ns3:TrackPointExtension>
        </extensions>
      </trkpt>
      <trkpt lat="47.77242218144237995147705078125" lon="12.23090822808444499969482421875">
        <ele>681.79998779296875</ele>
        <time>2020-06-23T15:26:57.000Z</time>
        <extensions>
          <ns3:TrackPointExtension>
            <ns3:atemp>24.0</ns3:atemp>
            <ns3:hr>77</ns3:hr>
          </ns3:TrackPointExtension>
        </extensions>
      </trkpt>
      <trkpt lat="47.77243391610682010650634765625" lon="12.23077713511884212493896484375">
        <ele>680.79998779296875</ele>
        <time>2020-06-23T15:26:58.000Z</time>
        <extensions>
          <ns3:TrackPointExtension>
            <ns3:atemp>24.0</ns3:atemp>
            <ns3:hr>74</ns3:hr>
          </ns3:TrackPointExtension>
        </extensions>
      </trkpt>
      <trkpt lat="47.772418744862079620361328125" lon="12.23062726669013500213623046875">
        <ele>679.79998779296875</ele>
        <time>2020-06-23T15:26:59.000Z</time>
        <extensions>
          <ns3:TrackPointExtension>
            <ns3:atemp>24.0</ns3:atemp>
            <ns3:hr>73</ns3:hr>
          </ns3:TrackPointExtension>
        </extensions>
      </trkpt>
      <trkpt lat="47.77237339876592159271240234375" lon="12.23047354258596897125244140625">
        <ele>678.20001220703125</ele>
        <time>2020-06-23T15:27:00.000Z</time>
        <extensions>
          <ns3:TrackPointExtension>
            <ns3:atemp>24.0</ns3:atemp>
            <ns3:hr>72</ns3:hr>
          </ns3:TrackPointExtension>
        </extensions>
      </trkpt>
      <trkpt lat="47.772288657724857330322265625" lon="12.230353094637393951416015625">
        <ele>676</ele>
        <time>2020-06-23T15:27:01.000Z</time>
        <extensions>
          <ns3:TrackPointExtension>
            <ns3:atemp>24.0</ns3:atemp>
            <ns3:hr>74</ns3:hr>
          </ns3:TrackPointExtension>
        </extensions>
      </trkpt>
      <trkpt lat="47.77217634022235870361328125" lon="12.23029400222003459930419921875">
        <ele>674</ele>
        <time>2020-06-23T15:27:02.000Z</time>
        <extensions>
          <ns3:TrackPointExtension>
            <ns3:atemp>24.0</ns3:atemp>
            <ns3:hr>73</ns3:hr>
          </ns3:TrackPointExtension>
        </extensions>
      </trkpt>
      <trkpt lat="47.77207030914723873138427734375" lon="12.23029148764908313751220703125">
        <ele>672.4000244140625</ele>
        <time>2020-06-23T15:27:03.000Z</time>
        <extensions>
          <ns3:TrackPointExtension>
            <ns3:atemp>24.0</ns3:atemp>
            <ns3:hr>74</ns3:hr>
          </ns3:TrackPointExtension>
        </extensions>
      </trkpt>
      <trkpt lat="47.77189395390450954437255859375" lon="12.23032065667212009429931640625">
        <ele>671</ele>
        <time>2020-06-23T15:27:05.000Z</time>
        <extensions>
          <ns3:TrackPointExtension>
            <ns3:atemp>24.0</ns3:atemp>
            <ns3:hr>74</ns3:hr>
          </ns3:TrackPointExtension>
        </extensions>
      </trkpt>
      <trkpt lat="47.77180912904441356658935546875" lon="12.2302999533712863922119140625">
        <ele>670.20001220703125</ele>
        <time>2020-06-23T15:27:06.000Z</time>
        <extensions>
          <ns3:TrackPointExtension>
            <ns3:atemp>24.0</ns3:atemp>
            <ns3:hr>73</ns3:hr>
          </ns3:TrackPointExtension>
        </extensions>
      </trkpt>
      <trkpt lat="47.7717238850891590118408203125" lon="12.23027564585208892822265625">
        <ele>669.79998779296875</ele>
        <time>2020-06-23T15:27:07.000Z</time>
        <extensions>
          <ns3:TrackPointExtension>
            <ns3:atemp>24.0</ns3:atemp>
            <ns3:hr>74</ns3:hr>
          </ns3:TrackPointExtension>
        </extensions>
      </trkpt>
      <trkpt lat="47.771636880934238433837890625" lon="12.2302600555121898651123046875">
        <ele>669.4000244140625</ele>
        <time>2020-06-23T15:27:08.000Z</time>
        <extensions>
          <ns3:TrackPointExtension>
            <ns3:atemp>24.0</ns3:atemp>
            <ns3:hr>74</ns3:hr>
          </ns3:TrackPointExtension>
        </extensions>
      </trkpt>
      <trkpt lat="47.77146278880536556243896484375" lon="12.23023097030818462371826171875">
        <ele>668.5999755859375</ele>
        <time>2020-06-23T15:27:10.000Z</time>
        <extensions>
          <ns3:TrackPointExtension>
            <ns3:atemp>24.0</ns3:atemp>
            <ns3:hr>72</ns3:hr>
          </ns3:TrackPointExtension>
        </extensions>
      </trkpt>
      <trkpt lat="47.77137561701238155364990234375" lon="12.2301916591823101043701171875">
        <ele>667.79998779296875</ele>
        <time>2020-06-23T15:27:11.000Z</time>
        <extensions>
          <ns3:TrackPointExtension>
            <ns3:atemp>24.0</ns3:atemp>
            <ns3:hr>72</ns3:hr>
          </ns3:TrackPointExtension>
        </extensions>
      </trkpt>
      <trkpt lat="47.7712846733629703521728515625" lon="12.23014279268682003021240234375">
        <ele>666.5999755859375</ele>
        <time>2020-06-23T15:27:12.000Z</time>
        <extensions>
          <ns3:TrackPointExtension>
            <ns3:atemp>24.0</ns3:atemp>
            <ns3:hr>73</ns3:hr>
          </ns3:TrackPointExtension>
        </extensions>
      </trkpt>
      <trkpt lat="47.771189622581005096435546875" lon="12.23010406829416751861572265625">
        <ele>665.4000244140625</ele>
        <time>2020-06-23T15:27:13.000Z</time>
        <extensions>
          <ns3:TrackPointExtension>
            <ns3:atemp>24.0</ns3:atemp>
            <ns3:hr>75</ns3:hr>
          </ns3:TrackPointExtension>
        </extensions>
      </trkpt>
      <trkpt lat="47.77109247632324695587158203125" lon="12.23007925786077976226806640625">
        <ele>664</ele>
        <time>2020-06-23T15:27:14.000Z</time>
        <extensions>
          <ns3:TrackPointExtension>
            <ns3:atemp>24.0</ns3:atemp>
            <ns3:hr>75</ns3:hr>
          </ns3:TrackPointExtension>
        </extensions>
      </trkpt>
      <trkpt lat="47.77099750936031341552734375" lon="12.23006266169250011444091796875">
        <ele>662.5999755859375</ele>
        <time>2020-06-23T15:27:15.000Z</time>
        <extensions>
          <ns3:TrackPointExtension>
            <ns3:atemp>24.0</ns3:atemp>
            <ns3:hr>73</ns3:hr>
          </ns3:TrackPointExtension>
        </extensions>
      </trkpt>
      <trkpt lat="47.7709088288247585296630859375" lon="12.23005712963640689849853515625">
        <ele>661.20001220703125</ele>
        <time>2020-06-23T15:27:16.000Z</time>
        <extensions>
          <ns3:TrackPointExtension>
            <ns3:atemp>24.0</ns3:atemp>
            <ns3:hr>74</ns3:hr>
          </ns3:TrackPointExtension>
        </extensions>
      </trkpt>
      <trkpt lat="47.77083196677267551422119140625" lon="12.23007448017597198486328125">
        <ele>660</ele>
        <time>2020-06-23T15:27:17.000Z</time>
        <extensions>
          <ns3:TrackPointExtension>
            <ns3:atemp>24.0</ns3:atemp>
            <ns3:hr>74</ns3:hr>
          </ns3:TrackPointExtension>
        </extensions>
      </trkpt>
      <trkpt lat="47.77077061124145984649658203125" lon="12.2301276214420795440673828125">
        <ele>658.79998779296875</ele>
        <time>2020-06-23T15:27:18.000Z</time>
        <extensions>
          <ns3:TrackPointExtension>
            <ns3:atemp>24.0</ns3:atemp>
            <ns3:hr>75</ns3:hr>
          </ns3:TrackPointExtension>
        </extensions>
      </trkpt>
      <trkpt lat="47.7707237564027309417724609375" lon="12.2302054055035114288330078125">
        <ele>657.20001220703125</ele>
        <time>2020-06-23T15:27:19.000Z</time>
        <extensions>
          <ns3:TrackPointExtension>
            <ns3:atemp>24.0</ns3:atemp>
            <ns3:hr>75</ns3:hr>
          </ns3:TrackPointExtension>
        </extensions>
      </trkpt>
      <trkpt lat="47.77068025432527065277099609375" lon="12.23028025589883327484130859375">
        <ele>655.4000244140625</ele>
        <time>2020-06-23T15:27:20.000Z</time>
        <extensions>
          <ns3:TrackPointExtension>
            <ns3:atemp>24.0</ns3:atemp>
            <ns3:hr>76</ns3:hr>
          </ns3:TrackPointExtension>
        </extensions>
      </trkpt>
      <trkpt lat="47.77063080109655857086181640625" lon="12.230336666107177734375">
        <ele>654</ele>
        <time>2020-06-23T15:27:21.000Z</time>
        <extensions>
          <ns3:TrackPointExtension>
            <ns3:atemp>24.0</ns3:atemp>
            <ns3:hr>75</ns3:hr>
          </ns3:TrackPointExtension>
        </extensions>
      </trkpt>
      <trkpt lat="47.77057900093495845794677734375" lon="12.230383940041065216064453125">
        <ele>652.5999755859375</ele>
        <time>2020-06-23T15:27:22.000Z</time>
        <extensions>
          <ns3:TrackPointExtension>
            <ns3:atemp>24.0</ns3:atemp>
            <ns3:hr>76</ns3:hr>
          </ns3:TrackPointExtension>
        </extensions>
      </trkpt>
      <trkpt lat="47.7705313079059123992919921875" lon="12.23043649457395076751708984375">
        <ele>651.20001220703125</ele>
        <time>2020-06-23T15:27:23.000Z</time>
        <extensions>
          <ns3:TrackPointExtension>
            <ns3:atemp>24.0</ns3:atemp>
            <ns3:hr>75</ns3:hr>
          </ns3:TrackPointExtension>
        </extensions>
      </trkpt>
      <trkpt lat="47.7704853750765323638916015625" lon="12.23050137050449848175048828125">
        <ele>649.5999755859375</ele>
        <time>2020-06-23T15:27:24.000Z</time>
        <extensions>
          <ns3:TrackPointExtension>
            <ns3:atemp>24.0</ns3:atemp>
            <ns3:hr>73</ns3:hr>
          </ns3:TrackPointExtension>
        </extensions>
      </trkpt>
      <trkpt lat="47.77043852023780345916748046875" lon="12.23057211376726627349853515625">
        <ele>648</ele>
        <time>2020-06-23T15:27:25.000Z</time>
        <extensions>
          <ns3:TrackPointExtension>
            <ns3:atemp>24.0</ns3:atemp>
            <ns3:hr>73</ns3:hr>
          </ns3:TrackPointExtension>
        </extensions>
      </trkpt>
      <trkpt lat="47.7703904919326305389404296875" lon="12.230638749897480010986328125">
        <ele>646.20001220703125</ele>
        <time>2020-06-23T15:27:26.000Z</time>
        <extensions>
          <ns3:TrackPointExtension>
            <ns3:atemp>24.0</ns3:atemp>
            <ns3:hr>74</ns3:hr>
          </ns3:TrackPointExtension>
        </extensions>
      </trkpt>
      <trkpt lat="47.77034707367420196533203125" lon="12.230699099600315093994140625">
        <ele>644.5999755859375</ele>
        <time>2020-06-23T15:27:27.000Z</time>
        <extensions>
          <ns3:TrackPointExtension>
            <ns3:atemp>24.0</ns3:atemp>
            <ns3:hr>73</ns3:hr>
          </ns3:TrackPointExtension>
        </extensions>
      </trkpt>
      <trkpt lat="47.7703093551099300384521484375" lon="12.23075634799897670745849609375">
        <ele>643.4000244140625</ele>
        <time>2020-06-23T15:27:28.000Z</time>
        <extensions>
          <ns3:TrackPointExtension>
            <ns3:atemp>24.0</ns3:atemp>
            <ns3:hr>72</ns3:hr>
          </ns3:TrackPointExtension>
        </extensions>
      </trkpt>
      <trkpt lat="47.77027021162211894989013671875" lon="12.23081535659730434417724609375">
        <ele>642.20001220703125</ele>
        <time>2020-06-23T15:27:29.000Z</time>
        <extensions>
          <ns3:TrackPointExtension>
            <ns3:atemp>24.0</ns3:atemp>
            <ns3:hr>71</ns3:hr>
          </ns3:TrackPointExtension>
        </extensions>
      </trkpt>
      <trkpt lat="47.77022109366953372955322265625" lon="12.23087704740464687347412109375">
        <ele>640.79998779296875</ele>
        <time>2020-06-23T15:27:30.000Z</time>
        <extensions>
          <ns3:TrackPointExtension>
            <ns3:atemp>24.0</ns3:atemp>
            <ns3:hr>70</ns3:hr>
          </ns3:TrackPointExtension>
        </extensions>
      </trkpt>
      <trkpt lat="47.7701651863753795623779296875" lon="12.23093949258327484130859375">
        <ele>639.20001220703125</ele>
        <time>2020-06-23T15:27:31.000Z</time>
        <extensions>
          <ns3:TrackPointExtension>
            <ns3:atemp>24.0</ns3:atemp>
            <ns3:hr>69</ns3:hr>
          </ns3:TrackPointExtension>
        </extensions>
      </trkpt>
      <trkpt lat="47.7701095305383205413818359375" lon="12.23100327886641025543212890625">
        <ele>637.79998779296875</ele>
        <time>2020-06-23T15:27:32.000Z</time>
        <extensions>
          <ns3:TrackPointExtension>
            <ns3:atemp>24.0</ns3:atemp>
            <ns3:hr>71</ns3:hr>
          </ns3:TrackPointExtension>
        </extensions>
      </trkpt>
      <trkpt lat="47.77005982585251331329345703125" lon="12.23106916062533855438232421875">
        <ele>636.4000244140625</ele>
        <time>2020-06-23T15:27:33.000Z</time>
        <extensions>
          <ns3:TrackPointExtension>
            <ns3:atemp>24.0</ns3:atemp>
            <ns3:hr>71</ns3:hr>
          </ns3:TrackPointExtension>
        </extensions>
      </trkpt>
      <trkpt lat="47.7700138092041015625" lon="12.2311351262032985687255859375">
        <ele>635</ele>
        <time>2020-06-23T15:27:34.000Z</time>
        <extensions>
          <ns3:TrackPointExtension>
            <ns3:atemp>24.0</ns3:atemp>
            <ns3:hr>70</ns3:hr>
          </ns3:TrackPointExtension>
        </extensions>
      </trkpt>
      <trkpt lat="47.76996578089892864227294921875" lon="12.2311988286674022674560546875">
        <ele>633.4000244140625</ele>
        <time>2020-06-23T15:27:35.000Z</time>
        <extensions>
          <ns3:TrackPointExtension>
            <ns3:atemp>24.0</ns3:atemp>
            <ns3:hr>68</ns3:hr>
          </ns3:TrackPointExtension>
        </extensions>
      </trkpt>
      <trkpt lat="47.76991792023181915283203125" lon="12.23126211203634738922119140625">
        <ele>631.79998779296875</ele>
        <time>2020-06-23T15:27:36.000Z</time>
        <extensions>
          <ns3:TrackPointExtension>
            <ns3:atemp>24.0</ns3:atemp>
            <ns3:hr>69</ns3:hr>
          </ns3:TrackPointExtension>
        </extensions>
      </trkpt>
      <trkpt lat="47.7698781900107860565185546875" lon="12.231328077614307403564453125">
        <ele>630.4000244140625</ele>
        <time>2020-06-23T15:27:37.000Z</time>
        <extensions>
          <ns3:TrackPointExtension>
            <ns3:atemp>24.0</ns3:atemp>
            <ns3:hr>69</ns3:hr>
          </ns3:TrackPointExtension>
        </extensions>
      </trkpt>
      <trkpt lat="47.769861929118633270263671875" lon="12.23140544258058071136474609375">
        <ele>628.79998779296875</ele>
        <time>2020-06-23T15:27:38.000Z</time>
        <extensions>
          <ns3:TrackPointExtension>
            <ns3:atemp>24.0</ns3:atemp>
            <ns3:hr>70</ns3:hr>
          </ns3:TrackPointExtension>
        </extensions>
      </trkpt>
      <trkpt lat="47.76986829936504364013671875" lon="12.2314787842333316802978515625">
        <ele>627</ele>
        <time>2020-06-23T15:27:39.000Z</time>
        <extensions>
          <ns3:TrackPointExtension>
            <ns3:atemp>24.0</ns3:atemp>
            <ns3:hr>71</ns3:hr>
          </ns3:TrackPointExtension>
        </extensions>
      </trkpt>
      <trkpt lat="47.76989688165485858917236328125" lon="12.23153921775519847869873046875">
        <ele>625.20001220703125</ele>
        <time>2020-06-23T15:27:40.000Z</time>
        <extensions>
          <ns3:TrackPointExtension>
            <ns3:atemp>24.0</ns3:atemp>
            <ns3:hr>70</ns3:hr>
          </ns3:TrackPointExtension>
        </extensions>
      </trkpt>
      <trkpt lat="47.76993560604751110076904296875" lon="12.2315743379294872283935546875">
        <ele>623.5999755859375</ele>
        <time>2020-06-23T15:27:41.000Z</time>
        <extensions>
          <ns3:TrackPointExtension>
            <ns3:atemp>24.0</ns3:atemp>
            <ns3:hr>72</ns3:hr>
          </ns3:TrackPointExtension>
        </extensions>
      </trkpt>
      <trkpt lat="47.76997156441211700439453125" lon="12.2315978072583675384521484375">
        <ele>622.20001220703125</ele>
        <time>2020-06-23T15:27:42.000Z</time>
        <extensions>
          <ns3:TrackPointExtension>
            <ns3:atemp>24.0</ns3:atemp>
            <ns3:hr>73</ns3:hr>
          </ns3:TrackPointExtension>
        </extensions>
      </trkpt>
      <trkpt lat="47.770002074539661407470703125" lon="12.2316206060349941253662109375">
        <ele>620.79998779296875</ele>
        <time>2020-06-23T15:27:43.000Z</time>
        <extensions>
          <ns3:TrackPointExtension>
            <ns3:atemp>24.0</ns3:atemp>
            <ns3:hr>70</ns3:hr>
          </ns3:TrackPointExtension>
        </extensions>
      </trkpt>
      <trkpt lat="47.77002696879208087921142578125" lon="12.23164885304868221282958984375">
        <ele>619.5999755859375</ele>
        <time>2020-06-23T15:27:44.000Z</time>
        <extensions>
          <ns3:TrackPointExtension>
            <ns3:atemp>24.0</ns3:atemp>
            <ns3:hr>71</ns3:hr>
          </ns3:TrackPointExtension>
        </extensions>
      </trkpt>
      <trkpt lat="47.7700505219399929046630859375" lon="12.23167953081429004669189453125">
        <ele>618.4000244140625</ele>
        <time>2020-06-23T15:27:45.000Z</time>
        <extensions>
          <ns3:TrackPointExtension>
            <ns3:atemp>24.0</ns3:atemp>
            <ns3:hr>70</ns3:hr>
          </ns3:TrackPointExtension>
        </extensions>
      </trkpt>
      <trkpt lat="47.77007927186787128448486328125" lon="12.23170668818056583404541015625">
        <ele>616.79998779296875</ele>
        <time>2020-06-23T15:27:46.000Z</time>
        <extensions>
          <ns3:TrackPointExtension>
            <ns3:atemp>24.0</ns3:atemp>
            <ns3:hr>70</ns3:hr>
          </ns3:TrackPointExtension>
        </extensions>
      </trkpt>
      <trkpt lat="47.77011531405150890350341796875" lon="12.23173149861395359039306640625">
        <ele>615.20001220703125</ele>
        <time>2020-06-23T15:27:47.000Z</time>
        <extensions>
          <ns3:TrackPointExtension>
            <ns3:atemp>24.0</ns3:atemp>
            <ns3:hr>72</ns3:hr>
          </ns3:TrackPointExtension>
        </extensions>
      </trkpt>
      <trkpt lat="47.770154289901256561279296875" lon="12.23175748251378536224365234375">
        <ele>613.4000244140625</ele>
        <time>2020-06-23T15:27:48.000Z</time>
        <extensions>
          <ns3:TrackPointExtension>
            <ns3:atemp>24.0</ns3:atemp>
            <ns3:hr>71</ns3:hr>
          </ns3:TrackPointExtension>
        </extensions>
      </trkpt>
      <trkpt lat="47.77019510976970195770263671875" lon="12.2317919321358203887939453125">
        <ele>611.79998779296875</ele>
        <time>2020-06-23T15:27:49.000Z</time>
        <extensions>
          <ns3:TrackPointExtension>
            <ns3:atemp>25.0</ns3:atemp>
            <ns3:hr>71</ns3:hr>
          </ns3:TrackPointExtension>
        </extensions>
      </trkpt>
      <trkpt lat="47.7702366001904010772705078125" lon="12.23183124326169490814208984375">
        <ele>610.4000244140625</ele>
        <time>2020-06-23T15:27:50.000Z</time>
        <extensions>
          <ns3:TrackPointExtension>
            <ns3:atemp>25.0</ns3:atemp>
            <ns3:hr>72</ns3:hr>
          </ns3:TrackPointExtension>
        </extensions>
      </trkpt>
      <trkpt lat="47.77027708478271961212158203125" lon="12.23186208866536617279052734375">
        <ele>609</ele>
        <time>2020-06-23T15:27:51.000Z</time>
        <extensions>
          <ns3:TrackPointExtension>
            <ns3:atemp>25.0</ns3:atemp>
            <ns3:hr>72</ns3:hr>
          </ns3:TrackPointExtension>
        </extensions>
      </trkpt>
      <trkpt lat="47.77031413279473781585693359375" lon="12.23186778835952281951904296875">
        <ele>607.79998779296875</ele>
        <time>2020-06-23T15:27:52.000Z</time>
        <extensions>
          <ns3:TrackPointExtension>
            <ns3:atemp>25.0</ns3:atemp>
            <ns3:hr>74</ns3:hr>
          </ns3:TrackPointExtension>
        </extensions>
      </trkpt>
      <trkpt lat="47.77037917636334896087646484375" lon="12.23183392547070980072021484375">
        <ele>606</ele>
        <time>2020-06-23T15:27:54.000Z</time>
        <extensions>
          <ns3:TrackPointExtension>
            <ns3:atemp>25.0</ns3:atemp>
            <ns3:hr>74</ns3:hr>
          </ns3:TrackPointExtension>
        </extensions>
      </trkpt>
      <trkpt lat="47.770404405891895294189453125" lon="12.2318321652710437774658203125">
        <ele>605</ele>
        <time>2020-06-23T15:27:55.000Z</time>
        <extensions>
          <ns3:TrackPointExtension>
            <ns3:atemp>25.0</ns3:atemp>
            <ns3:hr>73</ns3:hr>
          </ns3:TrackPointExtension>
        </extensions>
      </trkpt>
      <trkpt lat="47.77041907422244548797607421875" lon="12.23183803260326385498046875">
        <ele>604</ele>
        <time>2020-06-23T15:27:56.000Z</time>
        <extensions>
          <ns3:TrackPointExtension>
            <ns3:atemp>25.0</ns3:atemp>
            <ns3:hr>74</ns3:hr>
          </ns3:TrackPointExtension>
        </extensions>
      </trkpt>
      <trkpt lat="47.77042427100241184234619140625" lon="12.23183308728039264678955078125">
        <ele>602.79998779296875</ele>
        <time>2020-06-23T15:27:58.000Z</time>
        <extensions>
          <ns3:TrackPointExtension>
            <ns3:atemp>25.0</ns3:atemp>
            <ns3:hr>73</ns3:hr>
          </ns3:TrackPointExtension>
        </extensions>
      </trkpt>
      <trkpt lat="47.770426534116268157958984375" lon="12.23183861933648586273193359375">
        <ele>602.20001220703125</ele>
        <time>2020-06-23T15:28:00.000Z</time>
        <extensions>
          <ns3:TrackPointExtension>
            <ns3:atemp>25.0</ns3:atemp>
            <ns3:hr>72</ns3:hr>
          </ns3:TrackPointExtension>
        </extensions>
      </trkpt>
      <trkpt lat="47.7704340778291225433349609375" lon="12.23186007700860500335693359375">
        <ele>601.79998779296875</ele>
        <time>2020-06-23T15:28:03.000Z</time>
        <extensions>
          <ns3:TrackPointExtension>
            <ns3:atemp>25.0</ns3:atemp>
            <ns3:hr>73</ns3:hr>
          </ns3:TrackPointExtension>
        </extensions>
      </trkpt>
      <trkpt lat="47.77043801732361316680908203125" lon="12.2318787686526775360107421875">
        <ele>601.5999755859375</ele>
        <time>2020-06-23T15:28:06.000Z</time>
        <extensions>
          <ns3:TrackPointExtension>
            <ns3:atemp>25.0</ns3:atemp>
            <ns3:hr>76</ns3:hr>
          </ns3:TrackPointExtension>
        </extensions>
      </trkpt>
      <trkpt lat="47.77044229209423065185546875" lon="12.23188170231878757476806640625">
        <ele>601.5999755859375</ele>
        <time>2020-06-23T15:28:07.000Z</time>
        <extensions>
          <ns3:TrackPointExtension>
            <ns3:atemp>25.0</ns3:atemp>
            <ns3:hr>80</ns3:hr>
          </ns3:TrackPointExtension>
        </extensions>
      </trkpt>
      <trkpt lat="47.77044690214097499847412109375" lon="12.23188052885234355926513671875">
        <ele>601.5999755859375</ele>
        <time>2020-06-23T15:28:08.000Z</time>
        <extensions>
          <ns3:TrackPointExtension>
            <ns3:atemp>25.0</ns3:atemp>
            <ns3:hr>78</ns3:hr>
          </ns3:TrackPointExtension>
        </extensions>
      </trkpt>
      <trkpt lat="47.77045243419706821441650390625" lon="12.23187633790075778961181640625">
        <ele>601.79998779296875</ele>
        <time>2020-06-23T15:28:09.000Z</time>
        <extensions>
          <ns3:TrackPointExtension>
            <ns3:atemp>25.0</ns3:atemp>
            <ns3:hr>80</ns3:hr>
          </ns3:TrackPointExtension>
        </extensions>
      </trkpt>
      <trkpt lat="47.77045838534832000732421875" lon="12.231871895492076873779296875">
        <ele>602</ele>
        <time>2020-06-23T15:28:10.000Z</time>
        <extensions>
          <ns3:TrackPointExtension>
            <ns3:atemp>25.0</ns3:atemp>
            <ns3:hr>84</ns3:hr>
          </ns3:TrackPointExtension>
        </extensions>
      </trkpt>
      <trkpt lat="47.770464085042476654052734375" lon="12.23186711780726909637451171875">
        <ele>602</ele>
        <time>2020-06-23T15:28:11.000Z</time>
        <extensions>
          <ns3:TrackPointExtension>
            <ns3:atemp>25.0</ns3:atemp>
            <ns3:hr>83</ns3:hr>
          </ns3:TrackPointExtension>
        </extensions>
      </trkpt>
      <trkpt lat="47.77047154493629932403564453125" lon="12.23186057992279529571533203125">
        <ele>602.20001220703125</ele>
        <time>2020-06-23T15:28:12.000Z</time>
        <extensions>
          <ns3:TrackPointExtension>
            <ns3:atemp>25.0</ns3:atemp>
            <ns3:hr>83</ns3:hr>
          </ns3:TrackPointExtension>
        </extensions>
      </trkpt>
      <trkpt lat="47.7704833634197711944580078125" lon="12.231832332909107208251953125">
        <ele>602.20001220703125</ele>
        <time>2020-06-23T15:28:14.000Z</time>
        <extensions>
          <ns3:TrackPointExtension>
            <ns3:atemp>25.0</ns3:atemp>
            <ns3:hr>85</ns3:hr>
          </ns3:TrackPointExtension>
        </extensions>
      </trkpt>
      <trkpt lat="47.77048747055232524871826171875" lon="12.2318328358232975006103515625">
        <ele>602.20001220703125</ele>
        <time>2020-06-23T15:28:16.000Z</time>
        <extensions>
          <ns3:TrackPointExtension>
            <ns3:atemp>25.0</ns3:atemp>
            <ns3:hr>88</ns3:hr>
          </ns3:TrackPointExtension>
        </extensions>
      </trkpt>
      <trkpt lat="47.77048931457102298736572265625" lon="12.231829650700092315673828125">
        <ele>602.4000244140625</ele>
        <time>2020-06-23T15:28:18.000Z</time>
        <extensions>
          <ns3:TrackPointExtension>
            <ns3:atemp>25.0</ns3:atemp>
            <ns3:hr>89</ns3:hr>
          </ns3:TrackPointExtension>
        </extensions>
      </trkpt>
      <trkpt lat="47.77049065567553043365478515625" lon="12.23182822577655315399169921875">
        <ele>602.4000244140625</ele>
        <time>2020-06-23T15:28:21.000Z</time>
        <extensions>
          <ns3:TrackPointExtension>
            <ns3:atemp>25.0</ns3:atemp>
            <ns3:hr>92</ns3:hr>
          </ns3:TrackPointExtension>
        </extensions>
      </trkpt>
      <trkpt lat="47.7704883925616741180419921875" lon="12.23182084970176219940185546875">
        <ele>602.79998779296875</ele>
        <time>2020-06-23T15:28:28.000Z</time>
        <extensions>
          <ns3:TrackPointExtension>
            <ns3:atemp>25.0</ns3:atemp>
            <ns3:hr>92</ns3:hr>
          </ns3:TrackPointExtension>
        </extensions>
      </trkpt>
      <trkpt lat="47.7704887278378009796142578125" lon="12.23181984387338161468505859375">
        <ele>602.79998779296875</ele>
        <time>2020-06-23T15:28:29.000Z</time>
        <extensions>
          <ns3:TrackPointExtension>
            <ns3:atemp>25.0</ns3:atemp>
            <ns3:hr>92</ns3:hr>
          </ns3:TrackPointExtension>
        </extensions>
      </trkpt>
    </trkseg>
  </trk>
</gpx>
